<?xml version='1.0' encoding='UTF-8'?><gpx version="1.1" creator="JPX - https://github.com/jenetics/jpx" xmlns="http://www.topografix.com/GPX/1/1"><trk><trkseg><trkpt lat="43.3446533" lon="12.9985883"><ele>243.0</ele><time>2026-04-04T11:58:08.834Z</time></trkpt><trkpt lat="43.344605" lon="12.9985233"><ele>243.0</ele><time>2026-04-04T11:58:34.832Z</time></trkpt><trkpt lat="43.3445567" lon="12.9986717"><ele>243.0</ele><time>2026-04-04T12:00:03.827Z</time></trkpt><trkpt lat="43.34463" lon="12.99866"><ele>243.0</ele><time>2026-04-04T12:00:12.834Z</time></trkpt><trkpt lat="43.344655" lon="12.9985083"><ele>243.0</ele><time>2026-04-04T12:00:14.834Z</time></trkpt><trkpt lat="43.344665" lon="12.9983633"><ele>242.60000000000002</ele><time>2026-04-04T12:00:16.832Z</time></trkpt><trkpt lat="43.3446317" lon="12.99828"><ele>242.20000000000002</ele><time>2026-04-04T12:00:23.835Z</time></trkpt><trkpt lat="43.3445883" lon="12.9981967"><ele>241.8</ele><time>2026-04-04T12:00:39.835Z</time></trkpt><trkpt lat="43.34447" lon="12.99815"><ele>241.4</ele><time>2026-04-04T12:00:41.835Z</time></trkpt><trkpt lat="43.3443833" lon="12.9981383"><ele>241.0</ele><time>2026-04-04T12:00:42.834Z</time></trkpt><trkpt lat="43.3442833" lon="12.99814"><ele>241.0</ele><time>2026-04-04T12:00:43.837Z</time></trkpt><trkpt lat="43.3441417" lon="12.99816"><ele>241.0</ele><time>2026-04-04T12:00:44.836Z</time></trkpt><trkpt lat="43.3439817" lon="12.99818"><ele>241.0</ele><time>2026-04-04T12:00:45.835Z</time></trkpt><trkpt lat="43.343805" lon="12.9982017"><ele>241.66666666666666</ele><time>2026-04-04T12:00:46.834Z</time></trkpt><trkpt lat="43.3436183" lon="12.99822"><ele>242.33333333333331</ele><time>2026-04-04T12:00:47.831Z</time></trkpt><trkpt lat="43.3434267" lon="12.99824"><ele>243.0</ele><time>2026-04-04T12:00:48.828Z</time></trkpt><trkpt lat="43.3432317" lon="12.9982617"><ele>244.33333333333331</ele><time>2026-04-04T12:00:49.833Z</time></trkpt><trkpt lat="43.3430417" lon="12.9982833"><ele>245.66666666666666</ele><time>2026-04-04T12:00:50.829Z</time></trkpt><trkpt lat="43.342865" lon="12.998305"><ele>247.0</ele><time>2026-04-04T12:00:51.833Z</time></trkpt><trkpt lat="43.3426983" lon="12.9983233"><ele>249.0</ele><time>2026-04-04T12:00:52.834Z</time></trkpt><trkpt lat="43.3425367" lon="12.9983417"><ele>251.0</ele><time>2026-04-04T12:00:53.832Z</time></trkpt><trkpt lat="43.3423783" lon="12.99836"><ele>253.0</ele><time>2026-04-04T12:00:54.84Z</time></trkpt><trkpt lat="43.342215" lon="12.9983833"><ele>253.66666666666666</ele><time>2026-04-04T12:00:55.835Z</time></trkpt><trkpt lat="43.34205" lon="12.9984067"><ele>254.33333333333331</ele><time>2026-04-04T12:00:56.836Z</time></trkpt><trkpt lat="43.341885" lon="12.998425"><ele>255.0</ele><time>2026-04-04T12:00:57.834Z</time></trkpt><trkpt lat="43.3417217" lon="12.998445"><ele>255.0</ele><time>2026-04-04T12:00:58.834Z</time></trkpt><trkpt lat="43.3415633" lon="12.9984633"><ele>255.0</ele><time>2026-04-04T12:00:59.835Z</time></trkpt><trkpt lat="43.341405" lon="12.9984817"><ele>255.0</ele><time>2026-04-04T12:01:00.837Z</time></trkpt><trkpt lat="43.341245" lon="12.9985"><ele>254.33333333333331</ele><time>2026-04-04T12:01:01.835Z</time></trkpt><trkpt lat="43.3410833" lon="12.9985217"><ele>253.66666666666666</ele><time>2026-04-04T12:01:02.835Z</time></trkpt><trkpt lat="43.340915" lon="12.9985483"><ele>253.0</ele><time>2026-04-04T12:01:03.835Z</time></trkpt><trkpt lat="43.3407467" lon="12.998575"><ele>253.0</ele><time>2026-04-04T12:01:04.834Z</time></trkpt><trkpt lat="43.3405767" lon="12.9986"><ele>253.0</ele><time>2026-04-04T12:01:05.835Z</time></trkpt><trkpt lat="43.340405" lon="12.9986233"><ele>253.0</ele><time>2026-04-04T12:01:06.834Z</time></trkpt><trkpt lat="43.3402367" lon="12.998645"><ele>253.33333333333331</ele><time>2026-04-04T12:01:07.834Z</time></trkpt><trkpt lat="43.3400683" lon="12.998665"><ele>253.66666666666669</ele><time>2026-04-04T12:01:08.835Z</time></trkpt><trkpt lat="43.3398983" lon="12.9986867"><ele>254.0</ele><time>2026-04-04T12:01:09.835Z</time></trkpt><trkpt lat="43.339725" lon="12.9987067"><ele>253.66666666666669</ele><time>2026-04-04T12:01:10.834Z</time></trkpt><trkpt lat="43.339545" lon="12.9987317"><ele>253.33333333333331</ele><time>2026-04-04T12:01:11.834Z</time></trkpt><trkpt lat="43.3393617" lon="12.9987583"><ele>253.0</ele><time>2026-04-04T12:01:12.834Z</time></trkpt><trkpt lat="43.3391783" lon="12.9987833"><ele>253.0</ele><time>2026-04-04T12:01:13.836Z</time></trkpt><trkpt lat="43.3389917" lon="12.9988067"><ele>253.0</ele><time>2026-04-04T12:01:14.835Z</time></trkpt><trkpt lat="43.3388" lon="12.9988317"><ele>253.0</ele><time>2026-04-04T12:01:15.832Z</time></trkpt><trkpt lat="43.33861" lon="12.99886"><ele>252.33333333333331</ele><time>2026-04-04T12:01:16.834Z</time></trkpt><trkpt lat="43.33842" lon="12.9988833"><ele>251.66666666666669</ele><time>2026-04-04T12:01:17.835Z</time></trkpt><trkpt lat="43.3382283" lon="12.9989067"><ele>251.0</ele><time>2026-04-04T12:01:18.835Z</time></trkpt><trkpt lat="43.3380417" lon="12.9989283"><ele>250.33333333333334</ele><time>2026-04-04T12:01:19.834Z</time></trkpt><trkpt lat="43.3378533" lon="12.998955"><ele>249.66666666666669</ele><time>2026-04-04T12:01:20.836Z</time></trkpt><trkpt lat="43.3376633" lon="12.9989817"><ele>249.0</ele><time>2026-04-04T12:01:21.833Z</time></trkpt><trkpt lat="43.33747" lon="12.9990017"><ele>249.0</ele><time>2026-04-04T12:01:22.835Z</time></trkpt><trkpt lat="43.3372733" lon="12.99902"><ele>249.0</ele><time>2026-04-04T12:01:23.834Z</time></trkpt><trkpt lat="43.3370733" lon="12.999025"><ele>249.0</ele><time>2026-04-04T12:01:24.834Z</time></trkpt><trkpt lat="43.3368717" lon="12.999025"><ele>249.33333333333331</ele><time>2026-04-04T12:01:25.835Z</time></trkpt><trkpt lat="43.3366683" lon="12.9990167"><ele>249.66666666666666</ele><time>2026-04-04T12:01:26.834Z</time></trkpt><trkpt lat="43.3364683" lon="12.9989983"><ele>250.0</ele><time>2026-04-04T12:01:27.833Z</time></trkpt><trkpt lat="43.3362717" lon="12.9989733"><ele>251.33333333333331</ele><time>2026-04-04T12:01:28.833Z</time></trkpt><trkpt lat="43.336075" lon="12.9989383"><ele>252.66666666666669</ele><time>2026-04-04T12:01:29.833Z</time></trkpt><trkpt lat="43.3358783" lon="12.99889"><ele>254.0</ele><time>2026-04-04T12:01:30.835Z</time></trkpt><trkpt lat="43.3356817" lon="12.99883"><ele>255.66666666666669</ele><time>2026-04-04T12:01:31.835Z</time></trkpt><trkpt lat="43.3354883" lon="12.9987583"><ele>257.3333333333333</ele><time>2026-04-04T12:01:32.829Z</time></trkpt><trkpt lat="43.3352983" lon="12.9986817"><ele>259.0</ele><time>2026-04-04T12:01:33.834Z</time></trkpt><trkpt lat="43.3351117" lon="12.9985967"><ele>259.0</ele><time>2026-04-04T12:01:34.833Z</time></trkpt><trkpt lat="43.33493" lon="12.9985117"><ele>259.0</ele><time>2026-04-04T12:01:35.835Z</time></trkpt><trkpt lat="43.3347417" lon="12.9984217"><ele>259.0</ele><time>2026-04-04T12:01:36.834Z</time></trkpt><trkpt lat="43.3345533" lon="12.9983183"><ele>257.0</ele><time>2026-04-04T12:01:37.833Z</time></trkpt><trkpt lat="43.33437" lon="12.9981967"><ele>255.0</ele><time>2026-04-04T12:01:38.836Z</time></trkpt><trkpt lat="43.3341867" lon="12.99806"><ele>253.0</ele><time>2026-04-04T12:01:39.835Z</time></trkpt><trkpt lat="43.334005" lon="12.9979067"><ele>253.0</ele><time>2026-04-04T12:01:40.835Z</time></trkpt><trkpt lat="43.33383" lon="12.9977433"><ele>253.0</ele><time>2026-04-04T12:01:41.835Z</time></trkpt><trkpt lat="43.333655" lon="12.9975767"><ele>253.0</ele><time>2026-04-04T12:01:42.837Z</time></trkpt><trkpt lat="43.3334833" lon="12.99741"><ele>253.0</ele><time>2026-04-04T12:01:43.837Z</time></trkpt><trkpt lat="43.33331" lon="12.9972433"><ele>253.0</ele><time>2026-04-04T12:01:44.837Z</time></trkpt><trkpt lat="43.3331433" lon="12.9970767"><ele>253.0</ele><time>2026-04-04T12:01:45.838Z</time></trkpt><trkpt lat="43.3329783" lon="12.99691"><ele>252.66666666666666</ele><time>2026-04-04T12:01:46.837Z</time></trkpt><trkpt lat="43.332815" lon="12.9967467"><ele>252.33333333333331</ele><time>2026-04-04T12:01:47.834Z</time></trkpt><trkpt lat="43.332655" lon="12.996585"><ele>252.0</ele><time>2026-04-04T12:01:48.834Z</time></trkpt><trkpt lat="43.3324967" lon="12.99643"><ele>252.0</ele><time>2026-04-04T12:01:49.835Z</time></trkpt><trkpt lat="43.33234" lon="12.996275"><ele>252.0</ele><time>2026-04-04T12:01:50.837Z</time></trkpt><trkpt lat="43.3321833" lon="12.9961233"><ele>252.0</ele><time>2026-04-04T12:01:51.836Z</time></trkpt><trkpt lat="43.3320317" lon="12.9959683"><ele>252.33333333333331</ele><time>2026-04-04T12:01:52.834Z</time></trkpt><trkpt lat="43.3318783" lon="12.9958167"><ele>252.66666666666666</ele><time>2026-04-04T12:01:53.835Z</time></trkpt><trkpt lat="43.3317233" lon="12.995665"><ele>253.0</ele><time>2026-04-04T12:01:54.836Z</time></trkpt><trkpt lat="43.331565" lon="12.99551"><ele>253.0</ele><time>2026-04-04T12:01:55.837Z</time></trkpt><trkpt lat="43.331405" lon="12.9953533"><ele>253.0</ele><time>2026-04-04T12:01:56.836Z</time></trkpt><trkpt lat="43.331245" lon="12.995195"><ele>253.0</ele><time>2026-04-04T12:01:57.835Z</time></trkpt><trkpt lat="43.3310867" lon="12.9950333"><ele>253.0</ele><time>2026-04-04T12:01:58.836Z</time></trkpt><trkpt lat="43.330925" lon="12.994875"><ele>253.0</ele><time>2026-04-04T12:01:59.836Z</time></trkpt><trkpt lat="43.3307633" lon="12.9947133"><ele>253.0</ele><time>2026-04-04T12:02:00.835Z</time></trkpt><trkpt lat="43.3306033" lon="12.9945567"><ele>253.66666666666666</ele><time>2026-04-04T12:02:01.834Z</time></trkpt><trkpt lat="43.330445" lon="12.994405"><ele>254.33333333333331</ele><time>2026-04-04T12:02:02.836Z</time></trkpt><trkpt lat="43.3302933" lon="12.994255"><ele>255.0</ele><time>2026-04-04T12:02:03.835Z</time></trkpt><trkpt lat="43.3301417" lon="12.9941083"><ele>255.0</ele><time>2026-04-04T12:02:04.834Z</time></trkpt><trkpt lat="43.3299917" lon="12.9939617"><ele>255.0</ele><time>2026-04-04T12:02:05.837Z</time></trkpt><trkpt lat="43.3298417" lon="12.993815"><ele>255.0</ele><time>2026-04-04T12:02:06.833Z</time></trkpt><trkpt lat="43.329695" lon="12.99367"><ele>255.33333333333331</ele><time>2026-04-04T12:02:07.834Z</time></trkpt><trkpt lat="43.3295483" lon="12.993525"><ele>255.66666666666666</ele><time>2026-04-04T12:02:08.837Z</time></trkpt><trkpt lat="43.3294033" lon="12.9933767"><ele>256.0</ele><time>2026-04-04T12:02:09.835Z</time></trkpt><trkpt lat="43.329255" lon="12.9932283"><ele>256.3333333333333</ele><time>2026-04-04T12:02:10.834Z</time></trkpt><trkpt lat="43.329105" lon="12.9930783"><ele>256.6666666666667</ele><time>2026-04-04T12:02:11.836Z</time></trkpt><trkpt lat="43.3289517" lon="12.9929233"><ele>257.0</ele><time>2026-04-04T12:02:12.835Z</time></trkpt><trkpt lat="43.328795" lon="12.9927667"><ele>258.0</ele><time>2026-04-04T12:02:13.836Z</time></trkpt><trkpt lat="43.328635" lon="12.9926083"><ele>259.0</ele><time>2026-04-04T12:02:14.835Z</time></trkpt><trkpt lat="43.3284767" lon="12.9924517"><ele>260.0</ele><time>2026-04-04T12:02:15.835Z</time></trkpt><trkpt lat="43.32832" lon="12.9922983"><ele>260.0</ele><time>2026-04-04T12:02:16.834Z</time></trkpt><trkpt lat="43.328165" lon="12.9921433"><ele>260.0</ele><time>2026-04-04T12:02:17.835Z</time></trkpt><trkpt lat="43.32801" lon="12.99199"><ele>260.0</ele><time>2026-04-04T12:02:18.835Z</time></trkpt><trkpt lat="43.3278567" lon="12.99184"><ele>260.33333333333337</ele><time>2026-04-04T12:02:19.835Z</time></trkpt><trkpt lat="43.327705" lon="12.9916867"><ele>260.6666666666667</ele><time>2026-04-04T12:02:20.837Z</time></trkpt><trkpt lat="43.327555" lon="12.991535"><ele>261.0</ele><time>2026-04-04T12:02:21.834Z</time></trkpt><trkpt lat="43.3274" lon="12.9913817"><ele>261.0</ele><time>2026-04-04T12:02:22.835Z</time></trkpt><trkpt lat="43.3272467" lon="12.9912267"><ele>261.0</ele><time>2026-04-04T12:02:23.837Z</time></trkpt><trkpt lat="43.3270917" lon="12.9910733"><ele>261.0</ele><time>2026-04-04T12:02:24.835Z</time></trkpt><trkpt lat="43.3269333" lon="12.9909217"><ele>260.3333333333333</ele><time>2026-04-04T12:02:25.834Z</time></trkpt><trkpt lat="43.3267783" lon="12.9907683"><ele>259.66666666666663</ele><time>2026-04-04T12:02:26.836Z</time></trkpt><trkpt lat="43.3266283" lon="12.9906167"><ele>259.0</ele><time>2026-04-04T12:02:27.835Z</time></trkpt><trkpt lat="43.32648" lon="12.990465"><ele>259.3333333333333</ele><time>2026-04-04T12:02:28.835Z</time></trkpt><trkpt lat="43.3263283" lon="12.990315"><ele>259.6666666666667</ele><time>2026-04-04T12:02:29.837Z</time></trkpt><trkpt lat="43.3261767" lon="12.99016"><ele>260.0</ele><time>2026-04-04T12:02:30.834Z</time></trkpt><trkpt lat="43.326025" lon="12.9900067"><ele>260.0</ele><time>2026-04-04T12:02:31.836Z</time></trkpt><trkpt lat="43.3258783" lon="12.9898517"><ele>260.0</ele><time>2026-04-04T12:02:32.837Z</time></trkpt><trkpt lat="43.3257283" lon="12.9896983"><ele>260.0</ele><time>2026-04-04T12:02:33.835Z</time></trkpt><trkpt lat="43.3255767" lon="12.9895467"><ele>261.0</ele><time>2026-04-04T12:02:34.836Z</time></trkpt><trkpt lat="43.3254233" lon="12.9893917"><ele>262.0</ele><time>2026-04-04T12:02:35.834Z</time></trkpt><trkpt lat="43.32527" lon="12.9892367"><ele>263.0</ele><time>2026-04-04T12:02:36.836Z</time></trkpt><trkpt lat="43.3251183" lon="12.9890833"><ele>263.33333333333337</ele><time>2026-04-04T12:02:37.836Z</time></trkpt><trkpt lat="43.3249617" lon="12.9889333"><ele>263.6666666666667</ele><time>2026-04-04T12:02:38.835Z</time></trkpt><trkpt lat="43.3248067" lon="12.9887833"><ele>264.0</ele><time>2026-04-04T12:02:39.835Z</time></trkpt><trkpt lat="43.3246517" lon="12.9886333"><ele>265.0</ele><time>2026-04-04T12:02:40.835Z</time></trkpt><trkpt lat="43.3244967" lon="12.9884833"><ele>266.0</ele><time>2026-04-04T12:02:41.835Z</time></trkpt><trkpt lat="43.3243433" lon="12.98833"><ele>267.0</ele><time>2026-04-04T12:02:42.836Z</time></trkpt><trkpt lat="43.3241883" lon="12.98818"><ele>267.0</ele><time>2026-04-04T12:02:43.834Z</time></trkpt><trkpt lat="43.3240367" lon="12.9880283"><ele>267.0</ele><time>2026-04-04T12:02:44.838Z</time></trkpt><trkpt lat="43.3238833" lon="12.987875"><ele>267.0</ele><time>2026-04-04T12:02:45.834Z</time></trkpt><trkpt lat="43.32373" lon="12.9877217"><ele>267.3333333333333</ele><time>2026-04-04T12:02:46.833Z</time></trkpt><trkpt lat="43.3235767" lon="12.987565"><ele>267.66666666666663</ele><time>2026-04-04T12:02:47.836Z</time></trkpt><trkpt lat="43.3234283" lon="12.9874067"><ele>268.0</ele><time>2026-04-04T12:02:48.835Z</time></trkpt><trkpt lat="43.323275" lon="12.9872467"><ele>268.3333333333333</ele><time>2026-04-04T12:02:49.835Z</time></trkpt><trkpt lat="43.32312" lon="12.9870867"><ele>268.6666666666667</ele><time>2026-04-04T12:02:50.833Z</time></trkpt><trkpt lat="43.3229667" lon="12.9869267"><ele>269.0</ele><time>2026-04-04T12:02:51.836Z</time></trkpt><trkpt lat="43.322815" lon="12.986765"><ele>268.6666666666667</ele><time>2026-04-04T12:02:52.836Z</time></trkpt><trkpt lat="43.3226617" lon="12.9866083"><ele>268.3333333333333</ele><time>2026-04-04T12:02:53.838Z</time></trkpt><trkpt lat="43.3225067" lon="12.9864567"><ele>268.0</ele><time>2026-04-04T12:02:54.84Z</time></trkpt><trkpt lat="43.32235" lon="12.9863067"><ele>269.0</ele><time>2026-04-04T12:02:55.835Z</time></trkpt><trkpt lat="43.3221933" lon="12.9861617"><ele>270.0</ele><time>2026-04-04T12:02:56.838Z</time></trkpt><trkpt lat="43.3220383" lon="12.986015"><ele>271.0</ele><time>2026-04-04T12:02:57.837Z</time></trkpt><trkpt lat="43.3218817" lon="12.985865"><ele>271.3333333333333</ele><time>2026-04-04T12:02:58.836Z</time></trkpt><trkpt lat="43.321725" lon="12.9857333"><ele>271.6666666666667</ele><time>2026-04-04T12:02:59.838Z</time></trkpt><trkpt lat="43.321565" lon="12.9856317"><ele>272.0</ele><time>2026-04-04T12:03:00.837Z</time></trkpt><trkpt lat="43.3213967" lon="12.9855667"><ele>272.33333333333337</ele><time>2026-04-04T12:03:01.836Z</time></trkpt><trkpt lat="43.3212217" lon="12.9855267"><ele>272.6666666666667</ele><time>2026-04-04T12:03:02.838Z</time></trkpt><trkpt lat="43.3210433" lon="12.9855033"><ele>273.0</ele><time>2026-04-04T12:03:03.838Z</time></trkpt><trkpt lat="43.3208667" lon="12.9854767"><ele>273.0</ele><time>2026-04-04T12:03:04.837Z</time></trkpt><trkpt lat="43.320695" lon="12.9854533"><ele>273.0</ele><time>2026-04-04T12:03:05.835Z</time></trkpt><trkpt lat="43.3205217" lon="12.98545"><ele>273.0</ele><time>2026-04-04T12:03:06.837Z</time></trkpt><trkpt lat="43.3203467" lon="12.98547"><ele>274.3333333333333</ele><time>2026-04-04T12:03:07.838Z</time></trkpt><trkpt lat="43.3201733" lon="12.9855183"><ele>275.66666666666663</ele><time>2026-04-04T12:03:08.838Z</time></trkpt><trkpt lat="43.3200017" lon="12.9855867"><ele>277.0</ele><time>2026-04-04T12:03:09.837Z</time></trkpt><trkpt lat="43.31983" lon="12.9856717"><ele>277.0</ele><time>2026-04-04T12:03:10.836Z</time></trkpt><trkpt lat="43.3196567" lon="12.9857567"><ele>277.0</ele><time>2026-04-04T12:03:11.837Z</time></trkpt><trkpt lat="43.31948" lon="12.985845"><ele>277.0</ele><time>2026-04-04T12:03:12.837Z</time></trkpt><trkpt lat="43.3193017" lon="12.985905"><ele>277.0</ele><time>2026-04-04T12:03:13.837Z</time></trkpt><trkpt lat="43.3191217" lon="12.9859633"><ele>277.0</ele><time>2026-04-04T12:03:14.838Z</time></trkpt><trkpt lat="43.3189383" lon="12.9859967"><ele>277.0</ele><time>2026-04-04T12:03:15.837Z</time></trkpt><trkpt lat="43.31876" lon="12.9860283"><ele>278.0</ele><time>2026-04-04T12:03:16.837Z</time></trkpt><trkpt lat="43.3185833" lon="12.9860517"><ele>279.0</ele><time>2026-04-04T12:03:17.836Z</time></trkpt><trkpt lat="43.3184183" lon="12.9860633"><ele>280.0</ele><time>2026-04-04T12:03:18.836Z</time></trkpt><trkpt lat="43.3182683" lon="12.9860683"><ele>280.0</ele><time>2026-04-04T12:03:19.836Z</time></trkpt><trkpt lat="43.31814" lon="12.9860733"><ele>280.0</ele><time>2026-04-04T12:03:20.837Z</time></trkpt><trkpt lat="43.3180233" lon="12.9860783"><ele>280.0</ele><time>2026-04-04T12:03:21.838Z</time></trkpt><trkpt lat="43.31792" lon="12.9860833"><ele>280.0</ele><time>2026-04-04T12:03:22.838Z</time></trkpt><trkpt lat="43.3178233" lon="12.986085"><ele>280.0</ele><time>2026-04-04T12:03:23.831Z</time></trkpt><trkpt lat="43.3177383" lon="12.98609"><ele>280.6</ele><time>2026-04-04T12:03:24.832Z</time></trkpt><trkpt lat="43.31766" lon="12.986095"><ele>281.2</ele><time>2026-04-04T12:03:25.834Z</time></trkpt><trkpt lat="43.317575" lon="12.9860967"><ele>281.8</ele><time>2026-04-04T12:03:26.838Z</time></trkpt><trkpt lat="43.3174833" lon="12.9860983"><ele>282.4</ele><time>2026-04-04T12:03:27.836Z</time></trkpt><trkpt lat="43.31738" lon="12.986095"><ele>283.0</ele><time>2026-04-04T12:03:28.835Z</time></trkpt><trkpt lat="43.3172717" lon="12.9860983"><ele>283.8</ele><time>2026-04-04T12:03:29.837Z</time></trkpt><trkpt lat="43.3171633" lon="12.9860967"><ele>284.6</ele><time>2026-04-04T12:03:30.835Z</time></trkpt><trkpt lat="43.3170617" lon="12.9860983"><ele>285.4</ele><time>2026-04-04T12:03:31.836Z</time></trkpt><trkpt lat="43.3169633" lon="12.9861017"><ele>286.2</ele><time>2026-04-04T12:03:32.836Z</time></trkpt><trkpt lat="43.31687" lon="12.9861117"><ele>287.0</ele><time>2026-04-04T12:03:33.836Z</time></trkpt><trkpt lat="43.31678" lon="12.98612"><ele>287.0</ele><time>2026-04-04T12:03:34.833Z</time></trkpt><trkpt lat="43.3166867" lon="12.986125"><ele>287.0</ele><time>2026-04-04T12:03:35.836Z</time></trkpt><trkpt lat="43.316595" lon="12.9861267"><ele>287.0</ele><time>2026-04-04T12:03:36.836Z</time></trkpt><trkpt lat="43.3165017" lon="12.9861317"><ele>287.0</ele><time>2026-04-04T12:03:37.836Z</time></trkpt><trkpt lat="43.3164083" lon="12.986135"><ele>287.0</ele><time>2026-04-04T12:03:38.835Z</time></trkpt><trkpt lat="43.31632" lon="12.98614"><ele>287.8</ele><time>2026-04-04T12:03:39.834Z</time></trkpt><trkpt lat="43.3162283" lon="12.9861433"><ele>288.6</ele><time>2026-04-04T12:03:40.834Z</time></trkpt><trkpt lat="43.3161383" lon="12.98615"><ele>289.40000000000003</ele><time>2026-04-04T12:03:41.836Z</time></trkpt><trkpt lat="43.316045" lon="12.986155"><ele>290.2</ele><time>2026-04-04T12:03:42.836Z</time></trkpt><trkpt lat="43.315955" lon="12.986155"><ele>291.0</ele><time>2026-04-04T12:03:43.834Z</time></trkpt><trkpt lat="43.31587" lon="12.986155"><ele>291.0</ele><time>2026-04-04T12:03:44.837Z</time></trkpt><trkpt lat="43.3157767" lon="12.9861567"><ele>291.0</ele><time>2026-04-04T12:03:45.836Z</time></trkpt><trkpt lat="43.3156817" lon="12.9861567"><ele>291.0</ele><time>2026-04-04T12:03:46.835Z</time></trkpt><trkpt lat="43.31558" lon="12.9861583"><ele>291.0</ele><time>2026-04-04T12:03:47.836Z</time></trkpt><trkpt lat="43.31547" lon="12.98616"><ele>291.0</ele><time>2026-04-04T12:03:48.836Z</time></trkpt><trkpt lat="43.31535" lon="12.9861617"><ele>291.5</ele><time>2026-04-04T12:03:49.835Z</time></trkpt><trkpt lat="43.31522" lon="12.9861683"><ele>292.0</ele><time>2026-04-04T12:03:50.835Z</time></trkpt><trkpt lat="43.31508" lon="12.9861783"><ele>292.5</ele><time>2026-04-04T12:03:51.834Z</time></trkpt><trkpt lat="43.3149317" lon="12.9861867"><ele>293.0</ele><time>2026-04-04T12:03:52.834Z</time></trkpt><trkpt lat="43.3147767" lon="12.9861933"><ele>293.0</ele><time>2026-04-04T12:03:53.835Z</time></trkpt><trkpt lat="43.3146233" lon="12.9862"><ele>293.0</ele><time>2026-04-04T12:03:54.832Z</time></trkpt><trkpt lat="43.31448" lon="12.986205"><ele>293.0</ele><time>2026-04-04T12:03:55.835Z</time></trkpt><trkpt lat="43.31434" lon="12.9862167"><ele>293.0</ele><time>2026-04-04T12:03:56.838Z</time></trkpt><trkpt lat="43.3142083" lon="12.9862283"><ele>293.0</ele><time>2026-04-04T12:03:57.836Z</time></trkpt><trkpt lat="43.3140817" lon="12.9862383"><ele>293.0</ele><time>2026-04-04T12:03:58.835Z</time></trkpt><trkpt lat="43.3139567" lon="12.98625"><ele>293.0</ele><time>2026-04-04T12:03:59.836Z</time></trkpt><trkpt lat="43.31384" lon="12.986265"><ele>293.0</ele><time>2026-04-04T12:04:00.835Z</time></trkpt><trkpt lat="43.3137267" lon="12.9862733"><ele>293.1666666666667</ele><time>2026-04-04T12:04:01.834Z</time></trkpt><trkpt lat="43.3136233" lon="12.986285"><ele>293.33333333333337</ele><time>2026-04-04T12:04:02.835Z</time></trkpt><trkpt lat="43.3135367" lon="12.9862967"><ele>293.5</ele><time>2026-04-04T12:04:03.833Z</time></trkpt><trkpt lat="43.3134683" lon="12.9863083"><ele>293.6666666666667</ele><time>2026-04-04T12:04:04.834Z</time></trkpt><trkpt lat="43.31337" lon="12.9863167"><ele>293.8333333333333</ele><time>2026-04-04T12:04:06.834Z</time></trkpt><trkpt lat="43.3132917" lon="12.9862967"><ele>294.0</ele><time>2026-04-04T12:04:08.836Z</time></trkpt><trkpt lat="43.313225" lon="12.986265"><ele>294.0</ele><time>2026-04-04T12:04:10.836Z</time></trkpt><trkpt lat="43.3131733" lon="12.9861867"><ele>294.0</ele><time>2026-04-04T12:04:12.837Z</time></trkpt><trkpt lat="43.3131583" lon="12.9860383"><ele>294.0</ele><time>2026-04-04T12:04:14.836Z</time></trkpt><trkpt lat="43.3131433" lon="12.9858833"><ele>294.0</ele><time>2026-04-04T12:04:16.835Z</time></trkpt><trkpt lat="43.3131233" lon="12.9857817"><ele>294.0</ele><time>2026-04-04T12:04:18.836Z</time></trkpt><trkpt lat="43.3130583" lon="12.98574"><ele>294.0</ele><time>2026-04-04T12:04:57.836Z</time></trkpt><trkpt lat="43.3130333" lon="12.9856017"><ele>293.4</ele><time>2026-04-04T12:04:59.837Z</time></trkpt><trkpt lat="43.3130333" lon="12.9854783"><ele>292.79999999999995</ele><time>2026-04-04T12:05:00.834Z</time></trkpt><trkpt lat="43.313035" lon="12.9853333"><ele>292.20000000000005</ele><time>2026-04-04T12:05:01.836Z</time></trkpt><trkpt lat="43.3130367" lon="12.9851817"><ele>291.6</ele><time>2026-04-04T12:05:02.837Z</time></trkpt><trkpt lat="43.31304" lon="12.9850267"><ele>291.0</ele><time>2026-04-04T12:05:03.834Z</time></trkpt><trkpt lat="43.313045" lon="12.9848617"><ele>290.8</ele><time>2026-04-04T12:05:04.835Z</time></trkpt><trkpt lat="43.31306" lon="12.9846983"><ele>290.6</ele><time>2026-04-04T12:05:05.835Z</time></trkpt><trkpt lat="43.3130867" lon="12.9845483"><ele>290.4</ele><time>2026-04-04T12:05:06.836Z</time></trkpt><trkpt lat="43.313115" lon="12.984415"><ele>290.2</ele><time>2026-04-04T12:05:07.836Z</time></trkpt><trkpt lat="43.3131267" lon="12.984305"><ele>290.0</ele><time>2026-04-04T12:05:08.836Z</time></trkpt><trkpt lat="43.3130767" lon="12.9841517"><ele>289.0</ele><time>2026-04-04T12:05:10.835Z</time></trkpt><trkpt lat="43.313015" lon="12.9840983"><ele>288.0</ele><time>2026-04-04T12:05:11.836Z</time></trkpt><trkpt lat="43.3129167" lon="12.9840767"><ele>287.0</ele><time>2026-04-04T12:05:12.837Z</time></trkpt><trkpt lat="43.3128033" lon="12.9840733"><ele>286.0</ele><time>2026-04-04T12:05:13.836Z</time></trkpt><trkpt lat="43.3126283" lon="12.9841217"><ele>286.0</ele><time>2026-04-04T12:05:14.835Z</time></trkpt><trkpt lat="43.31247" lon="12.9841467"><ele>286.0</ele><time>2026-04-04T12:05:15.837Z</time></trkpt><trkpt lat="43.312315" lon="12.9841717"><ele>286.0</ele><time>2026-04-04T12:05:16.833Z</time></trkpt><trkpt lat="43.3121583" lon="12.9841917"><ele>287.3333333333333</ele><time>2026-04-04T12:05:17.835Z</time></trkpt><trkpt lat="43.3119883" lon="12.98421"><ele>288.6666666666667</ele><time>2026-04-04T12:05:18.837Z</time></trkpt><trkpt lat="43.3118133" lon="12.9842333"><ele>290.0</ele><time>2026-04-04T12:05:19.83Z</time></trkpt><trkpt lat="43.3116333" lon="12.9842517"><ele>290.0</ele><time>2026-04-04T12:05:20.835Z</time></trkpt><trkpt lat="43.3114433" lon="12.9842733"><ele>290.0</ele><time>2026-04-04T12:05:21.835Z</time></trkpt><trkpt lat="43.3112517" lon="12.9842967"><ele>290.0</ele><time>2026-04-04T12:05:22.834Z</time></trkpt><trkpt lat="43.31106" lon="12.9843167"><ele>289.6666666666667</ele><time>2026-04-04T12:05:23.835Z</time></trkpt><trkpt lat="43.3108683" lon="12.9843383"><ele>289.3333333333333</ele><time>2026-04-04T12:05:24.835Z</time></trkpt><trkpt lat="43.31067" lon="12.98436"><ele>289.0</ele><time>2026-04-04T12:05:25.836Z</time></trkpt><trkpt lat="43.3104633" lon="12.9843817"><ele>288.3333333333333</ele><time>2026-04-04T12:05:26.837Z</time></trkpt><trkpt lat="43.3102583" lon="12.9844033"><ele>287.6666666666667</ele><time>2026-04-04T12:05:27.835Z</time></trkpt><trkpt lat="43.3100517" lon="12.9844217"><ele>287.0</ele><time>2026-04-04T12:05:28.834Z</time></trkpt><trkpt lat="43.3098483" lon="12.98444"><ele>286.33333333333337</ele><time>2026-04-04T12:05:29.834Z</time></trkpt><trkpt lat="43.3096517" lon="12.98446"><ele>285.6666666666667</ele><time>2026-04-04T12:05:30.834Z</time></trkpt><trkpt lat="43.3094717" lon="12.98448"><ele>285.0</ele><time>2026-04-04T12:05:31.833Z</time></trkpt><trkpt lat="43.3093183" lon="12.9845017"><ele>285.0</ele><time>2026-04-04T12:05:32.835Z</time></trkpt><trkpt lat="43.30919" lon="12.9845083"><ele>285.0</ele><time>2026-04-04T12:05:33.835Z</time></trkpt><trkpt lat="43.3090767" lon="12.9844933"><ele>285.0</ele><time>2026-04-04T12:05:34.835Z</time></trkpt><trkpt lat="43.30897" lon="12.9844633"><ele>285.0</ele><time>2026-04-04T12:05:35.834Z</time></trkpt><trkpt lat="43.3088767" lon="12.9844283"><ele>285.0</ele><time>2026-04-04T12:05:36.836Z</time></trkpt><trkpt lat="43.3088067" lon="12.984375"><ele>285.1666666666667</ele><time>2026-04-04T12:05:37.834Z</time></trkpt><trkpt lat="43.30876" lon="12.9843067"><ele>285.3333333333333</ele><time>2026-04-04T12:05:38.834Z</time></trkpt><trkpt lat="43.3087517" lon="12.9842167"><ele>285.5</ele><time>2026-04-04T12:05:39.836Z</time></trkpt><trkpt lat="43.3087767" lon="12.9841067"><ele>285.66666666666663</ele><time>2026-04-04T12:05:40.835Z</time></trkpt><trkpt lat="43.30883" lon="12.9839833"><ele>285.8333333333333</ele><time>2026-04-04T12:05:41.835Z</time></trkpt><trkpt lat="43.3088767" lon="12.98383"><ele>286.0</ele><time>2026-04-04T12:05:42.835Z</time></trkpt><trkpt lat="43.3089" lon="12.983655"><ele>285.75</ele><time>2026-04-04T12:05:43.835Z</time></trkpt><trkpt lat="43.3089083" lon="12.9834617"><ele>285.5</ele><time>2026-04-04T12:05:44.836Z</time></trkpt><trkpt lat="43.3089" lon="12.9832617"><ele>285.25</ele><time>2026-04-04T12:05:45.836Z</time></trkpt><trkpt lat="43.3088933" lon="12.983055"><ele>285.0</ele><time>2026-04-04T12:05:46.835Z</time></trkpt><trkpt lat="43.3088883" lon="12.9828517"><ele>285.0</ele><time>2026-04-04T12:05:47.837Z</time></trkpt><trkpt lat="43.30889" lon="12.9826567"><ele>285.0</ele><time>2026-04-04T12:05:48.836Z</time></trkpt><trkpt lat="43.308905" lon="12.9824667"><ele>285.0</ele><time>2026-04-04T12:05:49.836Z</time></trkpt><trkpt lat="43.30894" lon="12.9822867"><ele>285.0</ele><time>2026-04-04T12:05:50.836Z</time></trkpt><trkpt lat="43.30897" lon="12.9821183"><ele>284.25</ele><time>2026-04-04T12:05:51.835Z</time></trkpt><trkpt lat="43.3089933" lon="12.9819533"><ele>283.5</ele><time>2026-04-04T12:05:52.835Z</time></trkpt><trkpt lat="43.3089983" lon="12.9817883"><ele>282.75</ele><time>2026-04-04T12:05:53.834Z</time></trkpt><trkpt lat="43.3090083" lon="12.9816133"><ele>282.0</ele><time>2026-04-04T12:05:54.835Z</time></trkpt><trkpt lat="43.3090133" lon="12.9814433"><ele>281.0</ele><time>2026-04-04T12:05:55.838Z</time></trkpt><trkpt lat="43.30902" lon="12.981265"><ele>280.0</ele><time>2026-04-04T12:05:56.836Z</time></trkpt><trkpt lat="43.3090283" lon="12.9810817"><ele>279.0</ele><time>2026-04-04T12:05:57.836Z</time></trkpt><trkpt lat="43.309025" lon="12.9809"><ele>278.0</ele><time>2026-04-04T12:05:58.835Z</time></trkpt><trkpt lat="43.309005" lon="12.9807117"><ele>276.25</ele><time>2026-04-04T12:05:59.835Z</time></trkpt><trkpt lat="43.308965" lon="12.9805167"><ele>274.5</ele><time>2026-04-04T12:06:00.835Z</time></trkpt><trkpt lat="43.3089217" lon="12.9803217"><ele>272.75</ele><time>2026-04-04T12:06:01.834Z</time></trkpt><trkpt lat="43.308895" lon="12.9801183"><ele>271.0</ele><time>2026-04-04T12:06:02.836Z</time></trkpt><trkpt lat="43.3088983" lon="12.97991"><ele>268.66666666666663</ele><time>2026-04-04T12:06:03.837Z</time></trkpt><trkpt lat="43.3089417" lon="12.9797083"><ele>266.3333333333333</ele><time>2026-04-04T12:06:04.833Z</time></trkpt><trkpt lat="43.3090167" lon="12.97952"><ele>264.0</ele><time>2026-04-04T12:06:05.835Z</time></trkpt><trkpt lat="43.309105" lon="12.9793467"><ele>264.0</ele><time>2026-04-04T12:06:06.837Z</time></trkpt><trkpt lat="43.3092" lon="12.97919"><ele>264.0</ele><time>2026-04-04T12:06:07.835Z</time></trkpt><trkpt lat="43.3092967" lon="12.9790467"><ele>264.0</ele><time>2026-04-04T12:06:08.836Z</time></trkpt><trkpt lat="43.3093683" lon="12.9789"><ele>264.0</ele><time>2026-04-04T12:06:09.835Z</time></trkpt><trkpt lat="43.3094167" lon="12.9787433"><ele>264.25</ele><time>2026-04-04T12:06:10.834Z</time></trkpt><trkpt lat="43.3094383" lon="12.9785733"><ele>264.5</ele><time>2026-04-04T12:06:11.836Z</time></trkpt><trkpt lat="43.30944" lon="12.9784"><ele>264.75</ele><time>2026-04-04T12:06:12.835Z</time></trkpt><trkpt lat="43.309435" lon="12.9782383"><ele>265.0</ele><time>2026-04-04T12:06:13.835Z</time></trkpt><trkpt lat="43.30943" lon="12.9781017"><ele>265.16666666666663</ele><time>2026-04-04T12:06:14.836Z</time></trkpt><trkpt lat="43.30941" lon="12.978"><ele>265.3333333333333</ele><time>2026-04-04T12:06:15.835Z</time></trkpt><trkpt lat="43.309365" lon="12.97793"><ele>265.5</ele><time>2026-04-04T12:06:16.833Z</time></trkpt><trkpt lat="43.3092967" lon="12.9778833"><ele>265.6666666666667</ele><time>2026-04-04T12:06:17.835Z</time></trkpt><trkpt lat="43.3091967" lon="12.9778567"><ele>265.83333333333337</ele><time>2026-04-04T12:06:18.837Z</time></trkpt><trkpt lat="43.3090867" lon="12.9778283"><ele>266.0</ele><time>2026-04-04T12:06:19.836Z</time></trkpt><trkpt lat="43.3089667" lon="12.9777967"><ele>265.75</ele><time>2026-04-04T12:06:20.835Z</time></trkpt><trkpt lat="43.3088433" lon="12.9777567"><ele>265.5</ele><time>2026-04-04T12:06:21.837Z</time></trkpt><trkpt lat="43.3087183" lon="12.9777117"><ele>265.25</ele><time>2026-04-04T12:06:22.834Z</time></trkpt><trkpt lat="43.3085867" lon="12.9776533"><ele>265.0</ele><time>2026-04-04T12:06:23.835Z</time></trkpt><trkpt lat="43.30845" lon="12.9775917"><ele>265.0</ele><time>2026-04-04T12:06:24.836Z</time></trkpt><trkpt lat="43.3083067" lon="12.9775483"><ele>265.0</ele><time>2026-04-04T12:06:25.836Z</time></trkpt><trkpt lat="43.3081583" lon="12.97754"><ele>265.0</ele><time>2026-04-04T12:06:26.836Z</time></trkpt><trkpt lat="43.30801" lon="12.977575"><ele>265.0</ele><time>2026-04-04T12:06:27.836Z</time></trkpt><trkpt lat="43.3078617" lon="12.9776617"><ele>265.0</ele><time>2026-04-04T12:06:28.835Z</time></trkpt><trkpt lat="43.3077117" lon="12.9777683"><ele>265.0</ele><time>2026-04-04T12:06:29.834Z</time></trkpt><trkpt lat="43.3075567" lon="12.9778733"><ele>265.0</ele><time>2026-04-04T12:06:30.834Z</time></trkpt><trkpt lat="43.3073967" lon="12.9779617"><ele>266.0</ele><time>2026-04-04T12:06:31.833Z</time></trkpt><trkpt lat="43.3072267" lon="12.9780283"><ele>267.0</ele><time>2026-04-04T12:06:32.835Z</time></trkpt><trkpt lat="43.3070483" lon="12.9780667"><ele>268.0</ele><time>2026-04-04T12:06:33.834Z</time></trkpt><trkpt lat="43.3068717" lon="12.9780817"><ele>268.0</ele><time>2026-04-04T12:06:34.834Z</time></trkpt><trkpt lat="43.3066917" lon="12.97808"><ele>268.0</ele><time>2026-04-04T12:06:35.835Z</time></trkpt><trkpt lat="43.3065083" lon="12.9780617"><ele>268.0</ele><time>2026-04-04T12:06:36.833Z</time></trkpt><trkpt lat="43.306325" lon="12.9780583"><ele>268.66666666666663</ele><time>2026-04-04T12:06:37.835Z</time></trkpt><trkpt lat="43.3061467" lon="12.978095"><ele>269.3333333333333</ele><time>2026-04-04T12:06:38.837Z</time></trkpt><trkpt lat="43.305975" lon="12.9781667"><ele>270.0</ele><time>2026-04-04T12:06:39.834Z</time></trkpt><trkpt lat="43.3058133" lon="12.978255"><ele>270.0</ele><time>2026-04-04T12:06:40.834Z</time></trkpt><trkpt lat="43.30566" lon="12.97834"><ele>270.0</ele><time>2026-04-04T12:06:41.835Z</time></trkpt><trkpt lat="43.3055067" lon="12.9784233"><ele>270.0</ele><time>2026-04-04T12:06:42.836Z</time></trkpt><trkpt lat="43.30535" lon="12.978495"><ele>270.0</ele><time>2026-04-04T12:06:43.835Z</time></trkpt><trkpt lat="43.30518" lon="12.978545"><ele>270.0</ele><time>2026-04-04T12:06:44.837Z</time></trkpt><trkpt lat="43.305" lon="12.9785733"><ele>270.0</ele><time>2026-04-04T12:06:45.834Z</time></trkpt><trkpt lat="43.304825" lon="12.9785867"><ele>270.75</ele><time>2026-04-04T12:06:46.833Z</time></trkpt><trkpt lat="43.30467" lon="12.9785767"><ele>271.5</ele><time>2026-04-04T12:06:47.835Z</time></trkpt><trkpt lat="43.30453" lon="12.9785567"><ele>272.25</ele><time>2026-04-04T12:06:48.833Z</time></trkpt><trkpt lat="43.3044067" lon="12.9785083"><ele>273.0</ele><time>2026-04-04T12:06:49.835Z</time></trkpt><trkpt lat="43.304305" lon="12.9784617"><ele>273.0</ele><time>2026-04-04T12:06:50.835Z</time></trkpt><trkpt lat="43.3042117" lon="12.9784367"><ele>273.0</ele><time>2026-04-04T12:06:51.834Z</time></trkpt><trkpt lat="43.3041317" lon="12.9784317"><ele>273.0</ele><time>2026-04-04T12:06:52.836Z</time></trkpt><trkpt lat="43.3040633" lon="12.97848"><ele>273.0</ele><time>2026-04-04T12:06:53.835Z</time></trkpt><trkpt lat="43.3039933" lon="12.9785717"><ele>273.0</ele><time>2026-04-04T12:06:54.834Z</time></trkpt><trkpt lat="43.3039117" lon="12.97871"><ele>274.3333333333333</ele><time>2026-04-04T12:06:55.835Z</time></trkpt><trkpt lat="43.303815" lon="12.9788567"><ele>275.66666666666663</ele><time>2026-04-04T12:06:56.836Z</time></trkpt><trkpt lat="43.3037067" lon="12.979005"><ele>277.0</ele><time>2026-04-04T12:06:57.835Z</time></trkpt><trkpt lat="43.303575" lon="12.9791233"><ele>275.3333333333333</ele><time>2026-04-04T12:06:58.835Z</time></trkpt><trkpt lat="43.3034233" lon="12.9792017"><ele>273.6666666666667</ele><time>2026-04-04T12:06:59.836Z</time></trkpt><trkpt lat="43.3032567" lon="12.9792667"><ele>272.0</ele><time>2026-04-04T12:07:00.834Z</time></trkpt><trkpt lat="43.3030867" lon="12.9793367"><ele>272.0</ele><time>2026-04-04T12:07:01.833Z</time></trkpt><trkpt lat="43.3029117" lon="12.97941"><ele>272.0</ele><time>2026-04-04T12:07:02.835Z</time></trkpt><trkpt lat="43.3027383" lon="12.9794867"><ele>272.0</ele><time>2026-04-04T12:07:03.834Z</time></trkpt><trkpt lat="43.30257" lon="12.97957"><ele>272.0</ele><time>2026-04-04T12:07:04.833Z</time></trkpt><trkpt lat="43.3024067" lon="12.9796633"><ele>272.0</ele><time>2026-04-04T12:07:05.833Z</time></trkpt><trkpt lat="43.302245" lon="12.9797617"><ele>272.0</ele><time>2026-04-04T12:07:06.835Z</time></trkpt><trkpt lat="43.3020767" lon="12.9798633"><ele>272.33333333333337</ele><time>2026-04-04T12:07:07.833Z</time></trkpt><trkpt lat="43.3019117" lon="12.9799717"><ele>272.6666666666667</ele><time>2026-04-04T12:07:08.835Z</time></trkpt><trkpt lat="43.30175" lon="12.9800883"><ele>273.0</ele><time>2026-04-04T12:07:09.834Z</time></trkpt><trkpt lat="43.30159" lon="12.980195"><ele>273.0</ele><time>2026-04-04T12:07:10.831Z</time></trkpt><trkpt lat="43.3014333" lon="12.980285"><ele>273.0</ele><time>2026-04-04T12:07:11.834Z</time></trkpt><trkpt lat="43.30128" lon="12.9803683"><ele>273.0</ele><time>2026-04-04T12:07:12.836Z</time></trkpt><trkpt lat="43.3011367" lon="12.9804533"><ele>273.0</ele><time>2026-04-04T12:07:13.836Z</time></trkpt><trkpt lat="43.3010067" lon="12.9805367"><ele>273.0</ele><time>2026-04-04T12:07:14.834Z</time></trkpt><trkpt lat="43.300895" lon="12.9806417"><ele>273.0</ele><time>2026-04-04T12:07:15.835Z</time></trkpt><trkpt lat="43.3007867" lon="12.98077"><ele>273.0</ele><time>2026-04-04T12:07:16.835Z</time></trkpt><trkpt lat="43.3006783" lon="12.9808867"><ele>273.0</ele><time>2026-04-04T12:07:17.836Z</time></trkpt><trkpt lat="43.30058" lon="12.9809783"><ele>273.0</ele><time>2026-04-04T12:07:18.834Z</time></trkpt><trkpt lat="43.3004883" lon="12.981045"><ele>273.0</ele><time>2026-04-04T12:07:19.835Z</time></trkpt><trkpt lat="43.3004083" lon="12.9811067"><ele>273.0</ele><time>2026-04-04T12:07:20.836Z</time></trkpt><trkpt lat="43.300345" lon="12.9811733"><ele>273.0</ele><time>2026-04-04T12:07:21.834Z</time></trkpt><trkpt lat="43.30029" lon="12.9812467"><ele>273.0</ele><time>2026-04-04T12:07:22.835Z</time></trkpt><trkpt lat="43.3002367" lon="12.981315"><ele>273.0</ele><time>2026-04-04T12:07:23.835Z</time></trkpt><trkpt lat="43.3001733" lon="12.98136"><ele>273.0</ele><time>2026-04-04T12:07:24.836Z</time></trkpt><trkpt lat="43.300085" lon="12.9813633"><ele>273.0</ele><time>2026-04-04T12:07:25.834Z</time></trkpt><trkpt lat="43.299985" lon="12.9813583"><ele>273.0</ele><time>2026-04-04T12:07:26.834Z</time></trkpt><trkpt lat="43.2998883" lon="12.9813617"><ele>273.0</ele><time>2026-04-04T12:07:27.834Z</time></trkpt><trkpt lat="43.2997867" lon="12.981395"><ele>273.75</ele><time>2026-04-04T12:07:28.835Z</time></trkpt><trkpt lat="43.2996817" lon="12.9814567"><ele>274.5</ele><time>2026-04-04T12:07:29.834Z</time></trkpt><trkpt lat="43.2995667" lon="12.9815417"><ele>275.25</ele><time>2026-04-04T12:07:30.835Z</time></trkpt><trkpt lat="43.2994483" lon="12.9816133"><ele>276.0</ele><time>2026-04-04T12:07:31.832Z</time></trkpt><trkpt lat="43.2993367" lon="12.9816417"><ele>276.0</ele><time>2026-04-04T12:07:32.833Z</time></trkpt><trkpt lat="43.2992133" lon="12.9816383"><ele>276.0</ele><time>2026-04-04T12:07:33.833Z</time></trkpt><trkpt lat="43.29909" lon="12.9816367"><ele>276.0</ele><time>2026-04-04T12:07:34.833Z</time></trkpt><trkpt lat="43.298975" lon="12.9816517"><ele>276.0</ele><time>2026-04-04T12:07:35.833Z</time></trkpt><trkpt lat="43.2988617" lon="12.981695"><ele>276.5</ele><time>2026-04-04T12:07:36.831Z</time></trkpt><trkpt lat="43.298745" lon="12.9817667"><ele>277.0</ele><time>2026-04-04T12:07:37.832Z</time></trkpt><trkpt lat="43.2986217" lon="12.9818383"><ele>277.5</ele><time>2026-04-04T12:07:38.836Z</time></trkpt><trkpt lat="43.2984933" lon="12.981885"><ele>278.0</ele><time>2026-04-04T12:07:39.833Z</time></trkpt><trkpt lat="43.2983767" lon="12.981895"><ele>278.0</ele><time>2026-04-04T12:07:40.836Z</time></trkpt><trkpt lat="43.2982833" lon="12.9818717"><ele>278.0</ele><time>2026-04-04T12:07:41.835Z</time></trkpt><trkpt lat="43.2982067" lon="12.98186"><ele>278.0</ele><time>2026-04-04T12:07:42.833Z</time></trkpt><trkpt lat="43.2981333" lon="12.981875"><ele>278.0</ele><time>2026-04-04T12:07:43.832Z</time></trkpt><trkpt lat="43.2980533" lon="12.9818983"><ele>278.0</ele><time>2026-04-04T12:07:44.836Z</time></trkpt><trkpt lat="43.29795" lon="12.9819167"><ele>278.0</ele><time>2026-04-04T12:07:45.832Z</time></trkpt><trkpt lat="43.2978" lon="12.9819233"><ele>279.33333333333337</ele><time>2026-04-04T12:07:46.835Z</time></trkpt><trkpt lat="43.2976383" lon="12.9819367"><ele>280.6666666666667</ele><time>2026-04-04T12:07:47.835Z</time></trkpt><trkpt lat="43.2974783" lon="12.9819583"><ele>282.0</ele><time>2026-04-04T12:07:48.834Z</time></trkpt><trkpt lat="43.2973283" lon="12.9819883"><ele>283.0</ele><time>2026-04-04T12:07:49.834Z</time></trkpt><trkpt lat="43.2972067" lon="12.9820117"><ele>284.0</ele><time>2026-04-04T12:07:50.835Z</time></trkpt><trkpt lat="43.2970983" lon="12.9820217"><ele>285.0</ele><time>2026-04-04T12:07:51.834Z</time></trkpt><trkpt lat="43.2969817" lon="12.982005"><ele>286.0</ele><time>2026-04-04T12:07:52.832Z</time></trkpt><trkpt lat="43.2968633" lon="12.9819783"><ele>286.0</ele><time>2026-04-04T12:07:53.835Z</time></trkpt><trkpt lat="43.2967533" lon="12.9819633"><ele>286.0</ele><time>2026-04-04T12:07:54.836Z</time></trkpt><trkpt lat="43.2966617" lon="12.981985"><ele>286.0</ele><time>2026-04-04T12:07:55.835Z</time></trkpt><trkpt lat="43.2965983" lon="12.982045"><ele>286.0</ele><time>2026-04-04T12:07:56.835Z</time></trkpt><trkpt lat="43.296575" lon="12.982155"><ele>286.0</ele><time>2026-04-04T12:07:57.835Z</time></trkpt><trkpt lat="43.296575" lon="12.982295"><ele>286.0</ele><time>2026-04-04T12:07:58.835Z</time></trkpt><trkpt lat="43.2965867" lon="12.9824383"><ele>286.0</ele><time>2026-04-04T12:07:59.83Z</time></trkpt><trkpt lat="43.29658" lon="12.9825533"><ele>286.0</ele><time>2026-04-04T12:08:00.833Z</time></trkpt><trkpt lat="43.2965467" lon="12.9826667"><ele>286.0</ele><time>2026-04-04T12:08:01.833Z</time></trkpt><trkpt lat="43.29648" lon="12.9827633"><ele>286.0</ele><time>2026-04-04T12:08:02.829Z</time></trkpt><trkpt lat="43.2963417" lon="12.9827817"><ele>287.0</ele><time>2026-04-04T12:08:03.834Z</time></trkpt><trkpt lat="43.296195" lon="12.982805"><ele>288.0</ele><time>2026-04-04T12:08:04.833Z</time></trkpt><trkpt lat="43.29605" lon="12.9828317"><ele>289.0</ele><time>2026-04-04T12:08:05.833Z</time></trkpt><trkpt lat="43.2959067" lon="12.98286"><ele>290.0</ele><time>2026-04-04T12:08:06.834Z</time></trkpt><trkpt lat="43.2957783" lon="12.9829083"><ele>290.0</ele><time>2026-04-04T12:08:07.833Z</time></trkpt><trkpt lat="43.29566" lon="12.982985"><ele>290.0</ele><time>2026-04-04T12:08:08.834Z</time></trkpt><trkpt lat="43.2955367" lon="12.98307"><ele>290.0</ele><time>2026-04-04T12:08:09.835Z</time></trkpt><trkpt lat="43.295405" lon="12.9831533"><ele>290.0</ele><time>2026-04-04T12:08:10.83Z</time></trkpt><trkpt lat="43.2952717" lon="12.98322"><ele>290.4</ele><time>2026-04-04T12:08:11.836Z</time></trkpt><trkpt lat="43.2951567" lon="12.9832717"><ele>290.8</ele><time>2026-04-04T12:08:12.832Z</time></trkpt><trkpt lat="43.295065" lon="12.9833133"><ele>291.2</ele><time>2026-04-04T12:08:13.832Z</time></trkpt><trkpt lat="43.294995" lon="12.9833417"><ele>291.6</ele><time>2026-04-04T12:08:14.835Z</time></trkpt><trkpt lat="43.2949633" lon="12.9834383"><ele>292.0</ele><time>2026-04-04T12:08:17.833Z</time></trkpt><trkpt lat="43.295025" lon="12.9835733"><ele>292.75</ele><time>2026-04-04T12:08:19.833Z</time></trkpt><trkpt lat="43.2950917" lon="12.9836883"><ele>293.5</ele><time>2026-04-04T12:08:20.835Z</time></trkpt><trkpt lat="43.2951717" lon="12.9838283"><ele>294.25</ele><time>2026-04-04T12:08:21.837Z</time></trkpt><trkpt lat="43.2952417" lon="12.9839633"><ele>295.0</ele><time>2026-04-04T12:08:22.834Z</time></trkpt><trkpt lat="43.2953117" lon="12.9840867"><ele>295.2</ele><time>2026-04-04T12:08:23.836Z</time></trkpt><trkpt lat="43.2953783" lon="12.9842067"><ele>295.4</ele><time>2026-04-04T12:08:24.835Z</time></trkpt><trkpt lat="43.2954483" lon="12.9843267"><ele>295.6</ele><time>2026-04-04T12:08:25.838Z</time></trkpt><trkpt lat="43.2955167" lon="12.984455"><ele>295.8</ele><time>2026-04-04T12:08:26.837Z</time></trkpt><trkpt lat="43.29558" lon="12.9845667"><ele>296.0</ele><time>2026-04-04T12:08:27.836Z</time></trkpt><trkpt lat="43.2956283" lon="12.9846683"><ele>296.0</ele><time>2026-04-04T12:08:28.833Z</time></trkpt><trkpt lat="43.295665" lon="12.9847517"><ele>296.0</ele><time>2026-04-04T12:08:29.835Z</time></trkpt><trkpt lat="43.2956533" lon="12.98487"><ele>296.0</ele><time>2026-04-04T12:08:31.837Z</time></trkpt><trkpt lat="43.2955967" lon="12.9849183"><ele>296.0</ele><time>2026-04-04T12:08:32.832Z</time></trkpt><trkpt lat="43.2955183" lon="12.9849683"><ele>296.0</ele><time>2026-04-04T12:08:33.836Z</time></trkpt><trkpt lat="43.2954267" lon="12.9850467"><ele>296.0</ele><time>2026-04-04T12:08:34.835Z</time></trkpt><trkpt lat="43.2953167" lon="12.9851283"><ele>295.25</ele><time>2026-04-04T12:08:35.837Z</time></trkpt><trkpt lat="43.2952017" lon="12.9852233"><ele>294.5</ele><time>2026-04-04T12:08:36.835Z</time></trkpt><trkpt lat="43.295075" lon="12.98532"><ele>293.75</ele><time>2026-04-04T12:08:37.836Z</time></trkpt><trkpt lat="43.2949417" lon="12.9854267"><ele>293.0</ele><time>2026-04-04T12:08:38.831Z</time></trkpt><trkpt lat="43.294805" lon="12.9855333"><ele>294.0</ele><time>2026-04-04T12:08:39.836Z</time></trkpt><trkpt lat="43.2946633" lon="12.9856467"><ele>295.0</ele><time>2026-04-04T12:08:40.835Z</time></trkpt><trkpt lat="43.294525" lon="12.9857667"><ele>296.0</ele><time>2026-04-04T12:08:41.834Z</time></trkpt><trkpt lat="43.2943833" lon="12.9858833"><ele>296.33333333333337</ele><time>2026-04-04T12:08:42.835Z</time></trkpt><trkpt lat="43.2942383" lon="12.9860017"><ele>296.6666666666667</ele><time>2026-04-04T12:08:43.835Z</time></trkpt><trkpt lat="43.2940933" lon="12.9861217"><ele>297.0</ele><time>2026-04-04T12:08:44.835Z</time></trkpt><trkpt lat="43.293945" lon="12.98624"><ele>297.0</ele><time>2026-04-04T12:08:45.835Z</time></trkpt><trkpt lat="43.2937967" lon="12.9863617"><ele>297.0</ele><time>2026-04-04T12:08:46.836Z</time></trkpt><trkpt lat="43.29365" lon="12.9864817"><ele>297.0</ele><time>2026-04-04T12:08:47.835Z</time></trkpt><trkpt lat="43.293505" lon="12.9865967"><ele>296.0</ele><time>2026-04-04T12:08:48.834Z</time></trkpt><trkpt lat="43.2933667" lon="12.9867067"><ele>295.0</ele><time>2026-04-04T12:08:49.835Z</time></trkpt><trkpt lat="43.2932317" lon="12.9868183"><ele>294.0</ele><time>2026-04-04T12:08:50.836Z</time></trkpt><trkpt lat="43.29309" lon="12.9869367"><ele>294.6666666666667</ele><time>2026-04-04T12:08:51.835Z</time></trkpt><trkpt lat="43.2929417" lon="12.9870517"><ele>295.33333333333337</ele><time>2026-04-04T12:08:52.833Z</time></trkpt><trkpt lat="43.29279" lon="12.9871717"><ele>296.0</ele><time>2026-04-04T12:08:53.835Z</time></trkpt><trkpt lat="43.2926383" lon="12.9872917"><ele>296.0</ele><time>2026-04-04T12:08:54.836Z</time></trkpt><trkpt lat="43.292485" lon="12.9874183"><ele>296.0</ele><time>2026-04-04T12:08:55.835Z</time></trkpt><trkpt lat="43.292335" lon="12.9875483"><ele>296.0</ele><time>2026-04-04T12:08:56.835Z</time></trkpt><trkpt lat="43.2921833" lon="12.98767"><ele>296.0</ele><time>2026-04-04T12:08:57.836Z</time></trkpt><trkpt lat="43.2920283" lon="12.9877867"><ele>296.0</ele><time>2026-04-04T12:08:58.834Z</time></trkpt><trkpt lat="43.2918733" lon="12.9879033"><ele>296.0</ele><time>2026-04-04T12:08:59.835Z</time></trkpt><trkpt lat="43.291715" lon="12.9880283"><ele>296.0</ele><time>2026-04-04T12:09:00.836Z</time></trkpt><trkpt lat="43.2915583" lon="12.9881617"><ele>296.0</ele><time>2026-04-04T12:09:01.833Z</time></trkpt><trkpt lat="43.2913983" lon="12.9882983"><ele>296.0</ele><time>2026-04-04T12:09:02.835Z</time></trkpt><trkpt lat="43.29123" lon="12.98844"><ele>296.6666666666667</ele><time>2026-04-04T12:09:03.833Z</time></trkpt><trkpt lat="43.2910583" lon="12.9885833"><ele>297.3333333333333</ele><time>2026-04-04T12:09:04.832Z</time></trkpt><trkpt lat="43.2908833" lon="12.988725"><ele>298.0</ele><time>2026-04-04T12:09:05.833Z</time></trkpt><trkpt lat="43.2907083" lon="12.9888617"><ele>298.0</ele><time>2026-04-04T12:09:06.834Z</time></trkpt><trkpt lat="43.290535" lon="12.9889967"><ele>298.0</ele><time>2026-04-04T12:09:07.836Z</time></trkpt><trkpt lat="43.290365" lon="12.9891283"><ele>298.0</ele><time>2026-04-04T12:09:08.837Z</time></trkpt><trkpt lat="43.2902" lon="12.989265"><ele>298.0</ele><time>2026-04-04T12:09:09.834Z</time></trkpt><trkpt lat="43.2900333" lon="12.9893983"><ele>298.0</ele><time>2026-04-04T12:09:10.833Z</time></trkpt><trkpt lat="43.2898733" lon="12.989525"><ele>298.0</ele><time>2026-04-04T12:09:11.834Z</time></trkpt><trkpt lat="43.2897167" lon="12.989655"><ele>298.66666666666663</ele><time>2026-04-04T12:09:12.835Z</time></trkpt><trkpt lat="43.2895617" lon="12.9897833"><ele>299.3333333333333</ele><time>2026-04-04T12:09:13.835Z</time></trkpt><trkpt lat="43.2894033" lon="12.9899133"><ele>300.0</ele><time>2026-04-04T12:09:14.837Z</time></trkpt><trkpt lat="43.289245" lon="12.9900417"><ele>300.3333333333333</ele><time>2026-04-04T12:09:15.836Z</time></trkpt><trkpt lat="43.28909" lon="12.990165"><ele>300.66666666666663</ele><time>2026-04-04T12:09:16.833Z</time></trkpt><trkpt lat="43.2889383" lon="12.99028"><ele>301.0</ele><time>2026-04-04T12:09:17.836Z</time></trkpt><trkpt lat="43.2887983" lon="12.9903867"><ele>301.0</ele><time>2026-04-04T12:09:18.836Z</time></trkpt><trkpt lat="43.2886683" lon="12.9904883"><ele>301.0</ele><time>2026-04-04T12:09:19.836Z</time></trkpt><trkpt lat="43.2885517" lon="12.9905917"><ele>301.0</ele><time>2026-04-04T12:09:20.834Z</time></trkpt><trkpt lat="43.2884467" lon="12.9907067"><ele>301.0</ele><time>2026-04-04T12:09:21.835Z</time></trkpt><trkpt lat="43.2883533" lon="12.9908367"><ele>299.75</ele><time>2026-04-04T12:09:22.833Z</time></trkpt><trkpt lat="43.288275" lon="12.990985"><ele>298.5</ele><time>2026-04-04T12:09:23.834Z</time></trkpt><trkpt lat="43.2882217" lon="12.9911417"><ele>297.25</ele><time>2026-04-04T12:09:24.835Z</time></trkpt><trkpt lat="43.288175" lon="12.991295"><ele>296.0</ele><time>2026-04-04T12:09:25.835Z</time></trkpt><trkpt lat="43.2881267" lon="12.9914517"><ele>295.75</ele><time>2026-04-04T12:09:26.837Z</time></trkpt><trkpt lat="43.28808" lon="12.99162"><ele>295.5</ele><time>2026-04-04T12:09:27.835Z</time></trkpt><trkpt lat="43.2880367" lon="12.9918"><ele>295.25</ele><time>2026-04-04T12:09:28.833Z</time></trkpt><trkpt lat="43.2880017" lon="12.9919783"><ele>295.0</ele><time>2026-04-04T12:09:29.836Z</time></trkpt><trkpt lat="43.2879667" lon="12.9921483"><ele>295.0</ele><time>2026-04-04T12:09:30.835Z</time></trkpt><trkpt lat="43.28793" lon="12.9923067"><ele>295.0</ele><time>2026-04-04T12:09:31.835Z</time></trkpt><trkpt lat="43.2878833" lon="12.9924483"><ele>295.0</ele><time>2026-04-04T12:09:32.834Z</time></trkpt><trkpt lat="43.2878267" lon="12.9925767"><ele>295.0</ele><time>2026-04-04T12:09:33.834Z</time></trkpt><trkpt lat="43.2877633" lon="12.992695"><ele>294.4</ele><time>2026-04-04T12:09:34.833Z</time></trkpt><trkpt lat="43.2877067" lon="12.9928083"><ele>293.8</ele><time>2026-04-04T12:09:35.834Z</time></trkpt><trkpt lat="43.287655" lon="12.9929283"><ele>293.2</ele><time>2026-04-04T12:09:36.833Z</time></trkpt><trkpt lat="43.2875967" lon="12.9930483"><ele>292.6</ele><time>2026-04-04T12:09:37.834Z</time></trkpt><trkpt lat="43.2875283" lon="12.9931633"><ele>292.0</ele><time>2026-04-04T12:09:38.834Z</time></trkpt><trkpt lat="43.287455" lon="12.9932733"><ele>292.8</ele><time>2026-04-04T12:09:39.832Z</time></trkpt><trkpt lat="43.2873867" lon="12.9933817"><ele>293.6</ele><time>2026-04-04T12:09:40.833Z</time></trkpt><trkpt lat="43.2873283" lon="12.9934883"><ele>294.40000000000003</ele><time>2026-04-04T12:09:41.834Z</time></trkpt><trkpt lat="43.2872833" lon="12.99362"><ele>295.2</ele><time>2026-04-04T12:09:42.837Z</time></trkpt><trkpt lat="43.2872567" lon="12.99378"><ele>296.0</ele><time>2026-04-04T12:09:43.835Z</time></trkpt><trkpt lat="43.287245" lon="12.993955"><ele>296.5</ele><time>2026-04-04T12:09:44.836Z</time></trkpt><trkpt lat="43.2872417" lon="12.994145"><ele>297.0</ele><time>2026-04-04T12:09:45.829Z</time></trkpt><trkpt lat="43.2872267" lon="12.994335"><ele>297.5</ele><time>2026-04-04T12:09:46.835Z</time></trkpt><trkpt lat="43.2872017" lon="12.9945133"><ele>298.0</ele><time>2026-04-04T12:09:47.836Z</time></trkpt><trkpt lat="43.2871883" lon="12.99468"><ele>299.0</ele><time>2026-04-04T12:09:48.837Z</time></trkpt><trkpt lat="43.2871967" lon="12.99484"><ele>300.0</ele><time>2026-04-04T12:09:49.836Z</time></trkpt><trkpt lat="43.2872467" lon="12.99499"><ele>301.0</ele><time>2026-04-04T12:09:50.835Z</time></trkpt><trkpt lat="43.2873033" lon="12.9951367"><ele>302.0</ele><time>2026-04-04T12:09:51.835Z</time></trkpt><trkpt lat="43.2873617" lon="12.995275"><ele>302.8</ele><time>2026-04-04T12:09:52.835Z</time></trkpt><trkpt lat="43.2874117" lon="12.9954067"><ele>303.6</ele><time>2026-04-04T12:09:53.834Z</time></trkpt><trkpt lat="43.2874467" lon="12.9955367"><ele>304.40000000000003</ele><time>2026-04-04T12:09:54.834Z</time></trkpt><trkpt lat="43.287455" lon="12.99567"><ele>305.2</ele><time>2026-04-04T12:09:55.835Z</time></trkpt><trkpt lat="43.2874233" lon="12.9957933"><ele>306.0</ele><time>2026-04-04T12:09:56.836Z</time></trkpt><trkpt lat="43.28736" lon="12.995905"><ele>305.5</ele><time>2026-04-04T12:09:57.834Z</time></trkpt><trkpt lat="43.2872717" lon="12.9959983"><ele>305.0</ele><time>2026-04-04T12:09:58.837Z</time></trkpt><trkpt lat="43.2871783" lon="12.9960967"><ele>304.5</ele><time>2026-04-04T12:09:59.836Z</time></trkpt><trkpt lat="43.2870867" lon="12.996195"><ele>304.0</ele><time>2026-04-04T12:10:00.836Z</time></trkpt><trkpt lat="43.2870017" lon="12.9963"><ele>304.0</ele><time>2026-04-04T12:10:01.836Z</time></trkpt><trkpt lat="43.286915" lon="12.9964083"><ele>304.0</ele><time>2026-04-04T12:10:02.835Z</time></trkpt><trkpt lat="43.2868283" lon="12.9965233"><ele>304.0</ele><time>2026-04-04T12:10:03.834Z</time></trkpt><trkpt lat="43.28674" lon="12.99663"><ele>304.0</ele><time>2026-04-04T12:10:04.833Z</time></trkpt><trkpt lat="43.2866517" lon="12.9967417"><ele>304.5</ele><time>2026-04-04T12:10:05.833Z</time></trkpt><trkpt lat="43.2865567" lon="12.996845"><ele>305.0</ele><time>2026-04-04T12:10:06.833Z</time></trkpt><trkpt lat="43.28646" lon="12.9969517"><ele>305.5</ele><time>2026-04-04T12:10:07.833Z</time></trkpt><trkpt lat="43.2863633" lon="12.9970733"><ele>306.0</ele><time>2026-04-04T12:10:08.835Z</time></trkpt><trkpt lat="43.28626" lon="12.9972067"><ele>306.0</ele><time>2026-04-04T12:10:09.833Z</time></trkpt><trkpt lat="43.2861517" lon="12.9973433"><ele>306.0</ele><time>2026-04-04T12:10:10.835Z</time></trkpt><trkpt lat="43.2860333" lon="12.9974733"><ele>306.0</ele><time>2026-04-04T12:10:11.835Z</time></trkpt><trkpt lat="43.2859033" lon="12.9975933"><ele>306.6666666666667</ele><time>2026-04-04T12:10:12.833Z</time></trkpt><trkpt lat="43.2857667" lon="12.9977067"><ele>307.33333333333337</ele><time>2026-04-04T12:10:13.834Z</time></trkpt><trkpt lat="43.2856167" lon="12.9978117"><ele>308.0</ele><time>2026-04-04T12:10:14.834Z</time></trkpt><trkpt lat="43.285455" lon="12.9979133"><ele>306.6666666666667</ele><time>2026-04-04T12:10:15.835Z</time></trkpt><trkpt lat="43.28529" lon="12.998015"><ele>305.3333333333333</ele><time>2026-04-04T12:10:16.835Z</time></trkpt><trkpt lat="43.285125" lon="12.9981183"><ele>304.0</ele><time>2026-04-04T12:10:17.836Z</time></trkpt><trkpt lat="43.28496" lon="12.9982233"><ele>304.0</ele><time>2026-04-04T12:10:18.835Z</time></trkpt><trkpt lat="43.2847933" lon="12.9983283"><ele>304.0</ele><time>2026-04-04T12:10:19.835Z</time></trkpt><trkpt lat="43.2846233" lon="12.9984317"><ele>304.0</ele><time>2026-04-04T12:10:20.835Z</time></trkpt><trkpt lat="43.2844533" lon="12.998535"><ele>303.3333333333333</ele><time>2026-04-04T12:10:21.835Z</time></trkpt><trkpt lat="43.284285" lon="12.99864"><ele>302.6666666666667</ele><time>2026-04-04T12:10:22.833Z</time></trkpt><trkpt lat="43.2841183" lon="12.998745"><ele>302.0</ele><time>2026-04-04T12:10:23.835Z</time></trkpt><trkpt lat="43.2839533" lon="12.9988483"><ele>302.0</ele><time>2026-04-04T12:10:24.832Z</time></trkpt><trkpt lat="43.283785" lon="12.9989517"><ele>302.0</ele><time>2026-04-04T12:10:25.834Z</time></trkpt><trkpt lat="43.2836133" lon="12.9990583"><ele>302.0</ele><time>2026-04-04T12:10:26.833Z</time></trkpt><trkpt lat="43.2834417" lon="12.9991733"><ele>302.33333333333337</ele><time>2026-04-04T12:10:27.835Z</time></trkpt><trkpt lat="43.2832717" lon="12.9992933"><ele>302.6666666666667</ele><time>2026-04-04T12:10:28.834Z</time></trkpt><trkpt lat="43.2830983" lon="12.99941"><ele>303.0</ele><time>2026-04-04T12:10:29.835Z</time></trkpt><trkpt lat="43.282925" lon="12.9995317"><ele>303.6666666666667</ele><time>2026-04-04T12:10:30.836Z</time></trkpt><trkpt lat="43.28275" lon="12.9996533"><ele>304.33333333333337</ele><time>2026-04-04T12:10:31.834Z</time></trkpt><trkpt lat="43.2825767" lon="12.999775"><ele>305.0</ele><time>2026-04-04T12:10:32.836Z</time></trkpt><trkpt lat="43.2824033" lon="12.9998983"><ele>304.6666666666667</ele><time>2026-04-04T12:10:33.83Z</time></trkpt><trkpt lat="43.2822283" lon="13.0000217"><ele>304.3333333333333</ele><time>2026-04-04T12:10:34.833Z</time></trkpt><trkpt lat="43.2820533" lon="13.0001483"><ele>304.0</ele><time>2026-04-04T12:10:35.834Z</time></trkpt><trkpt lat="43.2818767" lon="13.0002783"><ele>304.0</ele><time>2026-04-04T12:10:36.835Z</time></trkpt><trkpt lat="43.2816983" lon="13.0004033"><ele>304.0</ele><time>2026-04-04T12:10:37.835Z</time></trkpt><trkpt lat="43.28152" lon="13.0005283"><ele>304.0</ele><time>2026-04-04T12:10:38.835Z</time></trkpt><trkpt lat="43.281345" lon="13.0006567"><ele>303.66666666666663</ele><time>2026-04-04T12:10:39.836Z</time></trkpt><trkpt lat="43.28117" lon="13.0007817"><ele>303.3333333333333</ele><time>2026-04-04T12:10:40.836Z</time></trkpt><trkpt lat="43.2809933" lon="13.00091"><ele>303.0</ele><time>2026-04-04T12:10:41.836Z</time></trkpt><trkpt lat="43.2808183" lon="13.001035"><ele>304.0</ele><time>2026-04-04T12:10:42.835Z</time></trkpt><trkpt lat="43.2806433" lon="13.0011567"><ele>305.0</ele><time>2026-04-04T12:10:43.836Z</time></trkpt><trkpt lat="43.2804717" lon="13.00128"><ele>306.0</ele><time>2026-04-04T12:10:44.836Z</time></trkpt><trkpt lat="43.2803" lon="13.0014033"><ele>306.0</ele><time>2026-04-04T12:10:45.835Z</time></trkpt><trkpt lat="43.2801317" lon="13.0015267"><ele>306.0</ele><time>2026-04-04T12:10:46.834Z</time></trkpt><trkpt lat="43.2799683" lon="13.0016583"><ele>306.0</ele><time>2026-04-04T12:10:47.836Z</time></trkpt><trkpt lat="43.2798033" lon="13.0017867"><ele>307.3333333333333</ele><time>2026-04-04T12:10:48.835Z</time></trkpt><trkpt lat="43.2796333" lon="13.00191"><ele>308.66666666666663</ele><time>2026-04-04T12:10:49.837Z</time></trkpt><trkpt lat="43.2794567" lon="13.0020283"><ele>310.0</ele><time>2026-04-04T12:10:50.836Z</time></trkpt><trkpt lat="43.2792817" lon="13.0021383"><ele>310.0</ele><time>2026-04-04T12:10:51.834Z</time></trkpt><trkpt lat="43.2791067" lon="13.0022517"><ele>310.0</ele><time>2026-04-04T12:10:52.834Z</time></trkpt><trkpt lat="43.2789317" lon="13.002365"><ele>310.0</ele><time>2026-04-04T12:10:53.834Z</time></trkpt><trkpt lat="43.27876" lon="13.002485"><ele>311.3333333333333</ele><time>2026-04-04T12:10:54.834Z</time></trkpt><trkpt lat="43.2785883" lon="13.0025967"><ele>312.6666666666667</ele><time>2026-04-04T12:10:55.835Z</time></trkpt><trkpt lat="43.27842" lon="13.0027083"><ele>314.0</ele><time>2026-04-04T12:10:56.836Z</time></trkpt><trkpt lat="43.2782467" lon="13.0028"><ele>313.6666666666667</ele><time>2026-04-04T12:10:57.835Z</time></trkpt><trkpt lat="43.278075" lon="13.0028817"><ele>313.3333333333333</ele><time>2026-04-04T12:10:58.833Z</time></trkpt><trkpt lat="43.2779017" lon="13.0029333"><ele>313.0</ele><time>2026-04-04T12:10:59.834Z</time></trkpt><trkpt lat="43.2777333" lon="13.0029667"><ele>313.0</ele><time>2026-04-04T12:11:00.834Z</time></trkpt><trkpt lat="43.27757" lon="13.0029917"><ele>313.0</ele><time>2026-04-04T12:11:01.832Z</time></trkpt><trkpt lat="43.2774167" lon="13.0030033"><ele>313.0</ele><time>2026-04-04T12:11:02.834Z</time></trkpt><trkpt lat="43.2772683" lon="13.0030083"><ele>313.5</ele><time>2026-04-04T12:11:03.835Z</time></trkpt><trkpt lat="43.277125" lon="13.00301"><ele>314.0</ele><time>2026-04-04T12:11:04.833Z</time></trkpt><trkpt lat="43.27698" lon="13.0030033"><ele>314.5</ele><time>2026-04-04T12:11:05.834Z</time></trkpt><trkpt lat="43.2768433" lon="13.0029767"><ele>315.0</ele><time>2026-04-04T12:11:06.834Z</time></trkpt><trkpt lat="43.27672" lon="13.0029217"><ele>315.0</ele><time>2026-04-04T12:11:07.835Z</time></trkpt><trkpt lat="43.2766017" lon="13.0028667"><ele>315.0</ele><time>2026-04-04T12:11:08.836Z</time></trkpt><trkpt lat="43.276485" lon="13.0028167"><ele>315.0</ele><time>2026-04-04T12:11:09.834Z</time></trkpt><trkpt lat="43.2763733" lon="13.0027433"><ele>315.0</ele><time>2026-04-04T12:11:10.835Z</time></trkpt><trkpt lat="43.276275" lon="13.0026383"><ele>316.75</ele><time>2026-04-04T12:11:11.835Z</time></trkpt><trkpt lat="43.2762" lon="13.0024967"><ele>318.5</ele><time>2026-04-04T12:11:12.835Z</time></trkpt><trkpt lat="43.2761533" lon="13.0023217"><ele>320.25</ele><time>2026-04-04T12:11:13.834Z</time></trkpt><trkpt lat="43.2761167" lon="13.0021367"><ele>322.0</ele><time>2026-04-04T12:11:14.833Z</time></trkpt><trkpt lat="43.27608" lon="13.001945"><ele>322.0</ele><time>2026-04-04T12:11:15.834Z</time></trkpt><trkpt lat="43.2760417" lon="13.0017533"><ele>322.0</ele><time>2026-04-04T12:11:16.832Z</time></trkpt><trkpt lat="43.2760067" lon="13.001565"><ele>322.0</ele><time>2026-04-04T12:11:17.833Z</time></trkpt><trkpt lat="43.2759767" lon="13.00139"><ele>322.0</ele><time>2026-04-04T12:11:18.835Z</time></trkpt><trkpt lat="43.2759467" lon="13.0012433"><ele>321.8</ele><time>2026-04-04T12:11:19.835Z</time></trkpt><trkpt lat="43.27591" lon="13.00114"><ele>321.6</ele><time>2026-04-04T12:11:20.834Z</time></trkpt><trkpt lat="43.2758617" lon="13.0010733"><ele>321.40000000000003</ele><time>2026-04-04T12:11:21.835Z</time></trkpt><trkpt lat="43.2757983" lon="13.00104"><ele>321.20000000000005</ele><time>2026-04-04T12:11:22.834Z</time></trkpt><trkpt lat="43.2756917" lon="13.0010717"><ele>321.0</ele><time>2026-04-04T12:11:23.833Z</time></trkpt><trkpt lat="43.275565" lon="13.0011267"><ele>321.6666666666667</ele><time>2026-04-04T12:11:24.835Z</time></trkpt><trkpt lat="43.275425" lon="13.0011817"><ele>322.33333333333337</ele><time>2026-04-04T12:11:25.835Z</time></trkpt><trkpt lat="43.2752767" lon="13.00124"><ele>323.0</ele><time>2026-04-04T12:11:26.837Z</time></trkpt><trkpt lat="43.2751217" lon="13.0013017"><ele>323.0</ele><time>2026-04-04T12:11:27.834Z</time></trkpt><trkpt lat="43.2749617" lon="13.0013633"><ele>323.0</ele><time>2026-04-04T12:11:28.834Z</time></trkpt><trkpt lat="43.274795" lon="13.001425"><ele>323.0</ele><time>2026-04-04T12:11:29.834Z</time></trkpt><trkpt lat="43.27463" lon="13.0014933"><ele>323.0</ele><time>2026-04-04T12:11:30.834Z</time></trkpt><trkpt lat="43.2744617" lon="13.00156"><ele>323.0</ele><time>2026-04-04T12:11:31.833Z</time></trkpt><trkpt lat="43.2742933" lon="13.0016233"><ele>323.0</ele><time>2026-04-04T12:11:32.834Z</time></trkpt><trkpt lat="43.2741317" lon="13.001685"><ele>323.0</ele><time>2026-04-04T12:11:33.833Z</time></trkpt><trkpt lat="43.2739867" lon="13.0017367"><ele>323.0</ele><time>2026-04-04T12:11:34.833Z</time></trkpt><trkpt lat="43.273865" lon="13.001745"><ele>323.0</ele><time>2026-04-04T12:11:35.833Z</time></trkpt><trkpt lat="43.2737633" lon="13.0017033"><ele>323.0</ele><time>2026-04-04T12:11:36.833Z</time></trkpt><trkpt lat="43.2736917" lon="13.001615"><ele>324.0</ele><time>2026-04-04T12:11:37.83Z</time></trkpt><trkpt lat="43.2736533" lon="13.0014817"><ele>325.0</ele><time>2026-04-04T12:11:38.834Z</time></trkpt><trkpt lat="43.27363" lon="13.001315"><ele>326.0</ele><time>2026-04-04T12:11:39.835Z</time></trkpt><trkpt lat="43.2736017" lon="13.00113"><ele>327.0</ele><time>2026-04-04T12:11:40.835Z</time></trkpt><trkpt lat="43.2735667" lon="13.0009333"><ele>326.25</ele><time>2026-04-04T12:11:41.834Z</time></trkpt><trkpt lat="43.2735283" lon="13.0007367"><ele>325.5</ele><time>2026-04-04T12:11:42.832Z</time></trkpt><trkpt lat="43.2734883" lon="13.0005433"><ele>324.75</ele><time>2026-04-04T12:11:43.833Z</time></trkpt><trkpt lat="43.27345" lon="13.000345"><ele>324.0</ele><time>2026-04-04T12:11:44.834Z</time></trkpt><trkpt lat="43.2734083" lon="13.0001433"><ele>324.0</ele><time>2026-04-04T12:11:45.833Z</time></trkpt><trkpt lat="43.27337" lon="12.99995"><ele>324.0</ele><time>2026-04-04T12:11:46.833Z</time></trkpt><trkpt lat="43.273335" lon="12.99977"><ele>324.0</ele><time>2026-04-04T12:11:47.836Z</time></trkpt><trkpt lat="43.273295" lon="12.999605"><ele>324.0</ele><time>2026-04-04T12:11:48.834Z</time></trkpt><trkpt lat="43.27324" lon="12.9994617"><ele>324.0</ele><time>2026-04-04T12:11:49.834Z</time></trkpt><trkpt lat="43.2731633" lon="12.999345"><ele>324.0</ele><time>2026-04-04T12:11:50.834Z</time></trkpt><trkpt lat="43.273065" lon="12.99925"><ele>324.0</ele><time>2026-04-04T12:11:51.833Z</time></trkpt><trkpt lat="43.2729467" lon="12.9991833"><ele>324.0</ele><time>2026-04-04T12:11:52.831Z</time></trkpt><trkpt lat="43.272815" lon="12.9991417"><ele>322.25</ele><time>2026-04-04T12:11:53.835Z</time></trkpt><trkpt lat="43.2726817" lon="12.999095"><ele>320.5</ele><time>2026-04-04T12:11:54.834Z</time></trkpt><trkpt lat="43.272565" lon="12.9990233"><ele>318.75</ele><time>2026-04-04T12:11:55.835Z</time></trkpt><trkpt lat="43.2724717" lon="12.9989083"><ele>317.0</ele><time>2026-04-04T12:11:56.836Z</time></trkpt><trkpt lat="43.2724" lon="12.9987567"><ele>317.0</ele><time>2026-04-04T12:11:57.835Z</time></trkpt><trkpt lat="43.2723567" lon="12.998575"><ele>317.0</ele><time>2026-04-04T12:11:58.836Z</time></trkpt><trkpt lat="43.272325" lon="12.9983817"><ele>317.0</ele><time>2026-04-04T12:11:59.834Z</time></trkpt><trkpt lat="43.2722917" lon="12.9981917"><ele>317.0</ele><time>2026-04-04T12:12:00.834Z</time></trkpt><trkpt lat="43.2722567" lon="12.9980067"><ele>317.0</ele><time>2026-04-04T12:12:01.833Z</time></trkpt><trkpt lat="43.272225" lon="12.997835"><ele>317.0</ele><time>2026-04-04T12:12:02.834Z</time></trkpt><trkpt lat="43.2721917" lon="12.9976733"><ele>317.0</ele><time>2026-04-04T12:12:03.833Z</time></trkpt><trkpt lat="43.2721583" lon="12.9975217"><ele>317.0</ele><time>2026-04-04T12:12:04.833Z</time></trkpt><trkpt lat="43.2721233" lon="12.9973817"><ele>317.0</ele><time>2026-04-04T12:12:05.834Z</time></trkpt><trkpt lat="43.2720867" lon="12.9972567"><ele>317.0</ele><time>2026-04-04T12:12:06.834Z</time></trkpt><trkpt lat="43.2720383" lon="12.99716"><ele>317.0</ele><time>2026-04-04T12:12:07.834Z</time></trkpt><trkpt lat="43.27198" lon="12.99709"><ele>317.0</ele><time>2026-04-04T12:12:08.833Z</time></trkpt><trkpt lat="43.2719167" lon="12.9970533"><ele>317.0</ele><time>2026-04-04T12:12:09.833Z</time></trkpt><trkpt lat="43.2718333" lon="12.9970683"><ele>317.0</ele><time>2026-04-04T12:12:10.832Z</time></trkpt><trkpt lat="43.2717483" lon="12.9971033"><ele>317.0</ele><time>2026-04-04T12:12:11.833Z</time></trkpt><trkpt lat="43.271635" lon="12.99719"><ele>317.0</ele><time>2026-04-04T12:12:12.833Z</time></trkpt><trkpt lat="43.2715017" lon="12.9973033"><ele>317.0</ele><time>2026-04-04T12:12:13.833Z</time></trkpt><trkpt lat="43.271365" lon="12.9974283"><ele>317.33333333333337</ele><time>2026-04-04T12:12:14.836Z</time></trkpt><trkpt lat="43.2712333" lon="12.9975567"><ele>317.6666666666667</ele><time>2026-04-04T12:12:15.834Z</time></trkpt><trkpt lat="43.2711" lon="12.997695"><ele>318.0</ele><time>2026-04-04T12:12:16.833Z</time></trkpt><trkpt lat="43.270965" lon="12.9978333"><ele>318.0</ele><time>2026-04-04T12:12:17.834Z</time></trkpt><trkpt lat="43.2708233" lon="12.9979667"><ele>318.0</ele><time>2026-04-04T12:12:18.833Z</time></trkpt><trkpt lat="43.2706783" lon="12.998085"><ele>318.0</ele><time>2026-04-04T12:12:19.833Z</time></trkpt><trkpt lat="43.2705233" lon="12.9981917"><ele>317.6666666666667</ele><time>2026-04-04T12:12:20.835Z</time></trkpt><trkpt lat="43.2703567" lon="12.9982833"><ele>317.33333333333337</ele><time>2026-04-04T12:12:21.834Z</time></trkpt><trkpt lat="43.2701883" lon="12.99836"><ele>317.0</ele><time>2026-04-04T12:12:22.833Z</time></trkpt><trkpt lat="43.27002" lon="12.998425"><ele>317.0</ele><time>2026-04-04T12:12:23.833Z</time></trkpt><trkpt lat="43.2698517" lon="12.9984667"><ele>317.0</ele><time>2026-04-04T12:12:24.833Z</time></trkpt><trkpt lat="43.2696783" lon="12.9984933"><ele>317.0</ele><time>2026-04-04T12:12:25.834Z</time></trkpt><trkpt lat="43.2695017" lon="12.9985233"><ele>319.0</ele><time>2026-04-04T12:12:26.835Z</time></trkpt><trkpt lat="43.2693283" lon="12.998555"><ele>321.0</ele><time>2026-04-04T12:12:27.833Z</time></trkpt><trkpt lat="43.2691483" lon="12.998595"><ele>323.0</ele><time>2026-04-04T12:12:28.835Z</time></trkpt><trkpt lat="43.2689667" lon="12.9986367"><ele>322.6666666666667</ele><time>2026-04-04T12:12:29.833Z</time></trkpt><trkpt lat="43.26879" lon="12.9986933"><ele>322.3333333333333</ele><time>2026-04-04T12:12:30.835Z</time></trkpt><trkpt lat="43.268615" lon="12.99876"><ele>322.0</ele><time>2026-04-04T12:12:31.833Z</time></trkpt><trkpt lat="43.2684417" lon="12.9988333"><ele>322.0</ele><time>2026-04-04T12:12:32.835Z</time></trkpt><trkpt lat="43.2682633" lon="12.9989"><ele>322.0</ele><time>2026-04-04T12:12:33.828Z</time></trkpt><trkpt lat="43.2680883" lon="12.9989733"><ele>322.0</ele><time>2026-04-04T12:12:34.832Z</time></trkpt><trkpt lat="43.2679083" lon="12.9990483"><ele>322.0</ele><time>2026-04-04T12:12:35.835Z</time></trkpt><trkpt lat="43.2677283" lon="12.9991267"><ele>322.0</ele><time>2026-04-04T12:12:36.834Z</time></trkpt><trkpt lat="43.2675533" lon="12.99921"><ele>322.0</ele><time>2026-04-04T12:12:37.833Z</time></trkpt><trkpt lat="43.267375" lon="12.999285"><ele>322.0</ele><time>2026-04-04T12:12:38.835Z</time></trkpt><trkpt lat="43.267195" lon="12.999355"><ele>322.0</ele><time>2026-04-04T12:12:39.834Z</time></trkpt><trkpt lat="43.2670183" lon="12.99943"><ele>322.0</ele><time>2026-04-04T12:12:40.835Z</time></trkpt><trkpt lat="43.266845" lon="12.9995"><ele>322.0</ele><time>2026-04-04T12:12:41.832Z</time></trkpt><trkpt lat="43.2666717" lon="12.999575"><ele>322.0</ele><time>2026-04-04T12:12:42.834Z</time></trkpt><trkpt lat="43.2664967" lon="12.999645"><ele>322.0</ele><time>2026-04-04T12:12:43.834Z</time></trkpt><trkpt lat="43.2663233" lon="12.9997217"><ele>324.0</ele><time>2026-04-04T12:12:44.832Z</time></trkpt><trkpt lat="43.26615" lon="12.9998"><ele>326.0</ele><time>2026-04-04T12:12:45.833Z</time></trkpt><trkpt lat="43.2659767" lon="12.9998767"><ele>328.0</ele><time>2026-04-04T12:12:46.832Z</time></trkpt><trkpt lat="43.265805" lon="12.999955"><ele>328.0</ele><time>2026-04-04T12:12:47.835Z</time></trkpt><trkpt lat="43.265635" lon="13.0000167"><ele>328.0</ele><time>2026-04-04T12:12:48.834Z</time></trkpt><trkpt lat="43.2654667" lon="13.0000683"><ele>328.0</ele><time>2026-04-04T12:12:49.834Z</time></trkpt><trkpt lat="43.2652967" lon="13.0001"><ele>331.3333333333333</ele><time>2026-04-04T12:12:50.832Z</time></trkpt><trkpt lat="43.2651267" lon="13.0001"><ele>334.6666666666667</ele><time>2026-04-04T12:12:51.832Z</time></trkpt><trkpt lat="43.264955" lon="13.0000583"><ele>338.0</ele><time>2026-04-04T12:12:52.834Z</time></trkpt><trkpt lat="43.264785" lon="12.99999"><ele>339.0</ele><time>2026-04-04T12:12:53.838Z</time></trkpt><trkpt lat="43.2646183" lon="12.9999117"><ele>340.0</ele><time>2026-04-04T12:12:54.833Z</time></trkpt><trkpt lat="43.2644517" lon="12.999855"><ele>341.0</ele><time>2026-04-04T12:12:55.833Z</time></trkpt><trkpt lat="43.2642917" lon="12.9998417"><ele>341.0</ele><time>2026-04-04T12:12:56.837Z</time></trkpt><trkpt lat="43.2641433" lon="12.9998767"><ele>341.0</ele><time>2026-04-04T12:12:57.834Z</time></trkpt><trkpt lat="43.2640133" lon="12.99994"><ele>341.0</ele><time>2026-04-04T12:12:58.833Z</time></trkpt><trkpt lat="43.2639233" lon="13.0000367"><ele>341.0</ele><time>2026-04-04T12:12:59.833Z</time></trkpt><trkpt lat="43.2638617" lon="13.0001683"><ele>341.0</ele><time>2026-04-04T12:13:00.833Z</time></trkpt><trkpt lat="43.263825" lon="13.0003317"><ele>341.0</ele><time>2026-04-04T12:13:01.832Z</time></trkpt><trkpt lat="43.26379" lon="13.000525"><ele>341.0</ele><time>2026-04-04T12:13:02.836Z</time></trkpt><trkpt lat="43.2637267" lon="13.0007383"><ele>341.0</ele><time>2026-04-04T12:13:03.835Z</time></trkpt><trkpt lat="43.263645" lon="13.0009467"><ele>341.0</ele><time>2026-04-04T12:13:04.834Z</time></trkpt><trkpt lat="43.2635633" lon="13.001145"><ele>341.0</ele><time>2026-04-04T12:13:05.835Z</time></trkpt><trkpt lat="43.263475" lon="13.0013267"><ele>341.0</ele><time>2026-04-04T12:13:06.836Z</time></trkpt><trkpt lat="43.263385" lon="13.0014783"><ele>341.0</ele><time>2026-04-04T12:13:07.834Z</time></trkpt><trkpt lat="43.26328" lon="13.001565"><ele>341.0</ele><time>2026-04-04T12:13:08.834Z</time></trkpt><trkpt lat="43.2631483" lon="13.0016183"><ele>341.0</ele><time>2026-04-04T12:13:09.834Z</time></trkpt><trkpt lat="43.2630033" lon="13.0016433"><ele>341.0</ele><time>2026-04-04T12:13:10.834Z</time></trkpt><trkpt lat="43.2628567" lon="13.00167"><ele>341.25</ele><time>2026-04-04T12:13:11.832Z</time></trkpt><trkpt lat="43.2627167" lon="13.0017267"><ele>341.5</ele><time>2026-04-04T12:13:12.833Z</time></trkpt><trkpt lat="43.2626017" lon="13.0018133"><ele>341.75</ele><time>2026-04-04T12:13:13.834Z</time></trkpt><trkpt lat="43.2625083" lon="13.0019367"><ele>342.0</ele><time>2026-04-04T12:13:14.834Z</time></trkpt><trkpt lat="43.2624417" lon="13.002105"><ele>342.0</ele><time>2026-04-04T12:13:15.834Z</time></trkpt><trkpt lat="43.2623967" lon="13.0022967"><ele>342.0</ele><time>2026-04-04T12:13:16.833Z</time></trkpt><trkpt lat="43.262365" lon="13.0024967"><ele>342.0</ele><time>2026-04-04T12:13:17.836Z</time></trkpt><trkpt lat="43.2623333" lon="13.0026983"><ele>342.0</ele><time>2026-04-04T12:13:18.834Z</time></trkpt><trkpt lat="43.2622967" lon="13.0029"><ele>344.0</ele><time>2026-04-04T12:13:19.834Z</time></trkpt><trkpt lat="43.2622517" lon="13.003105"><ele>346.0</ele><time>2026-04-04T12:13:20.836Z</time></trkpt><trkpt lat="43.2621967" lon="13.0033133"><ele>348.0</ele><time>2026-04-04T12:13:21.835Z</time></trkpt><trkpt lat="43.2621233" lon="13.00352"><ele>348.0</ele><time>2026-04-04T12:13:22.836Z</time></trkpt><trkpt lat="43.262035" lon="13.00372"><ele>348.0</ele><time>2026-04-04T12:13:23.834Z</time></trkpt><trkpt lat="43.2619517" lon="13.0039117"><ele>348.0</ele><time>2026-04-04T12:13:24.837Z</time></trkpt><trkpt lat="43.2618667" lon="13.0040967"><ele>347.0</ele><time>2026-04-04T12:13:25.836Z</time></trkpt><trkpt lat="43.261785" lon="13.0042733"><ele>346.0</ele><time>2026-04-04T12:13:26.838Z</time></trkpt><trkpt lat="43.2617" lon="13.0044333"><ele>345.0</ele><time>2026-04-04T12:13:27.835Z</time></trkpt><trkpt lat="43.2616167" lon="13.0045767"><ele>344.0</ele><time>2026-04-04T12:13:28.835Z</time></trkpt><trkpt lat="43.26153" lon="13.0047183"><ele>345.25</ele><time>2026-04-04T12:13:29.835Z</time></trkpt><trkpt lat="43.261435" lon="13.0048333"><ele>346.5</ele><time>2026-04-04T12:13:30.835Z</time></trkpt><trkpt lat="43.2613417" lon="13.0049383"><ele>347.75</ele><time>2026-04-04T12:13:31.833Z</time></trkpt><trkpt lat="43.2612567" lon="13.0050317"><ele>349.0</ele><time>2026-04-04T12:13:32.835Z</time></trkpt><trkpt lat="43.2611767" lon="13.0051117"><ele>349.0</ele><time>2026-04-04T12:13:33.834Z</time></trkpt><trkpt lat="43.2611017" lon="13.0051883"><ele>349.0</ele><time>2026-04-04T12:13:34.834Z</time></trkpt><trkpt lat="43.2610183" lon="13.005255"><ele>349.0</ele><time>2026-04-04T12:13:35.835Z</time></trkpt><trkpt lat="43.2609283" lon="13.0053167"><ele>349.0</ele><time>2026-04-04T12:13:36.835Z</time></trkpt><trkpt lat="43.2608283" lon="13.005385"><ele>349.0</ele><time>2026-04-04T12:13:37.835Z</time></trkpt><trkpt lat="43.26072" lon="13.0054567"><ele>350.25</ele><time>2026-04-04T12:13:38.836Z</time></trkpt><trkpt lat="43.2606" lon="13.0055267"><ele>351.5</ele><time>2026-04-04T12:13:39.834Z</time></trkpt><trkpt lat="43.2604717" lon="13.0056033"><ele>352.75</ele><time>2026-04-04T12:13:40.834Z</time></trkpt><trkpt lat="43.2603417" lon="13.0056767"><ele>354.0</ele><time>2026-04-04T12:13:41.836Z</time></trkpt><trkpt lat="43.2602067" lon="13.005755"><ele>351.6666666666667</ele><time>2026-04-04T12:13:42.835Z</time></trkpt><trkpt lat="43.2600617" lon="13.0058417"><ele>349.33333333333337</ele><time>2026-04-04T12:13:43.834Z</time></trkpt><trkpt lat="43.2599167" lon="13.00595"><ele>347.0</ele><time>2026-04-04T12:13:44.836Z</time></trkpt><trkpt lat="43.259775" lon="13.0060667"><ele>347.0</ele><time>2026-04-04T12:13:45.835Z</time></trkpt><trkpt lat="43.259635" lon="13.0061867"><ele>347.0</ele><time>2026-04-04T12:13:46.834Z</time></trkpt><trkpt lat="43.2595017" lon="13.0063117"><ele>347.0</ele><time>2026-04-04T12:13:47.833Z</time></trkpt><trkpt lat="43.2593767" lon="13.0064383"><ele>347.0</ele><time>2026-04-04T12:13:48.832Z</time></trkpt><trkpt lat="43.2592533" lon="13.0065733"><ele>347.0</ele><time>2026-04-04T12:13:49.834Z</time></trkpt><trkpt lat="43.2591383" lon="13.006715"><ele>347.0</ele><time>2026-04-04T12:13:50.836Z</time></trkpt><trkpt lat="43.2590317" lon="13.0068683"><ele>344.33333333333337</ele><time>2026-04-04T12:13:51.835Z</time></trkpt><trkpt lat="43.2589317" lon="13.007035"><ele>341.6666666666667</ele><time>2026-04-04T12:13:52.834Z</time></trkpt><trkpt lat="43.258845" lon="13.0072117"><ele>339.0</ele><time>2026-04-04T12:13:53.836Z</time></trkpt><trkpt lat="43.258765" lon="13.0073867"><ele>338.5</ele><time>2026-04-04T12:13:54.834Z</time></trkpt><trkpt lat="43.25869" lon="13.0075617"><ele>338.0</ele><time>2026-04-04T12:13:55.834Z</time></trkpt><trkpt lat="43.2586167" lon="13.0077233"><ele>337.5</ele><time>2026-04-04T12:13:56.837Z</time></trkpt><trkpt lat="43.258545" lon="13.00787"><ele>337.0</ele><time>2026-04-04T12:13:57.835Z</time></trkpt><trkpt lat="43.2584633" lon="13.007985"><ele>337.0</ele><time>2026-04-04T12:13:58.836Z</time></trkpt><trkpt lat="43.2583683" lon="13.008065"><ele>337.0</ele><time>2026-04-04T12:13:59.834Z</time></trkpt><trkpt lat="43.25826" lon="13.0081067"><ele>337.0</ele><time>2026-04-04T12:14:00.836Z</time></trkpt><trkpt lat="43.2581383" lon="13.0080783"><ele>337.0</ele><time>2026-04-04T12:14:01.835Z</time></trkpt><trkpt lat="43.2580167" lon="13.008025"><ele>337.5</ele><time>2026-04-04T12:14:02.836Z</time></trkpt><trkpt lat="43.2578917" lon="13.00797"><ele>338.0</ele><time>2026-04-04T12:14:03.834Z</time></trkpt><trkpt lat="43.2577667" lon="13.00793"><ele>338.5</ele><time>2026-04-04T12:14:04.834Z</time></trkpt><trkpt lat="43.2576433" lon="13.0079083"><ele>339.0</ele><time>2026-04-04T12:14:05.836Z</time></trkpt><trkpt lat="43.257525" lon="13.0078967"><ele>339.0</ele><time>2026-04-04T12:14:06.836Z</time></trkpt><trkpt lat="43.2574067" lon="13.0078833"><ele>339.0</ele><time>2026-04-04T12:14:07.834Z</time></trkpt><trkpt lat="43.2572933" lon="13.0078633"><ele>339.0</ele><time>2026-04-04T12:14:08.835Z</time></trkpt><trkpt lat="43.257185" lon="13.0078383"><ele>339.0</ele><time>2026-04-04T12:14:09.836Z</time></trkpt><trkpt lat="43.25708" lon="13.0078233"><ele>339.0</ele><time>2026-04-04T12:14:10.837Z</time></trkpt><trkpt lat="43.25698" lon="13.0077883"><ele>338.6</ele><time>2026-04-04T12:14:11.834Z</time></trkpt><trkpt lat="43.2569017" lon="13.0077317"><ele>338.2</ele><time>2026-04-04T12:14:12.834Z</time></trkpt><trkpt lat="43.256815" lon="13.00766"><ele>337.8</ele><time>2026-04-04T12:14:13.834Z</time></trkpt><trkpt lat="43.2567283" lon="13.0075633"><ele>337.40000000000003</ele><time>2026-04-04T12:14:14.836Z</time></trkpt><trkpt lat="43.256635" lon="13.0074533"><ele>337.0</ele><time>2026-04-04T12:14:15.836Z</time></trkpt><trkpt lat="43.2565467" lon="13.007335"><ele>337.0</ele><time>2026-04-04T12:14:16.834Z</time></trkpt><trkpt lat="43.256465" lon="13.0072033"><ele>337.0</ele><time>2026-04-04T12:14:17.833Z</time></trkpt><trkpt lat="43.2563967" lon="13.0070583"><ele>337.0</ele><time>2026-04-04T12:14:18.834Z</time></trkpt><trkpt lat="43.25634" lon="13.006905"><ele>337.0</ele><time>2026-04-04T12:14:19.835Z</time></trkpt><trkpt lat="43.2562983" lon="13.0067533"><ele>337.40000000000003</ele><time>2026-04-04T12:14:20.836Z</time></trkpt><trkpt lat="43.2562533" lon="13.006615"><ele>337.8</ele><time>2026-04-04T12:14:21.834Z</time></trkpt><trkpt lat="43.2561917" lon="13.0065"><ele>338.2</ele><time>2026-04-04T12:14:22.83Z</time></trkpt><trkpt lat="43.25611" lon="13.0064033"><ele>338.6</ele><time>2026-04-04T12:14:23.835Z</time></trkpt><trkpt lat="43.2560083" lon="13.0063233"><ele>339.0</ele><time>2026-04-04T12:14:24.835Z</time></trkpt><trkpt lat="43.255905" lon="13.006265"><ele>339.0</ele><time>2026-04-04T12:14:25.836Z</time></trkpt><trkpt lat="43.2558" lon="13.00623"><ele>339.0</ele><time>2026-04-04T12:14:26.835Z</time></trkpt><trkpt lat="43.2556917" lon="13.00621"><ele>339.0</ele><time>2026-04-04T12:14:27.835Z</time></trkpt><trkpt lat="43.2555867" lon="13.0062017"><ele>339.0</ele><time>2026-04-04T12:14:28.834Z</time></trkpt><trkpt lat="43.2554933" lon="13.0061733"><ele>339.0</ele><time>2026-04-04T12:14:29.834Z</time></trkpt><trkpt lat="43.255395" lon="13.006135"><ele>339.4</ele><time>2026-04-04T12:14:30.835Z</time></trkpt><trkpt lat="43.255305" lon="13.0060783"><ele>339.79999999999995</ele><time>2026-04-04T12:14:31.835Z</time></trkpt><trkpt lat="43.2552217" lon="13.005985"><ele>340.20000000000005</ele><time>2026-04-04T12:14:32.837Z</time></trkpt><trkpt lat="43.255145" lon="13.0058667"><ele>340.6</ele><time>2026-04-04T12:14:33.835Z</time></trkpt><trkpt lat="43.255065" lon="13.005735"><ele>341.0</ele><time>2026-04-04T12:14:34.834Z</time></trkpt><trkpt lat="43.254975" lon="13.005605"><ele>341.25</ele><time>2026-04-04T12:14:35.834Z</time></trkpt><trkpt lat="43.2548733" lon="13.0054867"><ele>341.5</ele><time>2026-04-04T12:14:36.836Z</time></trkpt><trkpt lat="43.254755" lon="13.0053817"><ele>341.75</ele><time>2026-04-04T12:14:37.834Z</time></trkpt><trkpt lat="43.2546217" lon="13.0052833"><ele>342.0</ele><time>2026-04-04T12:14:38.836Z</time></trkpt><trkpt lat="43.2544767" lon="13.0051917"><ele>342.0</ele><time>2026-04-04T12:14:39.837Z</time></trkpt><trkpt lat="43.2543283" lon="13.005105"><ele>342.0</ele><time>2026-04-04T12:14:40.835Z</time></trkpt><trkpt lat="43.2541767" lon="13.0050233"><ele>342.0</ele><time>2026-04-04T12:14:41.837Z</time></trkpt><trkpt lat="43.2540217" lon="13.0049483"><ele>342.6666666666667</ele><time>2026-04-04T12:14:42.835Z</time></trkpt><trkpt lat="43.253865" lon="13.0048883"><ele>343.33333333333337</ele><time>2026-04-04T12:14:43.833Z</time></trkpt><trkpt lat="43.25371" lon="13.0048317"><ele>344.0</ele><time>2026-04-04T12:14:44.833Z</time></trkpt><trkpt lat="43.2535533" lon="13.0047633"><ele>344.0</ele><time>2026-04-04T12:14:45.834Z</time></trkpt><trkpt lat="43.253405" lon="13.00467"><ele>344.0</ele><time>2026-04-04T12:14:46.832Z</time></trkpt><trkpt lat="43.2532617" lon="13.0045583"><ele>344.0</ele><time>2026-04-04T12:14:47.833Z</time></trkpt><trkpt lat="43.2531167" lon="13.00444"><ele>344.6666666666667</ele><time>2026-04-04T12:14:48.834Z</time></trkpt><trkpt lat="43.25297" lon="13.0043167"><ele>345.3333333333333</ele><time>2026-04-04T12:14:49.834Z</time></trkpt><trkpt lat="43.252825" lon="13.004185"><ele>346.0</ele><time>2026-04-04T12:14:50.835Z</time></trkpt><trkpt lat="43.2526783" lon="13.0040433"><ele>346.0</ele><time>2026-04-04T12:14:51.835Z</time></trkpt><trkpt lat="43.25254" lon="13.0038933"><ele>346.0</ele><time>2026-04-04T12:14:52.834Z</time></trkpt><trkpt lat="43.2524" lon="13.00374"><ele>346.0</ele><time>2026-04-04T12:14:53.833Z</time></trkpt><trkpt lat="43.252265" lon="13.0035833"><ele>346.0</ele><time>2026-04-04T12:14:54.833Z</time></trkpt><trkpt lat="43.2521333" lon="13.003425"><ele>346.0</ele><time>2026-04-04T12:14:55.833Z</time></trkpt><trkpt lat="43.2520067" lon="13.0032683"><ele>346.0</ele><time>2026-04-04T12:14:56.835Z</time></trkpt><trkpt lat="43.251875" lon="13.00312"><ele>346.0</ele><time>2026-04-04T12:14:57.833Z</time></trkpt><trkpt lat="43.2517417" lon="13.0029833"><ele>346.0</ele><time>2026-04-04T12:14:58.833Z</time></trkpt><trkpt lat="43.2516133" lon="13.0028517"><ele>346.0</ele><time>2026-04-04T12:14:59.833Z</time></trkpt><trkpt lat="43.2514933" lon="13.0027117"><ele>344.3333333333333</ele><time>2026-04-04T12:15:00.834Z</time></trkpt><trkpt lat="43.25138" lon="13.002555"><ele>342.6666666666667</ele><time>2026-04-04T12:15:01.833Z</time></trkpt><trkpt lat="43.25128" lon="13.0023733"><ele>341.0</ele><time>2026-04-04T12:15:02.834Z</time></trkpt><trkpt lat="43.2511917" lon="13.002175"><ele>341.0</ele><time>2026-04-04T12:15:03.834Z</time></trkpt><trkpt lat="43.2511167" lon="13.0019683"><ele>341.0</ele><time>2026-04-04T12:15:04.835Z</time></trkpt><trkpt lat="43.2510483" lon="13.0017533"><ele>341.0</ele><time>2026-04-04T12:15:05.833Z</time></trkpt><trkpt lat="43.2509783" lon="13.0015367"><ele>343.33333333333337</ele><time>2026-04-04T12:15:06.834Z</time></trkpt><trkpt lat="43.250895" lon="13.0013283"><ele>345.6666666666667</ele><time>2026-04-04T12:15:07.834Z</time></trkpt><trkpt lat="43.2507917" lon="13.001135"><ele>348.0</ele><time>2026-04-04T12:15:08.835Z</time></trkpt><trkpt lat="43.2506667" lon="13.0009633"><ele>348.6666666666667</ele><time>2026-04-04T12:15:09.833Z</time></trkpt><trkpt lat="43.250525" lon="13.000815"><ele>349.33333333333337</ele><time>2026-04-04T12:15:10.834Z</time></trkpt><trkpt lat="43.2503667" lon="13.0007017"><ele>350.0</ele><time>2026-04-04T12:15:11.833Z</time></trkpt><trkpt lat="43.2501983" lon="13.0006217"><ele>350.0</ele><time>2026-04-04T12:15:12.834Z</time></trkpt><trkpt lat="43.2500217" lon="13.0005867"><ele>350.0</ele><time>2026-04-04T12:15:13.834Z</time></trkpt><trkpt lat="43.2498417" lon="13.0006017"><ele>350.0</ele><time>2026-04-04T12:15:14.836Z</time></trkpt><trkpt lat="43.249665" lon="13.0006617"><ele>348.6666666666667</ele><time>2026-04-04T12:15:15.834Z</time></trkpt><trkpt lat="43.2494967" lon="13.0007567"><ele>347.3333333333333</ele><time>2026-04-04T12:15:16.833Z</time></trkpt><trkpt lat="43.2493333" lon="13.0008783"><ele>346.0</ele><time>2026-04-04T12:15:17.834Z</time></trkpt><trkpt lat="43.2491733" lon="13.0010083"><ele>345.3333333333333</ele><time>2026-04-04T12:15:18.835Z</time></trkpt><trkpt lat="43.24901" lon="13.0011333"><ele>344.6666666666667</ele><time>2026-04-04T12:15:19.835Z</time></trkpt><trkpt lat="43.2488467" lon="13.0012533"><ele>344.0</ele><time>2026-04-04T12:15:20.837Z</time></trkpt><trkpt lat="43.2486767" lon="13.00136"><ele>348.33333333333337</ele><time>2026-04-04T12:15:21.834Z</time></trkpt><trkpt lat="43.2485" lon="13.001435"><ele>352.6666666666667</ele><time>2026-04-04T12:15:22.834Z</time></trkpt><trkpt lat="43.2483217" lon="13.001485"><ele>357.0</ele><time>2026-04-04T12:15:23.835Z</time></trkpt><trkpt lat="43.2481417" lon="13.001515"><ele>360.0</ele><time>2026-04-04T12:15:24.835Z</time></trkpt><trkpt lat="43.247965" lon="13.0015467"><ele>363.0</ele><time>2026-04-04T12:15:25.837Z</time></trkpt><trkpt lat="43.2478017" lon="13.0016033"><ele>366.0</ele><time>2026-04-04T12:15:26.836Z</time></trkpt><trkpt lat="43.24767" lon="13.0017"><ele>366.4</ele><time>2026-04-04T12:15:27.836Z</time></trkpt><trkpt lat="43.2475733" lon="13.001825"><ele>366.8</ele><time>2026-04-04T12:15:28.836Z</time></trkpt><trkpt lat="43.2474967" lon="13.001955"><ele>367.2</ele><time>2026-04-04T12:15:29.834Z</time></trkpt><trkpt lat="43.24745" lon="13.00206"><ele>367.59999999999997</ele><time>2026-04-04T12:15:30.834Z</time></trkpt><trkpt lat="43.2474017" lon="13.0021733"><ele>368.0</ele><time>2026-04-04T12:15:32.836Z</time></trkpt><trkpt lat="43.2473233" lon="13.0022533"><ele>368.0</ele><time>2026-04-04T12:15:35.833Z</time></trkpt><trkpt lat="43.2472367" lon="13.0022583"><ele>368.0</ele><time>2026-04-04T12:15:37.833Z</time></trkpt><trkpt lat="43.2471517" lon="13.0021417"><ele>368.0</ele><time>2026-04-04T12:15:39.832Z</time></trkpt><trkpt lat="43.2471" lon="13.0020483"><ele>368.0</ele><time>2026-04-04T12:15:40.835Z</time></trkpt><trkpt lat="43.247045" lon="13.001935"><ele>368.0</ele><time>2026-04-04T12:15:41.834Z</time></trkpt><trkpt lat="43.2469883" lon="13.0018117"><ele>368.0</ele><time>2026-04-04T12:15:42.836Z</time></trkpt><trkpt lat="43.24693" lon="13.0016833"><ele>368.0</ele><time>2026-04-04T12:15:43.833Z</time></trkpt><trkpt lat="43.2468683" lon="13.00155"><ele>368.0</ele><time>2026-04-04T12:15:44.831Z</time></trkpt><trkpt lat="43.2468067" lon="13.0014133"><ele>368.0</ele><time>2026-04-04T12:15:45.834Z</time></trkpt><trkpt lat="43.2467517" lon="13.0012817"><ele>368.4</ele><time>2026-04-04T12:15:46.832Z</time></trkpt><trkpt lat="43.2467" lon="13.0011583"><ele>368.79999999999995</ele><time>2026-04-04T12:15:47.833Z</time></trkpt><trkpt lat="43.246655" lon="13.00105"><ele>369.2</ele><time>2026-04-04T12:15:48.835Z</time></trkpt><trkpt lat="43.2466183" lon="13.000965"><ele>369.6</ele><time>2026-04-04T12:15:49.835Z</time></trkpt><trkpt lat="43.2465483" lon="13.0008317"><ele>370.0</ele><time>2026-04-04T12:15:51.834Z</time></trkpt><trkpt lat="43.246515" lon="13.0007517"><ele>370.4</ele><time>2026-04-04T12:15:52.835Z</time></trkpt><trkpt lat="43.246475" lon="13.0006583"><ele>370.8</ele><time>2026-04-04T12:15:53.835Z</time></trkpt><trkpt lat="43.2464283" lon="13.00055"><ele>371.20000000000005</ele><time>2026-04-04T12:15:54.836Z</time></trkpt><trkpt lat="43.2463783" lon="13.0004333"><ele>371.6</ele><time>2026-04-04T12:15:55.833Z</time></trkpt><trkpt lat="43.2463283" lon="13.0003167"><ele>372.0</ele><time>2026-04-04T12:15:56.834Z</time></trkpt><trkpt lat="43.246275" lon="13.0002"><ele>372.0</ele><time>2026-04-04T12:15:57.836Z</time></trkpt><trkpt lat="43.2462217" lon="13.00008"><ele>372.0</ele><time>2026-04-04T12:15:58.832Z</time></trkpt><trkpt lat="43.2461683" lon="12.9999617"><ele>372.0</ele><time>2026-04-04T12:15:59.833Z</time></trkpt><trkpt lat="43.24612" lon="12.9998517"><ele>372.0</ele><time>2026-04-04T12:16:00.83Z</time></trkpt><trkpt lat="43.2460783" lon="12.9997567"><ele>372.0</ele><time>2026-04-04T12:16:01.835Z</time></trkpt><trkpt lat="43.24604" lon="12.9996733"><ele>372.0</ele><time>2026-04-04T12:16:02.828Z</time></trkpt><trkpt lat="43.2459733" lon="12.9995617"><ele>372.0</ele><time>2026-04-04T12:16:04.833Z</time></trkpt><trkpt lat="43.2458767" lon="12.9995617"><ele>372.0</ele><time>2026-04-04T12:16:06.834Z</time></trkpt><trkpt lat="43.2458083" lon="12.9996233"><ele>372.0</ele><time>2026-04-04T12:16:07.834Z</time></trkpt><trkpt lat="43.2457417" lon="12.999705"><ele>372.0</ele><time>2026-04-04T12:16:08.835Z</time></trkpt><trkpt lat="43.2456783" lon="12.999785"><ele>372.1666666666667</ele><time>2026-04-04T12:16:09.836Z</time></trkpt><trkpt lat="43.2456183" lon="12.9998617"><ele>372.3333333333333</ele><time>2026-04-04T12:16:10.834Z</time></trkpt><trkpt lat="43.2455583" lon="12.9999333"><ele>372.5</ele><time>2026-04-04T12:16:11.829Z</time></trkpt><trkpt lat="43.2455" lon="12.9999967"><ele>372.66666666666663</ele><time>2026-04-04T12:16:12.832Z</time></trkpt><trkpt lat="43.245445" lon="13.0000567"><ele>372.8333333333333</ele><time>2026-04-04T12:16:13.833Z</time></trkpt><trkpt lat="43.2453567" lon="13.0001483"><ele>373.0</ele><time>2026-04-04T12:16:15.833Z</time></trkpt><trkpt lat="43.2452933" lon="13.00016"><ele>373.0</ele><time>2026-04-04T12:16:17.834Z</time></trkpt><trkpt lat="43.24521" lon="13.00003"><ele>373.0</ele><time>2026-04-04T12:16:19.834Z</time></trkpt><trkpt lat="43.2451583" lon="12.9999167"><ele>373.0</ele><time>2026-04-04T12:16:20.837Z</time></trkpt><trkpt lat="43.2451167" lon="12.999805"><ele>373.0</ele><time>2026-04-04T12:16:21.836Z</time></trkpt><trkpt lat="43.245085" lon="12.999705"><ele>373.0</ele><time>2026-04-04T12:16:22.835Z</time></trkpt><trkpt lat="43.2450633" lon="12.9996117"><ele>373.0</ele><time>2026-04-04T12:16:23.835Z</time></trkpt><trkpt lat="43.245045" lon="12.9995133"><ele>373.0</ele><time>2026-04-04T12:16:24.834Z</time></trkpt><trkpt lat="43.2450183" lon="12.9994317"><ele>373.0</ele><time>2026-04-04T12:16:25.836Z</time></trkpt><trkpt lat="43.2449483" lon="12.9993433"><ele>373.0</ele><time>2026-04-04T12:16:27.835Z</time></trkpt><trkpt lat="43.2448583" lon="12.9993983"><ele>373.0</ele><time>2026-04-04T12:16:29.835Z</time></trkpt><trkpt lat="43.2448133" lon="12.99949"><ele>373.0</ele><time>2026-04-04T12:16:30.834Z</time></trkpt><trkpt lat="43.24476" lon="12.9995883"><ele>373.4</ele><time>2026-04-04T12:16:31.834Z</time></trkpt><trkpt lat="43.2446917" lon="12.9996767"><ele>373.79999999999995</ele><time>2026-04-04T12:16:32.836Z</time></trkpt><trkpt lat="43.2446083" lon="12.9997517"><ele>374.2</ele><time>2026-04-04T12:16:33.83Z</time></trkpt><trkpt lat="43.24452" lon="12.999815"><ele>374.6</ele><time>2026-04-04T12:16:34.833Z</time></trkpt><trkpt lat="43.2444333" lon="12.9998883"><ele>375.0</ele><time>2026-04-04T12:16:35.834Z</time></trkpt><trkpt lat="43.2443517" lon="12.9999717"><ele>375.0</ele><time>2026-04-04T12:16:36.833Z</time></trkpt><trkpt lat="43.2442833" lon="13.0000633"><ele>375.0</ele><time>2026-04-04T12:16:37.834Z</time></trkpt><trkpt lat="43.2442317" lon="13.0001767"><ele>375.0</ele><time>2026-04-04T12:16:38.836Z</time></trkpt><trkpt lat="43.2441917" lon="13.0003"><ele>375.0</ele><time>2026-04-04T12:16:39.834Z</time></trkpt><trkpt lat="43.24415" lon="13.0004233"><ele>375.0</ele><time>2026-04-04T12:16:40.833Z</time></trkpt><trkpt lat="43.2441067" lon="13.0005467"><ele>375.0</ele><time>2026-04-04T12:16:41.833Z</time></trkpt><trkpt lat="43.24406" lon="13.0006667"><ele>375.0</ele><time>2026-04-04T12:16:42.834Z</time></trkpt><trkpt lat="43.2440033" lon="13.0007767"><ele>375.0</ele><time>2026-04-04T12:16:43.834Z</time></trkpt><trkpt lat="43.24394" lon="13.00088"><ele>375.0</ele><time>2026-04-04T12:16:44.837Z</time></trkpt><trkpt lat="43.2438783" lon="13.0009683"><ele>375.0</ele><time>2026-04-04T12:16:45.835Z</time></trkpt><trkpt lat="43.24381" lon="13.0010317"><ele>375.0</ele><time>2026-04-04T12:16:46.833Z</time></trkpt><trkpt lat="43.24374" lon="13.0010867"><ele>375.0</ele><time>2026-04-04T12:16:47.831Z</time></trkpt><trkpt lat="43.243675" lon="13.0011367"><ele>375.0</ele><time>2026-04-04T12:16:48.834Z</time></trkpt><trkpt lat="43.243605" lon="13.00118"><ele>375.0</ele><time>2026-04-04T12:16:49.834Z</time></trkpt><trkpt lat="43.24353" lon="13.0012067"><ele>375.0</ele><time>2026-04-04T12:16:50.835Z</time></trkpt><trkpt lat="43.2434467" lon="13.00119"><ele>375.0</ele><time>2026-04-04T12:16:51.833Z</time></trkpt><trkpt lat="43.243365" lon="13.00114"><ele>375.0</ele><time>2026-04-04T12:16:52.835Z</time></trkpt><trkpt lat="43.2432883" lon="13.0011"><ele>375.0</ele><time>2026-04-04T12:16:53.835Z</time></trkpt><trkpt lat="43.2432183" lon="13.0010567"><ele>375.0</ele><time>2026-04-04T12:16:54.836Z</time></trkpt><trkpt lat="43.2431467" lon="13.001015"><ele>375.0</ele><time>2026-04-04T12:16:55.835Z</time></trkpt><trkpt lat="43.2430717" lon="13.00098"><ele>375.0</ele><time>2026-04-04T12:16:56.834Z</time></trkpt><trkpt lat="43.243" lon="13.0009683"><ele>375.0</ele><time>2026-04-04T12:16:57.835Z</time></trkpt><trkpt lat="43.242935" lon="13.0009833"><ele>375.0</ele><time>2026-04-04T12:16:58.831Z</time></trkpt><trkpt lat="43.2428733" lon="13.0010083"><ele>375.0</ele><time>2026-04-04T12:16:59.833Z</time></trkpt><trkpt lat="43.2427683" lon="13.0010133"><ele>375.0</ele><time>2026-04-04T12:17:01.834Z</time></trkpt><trkpt lat="43.2427" lon="13.0009"><ele>375.0</ele><time>2026-04-04T12:17:03.834Z</time></trkpt><trkpt lat="43.24268" lon="13.000815"><ele>375.0</ele><time>2026-04-04T12:17:04.834Z</time></trkpt><trkpt lat="43.24266" lon="13.00073"><ele>375.0</ele><time>2026-04-04T12:17:05.834Z</time></trkpt><trkpt lat="43.242645" lon="13.0006433"><ele>375.0</ele><time>2026-04-04T12:17:06.834Z</time></trkpt><trkpt lat="43.2426267" lon="13.00049"><ele>375.0</ele><time>2026-04-04T12:17:08.834Z</time></trkpt><trkpt lat="43.2425583" lon="13.0004167"><ele>375.0</ele><time>2026-04-04T12:17:10.834Z</time></trkpt><trkpt lat="43.2424917" lon="13.0004117"><ele>375.0</ele><time>2026-04-04T12:17:11.833Z</time></trkpt><trkpt lat="43.2424117" lon="13.000425"><ele>375.0</ele><time>2026-04-04T12:17:12.833Z</time></trkpt><trkpt lat="43.24231" lon="13.0004617"><ele>376.25</ele><time>2026-04-04T12:17:13.836Z</time></trkpt><trkpt lat="43.242185" lon="13.0005233"><ele>377.5</ele><time>2026-04-04T12:17:14.834Z</time></trkpt><trkpt lat="43.2420633" lon="13.00059"><ele>378.75</ele><time>2026-04-04T12:17:15.835Z</time></trkpt><trkpt lat="43.2419367" lon="13.0006633"><ele>380.0</ele><time>2026-04-04T12:17:16.833Z</time></trkpt><trkpt lat="43.2418167" lon="13.00074"><ele>380.0</ele><time>2026-04-04T12:17:17.834Z</time></trkpt><trkpt lat="43.2417033" lon="13.00081"><ele>380.0</ele><time>2026-04-04T12:17:18.836Z</time></trkpt><trkpt lat="43.2415883" lon="13.0008767"><ele>380.0</ele><time>2026-04-04T12:17:19.835Z</time></trkpt><trkpt lat="43.2414767" lon="13.000935"><ele>380.0</ele><time>2026-04-04T12:17:20.834Z</time></trkpt><trkpt lat="43.2413667" lon="13.0009917"><ele>382.2</ele><time>2026-04-04T12:17:21.835Z</time></trkpt><trkpt lat="43.2412617" lon="13.0010517"><ele>384.4</ele><time>2026-04-04T12:17:22.834Z</time></trkpt><trkpt lat="43.2411567" lon="13.0011183"><ele>386.6</ele><time>2026-04-04T12:17:23.835Z</time></trkpt><trkpt lat="43.2410617" lon="13.0011833"><ele>388.8</ele><time>2026-04-04T12:17:24.834Z</time></trkpt><trkpt lat="43.2409767" lon="13.00125"><ele>391.0</ele><time>2026-04-04T12:17:25.833Z</time></trkpt><trkpt lat="43.2409083" lon="13.00131"><ele>391.0</ele><time>2026-04-04T12:17:26.836Z</time></trkpt><trkpt lat="43.2408233" lon="13.0014133"><ele>391.0</ele><time>2026-04-04T12:17:28.834Z</time></trkpt><trkpt lat="43.240795" lon="13.0015117"><ele>391.0</ele><time>2026-04-04T12:17:30.835Z</time></trkpt><trkpt lat="43.240715" lon="13.001545"><ele>391.0</ele><time>2026-04-04T12:24:29.833Z</time></trkpt><trkpt lat="43.2406433" lon="13.001625"><ele>391.0</ele><time>2026-04-04T12:24:31.834Z</time></trkpt><trkpt lat="43.2405667" lon="13.001715"><ele>394.1666666666667</ele><time>2026-04-04T12:24:33.834Z</time></trkpt><trkpt lat="43.240475" lon="13.0018467"><ele>397.33333333333337</ele><time>2026-04-04T12:24:35.835Z</time></trkpt><trkpt lat="43.24042" lon="13.0019183"><ele>400.5</ele><time>2026-04-04T12:24:36.833Z</time></trkpt><trkpt lat="43.2403617" lon="13.0019967"><ele>403.66666666666663</ele><time>2026-04-04T12:24:37.833Z</time></trkpt><trkpt lat="43.240305" lon="13.0020733"><ele>406.8333333333333</ele><time>2026-04-04T12:24:38.834Z</time></trkpt><trkpt lat="43.24025" lon="13.0021467"><ele>410.0</ele><time>2026-04-04T12:24:39.834Z</time></trkpt><trkpt lat="43.240195" lon="13.00221"><ele>410.0</ele><time>2026-04-04T12:24:40.833Z</time></trkpt><trkpt lat="43.2401383" lon="13.0022583"><ele>410.0</ele><time>2026-04-04T12:24:41.833Z</time></trkpt><trkpt lat="43.2400783" lon="13.0022917"><ele>410.0</ele><time>2026-04-04T12:24:42.833Z</time></trkpt><trkpt lat="43.240015" lon="13.0023033"><ele>410.0</ele><time>2026-04-04T12:24:43.833Z</time></trkpt><trkpt lat="43.23995" lon="13.0022917"><ele>410.0</ele><time>2026-04-04T12:24:44.836Z</time></trkpt><trkpt lat="43.23989" lon="13.0022617"><ele>410.0</ele><time>2026-04-04T12:24:45.834Z</time></trkpt><trkpt lat="43.2398283" lon="13.002225"><ele>410.0</ele><time>2026-04-04T12:24:46.834Z</time></trkpt><trkpt lat="43.2397583" lon="13.00219"><ele>411.8333333333333</ele><time>2026-04-04T12:24:47.835Z</time></trkpt><trkpt lat="43.239685" lon="13.0021533"><ele>413.66666666666663</ele><time>2026-04-04T12:24:48.835Z</time></trkpt><trkpt lat="43.239605" lon="13.0021083"><ele>415.5</ele><time>2026-04-04T12:24:49.834Z</time></trkpt><trkpt lat="43.239525" lon="13.0020667"><ele>417.33333333333337</ele><time>2026-04-04T12:24:50.835Z</time></trkpt><trkpt lat="43.2394383" lon="13.002025"><ele>419.1666666666667</ele><time>2026-04-04T12:24:51.834Z</time></trkpt><trkpt lat="43.2393517" lon="13.0019783"><ele>421.0</ele><time>2026-04-04T12:24:52.833Z</time></trkpt><trkpt lat="43.2392683" lon="13.001925"><ele>421.00000000000006</ele><time>2026-04-04T12:24:53.835Z</time></trkpt><trkpt lat="43.2391833" lon="13.0018717"><ele>421.0</ele><time>2026-04-04T12:24:54.829Z</time></trkpt><trkpt lat="43.2391067" lon="13.001825"><ele>421.0</ele><time>2026-04-04T12:24:55.834Z</time></trkpt><trkpt lat="43.2390317" lon="13.0017967"><ele>421.0</ele><time>2026-04-04T12:24:56.835Z</time></trkpt><trkpt lat="43.2389533" lon="13.0017867"><ele>421.00000000000006</ele><time>2026-04-04T12:24:57.832Z</time></trkpt><trkpt lat="43.2388717" lon="13.0018183"><ele>421.0</ele><time>2026-04-04T12:24:58.833Z</time></trkpt><trkpt lat="43.23879" lon="13.00189"><ele>423.20000000000005</ele><time>2026-04-04T12:24:59.833Z</time></trkpt><trkpt lat="43.23872" lon="13.001975"><ele>425.40000000000003</ele><time>2026-04-04T12:25:00.833Z</time></trkpt><trkpt lat="43.2386517" lon="13.00206"><ele>427.6</ele><time>2026-04-04T12:25:01.833Z</time></trkpt><trkpt lat="43.2385783" lon="13.0021417"><ele>429.8</ele><time>2026-04-04T12:25:02.833Z</time></trkpt><trkpt lat="43.2384983" lon="13.002225"><ele>432.0</ele><time>2026-04-04T12:25:03.833Z</time></trkpt><trkpt lat="43.2384133" lon="13.00232"><ele>432.0</ele><time>2026-04-04T12:25:04.833Z</time></trkpt><trkpt lat="43.2383283" lon="13.00242"><ele>432.00000000000006</ele><time>2026-04-04T12:25:05.833Z</time></trkpt><trkpt lat="43.2382467" lon="13.0025167"><ele>432.00000000000006</ele><time>2026-04-04T12:25:06.833Z</time></trkpt><trkpt lat="43.2381633" lon="13.0026083"><ele>432.0</ele><time>2026-04-04T12:25:07.829Z</time></trkpt><trkpt lat="43.2380833" lon="13.0027"><ele>432.0</ele><time>2026-04-04T12:25:08.835Z</time></trkpt><trkpt lat="43.2380033" lon="13.00279"><ele>433.6</ele><time>2026-04-04T12:25:09.833Z</time></trkpt><trkpt lat="43.237925" lon="13.0028767"><ele>435.20000000000005</ele><time>2026-04-04T12:25:10.832Z</time></trkpt><trkpt lat="43.2378467" lon="13.002955"><ele>436.8</ele><time>2026-04-04T12:25:11.834Z</time></trkpt><trkpt lat="43.2377733" lon="13.0030033"><ele>438.4</ele><time>2026-04-04T12:25:12.834Z</time></trkpt><trkpt lat="43.2377067" lon="13.0030217"><ele>440.0</ele><time>2026-04-04T12:25:13.833Z</time></trkpt><trkpt lat="43.237595" lon="13.002945"><ele>440.0</ele><time>2026-04-04T12:25:15.833Z</time></trkpt><trkpt lat="43.237535" lon="13.002865"><ele>440.0</ele><time>2026-04-04T12:25:16.833Z</time></trkpt><trkpt lat="43.2374867" lon="13.00274"><ele>440.0</ele><time>2026-04-04T12:25:17.836Z</time></trkpt><trkpt lat="43.237445" lon="13.0025767"><ele>440.0</ele><time>2026-04-04T12:25:18.834Z</time></trkpt><trkpt lat="43.2374" lon="13.002405"><ele>440.0</ele><time>2026-04-04T12:25:19.834Z</time></trkpt><trkpt lat="43.2373467" lon="13.0022483"><ele>441.0</ele><time>2026-04-04T12:25:20.835Z</time></trkpt><trkpt lat="43.237285" lon="13.002095"><ele>442.0</ele><time>2026-04-04T12:25:21.834Z</time></trkpt><trkpt lat="43.2372267" lon="13.00194"><ele>443.0</ele><time>2026-04-04T12:25:22.833Z</time></trkpt><trkpt lat="43.2371783" lon="13.0017817"><ele>444.0</ele><time>2026-04-04T12:25:23.833Z</time></trkpt><trkpt lat="43.237135" lon="13.0016217"><ele>445.25</ele><time>2026-04-04T12:25:24.834Z</time></trkpt><trkpt lat="43.2370933" lon="13.00147"><ele>446.5</ele><time>2026-04-04T12:25:25.833Z</time></trkpt><trkpt lat="43.2370467" lon="13.0013333"><ele>447.75</ele><time>2026-04-04T12:25:26.834Z</time></trkpt><trkpt lat="43.236985" lon="13.0012033"><ele>449.0</ele><time>2026-04-04T12:25:27.835Z</time></trkpt><trkpt lat="43.2369117" lon="13.001075"><ele>449.0</ele><time>2026-04-04T12:25:28.833Z</time></trkpt><trkpt lat="43.2368317" lon="13.0009483"><ele>449.0</ele><time>2026-04-04T12:25:29.834Z</time></trkpt><trkpt lat="43.236755" lon="13.000825"><ele>449.0</ele><time>2026-04-04T12:25:30.833Z</time></trkpt><trkpt lat="43.2366817" lon="13.0007017"><ele>449.0</ele><time>2026-04-04T12:25:31.832Z</time></trkpt><trkpt lat="43.236605" lon="13.000575"><ele>449.0</ele><time>2026-04-04T12:25:32.836Z</time></trkpt><trkpt lat="43.2365333" lon="13.0004583"><ele>449.0</ele><time>2026-04-04T12:25:33.834Z</time></trkpt><trkpt lat="43.2364633" lon="13.000345"><ele>449.0</ele><time>2026-04-04T12:25:34.835Z</time></trkpt><trkpt lat="43.2363883" lon="13.0002333"><ele>449.0</ele><time>2026-04-04T12:25:35.833Z</time></trkpt><trkpt lat="43.2363133" lon="13.0001267"><ele>449.0</ele><time>2026-04-04T12:25:36.833Z</time></trkpt><trkpt lat="43.2362333" lon="13.0000267"><ele>451.2</ele><time>2026-04-04T12:25:37.832Z</time></trkpt><trkpt lat="43.2361567" lon="12.9999267"><ele>453.4</ele><time>2026-04-04T12:25:38.833Z</time></trkpt><trkpt lat="43.2360833" lon="12.9998217"><ele>455.6</ele><time>2026-04-04T12:25:39.832Z</time></trkpt><trkpt lat="43.2360183" lon="12.9997167"><ele>457.8</ele><time>2026-04-04T12:25:40.833Z</time></trkpt><trkpt lat="43.235955" lon="12.9996133"><ele>460.0</ele><time>2026-04-04T12:25:41.834Z</time></trkpt><trkpt lat="43.2359017" lon="12.99951"><ele>460.00000000000006</ele><time>2026-04-04T12:25:42.833Z</time></trkpt><trkpt lat="43.23585" lon="12.999415"><ele>460.0</ele><time>2026-04-04T12:25:43.833Z</time></trkpt><trkpt lat="43.2357967" lon="12.99933"><ele>460.0</ele><time>2026-04-04T12:25:44.834Z</time></trkpt><trkpt lat="43.2357317" lon="12.99925"><ele>460.0</ele><time>2026-04-04T12:25:45.833Z</time></trkpt><trkpt lat="43.2356533" lon="12.9991833"><ele>460.00000000000006</ele><time>2026-04-04T12:25:46.833Z</time></trkpt><trkpt lat="43.23556" lon="12.99913"><ele>460.0</ele><time>2026-04-04T12:25:47.833Z</time></trkpt><trkpt lat="43.2354617" lon="12.999075"><ele>462.6</ele><time>2026-04-04T12:25:48.832Z</time></trkpt><trkpt lat="43.235355" lon="12.9990183"><ele>465.2</ele><time>2026-04-04T12:25:49.834Z</time></trkpt><trkpt lat="43.2352583" lon="12.99896"><ele>467.79999999999995</ele><time>2026-04-04T12:25:50.836Z</time></trkpt><trkpt lat="43.2351483" lon="12.9989083"><ele>470.4</ele><time>2026-04-04T12:25:51.834Z</time></trkpt><trkpt lat="43.2350433" lon="12.9988667"><ele>473.0</ele><time>2026-04-04T12:25:52.834Z</time></trkpt><trkpt lat="43.23494" lon="12.998845"><ele>473.0</ele><time>2026-04-04T12:25:53.832Z</time></trkpt><trkpt lat="43.2348483" lon="12.9988333"><ele>472.99999999999994</ele><time>2026-04-04T12:25:54.835Z</time></trkpt><trkpt lat="43.234745" lon="12.9988333"><ele>472.99999999999994</ele><time>2026-04-04T12:25:55.833Z</time></trkpt><trkpt lat="43.2346517" lon="12.998835"><ele>473.0</ele><time>2026-04-04T12:25:56.835Z</time></trkpt><trkpt lat="43.2345667" lon="12.99884"><ele>473.0</ele><time>2026-04-04T12:25:57.834Z</time></trkpt><trkpt lat="43.2344867" lon="12.9988417"><ele>472.66666666666663</ele><time>2026-04-04T12:25:58.834Z</time></trkpt><trkpt lat="43.234415" lon="12.9988333"><ele>472.3333333333333</ele><time>2026-04-04T12:25:59.834Z</time></trkpt><trkpt lat="43.2343417" lon="12.9988133"><ele>472.0</ele><time>2026-04-04T12:26:00.833Z</time></trkpt><trkpt lat="43.234265" lon="12.99877"><ele>471.66666666666663</ele><time>2026-04-04T12:26:01.832Z</time></trkpt><trkpt lat="43.234175" lon="12.9987367"><ele>471.3333333333333</ele><time>2026-04-04T12:26:02.835Z</time></trkpt><trkpt lat="43.2340833" lon="12.9987033"><ele>471.0</ele><time>2026-04-04T12:26:03.833Z</time></trkpt><trkpt lat="43.2339833" lon="12.9986733"><ele>471.25</ele><time>2026-04-04T12:26:04.833Z</time></trkpt><trkpt lat="43.2338683" lon="12.998645"><ele>471.5</ele><time>2026-04-04T12:26:05.833Z</time></trkpt><trkpt lat="43.23376" lon="12.9986083"><ele>471.75</ele><time>2026-04-04T12:26:06.833Z</time></trkpt><trkpt lat="43.233655" lon="12.9985717"><ele>472.0</ele><time>2026-04-04T12:26:07.833Z</time></trkpt><trkpt lat="43.2335467" lon="12.9985283"><ele>472.0</ele><time>2026-04-04T12:26:08.835Z</time></trkpt><trkpt lat="43.2334467" lon="12.9984683"><ele>472.0</ele><time>2026-04-04T12:26:09.834Z</time></trkpt><trkpt lat="43.23334" lon="12.99841"><ele>472.0</ele><time>2026-04-04T12:26:10.833Z</time></trkpt><trkpt lat="43.2332383" lon="12.9983383"><ele>472.0</ele><time>2026-04-04T12:26:11.833Z</time></trkpt><trkpt lat="43.233135" lon="12.9982817"><ele>472.40000000000003</ele><time>2026-04-04T12:26:12.835Z</time></trkpt><trkpt lat="43.2330383" lon="12.9981967"><ele>472.80000000000007</ele><time>2026-04-04T12:26:13.834Z</time></trkpt><trkpt lat="43.2329583" lon="12.9980983"><ele>473.2</ele><time>2026-04-04T12:26:14.835Z</time></trkpt><trkpt lat="43.2328833" lon="12.9980033"><ele>473.6</ele><time>2026-04-04T12:26:15.832Z</time></trkpt><trkpt lat="43.2328183" lon="12.99791"><ele>474.0</ele><time>2026-04-04T12:26:16.832Z</time></trkpt><trkpt lat="43.232765" lon="12.9978133"><ele>474.0</ele><time>2026-04-04T12:26:17.834Z</time></trkpt><trkpt lat="43.232715" lon="12.997715"><ele>474.0</ele><time>2026-04-04T12:26:18.833Z</time></trkpt><trkpt lat="43.2327067" lon="12.9975967"><ele>474.0</ele><time>2026-04-04T12:26:19.834Z</time></trkpt><trkpt lat="43.2327083" lon="12.9974667"><ele>474.0</ele><time>2026-04-04T12:26:20.835Z</time></trkpt><trkpt lat="43.232725" lon="12.9973167"><ele>474.0</ele><time>2026-04-04T12:26:21.833Z</time></trkpt><trkpt lat="43.2327283" lon="12.9971567"><ele>475.4</ele><time>2026-04-04T12:26:22.831Z</time></trkpt><trkpt lat="43.232715" lon="12.9970067"><ele>476.79999999999995</ele><time>2026-04-04T12:26:23.834Z</time></trkpt><trkpt lat="43.2326983" lon="12.9968633"><ele>478.20000000000005</ele><time>2026-04-04T12:26:24.833Z</time></trkpt><trkpt lat="43.2326733" lon="12.996745"><ele>479.6</ele><time>2026-04-04T12:26:25.832Z</time></trkpt><trkpt lat="43.2326467" lon="12.9966333"><ele>481.0</ele><time>2026-04-04T12:26:26.834Z</time></trkpt><trkpt lat="43.2326183" lon="12.9965283"><ele>482.0</ele><time>2026-04-04T12:26:27.833Z</time></trkpt><trkpt lat="43.2326" lon="12.99643"><ele>483.0</ele><time>2026-04-04T12:26:28.834Z</time></trkpt><trkpt lat="43.2325967" lon="12.9962767"><ele>484.0</ele><time>2026-04-04T12:26:30.833Z</time></trkpt><trkpt lat="43.2325717" lon="12.9961617"><ele>485.0</ele><time>2026-04-04T12:26:32.836Z</time></trkpt><trkpt lat="43.2325333" lon="12.9960383"><ele>486.0</ele><time>2026-04-04T12:26:34.834Z</time></trkpt><trkpt lat="43.2324767" lon="12.9958883"><ele>486.6666666666667</ele><time>2026-04-04T12:26:36.834Z</time></trkpt><trkpt lat="43.23244" lon="12.99581"><ele>487.33333333333337</ele><time>2026-04-04T12:26:37.836Z</time></trkpt><trkpt lat="43.2323983" lon="12.9957383"><ele>488.0</ele><time>2026-04-04T12:26:38.836Z</time></trkpt><trkpt lat="43.232355" lon="12.995665"><ele>488.6666666666667</ele><time>2026-04-04T12:26:39.839Z</time></trkpt><trkpt lat="43.2323133" lon="12.9955917"><ele>489.33333333333337</ele><time>2026-04-04T12:26:40.838Z</time></trkpt><trkpt lat="43.2322417" lon="12.99547"><ele>490.0</ele><time>2026-04-04T12:26:42.837Z</time></trkpt><trkpt lat="43.2321783" lon="12.9953533"><ele>490.50000000000006</ele><time>2026-04-04T12:26:44.835Z</time></trkpt><trkpt lat="43.2321117" lon="12.9952183"><ele>491.0</ele><time>2026-04-04T12:26:46.836Z</time></trkpt><trkpt lat="43.2320733" lon="12.9951467"><ele>491.5</ele><time>2026-04-04T12:26:47.837Z</time></trkpt><trkpt lat="43.2320333" lon="12.9950733"><ele>492.0</ele><time>2026-04-04T12:26:48.831Z</time></trkpt><trkpt lat="43.231995" lon="12.995"><ele>492.50000000000006</ele><time>2026-04-04T12:26:49.836Z</time></trkpt><trkpt lat="43.23195" lon="12.9949233"><ele>493.0</ele><time>2026-04-04T12:26:50.836Z</time></trkpt><trkpt lat="43.231905" lon="12.9948417"><ele>494.57142857142856</ele><time>2026-04-04T12:26:51.833Z</time></trkpt><trkpt lat="43.2318617" lon="12.99476"><ele>496.14285714285717</ele><time>2026-04-04T12:26:52.835Z</time></trkpt><trkpt lat="43.2318217" lon="12.994685"><ele>497.7142857142857</ele><time>2026-04-04T12:26:53.835Z</time></trkpt><trkpt lat="43.2317783" lon="12.9946067"><ele>499.2857142857143</ele><time>2026-04-04T12:26:54.834Z</time></trkpt><trkpt lat="43.231735" lon="12.9945233"><ele>500.8571428571429</ele><time>2026-04-04T12:26:55.834Z</time></trkpt><trkpt lat="43.2316933" lon="12.9944433"><ele>502.42857142857144</ele><time>2026-04-04T12:26:56.833Z</time></trkpt><trkpt lat="43.23165" lon="12.994375"><ele>504.0</ele><time>2026-04-04T12:26:57.834Z</time></trkpt><trkpt lat="43.231605" lon="12.99431"><ele>504.0</ele><time>2026-04-04T12:26:58.836Z</time></trkpt><trkpt lat="43.23156" lon="12.9942317"><ele>504.0</ele><time>2026-04-04T12:26:59.836Z</time></trkpt><trkpt lat="43.2315183" lon="12.9941383"><ele>504.0</ele><time>2026-04-04T12:27:00.837Z</time></trkpt><trkpt lat="43.2314667" lon="12.9940467"><ele>504.0</ele><time>2026-04-04T12:27:01.835Z</time></trkpt><trkpt lat="43.2314117" lon="12.9939683"><ele>504.0</ele><time>2026-04-04T12:27:02.837Z</time></trkpt><trkpt lat="43.2313567" lon="12.9938967"><ele>504.0</ele><time>2026-04-04T12:27:03.837Z</time></trkpt><trkpt lat="43.2313067" lon="12.9938233"><ele>506.0</ele><time>2026-04-04T12:27:04.835Z</time></trkpt><trkpt lat="43.2312567" lon="12.9937417"><ele>508.0</ele><time>2026-04-04T12:27:05.836Z</time></trkpt><trkpt lat="43.2312083" lon="12.9936517"><ele>510.0</ele><time>2026-04-04T12:27:06.833Z</time></trkpt><trkpt lat="43.2311567" lon="12.9935567"><ele>512.0</ele><time>2026-04-04T12:27:07.837Z</time></trkpt><trkpt lat="43.231105" lon="12.9934567"><ele>514.0</ele><time>2026-04-04T12:27:08.837Z</time></trkpt><trkpt lat="43.231045" lon="12.9933533"><ele>516.0</ele><time>2026-04-04T12:27:09.836Z</time></trkpt><trkpt lat="43.2309833" lon="12.9932533"><ele>517.1666666666666</ele><time>2026-04-04T12:27:10.835Z</time></trkpt><trkpt lat="43.2309183" lon="12.9931567"><ele>518.3333333333334</ele><time>2026-04-04T12:27:11.836Z</time></trkpt><trkpt lat="43.230855" lon="12.9930667"><ele>519.5</ele><time>2026-04-04T12:27:12.843Z</time></trkpt><trkpt lat="43.230795" lon="12.9929883"><ele>520.6666666666667</ele><time>2026-04-04T12:27:13.835Z</time></trkpt><trkpt lat="43.2307333" lon="12.9929267"><ele>521.8333333333334</ele><time>2026-04-04T12:27:14.837Z</time></trkpt><trkpt lat="43.23067" lon="12.9928717"><ele>523.0</ele><time>2026-04-04T12:27:15.835Z</time></trkpt><trkpt lat="43.2306033" lon="12.9928233"><ele>523.0</ele><time>2026-04-04T12:27:16.834Z</time></trkpt><trkpt lat="43.2305233" lon="12.99278"><ele>523.0</ele><time>2026-04-04T12:27:17.836Z</time></trkpt><trkpt lat="43.230435" lon="12.9927367"><ele>523.0</ele><time>2026-04-04T12:27:18.836Z</time></trkpt><trkpt lat="43.23035" lon="12.9926867"><ele>523.0</ele><time>2026-04-04T12:27:19.836Z</time></trkpt><trkpt lat="43.2302733" lon="12.992625"><ele>523.0</ele><time>2026-04-04T12:27:20.837Z</time></trkpt><trkpt lat="43.2302" lon="12.99254"><ele>524.75</ele><time>2026-04-04T12:27:21.836Z</time></trkpt><trkpt lat="43.230125" lon="12.9924433"><ele>526.5</ele><time>2026-04-04T12:27:22.838Z</time></trkpt><trkpt lat="43.230045" lon="12.9923283"><ele>528.25</ele><time>2026-04-04T12:27:23.84Z</time></trkpt><trkpt lat="43.2299617" lon="12.9922017"><ele>530.0</ele><time>2026-04-04T12:27:24.837Z</time></trkpt><trkpt lat="43.2298783" lon="12.9920683"><ele>530.0</ele><time>2026-04-04T12:27:25.835Z</time></trkpt><trkpt lat="43.2297917" lon="12.99193"><ele>530.0</ele><time>2026-04-04T12:27:26.836Z</time></trkpt><trkpt lat="43.2297083" lon="12.9917933"><ele>530.0</ele><time>2026-04-04T12:27:27.836Z</time></trkpt><trkpt lat="43.2296233" lon="12.9916583"><ele>530.0</ele><time>2026-04-04T12:27:28.835Z</time></trkpt><trkpt lat="43.229545" lon="12.99153"><ele>530.0</ele><time>2026-04-04T12:27:29.834Z</time></trkpt><trkpt lat="43.229465" lon="12.99141"><ele>530.0</ele><time>2026-04-04T12:27:30.836Z</time></trkpt><trkpt lat="43.22938" lon="12.9913017"><ele>530.0</ele><time>2026-04-04T12:27:31.834Z</time></trkpt><trkpt lat="43.2293017" lon="12.9911967"><ele>530.0</ele><time>2026-04-04T12:27:32.835Z</time></trkpt><trkpt lat="43.2292317" lon="12.9910817"><ele>530.0</ele><time>2026-04-04T12:27:33.835Z</time></trkpt><trkpt lat="43.2291633" lon="12.9909667"><ele>530.0</ele><time>2026-04-04T12:27:34.836Z</time></trkpt><trkpt lat="43.2290983" lon="12.9908633"><ele>530.0</ele><time>2026-04-04T12:27:35.834Z</time></trkpt><trkpt lat="43.229035" lon="12.9907633"><ele>530.0</ele><time>2026-04-04T12:27:36.835Z</time></trkpt><trkpt lat="43.228975" lon="12.99066"><ele>530.0</ele><time>2026-04-04T12:27:37.836Z</time></trkpt><trkpt lat="43.2289317" lon="12.99055"><ele>529.5</ele><time>2026-04-04T12:27:38.836Z</time></trkpt><trkpt lat="43.228905" lon="12.9904367"><ele>529.0</ele><time>2026-04-04T12:27:39.836Z</time></trkpt><trkpt lat="43.2288783" lon="12.9903283"><ele>528.5</ele><time>2026-04-04T12:27:40.836Z</time></trkpt><trkpt lat="43.22884" lon="12.9902217"><ele>528.0</ele><time>2026-04-04T12:27:41.833Z</time></trkpt><trkpt lat="43.228795" lon="12.99011"><ele>527.5</ele><time>2026-04-04T12:27:42.835Z</time></trkpt><trkpt lat="43.228755" lon="12.9899967"><ele>527.0</ele><time>2026-04-04T12:27:43.836Z</time></trkpt><trkpt lat="43.22872" lon="12.9899017"><ele>530.0</ele><time>2026-04-04T12:27:44.837Z</time></trkpt><trkpt lat="43.228685" lon="12.98977"><ele>533.0</ele><time>2026-04-04T12:27:46.833Z</time></trkpt><trkpt lat="43.2286267" lon="12.989645"><ele>536.0</ele><time>2026-04-04T12:27:48.835Z</time></trkpt><trkpt lat="43.2285217" lon="12.9895283"><ele>539.0</ele><time>2026-04-04T12:27:50.837Z</time></trkpt><trkpt lat="43.228455" lon="12.9894733"><ele>542.0</ele><time>2026-04-04T12:27:51.835Z</time></trkpt><trkpt lat="43.22838" lon="12.989425"><ele>542.0</ele><time>2026-04-04T12:27:52.834Z</time></trkpt><trkpt lat="43.2282933" lon="12.9893783"><ele>542.0</ele><time>2026-04-04T12:27:53.836Z</time></trkpt><trkpt lat="43.2281983" lon="12.9893333"><ele>542.0</ele><time>2026-04-04T12:27:54.836Z</time></trkpt><trkpt lat="43.2280917" lon="12.989285"><ele>542.0</ele><time>2026-04-04T12:27:55.837Z</time></trkpt><trkpt lat="43.2279783" lon="12.989225"><ele>542.0</ele><time>2026-04-04T12:27:56.837Z</time></trkpt><trkpt lat="43.2278683" lon="12.9891567"><ele>542.2</ele><time>2026-04-04T12:27:57.836Z</time></trkpt><trkpt lat="43.2277767" lon="12.989085"><ele>542.4000000000001</ele><time>2026-04-04T12:27:58.834Z</time></trkpt><trkpt lat="43.2277133" lon="12.9889917"><ele>542.5999999999999</ele><time>2026-04-04T12:27:59.835Z</time></trkpt><trkpt lat="43.2276617" lon="12.98887"><ele>542.8</ele><time>2026-04-04T12:28:00.835Z</time></trkpt><trkpt lat="43.2276267" lon="12.9887233"><ele>543.0</ele><time>2026-04-04T12:28:01.835Z</time></trkpt><trkpt lat="43.227595" lon="12.9885767"><ele>543.0</ele><time>2026-04-04T12:28:02.836Z</time></trkpt><trkpt lat="43.2275683" lon="12.988445"><ele>543.0</ele><time>2026-04-04T12:28:03.837Z</time></trkpt><trkpt lat="43.227545" lon="12.9883367"><ele>543.0</ele><time>2026-04-04T12:28:04.834Z</time></trkpt><trkpt lat="43.22753" lon="12.9882433"><ele>543.0</ele><time>2026-04-04T12:28:05.836Z</time></trkpt><trkpt lat="43.227505" lon="12.98809"><ele>543.0</ele><time>2026-04-04T12:28:07.835Z</time></trkpt><trkpt lat="43.2274867" lon="12.988"><ele>543.0</ele><time>2026-04-04T12:28:08.836Z</time></trkpt><trkpt lat="43.2274633" lon="12.9878883"><ele>543.5</ele><time>2026-04-04T12:28:09.833Z</time></trkpt><trkpt lat="43.22744" lon="12.987765"><ele>544.0</ele><time>2026-04-04T12:28:10.834Z</time></trkpt><trkpt lat="43.2274167" lon="12.98764"><ele>544.5</ele><time>2026-04-04T12:28:11.835Z</time></trkpt><trkpt lat="43.2273917" lon="12.9875267"><ele>545.0</ele><time>2026-04-04T12:28:12.833Z</time></trkpt><trkpt lat="43.22737" lon="12.98743"><ele>545.5</ele><time>2026-04-04T12:28:13.835Z</time></trkpt><trkpt lat="43.227355" lon="12.9873383"><ele>546.0</ele><time>2026-04-04T12:28:14.835Z</time></trkpt><trkpt lat="43.2273283" lon="12.9871867"><ele>546.1666666666666</ele><time>2026-04-04T12:28:16.835Z</time></trkpt><trkpt lat="43.2273183" lon="12.9870633"><ele>546.3333333333334</ele><time>2026-04-04T12:28:18.835Z</time></trkpt><trkpt lat="43.2273167" lon="12.9869567"><ele>546.5</ele><time>2026-04-04T12:28:20.835Z</time></trkpt><trkpt lat="43.2273083" lon="12.9868433"><ele>546.6666666666667</ele><time>2026-04-04T12:28:22.834Z</time></trkpt><trkpt lat="43.2273017" lon="12.98674"><ele>546.8333333333334</ele><time>2026-04-04T12:28:24.835Z</time></trkpt><trkpt lat="43.22726" lon="12.9866267"><ele>547.0</ele><time>2026-04-04T12:28:27.836Z</time></trkpt><trkpt lat="43.2272383" lon="12.986505"><ele>544.5</ele><time>2026-04-04T12:28:29.837Z</time></trkpt><trkpt lat="43.2272383" lon="12.9864067"><ele>542.0</ele><time>2026-04-04T12:28:32.835Z</time></trkpt><trkpt lat="43.2272717" lon="12.9863333"><ele>539.5</ele><time>2026-04-04T12:28:34.835Z</time></trkpt><trkpt lat="43.22727" lon="12.9862"><ele>537.0</ele><time>2026-04-04T12:28:36.835Z</time></trkpt><trkpt lat="43.2272417" lon="12.9861"><ele>534.5</ele><time>2026-04-04T12:28:37.834Z</time></trkpt><trkpt lat="43.2271967" lon="12.9859983"><ele>532.0</ele><time>2026-04-04T12:28:38.835Z</time></trkpt><trkpt lat="43.22714" lon="12.98589"><ele>533.0</ele><time>2026-04-04T12:28:39.833Z</time></trkpt><trkpt lat="43.2270733" lon="12.98577"><ele>534.0</ele><time>2026-04-04T12:28:40.835Z</time></trkpt><trkpt lat="43.2269967" lon="12.9856483"><ele>535.0</ele><time>2026-04-04T12:28:41.836Z</time></trkpt><trkpt lat="43.22691" lon="12.9855317"><ele>536.0</ele><time>2026-04-04T12:28:42.834Z</time></trkpt><trkpt lat="43.226825" lon="12.98542"><ele>536.0</ele><time>2026-04-04T12:28:43.832Z</time></trkpt><trkpt lat="43.2267433" lon="12.9853133"><ele>536.0</ele><time>2026-04-04T12:28:44.836Z</time></trkpt><trkpt lat="43.2266617" lon="12.9852117"><ele>536.0</ele><time>2026-04-04T12:28:45.832Z</time></trkpt><trkpt lat="43.2265883" lon="12.98513"><ele>536.0</ele><time>2026-04-04T12:28:46.835Z</time></trkpt><trkpt lat="43.2265167" lon="12.9850783"><ele>536.0</ele><time>2026-04-04T12:28:47.836Z</time></trkpt><trkpt lat="43.22645" lon="12.98504"><ele>536.8333333333333</ele><time>2026-04-04T12:28:48.832Z</time></trkpt><trkpt lat="43.2263733" lon="12.9849817"><ele>537.6666666666666</ele><time>2026-04-04T12:28:50.836Z</time></trkpt><trkpt lat="43.2263133" lon="12.98493"><ele>538.5</ele><time>2026-04-04T12:28:53.836Z</time></trkpt><trkpt lat="43.22623" lon="12.9849233"><ele>539.3333333333334</ele><time>2026-04-04T12:29:18.836Z</time></trkpt><trkpt lat="43.226165" lon="12.984925"><ele>540.1666666666667</ele><time>2026-04-04T12:29:19.834Z</time></trkpt><trkpt lat="43.2260933" lon="12.98493"><ele>541.0</ele><time>2026-04-04T12:29:20.836Z</time></trkpt><trkpt lat="43.22601" lon="12.984935"><ele>541.0</ele><time>2026-04-04T12:29:21.835Z</time></trkpt><trkpt lat="43.2259117" lon="12.9849467"><ele>541.0</ele><time>2026-04-04T12:29:22.836Z</time></trkpt><trkpt lat="43.2258" lon="12.98496"><ele>541.0</ele><time>2026-04-04T12:29:23.835Z</time></trkpt><trkpt lat="43.2256717" lon="12.98497"><ele>541.0</ele><time>2026-04-04T12:29:24.833Z</time></trkpt><trkpt lat="43.2255433" lon="12.9849617"><ele>543.0</ele><time>2026-04-04T12:29:25.83Z</time></trkpt><trkpt lat="43.2254117" lon="12.984945"><ele>545.0</ele><time>2026-04-04T12:29:26.835Z</time></trkpt><trkpt lat="43.225275" lon="12.9849367"><ele>547.0</ele><time>2026-04-04T12:29:27.833Z</time></trkpt><trkpt lat="43.2251417" lon="12.984935"><ele>549.0</ele><time>2026-04-04T12:29:28.833Z</time></trkpt><trkpt lat="43.2250167" lon="12.984935"><ele>549.0</ele><time>2026-04-04T12:29:29.835Z</time></trkpt><trkpt lat="43.22489" lon="12.9849367"><ele>549.0</ele><time>2026-04-04T12:29:30.835Z</time></trkpt><trkpt lat="43.2247733" lon="12.9849217"><ele>549.0</ele><time>2026-04-04T12:29:31.834Z</time></trkpt><trkpt lat="43.2246683" lon="12.98488"><ele>549.0</ele><time>2026-04-04T12:29:32.836Z</time></trkpt><trkpt lat="43.22457" lon="12.98483"><ele>549.2</ele><time>2026-04-04T12:29:33.834Z</time></trkpt><trkpt lat="43.22447" lon="12.9848017"><ele>549.4</ele><time>2026-04-04T12:29:34.834Z</time></trkpt><trkpt lat="43.2243733" lon="12.9847783"><ele>549.6</ele><time>2026-04-04T12:29:35.834Z</time></trkpt><trkpt lat="43.2242783" lon="12.98473"><ele>549.8</ele><time>2026-04-04T12:29:36.833Z</time></trkpt><trkpt lat="43.2241817" lon="12.9846817"><ele>550.0</ele><time>2026-04-04T12:29:37.835Z</time></trkpt><trkpt lat="43.2240817" lon="12.9846667"><ele>549.25</ele><time>2026-04-04T12:29:38.836Z</time></trkpt><trkpt lat="43.2239717" lon="12.9846767"><ele>548.5</ele><time>2026-04-04T12:29:39.833Z</time></trkpt><trkpt lat="43.2238567" lon="12.9846733"><ele>547.75</ele><time>2026-04-04T12:29:40.835Z</time></trkpt><trkpt lat="43.2237383" lon="12.984635"><ele>547.0</ele><time>2026-04-04T12:29:41.833Z</time></trkpt><trkpt lat="43.223625" lon="12.9845733"><ele>547.0</ele><time>2026-04-04T12:29:42.836Z</time></trkpt><trkpt lat="43.2235267" lon="12.9845"><ele>547.0</ele><time>2026-04-04T12:29:43.834Z</time></trkpt><trkpt lat="43.2234433" lon="12.984425"><ele>547.0</ele><time>2026-04-04T12:29:44.835Z</time></trkpt><trkpt lat="43.2233767" lon="12.9843733"><ele>547.0</ele><time>2026-04-04T12:29:45.834Z</time></trkpt><trkpt lat="43.22328" lon="12.9843733"><ele>547.0</ele><time>2026-04-04T12:29:47.835Z</time></trkpt><trkpt lat="43.2231867" lon="12.98446"><ele>547.8000000000001</ele><time>2026-04-04T12:29:49.836Z</time></trkpt><trkpt lat="43.2231383" lon="12.9845167"><ele>548.6</ele><time>2026-04-04T12:29:50.835Z</time></trkpt><trkpt lat="43.2230033" lon="12.984545"><ele>549.4000000000001</ele><time>2026-04-04T12:29:52.835Z</time></trkpt><trkpt lat="43.2229017" lon="12.984535"><ele>550.2</ele><time>2026-04-04T12:29:53.835Z</time></trkpt><trkpt lat="43.222765" lon="12.9845267"><ele>551.0</ele><time>2026-04-04T12:29:54.835Z</time></trkpt><trkpt lat="43.22262" lon="12.9845317"><ele>551.0</ele><time>2026-04-04T12:29:55.833Z</time></trkpt><trkpt lat="43.2224717" lon="12.9845483"><ele>551.0</ele><time>2026-04-04T12:29:56.836Z</time></trkpt><trkpt lat="43.2223117" lon="12.9845717"><ele>551.0</ele><time>2026-04-04T12:29:57.833Z</time></trkpt><trkpt lat="43.222145" lon="12.984585"><ele>552.0</ele><time>2026-04-04T12:29:58.834Z</time></trkpt><trkpt lat="43.22198" lon="12.9845767"><ele>553.0</ele><time>2026-04-04T12:29:59.836Z</time></trkpt><trkpt lat="43.2218233" lon="12.98457"><ele>554.0</ele><time>2026-04-04T12:30:00.834Z</time></trkpt><trkpt lat="43.2216817" lon="12.9845817"><ele>554.0</ele><time>2026-04-04T12:30:01.836Z</time></trkpt><trkpt lat="43.2215483" lon="12.9846183"><ele>554.0</ele><time>2026-04-04T12:30:02.837Z</time></trkpt><trkpt lat="43.2214283" lon="12.9846683"><ele>554.0</ele><time>2026-04-04T12:30:03.835Z</time></trkpt><trkpt lat="43.2213233" lon="12.9847117"><ele>554.0</ele><time>2026-04-04T12:30:04.835Z</time></trkpt><trkpt lat="43.2212233" lon="12.9847533"><ele>553.4</ele><time>2026-04-04T12:30:05.836Z</time></trkpt><trkpt lat="43.2211217" lon="12.9847867"><ele>552.8</ele><time>2026-04-04T12:30:06.836Z</time></trkpt><trkpt lat="43.2210233" lon="12.9847983"><ele>552.2</ele><time>2026-04-04T12:30:07.837Z</time></trkpt><trkpt lat="43.2209167" lon="12.9847867"><ele>551.6</ele><time>2026-04-04T12:30:08.836Z</time></trkpt><trkpt lat="43.22081" lon="12.98476"><ele>551.0</ele><time>2026-04-04T12:30:09.836Z</time></trkpt><trkpt lat="43.22071" lon="12.98474"><ele>548.75</ele><time>2026-04-04T12:30:10.835Z</time></trkpt><trkpt lat="43.220605" lon="12.9847333"><ele>546.5</ele><time>2026-04-04T12:30:11.834Z</time></trkpt><trkpt lat="43.2204833" lon="12.9847233"><ele>544.25</ele><time>2026-04-04T12:30:12.833Z</time></trkpt><trkpt lat="43.2203567" lon="12.9847"><ele>542.0</ele><time>2026-04-04T12:30:13.834Z</time></trkpt><trkpt lat="43.220235" lon="12.9846783"><ele>542.0</ele><time>2026-04-04T12:30:14.836Z</time></trkpt><trkpt lat="43.22012" lon="12.984655"><ele>542.0</ele><time>2026-04-04T12:30:15.833Z</time></trkpt><trkpt lat="43.220015" lon="12.984625"><ele>542.0</ele><time>2026-04-04T12:30:16.834Z</time></trkpt><trkpt lat="43.219915" lon="12.9845983"><ele>542.0</ele><time>2026-04-04T12:30:17.834Z</time></trkpt><trkpt lat="43.2198283" lon="12.9845767"><ele>542.0</ele><time>2026-04-04T12:30:18.833Z</time></trkpt><trkpt lat="43.2197517" lon="12.984545"><ele>541.5714285714286</ele><time>2026-04-04T12:30:19.833Z</time></trkpt><trkpt lat="43.21969" lon="12.9845067"><ele>541.1428571428571</ele><time>2026-04-04T12:30:20.835Z</time></trkpt><trkpt lat="43.2196317" lon="12.9844717"><ele>540.7142857142858</ele><time>2026-04-04T12:30:21.834Z</time></trkpt><trkpt lat="43.2195667" lon="12.984445"><ele>540.2857142857142</ele><time>2026-04-04T12:30:22.833Z</time></trkpt><trkpt lat="43.21949" lon="12.9844283"><ele>539.8571428571429</ele><time>2026-04-04T12:30:23.833Z</time></trkpt><trkpt lat="43.2194067" lon="12.9844283"><ele>539.4285714285714</ele><time>2026-04-04T12:30:24.835Z</time></trkpt><trkpt lat="43.2193183" lon="12.9844383"><ele>539.0</ele><time>2026-04-04T12:30:25.833Z</time></trkpt><trkpt lat="43.21923" lon="12.9844517"><ele>539.0</ele><time>2026-04-04T12:30:26.835Z</time></trkpt><trkpt lat="43.2191483" lon="12.984455"><ele>539.0</ele><time>2026-04-04T12:30:27.835Z</time></trkpt><trkpt lat="43.2190767" lon="12.98445"><ele>539.0</ele><time>2026-04-04T12:30:28.836Z</time></trkpt><trkpt lat="43.21901" lon="12.9844367"><ele>539.0</ele><time>2026-04-04T12:30:29.836Z</time></trkpt><trkpt lat="43.21895" lon="12.98441"><ele>539.0</ele><time>2026-04-04T12:30:30.836Z</time></trkpt><trkpt lat="43.21889" lon="12.9843767"><ele>539.0</ele><time>2026-04-04T12:30:31.835Z</time></trkpt><trkpt lat="43.2188233" lon="12.9843333"><ele>539.0</ele><time>2026-04-04T12:30:32.837Z</time></trkpt><trkpt lat="43.2187517" lon="12.9842733"><ele>539.0</ele><time>2026-04-04T12:30:33.834Z</time></trkpt><trkpt lat="43.218665" lon="12.9842133"><ele>539.0</ele><time>2026-04-04T12:30:34.837Z</time></trkpt><trkpt lat="43.21857" lon="12.98415"><ele>539.0</ele><time>2026-04-04T12:30:35.835Z</time></trkpt><trkpt lat="43.218475" lon="12.984065"><ele>539.0</ele><time>2026-04-04T12:30:36.831Z</time></trkpt><trkpt lat="43.21839" lon="12.98395"><ele>539.0</ele><time>2026-04-04T12:30:37.834Z</time></trkpt><trkpt lat="43.21831" lon="12.983805"><ele>539.0</ele><time>2026-04-04T12:30:38.835Z</time></trkpt><trkpt lat="43.2182383" lon="12.9836667"><ele>539.0</ele><time>2026-04-04T12:30:39.835Z</time></trkpt><trkpt lat="43.21818" lon="12.9835433"><ele>539.0</ele><time>2026-04-04T12:30:40.834Z</time></trkpt><trkpt lat="43.2181317" lon="12.98345"><ele>539.0</ele><time>2026-04-04T12:30:41.835Z</time></trkpt><trkpt lat="43.2180917" lon="12.9833717"><ele>539.0</ele><time>2026-04-04T12:30:42.835Z</time></trkpt><trkpt lat="43.2180217" lon="12.98326"><ele>540.2</ele><time>2026-04-04T12:30:44.836Z</time></trkpt><trkpt lat="43.2179483" lon="12.9831717"><ele>541.4</ele><time>2026-04-04T12:30:46.831Z</time></trkpt><trkpt lat="43.2179167" lon="12.9830783"><ele>542.6</ele><time>2026-04-04T12:30:48.834Z</time></trkpt><trkpt lat="43.2179" lon="12.9829667"><ele>543.8</ele><time>2026-04-04T12:30:50.836Z</time></trkpt><trkpt lat="43.2178567" lon="12.9828467"><ele>545.0</ele><time>2026-04-04T12:30:52.834Z</time></trkpt><trkpt lat="43.2177683" lon="12.98275"><ele>545.0</ele><time>2026-04-04T12:30:54.833Z</time></trkpt><trkpt lat="43.2177017" lon="12.9827"><ele>545.0</ele><time>2026-04-04T12:30:55.831Z</time></trkpt><trkpt lat="43.217625" lon="12.98264"><ele>545.0</ele><time>2026-04-04T12:30:56.834Z</time></trkpt><trkpt lat="43.2175483" lon="12.9825783"><ele>545.0</ele><time>2026-04-04T12:30:57.833Z</time></trkpt><trkpt lat="43.2174833" lon="12.9825183"><ele>545.0</ele><time>2026-04-04T12:30:58.829Z</time></trkpt><trkpt lat="43.2174067" lon="12.9824833"><ele>545.0</ele><time>2026-04-04T12:30:59.835Z</time></trkpt><trkpt lat="43.2173417" lon="12.98245"><ele>545.0</ele><time>2026-04-04T12:31:00.835Z</time></trkpt><trkpt lat="43.2172417" lon="12.9825133"><ele>545.0</ele><time>2026-04-04T12:31:02.836Z</time></trkpt><trkpt lat="43.217145" lon="12.9825883"><ele>545.0</ele><time>2026-04-04T12:31:04.835Z</time></trkpt><trkpt lat="43.217065" lon="12.9825533"><ele>545.0</ele><time>2026-04-04T12:31:06.836Z</time></trkpt><trkpt lat="43.2170383" lon="12.9824467"><ele>545.0</ele><time>2026-04-04T12:31:08.836Z</time></trkpt><trkpt lat="43.2169433" lon="12.9823467"><ele>548.1666666666666</ele><time>2026-04-04T12:31:10.834Z</time></trkpt><trkpt lat="43.2168633" lon="12.9823083"><ele>551.3333333333333</ele><time>2026-04-04T12:31:11.835Z</time></trkpt><trkpt lat="43.2167883" lon="12.9822733"><ele>554.5</ele><time>2026-04-04T12:31:12.834Z</time></trkpt><trkpt lat="43.2167283" lon="12.9822367"><ele>557.6666666666666</ele><time>2026-04-04T12:31:13.835Z</time></trkpt><trkpt lat="43.2166483" lon="12.9821"><ele>560.8333333333334</ele><time>2026-04-04T12:31:15.836Z</time></trkpt><trkpt lat="43.21661" lon="12.9820217"><ele>564.0</ele><time>2026-04-04T12:31:16.834Z</time></trkpt><trkpt lat="43.2165667" lon="12.981935"><ele>564.0</ele><time>2026-04-04T12:31:17.834Z</time></trkpt><trkpt lat="43.2165217" lon="12.981845"><ele>564.0</ele><time>2026-04-04T12:31:18.834Z</time></trkpt><trkpt lat="43.216485" lon="12.9817683"><ele>564.0</ele><time>2026-04-04T12:31:19.832Z</time></trkpt><trkpt lat="43.2164533" lon="12.9816933"><ele>564.0</ele><time>2026-04-04T12:31:20.836Z</time></trkpt><trkpt lat="43.2164083" lon="12.9815683"><ele>564.0</ele><time>2026-04-04T12:31:22.835Z</time></trkpt><trkpt lat="43.2163683" lon="12.9814417"><ele>564.0</ele><time>2026-04-04T12:31:24.835Z</time></trkpt><trkpt lat="43.2163533" lon="12.98132"><ele>566.5</ele><time>2026-04-04T12:31:26.834Z</time></trkpt><trkpt lat="43.2162933" lon="12.9812267"><ele>569.0</ele><time>2026-04-04T12:31:28.836Z</time></trkpt><trkpt lat="43.2162233" lon="12.9811417"><ele>571.5</ele><time>2026-04-04T12:31:30.834Z</time></trkpt><trkpt lat="43.216195" lon="12.9810367"><ele>574.0</ele><time>2026-04-04T12:31:32.836Z</time></trkpt><trkpt lat="43.2161467" lon="12.98092"><ele>576.5</ele><time>2026-04-04T12:31:34.833Z</time></trkpt><trkpt lat="43.2160833" lon="12.98087"><ele>579.0</ele><time>2026-04-04T12:31:35.834Z</time></trkpt><trkpt lat="43.21602" lon="12.98084"><ele>582.8333333333334</ele><time>2026-04-04T12:31:36.835Z</time></trkpt><trkpt lat="43.2159233" lon="12.980765"><ele>586.6666666666666</ele><time>2026-04-04T12:31:38.838Z</time></trkpt><trkpt lat="43.215985" lon="12.9807433"><ele>590.5</ele><time>2026-04-04T12:31:42.833Z</time></trkpt><trkpt lat="43.21605" lon="12.9806633"><ele>594.3333333333333</ele><time>2026-04-04T12:31:44.835Z</time></trkpt><trkpt lat="43.2160983" lon="12.9805967"><ele>598.1666666666666</ele><time>2026-04-04T12:31:46.835Z</time></trkpt><trkpt lat="43.21617" lon="12.98052"><ele>602.0</ele><time>2026-04-04T12:31:48.834Z</time></trkpt><trkpt lat="43.2162867" lon="12.9804733"><ele>602.0</ele><time>2026-04-04T12:31:50.834Z</time></trkpt><trkpt lat="43.216355" lon="12.9804567"><ele>602.0</ele><time>2026-04-04T12:31:51.834Z</time></trkpt><trkpt lat="43.216435" lon="12.980435"><ele>602.0</ele><time>2026-04-04T12:31:52.834Z</time></trkpt><trkpt lat="43.2165083" lon="12.980415"><ele>602.0</ele><time>2026-04-04T12:31:53.833Z</time></trkpt><trkpt lat="43.2165783" lon="12.9803967"><ele>602.0</ele><time>2026-04-04T12:31:54.835Z</time></trkpt><trkpt lat="43.21664" lon="12.9803667"><ele>602.0</ele><time>2026-04-04T12:31:55.834Z</time></trkpt><trkpt lat="43.216735" lon="12.9802617"><ele>603.0</ele><time>2026-04-04T12:31:57.834Z</time></trkpt><trkpt lat="43.2167733" lon="12.980115"><ele>604.0</ele><time>2026-04-04T12:31:59.835Z</time></trkpt><trkpt lat="43.2167667" lon="12.980015"><ele>605.0</ele><time>2026-04-04T12:32:00.835Z</time></trkpt><trkpt lat="43.2167467" lon="12.9799267"><ele>606.0</ele><time>2026-04-04T12:32:01.835Z</time></trkpt><trkpt lat="43.2167317" lon="12.9797633"><ele>607.0</ele><time>2026-04-04T12:32:03.836Z</time></trkpt><trkpt lat="43.21674" lon="12.9796633"><ele>608.0</ele><time>2026-04-04T12:32:04.835Z</time></trkpt><trkpt lat="43.216735" lon="12.9795583"><ele>612.0</ele><time>2026-04-04T12:32:05.836Z</time></trkpt><trkpt lat="43.2167433" lon="12.979465"><ele>616.0</ele><time>2026-04-04T12:32:06.835Z</time></trkpt><trkpt lat="43.216755" lon="12.9793767"><ele>620.0</ele><time>2026-04-04T12:32:07.835Z</time></trkpt><trkpt lat="43.216765" lon="12.979285"><ele>624.0</ele><time>2026-04-04T12:32:08.836Z</time></trkpt><trkpt lat="43.21677" lon="12.9791883"><ele>628.0</ele><time>2026-04-04T12:32:09.835Z</time></trkpt><trkpt lat="43.2168117" lon="12.97903"><ele>632.0</ele><time>2026-04-04T12:32:11.833Z</time></trkpt><trkpt lat="43.21684" lon="12.9788733"><ele>635.5</ele><time>2026-04-04T12:32:13.834Z</time></trkpt><trkpt lat="43.216845" lon="12.978775"><ele>639.0</ele><time>2026-04-04T12:32:14.836Z</time></trkpt><trkpt lat="43.2168567" lon="12.9786717"><ele>642.5</ele><time>2026-04-04T12:32:15.833Z</time></trkpt><trkpt lat="43.2168733" lon="12.9785633"><ele>646.0</ele><time>2026-04-04T12:32:16.835Z</time></trkpt><trkpt lat="43.21688" lon="12.97847"><ele>649.5</ele><time>2026-04-04T12:32:17.833Z</time></trkpt><trkpt lat="43.216865" lon="12.978345"><ele>653.0</ele><time>2026-04-04T12:32:19.833Z</time></trkpt><trkpt lat="43.2168317" lon="12.9782567"><ele>657.0</ele><time>2026-04-04T12:32:22.833Z</time></trkpt><trkpt lat="43.2168933" lon="12.97818"><ele>661.0</ele><time>2026-04-04T12:32:25.835Z</time></trkpt><trkpt lat="43.2169317" lon="12.9780783"><ele>665.0</ele><time>2026-04-04T12:32:26.838Z</time></trkpt><trkpt lat="43.2169817" lon="12.977955"><ele>669.0</ele><time>2026-04-04T12:32:27.835Z</time></trkpt><trkpt lat="43.2170317" lon="12.9778133"><ele>673.0</ele><time>2026-04-04T12:32:28.835Z</time></trkpt><trkpt lat="43.2170583" lon="12.9776767"><ele>673.0</ele><time>2026-04-04T12:32:29.836Z</time></trkpt><trkpt lat="43.21707" lon="12.9775533"><ele>673.0</ele><time>2026-04-04T12:32:30.835Z</time></trkpt><trkpt lat="43.2170683" lon="12.9774283"><ele>673.0</ele><time>2026-04-04T12:32:31.835Z</time></trkpt><trkpt lat="43.217075" lon="12.9773133"><ele>673.0</ele><time>2026-04-04T12:32:32.834Z</time></trkpt><trkpt lat="43.2171017" lon="12.9772083"><ele>673.0</ele><time>2026-04-04T12:32:33.835Z</time></trkpt><trkpt lat="43.2171317" lon="12.9771083"><ele>673.0</ele><time>2026-04-04T12:32:34.835Z</time></trkpt><trkpt lat="43.217155" lon="12.9770067"><ele>675.6666666666667</ele><time>2026-04-04T12:32:35.833Z</time></trkpt><trkpt lat="43.21717" lon="12.9769217"><ele>678.3333333333334</ele><time>2026-04-04T12:32:36.836Z</time></trkpt><trkpt lat="43.2171617" lon="12.97678"><ele>681.0</ele><time>2026-04-04T12:32:38.835Z</time></trkpt><trkpt lat="43.217135" lon="12.9766483"><ele>683.6666666666666</ele><time>2026-04-04T12:32:40.835Z</time></trkpt><trkpt lat="43.2170883" lon="12.9765267"><ele>686.3333333333333</ele><time>2026-04-04T12:35:43.834Z</time></trkpt><trkpt lat="43.2170667" lon="12.9764383"><ele>689.0</ele><time>2026-04-04T12:35:44.835Z</time></trkpt><trkpt lat="43.2170383" lon="12.9763433"><ele>690.1666666666666</ele><time>2026-04-04T12:35:45.836Z</time></trkpt><trkpt lat="43.2170067" lon="12.9762567"><ele>691.3333333333333</ele><time>2026-04-04T12:35:46.834Z</time></trkpt><trkpt lat="43.216975" lon="12.9761617"><ele>692.5</ele><time>2026-04-04T12:35:47.836Z</time></trkpt><trkpt lat="43.2169417" lon="12.976055"><ele>693.6666666666666</ele><time>2026-04-04T12:35:48.836Z</time></trkpt><trkpt lat="43.2168967" lon="12.9759383"><ele>694.8333333333334</ele><time>2026-04-04T12:35:49.834Z</time></trkpt><trkpt lat="43.2168567" lon="12.9758083"><ele>696.0</ele><time>2026-04-04T12:35:50.833Z</time></trkpt><trkpt lat="43.2168217" lon="12.9756767"><ele>696.0</ele><time>2026-04-04T12:35:51.833Z</time></trkpt><trkpt lat="43.2167817" lon="12.9755467"><ele>696.0</ele><time>2026-04-04T12:35:52.834Z</time></trkpt><trkpt lat="43.2167333" lon="12.9754367"><ele>696.0</ele><time>2026-04-04T12:35:53.834Z</time></trkpt><trkpt lat="43.2166617" lon="12.9753517"><ele>696.0</ele><time>2026-04-04T12:35:54.83Z</time></trkpt><trkpt lat="43.2165717" lon="12.9752733"><ele>696.0</ele><time>2026-04-04T12:35:55.835Z</time></trkpt><trkpt lat="43.2164733" lon="12.9751783"><ele>699.5</ele><time>2026-04-04T12:35:56.833Z</time></trkpt><trkpt lat="43.21636" lon="12.975065"><ele>703.0</ele><time>2026-04-04T12:35:57.834Z</time></trkpt><trkpt lat="43.2162417" lon="12.974945"><ele>706.5</ele><time>2026-04-04T12:35:58.833Z</time></trkpt><trkpt lat="43.2161217" lon="12.974825"><ele>710.0</ele><time>2026-04-04T12:35:59.834Z</time></trkpt><trkpt lat="43.2159983" lon="12.9747067"><ele>710.0</ele><time>2026-04-04T12:36:00.839Z</time></trkpt><trkpt lat="43.2158617" lon="12.9745983"><ele>710.0</ele><time>2026-04-04T12:36:01.832Z</time></trkpt><trkpt lat="43.21572" lon="12.9744917"><ele>710.0</ele><time>2026-04-04T12:36:02.835Z</time></trkpt><trkpt lat="43.2155867" lon="12.9743833"><ele>710.25</ele><time>2026-04-04T12:36:03.835Z</time></trkpt><trkpt lat="43.2154633" lon="12.9742867"><ele>710.5</ele><time>2026-04-04T12:36:04.833Z</time></trkpt><trkpt lat="43.2153433" lon="12.9742117"><ele>710.75</ele><time>2026-04-04T12:36:05.835Z</time></trkpt><trkpt lat="43.2152267" lon="12.9741517"><ele>711.0</ele><time>2026-04-04T12:36:06.834Z</time></trkpt><trkpt lat="43.215115" lon="12.9741033"><ele>711.0</ele><time>2026-04-04T12:36:07.831Z</time></trkpt><trkpt lat="43.2150167" lon="12.9740383"><ele>711.0</ele><time>2026-04-04T12:36:08.836Z</time></trkpt><trkpt lat="43.2149083" lon="12.9739733"><ele>711.0</ele><time>2026-04-04T12:36:09.836Z</time></trkpt><trkpt lat="43.2148067" lon="12.9739083"><ele>711.0</ele><time>2026-04-04T12:36:10.834Z</time></trkpt><trkpt lat="43.2147083" lon="12.97385"><ele>711.0</ele><time>2026-04-04T12:36:11.835Z</time></trkpt><trkpt lat="43.2146183" lon="12.9737883"><ele>717.1999999999999</ele><time>2026-04-04T12:36:12.835Z</time></trkpt><trkpt lat="43.2145367" lon="12.9737183"><ele>723.4</ele><time>2026-04-04T12:36:13.832Z</time></trkpt><trkpt lat="43.21446" lon="12.9736383"><ele>729.6</ele><time>2026-04-04T12:36:14.834Z</time></trkpt><trkpt lat="43.214375" lon="12.973555"><ele>735.8</ele><time>2026-04-04T12:36:15.834Z</time></trkpt><trkpt lat="43.2142867" lon="12.9734767"><ele>742.0</ele><time>2026-04-04T12:36:16.833Z</time></trkpt><trkpt lat="43.2142" lon="12.9734133"><ele>742.0</ele><time>2026-04-04T12:36:17.835Z</time></trkpt><trkpt lat="43.2141383" lon="12.973375"><ele>742.0</ele><time>2026-04-04T12:36:18.835Z</time></trkpt><trkpt lat="43.2140583" lon="12.9733"><ele>742.0</ele><time>2026-04-04T12:36:20.834Z</time></trkpt><trkpt lat="43.2140867" lon="12.9731567"><ele>742.0</ele><time>2026-04-04T12:36:22.833Z</time></trkpt><trkpt lat="43.2141033" lon="12.9730633"><ele>742.0</ele><time>2026-04-04T12:36:23.833Z</time></trkpt><trkpt lat="43.21411" lon="12.9729517"><ele>742.0</ele><time>2026-04-04T12:36:24.832Z</time></trkpt><trkpt lat="43.21411" lon="12.9728283"><ele>740.8333333333334</ele><time>2026-04-04T12:36:25.834Z</time></trkpt><trkpt lat="43.2141" lon="12.9727033"><ele>739.6666666666667</ele><time>2026-04-04T12:36:26.834Z</time></trkpt><trkpt lat="43.21408" lon="12.972585"><ele>738.5</ele><time>2026-04-04T12:36:27.833Z</time></trkpt><trkpt lat="43.2140483" lon="12.9724783"><ele>737.3333333333334</ele><time>2026-04-04T12:36:28.833Z</time></trkpt><trkpt lat="43.21401" lon="12.9723867"><ele>736.1666666666666</ele><time>2026-04-04T12:36:29.833Z</time></trkpt><trkpt lat="43.2139667" lon="12.9723083"><ele>735.0</ele><time>2026-04-04T12:36:30.836Z</time></trkpt><trkpt lat="43.213905" lon="12.972255"><ele>741.0</ele><time>2026-04-04T12:36:31.833Z</time></trkpt><trkpt lat="43.2138433" lon="12.9721883"><ele>747.0</ele><time>2026-04-04T12:36:32.834Z</time></trkpt><trkpt lat="43.2137717" lon="12.9721133"><ele>753.0</ele><time>2026-04-04T12:36:33.834Z</time></trkpt><trkpt lat="43.2137183" lon="12.9720483"><ele>759.0</ele><time>2026-04-04T12:36:34.832Z</time></trkpt><trkpt lat="43.2136633" lon="12.9719683"><ele>765.0</ele><time>2026-04-04T12:36:36.828Z</time></trkpt><trkpt lat="43.2136283" lon="12.97186"><ele>771.0</ele><time>2026-04-04T12:36:38.829Z</time></trkpt><trkpt lat="43.213635" lon="12.9717133"><ele>772.6666666666666</ele><time>2026-04-04T12:36:40.833Z</time></trkpt><trkpt lat="43.2136333" lon="12.9716217"><ele>774.3333333333333</ele><time>2026-04-04T12:36:41.834Z</time></trkpt><trkpt lat="43.2136167" lon="12.97152"><ele>776.0</ele><time>2026-04-04T12:36:42.828Z</time></trkpt><trkpt lat="43.2135767" lon="12.97142"><ele>777.6666666666666</ele><time>2026-04-04T12:36:43.834Z</time></trkpt><trkpt lat="43.213525" lon="12.971315"><ele>779.3333333333333</ele><time>2026-04-04T12:36:44.828Z</time></trkpt><trkpt lat="43.213465" lon="12.9712367"><ele>781.0</ele><time>2026-04-04T12:36:45.834Z</time></trkpt><trkpt lat="43.2133983" lon="12.9711567"><ele>780.9999999999999</ele><time>2026-04-04T12:36:46.83Z</time></trkpt><trkpt lat="43.2133267" lon="12.9710983"><ele>781.0</ele><time>2026-04-04T12:36:47.831Z</time></trkpt><trkpt lat="43.2132567" lon="12.9710517"><ele>781.0</ele><time>2026-04-04T12:36:48.829Z</time></trkpt><trkpt lat="43.213185" lon="12.971015"><ele>781.0</ele><time>2026-04-04T12:36:49.835Z</time></trkpt><trkpt lat="43.2131033" lon="12.9709883"><ele>780.9999999999999</ele><time>2026-04-04T12:36:50.83Z</time></trkpt><trkpt lat="43.213035" lon="12.9709667"><ele>781.0</ele><time>2026-04-04T12:36:51.835Z</time></trkpt><trkpt lat="43.2129617" lon="12.9709767"><ele>785.6666666666666</ele><time>2026-04-04T12:36:52.834Z</time></trkpt><trkpt lat="43.2128883" lon="12.970985"><ele>790.3333333333333</ele><time>2026-04-04T12:36:53.835Z</time></trkpt><trkpt lat="43.212835" lon="12.9710567"><ele>795.0</ele><time>2026-04-04T12:36:54.829Z</time></trkpt><trkpt lat="43.212785" lon="12.97112"><ele>799.6666666666667</ele><time>2026-04-04T12:36:55.833Z</time></trkpt><trkpt lat="43.212745" lon="12.97122"><ele>804.3333333333334</ele><time>2026-04-04T12:36:56.834Z</time></trkpt><trkpt lat="43.2127083" lon="12.9713283"><ele>809.0</ele><time>2026-04-04T12:36:57.834Z</time></trkpt><trkpt lat="43.2126617" lon="12.9714283"><ele>809.0000000000001</ele><time>2026-04-04T12:36:58.833Z</time></trkpt><trkpt lat="43.2126167" lon="12.9715333"><ele>809.0</ele><time>2026-04-04T12:36:59.834Z</time></trkpt><trkpt lat="43.2125717" lon="12.9716317"><ele>809.0</ele><time>2026-04-04T12:37:00.832Z</time></trkpt><trkpt lat="43.2125317" lon="12.971715"><ele>809.0</ele><time>2026-04-04T12:37:01.835Z</time></trkpt><trkpt lat="43.2124767" lon="12.971785"><ele>809.0000000000001</ele><time>2026-04-04T12:37:02.836Z</time></trkpt><trkpt lat="43.2124367" lon="12.97188"><ele>809.0</ele><time>2026-04-04T12:37:03.834Z</time></trkpt><trkpt lat="43.2124017" lon="12.971985"><ele>808.0</ele><time>2026-04-04T12:37:04.834Z</time></trkpt><trkpt lat="43.2123617" lon="12.97209"><ele>807.0</ele><time>2026-04-04T12:37:05.834Z</time></trkpt><trkpt lat="43.212315" lon="12.9721983"><ele>806.0</ele><time>2026-04-04T12:37:06.836Z</time></trkpt><trkpt lat="43.212265" lon="12.97231"><ele>805.0</ele><time>2026-04-04T12:37:07.833Z</time></trkpt><trkpt lat="43.2122067" lon="12.9724067"><ele>804.0</ele><time>2026-04-04T12:37:08.836Z</time></trkpt><trkpt lat="43.2121417" lon="12.972495"><ele>808.0</ele><time>2026-04-04T12:37:09.835Z</time></trkpt><trkpt lat="43.2120883" lon="12.9725767"><ele>812.0</ele><time>2026-04-04T12:37:10.834Z</time></trkpt><trkpt lat="43.212035" lon="12.9726317"><ele>816.0</ele><time>2026-04-04T12:37:11.836Z</time></trkpt><trkpt lat="43.2119617" lon="12.9726883"><ele>820.0</ele><time>2026-04-04T12:37:13.836Z</time></trkpt><trkpt lat="43.2119233" lon="12.9725917"><ele>824.0</ele><time>2026-04-04T12:37:15.834Z</time></trkpt><trkpt lat="43.2119667" lon="12.972525"><ele>828.0</ele><time>2026-04-04T12:37:32.835Z</time></trkpt><trkpt lat="43.2119533" lon="12.9724"><ele>828.8333333333334</ele><time>2026-04-04T12:37:34.834Z</time></trkpt><trkpt lat="43.2119083" lon="12.9722417"><ele>829.6666666666667</ele><time>2026-04-04T12:37:36.833Z</time></trkpt><trkpt lat="43.2118817" lon="12.972145"><ele>830.5</ele><time>2026-04-04T12:37:37.833Z</time></trkpt><trkpt lat="43.21187" lon="12.97204"><ele>831.3333333333334</ele><time>2026-04-04T12:37:38.834Z</time></trkpt><trkpt lat="43.211875" lon="12.971945"><ele>832.1666666666667</ele><time>2026-04-04T12:37:39.833Z</time></trkpt><trkpt lat="43.2118933" lon="12.971855"><ele>833.0</ele><time>2026-04-04T12:37:40.834Z</time></trkpt><trkpt lat="43.2119383" lon="12.9717817"><ele>833.0000000000001</ele><time>2026-04-04T12:37:41.834Z</time></trkpt><trkpt lat="43.21199" lon="12.971725"><ele>833.0</ele><time>2026-04-04T12:37:42.832Z</time></trkpt><trkpt lat="43.2120817" lon="12.9716317"><ele>833.0</ele><time>2026-04-04T12:37:44.836Z</time></trkpt><trkpt lat="43.2121217" lon="12.9715617"><ele>833.0</ele><time>2026-04-04T12:37:45.833Z</time></trkpt><trkpt lat="43.2121417" lon="12.971475"><ele>833.0000000000001</ele><time>2026-04-04T12:37:46.833Z</time></trkpt><trkpt lat="43.2121583" lon="12.9713833"><ele>833.0</ele><time>2026-04-04T12:37:47.834Z</time></trkpt><trkpt lat="43.212195" lon="12.97123"><ele>834.3333333333334</ele><time>2026-04-04T12:37:49.834Z</time></trkpt><trkpt lat="43.212205" lon="12.9711333"><ele>835.6666666666667</ele><time>2026-04-04T12:37:51.833Z</time></trkpt><trkpt lat="43.2122783" lon="12.9710417"><ele>837.0</ele><time>2026-04-04T12:37:54.834Z</time></trkpt><trkpt lat="43.2123633" lon="12.9709633"><ele>838.3333333333333</ele><time>2026-04-04T12:37:56.835Z</time></trkpt><trkpt lat="43.21243" lon="12.9708733"><ele>839.6666666666666</ele><time>2026-04-04T12:37:58.834Z</time></trkpt><trkpt lat="43.2124867" lon="12.97081"><ele>841.0</ele><time>2026-04-04T12:38:00.832Z</time></trkpt><trkpt lat="43.21256" lon="12.9707233"><ele>837.5999999999999</ele><time>2026-04-04T12:38:02.834Z</time></trkpt><trkpt lat="43.2126483" lon="12.970585"><ele>834.2</ele><time>2026-04-04T12:38:04.833Z</time></trkpt><trkpt lat="43.2127067" lon="12.9705017"><ele>830.8</ele><time>2026-04-04T12:38:05.835Z</time></trkpt><trkpt lat="43.2127767" lon="12.9704367"><ele>827.4000000000001</ele><time>2026-04-04T12:38:06.834Z</time></trkpt><trkpt lat="43.2128667" lon="12.9703817"><ele>824.0</ele><time>2026-04-04T12:38:07.833Z</time></trkpt><trkpt lat="43.2129533" lon="12.9703283"><ele>824.0000000000001</ele><time>2026-04-04T12:38:08.835Z</time></trkpt><trkpt lat="43.2130433" lon="12.97029"><ele>824.0</ele><time>2026-04-04T12:38:09.834Z</time></trkpt><trkpt lat="43.21313" lon="12.970275"><ele>824.0</ele><time>2026-04-04T12:38:10.834Z</time></trkpt><trkpt lat="43.213205" lon="12.97026"><ele>824.0</ele><time>2026-04-04T12:38:11.836Z</time></trkpt><trkpt lat="43.2132767" lon="12.9702417"><ele>824.0000000000001</ele><time>2026-04-04T12:38:12.835Z</time></trkpt><trkpt lat="43.2133483" lon="12.9702167"><ele>824.0</ele><time>2026-04-04T12:38:13.833Z</time></trkpt><trkpt lat="43.2134133" lon="12.9701817"><ele>825.4000000000001</ele><time>2026-04-04T12:38:14.835Z</time></trkpt><trkpt lat="43.2134783" lon="12.9701483"><ele>826.8</ele><time>2026-04-04T12:38:15.834Z</time></trkpt><trkpt lat="43.2135933" lon="12.97011"><ele>828.2</ele><time>2026-04-04T12:38:17.834Z</time></trkpt><trkpt lat="43.2137" lon="12.9700583"><ele>829.5999999999999</ele><time>2026-04-04T12:38:19.833Z</time></trkpt><trkpt lat="43.2138067" lon="12.9699567"><ele>831.0</ele><time>2026-04-04T12:38:21.833Z</time></trkpt><trkpt lat="43.213855" lon="12.969885"><ele>830.9999999999999</ele><time>2026-04-04T12:38:22.834Z</time></trkpt><trkpt lat="43.213895" lon="12.9698"><ele>831.0</ele><time>2026-04-04T12:38:23.835Z</time></trkpt><trkpt lat="43.213935" lon="12.9697117"><ele>831.0</ele><time>2026-04-04T12:38:24.833Z</time></trkpt><trkpt lat="43.21397" lon="12.9696167"><ele>831.0</ele><time>2026-04-04T12:38:25.833Z</time></trkpt><trkpt lat="43.2140117" lon="12.9695367"><ele>831.0</ele><time>2026-04-04T12:38:26.834Z</time></trkpt><trkpt lat="43.2140617" lon="12.9694717"><ele>830.9999999999999</ele><time>2026-04-04T12:38:27.833Z</time></trkpt><trkpt lat="43.2141167" lon="12.9694183"><ele>831.0</ele><time>2026-04-04T12:38:28.832Z</time></trkpt><trkpt lat="43.2141883" lon="12.9693817"><ele>830.1666666666666</ele><time>2026-04-04T12:38:29.833Z</time></trkpt><trkpt lat="43.2142833" lon="12.9693667"><ele>829.3333333333333</ele><time>2026-04-04T12:38:30.834Z</time></trkpt><trkpt lat="43.2143783" lon="12.969345"><ele>828.5</ele><time>2026-04-04T12:38:31.834Z</time></trkpt><trkpt lat="43.2144683" lon="12.9693217"><ele>827.6666666666666</ele><time>2026-04-04T12:38:32.835Z</time></trkpt><trkpt lat="43.214545" lon="12.96929"><ele>826.8333333333333</ele><time>2026-04-04T12:38:33.834Z</time></trkpt><trkpt lat="43.2145983" lon="12.9692383"><ele>826.0</ele><time>2026-04-04T12:38:34.833Z</time></trkpt><trkpt lat="43.2146433" lon="12.9691583"><ele>825.9999999999999</ele><time>2026-04-04T12:38:36.833Z</time></trkpt><trkpt lat="43.2146883" lon="12.9690867"><ele>826.0</ele><time>2026-04-04T12:38:38.835Z</time></trkpt><trkpt lat="43.214765" lon="12.969035"><ele>826.0</ele><time>2026-04-04T12:38:40.834Z</time></trkpt><trkpt lat="43.2148833" lon="12.9690067"><ele>826.0</ele><time>2026-04-04T12:38:42.833Z</time></trkpt><trkpt lat="43.2149633" lon="12.9689867"><ele>825.9999999999999</ele><time>2026-04-04T12:38:43.835Z</time></trkpt><trkpt lat="43.2150367" lon="12.96897"><ele>826.0</ele><time>2026-04-04T12:38:44.834Z</time></trkpt><trkpt lat="43.2151333" lon="12.968965"><ele>822.0</ele><time>2026-04-04T12:38:45.834Z</time></trkpt><trkpt lat="43.2152333" lon="12.9689583"><ele>818.0</ele><time>2026-04-04T12:38:46.835Z</time></trkpt><trkpt lat="43.2153367" lon="12.9689617"><ele>814.0</ele><time>2026-04-04T12:38:47.834Z</time></trkpt><trkpt lat="43.2154633" lon="12.9689567"><ele>810.0</ele><time>2026-04-04T12:38:48.834Z</time></trkpt><trkpt lat="43.2155783" lon="12.9689667"><ele>806.0</ele><time>2026-04-04T12:38:49.835Z</time></trkpt><trkpt lat="43.21568" lon="12.96898"><ele>804.8</ele><time>2026-04-04T12:38:50.834Z</time></trkpt><trkpt lat="43.215785" lon="12.9689767"><ele>803.5999999999999</ele><time>2026-04-04T12:38:51.832Z</time></trkpt><trkpt lat="43.21588" lon="12.968955"><ele>802.4</ele><time>2026-04-04T12:38:52.833Z</time></trkpt><trkpt lat="43.2159683" lon="12.9689267"><ele>801.2</ele><time>2026-04-04T12:38:53.833Z</time></trkpt><trkpt lat="43.21605" lon="12.9688917"><ele>800.0</ele><time>2026-04-04T12:38:54.833Z</time></trkpt><trkpt lat="43.2161267" lon="12.968845"><ele>800.0000000000001</ele><time>2026-04-04T12:38:55.833Z</time></trkpt><trkpt lat="43.2161917" lon="12.9687917"><ele>800.0</ele><time>2026-04-04T12:38:56.835Z</time></trkpt><trkpt lat="43.2162483" lon="12.9687233"><ele>800.0</ele><time>2026-04-04T12:38:57.832Z</time></trkpt><trkpt lat="43.2163133" lon="12.96866"><ele>800.0</ele><time>2026-04-04T12:38:58.834Z</time></trkpt><trkpt lat="43.2163933" lon="12.9686217"><ele>800.0000000000001</ele><time>2026-04-04T12:38:59.833Z</time></trkpt><trkpt lat="43.2164933" lon="12.968595"><ele>800.0</ele><time>2026-04-04T12:39:00.832Z</time></trkpt><trkpt lat="43.21659" lon="12.968575"><ele>801.0</ele><time>2026-04-04T12:39:01.833Z</time></trkpt><trkpt lat="43.2166683" lon="12.9685383"><ele>802.0</ele><time>2026-04-04T12:39:02.834Z</time></trkpt><trkpt lat="43.2167433" lon="12.9684867"><ele>803.0</ele><time>2026-04-04T12:39:03.834Z</time></trkpt><trkpt lat="43.2168217" lon="12.968425"><ele>804.0</ele><time>2026-04-04T12:39:04.834Z</time></trkpt><trkpt lat="43.216895" lon="12.9683517"><ele>805.0</ele><time>2026-04-04T12:39:05.834Z</time></trkpt><trkpt lat="43.2169633" lon="12.9682467"><ele>804.9999999999999</ele><time>2026-04-04T12:39:06.833Z</time></trkpt><trkpt lat="43.21702" lon="12.9681683"><ele>805.0</ele><time>2026-04-04T12:39:07.833Z</time></trkpt><trkpt lat="43.2170633" lon="12.9681"><ele>805.0</ele><time>2026-04-04T12:39:08.835Z</time></trkpt><trkpt lat="43.21713" lon="12.9679967"><ele>805.0</ele><time>2026-04-04T12:39:10.834Z</time></trkpt><trkpt lat="43.2171833" lon="12.9678983"><ele>804.9999999999999</ele><time>2026-04-04T12:39:12.837Z</time></trkpt><trkpt lat="43.2172467" lon="12.9677983"><ele>805.0</ele><time>2026-04-04T12:39:14.835Z</time></trkpt><trkpt lat="43.2173433" lon="12.96769"><ele>803.4999999999999</ele><time>2026-04-04T12:39:16.834Z</time></trkpt><trkpt lat="43.2173967" lon="12.96763"><ele>802.0</ele><time>2026-04-04T12:39:17.833Z</time></trkpt><trkpt lat="43.2174533" lon="12.9675667"><ele>800.5</ele><time>2026-04-04T12:39:18.836Z</time></trkpt><trkpt lat="43.21752" lon="12.967495"><ele>799.0</ele><time>2026-04-04T12:39:19.834Z</time></trkpt><trkpt lat="43.217585" lon="12.9674183"><ele>797.4999999999999</ele><time>2026-04-04T12:39:20.835Z</time></trkpt><trkpt lat="43.217655" lon="12.9673133"><ele>796.0</ele><time>2026-04-04T12:39:21.835Z</time></trkpt><trkpt lat="43.217725" lon="12.967235"><ele>795.9999999999999</ele><time>2026-04-04T12:39:22.834Z</time></trkpt><trkpt lat="43.2177917" lon="12.9671483"><ele>796.0</ele><time>2026-04-04T12:39:23.834Z</time></trkpt><trkpt lat="43.217845" lon="12.9670717"><ele>796.0</ele><time>2026-04-04T12:39:24.835Z</time></trkpt><trkpt lat="43.2178967" lon="12.967"><ele>796.0</ele><time>2026-04-04T12:39:25.835Z</time></trkpt><trkpt lat="43.2179533" lon="12.966925"><ele>795.9999999999999</ele><time>2026-04-04T12:39:26.836Z</time></trkpt><trkpt lat="43.2180133" lon="12.9668483"><ele>796.0</ele><time>2026-04-04T12:39:27.835Z</time></trkpt><trkpt lat="43.21807" lon="12.9667767"><ele>795.9999999999999</ele><time>2026-04-04T12:39:28.835Z</time></trkpt><trkpt lat="43.2181333" lon="12.96672"><ele>796.0</ele><time>2026-04-04T12:39:29.834Z</time></trkpt><trkpt lat="43.2182067" lon="12.966675"><ele>796.0</ele><time>2026-04-04T12:39:30.833Z</time></trkpt><trkpt lat="43.2182783" lon="12.966645"><ele>796.0</ele><time>2026-04-04T12:39:31.835Z</time></trkpt><trkpt lat="43.2183883" lon="12.9666233"><ele>795.9999999999999</ele><time>2026-04-04T12:39:33.831Z</time></trkpt><trkpt lat="43.218485" lon="12.9665983"><ele>796.0</ele><time>2026-04-04T12:39:35.835Z</time></trkpt><trkpt lat="43.2185767" lon="12.9665683"><ele>791.0</ele><time>2026-04-04T12:39:37.835Z</time></trkpt><trkpt lat="43.21864" lon="12.9665467"><ele>786.0</ele><time>2026-04-04T12:39:40.835Z</time></trkpt><trkpt lat="43.21873" lon="12.9665267"><ele>781.0</ele><time>2026-04-04T12:39:55.834Z</time></trkpt><trkpt lat="43.2188133" lon="12.9665617"><ele>776.0</ele><time>2026-04-04T12:39:56.835Z</time></trkpt><trkpt lat="43.2189233" lon="12.966615"><ele>771.0</ele><time>2026-04-04T12:39:57.833Z</time></trkpt><trkpt lat="43.2190483" lon="12.9666833"><ele>758.0</ele><time>2026-04-04T12:39:58.835Z</time></trkpt><trkpt lat="43.2191883" lon="12.9667433"><ele>745.0</ele><time>2026-04-04T12:39:59.833Z</time></trkpt><trkpt lat="43.2193217" lon="12.966815"><ele>732.0</ele><time>2026-04-04T12:40:00.832Z</time></trkpt><trkpt lat="43.2194567" lon="12.9668667"><ele>719.0</ele><time>2026-04-04T12:40:01.833Z</time></trkpt><trkpt lat="43.2195667" lon="12.9669133"><ele>719.0</ele><time>2026-04-04T12:40:02.834Z</time></trkpt><trkpt lat="43.2196583" lon="12.96694"><ele>719.0</ele><time>2026-04-04T12:40:03.832Z</time></trkpt><trkpt lat="43.219745" lon="12.966925"><ele>719.0</ele><time>2026-04-04T12:40:04.834Z</time></trkpt><trkpt lat="43.2198417" lon="12.9668983"><ele>719.0</ele><time>2026-04-04T12:40:05.834Z</time></trkpt><trkpt lat="43.219935" lon="12.9668567"><ele>719.0</ele><time>2026-04-04T12:40:06.834Z</time></trkpt><trkpt lat="43.2200233" lon="12.966815"><ele>717.3333333333333</ele><time>2026-04-04T12:40:07.834Z</time></trkpt><trkpt lat="43.220105" lon="12.9667733"><ele>715.6666666666666</ele><time>2026-04-04T12:40:08.834Z</time></trkpt><trkpt lat="43.2201683" lon="12.9667317"><ele>714.0</ele><time>2026-04-04T12:40:09.833Z</time></trkpt><trkpt lat="43.2202283" lon="12.9666567"><ele>712.3333333333334</ele><time>2026-04-04T12:40:11.833Z</time></trkpt><trkpt lat="43.220295" lon="12.9666017"><ele>710.6666666666667</ele><time>2026-04-04T12:40:14.835Z</time></trkpt><trkpt lat="43.22038" lon="12.9665417"><ele>709.0</ele><time>2026-04-04T12:40:16.832Z</time></trkpt><trkpt lat="43.2204483" lon="12.9664967"><ele>712.0</ele><time>2026-04-04T12:40:18.835Z</time></trkpt><trkpt lat="43.2205333" lon="12.966475"><ele>715.0</ele><time>2026-04-04T12:40:20.835Z</time></trkpt><trkpt lat="43.2205983" lon="12.96649"><ele>718.0</ele><time>2026-04-04T12:40:21.834Z</time></trkpt><trkpt lat="43.220675" lon="12.9664883"><ele>721.0</ele><time>2026-04-04T12:40:22.835Z</time></trkpt><trkpt lat="43.22074" lon="12.9664733"><ele>724.0</ele><time>2026-04-04T12:40:23.834Z</time></trkpt><trkpt lat="43.2208617" lon="12.96643"><ele>727.0</ele><time>2026-04-04T12:40:25.832Z</time></trkpt><trkpt lat="43.2209283" lon="12.9664083"><ele>727.0</ele><time>2026-04-04T12:40:26.832Z</time></trkpt><trkpt lat="43.22101" lon="12.9663717"><ele>727.0</ele><time>2026-04-04T12:40:27.835Z</time></trkpt><trkpt lat="43.2210983" lon="12.9663417"><ele>727.0</ele><time>2026-04-04T12:40:28.834Z</time></trkpt><trkpt lat="43.2211817" lon="12.9663217"><ele>727.0</ele><time>2026-04-04T12:40:29.833Z</time></trkpt><trkpt lat="43.2212683" lon="12.9662883"><ele>727.0</ele><time>2026-04-04T12:40:31.834Z</time></trkpt><trkpt lat="43.2213267" lon="12.9662083"><ele>727.0</ele><time>2026-04-04T12:40:44.835Z</time></trkpt><trkpt lat="43.2213833" lon="12.9660867"><ele>727.0</ele><time>2026-04-04T12:40:46.833Z</time></trkpt><trkpt lat="43.2214233" lon="12.96594"><ele>727.0</ele><time>2026-04-04T12:40:48.835Z</time></trkpt><trkpt lat="43.2214683" lon="12.9658717"><ele>727.0</ele><time>2026-04-04T12:40:50.835Z</time></trkpt><trkpt lat="43.22155" lon="12.9658233"><ele>727.0</ele><time>2026-04-04T12:41:09.834Z</time></trkpt><trkpt lat="43.2216233" lon="12.9657517"><ele>727.0</ele><time>2026-04-04T12:41:11.833Z</time></trkpt><trkpt lat="43.221665" lon="12.9656533"><ele>727.0</ele><time>2026-04-04T12:41:13.833Z</time></trkpt><trkpt lat="43.2216067" lon="12.9655733"><ele>730.1666666666667</ele><time>2026-04-04T12:41:16.833Z</time></trkpt><trkpt lat="43.2215467" lon="12.9655017"><ele>733.3333333333334</ele><time>2026-04-04T12:41:18.836Z</time></trkpt><trkpt lat="43.2214817" lon="12.9654283"><ele>736.5</ele><time>2026-04-04T12:41:20.836Z</time></trkpt><trkpt lat="43.2213883" lon="12.9653983"><ele>739.6666666666666</ele><time>2026-04-04T12:41:22.833Z</time></trkpt><trkpt lat="43.2213217" lon="12.965395"><ele>742.8333333333333</ele><time>2026-04-04T12:41:23.836Z</time></trkpt><trkpt lat="43.22125" lon="12.9653883"><ele>746.0</ele><time>2026-04-04T12:41:24.837Z</time></trkpt><trkpt lat="43.2211483" lon="12.965405"><ele>749.1999999999999</ele><time>2026-04-04T12:41:25.835Z</time></trkpt><trkpt lat="43.2210583" lon="12.9654083"><ele>752.4</ele><time>2026-04-04T12:41:26.834Z</time></trkpt><trkpt lat="43.2209783" lon="12.96541"><ele>755.6</ele><time>2026-04-04T12:41:27.834Z</time></trkpt><trkpt lat="43.2208967" lon="12.965415"><ele>758.8</ele><time>2026-04-04T12:41:28.834Z</time></trkpt><trkpt lat="43.2208067" lon="12.9654067"><ele>762.0</ele><time>2026-04-04T12:41:29.834Z</time></trkpt><trkpt lat="43.2206983" lon="12.9653767"><ele>762.0</ele><time>2026-04-04T12:41:31.834Z</time></trkpt><trkpt lat="43.22067" lon="12.96529"><ele>762.0</ele><time>2026-04-04T12:41:34.833Z</time></trkpt><trkpt lat="43.22075" lon="12.9651917"><ele>762.0</ele><time>2026-04-04T12:41:36.833Z</time></trkpt><trkpt lat="43.2208" lon="12.9651017"><ele>762.0</ele><time>2026-04-04T12:41:38.835Z</time></trkpt><trkpt lat="43.220765" lon="12.965015"><ele>762.0</ele><time>2026-04-04T12:41:40.833Z</time></trkpt><trkpt lat="43.2207" lon="12.964955"><ele>762.0</ele><time>2026-04-04T12:41:42.832Z</time></trkpt><trkpt lat="43.2206733" lon="12.9648767"><ele>767.6</ele><time>2026-04-04T12:41:44.836Z</time></trkpt><trkpt lat="43.2207367" lon="12.96476"><ele>773.2</ele><time>2026-04-04T12:41:47.834Z</time></trkpt><trkpt lat="43.2208083" lon="12.9646083"><ele>778.8</ele><time>2026-04-04T12:41:49.834Z</time></trkpt><trkpt lat="43.220845" lon="12.9645367"><ele>784.4</ele><time>2026-04-04T12:41:50.836Z</time></trkpt><trkpt lat="43.2209" lon="12.9643917"><ele>790.0</ele><time>2026-04-04T12:41:52.833Z</time></trkpt><trkpt lat="43.2208867" lon="12.9642733"><ele>789.9999999999999</ele><time>2026-04-04T12:41:54.833Z</time></trkpt><trkpt lat="43.2207833" lon="12.96426"><ele>790.0</ele><time>2026-04-04T12:41:56.835Z</time></trkpt><trkpt lat="43.220695" lon="12.964235"><ele>790.0</ele><time>2026-04-04T12:41:57.833Z</time></trkpt><trkpt lat="43.2205967" lon="12.9642283"><ele>790.0</ele><time>2026-04-04T12:41:58.834Z</time></trkpt><trkpt lat="43.2205233" lon="12.964225"><ele>789.9999999999999</ele><time>2026-04-04T12:41:59.836Z</time></trkpt><trkpt lat="43.220445" lon="12.9642033"><ele>790.0</ele><time>2026-04-04T12:42:01.836Z</time></trkpt><trkpt lat="43.220415" lon="12.9641233"><ele>794.8333333333333</ele><time>2026-04-04T12:42:04.833Z</time></trkpt><trkpt lat="43.2204533" lon="12.9640183"><ele>799.6666666666666</ele><time>2026-04-04T12:42:06.834Z</time></trkpt><trkpt lat="43.2204933" lon="12.963925"><ele>804.5</ele><time>2026-04-04T12:42:07.834Z</time></trkpt><trkpt lat="43.2205617" lon="12.9638317"><ele>809.3333333333333</ele><time>2026-04-04T12:42:08.835Z</time></trkpt><trkpt lat="43.220625" lon="12.9637483"><ele>814.1666666666666</ele><time>2026-04-04T12:42:09.833Z</time></trkpt><trkpt lat="43.2206733" lon="12.963665"><ele>819.0</ele><time>2026-04-04T12:42:10.834Z</time></trkpt><trkpt lat="43.2207117" lon="12.9635867"><ele>819.0</ele><time>2026-04-04T12:42:11.834Z</time></trkpt><trkpt lat="43.2207433" lon="12.963495"><ele>819.0</ele><time>2026-04-04T12:42:12.833Z</time></trkpt><trkpt lat="43.22077" lon="12.9634117"><ele>819.0</ele><time>2026-04-04T12:42:13.832Z</time></trkpt><trkpt lat="43.2208033" lon="12.963325"><ele>819.0</ele><time>2026-04-04T12:42:14.835Z</time></trkpt><trkpt lat="43.220845" lon="12.9632217"><ele>819.0</ele><time>2026-04-04T12:42:15.834Z</time></trkpt><trkpt lat="43.2208867" lon="12.963125"><ele>819.0</ele><time>2026-04-04T12:42:16.831Z</time></trkpt><trkpt lat="43.2209283" lon="12.9630517"><ele>819.0</ele><time>2026-04-04T12:42:17.831Z</time></trkpt><trkpt lat="43.2209933" lon="12.962965"><ele>823.1666666666666</ele><time>2026-04-04T12:42:19.834Z</time></trkpt><trkpt lat="43.2210633" lon="12.9629217"><ele>827.3333333333333</ele><time>2026-04-04T12:42:24.833Z</time></trkpt><trkpt lat="43.2211867" lon="12.9628917"><ele>831.5</ele><time>2026-04-04T12:43:04.834Z</time></trkpt><trkpt lat="43.22125" lon="12.9628567"><ele>835.6666666666666</ele><time>2026-04-04T12:43:06.833Z</time></trkpt><trkpt lat="43.221325" lon="12.9628517"><ele>839.8333333333333</ele><time>2026-04-04T12:43:09.834Z</time></trkpt><trkpt lat="43.2213917" lon="12.9627983"><ele>844.0</ele><time>2026-04-04T12:43:12.833Z</time></trkpt><trkpt lat="43.2214683" lon="12.9627167"><ele>845.6</ele><time>2026-04-04T12:43:14.831Z</time></trkpt><trkpt lat="43.2215567" lon="12.9626367"><ele>847.2</ele><time>2026-04-04T12:43:16.833Z</time></trkpt><trkpt lat="43.2216367" lon="12.9625867"><ele>848.8000000000001</ele><time>2026-04-04T12:43:18.835Z</time></trkpt><trkpt lat="43.2217183" lon="12.96254"><ele>850.4000000000001</ele><time>2026-04-04T12:43:20.836Z</time></trkpt><trkpt lat="43.2218033" lon="12.9624967"><ele>852.0</ele><time>2026-04-04T12:43:22.835Z</time></trkpt><trkpt lat="43.2218967" lon="12.9624433"><ele>852.0</ele><time>2026-04-04T12:43:24.834Z</time></trkpt><trkpt lat="43.2219917" lon="12.9623933"><ele>852.0</ele><time>2026-04-04T12:43:26.836Z</time></trkpt><trkpt lat="43.2220883" lon="12.962315"><ele>852.0</ele><time>2026-04-04T12:43:28.832Z</time></trkpt><trkpt lat="43.2221683" lon="12.96226"><ele>852.0</ele><time>2026-04-04T12:43:30.832Z</time></trkpt><trkpt lat="43.2222533" lon="12.9622317"><ele>852.0</ele><time>2026-04-04T12:43:32.834Z</time></trkpt><trkpt lat="43.22235" lon="12.9622383"><ele>849.2</ele><time>2026-04-04T12:43:34.833Z</time></trkpt><trkpt lat="43.2224467" lon="12.9622267"><ele>846.4000000000001</ele><time>2026-04-04T12:43:36.832Z</time></trkpt><trkpt lat="43.2225433" lon="12.9621717"><ele>843.5999999999999</ele><time>2026-04-04T12:43:38.836Z</time></trkpt><trkpt lat="43.22261" lon="12.9621233"><ele>840.8</ele><time>2026-04-04T12:43:40.832Z</time></trkpt><trkpt lat="43.2226867" lon="12.962035"><ele>838.0</ele><time>2026-04-04T12:43:42.833Z</time></trkpt><trkpt lat="43.2227617" lon="12.9619633"><ele>838.0</ele><time>2026-04-04T12:43:44.836Z</time></trkpt><trkpt lat="43.222865" lon="12.9618917"><ele>838.0</ele><time>2026-04-04T12:43:46.833Z</time></trkpt><trkpt lat="43.2229867" lon="12.9618583"><ele>838.0</ele><time>2026-04-04T12:43:48.833Z</time></trkpt><trkpt lat="43.223075" lon="12.9618417"><ele>838.0</ele><time>2026-04-04T12:43:50.834Z</time></trkpt><trkpt lat="43.223185" lon="12.9617917"><ele>838.0</ele><time>2026-04-04T12:43:52.833Z</time></trkpt><trkpt lat="43.2232483" lon="12.96176"><ele>835.4999999999999</ele><time>2026-04-04T12:43:53.832Z</time></trkpt><trkpt lat="43.2233183" lon="12.9617133"><ele>833.0</ele><time>2026-04-04T12:43:54.834Z</time></trkpt><trkpt lat="43.2233783" lon="12.9616717"><ele>830.5</ele><time>2026-04-04T12:43:55.834Z</time></trkpt><trkpt lat="43.223435" lon="12.9616283"><ele>828.0</ele><time>2026-04-04T12:43:56.836Z</time></trkpt><trkpt lat="43.22351" lon="12.9615467"><ele>825.4999999999999</ele><time>2026-04-04T12:43:58.834Z</time></trkpt><trkpt lat="43.2235783" lon="12.9614583"><ele>823.0</ele><time>2026-04-04T12:44:00.832Z</time></trkpt><trkpt lat="43.2236433" lon="12.9614133"><ele>828.6666666666666</ele><time>2026-04-04T12:44:02.835Z</time></trkpt><trkpt lat="43.2237283" lon="12.96137"><ele>834.3333333333333</ele><time>2026-04-04T12:44:04.832Z</time></trkpt><trkpt lat="43.22381" lon="12.96134"><ele>840.0</ele><time>2026-04-04T12:44:06.833Z</time></trkpt><trkpt lat="43.2239" lon="12.9613083"><ele>845.6666666666667</ele><time>2026-04-04T12:44:13.833Z</time></trkpt><trkpt lat="43.2239617" lon="12.9612617"><ele>851.3333333333334</ele><time>2026-04-04T12:44:17.833Z</time></trkpt><trkpt lat="43.22401" lon="12.9611917"><ele>857.0</ele><time>2026-04-04T12:44:23.833Z</time></trkpt><trkpt lat="43.2240583" lon="12.9611233"><ele>857.0</ele><time>2026-04-04T12:44:28.833Z</time></trkpt><trkpt lat="43.22416" lon="12.9611083"><ele>857.0</ele><time>2026-04-04T12:44:44.835Z</time></trkpt><trkpt lat="43.224255" lon="12.96108"><ele>857.0</ele><time>2026-04-04T12:44:46.834Z</time></trkpt><trkpt lat="43.2243267" lon="12.9610383"><ele>857.0</ele><time>2026-04-04T12:44:48.834Z</time></trkpt><trkpt lat="43.2244117" lon="12.9609917"><ele>857.0</ele><time>2026-04-04T12:44:50.835Z</time></trkpt><trkpt lat="43.2244883" lon="12.960925"><ele>863.6</ele><time>2026-04-04T12:44:52.837Z</time></trkpt><trkpt lat="43.2245733" lon="12.9608567"><ele>870.2</ele><time>2026-04-04T12:44:54.837Z</time></trkpt><trkpt lat="43.224665" lon="12.9607767"><ele>876.8</ele><time>2026-04-04T12:44:56.836Z</time></trkpt><trkpt lat="43.2247317" lon="12.960735"><ele>883.4</ele><time>2026-04-04T12:44:59.833Z</time></trkpt><trkpt lat="43.2248267" lon="12.9606967"><ele>890.0</ele><time>2026-04-04T12:45:50.832Z</time></trkpt><trkpt lat="43.2248933" lon="12.9606117"><ele>890.0000000000001</ele><time>2026-04-04T12:45:53.833Z</time></trkpt><trkpt lat="43.22496" lon="12.960545"><ele>890.0</ele><time>2026-04-04T12:46:00.844Z</time></trkpt><trkpt lat="43.2249967" lon="12.9604733"><ele>890.0</ele><time>2026-04-04T12:46:07.835Z</time></trkpt><trkpt lat="43.225065" lon="12.9604717"><ele>890.0</ele><time>2026-04-04T12:47:53.835Z</time></trkpt><trkpt lat="43.2251317" lon="12.9604417"><ele>890.0000000000001</ele><time>2026-04-04T12:47:55.835Z</time></trkpt><trkpt lat="43.22523" lon="12.9604283"><ele>890.0</ele><time>2026-04-04T12:47:57.835Z</time></trkpt><trkpt lat="43.22534" lon="12.9604"><ele>890.0000000000001</ele><time>2026-04-04T12:47:59.834Z</time></trkpt><trkpt lat="43.2254367" lon="12.9603817"><ele>890.0</ele><time>2026-04-04T12:48:01.835Z</time></trkpt><trkpt lat="43.225525" lon="12.9603533"><ele>890.0</ele><time>2026-04-04T12:48:03.832Z</time></trkpt><trkpt lat="43.225605" lon="12.960325"><ele>890.0</ele><time>2026-04-04T12:48:06.834Z</time></trkpt><trkpt lat="43.2256633" lon="12.9602767"><ele>890.0000000000001</ele><time>2026-04-04T12:48:08.837Z</time></trkpt><trkpt lat="43.22573" lon="12.96022"><ele>890.0</ele><time>2026-04-04T12:48:10.833Z</time></trkpt><trkpt lat="43.2258033" lon="12.9601533"><ele>887.1666666666667</ele><time>2026-04-04T12:48:12.834Z</time></trkpt><trkpt lat="43.225875" lon="12.9601067"><ele>884.3333333333334</ele><time>2026-04-04T12:48:15.835Z</time></trkpt><trkpt lat="43.22593" lon="12.9600633"><ele>881.5</ele><time>2026-04-04T12:48:17.835Z</time></trkpt><trkpt lat="43.2260033" lon="12.9599967"><ele>878.6666666666667</ele><time>2026-04-04T12:48:19.834Z</time></trkpt><trkpt lat="43.226075" lon="12.959925"><ele>875.8333333333334</ele><time>2026-04-04T12:48:21.835Z</time></trkpt><trkpt lat="43.22614" lon="12.9598633"><ele>873.0</ele><time>2026-04-04T12:48:23.834Z</time></trkpt><trkpt lat="43.2261883" lon="12.9597917"><ele>873.3333333333334</ele><time>2026-04-04T12:48:27.833Z</time></trkpt><trkpt lat="43.2262383" lon="12.959735"><ele>873.6666666666667</ele><time>2026-04-04T12:48:34.834Z</time></trkpt><trkpt lat="43.226315" lon="12.959765"><ele>874.0</ele><time>2026-04-04T12:48:41.833Z</time></trkpt><trkpt lat="43.2264" lon="12.9597817"><ele>874.3333333333334</ele><time>2026-04-04T12:48:45.833Z</time></trkpt><trkpt lat="43.2264667" lon="12.9597317"><ele>874.6666666666667</ele><time>2026-04-04T12:48:48.833Z</time></trkpt><trkpt lat="43.226505" lon="12.9596433"><ele>875.0</ele><time>2026-04-04T12:48:52.835Z</time></trkpt><trkpt lat="43.2265583" lon="12.959555"><ele>875.0000000000001</ele><time>2026-04-04T12:48:56.834Z</time></trkpt><trkpt lat="43.2266133" lon="12.9593933"><ele>875.0</ele><time>2026-04-04T12:49:41.838Z</time></trkpt><trkpt lat="43.2266917" lon="12.9593933"><ele>875.0</ele><time>2026-04-04T12:49:45.833Z</time></trkpt><trkpt lat="43.2267617" lon="12.9594233"><ele>875.0</ele><time>2026-04-04T12:49:49.834Z</time></trkpt><trkpt lat="43.226805" lon="12.95936"><ele>875.0000000000001</ele><time>2026-04-04T12:49:53.833Z</time></trkpt><trkpt lat="43.2267967" lon="12.9592717"><ele>875.0</ele><time>2026-04-04T12:50:07.833Z</time></trkpt><trkpt lat="43.2267917" lon="12.959125"><ele>879.3333333333334</ele><time>2026-04-04T12:51:27.83Z</time></trkpt><trkpt lat="43.2268333" lon="12.9590317"><ele>883.6666666666667</ele><time>2026-04-04T12:51:41.833Z</time></trkpt><trkpt lat="43.22687" lon="12.9588717"><ele>888.0</ele><time>2026-04-04T12:54:48.836Z</time></trkpt><trkpt lat="43.2268183" lon="12.9588017"><ele>892.3333333333333</ele><time>2026-04-04T12:54:53.835Z</time></trkpt><trkpt lat="43.2267433" lon="12.9588033"><ele>896.6666666666666</ele><time>2026-04-04T12:55:59.831Z</time></trkpt><trkpt lat="43.2268017" lon="12.9588417"><ele>901.0</ele><time>2026-04-04T12:59:22.835Z</time></trkpt><trkpt lat="43.2268217" lon="12.958735"><ele>901.0</ele><time>2026-04-04T12:59:27.827Z</time></trkpt><trkpt lat="43.2268267" lon="12.9586383"><ele>901.0000000000001</ele><time>2026-04-04T12:59:29.833Z</time></trkpt><trkpt lat="43.2268183" lon="12.958535"><ele>901.0</ele><time>2026-04-04T12:59:34.832Z</time></trkpt><trkpt lat="43.2268217" lon="12.9584417"><ele>901.0</ele><time>2026-04-04T12:59:37.832Z</time></trkpt><trkpt lat="43.2268317" lon="12.95835"><ele>901.0000000000001</ele><time>2026-04-04T12:59:40.834Z</time></trkpt><trkpt lat="43.226825" lon="12.9582617"><ele>901.0</ele><time>2026-04-04T13:13:17.835Z</time></trkpt><trkpt lat="43.2268333" lon="12.95816"><ele>901.0</ele><time>2026-04-04T13:13:19.834Z</time></trkpt><trkpt lat="43.2268383" lon="12.9580483"><ele>904.8</ele><time>2026-04-04T13:13:21.835Z</time></trkpt><trkpt lat="43.2268317" lon="12.95793"><ele>908.5999999999999</ele><time>2026-04-04T13:13:23.834Z</time></trkpt><trkpt lat="43.22682" lon="12.95782"><ele>912.4</ele><time>2026-04-04T13:13:25.834Z</time></trkpt><trkpt lat="43.226815" lon="12.9577217"><ele>916.2</ele><time>2026-04-04T13:13:27.833Z</time></trkpt><trkpt lat="43.2267883" lon="12.9575783"><ele>920.0</ele><time>2026-04-04T13:13:29.83Z</time></trkpt><trkpt lat="43.2267617" lon="12.9574383"><ele>921.7142857142856</ele><time>2026-04-04T13:13:31.833Z</time></trkpt><trkpt lat="43.2267433" lon="12.957315"><ele>923.4285714285713</ele><time>2026-04-04T13:13:33.833Z</time></trkpt><trkpt lat="43.2267233" lon="12.9572183"><ele>925.1428571428571</ele><time>2026-04-04T13:13:35.834Z</time></trkpt><trkpt lat="43.2266683" lon="12.957175"><ele>926.8571428571428</ele><time>2026-04-04T13:13:37.833Z</time></trkpt><trkpt lat="43.226605" lon="12.95719"><ele>928.5714285714284</ele><time>2026-04-04T13:13:39.832Z</time></trkpt><trkpt lat="43.226555" lon="12.9572517"><ele>930.2857142857143</ele><time>2026-04-04T13:13:42.834Z</time></trkpt><trkpt lat="43.2265117" lon="12.9573333"><ele>932.0</ele><time>2026-04-04T13:13:45.833Z</time></trkpt><trkpt lat="43.2264467" lon="12.957415"><ele>938.0</ele><time>2026-04-04T13:13:48.834Z</time></trkpt><trkpt lat="43.2264" lon="12.95749"><ele>944.0</ele><time>2026-04-04T13:13:50.835Z</time></trkpt><trkpt lat="43.2263367" lon="12.9576067"><ele>950.0</ele><time>2026-04-04T13:13:52.833Z</time></trkpt><trkpt lat="43.2262733" lon="12.95772"><ele>956.0</ele><time>2026-04-04T13:13:54.834Z</time></trkpt><trkpt lat="43.2262017" lon="12.9578233"><ele>962.0</ele><time>2026-04-04T13:13:56.835Z</time></trkpt><trkpt lat="43.2261333" lon="12.95787"><ele>962.0000000000001</ele><time>2026-04-04T13:13:58.835Z</time></trkpt><trkpt lat="43.2260667" lon="12.9578967"><ele>962.0</ele><time>2026-04-04T13:14:00.834Z</time></trkpt><trkpt lat="43.2260133" lon="12.95783"><ele>962.0</ele><time>2026-04-04T13:14:03.832Z</time></trkpt><trkpt lat="43.2260117" lon="12.957715"><ele>962.0</ele><time>2026-04-04T13:14:07.833Z</time></trkpt><trkpt lat="43.2260167" lon="12.957585"><ele>962.0000000000001</ele><time>2026-04-04T13:14:32.835Z</time></trkpt><trkpt lat="43.2260183" lon="12.9574333"><ele>962.0</ele><time>2026-04-04T13:14:34.833Z</time></trkpt><trkpt lat="43.22601" lon="12.9573383"><ele>964.3333333333334</ele><time>2026-04-04T13:14:35.834Z</time></trkpt><trkpt lat="43.226005" lon="12.9572483"><ele>966.6666666666667</ele><time>2026-04-04T13:14:36.834Z</time></trkpt><trkpt lat="43.2260033" lon="12.9571517"><ele>969.0</ele><time>2026-04-04T13:14:37.832Z</time></trkpt><trkpt lat="43.2259933" lon="12.9570433"><ele>971.3333333333333</ele><time>2026-04-04T13:14:38.834Z</time></trkpt><trkpt lat="43.225985" lon="12.9569267"><ele>973.6666666666666</ele><time>2026-04-04T13:14:39.833Z</time></trkpt><trkpt lat="43.2259733" lon="12.9568017"><ele>976.0</ele><time>2026-04-04T13:14:40.834Z</time></trkpt><trkpt lat="43.225965" lon="12.9566783"><ele>978.0</ele><time>2026-04-04T13:14:41.833Z</time></trkpt><trkpt lat="43.22595" lon="12.9565483"><ele>979.9999999999999</ele><time>2026-04-04T13:14:42.841Z</time></trkpt><trkpt lat="43.2259333" lon="12.9564133"><ele>981.9999999999999</ele><time>2026-04-04T13:14:43.834Z</time></trkpt><trkpt lat="43.22592" lon="12.9562833"><ele>984.0</ele><time>2026-04-04T13:14:44.836Z</time></trkpt><trkpt lat="43.2259017" lon="12.9561667"><ele>986.0</ele><time>2026-04-04T13:14:45.833Z</time></trkpt><trkpt lat="43.2258817" lon="12.9560567"><ele>986.0</ele><time>2026-04-04T13:14:46.835Z</time></trkpt><trkpt lat="43.2258617" lon="12.9559467"><ele>985.9999999999999</ele><time>2026-04-04T13:14:47.833Z</time></trkpt><trkpt lat="43.22584" lon="12.95583"><ele>985.9999999999999</ele><time>2026-04-04T13:14:48.833Z</time></trkpt><trkpt lat="43.22581" lon="12.9557017"><ele>986.0</ele><time>2026-04-04T13:14:49.834Z</time></trkpt><trkpt lat="43.2257833" lon="12.9555733"><ele>986.0</ele><time>2026-04-04T13:14:50.836Z</time></trkpt><trkpt lat="43.2257617" lon="12.9554417"><ele>986.8333333333334</ele><time>2026-04-04T13:14:51.835Z</time></trkpt><trkpt lat="43.2257417" lon="12.9553083"><ele>987.6666666666667</ele><time>2026-04-04T13:14:52.834Z</time></trkpt><trkpt lat="43.2257233" lon="12.955175"><ele>988.5</ele><time>2026-04-04T13:14:53.833Z</time></trkpt><trkpt lat="43.2257067" lon="12.9550483"><ele>989.3333333333333</ele><time>2026-04-04T13:14:54.835Z</time></trkpt><trkpt lat="43.2256883" lon="12.95494"><ele>990.1666666666666</ele><time>2026-04-04T13:14:55.836Z</time></trkpt><trkpt lat="43.2256783" lon="12.95485"><ele>991.0</ele><time>2026-04-04T13:14:56.837Z</time></trkpt><trkpt lat="43.225645" lon="12.9546917"><ele>999.0</ele><time>2026-04-04T13:14:58.836Z</time></trkpt><trkpt lat="43.2256017" lon="12.9545633"><ele>1006.9999999999999</ele><time>2026-04-04T13:15:00.838Z</time></trkpt><trkpt lat="43.225535" lon="12.9544417"><ele>1014.9999999999999</ele><time>2026-04-04T13:15:02.835Z</time></trkpt><trkpt lat="43.2254583" lon="12.9543067"><ele>1023.0</ele><time>2026-04-04T13:15:04.834Z</time></trkpt><trkpt lat="43.2254167" lon="12.95424"><ele>1031.0</ele><time>2026-04-04T13:15:05.834Z</time></trkpt><trkpt lat="43.22533" lon="12.9540933"><ele>1031.7142857142858</ele><time>2026-04-04T13:15:07.834Z</time></trkpt><trkpt lat="43.22529" lon="12.954015"><ele>1032.4285714285713</ele><time>2026-04-04T13:15:08.836Z</time></trkpt><trkpt lat="43.2252467" lon="12.953935"><ele>1033.142857142857</ele><time>2026-04-04T13:15:09.834Z</time></trkpt><trkpt lat="43.22522" lon="12.953845"><ele>1033.857142857143</ele><time>2026-04-04T13:15:10.835Z</time></trkpt><trkpt lat="43.225195" lon="12.95375"><ele>1034.5714285714284</ele><time>2026-04-04T13:15:11.834Z</time></trkpt><trkpt lat="43.2251683" lon="12.95367"><ele>1035.2857142857142</ele><time>2026-04-04T13:15:12.836Z</time></trkpt><trkpt lat="43.2251167" lon="12.9535733"><ele>1036.0</ele><time>2026-04-04T13:15:14.836Z</time></trkpt><trkpt lat="43.2250283" lon="12.9535233"><ele>1036.0</ele><time>2026-04-04T13:15:16.835Z</time></trkpt><trkpt lat="43.22495" lon="12.95345"><ele>1036.0</ele><time>2026-04-04T13:15:18.836Z</time></trkpt><trkpt lat="43.2248783" lon="12.953385"><ele>1036.0</ele><time>2026-04-04T13:15:21.838Z</time></trkpt><trkpt lat="43.224835" lon="12.9533083"><ele>1036.0</ele><time>2026-04-04T13:18:42.835Z</time></trkpt><trkpt lat="43.2248117" lon="12.9532083"><ele>1036.0</ele><time>2026-04-04T13:18:44.841Z</time></trkpt><trkpt lat="43.2247883" lon="12.95311"><ele>1036.0</ele><time>2026-04-04T13:18:46.83Z</time></trkpt><trkpt lat="43.224775" lon="12.9530067"><ele>1041.1666666666665</ele><time>2026-04-04T13:18:48.829Z</time></trkpt><trkpt lat="43.2247033" lon="12.952965"><ele>1046.3333333333333</ele><time>2026-04-04T13:18:51.834Z</time></trkpt><trkpt lat="43.224625" lon="12.9529817"><ele>1051.5</ele><time>2026-04-04T13:18:53.833Z</time></trkpt><trkpt lat="43.2245117" lon="12.9529983"><ele>1056.6666666666667</ele><time>2026-04-04T13:18:55.833Z</time></trkpt><trkpt lat="43.224445" lon="12.9529967"><ele>1061.8333333333335</ele><time>2026-04-04T13:18:56.834Z</time></trkpt><trkpt lat="43.2243767" lon="12.95301"><ele>1067.0</ele><time>2026-04-04T13:18:57.833Z</time></trkpt><trkpt lat="43.224295" lon="12.9530383"><ele>1067.0</ele><time>2026-04-04T13:18:59.83Z</time></trkpt><trkpt lat="43.2242183" lon="12.953105"><ele>1067.0</ele><time>2026-04-04T13:19:02.836Z</time></trkpt><trkpt lat="43.22416" lon="12.953205"><ele>1067.0</ele><time>2026-04-04T13:19:04.831Z</time></trkpt><trkpt lat="43.2241033" lon="12.953285"><ele>1067.0</ele><time>2026-04-04T13:19:06.838Z</time></trkpt><trkpt lat="43.22404" lon="12.9533133"><ele>1067.0</ele><time>2026-04-04T13:19:08.829Z</time></trkpt><trkpt lat="43.2239483" lon="12.953345"><ele>1067.0</ele><time>2026-04-04T13:19:10.832Z</time></trkpt><trkpt lat="43.2238367" lon="12.9534583"><ele>1073.4</ele><time>2026-04-04T13:19:12.828Z</time></trkpt><trkpt lat="43.2238" lon="12.9535483"><ele>1079.8000000000002</ele><time>2026-04-04T13:19:13.834Z</time></trkpt><trkpt lat="43.22376" lon="12.9536733"><ele>1086.2</ele><time>2026-04-04T13:19:14.834Z</time></trkpt><trkpt lat="43.22371" lon="12.95381"><ele>1092.6000000000001</ele><time>2026-04-04T13:19:15.834Z</time></trkpt><trkpt lat="43.2236783" lon="12.9539183"><ele>1099.0</ele><time>2026-04-04T13:19:16.834Z</time></trkpt><trkpt lat="43.22364" lon="12.9540183"><ele>1099.0</ele><time>2026-04-04T13:19:17.835Z</time></trkpt><trkpt lat="43.2236117" lon="12.9541017"><ele>1099.0</ele><time>2026-04-04T13:19:18.835Z</time></trkpt><trkpt lat="43.22358" lon="12.9541867"><ele>1099.0</ele><time>2026-04-04T13:19:19.834Z</time></trkpt><trkpt lat="43.2235283" lon="12.9543233"><ele>1099.0</ele><time>2026-04-04T13:19:21.834Z</time></trkpt><trkpt lat="43.22348" lon="12.9544017"><ele>1099.0</ele><time>2026-04-04T13:19:23.833Z</time></trkpt><trkpt lat="43.2234117" lon="12.9544817"><ele>1099.0</ele><time>2026-04-04T13:19:25.835Z</time></trkpt><trkpt lat="43.2233517" lon="12.954525"><ele>1098.3333333333333</ele><time>2026-04-04T13:19:27.834Z</time></trkpt><trkpt lat="43.2233017" lon="12.9544667"><ele>1097.6666666666665</ele><time>2026-04-04T13:19:30.835Z</time></trkpt><trkpt lat="43.22324" lon="12.9543983"><ele>1097.0</ele><time>2026-04-04T13:19:34.836Z</time></trkpt><trkpt lat="43.2231633" lon="12.9544067"><ele>1096.3333333333333</ele><time>2026-04-04T13:19:38.835Z</time></trkpt><trkpt lat="43.22309" lon="12.95447"><ele>1095.6666666666667</ele><time>2026-04-04T13:19:41.831Z</time></trkpt><trkpt lat="43.2230133" lon="12.9545283"><ele>1095.0</ele><time>2026-04-04T13:19:45.834Z</time></trkpt><trkpt lat="43.22295" lon="12.95449"><ele>1098.1666666666667</ele><time>2026-04-04T13:19:48.834Z</time></trkpt><trkpt lat="43.2229217" lon="12.9543917"><ele>1101.3333333333333</ele><time>2026-04-04T13:19:51.836Z</time></trkpt><trkpt lat="43.2228617" lon="12.954325"><ele>1104.5</ele><time>2026-04-04T13:19:54.833Z</time></trkpt><trkpt lat="43.2227733" lon="12.9543267"><ele>1107.6666666666665</ele><time>2026-04-04T13:19:57.835Z</time></trkpt><trkpt lat="43.2226967" lon="12.9543483"><ele>1110.8333333333333</ele><time>2026-04-04T13:23:02.835Z</time></trkpt><trkpt lat="43.2226217" lon="12.954385"><ele>1114.0</ele><time>2026-04-04T13:23:04.834Z</time></trkpt><trkpt lat="43.2225433" lon="12.9543867"><ele>1114.0</ele><time>2026-04-04T13:23:06.833Z</time></trkpt><trkpt lat="43.222465" lon="12.954345"><ele>1114.0</ele><time>2026-04-04T13:23:09.834Z</time></trkpt><trkpt lat="43.2223967" lon="12.9542667"><ele>1114.0</ele><time>2026-04-04T13:23:12.835Z</time></trkpt><trkpt lat="43.222325" lon="12.9542133"><ele>1114.0</ele><time>2026-04-04T13:23:15.832Z</time></trkpt><trkpt lat="43.2222483" lon="12.9541533"><ele>1114.0</ele><time>2026-04-04T13:23:18.835Z</time></trkpt><trkpt lat="43.22217" lon="12.9540833"><ele>1114.0</ele><time>2026-04-04T13:23:21.834Z</time></trkpt><trkpt lat="43.2221067" lon="12.954045"><ele>1120.0</ele><time>2026-04-04T13:23:23.835Z</time></trkpt><trkpt lat="43.2220433" lon="12.953995"><ele>1126.0</ele><time>2026-04-04T13:23:25.833Z</time></trkpt><trkpt lat="43.2219883" lon="12.9539283"><ele>1132.0</ele><time>2026-04-04T13:23:27.837Z</time></trkpt><trkpt lat="43.2219254" lon="12.9538551"><ele>1138.0</ele><time>2026-04-04T13:23:29.835Z</time></trkpt><trkpt lat="43.2218699" lon="12.9538012"><ele>1144.0</ele><time>2026-04-04T13:23:30.833Z</time></trkpt><trkpt lat="43.2218063" lon="12.9537388"><ele>1150.0</ele><time>2026-04-04T13:23:31.833Z</time></trkpt><trkpt lat="43.2217495" lon="12.9536725"><ele>1150.0</ele><time>2026-04-04T13:23:32.838Z</time></trkpt><trkpt lat="43.221696" lon="12.9536014"><ele>1150.0</ele><time>2026-04-04T13:23:33.834Z</time></trkpt><trkpt lat="43.221645" lon="12.953535"><ele>1150.0</ele><time>2026-04-04T13:23:34.834Z</time></trkpt><trkpt lat="43.2215833" lon="12.95348"><ele>1150.0</ele><time>2026-04-04T13:23:35.835Z</time></trkpt><trkpt lat="43.2215083" lon="12.9534333"><ele>1150.0</ele><time>2026-04-04T13:23:36.833Z</time></trkpt><trkpt lat="43.2214367" lon="12.9533883"><ele>1150.0</ele><time>2026-04-04T13:23:37.837Z</time></trkpt><trkpt lat="43.2213733" lon="12.95333"><ele>1155.8333333333333</ele><time>2026-04-04T13:23:38.834Z</time></trkpt><trkpt lat="43.22131" lon="12.9532617"><ele>1161.6666666666665</ele><time>2026-04-04T13:23:39.833Z</time></trkpt><trkpt lat="43.2212517" lon="12.9531967"><ele>1167.5</ele><time>2026-04-04T13:23:40.833Z</time></trkpt><trkpt lat="43.2211917" lon="12.9531383"><ele>1173.3333333333333</ele><time>2026-04-04T13:23:41.834Z</time></trkpt><trkpt lat="43.221125" lon="12.95308"><ele>1179.1666666666667</ele><time>2026-04-04T13:23:42.836Z</time></trkpt><trkpt lat="43.2210533" lon="12.9530167"><ele>1185.0</ele><time>2026-04-04T13:23:43.833Z</time></trkpt><trkpt lat="43.220985" lon="12.9529583"><ele>1185.0</ele><time>2026-04-04T13:23:44.836Z</time></trkpt><trkpt lat="43.2209317" lon="12.9528983"><ele>1185.0</ele><time>2026-04-04T13:23:45.832Z</time></trkpt><trkpt lat="43.2208833" lon="12.952835"><ele>1185.0</ele><time>2026-04-04T13:23:46.834Z</time></trkpt><trkpt lat="43.220815" lon="12.9527367"><ele>1185.0</ele><time>2026-04-04T13:23:48.835Z</time></trkpt><trkpt lat="43.220765" lon="12.95268"><ele>1185.0</ele><time>2026-04-04T13:23:50.838Z</time></trkpt><trkpt lat="43.2206883" lon="12.9526333"><ele>1185.0</ele><time>2026-04-04T13:24:34.834Z</time></trkpt><trkpt lat="43.22057" lon="12.9526217"><ele>1184.857142857143</ele><time>2026-04-04T13:24:36.835Z</time></trkpt><trkpt lat="43.2205067" lon="12.9526117"><ele>1184.7142857142856</ele><time>2026-04-04T13:24:37.832Z</time></trkpt><trkpt lat="43.2204383" lon="12.9526"><ele>1184.5714285714284</ele><time>2026-04-04T13:24:38.833Z</time></trkpt><trkpt lat="43.220375" lon="12.9525783"><ele>1184.4285714285713</ele><time>2026-04-04T13:24:39.833Z</time></trkpt><trkpt lat="43.2203033" lon="12.9525117"><ele>1184.2857142857142</ele><time>2026-04-04T13:24:41.837Z</time></trkpt><trkpt lat="43.2202517" lon="12.9524417"><ele>1184.142857142857</ele><time>2026-04-04T13:24:44.836Z</time></trkpt><trkpt lat="43.2202183" lon="12.9523533"><ele>1184.0</ele><time>2026-04-04T13:24:46.834Z</time></trkpt><trkpt lat="43.2201817" lon="12.9522367"><ele>1183.3333333333335</ele><time>2026-04-04T13:24:48.83Z</time></trkpt><trkpt lat="43.2201567" lon="12.9521433"><ele>1182.6666666666667</ele><time>2026-04-04T13:24:50.834Z</time></trkpt><trkpt lat="43.2201367" lon="12.9520183"><ele>1182.0</ele><time>2026-04-04T13:24:53.834Z</time></trkpt><trkpt lat="43.2201067" lon="12.9519383"><ele>1181.3333333333333</ele><time>2026-04-04T13:24:55.834Z</time></trkpt><trkpt lat="43.2200667" lon="12.9518433"><ele>1180.6666666666665</ele><time>2026-04-04T13:24:57.835Z</time></trkpt><trkpt lat="43.2200167" lon="12.9517583"><ele>1180.0</ele><time>2026-04-04T13:24:59.833Z</time></trkpt><trkpt lat="43.219975" lon="12.95168"><ele>1176.6666666666665</ele><time>2026-04-04T13:25:01.833Z</time></trkpt><trkpt lat="43.21994" lon="12.951595"><ele>1173.3333333333333</ele><time>2026-04-04T13:25:03.832Z</time></trkpt><trkpt lat="43.2199117" lon="12.9514833"><ele>1170.0</ele><time>2026-04-04T13:25:05.834Z</time></trkpt><trkpt lat="43.2198883" lon="12.9513717"><ele>1166.6666666666667</ele><time>2026-04-04T13:25:07.834Z</time></trkpt><trkpt lat="43.2198783" lon="12.951265"><ele>1163.3333333333335</ele><time>2026-04-04T13:25:09.837Z</time></trkpt><trkpt lat="43.2198683" lon="12.9511583"><ele>1160.0</ele><time>2026-04-04T13:25:11.837Z</time></trkpt><trkpt lat="43.2198567" lon="12.9510267"><ele>1155.4</ele><time>2026-04-04T13:25:13.833Z</time></trkpt><trkpt lat="43.2198333" lon="12.9508733"><ele>1150.8</ele><time>2026-04-04T13:25:15.837Z</time></trkpt><trkpt lat="43.2197983" lon="12.9507533"><ele>1146.2</ele><time>2026-04-04T13:25:17.836Z</time></trkpt><trkpt lat="43.2197417" lon="12.95062"><ele>1141.6</ele><time>2026-04-04T13:25:19.836Z</time></trkpt><trkpt lat="43.2196967" lon="12.9505067"><ele>1137.0</ele><time>2026-04-04T13:25:21.837Z</time></trkpt><trkpt lat="43.2196667" lon="12.9504117"><ele>1136.4</ele><time>2026-04-04T13:25:23.834Z</time></trkpt><trkpt lat="43.219625" lon="12.9503217"><ele>1135.8000000000002</ele><time>2026-04-04T13:25:25.835Z</time></trkpt><trkpt lat="43.21957" lon="12.9502417"><ele>1135.2</ele><time>2026-04-04T13:25:27.835Z</time></trkpt><trkpt lat="43.21947" lon="12.9501967"><ele>1134.6000000000001</ele><time>2026-04-04T13:25:29.831Z</time></trkpt><trkpt lat="43.219355" lon="12.9501817"><ele>1134.0</ele><time>2026-04-04T13:25:31.836Z</time></trkpt><trkpt lat="43.2192367" lon="12.9502117"><ele>1134.0</ele><time>2026-04-04T13:25:33.834Z</time></trkpt><trkpt lat="43.219125" lon="12.9502933"><ele>1134.0</ele><time>2026-04-04T13:25:35.833Z</time></trkpt><trkpt lat="43.21901" lon="12.9503967"><ele>1134.0</ele><time>2026-04-04T13:25:37.836Z</time></trkpt><trkpt lat="43.2189383" lon="12.950465"><ele>1134.0</ele><time>2026-04-04T13:25:38.835Z</time></trkpt><trkpt lat="43.21887" lon="12.950525"><ele>1134.0</ele><time>2026-04-04T13:25:39.833Z</time></trkpt><trkpt lat="43.2188033" lon="12.9505683"><ele>1133.1666666666667</ele><time>2026-04-04T13:25:40.833Z</time></trkpt><trkpt lat="43.218735" lon="12.9505867"><ele>1132.3333333333333</ele><time>2026-04-04T13:25:41.834Z</time></trkpt><trkpt lat="43.2186617" lon="12.95059"><ele>1131.5</ele><time>2026-04-04T13:25:42.835Z</time></trkpt><trkpt lat="43.218585" lon="12.9505917"><ele>1130.6666666666665</ele><time>2026-04-04T13:25:43.835Z</time></trkpt><trkpt lat="43.218505" lon="12.9505967"><ele>1129.8333333333333</ele><time>2026-04-04T13:25:44.835Z</time></trkpt><trkpt lat="43.21842" lon="12.9505983"><ele>1129.0</ele><time>2026-04-04T13:25:45.833Z</time></trkpt><trkpt lat="43.2183367" lon="12.950595"><ele>1129.0</ele><time>2026-04-04T13:25:46.832Z</time></trkpt><trkpt lat="43.2182467" lon="12.95059"><ele>1129.0</ele><time>2026-04-04T13:25:47.834Z</time></trkpt><trkpt lat="43.2181617" lon="12.9505867"><ele>1129.0</ele><time>2026-04-04T13:25:48.835Z</time></trkpt><trkpt lat="43.2180833" lon="12.9505783"><ele>1129.0</ele><time>2026-04-04T13:25:49.835Z</time></trkpt><trkpt lat="43.218005" lon="12.9505683"><ele>1129.0</ele><time>2026-04-04T13:25:50.836Z</time></trkpt><trkpt lat="43.2179217" lon="12.950565"><ele>1129.0</ele><time>2026-04-04T13:25:51.837Z</time></trkpt><trkpt lat="43.2178367" lon="12.95057"><ele>1127.1666666666665</ele><time>2026-04-04T13:25:52.834Z</time></trkpt><trkpt lat="43.2177533" lon="12.95059"><ele>1125.3333333333333</ele><time>2026-04-04T13:25:53.833Z</time></trkpt><trkpt lat="43.2176733" lon="12.9506283"><ele>1123.5</ele><time>2026-04-04T13:25:54.835Z</time></trkpt><trkpt lat="43.217595" lon="12.9506833"><ele>1121.6666666666667</ele><time>2026-04-04T13:25:55.838Z</time></trkpt><trkpt lat="43.2175167" lon="12.9507433"><ele>1119.8333333333335</ele><time>2026-04-04T13:25:56.835Z</time></trkpt><trkpt lat="43.2174383" lon="12.9508033"><ele>1118.0</ele><time>2026-04-04T13:25:57.834Z</time></trkpt><trkpt lat="43.2173533" lon="12.9508683"><ele>1119.0</ele><time>2026-04-04T13:25:58.833Z</time></trkpt><trkpt lat="43.217265" lon="12.9509417"><ele>1120.0</ele><time>2026-04-04T13:25:59.833Z</time></trkpt><trkpt lat="43.217175" lon="12.9510233"><ele>1121.0</ele><time>2026-04-04T13:26:00.836Z</time></trkpt><trkpt lat="43.21708" lon="12.9511033"><ele>1122.0</ele><time>2026-04-04T13:26:01.833Z</time></trkpt><trkpt lat="43.2169817" lon="12.9511817"><ele>1123.0</ele><time>2026-04-04T13:26:02.834Z</time></trkpt><trkpt lat="43.216885" lon="12.95125"><ele>1123.0</ele><time>2026-04-04T13:26:03.833Z</time></trkpt><trkpt lat="43.2167967" lon="12.9513083"><ele>1123.0</ele><time>2026-04-04T13:26:04.834Z</time></trkpt><trkpt lat="43.2167133" lon="12.951355"><ele>1123.0</ele><time>2026-04-04T13:26:05.835Z</time></trkpt><trkpt lat="43.2166283" lon="12.9513933"><ele>1123.0</ele><time>2026-04-04T13:26:06.834Z</time></trkpt><trkpt lat="43.21655" lon="12.95142"><ele>1123.0</ele><time>2026-04-04T13:26:07.834Z</time></trkpt><trkpt lat="43.216485" lon="12.9514433"><ele>1123.0</ele><time>2026-04-04T13:26:08.835Z</time></trkpt><trkpt lat="43.2163983" lon="12.95151"><ele>1123.0</ele><time>2026-04-04T13:26:10.837Z</time></trkpt><trkpt lat="43.21635" lon="12.9515917"><ele>1123.0</ele><time>2026-04-04T13:26:12.837Z</time></trkpt><trkpt lat="43.2162767" lon="12.9516883"><ele>1123.0</ele><time>2026-04-04T13:26:14.837Z</time></trkpt><trkpt lat="43.2161867" lon="12.9517783"><ele>1123.0</ele><time>2026-04-04T13:26:16.836Z</time></trkpt><trkpt lat="43.21608" lon="12.9518667"><ele>1123.0</ele><time>2026-04-04T13:26:18.835Z</time></trkpt><trkpt lat="43.21602" lon="12.9519083"><ele>1123.0</ele><time>2026-04-04T13:26:19.836Z</time></trkpt><trkpt lat="43.2159583" lon="12.9519517"><ele>1123.0</ele><time>2026-04-04T13:26:20.837Z</time></trkpt><trkpt lat="43.2158967" lon="12.952"><ele>1123.0</ele><time>2026-04-04T13:26:21.835Z</time></trkpt><trkpt lat="43.215835" lon="12.95205"><ele>1123.0</ele><time>2026-04-04T13:26:22.835Z</time></trkpt><trkpt lat="43.21577" lon="12.9521"><ele>1123.0</ele><time>2026-04-04T13:26:23.835Z</time></trkpt><trkpt lat="43.2156983" lon="12.9521517"><ele>1123.0</ele><time>2026-04-04T13:26:24.838Z</time></trkpt><trkpt lat="43.2156283" lon="12.952215"><ele>1122.5</ele><time>2026-04-04T13:26:25.837Z</time></trkpt><trkpt lat="43.2155633" lon="12.9522817"><ele>1122.0</ele><time>2026-04-04T13:26:26.839Z</time></trkpt><trkpt lat="43.2155" lon="12.952355"><ele>1121.5</ele><time>2026-04-04T13:26:27.836Z</time></trkpt><trkpt lat="43.2154317" lon="12.95243"><ele>1121.0</ele><time>2026-04-04T13:26:28.835Z</time></trkpt><trkpt lat="43.2153667" lon="12.952505"><ele>1120.5</ele><time>2026-04-04T13:26:29.837Z</time></trkpt><trkpt lat="43.2153017" lon="12.9525833"><ele>1120.0</ele><time>2026-04-04T13:26:30.837Z</time></trkpt><trkpt lat="43.2152367" lon="12.9526617"><ele>1120.0</ele><time>2026-04-04T13:26:31.837Z</time></trkpt><trkpt lat="43.2151683" lon="12.9527383"><ele>1120.0</ele><time>2026-04-04T13:26:32.836Z</time></trkpt><trkpt lat="43.2150983" lon="12.95281"><ele>1120.0</ele><time>2026-04-04T13:26:33.836Z</time></trkpt><trkpt lat="43.2150217" lon="12.95288"><ele>1120.0</ele><time>2026-04-04T13:26:34.835Z</time></trkpt><trkpt lat="43.2149533" lon="12.9529417"><ele>1120.0</ele><time>2026-04-04T13:26:35.834Z</time></trkpt><trkpt lat="43.2148867" lon="12.9530017"><ele>1120.0</ele><time>2026-04-04T13:26:36.834Z</time></trkpt><trkpt lat="43.21482" lon="12.9530633"><ele>1117.7142857142858</ele><time>2026-04-04T13:26:37.835Z</time></trkpt><trkpt lat="43.2147583" lon="12.953125"><ele>1115.4285714285716</ele><time>2026-04-04T13:26:38.829Z</time></trkpt><trkpt lat="43.2147" lon="12.953185"><ele>1113.142857142857</ele><time>2026-04-04T13:26:39.833Z</time></trkpt><trkpt lat="43.2146433" lon="12.9532417"><ele>1110.857142857143</ele><time>2026-04-04T13:26:40.837Z</time></trkpt><trkpt lat="43.21459" lon="12.9532917"><ele>1108.5714285714287</ele><time>2026-04-04T13:26:41.836Z</time></trkpt><trkpt lat="43.2145367" lon="12.9533433"><ele>1106.2857142857142</ele><time>2026-04-04T13:26:42.836Z</time></trkpt><trkpt lat="43.2144767" lon="12.9534"><ele>1104.0</ele><time>2026-04-04T13:26:43.834Z</time></trkpt><trkpt lat="43.2144117" lon="12.9534583"><ele>1104.0</ele><time>2026-04-04T13:26:44.836Z</time></trkpt><trkpt lat="43.2143433" lon="12.9535133"><ele>1104.0</ele><time>2026-04-04T13:26:45.834Z</time></trkpt><trkpt lat="43.2142683" lon="12.9535733"><ele>1104.0</ele><time>2026-04-04T13:26:46.839Z</time></trkpt><trkpt lat="43.2141833" lon="12.953635"><ele>1104.0</ele><time>2026-04-04T13:26:47.835Z</time></trkpt><trkpt lat="43.2140917" lon="12.9536933"><ele>1104.0</ele><time>2026-04-04T13:26:48.834Z</time></trkpt><trkpt lat="43.2140017" lon="12.9537517"><ele>1102.6666666666667</ele><time>2026-04-04T13:26:49.835Z</time></trkpt><trkpt lat="43.2139167" lon="12.953805"><ele>1101.3333333333333</ele><time>2026-04-04T13:26:50.836Z</time></trkpt><trkpt lat="43.21383" lon="12.9538433"><ele>1100.0</ele><time>2026-04-04T13:26:51.835Z</time></trkpt><trkpt lat="43.2137483" lon="12.95386"><ele>1098.6666666666665</ele><time>2026-04-04T13:26:52.835Z</time></trkpt><trkpt lat="43.21367" lon="12.95386"><ele>1097.3333333333333</ele><time>2026-04-04T13:26:53.836Z</time></trkpt><trkpt lat="43.2135967" lon="12.95385"><ele>1096.0</ele><time>2026-04-04T13:26:54.836Z</time></trkpt><trkpt lat="43.2135283" lon="12.95384"><ele>1096.0000000000002</ele><time>2026-04-04T13:26:55.837Z</time></trkpt><trkpt lat="43.2134617" lon="12.9538317"><ele>1096.0</ele><time>2026-04-04T13:26:56.837Z</time></trkpt><trkpt lat="43.213395" lon="12.9538367"><ele>1096.0</ele><time>2026-04-04T13:26:57.834Z</time></trkpt><trkpt lat="43.2133317" lon="12.953855"><ele>1096.0</ele><time>2026-04-04T13:26:58.836Z</time></trkpt><trkpt lat="43.21327" lon="12.9538783"><ele>1096.0</ele><time>2026-04-04T13:26:59.836Z</time></trkpt><trkpt lat="43.2132" lon="12.9539133"><ele>1096.0000000000002</ele><time>2026-04-04T13:27:00.836Z</time></trkpt><trkpt lat="43.2131267" lon="12.953945"><ele>1096.0</ele><time>2026-04-04T13:27:01.834Z</time></trkpt><trkpt lat="43.2130483" lon="12.9539767"><ele>1094.0</ele><time>2026-04-04T13:27:02.836Z</time></trkpt><trkpt lat="43.2129683" lon="12.9540083"><ele>1092.0</ele><time>2026-04-04T13:27:03.835Z</time></trkpt><trkpt lat="43.21288" lon="12.9540417"><ele>1090.0</ele><time>2026-04-04T13:27:04.835Z</time></trkpt><trkpt lat="43.2127933" lon="12.9540733"><ele>1088.0</ele><time>2026-04-04T13:27:05.837Z</time></trkpt><trkpt lat="43.2127083" lon="12.9541067"><ele>1086.0</ele><time>2026-04-04T13:27:06.834Z</time></trkpt><trkpt lat="43.2126383" lon="12.9541417"><ele>1084.0</ele><time>2026-04-04T13:27:07.836Z</time></trkpt><trkpt lat="43.21258" lon="12.9541783"><ele>1085.0</ele><time>2026-04-04T13:27:08.837Z</time></trkpt><trkpt lat="43.212475" lon="12.9542467"><ele>1086.0</ele><time>2026-04-04T13:27:10.836Z</time></trkpt><trkpt lat="43.21237" lon="12.9543017"><ele>1087.0</ele><time>2026-04-04T13:27:12.837Z</time></trkpt><trkpt lat="43.2123083" lon="12.9543383"><ele>1088.0</ele><time>2026-04-04T13:27:13.836Z</time></trkpt><trkpt lat="43.21224" lon="12.9543767"><ele>1089.0</ele><time>2026-04-04T13:27:14.836Z</time></trkpt><trkpt lat="43.2121717" lon="12.9544317"><ele>1090.0</ele><time>2026-04-04T13:27:15.834Z</time></trkpt><trkpt lat="43.2120983" lon="12.9544933"><ele>1090.0</ele><time>2026-04-04T13:27:16.837Z</time></trkpt><trkpt lat="43.2120233" lon="12.9545617"><ele>1090.0</ele><time>2026-04-04T13:27:17.836Z</time></trkpt><trkpt lat="43.2119483" lon="12.954635"><ele>1090.0</ele><time>2026-04-04T13:27:18.835Z</time></trkpt><trkpt lat="43.21187" lon="12.9547067"><ele>1090.0</ele><time>2026-04-04T13:27:19.835Z</time></trkpt><trkpt lat="43.2117917" lon="12.9547717"><ele>1090.0</ele><time>2026-04-04T13:27:20.835Z</time></trkpt><trkpt lat="43.2117117" lon="12.95483"><ele>1090.0</ele><time>2026-04-04T13:27:21.834Z</time></trkpt><trkpt lat="43.2116283" lon="12.9548933"><ele>1090.0</ele><time>2026-04-04T13:27:22.834Z</time></trkpt><trkpt lat="43.21154" lon="12.95497"><ele>1090.0</ele><time>2026-04-04T13:27:23.835Z</time></trkpt><trkpt lat="43.2114517" lon="12.95504"><ele>1090.0</ele><time>2026-04-04T13:27:24.835Z</time></trkpt><trkpt lat="43.2113683" lon="12.955105"><ele>1090.0</ele><time>2026-04-04T13:27:25.836Z</time></trkpt><trkpt lat="43.2112883" lon="12.955165"><ele>1095.1666666666665</ele><time>2026-04-04T13:27:26.836Z</time></trkpt><trkpt lat="43.2112083" lon="12.95521"><ele>1100.3333333333333</ele><time>2026-04-04T13:27:27.835Z</time></trkpt><trkpt lat="43.2111217" lon="12.95524"><ele>1105.5</ele><time>2026-04-04T13:27:28.835Z</time></trkpt><trkpt lat="43.2110333" lon="12.9552667"><ele>1110.6666666666667</ele><time>2026-04-04T13:27:29.835Z</time></trkpt><trkpt lat="43.2109467" lon="12.9552967"><ele>1115.8333333333335</ele><time>2026-04-04T13:27:30.835Z</time></trkpt><trkpt lat="43.2108683" lon="12.95532"><ele>1121.0</ele><time>2026-04-04T13:27:31.835Z</time></trkpt><trkpt lat="43.21079" lon="12.9553"><ele>1121.0</ele><time>2026-04-04T13:27:32.838Z</time></trkpt><trkpt lat="43.21071" lon="12.955235"><ele>1121.0</ele><time>2026-04-04T13:27:33.834Z</time></trkpt><trkpt lat="43.2106383" lon="12.95516"><ele>1121.0</ele><time>2026-04-04T13:27:34.835Z</time></trkpt><trkpt lat="43.210565" lon="12.9550967"><ele>1121.0</ele><time>2026-04-04T13:27:35.836Z</time></trkpt><trkpt lat="43.2104933" lon="12.95506"><ele>1121.0</ele><time>2026-04-04T13:27:36.835Z</time></trkpt><trkpt lat="43.21037" lon="12.9550017"><ele>1117.6</ele><time>2026-04-04T13:27:38.831Z</time></trkpt><trkpt lat="43.2103017" lon="12.9549833"><ele>1114.1999999999998</ele><time>2026-04-04T13:27:39.834Z</time></trkpt><trkpt lat="43.2101933" lon="12.9549817"><ele>1110.8000000000002</ele><time>2026-04-04T13:27:41.836Z</time></trkpt><trkpt lat="43.210085" lon="12.9549767"><ele>1107.4</ele><time>2026-04-04T13:27:43.834Z</time></trkpt><trkpt lat="43.20997" lon="12.9549717"><ele>1104.0</ele><time>2026-04-04T13:27:45.835Z</time></trkpt><trkpt lat="43.2098667" lon="12.95497"><ele>1102.6666666666667</ele><time>2026-04-04T13:27:47.835Z</time></trkpt><trkpt lat="43.2097533" lon="12.9549783"><ele>1101.3333333333333</ele><time>2026-04-04T13:27:49.834Z</time></trkpt><trkpt lat="43.2096883" lon="12.9549733"><ele>1100.0</ele><time>2026-04-04T13:27:50.838Z</time></trkpt><trkpt lat="43.2096217" lon="12.9549633"><ele>1098.6666666666665</ele><time>2026-04-04T13:27:51.836Z</time></trkpt><trkpt lat="43.209555" lon="12.9549417"><ele>1097.3333333333333</ele><time>2026-04-04T13:27:52.836Z</time></trkpt><trkpt lat="43.2094517" lon="12.9549117"><ele>1096.0</ele><time>2026-04-04T13:27:54.838Z</time></trkpt><trkpt lat="43.20935" lon="12.9549033"><ele>1096.0</ele><time>2026-04-04T13:27:56.836Z</time></trkpt><trkpt lat="43.2092783" lon="12.9549117"><ele>1096.0</ele><time>2026-04-04T13:27:57.836Z</time></trkpt><trkpt lat="43.2091933" lon="12.954935"><ele>1096.0</ele><time>2026-04-04T13:27:58.835Z</time></trkpt><trkpt lat="43.2091067" lon="12.9549617"><ele>1096.0</ele><time>2026-04-04T13:27:59.83Z</time></trkpt><trkpt lat="43.209025" lon="12.9549867"><ele>1096.0</ele><time>2026-04-04T13:28:00.833Z</time></trkpt><trkpt lat="43.208955" lon="12.95501"><ele>1096.0</ele><time>2026-04-04T13:28:01.833Z</time></trkpt><trkpt lat="43.208835" lon="12.955075"><ele>1097.5</ele><time>2026-04-04T13:28:03.835Z</time></trkpt><trkpt lat="43.2087633" lon="12.9551233"><ele>1099.0</ele><time>2026-04-04T13:28:04.835Z</time></trkpt><trkpt lat="43.2086917" lon="12.9551733"><ele>1100.5</ele><time>2026-04-04T13:28:05.836Z</time></trkpt><trkpt lat="43.2086233" lon="12.9552233"><ele>1102.0</ele><time>2026-04-04T13:28:06.833Z</time></trkpt><trkpt lat="43.2085517" lon="12.95528"><ele>1103.5</ele><time>2026-04-04T13:28:07.834Z</time></trkpt><trkpt lat="43.2084717" lon="12.9553267"><ele>1105.0</ele><time>2026-04-04T13:28:08.837Z</time></trkpt><trkpt lat="43.2083917" lon="12.955365"><ele>1105.0</ele><time>2026-04-04T13:28:09.835Z</time></trkpt><trkpt lat="43.2083183" lon="12.9554017"><ele>1105.0</ele><time>2026-04-04T13:28:10.836Z</time></trkpt><trkpt lat="43.2082467" lon="12.955435"><ele>1105.0</ele><time>2026-04-04T13:28:11.834Z</time></trkpt><trkpt lat="43.2081867" lon="12.955465"><ele>1105.0</ele><time>2026-04-04T13:28:12.835Z</time></trkpt><trkpt lat="43.2080867" lon="12.9555117"><ele>1105.0</ele><time>2026-04-04T13:28:14.835Z</time></trkpt><trkpt lat="43.20798" lon="12.9555617"><ele>1105.0</ele><time>2026-04-04T13:28:16.834Z</time></trkpt><trkpt lat="43.2078633" lon="12.9556067"><ele>1103.4285714285713</ele><time>2026-04-04T13:28:18.835Z</time></trkpt><trkpt lat="43.2078033" lon="12.955635"><ele>1101.857142857143</ele><time>2026-04-04T13:28:19.829Z</time></trkpt><trkpt lat="43.2077417" lon="12.9556633"><ele>1100.2857142857142</ele><time>2026-04-04T13:28:20.836Z</time></trkpt><trkpt lat="43.20767" lon="12.955695"><ele>1098.7142857142858</ele><time>2026-04-04T13:28:21.836Z</time></trkpt><trkpt lat="43.207595" lon="12.9557217"><ele>1097.142857142857</ele><time>2026-04-04T13:28:22.828Z</time></trkpt><trkpt lat="43.20752" lon="12.9557333"><ele>1095.5714285714284</ele><time>2026-04-04T13:28:23.836Z</time></trkpt><trkpt lat="43.20744" lon="12.9557383"><ele>1094.0</ele><time>2026-04-04T13:28:24.835Z</time></trkpt><trkpt lat="43.2073533" lon="12.95575"><ele>1093.3333333333335</ele><time>2026-04-04T13:28:25.843Z</time></trkpt><trkpt lat="43.2072667" lon="12.9557667"><ele>1092.6666666666667</ele><time>2026-04-04T13:28:26.837Z</time></trkpt><trkpt lat="43.2071833" lon="12.9557867"><ele>1092.0</ele><time>2026-04-04T13:28:27.836Z</time></trkpt><trkpt lat="43.2071017" lon="12.9558083"><ele>1091.3333333333333</ele><time>2026-04-04T13:28:28.838Z</time></trkpt><trkpt lat="43.2070233" lon="12.955835"><ele>1090.6666666666665</ele><time>2026-04-04T13:28:29.834Z</time></trkpt><trkpt lat="43.206945" lon="12.95585"><ele>1090.0</ele><time>2026-04-04T13:28:30.834Z</time></trkpt><trkpt lat="43.2068683" lon="12.9558517"><ele>1090.0</ele><time>2026-04-04T13:28:31.835Z</time></trkpt><trkpt lat="43.2068" lon="12.95583"><ele>1090.0</ele><time>2026-04-04T13:28:32.836Z</time></trkpt><trkpt lat="43.2067433" lon="12.9557833"><ele>1090.0</ele><time>2026-04-04T13:28:33.831Z</time></trkpt><trkpt lat="43.20669" lon="12.95573"><ele>1090.0</ele><time>2026-04-04T13:28:34.834Z</time></trkpt><trkpt lat="43.2066367" lon="12.95567"><ele>1090.0</ele><time>2026-04-04T13:28:35.834Z</time></trkpt><trkpt lat="43.2065833" lon="12.9556117"><ele>1090.0</ele><time>2026-04-04T13:28:36.834Z</time></trkpt><trkpt lat="43.20653" lon="12.955555"><ele>1090.0</ele><time>2026-04-04T13:28:37.836Z</time></trkpt><trkpt lat="43.2064733" lon="12.9555017"><ele>1090.1666666666665</ele><time>2026-04-04T13:28:38.834Z</time></trkpt><trkpt lat="43.2064183" lon="12.9554517"><ele>1090.3333333333333</ele><time>2026-04-04T13:28:39.833Z</time></trkpt><trkpt lat="43.2063683" lon="12.9553983"><ele>1090.5</ele><time>2026-04-04T13:28:40.834Z</time></trkpt><trkpt lat="43.2063167" lon="12.9553383"><ele>1090.6666666666667</ele><time>2026-04-04T13:28:41.835Z</time></trkpt><trkpt lat="43.2062617" lon="12.9552683"><ele>1090.8333333333335</ele><time>2026-04-04T13:28:42.834Z</time></trkpt><trkpt lat="43.2061967" lon="12.9551883"><ele>1091.0</ele><time>2026-04-04T13:28:43.834Z</time></trkpt><trkpt lat="43.2061217" lon="12.9550883"><ele>1088.8333333333335</ele><time>2026-04-04T13:28:44.835Z</time></trkpt><trkpt lat="43.2060467" lon="12.95499"><ele>1086.6666666666667</ele><time>2026-04-04T13:28:45.835Z</time></trkpt><trkpt lat="43.20598" lon="12.9549083"><ele>1084.5</ele><time>2026-04-04T13:28:46.834Z</time></trkpt><trkpt lat="43.2059217" lon="12.95484"><ele>1082.3333333333333</ele><time>2026-04-04T13:28:47.834Z</time></trkpt><trkpt lat="43.2058683" lon="12.9547783"><ele>1080.1666666666665</ele><time>2026-04-04T13:28:48.835Z</time></trkpt><trkpt lat="43.2058167" lon="12.9547217"><ele>1078.0</ele><time>2026-04-04T13:28:49.834Z</time></trkpt><trkpt lat="43.20573" lon="12.9546"><ele>1078.0</ele><time>2026-04-04T13:28:51.834Z</time></trkpt><trkpt lat="43.20569" lon="12.9545333"><ele>1078.0</ele><time>2026-04-04T13:28:52.833Z</time></trkpt><trkpt lat="43.2056083" lon="12.9544133"><ele>1078.0</ele><time>2026-04-04T13:28:54.835Z</time></trkpt><trkpt lat="43.2055667" lon="12.954345"><ele>1078.0</ele><time>2026-04-04T13:28:55.836Z</time></trkpt><trkpt lat="43.20552" lon="12.9542667"><ele>1078.0</ele><time>2026-04-04T13:28:56.834Z</time></trkpt><trkpt lat="43.20547" lon="12.9541783"><ele>1078.0</ele><time>2026-04-04T13:28:57.837Z</time></trkpt><trkpt lat="43.205415" lon="12.9540883"><ele>1076.5</ele><time>2026-04-04T13:28:58.834Z</time></trkpt><trkpt lat="43.2053617" lon="12.9539933"><ele>1075.0</ele><time>2026-04-04T13:28:59.833Z</time></trkpt><trkpt lat="43.205315" lon="12.9538933"><ele>1073.5</ele><time>2026-04-04T13:29:00.836Z</time></trkpt><trkpt lat="43.205275" lon="12.9537933"><ele>1072.0</ele><time>2026-04-04T13:29:01.834Z</time></trkpt><trkpt lat="43.20524" lon="12.9537017"><ele>1070.5</ele><time>2026-04-04T13:29:02.835Z</time></trkpt><trkpt lat="43.2052017" lon="12.953615"><ele>1069.0</ele><time>2026-04-04T13:29:03.835Z</time></trkpt><trkpt lat="43.2051667" lon="12.9535267"><ele>1069.0</ele><time>2026-04-04T13:29:04.835Z</time></trkpt><trkpt lat="43.20513" lon="12.953435"><ele>1069.0</ele><time>2026-04-04T13:29:05.834Z</time></trkpt><trkpt lat="43.205095" lon="12.953345"><ele>1069.0</ele><time>2026-04-04T13:29:06.834Z</time></trkpt><trkpt lat="43.2050683" lon="12.9532583"><ele>1069.0</ele><time>2026-04-04T13:29:07.832Z</time></trkpt><trkpt lat="43.2050433" lon="12.953175"><ele>1069.0</ele><time>2026-04-04T13:29:08.836Z</time></trkpt><trkpt lat="43.204995" lon="12.9530517"><ele>1069.0</ele><time>2026-04-04T13:29:10.835Z</time></trkpt><trkpt lat="43.2049633" lon="12.9529233"><ele>1067.6666666666665</ele><time>2026-04-04T13:29:12.834Z</time></trkpt><trkpt lat="43.2049383" lon="12.9528417"><ele>1066.3333333333333</ele><time>2026-04-04T13:29:13.833Z</time></trkpt><trkpt lat="43.2048967" lon="12.95268"><ele>1065.0</ele><time>2026-04-04T13:29:15.835Z</time></trkpt><trkpt lat="43.2048783" lon="12.952595"><ele>1063.6666666666667</ele><time>2026-04-04T13:29:16.834Z</time></trkpt><trkpt lat="43.2048617" lon="12.9525067"><ele>1062.3333333333335</ele><time>2026-04-04T13:29:17.835Z</time></trkpt><trkpt lat="43.2048483" lon="12.9524183"><ele>1061.0</ele><time>2026-04-04T13:29:18.835Z</time></trkpt><trkpt lat="43.2048283" lon="12.9523267"><ele>1058.0</ele><time>2026-04-04T13:29:19.837Z</time></trkpt><trkpt lat="43.2048" lon="12.9522367"><ele>1055.0</ele><time>2026-04-04T13:29:20.837Z</time></trkpt><trkpt lat="43.2047583" lon="12.9521517"><ele>1052.0</ele><time>2026-04-04T13:29:21.834Z</time></trkpt><trkpt lat="43.20471" lon="12.9520767"><ele>1049.0</ele><time>2026-04-04T13:29:22.834Z</time></trkpt><trkpt lat="43.2046683" lon="12.95201"><ele>1046.0</ele><time>2026-04-04T13:29:23.837Z</time></trkpt><trkpt lat="43.2046117" lon="12.95191"><ele>1043.0</ele><time>2026-04-04T13:29:25.835Z</time></trkpt><trkpt lat="43.2045733" lon="12.95176"><ele>1042.4285714285713</ele><time>2026-04-04T13:32:31.831Z</time></trkpt><trkpt lat="43.2045617" lon="12.9516717"><ele>1041.857142857143</ele><time>2026-04-04T13:32:32.834Z</time></trkpt><trkpt lat="43.2045533" lon="12.9515733"><ele>1041.2857142857142</ele><time>2026-04-04T13:32:33.833Z</time></trkpt><trkpt lat="43.204555" lon="12.9514733"><ele>1040.7142857142858</ele><time>2026-04-04T13:32:34.835Z</time></trkpt><trkpt lat="43.2045633" lon="12.95137"><ele>1040.142857142857</ele><time>2026-04-04T13:32:35.833Z</time></trkpt><trkpt lat="43.204585" lon="12.9512717"><ele>1039.5714285714284</ele><time>2026-04-04T13:32:36.833Z</time></trkpt><trkpt lat="43.2046133" lon="12.9511833"><ele>1039.0</ele><time>2026-04-04T13:32:37.833Z</time></trkpt><trkpt lat="43.2046633" lon="12.9510383"><ele>1039.0</ele><time>2026-04-04T13:32:39.835Z</time></trkpt><trkpt lat="43.2047017" lon="12.9509133"><ele>1039.0</ele><time>2026-04-04T13:32:41.834Z</time></trkpt><trkpt lat="43.2047317" lon="12.950795"><ele>1039.0</ele><time>2026-04-04T13:32:43.835Z</time></trkpt><trkpt lat="43.2047467" lon="12.9506767"><ele>1039.0</ele><time>2026-04-04T13:32:45.833Z</time></trkpt><trkpt lat="43.204745" lon="12.9505567"><ele>1039.0</ele><time>2026-04-04T13:32:47.834Z</time></trkpt><trkpt lat="43.2047417" lon="12.9504583"><ele>1039.0</ele><time>2026-04-04T13:32:49.834Z</time></trkpt><trkpt lat="43.2047283" lon="12.9503533"><ele>1038.5</ele><time>2026-04-04T13:32:51.833Z</time></trkpt><trkpt lat="43.20471" lon="12.950255"><ele>1038.0</ele><time>2026-04-04T13:32:53.831Z</time></trkpt><trkpt lat="43.2046967" lon="12.95015"><ele>1037.5</ele><time>2026-04-04T13:32:55.834Z</time></trkpt><trkpt lat="43.2046567" lon="12.9500167"><ele>1037.0</ele><time>2026-04-04T13:32:57.83Z</time></trkpt><trkpt lat="43.20462" lon="12.9499"><ele>1036.5</ele><time>2026-04-04T13:32:59.833Z</time></trkpt><trkpt lat="43.20457" lon="12.94979"><ele>1036.0</ele><time>2026-04-04T13:33:02.835Z</time></trkpt><trkpt lat="43.2045167" lon="12.9496933"><ele>1039.5</ele><time>2026-04-04T13:33:04.833Z</time></trkpt><trkpt lat="43.2044633" lon="12.9496067"><ele>1043.0</ele><time>2026-04-04T13:33:06.834Z</time></trkpt><trkpt lat="43.2044383" lon="12.9495133"><ele>1046.5</ele><time>2026-04-04T13:33:08.836Z</time></trkpt><trkpt lat="43.204445" lon="12.949395"><ele>1050.0</ele><time>2026-04-04T13:33:10.833Z</time></trkpt><trkpt lat="43.2044533" lon="12.9492783"><ele>1053.5</ele><time>2026-04-04T13:33:12.834Z</time></trkpt><trkpt lat="43.20446" lon="12.9491617"><ele>1057.0</ele><time>2026-04-04T13:33:14.834Z</time></trkpt><trkpt lat="43.2044683" lon="12.9490633"><ele>1058.7142857142858</ele><time>2026-04-04T13:33:16.835Z</time></trkpt><trkpt lat="43.2044833" lon="12.9489667"><ele>1060.4285714285716</ele><time>2026-04-04T13:33:18.833Z</time></trkpt><trkpt lat="43.2045083" lon="12.9488667"><ele>1062.142857142857</ele><time>2026-04-04T13:33:20.835Z</time></trkpt><trkpt lat="43.2045333" lon="12.9487667"><ele>1063.857142857143</ele><time>2026-04-04T13:33:22.834Z</time></trkpt><trkpt lat="43.2045467" lon="12.9486633"><ele>1065.5714285714287</ele><time>2026-04-04T13:33:24.834Z</time></trkpt><trkpt lat="43.2045283" lon="12.9485683"><ele>1067.2857142857142</ele><time>2026-04-04T13:33:26.834Z</time></trkpt><trkpt lat="43.204485" lon="12.9484867"><ele>1069.0</ele><time>2026-04-04T13:33:28.833Z</time></trkpt><trkpt lat="43.2044067" lon="12.9484233"><ele>1069.0</ele><time>2026-04-04T13:33:31.833Z</time></trkpt><trkpt lat="43.2043217" lon="12.9484017"><ele>1069.0</ele><time>2026-04-04T13:33:34.834Z</time></trkpt><trkpt lat="43.2042317" lon="12.9483867"><ele>1069.0</ele><time>2026-04-04T13:33:36.834Z</time></trkpt><trkpt lat="43.2041233" lon="12.948365"><ele>1069.0</ele><time>2026-04-04T13:33:38.835Z</time></trkpt><trkpt lat="43.2040067" lon="12.9483517"><ele>1069.0</ele><time>2026-04-04T13:33:40.834Z</time></trkpt><trkpt lat="43.2039417" lon="12.948345"><ele>1066.6666666666665</ele><time>2026-04-04T13:33:41.836Z</time></trkpt><trkpt lat="43.2038767" lon="12.948335"><ele>1064.3333333333333</ele><time>2026-04-04T13:33:42.832Z</time></trkpt><trkpt lat="43.203775" lon="12.9483183"><ele>1062.0</ele><time>2026-04-04T13:33:44.835Z</time></trkpt><trkpt lat="43.2036783" lon="12.9483233"><ele>1059.6666666666667</ele><time>2026-04-04T13:33:46.833Z</time></trkpt><trkpt lat="43.2036133" lon="12.9483317"><ele>1057.3333333333335</ele><time>2026-04-04T13:33:47.834Z</time></trkpt><trkpt lat="43.20354" lon="12.9483467"><ele>1055.0</ele><time>2026-04-04T13:33:48.834Z</time></trkpt><trkpt lat="43.2034533" lon="12.9483633"><ele>1053.8</ele><time>2026-04-04T13:33:49.833Z</time></trkpt><trkpt lat="43.2033483" lon="12.948385"><ele>1052.6</ele><time>2026-04-04T13:33:50.836Z</time></trkpt><trkpt lat="43.20323" lon="12.94841"><ele>1051.4</ele><time>2026-04-04T13:33:51.834Z</time></trkpt><trkpt lat="43.2031183" lon="12.9484183"><ele>1050.2</ele><time>2026-04-04T13:33:52.834Z</time></trkpt><trkpt lat="43.2030067" lon="12.9484117"><ele>1049.0</ele><time>2026-04-04T13:33:53.835Z</time></trkpt><trkpt lat="43.202895" lon="12.94839"><ele>1048.75</ele><time>2026-04-04T13:33:54.834Z</time></trkpt><trkpt lat="43.2027833" lon="12.9483583"><ele>1048.5</ele><time>2026-04-04T13:33:55.834Z</time></trkpt><trkpt lat="43.2026733" lon="12.9483167"><ele>1048.25</ele><time>2026-04-04T13:33:56.836Z</time></trkpt><trkpt lat="43.202565" lon="12.94827"><ele>1048.0</ele><time>2026-04-04T13:33:57.833Z</time></trkpt><trkpt lat="43.2024583" lon="12.948215"><ele>1048.0</ele><time>2026-04-04T13:33:58.833Z</time></trkpt><trkpt lat="43.20235" lon="12.9481433"><ele>1048.0</ele><time>2026-04-04T13:33:59.833Z</time></trkpt><trkpt lat="43.2022433" lon="12.94807"><ele>1048.0</ele><time>2026-04-04T13:34:00.834Z</time></trkpt><trkpt lat="43.20214" lon="12.94801"><ele>1048.0</ele><time>2026-04-04T13:34:01.833Z</time></trkpt><trkpt lat="43.20203" lon="12.9479633"><ele>1045.6</ele><time>2026-04-04T13:34:02.835Z</time></trkpt><trkpt lat="43.201925" lon="12.9479183"><ele>1043.1999999999998</ele><time>2026-04-04T13:34:03.832Z</time></trkpt><trkpt lat="43.2018283" lon="12.94787"><ele>1040.8</ele><time>2026-04-04T13:34:04.832Z</time></trkpt><trkpt lat="43.2017417" lon="12.9478133"><ele>1038.3999999999999</ele><time>2026-04-04T13:34:05.834Z</time></trkpt><trkpt lat="43.2016617" lon="12.9477567"><ele>1036.0</ele><time>2026-04-04T13:34:06.832Z</time></trkpt><trkpt lat="43.2015867" lon="12.9476967"><ele>1036.0</ele><time>2026-04-04T13:34:07.834Z</time></trkpt><trkpt lat="43.20151" lon="12.94763"><ele>1036.0</ele><time>2026-04-04T13:34:08.83Z</time></trkpt><trkpt lat="43.20143" lon="12.9475583"><ele>1036.0</ele><time>2026-04-04T13:34:09.833Z</time></trkpt><trkpt lat="43.201355" lon="12.94749"><ele>1036.0</ele><time>2026-04-04T13:34:10.833Z</time></trkpt><trkpt lat="43.2012783" lon="12.9474217"><ele>1036.0</ele><time>2026-04-04T13:34:11.834Z</time></trkpt><trkpt lat="43.201205" lon="12.94735"><ele>1032.6666666666665</ele><time>2026-04-04T13:34:12.832Z</time></trkpt><trkpt lat="43.2011333" lon="12.94728"><ele>1029.3333333333333</ele><time>2026-04-04T13:34:13.833Z</time></trkpt><trkpt lat="43.2010667" lon="12.9472033"><ele>1026.0</ele><time>2026-04-04T13:34:14.833Z</time></trkpt><trkpt lat="43.2009967" lon="12.9471233"><ele>1022.6666666666667</ele><time>2026-04-04T13:34:15.834Z</time></trkpt><trkpt lat="43.2009333" lon="12.9470417"><ele>1019.3333333333334</ele><time>2026-04-04T13:34:16.834Z</time></trkpt><trkpt lat="43.2008783" lon="12.9469667"><ele>1016.0</ele><time>2026-04-04T13:34:17.833Z</time></trkpt><trkpt lat="43.2008317" lon="12.9468933"><ele>1016.0000000000001</ele><time>2026-04-04T13:34:18.832Z</time></trkpt><trkpt lat="43.2007833" lon="12.9468067"><ele>1016.0</ele><time>2026-04-04T13:34:19.832Z</time></trkpt><trkpt lat="43.2007317" lon="12.9467117"><ele>1016.0</ele><time>2026-04-04T13:34:20.835Z</time></trkpt><trkpt lat="43.2006867" lon="12.9466083"><ele>1016.0</ele><time>2026-04-04T13:34:21.834Z</time></trkpt><trkpt lat="43.2006483" lon="12.9465017"><ele>1016.0000000000001</ele><time>2026-04-04T13:34:22.834Z</time></trkpt><trkpt lat="43.2006233" lon="12.9463867"><ele>1016.0</ele><time>2026-04-04T13:34:23.832Z</time></trkpt><trkpt lat="43.2006083" lon="12.9462717"><ele>1011.1428571428571</ele><time>2026-04-04T13:34:24.832Z</time></trkpt><trkpt lat="43.200595" lon="12.9461667"><ele>1006.2857142857142</ele><time>2026-04-04T13:34:25.832Z</time></trkpt><trkpt lat="43.20058" lon="12.946065"><ele>1001.4285714285713</ele><time>2026-04-04T13:34:26.837Z</time></trkpt><trkpt lat="43.20055" lon="12.94598"><ele>996.5714285714286</ele><time>2026-04-04T13:34:27.834Z</time></trkpt><trkpt lat="43.2005017" lon="12.945915"><ele>991.7142857142856</ele><time>2026-04-04T13:34:28.836Z</time></trkpt><trkpt lat="43.200445" lon="12.945865"><ele>986.8571428571428</ele><time>2026-04-04T13:34:29.833Z</time></trkpt><trkpt lat="43.2003867" lon="12.9458183"><ele>982.0</ele><time>2026-04-04T13:34:30.833Z</time></trkpt><trkpt lat="43.2002833" lon="12.9457467"><ele>980.8</ele><time>2026-04-04T13:34:32.836Z</time></trkpt><trkpt lat="43.20022" lon="12.9456483"><ele>979.6</ele><time>2026-04-04T13:34:34.833Z</time></trkpt><trkpt lat="43.2002183" lon="12.9455067"><ele>978.3999999999999</ele><time>2026-04-04T13:34:36.834Z</time></trkpt><trkpt lat="43.2002567" lon="12.9453517"><ele>977.1999999999999</ele><time>2026-04-04T13:34:38.835Z</time></trkpt><trkpt lat="43.2002867" lon="12.945275"><ele>976.0</ele><time>2026-04-04T13:34:39.833Z</time></trkpt><trkpt lat="43.2003183" lon="12.9451133"><ele>974.4</ele><time>2026-04-04T13:34:41.835Z</time></trkpt><trkpt lat="43.2003033" lon="12.9449383"><ele>972.8</ele><time>2026-04-04T13:34:43.834Z</time></trkpt><trkpt lat="43.200265" lon="12.9447883"><ele>971.1999999999999</ele><time>2026-04-04T13:34:45.833Z</time></trkpt><trkpt lat="43.200175" lon="12.944665"><ele>969.5999999999999</ele><time>2026-04-04T13:34:47.834Z</time></trkpt><trkpt lat="43.2001267" lon="12.9446017"><ele>968.0</ele><time>2026-04-04T13:34:48.837Z</time></trkpt><trkpt lat="43.200055" lon="12.9444617"><ele>968.0000000000001</ele><time>2026-04-04T13:34:50.841Z</time></trkpt><trkpt lat="43.20002" lon="12.9443783"><ele>968.0</ele><time>2026-04-04T13:34:51.834Z</time></trkpt><trkpt lat="43.199985" lon="12.94428"><ele>968.0</ele><time>2026-04-04T13:34:52.834Z</time></trkpt><trkpt lat="43.199945" lon="12.944175"><ele>968.0</ele><time>2026-04-04T13:34:53.837Z</time></trkpt><trkpt lat="43.199905" lon="12.9440717"><ele>968.0000000000001</ele><time>2026-04-04T13:34:54.834Z</time></trkpt><trkpt lat="43.1998667" lon="12.9439667"><ele>968.0</ele><time>2026-04-04T13:34:55.831Z</time></trkpt><trkpt lat="43.1998333" lon="12.94386"><ele>961.5000000000001</ele><time>2026-04-04T13:34:56.835Z</time></trkpt><trkpt lat="43.1998017" lon="12.9437617"><ele>955.0</ele><time>2026-04-04T13:34:57.832Z</time></trkpt><trkpt lat="43.199765" lon="12.9436683"><ele>948.5</ele><time>2026-04-04T13:34:58.833Z</time></trkpt><trkpt lat="43.199735" lon="12.9435733"><ele>942.0</ele><time>2026-04-04T13:34:59.834Z</time></trkpt><trkpt lat="43.1997183" lon="12.94349"><ele>935.5000000000001</ele><time>2026-04-04T13:35:00.833Z</time></trkpt><trkpt lat="43.1997267" lon="12.9433583"><ele>929.0</ele><time>2026-04-04T13:35:02.835Z</time></trkpt><trkpt lat="43.199705" lon="12.9432067"><ele>928.0000000000001</ele><time>2026-04-04T13:35:04.833Z</time></trkpt><trkpt lat="43.1996717" lon="12.9431333"><ele>927.0</ele><time>2026-04-04T13:35:05.833Z</time></trkpt><trkpt lat="43.1996083" lon="12.9429983"><ele>926.0</ele><time>2026-04-04T13:35:07.833Z</time></trkpt><trkpt lat="43.199575" lon="12.9429083"><ele>925.0</ele><time>2026-04-04T13:35:08.836Z</time></trkpt><trkpt lat="43.1995367" lon="12.9428083"><ele>924.0000000000001</ele><time>2026-04-04T13:35:09.833Z</time></trkpt><trkpt lat="43.1995067" lon="12.94272"><ele>923.0</ele><time>2026-04-04T13:35:10.833Z</time></trkpt><trkpt lat="43.19945" lon="12.942585"><ele>922.5000000000001</ele><time>2026-04-04T13:35:12.829Z</time></trkpt><trkpt lat="43.1993833" lon="12.94245"><ele>922.0</ele><time>2026-04-04T13:35:14.837Z</time></trkpt><trkpt lat="43.19936" lon="12.9423683"><ele>921.5</ele><time>2026-04-04T13:35:15.832Z</time></trkpt><trkpt lat="43.199335" lon="12.9422483"><ele>921.0</ele><time>2026-04-04T13:35:17.835Z</time></trkpt><trkpt lat="43.1992617" lon="12.9422833"><ele>920.5000000000001</ele><time>2026-04-04T13:35:33.835Z</time></trkpt><trkpt lat="43.1992817" lon="12.942385"><ele>920.0</ele><time>2026-04-04T13:35:35.833Z</time></trkpt><trkpt lat="43.199295" lon="12.9425417"><ele>920.6</ele><time>2026-04-04T13:35:37.834Z</time></trkpt><trkpt lat="43.1992717" lon="12.9426633"><ele>921.2</ele><time>2026-04-04T13:35:39.834Z</time></trkpt><trkpt lat="43.1992117" lon="12.9427717"><ele>921.8</ele><time>2026-04-04T13:35:41.833Z</time></trkpt><trkpt lat="43.19917" lon="12.9429183"><ele>922.4</ele><time>2026-04-04T13:35:43.833Z</time></trkpt><trkpt lat="43.199145" lon="12.9430167"><ele>923.0</ele><time>2026-04-04T13:35:44.834Z</time></trkpt><trkpt lat="43.1991233" lon="12.94312"><ele>923.0</ele><time>2026-04-04T13:35:45.833Z</time></trkpt><trkpt lat="43.199105" lon="12.9432117"><ele>923.0</ele><time>2026-04-04T13:35:46.831Z</time></trkpt><trkpt lat="43.1990667" lon="12.94336"><ele>923.0</ele><time>2026-04-04T13:35:48.836Z</time></trkpt><trkpt lat="43.199045" lon="12.9435367"><ele>923.0</ele><time>2026-04-04T13:35:50.836Z</time></trkpt><trkpt lat="43.1990433" lon="12.9436317"><ele>923.0</ele><time>2026-04-04T13:35:51.835Z</time></trkpt><trkpt lat="43.1990467" lon="12.9437283"><ele>924.2</ele><time>2026-04-04T13:35:52.834Z</time></trkpt><trkpt lat="43.19905" lon="12.9438267"><ele>925.4</ele><time>2026-04-04T13:35:53.834Z</time></trkpt><trkpt lat="43.19905" lon="12.9439167"><ele>926.6000000000001</ele><time>2026-04-04T13:35:54.833Z</time></trkpt><trkpt lat="43.1990417" lon="12.94408"><ele>927.8000000000001</ele><time>2026-04-04T13:35:56.834Z</time></trkpt><trkpt lat="43.199015" lon="12.9442067"><ele>929.0</ele><time>2026-04-04T13:35:58.83Z</time></trkpt><trkpt lat="43.19897" lon="12.9443317"><ele>917.4000000000001</ele><time>2026-04-04T13:36:00.835Z</time></trkpt><trkpt lat="43.1989267" lon="12.9444783"><ele>905.8000000000001</ele><time>2026-04-04T13:36:02.833Z</time></trkpt><trkpt lat="43.198895" lon="12.944595"><ele>894.1999999999999</ele><time>2026-04-04T13:36:04.832Z</time></trkpt><trkpt lat="43.1988717" lon="12.94468"><ele>882.5999999999999</ele><time>2026-04-04T13:36:06.833Z</time></trkpt><trkpt lat="43.1988367" lon="12.9448"><ele>871.0</ele><time>2026-04-04T13:36:08.836Z</time></trkpt><trkpt lat="43.198795" lon="12.9449233"><ele>870.8333333333333</ele><time>2026-04-04T13:36:10.833Z</time></trkpt><trkpt lat="43.19876" lon="12.9450733"><ele>870.6666666666666</ele><time>2026-04-04T13:36:12.832Z</time></trkpt><trkpt lat="43.1987433" lon="12.9451683"><ele>870.5</ele><time>2026-04-04T13:36:13.834Z</time></trkpt><trkpt lat="43.1987217" lon="12.9452617"><ele>870.3333333333333</ele><time>2026-04-04T13:36:14.836Z</time></trkpt><trkpt lat="43.198705" lon="12.9453583"><ele>870.1666666666666</ele><time>2026-04-04T13:36:15.832Z</time></trkpt><trkpt lat="43.19869" lon="12.9454433"><ele>870.0</ele><time>2026-04-04T13:36:16.832Z</time></trkpt><trkpt lat="43.1986633" lon="12.9456"><ele>870.0</ele><time>2026-04-04T13:36:18.835Z</time></trkpt><trkpt lat="43.1986167" lon="12.9457517"><ele>870.0</ele><time>2026-04-04T13:36:20.836Z</time></trkpt><trkpt lat="43.1985883" lon="12.94583"><ele>870.0</ele><time>2026-04-04T13:36:21.834Z</time></trkpt><trkpt lat="43.1985417" lon="12.945975"><ele>870.0</ele><time>2026-04-04T13:36:23.833Z</time></trkpt><trkpt lat="43.1984767" lon="12.946085"><ele>870.0</ele><time>2026-04-04T13:36:25.832Z</time></trkpt><trkpt lat="43.198415" lon="12.94619"><ele>870.8333333333334</ele><time>2026-04-04T13:36:27.833Z</time></trkpt><trkpt lat="43.1983617" lon="12.94627"><ele>871.6666666666667</ele><time>2026-04-04T13:36:29.834Z</time></trkpt><trkpt lat="43.198305" lon="12.9463083"><ele>872.5</ele><time>2026-04-04T13:36:31.833Z</time></trkpt><trkpt lat="43.19825" lon="12.9463533"><ele>873.3333333333334</ele><time>2026-04-04T13:36:33.832Z</time></trkpt><trkpt lat="43.1981817" lon="12.9463783"><ele>874.1666666666667</ele><time>2026-04-04T13:36:36.832Z</time></trkpt><trkpt lat="43.1981383" lon="12.9462767"><ele>875.0</ele><time>2026-04-04T13:36:38.835Z</time></trkpt><trkpt lat="43.198115" lon="12.9461483"><ele>867.6666666666667</ele><time>2026-04-04T13:36:40.833Z</time></trkpt><trkpt lat="43.1981017" lon="12.9460567"><ele>860.3333333333334</ele><time>2026-04-04T13:36:42.836Z</time></trkpt><trkpt lat="43.198075" lon="12.945975"><ele>853.0</ele><time>2026-04-04T13:36:44.829Z</time></trkpt><trkpt lat="43.1980233" lon="12.9459017"><ele>845.6666666666667</ele><time>2026-04-04T13:36:46.834Z</time></trkpt><trkpt lat="43.1979817" lon="12.9458083"><ele>838.3333333333334</ele><time>2026-04-04T13:36:48.836Z</time></trkpt><trkpt lat="43.1978767" lon="12.945775"><ele>831.0</ele><time>2026-04-04T13:37:00.834Z</time></trkpt><trkpt lat="43.19783" lon="12.945835"><ele>831.0</ele><time>2026-04-04T13:37:04.827Z</time></trkpt><trkpt lat="43.1977833" lon="12.9459133"><ele>831.0</ele><time>2026-04-04T13:37:08.835Z</time></trkpt><trkpt lat="43.1977217" lon="12.94596"><ele>831.0</ele><time>2026-04-04T13:37:10.833Z</time></trkpt><trkpt lat="43.19765" lon="12.9460133"><ele>831.0</ele><time>2026-04-04T13:37:12.834Z</time></trkpt><trkpt lat="43.1975717" lon="12.9460783"><ele>831.0</ele><time>2026-04-04T13:37:14.832Z</time></trkpt><trkpt lat="43.1975" lon="12.946195"><ele>831.0</ele><time>2026-04-04T13:37:16.833Z</time></trkpt><trkpt lat="43.1974217" lon="12.94631"><ele>831.0</ele><time>2026-04-04T13:37:18.836Z</time></trkpt><trkpt lat="43.19737" lon="12.94637"><ele>831.0</ele><time>2026-04-04T13:37:20.834Z</time></trkpt><trkpt lat="43.1974067" lon="12.94619"><ele>831.0</ele><time>2026-04-04T13:42:33.834Z</time></trkpt><trkpt lat="43.197385" lon="12.9460517"><ele>831.0</ele><time>2026-04-04T13:42:35.835Z</time></trkpt><trkpt lat="43.1973733" lon="12.94595"><ele>831.0</ele><time>2026-04-04T13:42:36.835Z</time></trkpt><trkpt lat="43.1973583" lon="12.9458483"><ele>829.8571428571428</ele><time>2026-04-04T13:42:37.834Z</time></trkpt><trkpt lat="43.1973467" lon="12.9457433"><ele>828.7142857142857</ele><time>2026-04-04T13:42:38.835Z</time></trkpt><trkpt lat="43.197335" lon="12.9456383"><ele>827.5714285714286</ele><time>2026-04-04T13:42:39.834Z</time></trkpt><trkpt lat="43.19731" lon="12.9455417"><ele>826.4285714285713</ele><time>2026-04-04T13:42:40.829Z</time></trkpt><trkpt lat="43.1972783" lon="12.94545"><ele>825.2857142857143</ele><time>2026-04-04T13:42:41.833Z</time></trkpt><trkpt lat="43.19725" lon="12.9453717"><ele>824.1428571428571</ele><time>2026-04-04T13:42:42.829Z</time></trkpt><trkpt lat="43.1972233" lon="12.9452883"><ele>823.0</ele><time>2026-04-04T13:42:43.828Z</time></trkpt><trkpt lat="43.1971833" lon="12.9451433"><ele>815.2</ele><time>2026-04-04T13:42:45.833Z</time></trkpt><trkpt lat="43.1971783" lon="12.94501"><ele>807.4</ele><time>2026-04-04T13:42:47.834Z</time></trkpt><trkpt lat="43.1971817" lon="12.9448783"><ele>799.6</ele><time>2026-04-04T13:42:49.833Z</time></trkpt><trkpt lat="43.1971783" lon="12.944735"><ele>791.8000000000001</ele><time>2026-04-04T13:42:51.833Z</time></trkpt><trkpt lat="43.1971883" lon="12.9445817"><ele>784.0</ele><time>2026-04-04T13:42:53.834Z</time></trkpt><trkpt lat="43.1971933" lon="12.94445"><ele>783.9999999999999</ele><time>2026-04-04T13:42:55.838Z</time></trkpt><trkpt lat="43.1971833" lon="12.9443233"><ele>784.0</ele><time>2026-04-04T13:42:57.834Z</time></trkpt><trkpt lat="43.19716" lon="12.9442383"><ele>784.0</ele><time>2026-04-04T13:42:58.833Z</time></trkpt><trkpt lat="43.1971367" lon="12.9441517"><ele>784.0</ele><time>2026-04-04T13:42:59.836Z</time></trkpt><trkpt lat="43.19711" lon="12.94407"><ele>783.9999999999999</ele><time>2026-04-04T13:43:00.834Z</time></trkpt><trkpt lat="43.1970633" lon="12.9439167"><ele>784.0</ele><time>2026-04-04T13:43:02.836Z</time></trkpt><trkpt lat="43.19702" lon="12.94376"><ele>779.4000000000001</ele><time>2026-04-04T13:43:04.834Z</time></trkpt><trkpt lat="43.1969983" lon="12.9436783"><ele>774.8</ele><time>2026-04-04T13:43:05.835Z</time></trkpt><trkpt lat="43.1969767" lon="12.9435967"><ele>770.2</ele><time>2026-04-04T13:43:06.833Z</time></trkpt><trkpt lat="43.1969317" lon="12.9434517"><ele>765.5999999999999</ele><time>2026-04-04T13:43:08.834Z</time></trkpt><trkpt lat="43.1968617" lon="12.9433133"><ele>761.0</ele><time>2026-04-04T13:43:10.832Z</time></trkpt><trkpt lat="43.1968133" lon="12.9431833"><ele>758.5999999999999</ele><time>2026-04-04T13:43:12.831Z</time></trkpt><trkpt lat="43.1967667" lon="12.9430667"><ele>756.2</ele><time>2026-04-04T13:43:14.836Z</time></trkpt><trkpt lat="43.1966933" lon="12.9429233"><ele>753.8</ele><time>2026-04-04T13:43:16.835Z</time></trkpt><trkpt lat="43.196635" lon="12.9428433"><ele>751.4000000000001</ele><time>2026-04-04T13:43:17.835Z</time></trkpt><trkpt lat="43.1965767" lon="12.9427567"><ele>749.0</ele><time>2026-04-04T13:43:18.834Z</time></trkpt><trkpt lat="43.196525" lon="12.942665"><ele>742.5</ele><time>2026-04-04T13:43:19.833Z</time></trkpt><trkpt lat="43.1964783" lon="12.9425733"><ele>736.0</ele><time>2026-04-04T13:43:20.835Z</time></trkpt><trkpt lat="43.1964217" lon="12.9424917"><ele>729.5</ele><time>2026-04-04T13:43:21.834Z</time></trkpt><trkpt lat="43.1963467" lon="12.94242"><ele>723.0</ele><time>2026-04-04T13:43:22.834Z</time></trkpt><trkpt lat="43.1962667" lon="12.9423517"><ele>716.5</ele><time>2026-04-04T13:43:23.834Z</time></trkpt><trkpt lat="43.1961867" lon="12.9423"><ele>710.0</ele><time>2026-04-04T13:43:24.834Z</time></trkpt><trkpt lat="43.196115" lon="12.9422517"><ele>710.0</ele><time>2026-04-04T13:43:25.833Z</time></trkpt><trkpt lat="43.1960483" lon="12.9422033"><ele>710.0</ele><time>2026-04-04T13:43:26.835Z</time></trkpt><trkpt lat="43.1959833" lon="12.94215"><ele>710.0</ele><time>2026-04-04T13:43:27.833Z</time></trkpt><trkpt lat="43.195925" lon="12.9420933"><ele>710.0</ele><time>2026-04-04T13:43:28.834Z</time></trkpt><trkpt lat="43.1958683" lon="12.94203"><ele>710.0</ele><time>2026-04-04T13:43:29.835Z</time></trkpt><trkpt lat="43.195805" lon="12.9419533"><ele>710.0</ele><time>2026-04-04T13:43:30.835Z</time></trkpt><trkpt lat="43.1957367" lon="12.941885"><ele>708.5</ele><time>2026-04-04T13:43:31.835Z</time></trkpt><trkpt lat="43.1956633" lon="12.9418383"><ele>707.0</ele><time>2026-04-04T13:43:32.835Z</time></trkpt><trkpt lat="43.1955883" lon="12.9418067"><ele>705.5</ele><time>2026-04-04T13:43:33.833Z</time></trkpt><trkpt lat="43.1955233" lon="12.941765"><ele>704.0</ele><time>2026-04-04T13:43:34.833Z</time></trkpt><trkpt lat="43.1954583" lon="12.9417"><ele>702.5</ele><time>2026-04-04T13:43:35.836Z</time></trkpt><trkpt lat="43.1953833" lon="12.94164"><ele>701.0</ele><time>2026-04-04T13:43:36.834Z</time></trkpt><trkpt lat="43.195305" lon="12.9415867"><ele>701.0</ele><time>2026-04-04T13:43:37.832Z</time></trkpt><trkpt lat="43.195225" lon="12.941535"><ele>701.0</ele><time>2026-04-04T13:43:38.834Z</time></trkpt><trkpt lat="43.1951533" lon="12.94148"><ele>701.0</ele><time>2026-04-04T13:43:39.833Z</time></trkpt><trkpt lat="43.1950833" lon="12.941425"><ele>701.0</ele><time>2026-04-04T13:43:40.833Z</time></trkpt><trkpt lat="43.195005" lon="12.9413683"><ele>701.0</ele><time>2026-04-04T13:43:41.835Z</time></trkpt><trkpt lat="43.194935" lon="12.9413167"><ele>701.0</ele><time>2026-04-04T13:43:42.833Z</time></trkpt><trkpt lat="43.1948617" lon="12.9412717"><ele>694.3333333333333</ele><time>2026-04-04T13:43:43.833Z</time></trkpt><trkpt lat="43.1948033" lon="12.9412267"><ele>687.6666666666666</ele><time>2026-04-04T13:43:44.835Z</time></trkpt><trkpt lat="43.1947417" lon="12.941195"><ele>681.0</ele><time>2026-04-04T13:43:45.835Z</time></trkpt><trkpt lat="43.1946333" lon="12.9411567"><ele>674.3333333333334</ele><time>2026-04-04T13:43:47.832Z</time></trkpt><trkpt lat="43.194525" lon="12.9411167"><ele>667.6666666666667</ele><time>2026-04-04T13:43:49.833Z</time></trkpt><trkpt lat="43.19446" lon="12.9411133"><ele>661.0</ele><time>2026-04-04T13:43:50.834Z</time></trkpt><trkpt lat="43.19438" lon="12.9411083"><ele>661.0</ele><time>2026-04-04T13:43:51.833Z</time></trkpt><trkpt lat="43.1943033" lon="12.9411067"><ele>661.0</ele><time>2026-04-04T13:43:52.835Z</time></trkpt><trkpt lat="43.1942183" lon="12.9411017"><ele>661.0</ele><time>2026-04-04T13:43:53.834Z</time></trkpt><trkpt lat="43.1941467" lon="12.9411033"><ele>661.0</ele><time>2026-04-04T13:43:54.832Z</time></trkpt><trkpt lat="43.1940767" lon="12.9410983"><ele>661.0</ele><time>2026-04-04T13:43:55.836Z</time></trkpt><trkpt lat="43.1939983" lon="12.94109"><ele>661.0</ele><time>2026-04-04T13:43:56.837Z</time></trkpt><trkpt lat="43.1939233" lon="12.9410883"><ele>655.5</ele><time>2026-04-04T13:43:57.836Z</time></trkpt><trkpt lat="43.1938467" lon="12.9410767"><ele>650.0</ele><time>2026-04-04T13:43:58.834Z</time></trkpt><trkpt lat="43.19378" lon="12.9410767"><ele>644.5</ele><time>2026-04-04T13:43:59.835Z</time></trkpt><trkpt lat="43.1936533" lon="12.9410483"><ele>639.0</ele><time>2026-04-04T13:44:01.833Z</time></trkpt><trkpt lat="43.1935883" lon="12.941035"><ele>633.5</ele><time>2026-04-04T13:44:02.835Z</time></trkpt><trkpt lat="43.1935217" lon="12.94103"><ele>628.0</ele><time>2026-04-04T13:44:03.832Z</time></trkpt><trkpt lat="43.1934583" lon="12.941035"><ele>628.0</ele><time>2026-04-04T13:44:04.836Z</time></trkpt><trkpt lat="43.1933267" lon="12.941055"><ele>628.0</ele><time>2026-04-04T13:44:06.834Z</time></trkpt><trkpt lat="43.1932567" lon="12.9410683"><ele>628.0</ele><time>2026-04-04T13:44:07.835Z</time></trkpt><trkpt lat="43.19319" lon="12.9410717"><ele>628.0</ele><time>2026-04-04T13:44:08.835Z</time></trkpt><trkpt lat="43.1931233" lon="12.9410717"><ele>628.0</ele><time>2026-04-04T13:44:09.832Z</time></trkpt><trkpt lat="43.19306" lon="12.9410733"><ele>628.0</ele><time>2026-04-04T13:44:10.833Z</time></trkpt><trkpt lat="43.1929967" lon="12.9410867"><ele>624.0</ele><time>2026-04-04T13:44:11.836Z</time></trkpt><trkpt lat="43.1928883" lon="12.941095"><ele>620.0</ele><time>2026-04-04T13:44:13.834Z</time></trkpt><trkpt lat="43.1928067" lon="12.9411083"><ele>616.0</ele><time>2026-04-04T13:44:15.836Z</time></trkpt><trkpt lat="43.19289" lon="12.9412033"><ele>612.0</ele><time>2026-04-04T13:44:21.834Z</time></trkpt><trkpt lat="43.19294" lon="12.9412567"><ele>608.0</ele><time>2026-04-04T13:44:22.835Z</time></trkpt><trkpt lat="43.1930267" lon="12.941365"><ele>608.0</ele><time>2026-04-04T13:44:24.834Z</time></trkpt><trkpt lat="43.1931067" lon="12.941485"><ele>608.0</ele><time>2026-04-04T13:44:26.835Z</time></trkpt><trkpt lat="43.1931917" lon="12.9416083"><ele>608.0</ele><time>2026-04-04T13:44:28.834Z</time></trkpt><trkpt lat="43.193245" lon="12.9416667"><ele>608.0</ele><time>2026-04-04T13:44:29.833Z</time></trkpt><trkpt lat="43.193295" lon="12.9417267"><ele>608.0</ele><time>2026-04-04T13:44:30.833Z</time></trkpt><trkpt lat="43.193335" lon="12.9418033"><ele>608.0</ele><time>2026-04-04T13:44:31.833Z</time></trkpt><trkpt lat="43.1933733" lon="12.9418967"><ele>605.7142857142857</ele><time>2026-04-04T13:44:32.835Z</time></trkpt><trkpt lat="43.1934083" lon="12.9419817"><ele>603.4285714285714</ele><time>2026-04-04T13:44:33.834Z</time></trkpt><trkpt lat="43.193445" lon="12.9420617"><ele>601.1428571428571</ele><time>2026-04-04T13:44:34.835Z</time></trkpt><trkpt lat="43.19348" lon="12.94214"><ele>598.8571428571429</ele><time>2026-04-04T13:44:35.834Z</time></trkpt><trkpt lat="43.1935167" lon="12.942215"><ele>596.5714285714286</ele><time>2026-04-04T13:44:36.834Z</time></trkpt><trkpt lat="43.19355" lon="12.9423483"><ele>594.2857142857143</ele><time>2026-04-04T13:44:38.834Z</time></trkpt><trkpt lat="43.193505" lon="12.942425"><ele>592.0</ele><time>2026-04-04T13:44:40.834Z</time></trkpt><trkpt lat="43.1933867" lon="12.9424633"><ele>592.0</ele><time>2026-04-04T13:44:42.833Z</time></trkpt><trkpt lat="43.1933133" lon="12.9425083"><ele>592.0</ele><time>2026-04-04T13:44:43.832Z</time></trkpt><trkpt lat="43.1932367" lon="12.942555"><ele>592.0</ele><time>2026-04-04T13:44:44.835Z</time></trkpt><trkpt lat="43.19317" lon="12.9426067"><ele>592.0</ele><time>2026-04-04T13:44:45.832Z</time></trkpt><trkpt lat="43.1931067" lon="12.94266"><ele>592.0</ele><time>2026-04-04T13:44:46.833Z</time></trkpt><trkpt lat="43.1930383" lon="12.9427133"><ele>592.0</ele><time>2026-04-04T13:44:47.834Z</time></trkpt><trkpt lat="43.1929683" lon="12.9427533"><ele>586.5</ele><time>2026-04-04T13:44:48.834Z</time></trkpt><trkpt lat="43.1928983" lon="12.9427783"><ele>581.0</ele><time>2026-04-04T13:44:49.834Z</time></trkpt><trkpt lat="43.1928217" lon="12.9427917"><ele>575.5</ele><time>2026-04-04T13:44:50.834Z</time></trkpt><trkpt lat="43.1927383" lon="12.942815"><ele>570.0</ele><time>2026-04-04T13:44:51.833Z</time></trkpt><trkpt lat="43.192655" lon="12.942855"><ele>564.5</ele><time>2026-04-04T13:44:52.834Z</time></trkpt><trkpt lat="43.1925767" lon="12.9429067"><ele>559.0</ele><time>2026-04-04T13:44:53.833Z</time></trkpt><trkpt lat="43.1924983" lon="12.942965"><ele>559.0</ele><time>2026-04-04T13:44:54.833Z</time></trkpt><trkpt lat="43.192425" lon="12.943025"><ele>559.0</ele><time>2026-04-04T13:44:55.833Z</time></trkpt><trkpt lat="43.1923667" lon="12.943085"><ele>559.0</ele><time>2026-04-04T13:44:56.834Z</time></trkpt><trkpt lat="43.1923167" lon="12.943145"><ele>559.0</ele><time>2026-04-04T13:44:57.834Z</time></trkpt><trkpt lat="43.1922233" lon="12.9432483"><ele>559.0</ele><time>2026-04-04T13:44:59.834Z</time></trkpt><trkpt lat="43.1921183" lon="12.9433067"><ele>554.0</ele><time>2026-04-04T13:45:01.834Z</time></trkpt><trkpt lat="43.192" lon="12.94332"><ele>549.0</ele><time>2026-04-04T13:45:03.832Z</time></trkpt><trkpt lat="43.1919233" lon="12.9433217"><ele>544.0</ele><time>2026-04-04T13:45:04.832Z</time></trkpt><trkpt lat="43.19184" lon="12.94333"><ele>539.0</ele><time>2026-04-04T13:45:05.835Z</time></trkpt><trkpt lat="43.19175" lon="12.94333"><ele>534.0</ele><time>2026-04-04T13:45:06.834Z</time></trkpt><trkpt lat="43.1916567" lon="12.9433317"><ele>534.0</ele><time>2026-04-04T13:45:07.834Z</time></trkpt><trkpt lat="43.19156" lon="12.9433367"><ele>534.0</ele><time>2026-04-04T13:45:08.832Z</time></trkpt><trkpt lat="43.19147" lon="12.943355"><ele>534.0</ele><time>2026-04-04T13:45:09.835Z</time></trkpt><trkpt lat="43.1913733" lon="12.9433667"><ele>534.0</ele><time>2026-04-04T13:45:10.834Z</time></trkpt><trkpt lat="43.1912833" lon="12.9433867"><ele>534.0</ele><time>2026-04-04T13:45:11.835Z</time></trkpt><trkpt lat="43.1911917" lon="12.943405"><ele>530.8333333333334</ele><time>2026-04-04T13:45:12.832Z</time></trkpt><trkpt lat="43.191105" lon="12.9434217"><ele>527.6666666666666</ele><time>2026-04-04T13:45:13.833Z</time></trkpt><trkpt lat="43.1910367" lon="12.9434517"><ele>524.5</ele><time>2026-04-04T13:45:14.833Z</time></trkpt><trkpt lat="43.19097" lon="12.943485"><ele>521.3333333333333</ele><time>2026-04-04T13:45:15.832Z</time></trkpt><trkpt lat="43.190915" lon="12.9435283"><ele>518.1666666666666</ele><time>2026-04-04T13:45:16.833Z</time></trkpt><trkpt lat="43.190885" lon="12.9436817"><ele>515.0</ele><time>2026-04-04T13:45:18.833Z</time></trkpt><trkpt lat="43.19089" lon="12.943775"><ele>515.0</ele><time>2026-04-04T13:45:19.834Z</time></trkpt><trkpt lat="43.1909083" lon="12.9438817"><ele>515.0</ele><time>2026-04-04T13:45:20.834Z</time></trkpt><trkpt lat="43.1909033" lon="12.9439933"><ele>515.0</ele><time>2026-04-04T13:45:21.833Z</time></trkpt><trkpt lat="43.1908767" lon="12.9441017"><ele>515.0</ele><time>2026-04-04T13:45:22.833Z</time></trkpt><trkpt lat="43.19085" lon="12.9441983"><ele>515.0</ele><time>2026-04-04T13:45:23.833Z</time></trkpt><trkpt lat="43.1908133" lon="12.9442833"><ele>515.0</ele><time>2026-04-04T13:45:24.833Z</time></trkpt><trkpt lat="43.1907583" lon="12.9443483"><ele>516.3333333333333</ele><time>2026-04-04T13:45:25.833Z</time></trkpt><trkpt lat="43.1906767" lon="12.94438"><ele>517.6666666666666</ele><time>2026-04-04T13:45:26.835Z</time></trkpt><trkpt lat="43.1905933" lon="12.9444"><ele>519.0</ele><time>2026-04-04T13:45:27.833Z</time></trkpt><trkpt lat="43.1905017" lon="12.944405"><ele>520.3333333333334</ele><time>2026-04-04T13:45:28.835Z</time></trkpt><trkpt lat="43.1904183" lon="12.9443883"><ele>521.6666666666667</ele><time>2026-04-04T13:45:29.834Z</time></trkpt><trkpt lat="43.19034" lon="12.944365"><ele>523.0</ele><time>2026-04-04T13:45:30.833Z</time></trkpt><trkpt lat="43.1902617" lon="12.9443283"><ele>523.0</ele><time>2026-04-04T13:45:31.833Z</time></trkpt><trkpt lat="43.19018" lon="12.9442867"><ele>523.0</ele><time>2026-04-04T13:45:32.834Z</time></trkpt><trkpt lat="43.1900933" lon="12.9442483"><ele>523.0</ele><time>2026-04-04T13:45:33.833Z</time></trkpt><trkpt lat="43.1900067" lon="12.94422"><ele>523.0</ele><time>2026-04-04T13:45:34.834Z</time></trkpt><trkpt lat="43.189915" lon="12.9442033"><ele>523.0</ele><time>2026-04-04T13:45:35.834Z</time></trkpt><trkpt lat="43.1898283" lon="12.9441967"><ele>523.0</ele><time>2026-04-04T13:45:36.833Z</time></trkpt><trkpt lat="43.1897433" lon="12.9441967"><ele>520.0</ele><time>2026-04-04T13:45:37.834Z</time></trkpt><trkpt lat="43.1896583" lon="12.9442"><ele>517.0</ele><time>2026-04-04T13:45:38.834Z</time></trkpt><trkpt lat="43.1895733" lon="12.9442067"><ele>514.0</ele><time>2026-04-04T13:45:39.836Z</time></trkpt><trkpt lat="43.189495" lon="12.94421"><ele>511.0</ele><time>2026-04-04T13:45:40.833Z</time></trkpt><trkpt lat="43.1894233" lon="12.9442233"><ele>508.00000000000006</ele><time>2026-04-04T13:45:41.833Z</time></trkpt><trkpt lat="43.189315" lon="12.9442417"><ele>505.0</ele><time>2026-04-04T13:45:43.835Z</time></trkpt><trkpt lat="43.1892217" lon="12.94419"><ele>499.4</ele><time>2026-04-04T13:45:45.834Z</time></trkpt><trkpt lat="43.189175" lon="12.9441267"><ele>493.8</ele><time>2026-04-04T13:45:46.834Z</time></trkpt><trkpt lat="43.1891283" lon="12.9440533"><ele>488.20000000000005</ele><time>2026-04-04T13:45:47.834Z</time></trkpt><trkpt lat="43.1890233" lon="12.9439267"><ele>482.6</ele><time>2026-04-04T13:45:49.833Z</time></trkpt><trkpt lat="43.1889383" lon="12.9438733"><ele>477.0</ele><time>2026-04-04T13:45:50.835Z</time></trkpt><trkpt lat="43.1888517" lon="12.9438317"><ele>475.40000000000003</ele><time>2026-04-04T13:45:51.833Z</time></trkpt><trkpt lat="43.1887667" lon="12.9438033"><ele>473.80000000000007</ele><time>2026-04-04T13:45:52.833Z</time></trkpt><trkpt lat="43.1886783" lon="12.94379"><ele>472.2</ele><time>2026-04-04T13:45:53.833Z</time></trkpt><trkpt lat="43.1885867" lon="12.943785"><ele>470.6</ele><time>2026-04-04T13:45:54.834Z</time></trkpt><trkpt lat="43.1884933" lon="12.9437733"><ele>469.0</ele><time>2026-04-04T13:45:55.834Z</time></trkpt><trkpt lat="43.1883967" lon="12.943755"><ele>469.0</ele><time>2026-04-04T13:45:56.837Z</time></trkpt><trkpt lat="43.1882983" lon="12.943735"><ele>469.0</ele><time>2026-04-04T13:45:57.833Z</time></trkpt><trkpt lat="43.1882033" lon="12.9437017"><ele>469.0</ele><time>2026-04-04T13:45:58.834Z</time></trkpt><trkpt lat="43.1881117" lon="12.9436533"><ele>469.0</ele><time>2026-04-04T13:45:59.833Z</time></trkpt><trkpt lat="43.188035" lon="12.9435867"><ele>469.0</ele><time>2026-04-04T13:46:00.834Z</time></trkpt><trkpt lat="43.1879583" lon="12.9435117"><ele>467.6</ele><time>2026-04-04T13:46:01.833Z</time></trkpt><trkpt lat="43.1878867" lon="12.9434267"><ele>466.2</ele><time>2026-04-04T13:46:02.836Z</time></trkpt><trkpt lat="43.1878117" lon="12.9433417"><ele>464.80000000000007</ele><time>2026-04-04T13:46:03.834Z</time></trkpt><trkpt lat="43.1877433" lon="12.9432583"><ele>463.40000000000003</ele><time>2026-04-04T13:46:04.833Z</time></trkpt><trkpt lat="43.1876767" lon="12.943165"><ele>462.0</ele><time>2026-04-04T13:46:05.833Z</time></trkpt><trkpt lat="43.1876267" lon="12.9430683"><ele>460.6666666666667</ele><time>2026-04-04T13:46:06.834Z</time></trkpt><trkpt lat="43.1875867" lon="12.9429783"><ele>459.33333333333337</ele><time>2026-04-04T13:46:07.829Z</time></trkpt><trkpt lat="43.187535" lon="12.9428383"><ele>458.0</ele><time>2026-04-04T13:46:09.834Z</time></trkpt><trkpt lat="43.1875017" lon="12.9427483"><ele>456.6666666666667</ele><time>2026-04-04T13:46:11.834Z</time></trkpt><trkpt lat="43.18747" lon="12.942655"><ele>455.33333333333337</ele><time>2026-04-04T13:48:04.833Z</time></trkpt><trkpt lat="43.1874467" lon="12.94257"><ele>454.0</ele><time>2026-04-04T13:48:06.832Z</time></trkpt><trkpt lat="43.1874783" lon="12.9423917"><ele>454.0</ele><time>2026-04-04T13:48:08.834Z</time></trkpt><trkpt lat="43.1875" lon="12.94227"><ele>454.0</ele><time>2026-04-04T13:48:09.833Z</time></trkpt><trkpt lat="43.1874983" lon="12.9421317"><ele>454.0</ele><time>2026-04-04T13:48:10.831Z</time></trkpt><trkpt lat="43.1874733" lon="12.9419917"><ele>454.0</ele><time>2026-04-04T13:48:11.834Z</time></trkpt><trkpt lat="43.1874367" lon="12.9418517"><ele>454.0</ele><time>2026-04-04T13:48:12.834Z</time></trkpt><trkpt lat="43.1873933" lon="12.9417067"><ele>455.25</ele><time>2026-04-04T13:48:13.834Z</time></trkpt><trkpt lat="43.18735" lon="12.9415517"><ele>456.5</ele><time>2026-04-04T13:48:14.835Z</time></trkpt><trkpt lat="43.1872983" lon="12.9413917"><ele>457.75</ele><time>2026-04-04T13:48:15.835Z</time></trkpt><trkpt lat="43.18725" lon="12.9412333"><ele>459.0</ele><time>2026-04-04T13:48:16.835Z</time></trkpt><trkpt lat="43.1872017" lon="12.9410717"><ele>456.25</ele><time>2026-04-04T13:48:17.834Z</time></trkpt><trkpt lat="43.187155" lon="12.9409133"><ele>453.5</ele><time>2026-04-04T13:48:18.836Z</time></trkpt><trkpt lat="43.1871083" lon="12.9407633"><ele>450.75</ele><time>2026-04-04T13:48:19.836Z</time></trkpt><trkpt lat="43.1870633" lon="12.9406233"><ele>448.0</ele><time>2026-04-04T13:48:20.838Z</time></trkpt><trkpt lat="43.1870183" lon="12.9405033"><ele>448.0</ele><time>2026-04-04T13:48:21.836Z</time></trkpt><trkpt lat="43.18696" lon="12.94042"><ele>447.99999999999994</ele><time>2026-04-04T13:48:22.834Z</time></trkpt><trkpt lat="43.18689" lon="12.9403683"><ele>447.99999999999994</ele><time>2026-04-04T13:48:23.835Z</time></trkpt><trkpt lat="43.1868033" lon="12.94036"><ele>448.0</ele><time>2026-04-04T13:48:24.836Z</time></trkpt><trkpt lat="43.1867033" lon="12.9404167"><ele>448.0</ele><time>2026-04-04T13:48:25.835Z</time></trkpt><trkpt lat="43.1865983" lon="12.9405233"><ele>448.0</ele><time>2026-04-04T13:48:26.834Z</time></trkpt><trkpt lat="43.1865" lon="12.9406733"><ele>448.0</ele><time>2026-04-04T13:48:27.834Z</time></trkpt><trkpt lat="43.1864067" lon="12.9408233"><ele>448.0</ele><time>2026-04-04T13:48:28.834Z</time></trkpt><trkpt lat="43.1863183" lon="12.940975"><ele>448.0</ele><time>2026-04-04T13:48:29.834Z</time></trkpt><trkpt lat="43.1862183" lon="12.94111"><ele>447.75</ele><time>2026-04-04T13:48:30.835Z</time></trkpt><trkpt lat="43.1861083" lon="12.9412233"><ele>447.5</ele><time>2026-04-04T13:48:31.834Z</time></trkpt><trkpt lat="43.18599" lon="12.9412983"><ele>447.25</ele><time>2026-04-04T13:48:32.836Z</time></trkpt><trkpt lat="43.1858617" lon="12.9413417"><ele>447.0</ele><time>2026-04-04T13:48:33.834Z</time></trkpt><trkpt lat="43.1857267" lon="12.9413733"><ele>447.25</ele><time>2026-04-04T13:48:34.834Z</time></trkpt><trkpt lat="43.1855917" lon="12.9413983"><ele>447.5</ele><time>2026-04-04T13:48:35.835Z</time></trkpt><trkpt lat="43.1854583" lon="12.9414233"><ele>447.75</ele><time>2026-04-04T13:48:36.834Z</time></trkpt><trkpt lat="43.185325" lon="12.941445"><ele>448.0</ele><time>2026-04-04T13:48:37.835Z</time></trkpt><trkpt lat="43.1851967" lon="12.9414683"><ele>448.0</ele><time>2026-04-04T13:48:38.837Z</time></trkpt><trkpt lat="43.185075" lon="12.94148"><ele>447.99999999999994</ele><time>2026-04-04T13:48:39.835Z</time></trkpt><trkpt lat="43.1849633" lon="12.94149"><ele>447.99999999999994</ele><time>2026-04-04T13:48:40.835Z</time></trkpt><trkpt lat="43.18487" lon="12.9414983"><ele>448.0</ele><time>2026-04-04T13:48:41.834Z</time></trkpt><trkpt lat="43.1847917" lon="12.9415117"><ele>448.0</ele><time>2026-04-04T13:48:42.833Z</time></trkpt><trkpt lat="43.184725" lon="12.94152"><ele>448.0</ele><time>2026-04-04T13:48:43.835Z</time></trkpt><trkpt lat="43.1846183" lon="12.941515"><ele>447.99999999999994</ele><time>2026-04-04T13:48:45.834Z</time></trkpt><trkpt lat="43.1845433" lon="12.9415117"><ele>447.99999999999994</ele><time>2026-04-04T13:48:47.835Z</time></trkpt><trkpt lat="43.1844767" lon="12.9415183"><ele>448.0</ele><time>2026-04-04T13:48:49.834Z</time></trkpt><trkpt lat="43.18435" lon="12.94152"><ele>448.0</ele><time>2026-04-04T13:48:51.834Z</time></trkpt><trkpt lat="43.184275" lon="12.941495"><ele>448.00000000000006</ele><time>2026-04-04T13:48:52.834Z</time></trkpt><trkpt lat="43.184195" lon="12.9414617"><ele>448.0</ele><time>2026-04-04T13:48:53.835Z</time></trkpt><trkpt lat="43.18412" lon="12.9414283"><ele>448.0</ele><time>2026-04-04T13:48:54.836Z</time></trkpt><trkpt lat="43.1840533" lon="12.9413967"><ele>448.0</ele><time>2026-04-04T13:48:55.838Z</time></trkpt><trkpt lat="43.183985" lon="12.9413633"><ele>448.00000000000006</ele><time>2026-04-04T13:48:56.837Z</time></trkpt><trkpt lat="43.1839183" lon="12.9413267"><ele>448.0</ele><time>2026-04-04T13:48:57.836Z</time></trkpt><trkpt lat="43.1838467" lon="12.94129"><ele>448.2</ele><time>2026-04-04T13:48:58.833Z</time></trkpt><trkpt lat="43.18377" lon="12.9412517"><ele>448.4</ele><time>2026-04-04T13:48:59.836Z</time></trkpt><trkpt lat="43.1836833" lon="12.9412117"><ele>448.59999999999997</ele><time>2026-04-04T13:49:00.835Z</time></trkpt><trkpt lat="43.1835967" lon="12.9411683"><ele>448.79999999999995</ele><time>2026-04-04T13:49:01.834Z</time></trkpt><trkpt lat="43.1835033" lon="12.9411217"><ele>449.0</ele><time>2026-04-04T13:49:02.834Z</time></trkpt><trkpt lat="43.1834117" lon="12.94107"><ele>449.0</ele><time>2026-04-04T13:49:03.83Z</time></trkpt><trkpt lat="43.18331" lon="12.9410283"><ele>449.0</ele><time>2026-04-04T13:49:04.833Z</time></trkpt><trkpt lat="43.183215" lon="12.94099"><ele>449.0</ele><time>2026-04-04T13:49:05.832Z</time></trkpt><trkpt lat="43.1831183" lon="12.9409683"><ele>449.0</ele><time>2026-04-04T13:49:06.833Z</time></trkpt><trkpt lat="43.1830233" lon="12.94095"><ele>449.0</ele><time>2026-04-04T13:49:07.833Z</time></trkpt><trkpt lat="43.18293" lon="12.94094"><ele>449.2</ele><time>2026-04-04T13:49:08.836Z</time></trkpt><trkpt lat="43.1828383" lon="12.9409483"><ele>449.4</ele><time>2026-04-04T13:49:09.834Z</time></trkpt><trkpt lat="43.1827367" lon="12.9409683"><ele>449.6</ele><time>2026-04-04T13:49:10.834Z</time></trkpt><trkpt lat="43.1826217" lon="12.9410033"><ele>449.8</ele><time>2026-04-04T13:49:11.835Z</time></trkpt><trkpt lat="43.1825033" lon="12.9410467"><ele>450.0</ele><time>2026-04-04T13:49:12.835Z</time></trkpt><trkpt lat="43.182385" lon="12.9410967"><ele>452.5</ele><time>2026-04-04T13:49:13.834Z</time></trkpt><trkpt lat="43.18227" lon="12.941135"><ele>455.0</ele><time>2026-04-04T13:49:14.836Z</time></trkpt><trkpt lat="43.182155" lon="12.9411583"><ele>457.5</ele><time>2026-04-04T13:49:15.834Z</time></trkpt><trkpt lat="43.1820417" lon="12.9411483"><ele>460.0</ele><time>2026-04-04T13:49:16.833Z</time></trkpt><trkpt lat="43.1819367" lon="12.941105"><ele>460.0</ele><time>2026-04-04T13:49:17.834Z</time></trkpt><trkpt lat="43.1818317" lon="12.9410267"><ele>460.0</ele><time>2026-04-04T13:49:18.835Z</time></trkpt><trkpt lat="43.1817217" lon="12.94094"><ele>460.0</ele><time>2026-04-04T13:49:19.834Z</time></trkpt><trkpt lat="43.1816183" lon="12.94086"><ele>460.0</ele><time>2026-04-04T13:49:20.836Z</time></trkpt><trkpt lat="43.1815167" lon="12.940795"><ele>459.1666666666667</ele><time>2026-04-04T13:49:21.836Z</time></trkpt><trkpt lat="43.1814217" lon="12.9407417"><ele>458.33333333333337</ele><time>2026-04-04T13:49:22.833Z</time></trkpt><trkpt lat="43.181335" lon="12.9406933"><ele>457.5</ele><time>2026-04-04T13:49:23.835Z</time></trkpt><trkpt lat="43.1812567" lon="12.940645"><ele>456.66666666666663</ele><time>2026-04-04T13:49:24.834Z</time></trkpt><trkpt lat="43.181185" lon="12.940595"><ele>455.8333333333333</ele><time>2026-04-04T13:49:25.835Z</time></trkpt><trkpt lat="43.1811183" lon="12.940545"><ele>455.0</ele><time>2026-04-04T13:49:26.837Z</time></trkpt><trkpt lat="43.1810617" lon="12.940495"><ele>455.0</ele><time>2026-04-04T13:49:27.836Z</time></trkpt><trkpt lat="43.1809783" lon="12.9403867"><ele>455.0</ele><time>2026-04-04T13:49:29.836Z</time></trkpt><trkpt lat="43.180945" lon="12.9402183"><ele>455.0</ele><time>2026-04-04T13:49:31.833Z</time></trkpt><trkpt lat="43.1809483" lon="12.9400767"><ele>455.0</ele><time>2026-04-04T13:49:32.834Z</time></trkpt><trkpt lat="43.18098" lon="12.9399117"><ele>453.5</ele><time>2026-04-04T13:49:33.834Z</time></trkpt><trkpt lat="43.1810367" lon="12.9397383"><ele>452.0</ele><time>2026-04-04T13:49:34.833Z</time></trkpt><trkpt lat="43.1811267" lon="12.9395817"><ele>450.5</ele><time>2026-04-04T13:49:35.833Z</time></trkpt><trkpt lat="43.1812383" lon="12.93944"><ele>449.0</ele><time>2026-04-04T13:49:36.835Z</time></trkpt><trkpt lat="43.18135" lon="12.93929"><ele>449.0</ele><time>2026-04-04T13:49:37.836Z</time></trkpt><trkpt lat="43.1814433" lon="12.9391233"><ele>449.0</ele><time>2026-04-04T13:49:38.832Z</time></trkpt><trkpt lat="43.181525" lon="12.9389417"><ele>449.0</ele><time>2026-04-04T13:49:39.837Z</time></trkpt><trkpt lat="43.1816217" lon="12.9387683"><ele>449.0</ele><time>2026-04-04T13:49:40.833Z</time></trkpt><trkpt lat="43.181735" lon="12.9386133"><ele>449.0</ele><time>2026-04-04T13:49:41.833Z</time></trkpt><trkpt lat="43.181855" lon="12.938475"><ele>449.0</ele><time>2026-04-04T13:49:42.834Z</time></trkpt><trkpt lat="43.1819667" lon="12.9383483"><ele>452.0</ele><time>2026-04-04T13:49:43.833Z</time></trkpt><trkpt lat="43.1820783" lon="12.9382333"><ele>455.0</ele><time>2026-04-04T13:49:44.834Z</time></trkpt><trkpt lat="43.1821783" lon="12.9381233"><ele>458.0</ele><time>2026-04-04T13:49:45.834Z</time></trkpt><trkpt lat="43.182255" lon="12.9380117"><ele>461.0</ele><time>2026-04-04T13:49:46.834Z</time></trkpt><trkpt lat="43.182295" lon="12.9378933"><ele>461.0</ele><time>2026-04-04T13:49:47.834Z</time></trkpt><trkpt lat="43.18231" lon="12.9377583"><ele>461.0</ele><time>2026-04-04T13:49:48.834Z</time></trkpt><trkpt lat="43.18231" lon="12.9376167"><ele>461.0</ele><time>2026-04-04T13:49:49.833Z</time></trkpt><trkpt lat="43.1822983" lon="12.9374633"><ele>461.0</ele><time>2026-04-04T13:49:50.835Z</time></trkpt><trkpt lat="43.1822783" lon="12.93731"><ele>461.0</ele><time>2026-04-04T13:49:51.834Z</time></trkpt><trkpt lat="43.1822583" lon="12.9371617"><ele>464.4</ele><time>2026-04-04T13:49:52.833Z</time></trkpt><trkpt lat="43.1822433" lon="12.9370183"><ele>467.8</ele><time>2026-04-04T13:49:53.833Z</time></trkpt><trkpt lat="43.182235" lon="12.9368883"><ele>471.19999999999993</ele><time>2026-04-04T13:49:54.836Z</time></trkpt><trkpt lat="43.1822433" lon="12.93675"><ele>474.59999999999997</ele><time>2026-04-04T13:49:55.833Z</time></trkpt><trkpt lat="43.182275" lon="12.9366067"><ele>478.0</ele><time>2026-04-04T13:49:56.835Z</time></trkpt><trkpt lat="43.18232" lon="12.9364633"><ele>473.0</ele><time>2026-04-04T13:49:57.834Z</time></trkpt><trkpt lat="43.1823733" lon="12.9363333"><ele>467.99999999999994</ele><time>2026-04-04T13:49:58.834Z</time></trkpt><trkpt lat="43.182435" lon="12.936215"><ele>462.99999999999994</ele><time>2026-04-04T13:49:59.833Z</time></trkpt><trkpt lat="43.1825033" lon="12.9361133"><ele>458.0</ele><time>2026-04-04T13:50:00.833Z</time></trkpt><trkpt lat="43.18258" lon="12.93601"><ele>453.0</ele><time>2026-04-04T13:50:01.836Z</time></trkpt><trkpt lat="43.1826583" lon="12.9359067"><ele>456.2</ele><time>2026-04-04T13:50:02.833Z</time></trkpt><trkpt lat="43.182725" lon="12.9357933"><ele>459.4</ele><time>2026-04-04T13:50:03.834Z</time></trkpt><trkpt lat="43.1827817" lon="12.9356733"><ele>462.59999999999997</ele><time>2026-04-04T13:50:04.836Z</time></trkpt><trkpt lat="43.18284" lon="12.9355583"><ele>465.79999999999995</ele><time>2026-04-04T13:50:05.835Z</time></trkpt><trkpt lat="43.1829083" lon="12.93545"><ele>469.0</ele><time>2026-04-04T13:50:06.834Z</time></trkpt><trkpt lat="43.18298" lon="12.93534"><ele>469.0</ele><time>2026-04-04T13:50:07.834Z</time></trkpt><trkpt lat="43.1830383" lon="12.9352133"><ele>469.0</ele><time>2026-04-04T13:50:08.835Z</time></trkpt><trkpt lat="43.1830833" lon="12.9350767"><ele>469.0</ele><time>2026-04-04T13:50:09.834Z</time></trkpt><trkpt lat="43.1831183" lon="12.9349367"><ele>469.0</ele><time>2026-04-04T13:50:10.835Z</time></trkpt><trkpt lat="43.183145" lon="12.9348"><ele>469.0</ele><time>2026-04-04T13:50:11.834Z</time></trkpt><trkpt lat="43.183165" lon="12.934675"><ele>469.50000000000006</ele><time>2026-04-04T13:50:12.835Z</time></trkpt><trkpt lat="43.1831783" lon="12.93457"><ele>470.0</ele><time>2026-04-04T13:50:13.835Z</time></trkpt><trkpt lat="43.183185" lon="12.93444"><ele>470.5</ele><time>2026-04-04T13:50:15.834Z</time></trkpt><trkpt lat="43.183145" lon="12.93435"><ele>471.0</ele><time>2026-04-04T13:50:24.835Z</time></trkpt><trkpt lat="43.1830567" lon="12.9342333"><ele>471.50000000000006</ele><time>2026-04-04T13:50:26.836Z</time></trkpt><trkpt lat="43.1830083" lon="12.9341767"><ele>472.0</ele><time>2026-04-04T13:50:27.835Z</time></trkpt><trkpt lat="43.1829333" lon="12.9340767"><ele>470.0</ele><time>2026-04-04T13:50:29.836Z</time></trkpt><trkpt lat="43.18288" lon="12.933915"><ele>468.00000000000006</ele><time>2026-04-04T13:50:31.836Z</time></trkpt><trkpt lat="43.1828517" lon="12.9337983"><ele>466.00000000000006</ele><time>2026-04-04T13:50:32.837Z</time></trkpt><trkpt lat="43.1828167" lon="12.9336683"><ele>464.0</ele><time>2026-04-04T13:50:33.834Z</time></trkpt><trkpt lat="43.1827883" lon="12.9335283"><ele>462.0</ele><time>2026-04-04T13:50:34.833Z</time></trkpt><trkpt lat="43.1827717" lon="12.933385"><ele>461.40000000000003</ele><time>2026-04-04T13:50:35.835Z</time></trkpt><trkpt lat="43.1827583" lon="12.93324"><ele>460.80000000000007</ele><time>2026-04-04T13:50:36.834Z</time></trkpt><trkpt lat="43.182755" lon="12.9330933"><ele>460.2</ele><time>2026-04-04T13:50:37.835Z</time></trkpt><trkpt lat="43.182745" lon="12.9329417"><ele>459.6</ele><time>2026-04-04T13:50:38.835Z</time></trkpt><trkpt lat="43.1827333" lon="12.932795"><ele>459.0</ele><time>2026-04-04T13:50:39.835Z</time></trkpt><trkpt lat="43.182715" lon="12.932645"><ele>459.25</ele><time>2026-04-04T13:50:40.834Z</time></trkpt><trkpt lat="43.1827033" lon="12.932495"><ele>459.5</ele><time>2026-04-04T13:50:41.832Z</time></trkpt><trkpt lat="43.1827083" lon="12.93234"><ele>459.75</ele><time>2026-04-04T13:50:42.835Z</time></trkpt><trkpt lat="43.1827333" lon="12.9321883"><ele>460.0</ele><time>2026-04-04T13:50:43.834Z</time></trkpt><trkpt lat="43.1827783" lon="12.9320417"><ele>460.0</ele><time>2026-04-04T13:50:44.835Z</time></trkpt><trkpt lat="43.18284" lon="12.9318967"><ele>460.0</ele><time>2026-04-04T13:50:45.833Z</time></trkpt><trkpt lat="43.1828983" lon="12.9317567"><ele>460.0</ele><time>2026-04-04T13:50:46.834Z</time></trkpt><trkpt lat="43.1829483" lon="12.93161"><ele>460.0</ele><time>2026-04-04T13:50:47.836Z</time></trkpt><trkpt lat="43.1829867" lon="12.9314533"><ele>462.5</ele><time>2026-04-04T13:50:48.834Z</time></trkpt><trkpt lat="43.1830167" lon="12.931285"><ele>465.0</ele><time>2026-04-04T13:50:49.835Z</time></trkpt><trkpt lat="43.1830433" lon="12.9311167"><ele>467.5</ele><time>2026-04-04T13:50:50.834Z</time></trkpt><trkpt lat="43.1830533" lon="12.9309517"><ele>470.0</ele><time>2026-04-04T13:50:51.834Z</time></trkpt><trkpt lat="43.183065" lon="12.930795"><ele>470.2</ele><time>2026-04-04T13:50:52.835Z</time></trkpt><trkpt lat="43.183075" lon="12.930655"><ele>470.4</ele><time>2026-04-04T13:50:53.834Z</time></trkpt><trkpt lat="43.1830633" lon="12.9305333"><ele>470.6</ele><time>2026-04-04T13:50:54.833Z</time></trkpt><trkpt lat="43.1830233" lon="12.9304133"><ele>470.8</ele><time>2026-04-04T13:50:55.835Z</time></trkpt><trkpt lat="43.182955" lon="12.9303"><ele>471.0</ele><time>2026-04-04T13:50:56.836Z</time></trkpt><trkpt lat="43.1828683" lon="12.930205"><ele>471.0</ele><time>2026-04-04T13:50:57.831Z</time></trkpt><trkpt lat="43.1827633" lon="12.930125"><ele>471.0</ele><time>2026-04-04T13:50:58.832Z</time></trkpt><trkpt lat="43.1826617" lon="12.9300367"><ele>471.0</ele><time>2026-04-04T13:50:59.833Z</time></trkpt><trkpt lat="43.1825717" lon="12.9299267"><ele>471.0</ele><time>2026-04-04T13:51:00.833Z</time></trkpt><trkpt lat="43.1824967" lon="12.9298017"><ele>468.25</ele><time>2026-04-04T13:51:01.834Z</time></trkpt><trkpt lat="43.1824333" lon="12.9296633"><ele>465.5</ele><time>2026-04-04T13:51:02.835Z</time></trkpt><trkpt lat="43.1823883" lon="12.929515"><ele>462.75</ele><time>2026-04-04T13:51:03.835Z</time></trkpt><trkpt lat="43.1823667" lon="12.9293667"><ele>460.0</ele><time>2026-04-04T13:51:04.833Z</time></trkpt><trkpt lat="43.1823733" lon="12.9292183"><ele>459.2</ele><time>2026-04-04T13:51:05.834Z</time></trkpt><trkpt lat="43.1824017" lon="12.929075"><ele>458.4</ele><time>2026-04-04T13:51:06.834Z</time></trkpt><trkpt lat="43.1824333" lon="12.9289417"><ele>457.6</ele><time>2026-04-04T13:51:07.833Z</time></trkpt><trkpt lat="43.182455" lon="12.9288067"><ele>456.8</ele><time>2026-04-04T13:51:08.835Z</time></trkpt><trkpt lat="43.182455" lon="12.9286633"><ele>456.0</ele><time>2026-04-04T13:51:09.834Z</time></trkpt><trkpt lat="43.1824383" lon="12.9285117"><ele>456.5</ele><time>2026-04-04T13:51:10.836Z</time></trkpt><trkpt lat="43.182405" lon="12.92835"><ele>457.0</ele><time>2026-04-04T13:51:11.834Z</time></trkpt><trkpt lat="43.1823583" lon="12.9281817"><ele>457.5</ele><time>2026-04-04T13:51:12.834Z</time></trkpt><trkpt lat="43.18232" lon="12.9280017"><ele>458.0</ele><time>2026-04-04T13:51:13.834Z</time></trkpt><trkpt lat="43.1822917" lon="12.9278033"><ele>474.0</ele><time>2026-04-04T13:51:14.831Z</time></trkpt><trkpt lat="43.1822617" lon="12.927595"><ele>490.0</ele><time>2026-04-04T13:51:15.835Z</time></trkpt><trkpt lat="43.1822283" lon="12.9273867"><ele>506.0</ele><time>2026-04-04T13:51:16.833Z</time></trkpt><trkpt lat="43.1821917" lon="12.927185"><ele>506.0</ele><time>2026-04-04T13:51:17.835Z</time></trkpt><trkpt lat="43.1821583" lon="12.9269867"><ele>506.0</ele><time>2026-04-04T13:51:18.833Z</time></trkpt><trkpt lat="43.1821217" lon="12.9267933"><ele>506.0</ele><time>2026-04-04T13:51:19.835Z</time></trkpt><trkpt lat="43.182085" lon="12.9266067"><ele>506.0</ele><time>2026-04-04T13:51:20.835Z</time></trkpt><trkpt lat="43.182055" lon="12.9264217"><ele>504.0</ele><time>2026-04-04T13:51:21.834Z</time></trkpt><trkpt lat="43.18203" lon="12.9262317"><ele>502.0</ele><time>2026-04-04T13:51:22.834Z</time></trkpt><trkpt lat="43.1820117" lon="12.9260367"><ele>500.0</ele><time>2026-04-04T13:51:23.836Z</time></trkpt><trkpt lat="43.181995" lon="12.9258383"><ele>498.0</ele><time>2026-04-04T13:51:24.833Z</time></trkpt><trkpt lat="43.181985" lon="12.9256433"><ele>494.75</ele><time>2026-04-04T13:51:25.834Z</time></trkpt><trkpt lat="43.18198" lon="12.92545"><ele>491.5</ele><time>2026-04-04T13:51:26.836Z</time></trkpt><trkpt lat="43.1819867" lon="12.9252667"><ele>488.25</ele><time>2026-04-04T13:51:27.836Z</time></trkpt><trkpt lat="43.1820017" lon="12.9250983"><ele>485.0</ele><time>2026-04-04T13:51:28.835Z</time></trkpt><trkpt lat="43.1820117" lon="12.9249467"><ele>482.75</ele><time>2026-04-04T13:51:29.836Z</time></trkpt><trkpt lat="43.1820017" lon="12.9247983"><ele>480.5</ele><time>2026-04-04T13:51:30.835Z</time></trkpt><trkpt lat="43.181985" lon="12.92464"><ele>478.25</ele><time>2026-04-04T13:51:31.836Z</time></trkpt><trkpt lat="43.1819717" lon="12.92447"><ele>476.0</ele><time>2026-04-04T13:51:32.835Z</time></trkpt><trkpt lat="43.1819633" lon="12.924315"><ele>473.49999999999994</ele><time>2026-04-04T13:51:33.836Z</time></trkpt><trkpt lat="43.18196" lon="12.9241917"><ele>471.0</ele><time>2026-04-04T13:51:34.833Z</time></trkpt><trkpt lat="43.1819633" lon="12.9240967"><ele>468.5</ele><time>2026-04-04T13:51:35.834Z</time></trkpt><trkpt lat="43.1819617" lon="12.9240067"><ele>466.0</ele><time>2026-04-04T13:51:37.834Z</time></trkpt><trkpt lat="43.1819" lon="12.923925"><ele>463.49999999999994</ele><time>2026-04-04T13:51:40.835Z</time></trkpt><trkpt lat="43.1818367" lon="12.9238933"><ele>461.0</ele><time>2026-04-04T13:51:41.834Z</time></trkpt><trkpt lat="43.1817567" lon="12.9238633"><ele>461.0</ele><time>2026-04-04T13:51:42.833Z</time></trkpt><trkpt lat="43.181665" lon="12.9238333"><ele>461.0</ele><time>2026-04-04T13:51:43.835Z</time></trkpt><trkpt lat="43.1815667" lon="12.9238067"><ele>461.0</ele><time>2026-04-04T13:51:44.834Z</time></trkpt><trkpt lat="43.1814667" lon="12.9237817"><ele>461.0</ele><time>2026-04-04T13:51:45.829Z</time></trkpt><trkpt lat="43.181365" lon="12.9237567"><ele>461.0</ele><time>2026-04-04T13:51:46.834Z</time></trkpt><trkpt lat="43.1812633" lon="12.923725"><ele>462.8</ele><time>2026-04-04T13:51:47.832Z</time></trkpt><trkpt lat="43.18116" lon="12.9236933"><ele>464.6</ele><time>2026-04-04T13:51:48.836Z</time></trkpt><trkpt lat="43.181055" lon="12.9236617"><ele>466.4</ele><time>2026-04-04T13:51:49.833Z</time></trkpt><trkpt lat="43.1809483" lon="12.9236333"><ele>468.2</ele><time>2026-04-04T13:51:50.836Z</time></trkpt><trkpt lat="43.1808433" lon="12.9236133"><ele>470.0</ele><time>2026-04-04T13:51:51.835Z</time></trkpt><trkpt lat="43.1807367" lon="12.9235967"><ele>470.66666666666663</ele><time>2026-04-04T13:51:52.832Z</time></trkpt><trkpt lat="43.1806433" lon="12.92357"><ele>471.3333333333333</ele><time>2026-04-04T13:51:53.832Z</time></trkpt><trkpt lat="43.180555" lon="12.923555"><ele>472.0</ele><time>2026-04-04T13:51:54.834Z</time></trkpt><trkpt lat="43.1804717" lon="12.9235383"><ele>472.66666666666663</ele><time>2026-04-04T13:51:55.836Z</time></trkpt><trkpt lat="43.180405" lon="12.9235"><ele>473.3333333333333</ele><time>2026-04-04T13:51:56.835Z</time></trkpt><trkpt lat="43.1803367" lon="12.9234117"><ele>474.0</ele><time>2026-04-04T13:51:58.834Z</time></trkpt><trkpt lat="43.18036" lon="12.92331"><ele>470.0</ele><time>2026-04-04T13:52:00.834Z</time></trkpt><trkpt lat="43.1804217" lon="12.923225"><ele>466.0</ele><time>2026-04-04T13:52:01.834Z</time></trkpt><trkpt lat="43.180525" lon="12.92313"><ele>462.0</ele><time>2026-04-04T13:52:02.837Z</time></trkpt><trkpt lat="43.180625" lon="12.9230283"><ele>458.0</ele><time>2026-04-04T13:52:03.833Z</time></trkpt><trkpt lat="43.180725" lon="12.92292"><ele>457.25</ele><time>2026-04-04T13:52:04.834Z</time></trkpt><trkpt lat="43.1808317" lon="12.9228233"><ele>456.5</ele><time>2026-04-04T13:52:05.833Z</time></trkpt><trkpt lat="43.1809367" lon="12.9227517"><ele>455.75</ele><time>2026-04-04T13:52:06.829Z</time></trkpt><trkpt lat="43.1810467" lon="12.922715"><ele>455.0</ele><time>2026-04-04T13:52:07.829Z</time></trkpt><trkpt lat="43.1811517" lon="12.922685"><ele>455.0</ele><time>2026-04-04T13:52:08.835Z</time></trkpt><trkpt lat="43.1812483" lon="12.92265"><ele>455.0</ele><time>2026-04-04T13:52:09.834Z</time></trkpt><trkpt lat="43.1813367" lon="12.9226017"><ele>455.0</ele><time>2026-04-04T13:52:10.834Z</time></trkpt><trkpt lat="43.1814267" lon="12.9225317"><ele>455.0</ele><time>2026-04-04T13:52:11.831Z</time></trkpt><trkpt lat="43.181505" lon="12.9224367"><ele>455.0</ele><time>2026-04-04T13:52:12.832Z</time></trkpt><trkpt lat="43.181575" lon="12.9223117"><ele>455.25</ele><time>2026-04-04T13:52:13.829Z</time></trkpt><trkpt lat="43.1816483" lon="12.92217"><ele>455.5</ele><time>2026-04-04T13:52:14.831Z</time></trkpt><trkpt lat="43.18172" lon="12.9220167"><ele>455.75</ele><time>2026-04-04T13:52:15.838Z</time></trkpt><trkpt lat="43.1817883" lon="12.9218733"><ele>456.0</ele><time>2026-04-04T13:52:16.833Z</time></trkpt><trkpt lat="43.1818583" lon="12.921735"><ele>457.25</ele><time>2026-04-04T13:52:17.83Z</time></trkpt><trkpt lat="43.1819333" lon="12.9216"><ele>458.5</ele><time>2026-04-04T13:52:18.834Z</time></trkpt><trkpt lat="43.1820217" lon="12.921475"><ele>459.75</ele><time>2026-04-04T13:52:19.837Z</time></trkpt><trkpt lat="43.1821167" lon="12.9213533"><ele>461.0</ele><time>2026-04-04T13:52:20.835Z</time></trkpt><trkpt lat="43.18221" lon="12.921235"><ele>461.0</ele><time>2026-04-04T13:52:21.835Z</time></trkpt><trkpt lat="43.1822933" lon="12.9211083"><ele>461.0</ele><time>2026-04-04T13:52:22.834Z</time></trkpt><trkpt lat="43.1823667" lon="12.9209683"><ele>461.0</ele><time>2026-04-04T13:52:23.837Z</time></trkpt><trkpt lat="43.1824367" lon="12.9208133"><ele>461.0</ele><time>2026-04-04T13:52:24.835Z</time></trkpt><trkpt lat="43.1825033" lon="12.9206433"><ele>461.25</ele><time>2026-04-04T13:52:25.837Z</time></trkpt><trkpt lat="43.18256" lon="12.9204683"><ele>461.5</ele><time>2026-04-04T13:52:26.835Z</time></trkpt><trkpt lat="43.1826083" lon="12.9202967"><ele>461.75</ele><time>2026-04-04T13:52:27.835Z</time></trkpt><trkpt lat="43.1826533" lon="12.9201267"><ele>462.0</ele><time>2026-04-04T13:52:28.836Z</time></trkpt><trkpt lat="43.1827017" lon="12.9199567"><ele>462.0</ele><time>2026-04-04T13:52:29.833Z</time></trkpt><trkpt lat="43.182755" lon="12.9197883"><ele>462.0</ele><time>2026-04-04T13:52:30.834Z</time></trkpt><trkpt lat="43.182805" lon="12.919615"><ele>462.0</ele><time>2026-04-04T13:52:31.833Z</time></trkpt><trkpt lat="43.1828483" lon="12.9194433"><ele>462.0</ele><time>2026-04-04T13:52:32.836Z</time></trkpt><trkpt lat="43.18289" lon="12.919285"><ele>463.0</ele><time>2026-04-04T13:52:33.834Z</time></trkpt><trkpt lat="43.1829333" lon="12.919135"><ele>464.00000000000006</ele><time>2026-04-04T13:52:34.833Z</time></trkpt><trkpt lat="43.182975" lon="12.9189983"><ele>465.00000000000006</ele><time>2026-04-04T13:52:35.833Z</time></trkpt><trkpt lat="43.183015" lon="12.918875"><ele>466.0</ele><time>2026-04-04T13:52:36.833Z</time></trkpt><trkpt lat="43.183055" lon="12.91877"><ele>467.0</ele><time>2026-04-04T13:52:37.833Z</time></trkpt><trkpt lat="43.1830883" lon="12.9186817"><ele>467.0</ele><time>2026-04-04T13:52:38.834Z</time></trkpt><trkpt lat="43.1830933" lon="12.918555"><ele>467.00000000000006</ele><time>2026-04-04T13:52:40.835Z</time></trkpt><trkpt lat="43.1829967" lon="12.9184683"><ele>467.00000000000006</ele><time>2026-04-04T13:52:42.833Z</time></trkpt><trkpt lat="43.1829117" lon="12.9184433"><ele>467.0</ele><time>2026-04-04T13:52:43.833Z</time></trkpt><trkpt lat="43.1828083" lon="12.91841"><ele>467.0</ele><time>2026-04-04T13:52:44.834Z</time></trkpt><trkpt lat="43.1826933" lon="12.9183733"><ele>467.20000000000005</ele><time>2026-04-04T13:52:45.831Z</time></trkpt><trkpt lat="43.1825783" lon="12.9183417"><ele>467.40000000000003</ele><time>2026-04-04T13:52:46.834Z</time></trkpt><trkpt lat="43.1824683" lon="12.918315"><ele>467.59999999999997</ele><time>2026-04-04T13:52:47.835Z</time></trkpt><trkpt lat="43.18236" lon="12.9183033"><ele>467.79999999999995</ele><time>2026-04-04T13:52:48.834Z</time></trkpt><trkpt lat="43.1822617" lon="12.9182917"><ele>468.0</ele><time>2026-04-04T13:52:49.832Z</time></trkpt><trkpt lat="43.1821717" lon="12.91828"><ele>469.8333333333333</ele><time>2026-04-04T13:52:50.835Z</time></trkpt><trkpt lat="43.1820817" lon="12.9182617"><ele>471.66666666666663</ele><time>2026-04-04T13:52:51.834Z</time></trkpt><trkpt lat="43.181995" lon="12.9182433"><ele>473.5</ele><time>2026-04-04T13:52:52.834Z</time></trkpt><trkpt lat="43.18191" lon="12.9182367"><ele>475.3333333333333</ele><time>2026-04-04T13:52:53.834Z</time></trkpt><trkpt lat="43.1818267" lon="12.9182367"><ele>477.16666666666663</ele><time>2026-04-04T13:52:54.836Z</time></trkpt><trkpt lat="43.181745" lon="12.9182233"><ele>479.0</ele><time>2026-04-04T13:52:55.837Z</time></trkpt><trkpt lat="43.181685" lon="12.9181867"><ele>478.99999999999994</ele><time>2026-04-04T13:52:56.833Z</time></trkpt><trkpt lat="43.1816583" lon="12.9180967"><ele>479.0</ele><time>2026-04-04T13:52:57.831Z</time></trkpt><trkpt lat="43.1816333" lon="12.9179983"><ele>479.0</ele><time>2026-04-04T13:52:58.833Z</time></trkpt><trkpt lat="43.1816" lon="12.9178983"><ele>479.0</ele><time>2026-04-04T13:52:59.833Z</time></trkpt><trkpt lat="43.1815367" lon="12.9178033"><ele>478.99999999999994</ele><time>2026-04-04T13:53:00.834Z</time></trkpt><trkpt lat="43.181455" lon="12.9177283"><ele>479.0</ele><time>2026-04-04T13:53:01.834Z</time></trkpt><trkpt lat="43.1813633" lon="12.9176533"><ele>482.25</ele><time>2026-04-04T13:53:02.835Z</time></trkpt><trkpt lat="43.181265" lon="12.9175783"><ele>485.5</ele><time>2026-04-04T13:53:03.834Z</time></trkpt><trkpt lat="43.1811633" lon="12.9175"><ele>488.75</ele><time>2026-04-04T13:53:04.835Z</time></trkpt><trkpt lat="43.181055" lon="12.9174167"><ele>492.0</ele><time>2026-04-04T13:53:05.833Z</time></trkpt><trkpt lat="43.180945" lon="12.917325"><ele>492.5</ele><time>2026-04-04T13:53:06.834Z</time></trkpt><trkpt lat="43.1808333" lon="12.9172183"><ele>493.0</ele><time>2026-04-04T13:53:07.833Z</time></trkpt><trkpt lat="43.1807233" lon="12.91711"><ele>493.5</ele><time>2026-04-04T13:53:08.834Z</time></trkpt><trkpt lat="43.18063" lon="12.9170017"><ele>494.0</ele><time>2026-04-04T13:53:09.833Z</time></trkpt><trkpt lat="43.1805817" lon="12.91688"><ele>497.25</ele><time>2026-04-04T13:53:10.833Z</time></trkpt><trkpt lat="43.1805683" lon="12.91674"><ele>500.5</ele><time>2026-04-04T13:53:11.834Z</time></trkpt><trkpt lat="43.1805867" lon="12.916575"><ele>503.75</ele><time>2026-04-04T13:53:12.834Z</time></trkpt><trkpt lat="43.1806283" lon="12.9164083"><ele>507.0</ele><time>2026-04-04T13:53:13.834Z</time></trkpt><trkpt lat="43.1806567" lon="12.9162517"><ele>508.0</ele><time>2026-04-04T13:53:14.834Z</time></trkpt><trkpt lat="43.1806533" lon="12.91612"><ele>509.00000000000006</ele><time>2026-04-04T13:53:15.833Z</time></trkpt><trkpt lat="43.1806117" lon="12.9160033"><ele>510.00000000000006</ele><time>2026-04-04T13:53:16.835Z</time></trkpt><trkpt lat="43.1805433" lon="12.9158967"><ele>511.0</ele><time>2026-04-04T13:53:17.834Z</time></trkpt><trkpt lat="43.1804617" lon="12.91578"><ele>512.0</ele><time>2026-04-04T13:53:18.834Z</time></trkpt><trkpt lat="43.1803717" lon="12.9156617"><ele>515.0</ele><time>2026-04-04T13:53:19.834Z</time></trkpt><trkpt lat="43.1802717" lon="12.91555"><ele>518.0</ele><time>2026-04-04T13:53:20.837Z</time></trkpt><trkpt lat="43.1801767" lon="12.9154567"><ele>521.0</ele><time>2026-04-04T13:53:21.835Z</time></trkpt><trkpt lat="43.180095" lon="12.9153683"><ele>524.0</ele><time>2026-04-04T13:53:22.836Z</time></trkpt><trkpt lat="43.1800083" lon="12.915275"><ele>524.0</ele><time>2026-04-04T13:53:23.835Z</time></trkpt><trkpt lat="43.1799233" lon="12.9151933"><ele>524.0</ele><time>2026-04-04T13:53:24.833Z</time></trkpt><trkpt lat="43.1798433" lon="12.915115"><ele>524.0</ele><time>2026-04-04T13:53:25.834Z</time></trkpt><trkpt lat="43.17976" lon="12.91502"><ele>524.0</ele><time>2026-04-04T13:53:26.835Z</time></trkpt><trkpt lat="43.1796983" lon="12.91492"><ele>524.0</ele><time>2026-04-04T13:53:27.834Z</time></trkpt><trkpt lat="43.1796383" lon="12.9147933"><ele>534.5</ele><time>2026-04-04T13:53:28.833Z</time></trkpt><trkpt lat="43.1795817" lon="12.9146567"><ele>545.0</ele><time>2026-04-04T13:53:29.834Z</time></trkpt><trkpt lat="43.1795333" lon="12.9145083"><ele>555.5</ele><time>2026-04-04T13:53:30.834Z</time></trkpt><trkpt lat="43.1795033" lon="12.914365"><ele>566.0</ele><time>2026-04-04T13:53:31.833Z</time></trkpt><trkpt lat="43.179465" lon="12.914225"><ele>568.75</ele><time>2026-04-04T13:53:32.837Z</time></trkpt><trkpt lat="43.1794133" lon="12.9140783"><ele>571.5</ele><time>2026-04-04T13:53:33.834Z</time></trkpt><trkpt lat="43.1793583" lon="12.9139367"><ele>574.25</ele><time>2026-04-04T13:53:34.834Z</time></trkpt><trkpt lat="43.179295" lon="12.913785"><ele>577.0</ele><time>2026-04-04T13:53:35.833Z</time></trkpt><trkpt lat="43.1792283" lon="12.9136283"><ele>577.0</ele><time>2026-04-04T13:53:36.835Z</time></trkpt><trkpt lat="43.1791617" lon="12.913475"><ele>577.0</ele><time>2026-04-04T13:53:37.834Z</time></trkpt><trkpt lat="43.1791033" lon="12.913325"><ele>577.0</ele><time>2026-04-04T13:53:38.836Z</time></trkpt><trkpt lat="43.1790417" lon="12.9131717"><ele>577.0</ele><time>2026-04-04T13:53:39.834Z</time></trkpt><trkpt lat="43.1789833" lon="12.9130383"><ele>586.6</ele><time>2026-04-04T13:53:40.834Z</time></trkpt><trkpt lat="43.1789233" lon="12.9129233"><ele>596.2</ele><time>2026-04-04T13:53:41.836Z</time></trkpt><trkpt lat="43.17885" lon="12.9128167"><ele>605.8</ele><time>2026-04-04T13:53:42.834Z</time></trkpt><trkpt lat="43.178775" lon="12.9126917"><ele>615.4</ele><time>2026-04-04T13:53:43.834Z</time></trkpt><trkpt lat="43.1787183" lon="12.91255"><ele>625.0</ele><time>2026-04-04T13:53:44.836Z</time></trkpt><trkpt lat="43.1786817" lon="12.912415"><ele>625.0</ele><time>2026-04-04T13:53:45.836Z</time></trkpt><trkpt lat="43.1786367" lon="12.91231"><ele>625.0</ele><time>2026-04-04T13:53:46.833Z</time></trkpt><trkpt lat="43.178585" lon="12.9122217"><ele>625.0</ele><time>2026-04-04T13:53:47.834Z</time></trkpt><trkpt lat="43.1785317" lon="12.91213"><ele>625.0</ele><time>2026-04-04T13:53:48.837Z</time></trkpt><trkpt lat="43.178455" lon="12.9120133"><ele>625.0</ele><time>2026-04-04T13:53:49.836Z</time></trkpt><trkpt lat="43.178425" lon="12.9118933"><ele>625.0</ele><time>2026-04-04T13:53:50.839Z</time></trkpt><trkpt lat="43.17838" lon="12.911755"><ele>625.0</ele><time>2026-04-04T13:53:51.835Z</time></trkpt><trkpt lat="43.1783467" lon="12.9116133"><ele>625.0</ele><time>2026-04-04T13:53:52.835Z</time></trkpt><trkpt lat="43.178325" lon="12.911495"><ele>625.0</ele><time>2026-04-04T13:53:53.835Z</time></trkpt><trkpt lat="43.178308" lon="12.9113902"><ele>625.0</ele><time>2026-04-04T13:53:54.834Z</time></trkpt><trkpt lat="43.1783094" lon="12.9112938"><ele>627.4</ele><time>2026-04-04T13:53:55.834Z</time></trkpt><trkpt lat="43.1783461" lon="12.9112163"><ele>629.8</ele><time>2026-04-04T13:53:56.835Z</time></trkpt><trkpt lat="43.1783971" lon="12.9111454"><ele>632.2</ele><time>2026-04-04T13:53:57.835Z</time></trkpt><trkpt lat="43.1784617" lon="12.9111109"><ele>634.6</ele><time>2026-04-04T13:53:58.832Z</time></trkpt><trkpt lat="43.178628" lon="12.9111451"><ele>637.0</ele><time>2026-04-04T13:54:00.835Z</time></trkpt><trkpt lat="43.1787382" lon="12.911201"><ele>637.0</ele><time>2026-04-04T13:54:01.835Z</time></trkpt><trkpt lat="43.1788474" lon="12.9112405"><ele>637.0</ele><time>2026-04-04T13:54:02.835Z</time></trkpt><trkpt lat="43.1789632" lon="12.9112778"><ele>637.0</ele><time>2026-04-04T13:54:03.835Z</time></trkpt><trkpt lat="43.1790689" lon="12.9113158"><ele>637.0</ele><time>2026-04-04T13:54:04.834Z</time></trkpt><trkpt lat="43.1791695" lon="12.9113571"><ele>637.0</ele><time>2026-04-04T13:54:05.835Z</time></trkpt><trkpt lat="43.179269" lon="12.9114184"><ele>638.75</ele><time>2026-04-04T13:54:06.836Z</time></trkpt><trkpt lat="43.1793662" lon="12.9114923"><ele>640.5</ele><time>2026-04-04T13:54:07.835Z</time></trkpt><trkpt lat="43.1794844" lon="12.9116002"><ele>642.25</ele><time>2026-04-04T13:54:08.836Z</time></trkpt><trkpt lat="43.1796212" lon="12.9116952"><ele>644.0</ele><time>2026-04-04T13:54:09.836Z</time></trkpt><trkpt lat="43.1797544" lon="12.911802"><ele>642.25</ele><time>2026-04-04T13:54:10.832Z</time></trkpt><trkpt lat="43.1798867" lon="12.9118827"><ele>640.5</ele><time>2026-04-04T13:54:11.834Z</time></trkpt><trkpt lat="43.180015" lon="12.9119542"><ele>638.75</ele><time>2026-04-04T13:54:12.835Z</time></trkpt><trkpt lat="43.1801473" lon="12.9120154"><ele>637.0</ele><time>2026-04-04T13:54:13.836Z</time></trkpt><trkpt lat="43.1802933" lon="12.9120701"><ele>637.0</ele><time>2026-04-04T13:54:14.836Z</time></trkpt><trkpt lat="43.1804402" lon="12.9121168"><ele>637.0</ele><time>2026-04-04T13:54:15.835Z</time></trkpt><trkpt lat="43.1805827" lon="12.9121592"><ele>637.0</ele><time>2026-04-04T13:54:16.837Z</time></trkpt><trkpt lat="43.1807184" lon="12.9121931"><ele>637.0</ele><time>2026-04-04T13:54:17.832Z</time></trkpt><trkpt lat="43.1808337" lon="12.9122179"><ele>642.6</ele><time>2026-04-04T13:54:18.834Z</time></trkpt><trkpt lat="43.1809415" lon="12.9122343"><ele>648.2</ele><time>2026-04-04T13:54:19.834Z</time></trkpt><trkpt lat="43.1810302" lon="12.9122432"><ele>653.8</ele><time>2026-04-04T13:54:20.835Z</time></trkpt><trkpt lat="43.1811034" lon="12.9122298"><ele>659.4</ele><time>2026-04-04T13:54:21.834Z</time></trkpt><trkpt lat="43.1811847" lon="12.9121265"><ele>665.0</ele><time>2026-04-04T13:54:23.834Z</time></trkpt><trkpt lat="43.1811883" lon="12.9120033"><ele>665.0</ele><time>2026-04-04T13:54:25.833Z</time></trkpt><trkpt lat="43.1811433" lon="12.9118883"><ele>665.0</ele><time>2026-04-04T13:54:27.833Z</time></trkpt><trkpt lat="43.1811033" lon="12.91182"><ele>665.0</ele><time>2026-04-04T13:54:28.834Z</time></trkpt><trkpt lat="43.1810383" lon="12.911745"><ele>665.0</ele><time>2026-04-04T13:54:30.833Z</time></trkpt><trkpt lat="43.1809333" lon="12.9117283"><ele>665.0</ele><time>2026-04-04T13:54:32.835Z</time></trkpt><trkpt lat="43.1808617" lon="12.9116817"><ele>665.0</ele><time>2026-04-04T13:54:33.835Z</time></trkpt><trkpt lat="43.1807783" lon="12.9116233"><ele>668.75</ele><time>2026-04-04T13:54:34.833Z</time></trkpt><trkpt lat="43.1806817" lon="12.911555"><ele>672.5</ele><time>2026-04-04T13:54:35.835Z</time></trkpt><trkpt lat="43.180575" lon="12.9114583"><ele>676.25</ele><time>2026-04-04T13:54:36.835Z</time></trkpt><trkpt lat="43.180465" lon="12.9113483"><ele>680.0</ele><time>2026-04-04T13:54:37.837Z</time></trkpt><trkpt lat="43.1803533" lon="12.9112267"><ele>680.0</ele><time>2026-04-04T13:54:38.837Z</time></trkpt><trkpt lat="43.1802383" lon="12.9111017"><ele>680.0</ele><time>2026-04-04T13:54:39.835Z</time></trkpt><trkpt lat="43.1801267" lon="12.9109733"><ele>680.0</ele><time>2026-04-04T13:54:40.834Z</time></trkpt><trkpt lat="43.180025" lon="12.9108483"><ele>680.0</ele><time>2026-04-04T13:54:41.832Z</time></trkpt><trkpt lat="43.17994" lon="12.9107233"><ele>681.0</ele><time>2026-04-04T13:54:42.835Z</time></trkpt><trkpt lat="43.1798617" lon="12.9105967"><ele>682.0</ele><time>2026-04-04T13:54:43.835Z</time></trkpt><trkpt lat="43.17979" lon="12.9104533"><ele>683.0</ele><time>2026-04-04T13:54:44.835Z</time></trkpt><trkpt lat="43.1797217" lon="12.9103133"><ele>684.0</ele><time>2026-04-04T13:54:45.834Z</time></trkpt><trkpt lat="43.1796433" lon="12.91018"><ele>692.25</ele><time>2026-04-04T13:54:46.833Z</time></trkpt><trkpt lat="43.179565" lon="12.9100567"><ele>700.5</ele><time>2026-04-04T13:54:47.833Z</time></trkpt><trkpt lat="43.1794817" lon="12.9099333"><ele>708.75</ele><time>2026-04-04T13:54:48.834Z</time></trkpt><trkpt lat="43.1794033" lon="12.9098117"><ele>717.0</ele><time>2026-04-04T13:54:49.834Z</time></trkpt><trkpt lat="43.1793283" lon="12.909685"><ele>717.0</ele><time>2026-04-04T13:54:50.835Z</time></trkpt><trkpt lat="43.1792567" lon="12.9095717"><ele>717.0</ele><time>2026-04-04T13:54:51.835Z</time></trkpt><trkpt lat="43.17918" lon="12.90943"><ele>717.0</ele><time>2026-04-04T13:54:52.834Z</time></trkpt><trkpt lat="43.1791067" lon="12.9092917"><ele>717.0</ele><time>2026-04-04T13:54:53.834Z</time></trkpt><trkpt lat="43.1790283" lon="12.90915"><ele>716.25</ele><time>2026-04-04T13:54:54.835Z</time></trkpt><trkpt lat="43.1789483" lon="12.9090067"><ele>715.5</ele><time>2026-04-04T13:54:55.833Z</time></trkpt><trkpt lat="43.1788683" lon="12.9088717"><ele>714.75</ele><time>2026-04-04T13:54:56.834Z</time></trkpt><trkpt lat="43.1787817" lon="12.90874"><ele>714.0</ele><time>2026-04-04T13:54:57.835Z</time></trkpt><trkpt lat="43.178705" lon="12.908605"><ele>714.0</ele><time>2026-04-04T13:54:58.831Z</time></trkpt><trkpt lat="43.1786333" lon="12.9084767"><ele>714.0</ele><time>2026-04-04T13:54:59.834Z</time></trkpt><trkpt lat="43.17857" lon="12.9083583"><ele>714.0</ele><time>2026-04-04T13:55:00.834Z</time></trkpt><trkpt lat="43.178515" lon="12.9082533"><ele>714.0</ele><time>2026-04-04T13:55:01.834Z</time></trkpt><trkpt lat="43.1784717" lon="12.9081617"><ele>714.0</ele><time>2026-04-04T13:55:02.836Z</time></trkpt><trkpt lat="43.1784383" lon="12.9080733"><ele>720.4000000000001</ele><time>2026-04-04T13:55:03.834Z</time></trkpt><trkpt lat="43.1784" lon="12.90798"><ele>726.8</ele><time>2026-04-04T13:55:04.835Z</time></trkpt><trkpt lat="43.1783533" lon="12.90788"><ele>733.2</ele><time>2026-04-04T13:55:05.833Z</time></trkpt><trkpt lat="43.1782933" lon="12.9077733"><ele>739.5999999999999</ele><time>2026-04-04T13:55:06.836Z</time></trkpt><trkpt lat="43.1782367" lon="12.9076667"><ele>746.0</ele><time>2026-04-04T13:55:07.834Z</time></trkpt><trkpt lat="43.1782033" lon="12.907545"><ele>749.6666666666666</ele><time>2026-04-04T13:55:08.836Z</time></trkpt><trkpt lat="43.178175" lon="12.9074283"><ele>753.3333333333333</ele><time>2026-04-04T13:55:09.834Z</time></trkpt><trkpt lat="43.1781233" lon="12.907325"><ele>757.0</ele><time>2026-04-04T13:55:10.833Z</time></trkpt><trkpt lat="43.1780817" lon="12.9072267"><ele>760.6666666666666</ele><time>2026-04-04T13:55:11.832Z</time></trkpt><trkpt lat="43.1780533" lon="12.907125"><ele>764.3333333333334</ele><time>2026-04-04T13:55:12.834Z</time></trkpt><trkpt lat="43.178035" lon="12.9070167"><ele>768.0</ele><time>2026-04-04T13:55:13.835Z</time></trkpt><trkpt lat="43.1779983" lon="12.9069233"><ele>768.0</ele><time>2026-04-04T13:55:14.835Z</time></trkpt><trkpt lat="43.1779467" lon="12.9068167"><ele>768.0</ele><time>2026-04-04T13:55:15.835Z</time></trkpt><trkpt lat="43.17792" lon="12.9067033"><ele>768.0</ele><time>2026-04-04T13:55:16.832Z</time></trkpt><trkpt lat="43.1779217" lon="12.906585"><ele>768.0</ele><time>2026-04-04T13:55:17.834Z</time></trkpt><trkpt lat="43.1779" lon="12.9064783"><ele>768.0</ele><time>2026-04-04T13:55:18.835Z</time></trkpt><trkpt lat="43.1778467" lon="12.906405"><ele>768.0</ele><time>2026-04-04T13:55:19.834Z</time></trkpt><trkpt lat="43.177785" lon="12.906335"><ele>773.4</ele><time>2026-04-04T13:55:20.834Z</time></trkpt><trkpt lat="43.1777167" lon="12.906245"><ele>778.8</ele><time>2026-04-04T13:55:21.832Z</time></trkpt><trkpt lat="43.1776433" lon="12.906135"><ele>784.2</ele><time>2026-04-04T13:55:22.833Z</time></trkpt><trkpt lat="43.1775783" lon="12.9060133"><ele>789.6</ele><time>2026-04-04T13:55:23.834Z</time></trkpt><trkpt lat="43.1775333" lon="12.9058867"><ele>795.0</ele><time>2026-04-04T13:55:24.835Z</time></trkpt><trkpt lat="43.1775083" lon="12.905755"><ele>799.6</ele><time>2026-04-04T13:55:25.834Z</time></trkpt><trkpt lat="43.1774817" lon="12.9056283"><ele>804.2</ele><time>2026-04-04T13:55:26.836Z</time></trkpt><trkpt lat="43.17746" lon="12.9054983"><ele>808.8</ele><time>2026-04-04T13:55:27.833Z</time></trkpt><trkpt lat="43.177425" lon="12.9053567"><ele>813.4</ele><time>2026-04-04T13:55:28.835Z</time></trkpt><trkpt lat="43.1773883" lon="12.9052067"><ele>818.0</ele><time>2026-04-04T13:55:29.834Z</time></trkpt><trkpt lat="43.17735" lon="12.9050583"><ele>823.0</ele><time>2026-04-04T13:55:30.834Z</time></trkpt><trkpt lat="43.1773117" lon="12.904945"><ele>828.0</ele><time>2026-04-04T13:55:31.833Z</time></trkpt><trkpt lat="43.1772667" lon="12.9048617"><ele>833.0</ele><time>2026-04-04T13:55:32.834Z</time></trkpt><trkpt lat="43.1771817" lon="12.904855"><ele>838.0</ele><time>2026-04-04T13:55:34.833Z</time></trkpt><trkpt lat="43.1771017" lon="12.9049783"><ele>843.0</ele><time>2026-04-04T13:55:36.836Z</time></trkpt><trkpt lat="43.1770617" lon="12.9050867"><ele>843.0</ele><time>2026-04-04T13:55:37.834Z</time></trkpt><trkpt lat="43.1770233" lon="12.905235"><ele>843.0</ele><time>2026-04-04T13:55:38.834Z</time></trkpt><trkpt lat="43.1769867" lon="12.9053933"><ele>843.0</ele><time>2026-04-04T13:55:39.835Z</time></trkpt><trkpt lat="43.17696" lon="12.9055517"><ele>843.0</ele><time>2026-04-04T13:55:40.834Z</time></trkpt><trkpt lat="43.1769417" lon="12.9056833"><ele>843.0</ele><time>2026-04-04T13:55:41.833Z</time></trkpt><trkpt lat="43.176915" lon="12.9058"><ele>843.0</ele><time>2026-04-04T13:55:42.835Z</time></trkpt><trkpt lat="43.1768817" lon="12.9059233"><ele>843.0</ele><time>2026-04-04T13:55:43.833Z</time></trkpt><trkpt lat="43.17683" lon="12.90603"><ele>843.0</ele><time>2026-04-04T13:55:44.835Z</time></trkpt><trkpt lat="43.1767583" lon="12.90612"><ele>843.0</ele><time>2026-04-04T13:55:45.834Z</time></trkpt><trkpt lat="43.1766783" lon="12.9061983"><ele>845.0</ele><time>2026-04-04T13:55:46.834Z</time></trkpt><trkpt lat="43.1766083" lon="12.9062817"><ele>847.0</ele><time>2026-04-04T13:55:47.833Z</time></trkpt><trkpt lat="43.1765383" lon="12.90635"><ele>849.0</ele><time>2026-04-04T13:55:48.834Z</time></trkpt><trkpt lat="43.1764817" lon="12.9064"><ele>851.0</ele><time>2026-04-04T13:55:49.835Z</time></trkpt><trkpt lat="43.176425" lon="12.9064433"><ele>853.0</ele><time>2026-04-04T13:55:51.834Z</time></trkpt><trkpt lat="43.17644" lon="12.9063217"><ele>855.0</ele><time>2026-04-04T13:57:49.832Z</time></trkpt><trkpt lat="43.1764883" lon="12.9061733"><ele>855.0</ele><time>2026-04-04T13:57:51.834Z</time></trkpt><trkpt lat="43.1765117" lon="12.90606"><ele>855.0</ele><time>2026-04-04T13:57:52.832Z</time></trkpt><trkpt lat="43.1765417" lon="12.905945"><ele>855.0</ele><time>2026-04-04T13:57:53.833Z</time></trkpt><trkpt lat="43.176585" lon="12.9058417"><ele>855.0</ele><time>2026-04-04T13:57:54.833Z</time></trkpt><trkpt lat="43.17662" lon="12.9057483"><ele>855.0</ele><time>2026-04-04T13:57:55.832Z</time></trkpt><trkpt lat="43.1766417" lon="12.9056467"><ele>855.0</ele><time>2026-04-04T13:57:56.834Z</time></trkpt><trkpt lat="43.1766533" lon="12.9055317"><ele>855.4</ele><time>2026-04-04T13:57:57.833Z</time></trkpt><trkpt lat="43.1766467" lon="12.9053933"><ele>855.8</ele><time>2026-04-04T13:57:58.833Z</time></trkpt><trkpt lat="43.1766383" lon="12.9052483"><ele>856.2</ele><time>2026-04-04T13:57:59.832Z</time></trkpt><trkpt lat="43.1766233" lon="12.90509"><ele>856.6</ele><time>2026-04-04T13:58:00.834Z</time></trkpt><trkpt lat="43.1766067" lon="12.904925"><ele>857.0</ele><time>2026-04-04T13:58:01.834Z</time></trkpt><trkpt lat="43.176595" lon="12.9047517"><ele>857.0</ele><time>2026-04-04T13:58:02.834Z</time></trkpt><trkpt lat="43.1765883" lon="12.9045817"><ele>857.0</ele><time>2026-04-04T13:58:03.833Z</time></trkpt><trkpt lat="43.176595" lon="12.9044283"><ele>857.0</ele><time>2026-04-04T13:58:04.83Z</time></trkpt><trkpt lat="43.1766283" lon="12.904295"><ele>857.0</ele><time>2026-04-04T13:58:05.833Z</time></trkpt><trkpt lat="43.17667" lon="12.9041683"><ele>857.0</ele><time>2026-04-04T13:58:06.832Z</time></trkpt><trkpt lat="43.1767217" lon="12.9040533"><ele>860.2</ele><time>2026-04-04T13:58:07.829Z</time></trkpt><trkpt lat="43.1767833" lon="12.9039583"><ele>863.4000000000001</ele><time>2026-04-04T13:58:08.836Z</time></trkpt><trkpt lat="43.1768433" lon="12.90391"><ele>866.5999999999999</ele><time>2026-04-04T13:58:09.835Z</time></trkpt><trkpt lat="43.1769333" lon="12.9039183"><ele>869.8</ele><time>2026-04-04T13:58:11.832Z</time></trkpt><trkpt lat="43.1770233" lon="12.9039933"><ele>873.0</ele><time>2026-04-04T13:58:13.833Z</time></trkpt><trkpt lat="43.1770983" lon="12.9040783"><ele>873.0</ele><time>2026-04-04T13:58:15.833Z</time></trkpt><trkpt lat="43.177175" lon="12.904165"><ele>873.0</ele><time>2026-04-04T13:58:17.833Z</time></trkpt><trkpt lat="43.1772633" lon="12.904235"><ele>873.0</ele><time>2026-04-04T13:58:19.833Z</time></trkpt><trkpt lat="43.1773767" lon="12.904325"><ele>873.0</ele><time>2026-04-04T13:58:21.833Z</time></trkpt><trkpt lat="43.1774517" lon="12.9043717"><ele>873.0</ele><time>2026-04-04T13:58:22.834Z</time></trkpt><trkpt lat="43.1775467" lon="12.9043967"><ele>867.0</ele><time>2026-04-04T13:58:23.834Z</time></trkpt><trkpt lat="43.1776467" lon="12.9044133"><ele>861.0</ele><time>2026-04-04T13:58:24.829Z</time></trkpt><trkpt lat="43.17775" lon="12.90444"><ele>855.0</ele><time>2026-04-04T13:58:25.832Z</time></trkpt><trkpt lat="43.1778567" lon="12.9044817"><ele>849.0</ele><time>2026-04-04T13:58:26.834Z</time></trkpt><trkpt lat="43.1779667" lon="12.9045317"><ele>843.0</ele><time>2026-04-04T13:58:27.833Z</time></trkpt><trkpt lat="43.1780817" lon="12.904585"><ele>849.75</ele><time>2026-04-04T13:58:28.833Z</time></trkpt><trkpt lat="43.1781983" lon="12.9046433"><ele>856.5</ele><time>2026-04-04T13:58:29.834Z</time></trkpt><trkpt lat="43.1783133" lon="12.9047117"><ele>863.25</ele><time>2026-04-04T13:58:30.834Z</time></trkpt><trkpt lat="43.1784317" lon="12.90479"><ele>870.0</ele><time>2026-04-04T13:58:31.833Z</time></trkpt><trkpt lat="43.1785567" lon="12.9048717"><ele>870.0</ele><time>2026-04-04T13:58:32.834Z</time></trkpt><trkpt lat="43.1786817" lon="12.9049533"><ele>870.0</ele><time>2026-04-04T13:58:33.834Z</time></trkpt><trkpt lat="43.1788133" lon="12.905025"><ele>870.0</ele><time>2026-04-04T13:58:34.832Z</time></trkpt><trkpt lat="43.1789417" lon="12.9051"><ele>870.0</ele><time>2026-04-04T13:58:35.833Z</time></trkpt><trkpt lat="43.1790717" lon="12.9051867"><ele>870.5</ele><time>2026-04-04T13:58:36.835Z</time></trkpt><trkpt lat="43.1792017" lon="12.90528"><ele>871.0</ele><time>2026-04-04T13:58:37.835Z</time></trkpt><trkpt lat="43.1793383" lon="12.9053617"><ele>871.5</ele><time>2026-04-04T13:58:38.833Z</time></trkpt><trkpt lat="43.1794767" lon="12.9054367"><ele>872.0</ele><time>2026-04-04T13:58:39.832Z</time></trkpt><trkpt lat="43.1796217" lon="12.9055083"><ele>872.0</ele><time>2026-04-04T13:58:40.835Z</time></trkpt><trkpt lat="43.1797783" lon="12.9055867"><ele>872.0</ele><time>2026-04-04T13:58:41.834Z</time></trkpt><trkpt lat="43.179935" lon="12.9056717"><ele>872.0</ele><time>2026-04-04T13:58:42.834Z</time></trkpt><trkpt lat="43.180085" lon="12.9057517"><ele>873.25</ele><time>2026-04-04T13:58:43.835Z</time></trkpt><trkpt lat="43.1802233" lon="12.9058317"><ele>874.5</ele><time>2026-04-04T13:58:44.835Z</time></trkpt><trkpt lat="43.1803417" lon="12.905905"><ele>875.75</ele><time>2026-04-04T13:58:45.834Z</time></trkpt><trkpt lat="43.1804367" lon="12.905955"><ele>877.0</ele><time>2026-04-04T13:58:46.834Z</time></trkpt><trkpt lat="43.18051" lon="12.90597"><ele>880.4000000000001</ele><time>2026-04-04T13:58:47.835Z</time></trkpt><trkpt lat="43.1806083" lon="12.9059083"><ele>883.8000000000001</ele><time>2026-04-04T13:58:49.834Z</time></trkpt><trkpt lat="43.1806717" lon="12.905775"><ele>887.2</ele><time>2026-04-04T13:58:51.834Z</time></trkpt><trkpt lat="43.180695" lon="12.9056817"><ele>890.6</ele><time>2026-04-04T13:58:52.836Z</time></trkpt><trkpt lat="43.1807" lon="12.9055617"><ele>894.0</ele><time>2026-04-04T13:58:53.835Z</time></trkpt><trkpt lat="43.1806933" lon="12.90544"><ele>894.0</ele><time>2026-04-04T13:58:54.835Z</time></trkpt><trkpt lat="43.1806917" lon="12.9053333"><ele>894.0</ele><time>2026-04-04T13:58:55.835Z</time></trkpt><trkpt lat="43.18069" lon="12.9052317"><ele>894.0</ele><time>2026-04-04T13:58:56.836Z</time></trkpt><trkpt lat="43.1806983" lon="12.9051167"><ele>894.0</ele><time>2026-04-04T13:58:57.834Z</time></trkpt><trkpt lat="43.180705" lon="12.9049933"><ele>894.0</ele><time>2026-04-04T13:58:58.834Z</time></trkpt><trkpt lat="43.1807217" lon="12.9048633"><ele>894.0</ele><time>2026-04-04T13:58:59.834Z</time></trkpt><trkpt lat="43.180725" lon="12.9047217"><ele>894.6</ele><time>2026-04-04T13:59:00.833Z</time></trkpt><trkpt lat="43.1807233" lon="12.9045667"><ele>895.2</ele><time>2026-04-04T13:59:01.836Z</time></trkpt><trkpt lat="43.1807267" lon="12.90442"><ele>895.8000000000001</ele><time>2026-04-04T13:59:02.835Z</time></trkpt><trkpt lat="43.18075" lon="12.9042883"><ele>896.4000000000001</ele><time>2026-04-04T13:59:03.834Z</time></trkpt><trkpt lat="43.1807833" lon="12.90415"><ele>897.0</ele><time>2026-04-04T13:59:04.833Z</time></trkpt><trkpt lat="43.1808183" lon="12.90401"><ele>895.2</ele><time>2026-04-04T13:59:05.834Z</time></trkpt><trkpt lat="43.1808433" lon="12.90387"><ele>893.4000000000001</ele><time>2026-04-04T13:59:06.833Z</time></trkpt><trkpt lat="43.1808483" lon="12.9037217"><ele>891.5999999999999</ele><time>2026-04-04T13:59:07.835Z</time></trkpt><trkpt lat="43.1808467" lon="12.90358"><ele>889.8</ele><time>2026-04-04T13:59:08.835Z</time></trkpt><trkpt lat="43.1808433" lon="12.9034383"><ele>888.0</ele><time>2026-04-04T13:59:09.833Z</time></trkpt><trkpt lat="43.1808583" lon="12.9032933"><ele>886.8333333333334</ele><time>2026-04-04T13:59:10.833Z</time></trkpt><trkpt lat="43.180885" lon="12.9031517"><ele>885.6666666666667</ele><time>2026-04-04T13:59:11.834Z</time></trkpt><trkpt lat="43.18091" lon="12.9030367"><ele>884.5</ele><time>2026-04-04T13:59:12.834Z</time></trkpt><trkpt lat="43.1809317" lon="12.9029533"><ele>883.3333333333334</ele><time>2026-04-04T13:59:13.834Z</time></trkpt><trkpt lat="43.1809867" lon="12.90287"><ele>882.1666666666667</ele><time>2026-04-04T13:59:15.833Z</time></trkpt><trkpt lat="43.1810733" lon="12.9029517"><ele>881.0</ele><time>2026-04-04T13:59:18.836Z</time></trkpt><trkpt lat="43.1811083" lon="12.903025"><ele>881.0000000000001</ele><time>2026-04-04T13:59:19.832Z</time></trkpt><trkpt lat="43.1811483" lon="12.9031117"><ele>881.0</ele><time>2026-04-04T13:59:20.836Z</time></trkpt><trkpt lat="43.1811867" lon="12.903185"><ele>881.0</ele><time>2026-04-04T13:59:21.835Z</time></trkpt><trkpt lat="43.1812817" lon="12.9032633"><ele>881.0</ele><time>2026-04-04T13:59:23.834Z</time></trkpt><trkpt lat="43.1813333" lon="12.9031933"><ele>881.0000000000001</ele><time>2026-04-04T13:59:24.833Z</time></trkpt><trkpt lat="43.1813817" lon="12.9031"><ele>881.0</ele><time>2026-04-04T13:59:25.834Z</time></trkpt><trkpt lat="43.1814183" lon="12.9029717"><ele>881.0</ele><time>2026-04-04T13:59:26.836Z</time></trkpt><trkpt lat="43.181455" lon="12.9028467"><ele>880.9999999999999</ele><time>2026-04-04T13:59:27.834Z</time></trkpt><trkpt lat="43.1815" lon="12.9027267"><ele>880.9999999999999</ele><time>2026-04-04T13:59:28.835Z</time></trkpt><trkpt lat="43.1815433" lon="12.902615"><ele>881.0</ele><time>2026-04-04T13:59:29.835Z</time></trkpt><trkpt lat="43.1815767" lon="12.9025067"><ele>881.0</ele><time>2026-04-04T13:59:30.834Z</time></trkpt><trkpt lat="43.1816067" lon="12.9023833"><ele>873.0</ele><time>2026-04-04T13:59:31.834Z</time></trkpt><trkpt lat="43.1816283" lon="12.9022383"><ele>864.9999999999999</ele><time>2026-04-04T13:59:32.836Z</time></trkpt><trkpt lat="43.1816417" lon="12.9021"><ele>857.0</ele><time>2026-04-04T13:59:33.834Z</time></trkpt><trkpt lat="43.181665" lon="12.9019717"><ele>849.0</ele><time>2026-04-04T13:59:34.834Z</time></trkpt><trkpt lat="43.1817033" lon="12.901855"><ele>841.0</ele><time>2026-04-04T13:59:35.835Z</time></trkpt><trkpt lat="43.18176" lon="12.9017517"><ele>843.3333333333333</ele><time>2026-04-04T13:59:36.833Z</time></trkpt><trkpt lat="43.1818367" lon="12.9016733"><ele>845.6666666666666</ele><time>2026-04-04T13:59:37.832Z</time></trkpt><trkpt lat="43.1819233" lon="12.9016167"><ele>848.0</ele><time>2026-04-04T13:59:38.835Z</time></trkpt><trkpt lat="43.1820017" lon="12.9015633"><ele>850.3333333333333</ele><time>2026-04-04T13:59:39.835Z</time></trkpt><trkpt lat="43.1820733" lon="12.9015283"><ele>852.6666666666666</ele><time>2026-04-04T13:59:40.835Z</time></trkpt><trkpt lat="43.1821533" lon="12.9015117"><ele>855.0</ele><time>2026-04-04T13:59:41.835Z</time></trkpt><trkpt lat="43.1822483" lon="12.9015017"><ele>849.3333333333334</ele><time>2026-04-04T13:59:42.834Z</time></trkpt><trkpt lat="43.1823517" lon="12.9014967"><ele>843.6666666666667</ele><time>2026-04-04T13:59:43.834Z</time></trkpt><trkpt lat="43.182445" lon="12.9014933"><ele>838.0</ele><time>2026-04-04T13:59:44.836Z</time></trkpt><trkpt lat="43.182525" lon="12.9014883"><ele>832.3333333333334</ele><time>2026-04-04T13:59:45.834Z</time></trkpt><trkpt lat="43.182595" lon="12.9014783"><ele>826.6666666666667</ele><time>2026-04-04T13:59:46.833Z</time></trkpt><trkpt lat="43.1826567" lon="12.9014417"><ele>821.0</ele><time>2026-04-04T13:59:47.834Z</time></trkpt><trkpt lat="43.182725" lon="12.9014067"><ele>821.0000000000001</ele><time>2026-04-04T13:59:48.833Z</time></trkpt><trkpt lat="43.1828033" lon="12.9013917"><ele>821.0</ele><time>2026-04-04T13:59:49.834Z</time></trkpt><trkpt lat="43.1828933" lon="12.9013833"><ele>821.0</ele><time>2026-04-04T13:59:50.836Z</time></trkpt><trkpt lat="43.1829817" lon="12.9013633"><ele>821.0</ele><time>2026-04-04T13:59:51.833Z</time></trkpt><trkpt lat="43.1830717" lon="12.9013367"><ele>821.0000000000001</ele><time>2026-04-04T13:59:52.833Z</time></trkpt><trkpt lat="43.1831583" lon="12.9013"><ele>821.0</ele><time>2026-04-04T13:59:53.835Z</time></trkpt><trkpt lat="43.1832433" lon="12.90125"><ele>817.6666666666667</ele><time>2026-04-04T13:59:54.834Z</time></trkpt><trkpt lat="43.1833267" lon="12.9011967"><ele>814.3333333333334</ele><time>2026-04-04T13:59:55.835Z</time></trkpt><trkpt lat="43.1834033" lon="12.90114"><ele>811.0</ele><time>2026-04-04T13:59:56.835Z</time></trkpt><trkpt lat="43.1834783" lon="12.90108"><ele>807.6666666666667</ele><time>2026-04-04T13:59:57.834Z</time></trkpt><trkpt lat="43.1835533" lon="12.901025"><ele>804.3333333333334</ele><time>2026-04-04T13:59:58.833Z</time></trkpt><trkpt lat="43.18363" lon="12.901"><ele>801.0</ele><time>2026-04-04T13:59:59.834Z</time></trkpt><trkpt lat="43.183705" lon="12.9010033"><ele>801.0</ele><time>2026-04-04T14:00:00.829Z</time></trkpt><trkpt lat="43.1837883" lon="12.901025"><ele>801.0</ele><time>2026-04-04T14:00:01.832Z</time></trkpt><trkpt lat="43.1838917" lon="12.901045"><ele>801.0</ele><time>2026-04-04T14:00:02.832Z</time></trkpt><trkpt lat="43.1839983" lon="12.9010767"><ele>801.0</ele><time>2026-04-04T14:00:03.836Z</time></trkpt><trkpt lat="43.1840933" lon="12.901115"><ele>801.0</ele><time>2026-04-04T14:00:04.835Z</time></trkpt><trkpt lat="43.184175" lon="12.9011567"><ele>799.3333333333334</ele><time>2026-04-04T14:00:05.837Z</time></trkpt><trkpt lat="43.1842467" lon="12.9012033"><ele>797.6666666666667</ele><time>2026-04-04T14:00:06.837Z</time></trkpt><trkpt lat="43.18432" lon="12.9012583"><ele>796.0</ele><time>2026-04-04T14:00:07.835Z</time></trkpt><trkpt lat="43.1843933" lon="12.90132"><ele>794.3333333333334</ele><time>2026-04-04T14:00:08.839Z</time></trkpt><trkpt lat="43.1844617" lon="12.901385"><ele>792.6666666666667</ele><time>2026-04-04T14:00:09.834Z</time></trkpt><trkpt lat="43.1845217" lon="12.9014517"><ele>791.0</ele><time>2026-04-04T14:00:10.835Z</time></trkpt><trkpt lat="43.18458" lon="12.9015117"><ele>791.0000000000001</ele><time>2026-04-04T14:00:11.835Z</time></trkpt><trkpt lat="43.18464" lon="12.9015633"><ele>791.0</ele><time>2026-04-04T14:00:12.833Z</time></trkpt><trkpt lat="43.18471" lon="12.9016067"><ele>791.0</ele><time>2026-04-04T14:00:13.834Z</time></trkpt><trkpt lat="43.18479" lon="12.901655"><ele>791.0</ele><time>2026-04-04T14:00:14.835Z</time></trkpt><trkpt lat="43.1848717" lon="12.9017117"><ele>791.0000000000001</ele><time>2026-04-04T14:00:15.835Z</time></trkpt><trkpt lat="43.184945" lon="12.90177"><ele>791.0</ele><time>2026-04-04T14:00:16.834Z</time></trkpt><trkpt lat="43.18501" lon="12.9018267"><ele>785.6666666666667</ele><time>2026-04-04T14:00:17.835Z</time></trkpt><trkpt lat="43.185065" lon="12.901875"><ele>780.3333333333334</ele><time>2026-04-04T14:00:18.835Z</time></trkpt><trkpt lat="43.18514" lon="12.9019533"><ele>775.0</ele><time>2026-04-04T14:00:20.837Z</time></trkpt><trkpt lat="43.1851917" lon="12.902005"><ele>769.6666666666667</ele><time>2026-04-04T14:00:22.834Z</time></trkpt><trkpt lat="43.18527" lon="12.9020683"><ele>764.3333333333334</ele><time>2026-04-04T14:00:25.833Z</time></trkpt><trkpt lat="43.1853417" lon="12.9021333"><ele>759.0</ele><time>2026-04-04T14:00:27.834Z</time></trkpt><trkpt lat="43.1854317" lon="12.9022283"><ele>759.0</ele><time>2026-04-04T14:00:29.835Z</time></trkpt><trkpt lat="43.1855317" lon="12.9023183"><ele>759.0</ele><time>2026-04-04T14:00:31.835Z</time></trkpt><trkpt lat="43.1856433" lon="12.9024033"><ele>759.0</ele><time>2026-04-04T14:00:33.837Z</time></trkpt><trkpt lat="43.1857517" lon="12.9024817"><ele>759.0</ele><time>2026-04-04T14:00:35.836Z</time></trkpt><trkpt lat="43.1858067" lon="12.9025267"><ele>759.0</ele><time>2026-04-04T14:00:36.835Z</time></trkpt><trkpt lat="43.1859083" lon="12.9026117"><ele>753.8000000000001</ele><time>2026-04-04T14:00:38.836Z</time></trkpt><trkpt lat="43.1860133" lon="12.9026783"><ele>748.6</ele><time>2026-04-04T14:00:40.836Z</time></trkpt><trkpt lat="43.1861083" lon="12.90274"><ele>743.4</ele><time>2026-04-04T14:00:42.833Z</time></trkpt><trkpt lat="43.186205" lon="12.90281"><ele>738.2</ele><time>2026-04-04T14:00:44.834Z</time></trkpt><trkpt lat="43.1862983" lon="12.9028733"><ele>733.0</ele><time>2026-04-04T14:00:46.833Z</time></trkpt><trkpt lat="43.1863917" lon="12.90295"><ele>733.0</ele><time>2026-04-04T14:00:48.833Z</time></trkpt><trkpt lat="43.1864783" lon="12.9030233"><ele>733.0</ele><time>2026-04-04T14:00:50.836Z</time></trkpt><trkpt lat="43.1865633" lon="12.9030833"><ele>733.0</ele><time>2026-04-04T14:00:52.836Z</time></trkpt><trkpt lat="43.186635" lon="12.90316"><ele>733.0</ele><time>2026-04-04T14:00:54.835Z</time></trkpt><trkpt lat="43.1867167" lon="12.9032483"><ele>733.0</ele><time>2026-04-04T14:00:56.835Z</time></trkpt><trkpt lat="43.186785" lon="12.9033367"><ele>730.0</ele><time>2026-04-04T14:00:58.835Z</time></trkpt><trkpt lat="43.186845" lon="12.903415"><ele>727.0</ele><time>2026-04-04T14:01:00.836Z</time></trkpt><trkpt lat="43.1868917" lon="12.9035117"><ele>724.0</ele><time>2026-04-04T14:01:02.837Z</time></trkpt><trkpt lat="43.186945" lon="12.9036183"><ele>721.0</ele><time>2026-04-04T14:01:04.835Z</time></trkpt><trkpt lat="43.1870067" lon="12.9037367"><ele>718.0</ele><time>2026-04-04T14:01:06.836Z</time></trkpt><trkpt lat="43.18707" lon="12.9038467"><ele>718.0</ele><time>2026-04-04T14:01:08.835Z</time></trkpt><trkpt lat="43.187115" lon="12.903945"><ele>718.0</ele><time>2026-04-04T14:01:10.835Z</time></trkpt><trkpt lat="43.1871533" lon="12.904025"><ele>718.0</ele><time>2026-04-04T14:01:12.835Z</time></trkpt><trkpt lat="43.1871983" lon="12.9041083"><ele>718.0</ele><time>2026-04-04T14:01:14.835Z</time></trkpt><trkpt lat="43.1872617" lon="12.904225"><ele>718.0</ele><time>2026-04-04T14:01:16.835Z</time></trkpt><trkpt lat="43.18733" lon="12.9043633"><ele>718.2</ele><time>2026-04-04T14:01:18.834Z</time></trkpt><trkpt lat="43.1873917" lon="12.9045"><ele>718.4</ele><time>2026-04-04T14:01:20.836Z</time></trkpt><trkpt lat="43.1874483" lon="12.904615"><ele>718.6</ele><time>2026-04-04T14:01:22.833Z</time></trkpt><trkpt lat="43.1875133" lon="12.90473"><ele>718.8000000000001</ele><time>2026-04-04T14:01:24.833Z</time></trkpt><trkpt lat="43.1875633" lon="12.9048567"><ele>719.0</ele><time>2026-04-04T14:01:26.837Z</time></trkpt><trkpt lat="43.1876117" lon="12.9050017"><ele>713.2</ele><time>2026-04-04T14:01:28.834Z</time></trkpt><trkpt lat="43.187655" lon="12.9051333"><ele>707.4000000000001</ele><time>2026-04-04T14:01:30.832Z</time></trkpt><trkpt lat="43.187715" lon="12.9052767"><ele>701.6</ele><time>2026-04-04T14:01:32.83Z</time></trkpt><trkpt lat="43.1877683" lon="12.90543"><ele>695.8</ele><time>2026-04-04T14:01:34.835Z</time></trkpt><trkpt lat="43.1877917" lon="12.905515"><ele>690.0</ele><time>2026-04-04T14:01:35.835Z</time></trkpt><trkpt lat="43.1878167" lon="12.9056017"><ele>690.0</ele><time>2026-04-04T14:01:36.835Z</time></trkpt><trkpt lat="43.1878417" lon="12.9056833"><ele>690.0</ele><time>2026-04-04T14:01:37.834Z</time></trkpt><trkpt lat="43.1878917" lon="12.905835"><ele>690.0</ele><time>2026-04-04T14:01:39.833Z</time></trkpt><trkpt lat="43.1879183" lon="12.9059167"><ele>690.0</ele><time>2026-04-04T14:01:40.832Z</time></trkpt><trkpt lat="43.1879533" lon="12.906065"><ele>690.0</ele><time>2026-04-04T14:01:42.834Z</time></trkpt><trkpt lat="43.18799" lon="12.9062067"><ele>685.25</ele><time>2026-04-04T14:01:44.834Z</time></trkpt><trkpt lat="43.1880317" lon="12.90635"><ele>680.5</ele><time>2026-04-04T14:01:46.834Z</time></trkpt><trkpt lat="43.1880917" lon="12.9065017"><ele>675.75</ele><time>2026-04-04T14:01:48.833Z</time></trkpt><trkpt lat="43.1881433" lon="12.906635"><ele>671.0</ele><time>2026-04-04T14:01:50.834Z</time></trkpt><trkpt lat="43.1881817" lon="12.9067733"><ele>671.0</ele><time>2026-04-04T14:01:52.836Z</time></trkpt><trkpt lat="43.1882283" lon="12.9069167"><ele>671.0</ele><time>2026-04-04T14:01:54.834Z</time></trkpt><trkpt lat="43.1882617" lon="12.907045"><ele>671.0</ele><time>2026-04-04T14:01:56.834Z</time></trkpt><trkpt lat="43.1883067" lon="12.90718"><ele>671.0</ele><time>2026-04-04T14:01:58.833Z</time></trkpt><trkpt lat="43.1883633" lon="12.9073333"><ele>671.0</ele><time>2026-04-04T14:02:00.835Z</time></trkpt><trkpt lat="43.1884033" lon="12.907495"><ele>671.0</ele><time>2026-04-04T14:02:02.834Z</time></trkpt><trkpt lat="43.1884267" lon="12.9075767"><ele>671.0</ele><time>2026-04-04T14:02:03.834Z</time></trkpt><trkpt lat="43.1884533" lon="12.9076633"><ele>671.0</ele><time>2026-04-04T14:02:04.834Z</time></trkpt><trkpt lat="43.1884783" lon="12.9077483"><ele>671.0</ele><time>2026-04-04T14:02:05.834Z</time></trkpt><trkpt lat="43.1885017" lon="12.9078383"><ele>671.0</ele><time>2026-04-04T14:02:06.834Z</time></trkpt><trkpt lat="43.188525" lon="12.907925"><ele>671.0</ele><time>2026-04-04T14:02:07.835Z</time></trkpt><trkpt lat="43.1885467" lon="12.9080167"><ele>671.0</ele><time>2026-04-04T14:02:08.834Z</time></trkpt><trkpt lat="43.1885733" lon="12.9081017"><ele>667.5714285714286</ele><time>2026-04-04T14:02:09.834Z</time></trkpt><trkpt lat="43.1886" lon="12.9081883"><ele>664.1428571428572</ele><time>2026-04-04T14:02:10.834Z</time></trkpt><trkpt lat="43.188625" lon="12.9082767"><ele>660.7142857142858</ele><time>2026-04-04T14:02:11.83Z</time></trkpt><trkpt lat="43.1886467" lon="12.90837"><ele>657.2857142857142</ele><time>2026-04-04T14:02:12.833Z</time></trkpt><trkpt lat="43.188665" lon="12.9084683"><ele>653.8571428571429</ele><time>2026-04-04T14:02:13.833Z</time></trkpt><trkpt lat="43.1886867" lon="12.9085617"><ele>650.4285714285714</ele><time>2026-04-04T14:02:14.828Z</time></trkpt><trkpt lat="43.1887083" lon="12.9086483"><ele>647.0</ele><time>2026-04-04T14:02:15.834Z</time></trkpt><trkpt lat="43.1887533" lon="12.9087867"><ele>642.3333333333333</ele><time>2026-04-04T14:02:17.834Z</time></trkpt><trkpt lat="43.1887767" lon="12.9088717"><ele>637.6666666666666</ele><time>2026-04-04T14:02:20.836Z</time></trkpt><trkpt lat="43.1886783" lon="12.9089083"><ele>633.0</ele><time>2026-04-04T14:02:23.834Z</time></trkpt><trkpt lat="43.1886167" lon="12.9088883"><ele>628.3333333333334</ele><time>2026-04-04T14:02:24.833Z</time></trkpt><trkpt lat="43.1885183" lon="12.9088417"><ele>623.6666666666667</ele><time>2026-04-04T14:02:26.833Z</time></trkpt><trkpt lat="43.1884417" lon="12.9088167"><ele>619.0</ele><time>2026-04-04T14:02:28.835Z</time></trkpt><trkpt lat="43.1884517" lon="12.90893"><ele>619.0</ele><time>2026-04-04T14:02:30.834Z</time></trkpt><trkpt lat="43.18847" lon="12.9090783"><ele>619.0</ele><time>2026-04-04T14:02:32.834Z</time></trkpt><trkpt lat="43.1884883" lon="12.9092517"><ele>619.0</ele><time>2026-04-04T14:02:34.833Z</time></trkpt><trkpt lat="43.1885117" lon="12.909345"><ele>619.0</ele><time>2026-04-04T14:02:35.833Z</time></trkpt><trkpt lat="43.1885367" lon="12.9094433"><ele>619.0</ele><time>2026-04-04T14:02:36.834Z</time></trkpt><trkpt lat="43.18857" lon="12.9095417"><ele>614.0</ele><time>2026-04-04T14:02:37.834Z</time></trkpt><trkpt lat="43.1885967" lon="12.9096217"><ele>609.0</ele><time>2026-04-04T14:02:38.837Z</time></trkpt><trkpt lat="43.18862" lon="12.9097217"><ele>604.0</ele><time>2026-04-04T14:02:40.834Z</time></trkpt><trkpt lat="43.18855" lon="12.9097183"><ele>599.0</ele><time>2026-04-04T14:02:42.833Z</time></trkpt><trkpt lat="43.1884283" lon="12.9096733"><ele>594.0</ele><time>2026-04-04T14:02:44.834Z</time></trkpt><trkpt lat="43.1883717" lon="12.909635"><ele>589.0</ele><time>2026-04-04T14:02:45.834Z</time></trkpt><trkpt lat="43.1883117" lon="12.9095967"><ele>589.0</ele><time>2026-04-04T14:02:46.834Z</time></trkpt><trkpt lat="43.1882517" lon="12.9095533"><ele>589.0</ele><time>2026-04-04T14:02:47.834Z</time></trkpt><trkpt lat="43.1881883" lon="12.9095067"><ele>589.0</ele><time>2026-04-04T14:02:48.832Z</time></trkpt><trkpt lat="43.1881217" lon="12.9094517"><ele>589.0</ele><time>2026-04-04T14:02:49.834Z</time></trkpt><trkpt lat="43.1880617" lon="12.9094"><ele>589.0</ele><time>2026-04-04T14:02:50.834Z</time></trkpt><trkpt lat="43.1879833" lon="12.90931"><ele>589.0</ele><time>2026-04-04T14:02:52.834Z</time></trkpt><trkpt lat="43.1879183" lon="12.90928"><ele>582.0</ele><time>2026-04-04T14:02:55.834Z</time></trkpt><trkpt lat="43.1878983" lon="12.909365"><ele>575.0</ele><time>2026-04-04T14:02:57.833Z</time></trkpt><trkpt lat="43.1879083" lon="12.9094983"><ele>568.0</ele><time>2026-04-04T14:02:59.833Z</time></trkpt><trkpt lat="43.1879167" lon="12.9096033"><ele>561.0</ele><time>2026-04-04T14:03:02.833Z</time></trkpt><trkpt lat="43.1879217" lon="12.909695"><ele>554.0</ele><time>2026-04-04T14:03:04.833Z</time></trkpt><trkpt lat="43.1879417" lon="12.9098167"><ele>547.0</ele><time>2026-04-04T14:03:06.829Z</time></trkpt><trkpt lat="43.1879583" lon="12.9099617"><ele>541.8000000000001</ele><time>2026-04-04T14:03:08.835Z</time></trkpt><trkpt lat="43.187975" lon="12.9101133"><ele>536.6</ele><time>2026-04-04T14:03:10.834Z</time></trkpt><trkpt lat="43.1879967" lon="12.9102817"><ele>531.4000000000001</ele><time>2026-04-04T14:03:12.833Z</time></trkpt><trkpt lat="43.1880083" lon="12.9103683"><ele>526.2</ele><time>2026-04-04T14:03:13.833Z</time></trkpt><trkpt lat="43.188015" lon="12.910455"><ele>521.0</ele><time>2026-04-04T14:03:14.832Z</time></trkpt><trkpt lat="43.188035" lon="12.9106183"><ele>521.0</ele><time>2026-04-04T14:03:16.833Z</time></trkpt><trkpt lat="43.1880683" lon="12.9107767"><ele>521.0</ele><time>2026-04-04T14:03:18.835Z</time></trkpt><trkpt lat="43.188075" lon="12.9108633"><ele>521.0</ele><time>2026-04-04T14:03:19.834Z</time></trkpt><trkpt lat="43.1881117" lon="12.911"><ele>521.0</ele><time>2026-04-04T14:03:21.835Z</time></trkpt><trkpt lat="43.1881567" lon="12.9111367"><ele>521.0</ele><time>2026-04-04T14:03:23.827Z</time></trkpt><trkpt lat="43.1882133" lon="12.91124"><ele>521.4</ele><time>2026-04-04T14:03:25.829Z</time></trkpt><trkpt lat="43.1882867" lon="12.9112583"><ele>521.8</ele><time>2026-04-04T14:03:35.832Z</time></trkpt><trkpt lat="43.1883717" lon="12.9113133"><ele>522.1999999999999</ele><time>2026-04-04T14:03:38.836Z</time></trkpt><trkpt lat="43.1884567" lon="12.9113733"><ele>522.6</ele><time>2026-04-04T14:03:40.832Z</time></trkpt><trkpt lat="43.1885667" lon="12.9114417"><ele>523.0</ele><time>2026-04-04T14:03:42.833Z</time></trkpt><trkpt lat="43.18863" lon="12.91146"><ele>523.0</ele><time>2026-04-04T14:03:43.829Z</time></trkpt><trkpt lat="43.1887333" lon="12.9114833"><ele>523.0</ele><time>2026-04-04T14:03:45.833Z</time></trkpt><trkpt lat="43.1888083" lon="12.911505"><ele>523.0</ele><time>2026-04-04T14:03:47.834Z</time></trkpt><trkpt lat="43.1888717" lon="12.911565"><ele>523.0</ele><time>2026-04-04T14:03:49.836Z</time></trkpt><trkpt lat="43.1889133" lon="12.9116517"><ele>523.0</ele><time>2026-04-04T14:03:51.833Z</time></trkpt><trkpt lat="43.18894" lon="12.9117467"><ele>523.0</ele><time>2026-04-04T14:03:53.834Z</time></trkpt><trkpt lat="43.1889667" lon="12.9118417"><ele>521.8</ele><time>2026-04-04T14:03:55.835Z</time></trkpt><trkpt lat="43.1890267" lon="12.911915"><ele>520.5999999999999</ele><time>2026-04-04T14:03:57.835Z</time></trkpt><trkpt lat="43.1891233" lon="12.9119117"><ele>519.4000000000001</ele><time>2026-04-04T14:03:59.834Z</time></trkpt><trkpt lat="43.1892183" lon="12.9118483"><ele>518.2</ele><time>2026-04-04T14:04:01.833Z</time></trkpt><trkpt lat="43.1893117" lon="12.91174"><ele>517.0</ele><time>2026-04-04T14:04:03.832Z</time></trkpt><trkpt lat="43.1893633" lon="12.9116767"><ele>517.0</ele><time>2026-04-04T14:04:04.833Z</time></trkpt><trkpt lat="43.1894167" lon="12.9116067"><ele>517.0</ele><time>2026-04-04T14:04:05.834Z</time></trkpt><trkpt lat="43.1894667" lon="12.91153"><ele>517.0</ele><time>2026-04-04T14:04:06.832Z</time></trkpt><trkpt lat="43.1895183" lon="12.9114467"><ele>517.0</ele><time>2026-04-04T14:04:07.833Z</time></trkpt><trkpt lat="43.1895733" lon="12.91136"><ele>517.0</ele><time>2026-04-04T14:04:08.834Z</time></trkpt><trkpt lat="43.18963" lon="12.911275"><ele>517.0</ele><time>2026-04-04T14:04:09.832Z</time></trkpt><trkpt lat="43.189695" lon="12.9112"><ele>517.0</ele><time>2026-04-04T14:04:10.833Z</time></trkpt><trkpt lat="43.1897633" lon="12.911135"><ele>517.0</ele><time>2026-04-04T14:04:11.833Z</time></trkpt><trkpt lat="43.1898367" lon="12.9110767"><ele>517.0</ele><time>2026-04-04T14:04:12.833Z</time></trkpt><trkpt lat="43.1899133" lon="12.9110283"><ele>517.0</ele><time>2026-04-04T14:04:13.832Z</time></trkpt><trkpt lat="43.1899967" lon="12.9109833"><ele>517.0</ele><time>2026-04-04T14:04:14.836Z</time></trkpt><trkpt lat="43.1900933" lon="12.91094"><ele>517.0</ele><time>2026-04-04T14:04:15.834Z</time></trkpt><trkpt lat="43.1901967" lon="12.9108967"><ele>516.0</ele><time>2026-04-04T14:04:16.834Z</time></trkpt><trkpt lat="43.1903" lon="12.9108467"><ele>515.0</ele><time>2026-04-04T14:04:17.833Z</time></trkpt><trkpt lat="43.19041" lon="12.9108033"><ele>514.0</ele><time>2026-04-04T14:04:18.835Z</time></trkpt><trkpt lat="43.1905183" lon="12.910765"><ele>513.0</ele><time>2026-04-04T14:04:19.835Z</time></trkpt><trkpt lat="43.19063" lon="12.9107317"><ele>507.2</ele><time>2026-04-04T14:04:20.835Z</time></trkpt><trkpt lat="43.1907383" lon="12.9107033"><ele>501.4</ele><time>2026-04-04T14:04:21.834Z</time></trkpt><trkpt lat="43.1908367" lon="12.9106817"><ele>495.59999999999997</ele><time>2026-04-04T14:04:22.835Z</time></trkpt><trkpt lat="43.190925" lon="12.9106683"><ele>489.79999999999995</ele><time>2026-04-04T14:04:23.835Z</time></trkpt><trkpt lat="43.1910083" lon="12.9106567"><ele>484.0</ele><time>2026-04-04T14:04:24.834Z</time></trkpt><trkpt lat="43.1910783" lon="12.9106433"><ele>484.00000000000006</ele><time>2026-04-04T14:04:25.834Z</time></trkpt><trkpt lat="43.19119" lon="12.9106033"><ele>484.0</ele><time>2026-04-04T14:04:27.832Z</time></trkpt><trkpt lat="43.1912767" lon="12.9105383"><ele>484.0</ele><time>2026-04-04T14:04:29.832Z</time></trkpt><trkpt lat="43.1913467" lon="12.9104567"><ele>484.0</ele><time>2026-04-04T14:04:31.833Z</time></trkpt><trkpt lat="43.1914" lon="12.910395"><ele>484.00000000000006</ele><time>2026-04-04T14:04:33.834Z</time></trkpt><trkpt lat="43.1914717" lon="12.9104017"><ele>484.0</ele><time>2026-04-04T14:04:36.835Z</time></trkpt><trkpt lat="43.1914567" lon="12.9105033"><ele>484.00000000000006</ele><time>2026-04-04T14:04:39.835Z</time></trkpt><trkpt lat="43.1913867" lon="12.9105933"><ele>484.0</ele><time>2026-04-04T14:04:41.833Z</time></trkpt><trkpt lat="43.191305" lon="12.91068"><ele>484.0</ele><time>2026-04-04T14:04:43.835Z</time></trkpt><trkpt lat="43.1912317" lon="12.9107417"><ele>484.0</ele><time>2026-04-04T14:04:45.834Z</time></trkpt><trkpt lat="43.1911967" lon="12.9108217"><ele>484.00000000000006</ele><time>2026-04-04T14:04:47.833Z</time></trkpt><trkpt lat="43.1912367" lon="12.9108917"><ele>484.0</ele><time>2026-04-04T14:04:49.835Z</time></trkpt><trkpt lat="43.1913217" lon="12.910875"><ele>484.0</ele><time>2026-04-04T14:04:51.833Z</time></trkpt><trkpt lat="43.1914067" lon="12.9107967"><ele>484.0</ele><time>2026-04-04T14:04:53.835Z</time></trkpt><trkpt lat="43.1914817" lon="12.9107283"><ele>484.0</ele><time>2026-04-04T14:04:55.833Z</time></trkpt><trkpt lat="43.1915533" lon="12.91069"><ele>484.0</ele><time>2026-04-04T14:04:57.832Z</time></trkpt><trkpt lat="43.1916283" lon="12.9107017"><ele>484.0</ele><time>2026-04-04T14:04:59.833Z</time></trkpt><trkpt lat="43.191745" lon="12.910615"><ele>481.6666666666667</ele><time>2026-04-04T14:05:34.834Z</time></trkpt><trkpt lat="43.19182" lon="12.910505"><ele>479.33333333333337</ele><time>2026-04-04T14:05:36.834Z</time></trkpt><trkpt lat="43.1918767" lon="12.9104467"><ele>477.0</ele><time>2026-04-04T14:05:37.833Z</time></trkpt><trkpt lat="43.19194" lon="12.9103833"><ele>474.66666666666663</ele><time>2026-04-04T14:05:38.835Z</time></trkpt><trkpt lat="43.1920033" lon="12.9103017"><ele>472.3333333333333</ele><time>2026-04-04T14:05:39.834Z</time></trkpt><trkpt lat="43.1920633" lon="12.91021"><ele>470.0</ele><time>2026-04-04T14:05:40.833Z</time></trkpt><trkpt lat="43.192125" lon="12.9101217"><ele>469.49999999999994</ele><time>2026-04-04T14:05:41.834Z</time></trkpt><trkpt lat="43.192185" lon="12.91004"><ele>469.0</ele><time>2026-04-04T14:05:42.835Z</time></trkpt><trkpt lat="43.19225" lon="12.90996"><ele>468.5</ele><time>2026-04-04T14:05:43.831Z</time></trkpt><trkpt lat="43.1923133" lon="12.9098817"><ele>468.0</ele><time>2026-04-04T14:05:44.835Z</time></trkpt><trkpt lat="43.1923783" lon="12.9098033"><ele>467.49999999999994</ele><time>2026-04-04T14:05:45.835Z</time></trkpt><trkpt lat="43.1924483" lon="12.90972"><ele>467.0</ele><time>2026-04-04T14:05:46.834Z</time></trkpt><trkpt lat="43.19252" lon="12.9096317"><ele>467.0</ele><time>2026-04-04T14:05:47.835Z</time></trkpt><trkpt lat="43.192595" lon="12.90954"><ele>467.00000000000006</ele><time>2026-04-04T14:05:48.834Z</time></trkpt><trkpt lat="43.1926667" lon="12.90945"><ele>467.00000000000006</ele><time>2026-04-04T14:05:49.832Z</time></trkpt><trkpt lat="43.1927367" lon="12.9093567"><ele>467.0</ele><time>2026-04-04T14:05:50.834Z</time></trkpt><trkpt lat="43.1928067" lon="12.9092517"><ele>467.0</ele><time>2026-04-04T14:05:51.832Z</time></trkpt><trkpt lat="43.1928717" lon="12.909135"><ele>466.20000000000005</ele><time>2026-04-04T14:05:52.832Z</time></trkpt><trkpt lat="43.1929367" lon="12.9090167"><ele>465.40000000000003</ele><time>2026-04-04T14:05:53.835Z</time></trkpt><trkpt lat="43.1930033" lon="12.9088983"><ele>464.59999999999997</ele><time>2026-04-04T14:05:54.835Z</time></trkpt><trkpt lat="43.1930683" lon="12.908775"><ele>463.79999999999995</ele><time>2026-04-04T14:05:55.834Z</time></trkpt><trkpt lat="43.1931317" lon="12.9086483"><ele>463.0</ele><time>2026-04-04T14:05:56.832Z</time></trkpt><trkpt lat="43.1932017" lon="12.9085217"><ele>463.79999999999995</ele><time>2026-04-04T14:05:57.835Z</time></trkpt><trkpt lat="43.1932733" lon="12.9084067"><ele>464.59999999999997</ele><time>2026-04-04T14:05:58.834Z</time></trkpt><trkpt lat="43.19334" lon="12.908305"><ele>465.40000000000003</ele><time>2026-04-04T14:05:59.834Z</time></trkpt><trkpt lat="43.193395" lon="12.9082183"><ele>466.20000000000005</ele><time>2026-04-04T14:06:00.835Z</time></trkpt><trkpt lat="43.193435" lon="12.9081483"><ele>467.0</ele><time>2026-04-04T14:06:01.838Z</time></trkpt><trkpt lat="43.1934783" lon="12.9080183"><ele>467.0</ele><time>2026-04-04T14:06:03.835Z</time></trkpt><trkpt lat="43.19348" lon="12.907905"><ele>467.00000000000006</ele><time>2026-04-04T14:06:05.832Z</time></trkpt><trkpt lat="43.1934867" lon="12.90778"><ele>467.00000000000006</ele><time>2026-04-04T14:06:07.832Z</time></trkpt><trkpt lat="43.1935" lon="12.9076533"><ele>467.0</ele><time>2026-04-04T14:06:09.834Z</time></trkpt><trkpt lat="43.193505" lon="12.907535"><ele>467.0</ele><time>2026-04-04T14:06:11.834Z</time></trkpt><trkpt lat="43.1935033" lon="12.9074"><ele>467.99999999999994</ele><time>2026-04-04T14:06:13.833Z</time></trkpt><trkpt lat="43.1935067" lon="12.9073133"><ele>469.0</ele><time>2026-04-04T14:06:14.834Z</time></trkpt><trkpt lat="43.193505" lon="12.9072133"><ele>469.99999999999994</ele><time>2026-04-04T14:06:15.833Z</time></trkpt><trkpt lat="43.193505" lon="12.9071133"><ele>470.99999999999994</ele><time>2026-04-04T14:06:16.832Z</time></trkpt><trkpt lat="43.1934867" lon="12.9070167"><ele>472.0</ele><time>2026-04-04T14:06:17.832Z</time></trkpt><trkpt lat="43.1934633" lon="12.9069167"><ele>472.99999999999994</ele><time>2026-04-04T14:06:18.834Z</time></trkpt><trkpt lat="43.1934383" lon="12.9068033"><ele>473.99999999999994</ele><time>2026-04-04T14:06:19.834Z</time></trkpt><trkpt lat="43.1934183" lon="12.90668"><ele>474.2</ele><time>2026-04-04T14:06:20.834Z</time></trkpt><trkpt lat="43.1934033" lon="12.9065517"><ele>474.4</ele><time>2026-04-04T14:06:21.833Z</time></trkpt><trkpt lat="43.1933967" lon="12.9064217"><ele>474.6</ele><time>2026-04-04T14:06:22.834Z</time></trkpt><trkpt lat="43.1933967" lon="12.9062917"><ele>474.8</ele><time>2026-04-04T14:06:23.833Z</time></trkpt><trkpt lat="43.1934" lon="12.9061667"><ele>475.0</ele><time>2026-04-04T14:06:24.832Z</time></trkpt><trkpt lat="43.1934083" lon="12.9060417"><ele>475.00000000000006</ele><time>2026-04-04T14:06:25.833Z</time></trkpt><trkpt lat="43.193415" lon="12.90592"><ele>475.0</ele><time>2026-04-04T14:06:26.833Z</time></trkpt><trkpt lat="43.1934267" lon="12.9058"><ele>475.0</ele><time>2026-04-04T14:06:27.833Z</time></trkpt><trkpt lat="43.1934483" lon="12.9056817"><ele>475.0</ele><time>2026-04-04T14:06:28.833Z</time></trkpt><trkpt lat="43.1934733" lon="12.905565"><ele>475.00000000000006</ele><time>2026-04-04T14:06:29.834Z</time></trkpt><trkpt lat="43.1935017" lon="12.9054483"><ele>475.0</ele><time>2026-04-04T14:06:30.834Z</time></trkpt><trkpt lat="43.19352" lon="12.905325"><ele>474.33333333333337</ele><time>2026-04-04T14:06:31.834Z</time></trkpt><trkpt lat="43.1935417" lon="12.9052033"><ele>473.6666666666667</ele><time>2026-04-04T14:06:32.834Z</time></trkpt><trkpt lat="43.193565" lon="12.905075"><ele>473.0</ele><time>2026-04-04T14:06:33.834Z</time></trkpt><trkpt lat="43.1935933" lon="12.9049583"><ele>472.33333333333337</ele><time>2026-04-04T14:06:34.834Z</time></trkpt><trkpt lat="43.1936217" lon="12.9048483"><ele>471.6666666666667</ele><time>2026-04-04T14:06:35.833Z</time></trkpt><trkpt lat="43.193645" lon="12.9047367"><ele>471.0</ele><time>2026-04-04T14:06:36.834Z</time></trkpt><trkpt lat="43.1936717" lon="12.9046217"><ele>470.6</ele><time>2026-04-04T14:06:37.834Z</time></trkpt><trkpt lat="43.193705" lon="12.9045017"><ele>470.20000000000005</ele><time>2026-04-04T14:06:38.835Z</time></trkpt><trkpt lat="43.19374" lon="12.904375"><ele>469.79999999999995</ele><time>2026-04-04T14:06:39.834Z</time></trkpt><trkpt lat="43.1937783" lon="12.9042433"><ele>469.4</ele><time>2026-04-04T14:06:40.833Z</time></trkpt><trkpt lat="43.193815" lon="12.9041083"><ele>469.0</ele><time>2026-04-04T14:06:41.833Z</time></trkpt><trkpt lat="43.1938567" lon="12.90396"><ele>469.0</ele><time>2026-04-04T14:06:42.833Z</time></trkpt><trkpt lat="43.193895" lon="12.903805"><ele>469.0</ele><time>2026-04-04T14:06:43.833Z</time></trkpt><trkpt lat="43.1939367" lon="12.903645"><ele>469.0</ele><time>2026-04-04T14:06:44.835Z</time></trkpt><trkpt lat="43.1939817" lon="12.9034917"><ele>469.0</ele><time>2026-04-04T14:06:45.834Z</time></trkpt><trkpt lat="43.1940283" lon="12.90335"><ele>469.0</ele><time>2026-04-04T14:06:46.832Z</time></trkpt><trkpt lat="43.19407" lon="12.9032167"><ele>469.0</ele><time>2026-04-04T14:06:47.833Z</time></trkpt><trkpt lat="43.1941067" lon="12.9030933"><ele>469.0</ele><time>2026-04-04T14:06:48.832Z</time></trkpt><trkpt lat="43.1941417" lon="12.9029733"><ele>469.0</ele><time>2026-04-04T14:06:49.833Z</time></trkpt><trkpt lat="43.1941733" lon="12.90286"><ele>469.0</ele><time>2026-04-04T14:06:50.832Z</time></trkpt><trkpt lat="43.1942017" lon="12.9027517"><ele>469.00000000000006</ele><time>2026-04-04T14:06:51.832Z</time></trkpt><trkpt lat="43.1942333" lon="12.902645"><ele>469.0</ele><time>2026-04-04T14:06:52.833Z</time></trkpt><trkpt lat="43.19426" lon="12.90253"><ele>469.0</ele><time>2026-04-04T14:06:53.834Z</time></trkpt><trkpt lat="43.1942833" lon="12.9024133"><ele>469.0</ele><time>2026-04-04T14:06:54.833Z</time></trkpt><trkpt lat="43.1943083" lon="12.9023017"><ele>469.00000000000006</ele><time>2026-04-04T14:06:55.832Z</time></trkpt><trkpt lat="43.1943317" lon="12.902185"><ele>469.0</ele><time>2026-04-04T14:06:56.833Z</time></trkpt><trkpt lat="43.1943517" lon="12.9020633"><ele>469.83333333333337</ele><time>2026-04-04T14:06:57.833Z</time></trkpt><trkpt lat="43.1943667" lon="12.9019517"><ele>470.6666666666667</ele><time>2026-04-04T14:06:58.834Z</time></trkpt><trkpt lat="43.194375" lon="12.9018483"><ele>471.5</ele><time>2026-04-04T14:06:59.833Z</time></trkpt><trkpt lat="43.1943717" lon="12.9017517"><ele>472.33333333333337</ele><time>2026-04-04T14:07:00.834Z</time></trkpt><trkpt lat="43.1943533" lon="12.901635"><ele>473.1666666666667</ele><time>2026-04-04T14:07:02.835Z</time></trkpt><trkpt lat="43.1942933" lon="12.9015967"><ele>474.0</ele><time>2026-04-04T14:07:18.834Z</time></trkpt><trkpt lat="43.19438" lon="12.90153"><ele>474.0</ele><time>2026-04-04T14:07:40.832Z</time></trkpt><trkpt lat="43.194465" lon="12.9015317"><ele>474.0</ele><time>2026-04-04T14:07:42.833Z</time></trkpt><trkpt lat="43.19453" lon="12.9015017"><ele>474.0</ele><time>2026-04-04T14:07:44.833Z</time></trkpt><trkpt lat="43.19459" lon="12.901465"><ele>474.0</ele><time>2026-04-04T14:07:47.831Z</time></trkpt><trkpt lat="43.1946162" lon="12.9012948"><ele>474.0</ele><time>2026-04-04T14:08:27.834Z</time></trkpt><trkpt lat="43.1945849" lon="12.9011546"><ele>474.0</ele><time>2026-04-04T14:08:28.833Z</time></trkpt><trkpt lat="43.194537" lon="12.9010313"><ele>474.0</ele><time>2026-04-04T14:08:29.833Z</time></trkpt><trkpt lat="43.1944869" lon="12.9009173"><ele>474.0</ele><time>2026-04-04T14:08:30.834Z</time></trkpt><trkpt lat="43.1944377" lon="12.9008034"><ele>474.0</ele><time>2026-04-04T14:08:31.833Z</time></trkpt><trkpt lat="43.1943847" lon="12.9006888"><ele>474.0</ele><time>2026-04-04T14:08:32.835Z</time></trkpt><trkpt lat="43.1943291" lon="12.9005743"><ele>473.79999999999995</ele><time>2026-04-04T14:08:33.833Z</time></trkpt><trkpt lat="43.1942681" lon="12.9004605"><ele>473.59999999999997</ele><time>2026-04-04T14:08:34.834Z</time></trkpt><trkpt lat="43.1942003" lon="12.9003445"><ele>473.4</ele><time>2026-04-04T14:08:35.832Z</time></trkpt><trkpt lat="43.1941234" lon="12.9002248"><ele>473.2</ele><time>2026-04-04T14:08:36.832Z</time></trkpt><trkpt lat="43.1940428" lon="12.9001025"><ele>473.0</ele><time>2026-04-04T14:08:37.833Z</time></trkpt><trkpt lat="43.1939606" lon="12.8999744"><ele>473.0</ele><time>2026-04-04T14:08:38.834Z</time></trkpt><trkpt lat="43.193881" lon="12.8998396"><ele>473.0</ele><time>2026-04-04T14:08:39.835Z</time></trkpt><trkpt lat="43.1938026" lon="12.8996955"><ele>473.0</ele><time>2026-04-04T14:08:40.833Z</time></trkpt><trkpt lat="43.1937267" lon="12.8995437"><ele>473.0</ele><time>2026-04-04T14:08:41.833Z</time></trkpt><trkpt lat="43.1936517" lon="12.8993867"><ele>472.5</ele><time>2026-04-04T14:08:42.833Z</time></trkpt><trkpt lat="43.1935771" lon="12.8992265"><ele>472.0</ele><time>2026-04-04T14:08:43.833Z</time></trkpt><trkpt lat="43.1935017" lon="12.8990657"><ele>471.5</ele><time>2026-04-04T14:08:44.835Z</time></trkpt><trkpt lat="43.1934295" lon="12.8989098"><ele>471.0</ele><time>2026-04-04T14:08:45.831Z</time></trkpt><trkpt lat="43.1933596" lon="12.898759"><ele>471.0</ele><time>2026-04-04T14:08:46.833Z</time></trkpt><trkpt lat="43.19329" lon="12.8986082"><ele>471.0</ele><time>2026-04-04T14:08:47.832Z</time></trkpt><trkpt lat="43.1932203" lon="12.8984518"><ele>471.0</ele><time>2026-04-04T14:08:48.832Z</time></trkpt><trkpt lat="43.1931474" lon="12.8982878"><ele>471.0</ele><time>2026-04-04T14:08:49.833Z</time></trkpt><trkpt lat="43.193074" lon="12.8981212"><ele>471.25</ele><time>2026-04-04T14:08:50.832Z</time></trkpt><trkpt lat="43.1929976" lon="12.8979511"><ele>471.5</ele><time>2026-04-04T14:08:51.833Z</time></trkpt><trkpt lat="43.1929175" lon="12.8977776"><ele>471.75</ele><time>2026-04-04T14:08:52.833Z</time></trkpt><trkpt lat="43.1928326" lon="12.8976025"><ele>472.0</ele><time>2026-04-04T14:08:53.834Z</time></trkpt><trkpt lat="43.1927411" lon="12.8974316"><ele>473.0</ele><time>2026-04-04T14:08:54.833Z</time></trkpt><trkpt lat="43.192644" lon="12.8972689"><ele>474.0</ele><time>2026-04-04T14:08:55.833Z</time></trkpt><trkpt lat="43.1925424" lon="12.8971117"><ele>475.0</ele><time>2026-04-04T14:08:56.834Z</time></trkpt><trkpt lat="43.1924413" lon="12.8969577"><ele>475.0</ele><time>2026-04-04T14:08:57.833Z</time></trkpt><trkpt lat="43.1923425" lon="12.8968014"><ele>475.0</ele><time>2026-04-04T14:08:58.834Z</time></trkpt><trkpt lat="43.1922463" lon="12.896637"><ele>475.0</ele><time>2026-04-04T14:08:59.833Z</time></trkpt><trkpt lat="43.192154" lon="12.8964614"><ele>475.6666666666667</ele><time>2026-04-04T14:09:00.833Z</time></trkpt><trkpt lat="43.1920655" lon="12.8962728"><ele>476.33333333333337</ele><time>2026-04-04T14:09:01.833Z</time></trkpt><trkpt lat="43.1919825" lon="12.8960802"><ele>477.0</ele><time>2026-04-04T14:09:02.834Z</time></trkpt><trkpt lat="43.1918984" lon="12.8958864"><ele>477.0</ele><time>2026-04-04T14:09:03.833Z</time></trkpt><trkpt lat="43.1918167" lon="12.8956883"><ele>477.0</ele><time>2026-04-04T14:09:04.83Z</time></trkpt><trkpt lat="43.19173" lon="12.8954917"><ele>477.0</ele><time>2026-04-04T14:09:05.832Z</time></trkpt><trkpt lat="43.1916417" lon="12.8952983"><ele>477.0</ele><time>2026-04-04T14:09:06.828Z</time></trkpt><trkpt lat="43.1915567" lon="12.8951133"><ele>477.0</ele><time>2026-04-04T14:09:07.833Z</time></trkpt><trkpt lat="43.1914567" lon="12.8949467"><ele>477.0</ele><time>2026-04-04T14:09:08.835Z</time></trkpt><trkpt lat="43.19134" lon="12.8948033"><ele>476.0</ele><time>2026-04-04T14:09:09.834Z</time></trkpt><trkpt lat="43.1912033" lon="12.8946917"><ele>475.0</ele><time>2026-04-04T14:09:10.834Z</time></trkpt><trkpt lat="43.191055" lon="12.8946067"><ele>474.0</ele><time>2026-04-04T14:09:11.833Z</time></trkpt><trkpt lat="43.1909133" lon="12.8945317"><ele>474.0</ele><time>2026-04-04T14:09:12.834Z</time></trkpt><trkpt lat="43.19078" lon="12.894445"><ele>474.0</ele><time>2026-04-04T14:09:13.835Z</time></trkpt><trkpt lat="43.1906633" lon="12.89435"><ele>474.0</ele><time>2026-04-04T14:09:14.834Z</time></trkpt><trkpt lat="43.19058" lon="12.8942233"><ele>474.0</ele><time>2026-04-04T14:09:15.834Z</time></trkpt><trkpt lat="43.1905267" lon="12.89407"><ele>475.25</ele><time>2026-04-04T14:09:16.833Z</time></trkpt><trkpt lat="43.1904817" lon="12.8938933"><ele>476.5</ele><time>2026-04-04T14:09:17.834Z</time></trkpt><trkpt lat="43.1904383" lon="12.8936967"><ele>477.75</ele><time>2026-04-04T14:09:18.837Z</time></trkpt><trkpt lat="43.1903967" lon="12.893495"><ele>479.0</ele><time>2026-04-04T14:09:19.834Z</time></trkpt><trkpt lat="43.1903417" lon="12.8932833"><ele>479.0</ele><time>2026-04-04T14:09:20.834Z</time></trkpt><trkpt lat="43.1902833" lon="12.89306"><ele>479.0</ele><time>2026-04-04T14:09:21.834Z</time></trkpt><trkpt lat="43.19022" lon="12.8928367"><ele>479.0</ele><time>2026-04-04T14:09:22.832Z</time></trkpt><trkpt lat="43.1901567" lon="12.892615"><ele>479.0</ele><time>2026-04-04T14:09:23.836Z</time></trkpt><trkpt lat="43.1900933" lon="12.8923983"><ele>479.0</ele><time>2026-04-04T14:09:24.833Z</time></trkpt><trkpt lat="43.19003" lon="12.8921867"><ele>479.0</ele><time>2026-04-04T14:09:25.835Z</time></trkpt><trkpt lat="43.1899583" lon="12.89198"><ele>479.0</ele><time>2026-04-04T14:09:26.834Z</time></trkpt><trkpt lat="43.1898783" lon="12.89178"><ele>479.0</ele><time>2026-04-04T14:09:27.836Z</time></trkpt><trkpt lat="43.189785" lon="12.8915917"><ele>479.0</ele><time>2026-04-04T14:09:28.834Z</time></trkpt><trkpt lat="43.1896783" lon="12.891415"><ele>477.66666666666663</ele><time>2026-04-04T14:09:29.835Z</time></trkpt><trkpt lat="43.1895633" lon="12.8912533"><ele>476.33333333333337</ele><time>2026-04-04T14:09:30.835Z</time></trkpt><trkpt lat="43.1894433" lon="12.891105"><ele>475.0</ele><time>2026-04-04T14:09:31.833Z</time></trkpt><trkpt lat="43.1893283" lon="12.8909683"><ele>476.5</ele><time>2026-04-04T14:09:32.834Z</time></trkpt><trkpt lat="43.1892183" lon="12.8908367"><ele>478.0</ele><time>2026-04-04T14:09:33.833Z</time></trkpt><trkpt lat="43.1891183" lon="12.890715"><ele>479.5</ele><time>2026-04-04T14:09:34.835Z</time></trkpt><trkpt lat="43.1890333" lon="12.8906133"><ele>481.0</ele><time>2026-04-04T14:09:35.834Z</time></trkpt><trkpt lat="43.1889633" lon="12.8905317"><ele>481.00000000000006</ele><time>2026-04-04T14:09:36.835Z</time></trkpt><trkpt lat="43.18891" lon="12.8904667"><ele>481.0</ele><time>2026-04-04T14:09:37.835Z</time></trkpt><trkpt lat="43.1888567" lon="12.89036"><ele>481.0</ele><time>2026-04-04T14:09:39.834Z</time></trkpt><trkpt lat="43.1889" lon="12.8902767"><ele>481.0</ele><time>2026-04-04T14:09:41.834Z</time></trkpt><trkpt lat="43.1889733" lon="12.8901733"><ele>481.00000000000006</ele><time>2026-04-04T14:09:43.834Z</time></trkpt><trkpt lat="43.1890183" lon="12.8901067"><ele>481.0</ele><time>2026-04-04T14:09:44.834Z</time></trkpt><trkpt lat="43.189105" lon="12.889975"><ele>483.4</ele><time>2026-04-04T14:09:46.834Z</time></trkpt><trkpt lat="43.1891617" lon="12.8899183"><ele>485.8</ele><time>2026-04-04T14:09:47.834Z</time></trkpt><trkpt lat="43.1892583" lon="12.8898267"><ele>488.19999999999993</ele><time>2026-04-04T14:09:49.835Z</time></trkpt><trkpt lat="43.1893267" lon="12.8896967"><ele>490.59999999999997</ele><time>2026-04-04T14:09:51.834Z</time></trkpt><trkpt lat="43.1893967" lon="12.8895783"><ele>493.0</ele><time>2026-04-04T14:09:53.833Z</time></trkpt><trkpt lat="43.1895067" lon="12.889555"><ele>493.00000000000006</ele><time>2026-04-04T14:09:55.833Z</time></trkpt><trkpt lat="43.1895783" lon="12.8895617"><ele>493.0</ele><time>2026-04-04T14:09:56.833Z</time></trkpt><trkpt lat="43.189695" lon="12.8895467"><ele>493.0</ele><time>2026-04-04T14:09:58.835Z</time></trkpt><trkpt lat="43.1897783" lon="12.8895"><ele>493.0</ele><time>2026-04-04T14:10:00.833Z</time></trkpt><trkpt lat="43.1897483" lon="12.889415"><ele>493.00000000000006</ele><time>2026-04-04T14:10:03.832Z</time></trkpt><trkpt lat="43.1896633" lon="12.8893517"><ele>493.0</ele><time>2026-04-04T14:10:05.834Z</time></trkpt><trkpt lat="43.189605" lon="12.8893083"><ele>493.00000000000006</ele><time>2026-04-04T14:10:06.835Z</time></trkpt><trkpt lat="43.1895017" lon="12.88926"><ele>493.0</ele><time>2026-04-04T14:10:07.835Z</time></trkpt><trkpt lat="43.1894317" lon="12.88922"><ele>493.0</ele><time>2026-04-04T14:10:08.835Z</time></trkpt><trkpt lat="43.1893483" lon="12.889175"><ele>493.0</ele><time>2026-04-04T14:10:09.835Z</time></trkpt><trkpt lat="43.1892933" lon="12.88913"><ele>493.00000000000006</ele><time>2026-04-04T14:10:10.835Z</time></trkpt><trkpt lat="43.189245" lon="12.8890667"><ele>493.0</ele><time>2026-04-04T14:10:11.835Z</time></trkpt><trkpt lat="43.189205" lon="12.8889867"><ele>498.0</ele><time>2026-04-04T14:10:12.833Z</time></trkpt><trkpt lat="43.1891667" lon="12.8888717"><ele>503.0</ele><time>2026-04-04T14:10:13.834Z</time></trkpt><trkpt lat="43.18912" lon="12.888735"><ele>508.0</ele><time>2026-04-04T14:10:14.835Z</time></trkpt><trkpt lat="43.1890667" lon="12.8885783"><ele>513.0</ele><time>2026-04-04T14:10:15.832Z</time></trkpt><trkpt lat="43.1890067" lon="12.8884133"><ele>513.75</ele><time>2026-04-04T14:10:16.835Z</time></trkpt><trkpt lat="43.1889367" lon="12.88826"><ele>514.5</ele><time>2026-04-04T14:10:17.834Z</time></trkpt><trkpt lat="43.188865" lon="12.888135"><ele>515.25</ele><time>2026-04-04T14:10:18.834Z</time></trkpt><trkpt lat="43.1887783" lon="12.888025"><ele>516.0</ele><time>2026-04-04T14:10:19.833Z</time></trkpt><trkpt lat="43.1886817" lon="12.8879233"><ele>516.0</ele><time>2026-04-04T14:10:20.835Z</time></trkpt><trkpt lat="43.1885833" lon="12.8878383"><ele>516.0</ele><time>2026-04-04T14:10:21.833Z</time></trkpt><trkpt lat="43.18849" lon="12.8877567"><ele>516.0</ele><time>2026-04-04T14:10:22.836Z</time></trkpt><trkpt lat="43.1884067" lon="12.8876767"><ele>516.0</ele><time>2026-04-04T14:10:23.835Z</time></trkpt><trkpt lat="43.1883233" lon="12.8875817"><ele>516.0</ele><time>2026-04-04T14:10:24.835Z</time></trkpt><trkpt lat="43.1882417" lon="12.8874783"><ele>523.0</ele><time>2026-04-04T14:10:25.833Z</time></trkpt><trkpt lat="43.18815" lon="12.8873767"><ele>530.0</ele><time>2026-04-04T14:10:26.834Z</time></trkpt><trkpt lat="43.188055" lon="12.8872817"><ele>537.0</ele><time>2026-04-04T14:10:27.834Z</time></trkpt><trkpt lat="43.1879683" lon="12.8871833"><ele>544.0</ele><time>2026-04-04T14:10:28.833Z</time></trkpt><trkpt lat="43.18789" lon="12.887075"><ele>544.0</ele><time>2026-04-04T14:10:29.836Z</time></trkpt><trkpt lat="43.18781" lon="12.8869533"><ele>544.0</ele><time>2026-04-04T14:10:30.833Z</time></trkpt><trkpt lat="43.1877383" lon="12.8868267"><ele>544.0</ele><time>2026-04-04T14:10:31.835Z</time></trkpt><trkpt lat="43.187675" lon="12.8867017"><ele>544.0</ele><time>2026-04-04T14:10:32.835Z</time></trkpt><trkpt lat="43.1876133" lon="12.8865717"><ele>550.5</ele><time>2026-04-04T14:10:33.835Z</time></trkpt><trkpt lat="43.1875533" lon="12.8864317"><ele>557.0</ele><time>2026-04-04T14:10:34.834Z</time></trkpt><trkpt lat="43.1874833" lon="12.8862867"><ele>563.5</ele><time>2026-04-04T14:10:35.835Z</time></trkpt><trkpt lat="43.1874183" lon="12.8861433"><ele>570.0</ele><time>2026-04-04T14:10:36.835Z</time></trkpt><trkpt lat="43.1873633" lon="12.886015"><ele>570.0</ele><time>2026-04-04T14:10:37.836Z</time></trkpt><trkpt lat="43.1873133" lon="12.8859017"><ele>570.0</ele><time>2026-04-04T14:10:38.836Z</time></trkpt><trkpt lat="43.1872517" lon="12.88579"><ele>570.0</ele><time>2026-04-04T14:10:39.832Z</time></trkpt><trkpt lat="43.187185" lon="12.8856667"><ele>570.0</ele><time>2026-04-04T14:10:40.832Z</time></trkpt><trkpt lat="43.187125" lon="12.8855517"><ele>570.0</ele><time>2026-04-04T14:10:41.833Z</time></trkpt><trkpt lat="43.1870817" lon="12.8854483"><ele>570.0</ele><time>2026-04-04T14:10:42.835Z</time></trkpt><trkpt lat="43.18705" lon="12.8853567"><ele>570.0</ele><time>2026-04-04T14:10:43.834Z</time></trkpt><trkpt lat="43.1869967" lon="12.88522"><ele>570.0</ele><time>2026-04-04T14:10:45.835Z</time></trkpt><trkpt lat="43.1870767" lon="12.885135"><ele>570.0</ele><time>2026-04-04T14:10:48.834Z</time></trkpt><trkpt lat="43.1871617" lon="12.8851217"><ele>570.0</ele><time>2026-04-04T14:10:49.834Z</time></trkpt><trkpt lat="43.1872583" lon="12.885105"><ele>575.4</ele><time>2026-04-04T14:10:50.836Z</time></trkpt><trkpt lat="43.1873567" lon="12.8850767"><ele>580.8</ele><time>2026-04-04T14:10:51.834Z</time></trkpt><trkpt lat="43.1874633" lon="12.885045"><ele>586.2</ele><time>2026-04-04T14:10:52.835Z</time></trkpt><trkpt lat="43.18757" lon="12.8850083"><ele>591.6</ele><time>2026-04-04T14:10:53.836Z</time></trkpt><trkpt lat="43.18768" lon="12.88497"><ele>597.0</ele><time>2026-04-04T14:10:54.834Z</time></trkpt><trkpt lat="43.18779" lon="12.8849317"><ele>597.0</ele><time>2026-04-04T14:10:55.833Z</time></trkpt><trkpt lat="43.1878967" lon="12.8849117"><ele>597.0</ele><time>2026-04-04T14:10:56.837Z</time></trkpt><trkpt lat="43.187995" lon="12.8849067"><ele>597.0</ele><time>2026-04-04T14:10:57.834Z</time></trkpt><trkpt lat="43.1881" lon="12.8849217"><ele>597.0</ele><time>2026-04-04T14:10:58.834Z</time></trkpt><trkpt lat="43.1881983" lon="12.8849367"><ele>597.0</ele><time>2026-04-04T14:10:59.834Z</time></trkpt><trkpt lat="43.1883033" lon="12.884925"><ele>601.25</ele><time>2026-04-04T14:11:00.834Z</time></trkpt><trkpt lat="43.1884117" lon="12.8848817"><ele>605.5</ele><time>2026-04-04T14:11:01.835Z</time></trkpt><trkpt lat="43.1885233" lon="12.8848167"><ele>609.75</ele><time>2026-04-04T14:11:02.836Z</time></trkpt><trkpt lat="43.1886317" lon="12.8847367"><ele>614.0</ele><time>2026-04-04T14:11:03.833Z</time></trkpt><trkpt lat="43.1887417" lon="12.8846567"><ele>614.0</ele><time>2026-04-04T14:11:04.834Z</time></trkpt><trkpt lat="43.1888467" lon="12.8845733"><ele>614.0</ele><time>2026-04-04T14:11:05.835Z</time></trkpt><trkpt lat="43.18894" lon="12.884505"><ele>614.0</ele><time>2026-04-04T14:11:06.834Z</time></trkpt><trkpt lat="43.188995" lon="12.8844433"><ele>614.0</ele><time>2026-04-04T14:11:07.834Z</time></trkpt><trkpt lat="43.1890417" lon="12.88432"><ele>614.0</ele><time>2026-04-04T14:11:09.834Z</time></trkpt><trkpt lat="43.1890433" lon="12.88418"><ele>610.75</ele><time>2026-04-04T14:11:11.835Z</time></trkpt><trkpt lat="43.189035" lon="12.8840833"><ele>607.5</ele><time>2026-04-04T14:11:12.834Z</time></trkpt><trkpt lat="43.1889733" lon="12.8839333"><ele>604.25</ele><time>2026-04-04T14:11:13.834Z</time></trkpt><trkpt lat="43.1888833" lon="12.8837633"><ele>601.0</ele><time>2026-04-04T14:11:14.834Z</time></trkpt><trkpt lat="43.1888033" lon="12.8836017"><ele>601.0</ele><time>2026-04-04T14:11:15.833Z</time></trkpt><trkpt lat="43.18874" lon="12.88345"><ele>601.0</ele><time>2026-04-04T14:11:16.834Z</time></trkpt><trkpt lat="43.1886833" lon="12.8832967"><ele>601.0</ele><time>2026-04-04T14:11:17.835Z</time></trkpt><trkpt lat="43.1886217" lon="12.8831483"><ele>601.0</ele><time>2026-04-04T14:11:18.834Z</time></trkpt><trkpt lat="43.1885567" lon="12.8829983"><ele>605.25</ele><time>2026-04-04T14:11:19.835Z</time></trkpt><trkpt lat="43.1884933" lon="12.8828433"><ele>609.5</ele><time>2026-04-04T14:11:20.836Z</time></trkpt><trkpt lat="43.188445" lon="12.8826867"><ele>613.75</ele><time>2026-04-04T14:11:21.835Z</time></trkpt><trkpt lat="43.1883933" lon="12.8825483"><ele>618.0</ele><time>2026-04-04T14:11:22.835Z</time></trkpt><trkpt lat="43.1883483" lon="12.88244"><ele>618.0</ele><time>2026-04-04T14:11:23.835Z</time></trkpt><trkpt lat="43.1883183" lon="12.882355"><ele>618.0</ele><time>2026-04-04T14:11:24.833Z</time></trkpt><trkpt lat="43.1883933" lon="12.8824283"><ele>618.0</ele><time>2026-04-04T14:11:28.833Z</time></trkpt><trkpt lat="43.18848" lon="12.8825583"><ele>618.0</ele><time>2026-04-04T14:11:29.834Z</time></trkpt><trkpt lat="43.18861" lon="12.8827"><ele>618.0</ele><time>2026-04-04T14:11:30.842Z</time></trkpt><trkpt lat="43.1887283" lon="12.8828267"><ele>618.0</ele><time>2026-04-04T14:11:31.834Z</time></trkpt><trkpt lat="43.188845" lon="12.882915"><ele>618.0</ele><time>2026-04-04T14:11:32.835Z</time></trkpt><trkpt lat="43.1889767" lon="12.883"><ele>618.0</ele><time>2026-04-04T14:11:33.835Z</time></trkpt><trkpt lat="43.1891133" lon="12.8830883"><ele>624.25</ele><time>2026-04-04T14:11:34.835Z</time></trkpt><trkpt lat="43.18924" lon="12.8831783"><ele>630.5</ele><time>2026-04-04T14:11:35.836Z</time></trkpt><trkpt lat="43.189365" lon="12.883265"><ele>636.75</ele><time>2026-04-04T14:11:36.835Z</time></trkpt><trkpt lat="43.18949" lon="12.8833567"><ele>643.0</ele><time>2026-04-04T14:11:37.836Z</time></trkpt><trkpt lat="43.1896183" lon="12.8834467"><ele>643.0</ele><time>2026-04-04T14:11:38.836Z</time></trkpt><trkpt lat="43.1897517" lon="12.883545"><ele>643.0</ele><time>2026-04-04T14:11:39.836Z</time></trkpt><trkpt lat="43.1898767" lon="12.8836617"><ele>643.0</ele><time>2026-04-04T14:11:40.833Z</time></trkpt><trkpt lat="43.1900017" lon="12.8837817"><ele>652.0</ele><time>2026-04-04T14:11:41.832Z</time></trkpt><trkpt lat="43.1901183" lon="12.8839167"><ele>661.0</ele><time>2026-04-04T14:11:42.834Z</time></trkpt><trkpt lat="43.190225" lon="12.8840367"><ele>670.0</ele><time>2026-04-04T14:11:43.834Z</time></trkpt><trkpt lat="43.1903333" lon="12.8841583"><ele>679.0</ele><time>2026-04-04T14:11:44.835Z</time></trkpt><trkpt lat="43.1904483" lon="12.8842917"><ele>679.0</ele><time>2026-04-04T14:11:45.833Z</time></trkpt><trkpt lat="43.190565" lon="12.88442"><ele>679.0</ele><time>2026-04-04T14:11:46.834Z</time></trkpt><trkpt lat="43.1906733" lon="12.8845333"><ele>679.0</ele><time>2026-04-04T14:11:47.835Z</time></trkpt><trkpt lat="43.1907817" lon="12.884645"><ele>679.0</ele><time>2026-04-04T14:11:48.836Z</time></trkpt><trkpt lat="43.19088" lon="12.884755"><ele>682.4000000000001</ele><time>2026-04-04T14:11:49.836Z</time></trkpt><trkpt lat="43.190965" lon="12.88485"><ele>685.8</ele><time>2026-04-04T14:11:50.835Z</time></trkpt><trkpt lat="43.1910433" lon="12.8849433"><ele>689.2</ele><time>2026-04-04T14:11:51.837Z</time></trkpt><trkpt lat="43.19113" lon="12.88503"><ele>692.5999999999999</ele><time>2026-04-04T14:11:52.833Z</time></trkpt><trkpt lat="43.1912233" lon="12.8851083"><ele>696.0</ele><time>2026-04-04T14:11:53.834Z</time></trkpt><trkpt lat="43.1913183" lon="12.8851767"><ele>696.0</ele><time>2026-04-04T14:11:54.834Z</time></trkpt><trkpt lat="43.1914083" lon="12.8852283"><ele>696.0</ele><time>2026-04-04T14:11:55.833Z</time></trkpt><trkpt lat="43.1914767" lon="12.8852683"><ele>696.0</ele><time>2026-04-04T14:11:56.835Z</time></trkpt><trkpt lat="43.1915417" lon="12.8853033"><ele>696.0</ele><time>2026-04-04T14:11:57.833Z</time></trkpt><trkpt lat="43.1916167" lon="12.8853383"><ele>696.0</ele><time>2026-04-04T14:11:58.834Z</time></trkpt><trkpt lat="43.1916867" lon="12.88537"><ele>696.0</ele><time>2026-04-04T14:11:59.834Z</time></trkpt><trkpt lat="43.191755" lon="12.885395"><ele>699.8333333333334</ele><time>2026-04-04T14:12:00.834Z</time></trkpt><trkpt lat="43.1918317" lon="12.8854033"><ele>703.6666666666666</ele><time>2026-04-04T14:12:01.831Z</time></trkpt><trkpt lat="43.1918967" lon="12.8853833"><ele>707.5</ele><time>2026-04-04T14:12:02.834Z</time></trkpt><trkpt lat="43.191955" lon="12.8853467"><ele>711.3333333333333</ele><time>2026-04-04T14:12:03.833Z</time></trkpt><trkpt lat="43.192005" lon="12.8852767"><ele>715.1666666666666</ele><time>2026-04-04T14:12:04.835Z</time></trkpt><trkpt lat="43.192075" lon="12.88521"><ele>719.0</ele><time>2026-04-04T14:12:05.833Z</time></trkpt><trkpt lat="43.192165" lon="12.8851617"><ele>719.0</ele><time>2026-04-04T14:12:06.834Z</time></trkpt><trkpt lat="43.192265" lon="12.8851383"><ele>719.0</ele><time>2026-04-04T14:12:07.834Z</time></trkpt><trkpt lat="43.19237" lon="12.8851633"><ele>719.0</ele><time>2026-04-04T14:12:08.835Z</time></trkpt><trkpt lat="43.1924833" lon="12.8852067"><ele>719.0</ele><time>2026-04-04T14:12:09.834Z</time></trkpt><trkpt lat="43.192595" lon="12.88526"><ele>719.0</ele><time>2026-04-04T14:12:10.834Z</time></trkpt><trkpt lat="43.1926883" lon="12.8853"><ele>720.4000000000001</ele><time>2026-04-04T14:12:11.833Z</time></trkpt><trkpt lat="43.19278" lon="12.885295"><ele>721.8</ele><time>2026-04-04T14:12:12.835Z</time></trkpt><trkpt lat="43.1928733" lon="12.8852783"><ele>723.2</ele><time>2026-04-04T14:12:13.834Z</time></trkpt><trkpt lat="43.1929717" lon="12.88528"><ele>724.5999999999999</ele><time>2026-04-04T14:12:14.835Z</time></trkpt><trkpt lat="43.1930617" lon="12.885285"><ele>726.0</ele><time>2026-04-04T14:12:15.833Z</time></trkpt><trkpt lat="43.1931517" lon="12.8852817"><ele>731.0</ele><time>2026-04-04T14:12:16.834Z</time></trkpt><trkpt lat="43.1932433" lon="12.8852617"><ele>736.0</ele><time>2026-04-04T14:12:17.833Z</time></trkpt><trkpt lat="43.19334" lon="12.8852583"><ele>741.0</ele><time>2026-04-04T14:12:18.834Z</time></trkpt><trkpt lat="43.19345" lon="12.8852867"><ele>746.0</ele><time>2026-04-04T14:12:19.834Z</time></trkpt><trkpt lat="43.193555" lon="12.8853417"><ele>751.0</ele><time>2026-04-04T14:12:20.834Z</time></trkpt><trkpt lat="43.1936533" lon="12.8854233"><ele>751.0</ele><time>2026-04-04T14:12:21.833Z</time></trkpt><trkpt lat="43.193745" lon="12.8855183"><ele>751.0</ele><time>2026-04-04T14:12:22.834Z</time></trkpt><trkpt lat="43.1938383" lon="12.88561"><ele>751.0</ele><time>2026-04-04T14:12:23.834Z</time></trkpt><trkpt lat="43.1939333" lon="12.88571"><ele>751.0</ele><time>2026-04-04T14:12:24.835Z</time></trkpt><trkpt lat="43.1940283" lon="12.8858167"><ele>753.6666666666667</ele><time>2026-04-04T14:12:25.834Z</time></trkpt><trkpt lat="43.1941133" lon="12.885905"><ele>756.3333333333334</ele><time>2026-04-04T14:12:26.834Z</time></trkpt><trkpt lat="43.1941967" lon="12.8859767"><ele>759.0</ele><time>2026-04-04T14:12:27.834Z</time></trkpt><trkpt lat="43.1942567" lon="12.8860567"><ele>761.6666666666666</ele><time>2026-04-04T14:12:28.834Z</time></trkpt><trkpt lat="43.1943033" lon="12.8861433"><ele>764.3333333333333</ele><time>2026-04-04T14:12:29.832Z</time></trkpt><trkpt lat="43.194325" lon="12.88623"><ele>767.0</ele><time>2026-04-04T14:12:31.834Z</time></trkpt><trkpt lat="43.1944033" lon="12.8861233"><ele>767.0</ele><time>2026-04-04T14:12:34.834Z</time></trkpt><trkpt lat="43.19442" lon="12.8859967"><ele>767.0</ele><time>2026-04-04T14:12:35.834Z</time></trkpt><trkpt lat="43.1943917" lon="12.885885"><ele>767.0</ele><time>2026-04-04T14:12:36.834Z</time></trkpt><trkpt lat="43.194375" lon="12.88579"><ele>767.0</ele><time>2026-04-04T14:12:37.834Z</time></trkpt><trkpt lat="43.1943633" lon="12.885695"><ele>767.0</ele><time>2026-04-04T14:12:39.835Z</time></trkpt><trkpt lat="43.194435" lon="12.885835"><ele>767.0</ele><time>2026-04-04T14:12:41.835Z</time></trkpt><trkpt lat="43.1945067" lon="12.8859583"><ele>767.0</ele><time>2026-04-04T14:12:42.833Z</time></trkpt><trkpt lat="43.1945683" lon="12.8860767"><ele>767.0</ele><time>2026-04-04T14:12:43.834Z</time></trkpt><trkpt lat="43.194625" lon="12.886205"><ele>767.0</ele><time>2026-04-04T14:12:44.837Z</time></trkpt><trkpt lat="43.194675" lon="12.886335"><ele>767.0</ele><time>2026-04-04T14:12:45.833Z</time></trkpt><trkpt lat="43.19473" lon="12.8864667"><ele>767.0</ele><time>2026-04-04T14:12:46.834Z</time></trkpt><trkpt lat="43.194785" lon="12.8865883"><ele>767.0</ele><time>2026-04-04T14:12:47.834Z</time></trkpt><trkpt lat="43.1948367" lon="12.88668"><ele>767.0</ele><time>2026-04-04T14:12:48.836Z</time></trkpt><trkpt lat="43.1948967" lon="12.8867383"><ele>767.0</ele><time>2026-04-04T14:12:49.834Z</time></trkpt><trkpt lat="43.194975" lon="12.8867733"><ele>767.0</ele><time>2026-04-04T14:12:50.836Z</time></trkpt><trkpt lat="43.1950617" lon="12.886805"><ele>767.0</ele><time>2026-04-04T14:12:51.835Z</time></trkpt><trkpt lat="43.1951433" lon="12.8868583"><ele>767.0</ele><time>2026-04-04T14:12:52.835Z</time></trkpt><trkpt lat="43.1952233" lon="12.8869117"><ele>772.8</ele><time>2026-04-04T14:12:53.834Z</time></trkpt><trkpt lat="43.1953067" lon="12.8869683"><ele>778.6</ele><time>2026-04-04T14:12:54.833Z</time></trkpt><trkpt lat="43.19539" lon="12.887025"><ele>784.4</ele><time>2026-04-04T14:12:55.834Z</time></trkpt><trkpt lat="43.1954833" lon="12.8870917"><ele>790.1999999999999</ele><time>2026-04-04T14:12:56.835Z</time></trkpt><trkpt lat="43.195585" lon="12.8871633"><ele>796.0</ele><time>2026-04-04T14:12:57.828Z</time></trkpt><trkpt lat="43.1957067" lon="12.8872433"><ele>806.25</ele><time>2026-04-04T14:12:58.834Z</time></trkpt><trkpt lat="43.1958333" lon="12.8873333"><ele>816.5</ele><time>2026-04-04T14:12:59.834Z</time></trkpt><trkpt lat="43.1959767" lon="12.8874133"><ele>826.75</ele><time>2026-04-04T14:13:00.833Z</time></trkpt><trkpt lat="43.1961133" lon="12.887495"><ele>837.0</ele><time>2026-04-04T14:13:01.832Z</time></trkpt><trkpt lat="43.1962333" lon="12.88758"><ele>836.6666666666666</ele><time>2026-04-04T14:13:02.833Z</time></trkpt><trkpt lat="43.1963117" lon="12.8876767"><ele>836.3333333333333</ele><time>2026-04-04T14:13:03.833Z</time></trkpt><trkpt lat="43.1963333" lon="12.8878017"><ele>836.0</ele><time>2026-04-04T14:13:04.833Z</time></trkpt><trkpt lat="43.196325" lon="12.8879317"><ele>835.6666666666666</ele><time>2026-04-04T14:13:05.832Z</time></trkpt><trkpt lat="43.1963133" lon="12.8880433"><ele>835.3333333333333</ele><time>2026-04-04T14:13:06.833Z</time></trkpt><trkpt lat="43.1963017" lon="12.888135"><ele>835.0</ele><time>2026-04-04T14:13:07.836Z</time></trkpt><trkpt lat="43.1964117" lon="12.88811"><ele>835.0</ele><time>2026-04-04T14:13:11.833Z</time></trkpt><trkpt lat="43.196475" lon="12.88804"><ele>835.0</ele><time>2026-04-04T14:13:12.835Z</time></trkpt><trkpt lat="43.1965383" lon="12.8879383"><ele>835.0</ele><time>2026-04-04T14:13:13.834Z</time></trkpt><trkpt lat="43.1965833" lon="12.8878183"><ele>835.0</ele><time>2026-04-04T14:13:14.835Z</time></trkpt><trkpt lat="43.1966" lon="12.8876917"><ele>835.0</ele><time>2026-04-04T14:13:15.833Z</time></trkpt><trkpt lat="43.196605" lon="12.8875783"><ele>844.2</ele><time>2026-04-04T14:13:16.834Z</time></trkpt><trkpt lat="43.196625" lon="12.8874267"><ele>853.4</ele><time>2026-04-04T14:13:18.834Z</time></trkpt><trkpt lat="43.1966783" lon="12.8874783"><ele>862.5999999999999</ele><time>2026-04-04T14:13:21.835Z</time></trkpt><trkpt lat="43.1967317" lon="12.8876233"><ele>871.8</ele><time>2026-04-04T14:13:22.833Z</time></trkpt><trkpt lat="43.1967967" lon="12.8877567"><ele>881.0</ele><time>2026-04-04T14:13:23.834Z</time></trkpt><trkpt lat="43.1968767" lon="12.88788"><ele>881.0</ele><time>2026-04-04T14:13:24.834Z</time></trkpt><trkpt lat="43.1969617" lon="12.8879933"><ele>881.0</ele><time>2026-04-04T14:13:25.834Z</time></trkpt><trkpt lat="43.1970283" lon="12.8881167"><ele>881.0</ele><time>2026-04-04T14:13:26.835Z</time></trkpt><trkpt lat="43.1970967" lon="12.888245"><ele>881.0</ele><time>2026-04-04T14:13:27.834Z</time></trkpt><trkpt lat="43.1971717" lon="12.888345"><ele>881.0</ele><time>2026-04-04T14:13:28.834Z</time></trkpt><trkpt lat="43.1972383" lon="12.8884383"><ele>880.9999999999999</ele><time>2026-04-04T14:13:29.833Z</time></trkpt><trkpt lat="43.197305" lon="12.8885267"><ele>880.9999999999999</ele><time>2026-04-04T14:13:30.835Z</time></trkpt><trkpt lat="43.1973783" lon="12.88861"><ele>881.0</ele><time>2026-04-04T14:13:31.834Z</time></trkpt><trkpt lat="43.1974617" lon="12.8886883"><ele>881.0</ele><time>2026-04-04T14:13:32.836Z</time></trkpt><trkpt lat="43.1975433" lon="12.888765"><ele>886.5999999999999</ele><time>2026-04-04T14:13:33.834Z</time></trkpt><trkpt lat="43.1976317" lon="12.8888467"><ele>892.1999999999999</ele><time>2026-04-04T14:13:34.835Z</time></trkpt><trkpt lat="43.1977183" lon="12.8889283"><ele>897.8000000000001</ele><time>2026-04-04T14:13:35.834Z</time></trkpt><trkpt lat="43.1978033" lon="12.889"><ele>903.4000000000001</ele><time>2026-04-04T14:13:36.834Z</time></trkpt><trkpt lat="43.1978817" lon="12.889055"><ele>909.0</ele><time>2026-04-04T14:13:37.834Z</time></trkpt><trkpt lat="43.1979583" lon="12.8890933"><ele>909.0</ele><time>2026-04-04T14:13:38.835Z</time></trkpt><trkpt lat="43.1980317" lon="12.88913"><ele>909.0</ele><time>2026-04-04T14:13:39.835Z</time></trkpt><trkpt lat="43.1980983" lon="12.88916"><ele>909.0</ele><time>2026-04-04T14:13:40.833Z</time></trkpt><trkpt lat="43.1981617" lon="12.8892033"><ele>909.0</ele><time>2026-04-04T14:13:41.834Z</time></trkpt><trkpt lat="43.1982467" lon="12.8892583"><ele>909.0</ele><time>2026-04-04T14:13:43.833Z</time></trkpt><trkpt lat="43.1982283" lon="12.889095"><ele>909.0</ele><time>2026-04-04T14:14:58.832Z</time></trkpt><trkpt lat="43.198205" lon="12.8889883"><ele>909.0</ele><time>2026-04-04T14:14:59.832Z</time></trkpt><trkpt lat="43.19818" lon="12.888865"><ele>909.0000000000001</ele><time>2026-04-04T14:15:00.836Z</time></trkpt><trkpt lat="43.1981517" lon="12.8887283"><ele>909.0000000000001</ele><time>2026-04-04T14:15:01.834Z</time></trkpt><trkpt lat="43.1981267" lon="12.8885883"><ele>909.0</ele><time>2026-04-04T14:15:02.834Z</time></trkpt><trkpt lat="43.1981067" lon="12.8884467"><ele>909.0</ele><time>2026-04-04T14:15:03.834Z</time></trkpt><trkpt lat="43.1980833" lon="12.8883083"><ele>910.4000000000001</ele><time>2026-04-04T14:15:04.834Z</time></trkpt><trkpt lat="43.1980517" lon="12.8881683"><ele>911.8000000000001</ele><time>2026-04-04T14:15:05.833Z</time></trkpt><trkpt lat="43.1980233" lon="12.88803"><ele>913.1999999999999</ele><time>2026-04-04T14:15:06.835Z</time></trkpt><trkpt lat="43.1980083" lon="12.8878833"><ele>914.5999999999999</ele><time>2026-04-04T14:15:07.834Z</time></trkpt><trkpt lat="43.1979983" lon="12.8877483"><ele>916.0</ele><time>2026-04-04T14:15:08.835Z</time></trkpt><trkpt lat="43.1979867" lon="12.8876083"><ele>919.1999999999999</ele><time>2026-04-04T14:15:09.834Z</time></trkpt><trkpt lat="43.19798" lon="12.88747"><ele>922.3999999999999</ele><time>2026-04-04T14:15:10.835Z</time></trkpt><trkpt lat="43.1979867" lon="12.8873383"><ele>925.6</ele><time>2026-04-04T14:15:11.834Z</time></trkpt><trkpt lat="43.1979917" lon="12.8872"><ele>928.8</ele><time>2026-04-04T14:15:12.833Z</time></trkpt><trkpt lat="43.1979967" lon="12.8870483"><ele>932.0</ele><time>2026-04-04T14:15:13.83Z</time></trkpt><trkpt lat="43.1980083" lon="12.8869067"><ele>932.0000000000001</ele><time>2026-04-04T14:15:14.833Z</time></trkpt><trkpt lat="43.1980233" lon="12.8867933"><ele>932.0</ele><time>2026-04-04T14:15:15.834Z</time></trkpt><trkpt lat="43.198055" lon="12.886705"><ele>932.0</ele><time>2026-04-04T14:15:16.833Z</time></trkpt><trkpt lat="43.1980917" lon="12.8866267"><ele>932.0</ele><time>2026-04-04T14:15:17.833Z</time></trkpt><trkpt lat="43.198145" lon="12.8865533"><ele>932.0000000000001</ele><time>2026-04-04T14:15:18.834Z</time></trkpt><trkpt lat="43.19822" lon="12.88647"><ele>932.0</ele><time>2026-04-04T14:15:19.833Z</time></trkpt><trkpt lat="43.1983067" lon="12.8863867"><ele>937.6</ele><time>2026-04-04T14:15:20.835Z</time></trkpt><trkpt lat="43.1983883" lon="12.8863017"><ele>943.2</ele><time>2026-04-04T14:15:21.834Z</time></trkpt><trkpt lat="43.19847" lon="12.8862183"><ele>948.8</ele><time>2026-04-04T14:15:22.833Z</time></trkpt><trkpt lat="43.198555" lon="12.8861283"><ele>954.4</ele><time>2026-04-04T14:15:23.834Z</time></trkpt><trkpt lat="43.1986433" lon="12.88605"><ele>960.0</ele><time>2026-04-04T14:15:24.834Z</time></trkpt><trkpt lat="43.1987283" lon="12.885985"><ele>961.6</ele><time>2026-04-04T14:15:25.834Z</time></trkpt><trkpt lat="43.198805" lon="12.8859283"><ele>963.2</ele><time>2026-04-04T14:15:26.834Z</time></trkpt><trkpt lat="43.1988717" lon="12.8858683"><ele>964.8</ele><time>2026-04-04T14:15:27.836Z</time></trkpt><trkpt lat="43.1989283" lon="12.8858017"><ele>966.4</ele><time>2026-04-04T14:15:28.836Z</time></trkpt><trkpt lat="43.1990067" lon="12.8856783"><ele>968.0</ele><time>2026-04-04T14:15:30.836Z</time></trkpt><trkpt lat="43.1991033" lon="12.8855917"><ele>970.3333333333334</ele><time>2026-04-04T14:15:32.838Z</time></trkpt><trkpt lat="43.1991583" lon="12.8855317"><ele>972.6666666666667</ele><time>2026-04-04T14:15:33.835Z</time></trkpt><trkpt lat="43.199225" lon="12.88548"><ele>975.0</ele><time>2026-04-04T14:15:34.835Z</time></trkpt><trkpt lat="43.1992867" lon="12.8854233"><ele>977.3333333333333</ele><time>2026-04-04T14:15:35.836Z</time></trkpt><trkpt lat="43.1993483" lon="12.8853767"><ele>979.6666666666666</ele><time>2026-04-04T14:15:36.839Z</time></trkpt><trkpt lat="43.199405" lon="12.8853317"><ele>982.0</ele><time>2026-04-04T14:15:37.837Z</time></trkpt><trkpt lat="43.199495" lon="12.8852083"><ele>981.9999999999999</ele><time>2026-04-04T14:15:39.833Z</time></trkpt><trkpt lat="43.1995533" lon="12.8851367"><ele>982.0</ele><time>2026-04-04T14:15:40.833Z</time></trkpt><trkpt lat="43.1996083" lon="12.8850517"><ele>982.0</ele><time>2026-04-04T14:15:41.834Z</time></trkpt><trkpt lat="43.199655" lon="12.88497"><ele>982.0</ele><time>2026-04-04T14:15:42.834Z</time></trkpt><trkpt lat="43.199705" lon="12.8848967"><ele>981.9999999999999</ele><time>2026-04-04T14:15:43.835Z</time></trkpt><trkpt lat="43.19977" lon="12.8848483"><ele>982.0</ele><time>2026-04-04T14:15:44.836Z</time></trkpt><trkpt lat="43.19985" lon="12.8849067"><ele>983.0</ele><time>2026-04-04T14:15:45.833Z</time></trkpt><trkpt lat="43.1999483" lon="12.8849667"><ele>984.0</ele><time>2026-04-04T14:15:46.833Z</time></trkpt><trkpt lat="43.2000333" lon="12.8850233"><ele>985.0</ele><time>2026-04-04T14:15:47.833Z</time></trkpt><trkpt lat="43.2001083" lon="12.8850767"><ele>986.0</ele><time>2026-04-04T14:15:48.835Z</time></trkpt><trkpt lat="43.2001867" lon="12.88512"><ele>987.0</ele><time>2026-04-04T14:15:49.831Z</time></trkpt><trkpt lat="43.2002633" lon="12.8851583"><ele>987.0</ele><time>2026-04-04T14:15:50.834Z</time></trkpt><trkpt lat="43.2003317" lon="12.8851783"><ele>987.0</ele><time>2026-04-04T14:15:51.834Z</time></trkpt><trkpt lat="43.200425" lon="12.8851783"><ele>987.0</ele><time>2026-04-04T14:15:53.836Z</time></trkpt><trkpt lat="43.200485" lon="12.8851233"><ele>987.0</ele><time>2026-04-04T14:15:55.834Z</time></trkpt><trkpt lat="43.200565" lon="12.884945"><ele>987.0</ele><time>2026-04-04T14:16:15.836Z</time></trkpt><trkpt lat="43.2005567" lon="12.8847933"><ele>987.0</ele><time>2026-04-04T14:16:30.834Z</time></trkpt><trkpt lat="43.2005833" lon="12.88461"><ele>987.0</ele><time>2026-04-04T14:16:32.836Z</time></trkpt><trkpt lat="43.200625" lon="12.8844767"><ele>987.0</ele><time>2026-04-04T14:16:33.834Z</time></trkpt><trkpt lat="43.200675" lon="12.8843583"><ele>987.0</ele><time>2026-04-04T14:16:34.841Z</time></trkpt><trkpt lat="43.2007267" lon="12.8842533"><ele>987.0</ele><time>2026-04-04T14:16:35.834Z</time></trkpt><trkpt lat="43.2007983" lon="12.8841433"><ele>989.75</ele><time>2026-04-04T14:16:36.835Z</time></trkpt><trkpt lat="43.2009117" lon="12.8840383"><ele>992.5</ele><time>2026-04-04T14:16:37.835Z</time></trkpt><trkpt lat="43.20102" lon="12.8839017"><ele>995.25</ele><time>2026-04-04T14:16:38.835Z</time></trkpt><trkpt lat="43.2011117" lon="12.883735"><ele>998.0</ele><time>2026-04-04T14:16:39.834Z</time></trkpt><trkpt lat="43.2011983" lon="12.8835567"><ele>997.5</ele><time>2026-04-04T14:16:40.833Z</time></trkpt><trkpt lat="43.2012883" lon="12.883395"><ele>997.0</ele><time>2026-04-04T14:16:41.835Z</time></trkpt><trkpt lat="43.20138" lon="12.8832467"><ele>996.5</ele><time>2026-04-04T14:16:42.835Z</time></trkpt><trkpt lat="43.2014683" lon="12.8831083"><ele>996.0</ele><time>2026-04-04T14:16:43.836Z</time></trkpt><trkpt lat="43.20157" lon="12.8829767"><ele>996.0</ele><time>2026-04-04T14:16:44.836Z</time></trkpt><trkpt lat="43.2016767" lon="12.8828517"><ele>996.0</ele><time>2026-04-04T14:16:45.834Z</time></trkpt><trkpt lat="43.201795" lon="12.88274"><ele>996.0</ele><time>2026-04-04T14:16:46.832Z</time></trkpt><trkpt lat="43.2019167" lon="12.882645"><ele>996.0</ele><time>2026-04-04T14:16:47.831Z</time></trkpt><trkpt lat="43.2020467" lon="12.8825533"><ele>993.0</ele><time>2026-04-04T14:16:48.835Z</time></trkpt><trkpt lat="43.20219" lon="12.882475"><ele>990.0</ele><time>2026-04-04T14:16:49.835Z</time></trkpt><trkpt lat="43.2023467" lon="12.8823967"><ele>987.0</ele><time>2026-04-04T14:16:50.836Z</time></trkpt><trkpt lat="43.2025033" lon="12.8823233"><ele>987.0</ele><time>2026-04-04T14:16:51.835Z</time></trkpt><trkpt lat="43.202665" lon="12.8822583"><ele>987.0</ele><time>2026-04-04T14:16:52.832Z</time></trkpt><trkpt lat="43.2028133" lon="12.8821883"><ele>987.0</ele><time>2026-04-04T14:16:53.835Z</time></trkpt><trkpt lat="43.202965" lon="12.8821233"><ele>987.0</ele><time>2026-04-04T14:16:54.834Z</time></trkpt><trkpt lat="43.2031217" lon="12.8820667"><ele>987.0</ele><time>2026-04-04T14:16:55.836Z</time></trkpt><trkpt lat="43.2032867" lon="12.88202"><ele>987.0</ele><time>2026-04-04T14:16:56.837Z</time></trkpt><trkpt lat="43.20345" lon="12.88199"><ele>988.0</ele><time>2026-04-04T14:16:57.836Z</time></trkpt><trkpt lat="43.2036067" lon="12.88197"><ele>989.0</ele><time>2026-04-04T14:16:58.834Z</time></trkpt><trkpt lat="43.20374" lon="12.88195"><ele>990.0</ele><time>2026-04-04T14:16:59.837Z</time></trkpt><trkpt lat="43.2038483" lon="12.881935"><ele>991.0</ele><time>2026-04-04T14:17:00.832Z</time></trkpt><trkpt lat="43.2039317" lon="12.8819183"><ele>990.857142857143</ele><time>2026-04-04T14:17:01.832Z</time></trkpt><trkpt lat="43.204" lon="12.8819167"><ele>990.7142857142858</ele><time>2026-04-04T14:17:02.836Z</time></trkpt><trkpt lat="43.2040633" lon="12.8819233"><ele>990.5714285714286</ele><time>2026-04-04T14:17:03.832Z</time></trkpt><trkpt lat="43.2041317" lon="12.881935"><ele>990.4285714285714</ele><time>2026-04-04T14:17:04.834Z</time></trkpt><trkpt lat="43.2042083" lon="12.8819517"><ele>990.2857142857142</ele><time>2026-04-04T14:17:05.834Z</time></trkpt><trkpt lat="43.2042883" lon="12.8819667"><ele>990.142857142857</ele><time>2026-04-04T14:17:06.834Z</time></trkpt><trkpt lat="43.20437" lon="12.8819767"><ele>989.9999999999999</ele><time>2026-04-04T14:17:07.832Z</time></trkpt><trkpt lat="43.2044483" lon="12.8819833"><ele>990.0</ele><time>2026-04-04T14:17:08.834Z</time></trkpt><trkpt lat="43.2045283" lon="12.88199"><ele>990.0</ele><time>2026-04-04T14:17:09.834Z</time></trkpt><trkpt lat="43.20461" lon="12.8819967"><ele>990.0</ele><time>2026-04-04T14:17:10.833Z</time></trkpt><trkpt lat="43.2046767" lon="12.8820083"><ele>990.0</ele><time>2026-04-04T14:17:11.833Z</time></trkpt><trkpt lat="43.20474" lon="12.8820217"><ele>990.0</ele><time>2026-04-04T14:17:12.833Z</time></trkpt><trkpt lat="43.2048267" lon="12.8820417"><ele>990.0</ele><time>2026-04-04T14:17:14.834Z</time></trkpt><trkpt lat="43.204925" lon="12.8820417"><ele>989.4</ele><time>2026-04-04T14:17:24.834Z</time></trkpt><trkpt lat="43.2050167" lon="12.88211"><ele>988.8</ele><time>2026-04-04T14:17:27.832Z</time></trkpt><trkpt lat="43.2051117" lon="12.8821067"><ele>988.2</ele><time>2026-04-04T14:17:29.832Z</time></trkpt><trkpt lat="43.2052167" lon="12.8820917"><ele>987.6</ele><time>2026-04-04T14:17:31.832Z</time></trkpt><trkpt lat="43.2052833" lon="12.8820967"><ele>987.0</ele><time>2026-04-04T14:17:32.835Z</time></trkpt><trkpt lat="43.205365" lon="12.882105"><ele>987.0</ele><time>2026-04-04T14:17:33.833Z</time></trkpt><trkpt lat="43.2054583" lon="12.8821083"><ele>987.0</ele><time>2026-04-04T14:17:34.833Z</time></trkpt><trkpt lat="43.2055733" lon="12.8821133"><ele>987.0</ele><time>2026-04-04T14:17:35.833Z</time></trkpt><trkpt lat="43.205695" lon="12.882125"><ele>987.0</ele><time>2026-04-04T14:17:36.833Z</time></trkpt><trkpt lat="43.20583" lon="12.88215"><ele>983.25</ele><time>2026-04-04T14:17:37.832Z</time></trkpt><trkpt lat="43.2059717" lon="12.882175"><ele>979.5</ele><time>2026-04-04T14:17:38.835Z</time></trkpt><trkpt lat="43.206105" lon="12.8821967"><ele>975.75</ele><time>2026-04-04T14:17:39.835Z</time></trkpt><trkpt lat="43.2062333" lon="12.8822217"><ele>972.0</ele><time>2026-04-04T14:17:40.833Z</time></trkpt><trkpt lat="43.2063583" lon="12.882245"><ele>972.0</ele><time>2026-04-04T14:17:41.834Z</time></trkpt><trkpt lat="43.2064767" lon="12.88228"><ele>972.0</ele><time>2026-04-04T14:17:42.833Z</time></trkpt><trkpt lat="43.20659" lon="12.882325"><ele>972.0</ele><time>2026-04-04T14:17:43.828Z</time></trkpt><trkpt lat="43.2067067" lon="12.8823767"><ele>972.0</ele><time>2026-04-04T14:17:44.83Z</time></trkpt><trkpt lat="43.2068217" lon="12.8824467"><ele>974.0</ele><time>2026-04-04T14:17:45.833Z</time></trkpt><trkpt lat="43.2069433" lon="12.8825167"><ele>976.0</ele><time>2026-04-04T14:17:46.833Z</time></trkpt><trkpt lat="43.207065" lon="12.8825867"><ele>978.0</ele><time>2026-04-04T14:17:47.834Z</time></trkpt><trkpt lat="43.2071783" lon="12.8826583"><ele>980.0</ele><time>2026-04-04T14:17:48.834Z</time></trkpt><trkpt lat="43.20729" lon="12.8827317"><ele>975.2</ele><time>2026-04-04T14:17:49.835Z</time></trkpt><trkpt lat="43.207395" lon="12.8828067"><ele>970.4</ele><time>2026-04-04T14:17:50.836Z</time></trkpt><trkpt lat="43.2074883" lon="12.8828733"><ele>965.5999999999999</ele><time>2026-04-04T14:17:51.835Z</time></trkpt><trkpt lat="43.2075717" lon="12.8829317"><ele>960.8</ele><time>2026-04-04T14:17:52.836Z</time></trkpt><trkpt lat="43.207645" lon="12.8829867"><ele>956.0</ele><time>2026-04-04T14:17:53.835Z</time></trkpt><trkpt lat="43.2077167" lon="12.8830233"><ele>956.0</ele><time>2026-04-04T14:17:54.836Z</time></trkpt><trkpt lat="43.2077817" lon="12.883055"><ele>955.9999999999999</ele><time>2026-04-04T14:17:55.836Z</time></trkpt><trkpt lat="43.2078467" lon="12.8830833"><ele>955.9999999999999</ele><time>2026-04-04T14:17:56.838Z</time></trkpt><trkpt lat="43.2079433" lon="12.8831583"><ele>956.0</ele><time>2026-04-04T14:17:58.836Z</time></trkpt><trkpt lat="43.2080017" lon="12.8832867"><ele>956.0</ele><time>2026-04-04T14:18:00.836Z</time></trkpt><trkpt lat="43.208025" lon="12.8834167"><ele>959.5999999999999</ele><time>2026-04-04T14:18:02.833Z</time></trkpt><trkpt lat="43.2080367" lon="12.8835617"><ele>963.1999999999999</ele><time>2026-04-04T14:18:04.832Z</time></trkpt><trkpt lat="43.2080833" lon="12.8837283"><ele>966.8000000000001</ele><time>2026-04-04T14:18:06.834Z</time></trkpt><trkpt lat="43.2081017" lon="12.8838233"><ele>970.4000000000001</ele><time>2026-04-04T14:18:07.831Z</time></trkpt><trkpt lat="43.208125" lon="12.8839233"><ele>974.0</ele><time>2026-04-04T14:18:08.835Z</time></trkpt><trkpt lat="43.208145" lon="12.8840367"><ele>965.3333333333334</ele><time>2026-04-04T14:18:09.832Z</time></trkpt><trkpt lat="43.20816" lon="12.884155"><ele>956.6666666666667</ele><time>2026-04-04T14:18:10.834Z</time></trkpt><trkpt lat="43.2081733" lon="12.88427"><ele>948.0</ele><time>2026-04-04T14:18:11.834Z</time></trkpt><trkpt lat="43.20818" lon="12.884375"><ele>939.3333333333333</ele><time>2026-04-04T14:18:12.832Z</time></trkpt><trkpt lat="43.2081917" lon="12.88448"><ele>930.6666666666666</ele><time>2026-04-04T14:18:13.832Z</time></trkpt><trkpt lat="43.208205" lon="12.8845883"><ele>922.0</ele><time>2026-04-04T14:18:14.836Z</time></trkpt><trkpt lat="43.2082117" lon="12.8847067"><ele>921.9999999999999</ele><time>2026-04-04T14:18:15.834Z</time></trkpt><trkpt lat="43.2082283" lon="12.8848217"><ele>922.0</ele><time>2026-04-04T14:18:16.833Z</time></trkpt><trkpt lat="43.20825" lon="12.884935"><ele>922.0</ele><time>2026-04-04T14:18:17.834Z</time></trkpt><trkpt lat="43.2082783" lon="12.88505"><ele>922.0</ele><time>2026-04-04T14:18:18.834Z</time></trkpt><trkpt lat="43.2083017" lon="12.885175"><ele>921.9999999999999</ele><time>2026-04-04T14:18:19.832Z</time></trkpt><trkpt lat="43.2083167" lon="12.8853033"><ele>922.0</ele><time>2026-04-04T14:18:20.835Z</time></trkpt><trkpt lat="43.2083417" lon="12.8854267"><ele>923.3333333333333</ele><time>2026-04-04T14:18:21.833Z</time></trkpt><trkpt lat="43.2083817" lon="12.885545"><ele>924.6666666666666</ele><time>2026-04-04T14:18:22.834Z</time></trkpt><trkpt lat="43.20841" lon="12.885645"><ele>926.0</ele><time>2026-04-04T14:18:23.833Z</time></trkpt><trkpt lat="43.2084383" lon="12.8857417"><ele>927.3333333333333</ele><time>2026-04-04T14:18:24.834Z</time></trkpt><trkpt lat="43.20846" lon="12.8858367"><ele>928.6666666666666</ele><time>2026-04-04T14:18:25.833Z</time></trkpt><trkpt lat="43.208505" lon="12.8859933"><ele>930.0</ele><time>2026-04-04T14:18:27.833Z</time></trkpt><trkpt lat="43.2085467" lon="12.8861283"><ele>931.6666666666666</ele><time>2026-04-04T14:18:29.833Z</time></trkpt><trkpt lat="43.20855" lon="12.8862433"><ele>933.3333333333333</ele><time>2026-04-04T14:18:31.833Z</time></trkpt><trkpt lat="43.208535" lon="12.886345"><ele>935.0</ele><time>2026-04-04T14:18:33.834Z</time></trkpt><trkpt lat="43.2085467" lon="12.8864467"><ele>936.6666666666666</ele><time>2026-04-04T14:18:36.833Z</time></trkpt><trkpt lat="43.2085933" lon="12.8865533"><ele>938.3333333333333</ele><time>2026-04-04T14:18:39.833Z</time></trkpt><trkpt lat="43.2086417" lon="12.8866667"><ele>940.0</ele><time>2026-04-04T14:18:42.834Z</time></trkpt><trkpt lat="43.2086633" lon="12.8867567"><ele>942.3333333333333</ele><time>2026-04-04T14:18:44.834Z</time></trkpt><trkpt lat="43.20868" lon="12.88684"><ele>944.6666666666666</ele><time>2026-04-04T14:18:46.834Z</time></trkpt><trkpt lat="43.2087083" lon="12.8869317"><ele>947.0</ele><time>2026-04-04T14:18:49.835Z</time></trkpt><trkpt lat="43.2087283" lon="12.8870267"><ele>949.3333333333333</ele><time>2026-04-04T14:18:52.831Z</time></trkpt><trkpt lat="43.20876" lon="12.8871433"><ele>951.6666666666666</ele><time>2026-04-04T14:19:00.834Z</time></trkpt><trkpt lat="43.2087933" lon="12.8872383"><ele>954.0</ele><time>2026-04-04T14:20:57.834Z</time></trkpt><trkpt lat="43.2088067" lon="12.8873883"><ele>954.0</ele><time>2026-04-04T14:20:59.836Z</time></trkpt><trkpt lat="43.2088217" lon="12.887505"><ele>954.0000000000001</ele><time>2026-04-04T14:21:00.836Z</time></trkpt><trkpt lat="43.2088433" lon="12.887635"><ele>954.0000000000001</ele><time>2026-04-04T14:21:01.836Z</time></trkpt><trkpt lat="43.2088717" lon="12.8877733"><ele>954.0</ele><time>2026-04-04T14:21:02.835Z</time></trkpt><trkpt lat="43.20891" lon="12.8879183"><ele>954.0</ele><time>2026-04-04T14:21:03.834Z</time></trkpt><trkpt lat="43.2089633" lon="12.8880583"><ele>958.0</ele><time>2026-04-04T14:21:04.834Z</time></trkpt><trkpt lat="43.209025" lon="12.8882"><ele>962.0</ele><time>2026-04-04T14:21:05.835Z</time></trkpt><trkpt lat="43.2091017" lon="12.8883383"><ele>966.0</ele><time>2026-04-04T14:21:06.834Z</time></trkpt><trkpt lat="43.209195" lon="12.888465"><ele>970.0</ele><time>2026-04-04T14:21:07.835Z</time></trkpt><trkpt lat="43.2093" lon="12.88858"><ele>970.0</ele><time>2026-04-04T14:21:08.835Z</time></trkpt><trkpt lat="43.20941" lon="12.8886867"><ele>970.0</ele><time>2026-04-04T14:21:09.834Z</time></trkpt><trkpt lat="43.2095233" lon="12.8887767"><ele>970.0</ele><time>2026-04-04T14:21:10.834Z</time></trkpt><trkpt lat="43.2096283" lon="12.8888567"><ele>970.0</ele><time>2026-04-04T14:21:11.835Z</time></trkpt><trkpt lat="43.2097333" lon="12.8889283"><ele>970.25</ele><time>2026-04-04T14:21:12.836Z</time></trkpt><trkpt lat="43.209845" lon="12.889005"><ele>970.5</ele><time>2026-04-04T14:21:13.835Z</time></trkpt><trkpt lat="43.2099467" lon="12.8890917"><ele>970.75</ele><time>2026-04-04T14:21:14.836Z</time></trkpt><trkpt lat="43.2100433" lon="12.8891833"><ele>971.0</ele><time>2026-04-04T14:21:15.836Z</time></trkpt><trkpt lat="43.2101283" lon="12.88928"><ele>971.0</ele><time>2026-04-04T14:21:16.834Z</time></trkpt><trkpt lat="43.21021" lon="12.8893733"><ele>970.9999999999999</ele><time>2026-04-04T14:21:17.834Z</time></trkpt><trkpt lat="43.21028" lon="12.8894583"><ele>970.9999999999999</ele><time>2026-04-04T14:21:18.835Z</time></trkpt><trkpt lat="43.21035" lon="12.8895383"><ele>971.0</ele><time>2026-04-04T14:21:19.834Z</time></trkpt><trkpt lat="43.21042" lon="12.8896133"><ele>971.0</ele><time>2026-04-04T14:21:20.836Z</time></trkpt><trkpt lat="43.21049" lon="12.8896867"><ele>971.0</ele><time>2026-04-04T14:21:21.835Z</time></trkpt><trkpt lat="43.21056" lon="12.88976"><ele>970.9999999999999</ele><time>2026-04-04T14:21:22.836Z</time></trkpt><trkpt lat="43.21063" lon="12.889835"><ele>970.9999999999999</ele><time>2026-04-04T14:21:23.834Z</time></trkpt><trkpt lat="43.2107033" lon="12.88991"><ele>971.0</ele><time>2026-04-04T14:21:24.838Z</time></trkpt><trkpt lat="43.2107783" lon="12.8899867"><ele>971.0</ele><time>2026-04-04T14:21:25.836Z</time></trkpt><trkpt lat="43.210855" lon="12.8900633"><ele>970.5999999999999</ele><time>2026-04-04T14:21:26.838Z</time></trkpt><trkpt lat="43.2109317" lon="12.89014"><ele>970.1999999999999</ele><time>2026-04-04T14:21:27.833Z</time></trkpt><trkpt lat="43.21101" lon="12.8902167"><ele>969.8000000000001</ele><time>2026-04-04T14:21:28.835Z</time></trkpt><trkpt lat="43.211095" lon="12.8902983"><ele>969.4000000000001</ele><time>2026-04-04T14:21:29.834Z</time></trkpt><trkpt lat="43.2111883" lon="12.8903933"><ele>969.0</ele><time>2026-04-04T14:21:30.834Z</time></trkpt><trkpt lat="43.2112867" lon="12.8905"><ele>969.0</ele><time>2026-04-04T14:21:31.833Z</time></trkpt><trkpt lat="43.2113833" lon="12.89062"><ele>969.0</ele><time>2026-04-04T14:21:32.835Z</time></trkpt><trkpt lat="43.21148" lon="12.8907483"><ele>969.0</ele><time>2026-04-04T14:21:33.834Z</time></trkpt><trkpt lat="43.2115667" lon="12.890885"><ele>969.0</ele><time>2026-04-04T14:21:34.834Z</time></trkpt><trkpt lat="43.2116433" lon="12.8910367"><ele>967.5</ele><time>2026-04-04T14:21:35.834Z</time></trkpt><trkpt lat="43.21171" lon="12.8911933"><ele>966.0</ele><time>2026-04-04T14:21:36.834Z</time></trkpt><trkpt lat="43.21177" lon="12.8913583"><ele>964.5</ele><time>2026-04-04T14:21:37.833Z</time></trkpt><trkpt lat="43.2118383" lon="12.891525"><ele>963.0</ele><time>2026-04-04T14:21:38.836Z</time></trkpt><trkpt lat="43.2119117" lon="12.8916883"><ele>965.75</ele><time>2026-04-04T14:21:39.833Z</time></trkpt><trkpt lat="43.21199" lon="12.8918467"><ele>968.5</ele><time>2026-04-04T14:21:40.833Z</time></trkpt><trkpt lat="43.212075" lon="12.892005"><ele>971.25</ele><time>2026-04-04T14:21:41.835Z</time></trkpt><trkpt lat="43.2121667" lon="12.8921683"><ele>974.0</ele><time>2026-04-04T14:21:42.834Z</time></trkpt><trkpt lat="43.2122667" lon="12.8923383"><ele>972.0</ele><time>2026-04-04T14:21:43.834Z</time></trkpt><trkpt lat="43.212375" lon="12.89251"><ele>970.0</ele><time>2026-04-04T14:21:44.834Z</time></trkpt><trkpt lat="43.2124967" lon="12.8926733"><ele>968.0</ele><time>2026-04-04T14:21:45.833Z</time></trkpt><trkpt lat="43.2126267" lon="12.89283"><ele>968.0</ele><time>2026-04-04T14:21:46.835Z</time></trkpt><trkpt lat="43.2127583" lon="12.8929883"><ele>968.0</ele><time>2026-04-04T14:21:47.835Z</time></trkpt><trkpt lat="43.2128833" lon="12.893155"><ele>968.0</ele><time>2026-04-04T14:21:48.834Z</time></trkpt><trkpt lat="43.213" lon="12.89333"><ele>968.5</ele><time>2026-04-04T14:21:49.833Z</time></trkpt><trkpt lat="43.213105" lon="12.8934983"><ele>969.0</ele><time>2026-04-04T14:21:50.835Z</time></trkpt><trkpt lat="43.2132017" lon="12.8936483"><ele>969.5</ele><time>2026-04-04T14:21:51.834Z</time></trkpt><trkpt lat="43.21329" lon="12.8937817"><ele>970.0</ele><time>2026-04-04T14:21:52.834Z</time></trkpt><trkpt lat="43.21337" lon="12.8939"><ele>970.0</ele><time>2026-04-04T14:21:53.836Z</time></trkpt><trkpt lat="43.21345" lon="12.8940167"><ele>970.0</ele><time>2026-04-04T14:21:54.833Z</time></trkpt><trkpt lat="43.2135417" lon="12.8941233"><ele>970.0</ele><time>2026-04-04T14:21:55.835Z</time></trkpt><trkpt lat="43.2136383" lon="12.8942133"><ele>970.0</ele><time>2026-04-04T14:21:56.834Z</time></trkpt><trkpt lat="43.2137433" lon="12.8942833"><ele>969.75</ele><time>2026-04-04T14:21:57.833Z</time></trkpt><trkpt lat="43.21385" lon="12.8943383"><ele>969.5</ele><time>2026-04-04T14:21:58.833Z</time></trkpt><trkpt lat="43.213955" lon="12.8943883"><ele>969.25</ele><time>2026-04-04T14:21:59.835Z</time></trkpt><trkpt lat="43.2140667" lon="12.8944333"><ele>969.0</ele><time>2026-04-04T14:22:00.833Z</time></trkpt><trkpt lat="43.2141917" lon="12.8944683"><ele>968.25</ele><time>2026-04-04T14:22:01.833Z</time></trkpt><trkpt lat="43.2143233" lon="12.8944833"><ele>967.5</ele><time>2026-04-04T14:22:02.834Z</time></trkpt><trkpt lat="43.2144567" lon="12.8944767"><ele>966.75</ele><time>2026-04-04T14:22:03.834Z</time></trkpt><trkpt lat="43.214595" lon="12.8944567"><ele>966.0</ele><time>2026-04-04T14:22:04.833Z</time></trkpt><trkpt lat="43.2147317" lon="12.8944217"><ele>967.5</ele><time>2026-04-04T14:22:05.835Z</time></trkpt><trkpt lat="43.2148617" lon="12.8943617"><ele>969.0</ele><time>2026-04-04T14:22:06.835Z</time></trkpt><trkpt lat="43.2149883" lon="12.8942967"><ele>970.5</ele><time>2026-04-04T14:22:07.832Z</time></trkpt><trkpt lat="43.21511" lon="12.89424"><ele>972.0</ele><time>2026-04-04T14:22:08.83Z</time></trkpt><trkpt lat="43.21522" lon="12.89419"><ele>973.5</ele><time>2026-04-04T14:22:09.834Z</time></trkpt><trkpt lat="43.2153267" lon="12.8941367"><ele>975.0</ele><time>2026-04-04T14:22:10.834Z</time></trkpt><trkpt lat="43.2154383" lon="12.8940817"><ele>976.5</ele><time>2026-04-04T14:22:11.834Z</time></trkpt><trkpt lat="43.21555" lon="12.8940183"><ele>978.0</ele><time>2026-04-04T14:22:12.832Z</time></trkpt><trkpt lat="43.2156617" lon="12.8939383"><ele>979.0</ele><time>2026-04-04T14:22:13.833Z</time></trkpt><trkpt lat="43.215775" lon="12.8938583"><ele>980.0</ele><time>2026-04-04T14:22:14.836Z</time></trkpt><trkpt lat="43.2158967" lon="12.8937933"><ele>981.0</ele><time>2026-04-04T14:22:15.833Z</time></trkpt><trkpt lat="43.2160267" lon="12.8937367"><ele>982.0</ele><time>2026-04-04T14:22:16.833Z</time></trkpt><trkpt lat="43.216165" lon="12.8936883"><ele>982.0</ele><time>2026-04-04T14:22:17.834Z</time></trkpt><trkpt lat="43.2163067" lon="12.893645"><ele>982.0</ele><time>2026-04-04T14:22:18.833Z</time></trkpt><trkpt lat="43.2164483" lon="12.8935983"><ele>982.0</ele><time>2026-04-04T14:22:19.833Z</time></trkpt><trkpt lat="43.2165933" lon="12.8935467"><ele>982.0</ele><time>2026-04-04T14:22:20.835Z</time></trkpt><trkpt lat="43.2167417" lon="12.8934833"><ele>980.6666666666666</ele><time>2026-04-04T14:22:21.834Z</time></trkpt><trkpt lat="43.2168917" lon="12.8934033"><ele>979.3333333333333</ele><time>2026-04-04T14:22:22.834Z</time></trkpt><trkpt lat="43.2170467" lon="12.89331"><ele>978.0</ele><time>2026-04-04T14:22:23.834Z</time></trkpt><trkpt lat="43.217195" lon="12.8932033"><ele>980.6666666666667</ele><time>2026-04-04T14:22:24.833Z</time></trkpt><trkpt lat="43.2173383" lon="12.8930883"><ele>983.3333333333334</ele><time>2026-04-04T14:22:25.834Z</time></trkpt><trkpt lat="43.2174767" lon="12.8929633"><ele>986.0</ele><time>2026-04-04T14:22:26.837Z</time></trkpt><trkpt lat="43.2176067" lon="12.892835"><ele>986.0</ele><time>2026-04-04T14:22:27.833Z</time></trkpt><trkpt lat="43.2177317" lon="12.8927017"><ele>986.0</ele><time>2026-04-04T14:22:28.834Z</time></trkpt><trkpt lat="43.2178583" lon="12.8925717"><ele>986.0</ele><time>2026-04-04T14:22:29.835Z</time></trkpt><trkpt lat="43.2179833" lon="12.8924417"><ele>986.0</ele><time>2026-04-04T14:22:30.833Z</time></trkpt><trkpt lat="43.2181133" lon="12.8923233"><ele>986.0</ele><time>2026-04-04T14:22:31.832Z</time></trkpt><trkpt lat="43.2182483" lon="12.89221"><ele>986.0</ele><time>2026-04-04T14:22:32.835Z</time></trkpt><trkpt lat="43.218385" lon="12.8920933"><ele>987.3333333333334</ele><time>2026-04-04T14:22:33.834Z</time></trkpt><trkpt lat="43.2185133" lon="12.8919717"><ele>988.6666666666667</ele><time>2026-04-04T14:22:34.834Z</time></trkpt><trkpt lat="43.218645" lon="12.8918633"><ele>990.0</ele><time>2026-04-04T14:22:35.834Z</time></trkpt><trkpt lat="43.2187883" lon="12.8917817"><ele>990.75</ele><time>2026-04-04T14:22:36.828Z</time></trkpt><trkpt lat="43.2189283" lon="12.8917317"><ele>991.5</ele><time>2026-04-04T14:22:37.832Z</time></trkpt><trkpt lat="43.2190633" lon="12.8917033"><ele>992.25</ele><time>2026-04-04T14:22:38.834Z</time></trkpt><trkpt lat="43.2191917" lon="12.8917"><ele>993.0</ele><time>2026-04-04T14:22:39.834Z</time></trkpt><trkpt lat="43.21932" lon="12.89171"><ele>992.75</ele><time>2026-04-04T14:22:40.835Z</time></trkpt><trkpt lat="43.219445" lon="12.891725"><ele>992.5</ele><time>2026-04-04T14:22:41.834Z</time></trkpt><trkpt lat="43.2195617" lon="12.8917533"><ele>992.25</ele><time>2026-04-04T14:22:42.833Z</time></trkpt><trkpt lat="43.2196717" lon="12.89178"><ele>992.0</ele><time>2026-04-04T14:22:43.833Z</time></trkpt><trkpt lat="43.21978" lon="12.8918033"><ele>995.0</ele><time>2026-04-04T14:22:44.835Z</time></trkpt><trkpt lat="43.219885" lon="12.891825"><ele>998.0</ele><time>2026-04-04T14:22:45.834Z</time></trkpt><trkpt lat="43.2199917" lon="12.8918467"><ele>1001.0</ele><time>2026-04-04T14:22:46.833Z</time></trkpt><trkpt lat="43.22009" lon="12.8918683"><ele>1004.0</ele><time>2026-04-04T14:22:47.83Z</time></trkpt><trkpt lat="43.2201833" lon="12.891895"><ele>1007.0</ele><time>2026-04-04T14:22:48.834Z</time></trkpt><trkpt lat="43.2202717" lon="12.891925"><ele>1007.0</ele><time>2026-04-04T14:22:49.836Z</time></trkpt><trkpt lat="43.220365" lon="12.8919533"><ele>1007.0</ele><time>2026-04-04T14:22:50.836Z</time></trkpt><trkpt lat="43.2204583" lon="12.8919767"><ele>1007.0</ele><time>2026-04-04T14:22:51.837Z</time></trkpt><trkpt lat="43.2205533" lon="12.8919917"><ele>1007.0</ele><time>2026-04-04T14:22:52.833Z</time></trkpt><trkpt lat="43.2206433" lon="12.8920033"><ele>1007.0</ele><time>2026-04-04T14:22:53.835Z</time></trkpt><trkpt lat="43.2207283" lon="12.8920167"><ele>1009.3333333333334</ele><time>2026-04-04T14:22:54.834Z</time></trkpt><trkpt lat="43.2208083" lon="12.892025"><ele>1011.6666666666667</ele><time>2026-04-04T14:22:55.832Z</time></trkpt><trkpt lat="43.220885" lon="12.8920283"><ele>1014.0</ele><time>2026-04-04T14:22:56.836Z</time></trkpt><trkpt lat="43.2209533" lon="12.8920267"><ele>1016.3333333333333</ele><time>2026-04-04T14:22:57.833Z</time></trkpt><trkpt lat="43.2210167" lon="12.892025"><ele>1018.6666666666666</ele><time>2026-04-04T14:22:58.834Z</time></trkpt><trkpt lat="43.22108" lon="12.892025"><ele>1021.0</ele><time>2026-04-04T14:22:59.834Z</time></trkpt><trkpt lat="43.2212017" lon="12.8920533"><ele>1020.9999999999999</ele><time>2026-04-04T14:23:01.834Z</time></trkpt><trkpt lat="43.2212617" lon="12.8920883"><ele>1021.0</ele><time>2026-04-04T14:23:02.834Z</time></trkpt><trkpt lat="43.221325" lon="12.8921383"><ele>1021.0</ele><time>2026-04-04T14:23:03.835Z</time></trkpt><trkpt lat="43.2213883" lon="12.892205"><ele>1021.0</ele><time>2026-04-04T14:23:04.835Z</time></trkpt><trkpt lat="43.2214583" lon="12.8922733"><ele>1020.9999999999999</ele><time>2026-04-04T14:23:05.834Z</time></trkpt><trkpt lat="43.2215317" lon="12.892345"><ele>1021.0</ele><time>2026-04-04T14:23:06.834Z</time></trkpt><trkpt lat="43.2216067" lon="12.8924133"><ele>1019.4</ele><time>2026-04-04T14:23:07.833Z</time></trkpt><trkpt lat="43.2216883" lon="12.8924867"><ele>1017.8</ele><time>2026-04-04T14:23:08.835Z</time></trkpt><trkpt lat="43.22177" lon="12.8925617"><ele>1016.1999999999999</ele><time>2026-04-04T14:23:09.836Z</time></trkpt><trkpt lat="43.2218517" lon="12.8926317"><ele>1014.5999999999999</ele><time>2026-04-04T14:23:10.834Z</time></trkpt><trkpt lat="43.2219333" lon="12.8926933"><ele>1013.0</ele><time>2026-04-04T14:23:11.833Z</time></trkpt><trkpt lat="43.2220167" lon="12.8927433"><ele>1013.0000000000001</ele><time>2026-04-04T14:23:12.834Z</time></trkpt><trkpt lat="43.222105" lon="12.8927767"><ele>1013.0</ele><time>2026-04-04T14:23:13.835Z</time></trkpt><trkpt lat="43.2221883" lon="12.8928067"><ele>1013.0</ele><time>2026-04-04T14:23:14.834Z</time></trkpt><trkpt lat="43.2222717" lon="12.8928417"><ele>1013.0</ele><time>2026-04-04T14:23:15.834Z</time></trkpt><trkpt lat="43.2223517" lon="12.89289"><ele>1013.0000000000001</ele><time>2026-04-04T14:23:16.833Z</time></trkpt><trkpt lat="43.2224233" lon="12.892955"><ele>1013.0</ele><time>2026-04-04T14:23:17.835Z</time></trkpt><trkpt lat="43.2224967" lon="12.8930367"><ele>1019.5999999999999</ele><time>2026-04-04T14:23:18.836Z</time></trkpt><trkpt lat="43.2225783" lon="12.89311"><ele>1026.1999999999998</ele><time>2026-04-04T14:23:19.835Z</time></trkpt><trkpt lat="43.222665" lon="12.893175"><ele>1032.8</ele><time>2026-04-04T14:23:20.836Z</time></trkpt><trkpt lat="43.2227567" lon="12.89324"><ele>1039.3999999999999</ele><time>2026-04-04T14:23:21.835Z</time></trkpt><trkpt lat="43.22285" lon="12.8933033"><ele>1046.0</ele><time>2026-04-04T14:23:22.835Z</time></trkpt><trkpt lat="43.222945" lon="12.8933667"><ele>1042.0</ele><time>2026-04-04T14:23:23.835Z</time></trkpt><trkpt lat="43.2230433" lon="12.8934417"><ele>1038.0</ele><time>2026-04-04T14:23:24.835Z</time></trkpt><trkpt lat="43.223145" lon="12.8935133"><ele>1034.0</ele><time>2026-04-04T14:23:25.831Z</time></trkpt><trkpt lat="43.2232567" lon="12.8935617"><ele>1030.0</ele><time>2026-04-04T14:23:26.835Z</time></trkpt><trkpt lat="43.22338" lon="12.89357"><ele>1030.0</ele><time>2026-04-04T14:23:27.833Z</time></trkpt><trkpt lat="43.2235067" lon="12.8935483"><ele>1030.0</ele><time>2026-04-04T14:23:28.833Z</time></trkpt><trkpt lat="43.2236267" lon="12.8935033"><ele>1030.0</ele><time>2026-04-04T14:23:29.834Z</time></trkpt><trkpt lat="43.2237367" lon="12.8934567"><ele>1030.0</ele><time>2026-04-04T14:23:30.834Z</time></trkpt><trkpt lat="43.2238467" lon="12.8934217"><ele>1033.75</ele><time>2026-04-04T14:23:31.834Z</time></trkpt><trkpt lat="43.22397" lon="12.8933933"><ele>1037.5</ele><time>2026-04-04T14:23:32.835Z</time></trkpt><trkpt lat="43.2240933" lon="12.89337"><ele>1041.25</ele><time>2026-04-04T14:23:33.834Z</time></trkpt><trkpt lat="43.2242117" lon="12.8933517"><ele>1045.0</ele><time>2026-04-04T14:23:34.834Z</time></trkpt><trkpt lat="43.22432" lon="12.8933517"><ele>1045.0</ele><time>2026-04-04T14:23:35.833Z</time></trkpt><trkpt lat="43.2244217" lon="12.893365"><ele>1045.0</ele><time>2026-04-04T14:23:36.834Z</time></trkpt><trkpt lat="43.22452" lon="12.893375"><ele>1045.0</ele><time>2026-04-04T14:23:37.833Z</time></trkpt><trkpt lat="43.22461" lon="12.8933633"><ele>1045.0</ele><time>2026-04-04T14:23:38.835Z</time></trkpt><trkpt lat="43.2246967" lon="12.8933333"><ele>1045.0</ele><time>2026-04-04T14:23:39.832Z</time></trkpt><trkpt lat="43.2247817" lon="12.8932983"><ele>1043.6</ele><time>2026-04-04T14:23:40.833Z</time></trkpt><trkpt lat="43.2248633" lon="12.893265"><ele>1042.2</ele><time>2026-04-04T14:23:41.834Z</time></trkpt><trkpt lat="43.2249383" lon="12.8932383"><ele>1040.8</ele><time>2026-04-04T14:23:42.835Z</time></trkpt><trkpt lat="43.2250017" lon="12.8932333"><ele>1039.4</ele><time>2026-04-04T14:23:43.833Z</time></trkpt><trkpt lat="43.2251033" lon="12.893285"><ele>1038.0</ele><time>2026-04-04T14:23:45.835Z</time></trkpt><trkpt lat="43.2252217" lon="12.8933317"><ele>1038.0</ele><time>2026-04-04T14:23:47.835Z</time></trkpt><trkpt lat="43.22535" lon="12.89335"><ele>1038.0</ele><time>2026-04-04T14:23:49.835Z</time></trkpt><trkpt lat="43.2254233" lon="12.8933667"><ele>1038.0</ele><time>2026-04-04T14:23:50.836Z</time></trkpt><trkpt lat="43.2255033" lon="12.89339"><ele>1038.0</ele><time>2026-04-04T14:23:51.833Z</time></trkpt><trkpt lat="43.2255883" lon="12.8934217"><ele>1038.0</ele><time>2026-04-04T14:23:52.834Z</time></trkpt><trkpt lat="43.2256783" lon="12.89346"><ele>1035.8</ele><time>2026-04-04T14:23:53.836Z</time></trkpt><trkpt lat="43.2257717" lon="12.8935083"><ele>1033.6</ele><time>2026-04-04T14:23:54.834Z</time></trkpt><trkpt lat="43.2258667" lon="12.893565"><ele>1031.4</ele><time>2026-04-04T14:23:55.833Z</time></trkpt><trkpt lat="43.2259583" lon="12.8936283"><ele>1029.2</ele><time>2026-04-04T14:23:56.833Z</time></trkpt><trkpt lat="43.2260517" lon="12.8936917"><ele>1027.0</ele><time>2026-04-04T14:23:57.834Z</time></trkpt><trkpt lat="43.226145" lon="12.8937583"><ele>1027.0</ele><time>2026-04-04T14:23:58.833Z</time></trkpt><trkpt lat="43.22624" lon="12.8938267"><ele>1027.0</ele><time>2026-04-04T14:23:59.834Z</time></trkpt><trkpt lat="43.2263317" lon="12.893895"><ele>1027.0</ele><time>2026-04-04T14:24:00.835Z</time></trkpt><trkpt lat="43.2264217" lon="12.89397"><ele>1027.0</ele><time>2026-04-04T14:24:01.834Z</time></trkpt><trkpt lat="43.226515" lon="12.89405"><ele>1027.0</ele><time>2026-04-04T14:24:02.835Z</time></trkpt><trkpt lat="43.2266117" lon="12.8941367"><ele>1027.4</ele><time>2026-04-04T14:24:03.835Z</time></trkpt><trkpt lat="43.2267067" lon="12.8942267"><ele>1027.8000000000002</ele><time>2026-04-04T14:24:04.834Z</time></trkpt><trkpt lat="43.2267883" lon="12.8943133"><ele>1028.2</ele><time>2026-04-04T14:24:05.834Z</time></trkpt><trkpt lat="43.2268633" lon="12.8943917"><ele>1028.6000000000001</ele><time>2026-04-04T14:24:06.833Z</time></trkpt><trkpt lat="43.2269383" lon="12.894465"><ele>1029.0</ele><time>2026-04-04T14:24:07.832Z</time></trkpt><trkpt lat="43.2270117" lon="12.894525"><ele>1029.0</ele><time>2026-04-04T14:24:08.835Z</time></trkpt><trkpt lat="43.22708" lon="12.8945833"><ele>1029.0</ele><time>2026-04-04T14:24:09.835Z</time></trkpt><trkpt lat="43.2271467" lon="12.8946433"><ele>1029.0</ele><time>2026-04-04T14:24:10.832Z</time></trkpt><trkpt lat="43.2272167" lon="12.89471"><ele>1029.0</ele><time>2026-04-04T14:24:11.833Z</time></trkpt><trkpt lat="43.2272817" lon="12.8947883"><ele>1029.0</ele><time>2026-04-04T14:24:12.833Z</time></trkpt><trkpt lat="43.2273467" lon="12.89488"><ele>1029.0</ele><time>2026-04-04T14:24:13.834Z</time></trkpt><trkpt lat="43.2274217" lon="12.8949683"><ele>1028.6000000000001</ele><time>2026-04-04T14:24:14.837Z</time></trkpt><trkpt lat="43.2275033" lon="12.8950517"><ele>1028.2</ele><time>2026-04-04T14:24:15.834Z</time></trkpt><trkpt lat="43.2275867" lon="12.8951383"><ele>1027.8000000000002</ele><time>2026-04-04T14:24:16.834Z</time></trkpt><trkpt lat="43.2276717" lon="12.8952283"><ele>1027.4</ele><time>2026-04-04T14:24:17.834Z</time></trkpt><trkpt lat="43.2277533" lon="12.895325"><ele>1027.0</ele><time>2026-04-04T14:24:18.834Z</time></trkpt><trkpt lat="43.2278317" lon="12.8954233"><ele>1027.0</ele><time>2026-04-04T14:24:19.834Z</time></trkpt><trkpt lat="43.2279083" lon="12.8955283"><ele>1027.0</ele><time>2026-04-04T14:24:20.837Z</time></trkpt><trkpt lat="43.227985" lon="12.8956367"><ele>1027.0</ele><time>2026-04-04T14:24:21.833Z</time></trkpt><trkpt lat="43.228065" lon="12.8957383"><ele>1027.0</ele><time>2026-04-04T14:24:22.833Z</time></trkpt><trkpt lat="43.2281417" lon="12.8958433"><ele>1027.0</ele><time>2026-04-04T14:24:23.834Z</time></trkpt><trkpt lat="43.2282167" lon="12.8959483"><ele>1029.4</ele><time>2026-04-04T14:24:24.833Z</time></trkpt><trkpt lat="43.2282933" lon="12.89606"><ele>1031.8000000000002</ele><time>2026-04-04T14:24:25.833Z</time></trkpt><trkpt lat="43.2283733" lon="12.8961767"><ele>1034.2</ele><time>2026-04-04T14:24:26.836Z</time></trkpt><trkpt lat="43.2284467" lon="12.8962917"><ele>1036.6000000000001</ele><time>2026-04-04T14:24:27.833Z</time></trkpt><trkpt lat="43.228515" lon="12.896405"><ele>1039.0</ele><time>2026-04-04T14:24:28.834Z</time></trkpt><trkpt lat="43.228585" lon="12.89652"><ele>1039.0</ele><time>2026-04-04T14:24:29.834Z</time></trkpt><trkpt lat="43.228655" lon="12.8966367"><ele>1039.0</ele><time>2026-04-04T14:24:30.833Z</time></trkpt><trkpt lat="43.2287267" lon="12.8967633"><ele>1039.0</ele><time>2026-04-04T14:24:31.835Z</time></trkpt><trkpt lat="43.2288" lon="12.8969"><ele>1039.0</ele><time>2026-04-04T14:24:32.835Z</time></trkpt><trkpt lat="43.22887" lon="12.8970433"><ele>1038.75</ele><time>2026-04-04T14:24:33.834Z</time></trkpt><trkpt lat="43.2289433" lon="12.8971933"><ele>1038.5</ele><time>2026-04-04T14:24:34.833Z</time></trkpt><trkpt lat="43.2290183" lon="12.8973317"><ele>1038.25</ele><time>2026-04-04T14:24:35.835Z</time></trkpt><trkpt lat="43.2290917" lon="12.8974533"><ele>1038.0</ele><time>2026-04-04T14:24:36.835Z</time></trkpt><trkpt lat="43.2291683" lon="12.8975683"><ele>1044.8</ele><time>2026-04-04T14:24:37.835Z</time></trkpt><trkpt lat="43.22924" lon="12.8976733"><ele>1051.6</ele><time>2026-04-04T14:24:38.836Z</time></trkpt><trkpt lat="43.2292967" lon="12.89776"><ele>1058.4</ele><time>2026-04-04T14:24:39.836Z</time></trkpt><trkpt lat="43.2293433" lon="12.8978417"><ele>1065.2</ele><time>2026-04-04T14:24:40.834Z</time></trkpt><trkpt lat="43.2294067" lon="12.897975"><ele>1072.0</ele><time>2026-04-04T14:24:42.835Z</time></trkpt><trkpt lat="43.2294683" lon="12.8981233"><ele>1072.0</ele><time>2026-04-04T14:24:44.835Z</time></trkpt><trkpt lat="43.2295433" lon="12.8982583"><ele>1072.0</ele><time>2026-04-04T14:24:46.834Z</time></trkpt><trkpt lat="43.2295917" lon="12.898315"><ele>1072.0</ele><time>2026-04-04T14:24:47.833Z</time></trkpt><trkpt lat="43.2296467" lon="12.8983583"><ele>1072.0</ele><time>2026-04-04T14:24:48.836Z</time></trkpt><trkpt lat="43.2297067" lon="12.8983967"><ele>1072.0</ele><time>2026-04-04T14:24:49.834Z</time></trkpt><trkpt lat="43.2297733" lon="12.8984317"><ele>1072.0</ele><time>2026-04-04T14:24:50.836Z</time></trkpt><trkpt lat="43.2298483" lon="12.8984617"><ele>1073.4285714285716</ele><time>2026-04-04T14:24:51.836Z</time></trkpt><trkpt lat="43.2299267" lon="12.8984867"><ele>1074.857142857143</ele><time>2026-04-04T14:24:52.833Z</time></trkpt><trkpt lat="43.230005" lon="12.8985133"><ele>1076.2857142857142</ele><time>2026-04-04T14:24:53.836Z</time></trkpt><trkpt lat="43.2300783" lon="12.8985467"><ele>1077.7142857142858</ele><time>2026-04-04T14:24:54.833Z</time></trkpt><trkpt lat="43.23014" lon="12.8985917"><ele>1079.142857142857</ele><time>2026-04-04T14:24:55.833Z</time></trkpt><trkpt lat="43.230195" lon="12.8986467"><ele>1080.5714285714287</ele><time>2026-04-04T14:24:56.834Z</time></trkpt><trkpt lat="43.23025" lon="12.8987017"><ele>1082.0</ele><time>2026-04-04T14:24:57.833Z</time></trkpt><trkpt lat="43.2303483" lon="12.8988"><ele>1082.0</ele><time>2026-04-04T14:24:59.835Z</time></trkpt><trkpt lat="43.230445" lon="12.8989017"><ele>1082.0</ele><time>2026-04-04T14:25:01.834Z</time></trkpt><trkpt lat="43.2305217" lon="12.8989667"><ele>1082.0</ele><time>2026-04-04T14:25:03.833Z</time></trkpt><trkpt lat="43.2305983" lon="12.8989567"><ele>1082.0</ele><time>2026-04-04T14:25:21.834Z</time></trkpt><trkpt lat="43.23072" lon="12.8989033"><ele>1082.0</ele><time>2026-04-04T14:25:23.834Z</time></trkpt><trkpt lat="43.2307967" lon="12.8988483"><ele>1083.0</ele><time>2026-04-04T14:25:24.834Z</time></trkpt><trkpt lat="43.2308717" lon="12.898775"><ele>1084.0</ele><time>2026-04-04T14:25:25.833Z</time></trkpt><trkpt lat="43.2309417" lon="12.8986967"><ele>1085.0</ele><time>2026-04-04T14:25:26.834Z</time></trkpt><trkpt lat="43.231005" lon="12.8986233"><ele>1086.0</ele><time>2026-04-04T14:25:27.834Z</time></trkpt><trkpt lat="43.2310783" lon="12.89854"><ele>1087.0</ele><time>2026-04-04T14:25:28.834Z</time></trkpt><trkpt lat="43.2311483" lon="12.89845"><ele>1087.0</ele><time>2026-04-04T14:25:29.833Z</time></trkpt><trkpt lat="43.2312167" lon="12.8983633"><ele>1087.0</ele><time>2026-04-04T14:25:30.832Z</time></trkpt><trkpt lat="43.2312833" lon="12.8982833"><ele>1087.0</ele><time>2026-04-04T14:25:31.833Z</time></trkpt><trkpt lat="43.2313467" lon="12.8982117"><ele>1087.0</ele><time>2026-04-04T14:25:32.833Z</time></trkpt><trkpt lat="43.23141" lon="12.8981383"><ele>1087.0</ele><time>2026-04-04T14:25:33.835Z</time></trkpt><trkpt lat="43.2314817" lon="12.8980633"><ele>1087.0</ele><time>2026-04-04T14:25:34.833Z</time></trkpt><trkpt lat="43.23155" lon="12.8979933"><ele>1089.5</ele><time>2026-04-04T14:25:35.832Z</time></trkpt><trkpt lat="43.23162" lon="12.897925"><ele>1092.0</ele><time>2026-04-04T14:25:36.833Z</time></trkpt><trkpt lat="43.23169" lon="12.8978617"><ele>1094.5</ele><time>2026-04-04T14:25:37.835Z</time></trkpt><trkpt lat="43.23176" lon="12.897805"><ele>1097.0</ele><time>2026-04-04T14:25:38.835Z</time></trkpt><trkpt lat="43.2318333" lon="12.89776"><ele>1099.5</ele><time>2026-04-04T14:25:39.833Z</time></trkpt><trkpt lat="43.2319" lon="12.8977383"><ele>1102.0</ele><time>2026-04-04T14:25:40.834Z</time></trkpt><trkpt lat="43.232005" lon="12.8977467"><ele>1102.0</ele><time>2026-04-04T14:25:42.833Z</time></trkpt><trkpt lat="43.2320767" lon="12.8977317"><ele>1102.0</ele><time>2026-04-04T14:25:46.834Z</time></trkpt><trkpt lat="43.232125" lon="12.8976317"><ele>1102.0</ele><time>2026-04-04T14:25:48.835Z</time></trkpt><trkpt lat="43.2321983" lon="12.8974867"><ele>1102.0</ele><time>2026-04-04T14:25:50.835Z</time></trkpt><trkpt lat="43.23224" lon="12.8973933"><ele>1102.0</ele><time>2026-04-04T14:25:51.833Z</time></trkpt><trkpt lat="43.2322883" lon="12.8972917"><ele>1098.6</ele><time>2026-04-04T14:25:52.833Z</time></trkpt><trkpt lat="43.2323383" lon="12.89718"><ele>1095.2</ele><time>2026-04-04T14:25:53.833Z</time></trkpt><trkpt lat="43.2323883" lon="12.8970533"><ele>1091.8</ele><time>2026-04-04T14:25:54.833Z</time></trkpt><trkpt lat="43.23244" lon="12.8969233"><ele>1088.4</ele><time>2026-04-04T14:25:55.832Z</time></trkpt><trkpt lat="43.232495" lon="12.8968067"><ele>1085.0</ele><time>2026-04-04T14:25:56.835Z</time></trkpt><trkpt lat="43.2325483" lon="12.8967"><ele>1084.2</ele><time>2026-04-04T14:25:57.833Z</time></trkpt><trkpt lat="43.232605" lon="12.8965967"><ele>1083.4</ele><time>2026-04-04T14:25:58.834Z</time></trkpt><trkpt lat="43.232665" lon="12.896495"><ele>1082.6</ele><time>2026-04-04T14:25:59.834Z</time></trkpt><trkpt lat="43.23273" lon="12.8963967"><ele>1081.8</ele><time>2026-04-04T14:26:00.834Z</time></trkpt><trkpt lat="43.232805" lon="12.8963"><ele>1081.0</ele><time>2026-04-04T14:26:01.834Z</time></trkpt><trkpt lat="43.2328833" lon="12.8962"><ele>1081.0</ele><time>2026-04-04T14:26:02.834Z</time></trkpt><trkpt lat="43.232965" lon="12.8961"><ele>1081.0</ele><time>2026-04-04T14:26:03.833Z</time></trkpt><trkpt lat="43.233045" lon="12.8960083"><ele>1081.0</ele><time>2026-04-04T14:26:04.833Z</time></trkpt><trkpt lat="43.2331233" lon="12.8959283"><ele>1081.0</ele><time>2026-04-04T14:26:05.834Z</time></trkpt><trkpt lat="43.23321" lon="12.8958483"><ele>1081.0</ele><time>2026-04-04T14:26:06.833Z</time></trkpt><trkpt lat="43.2333017" lon="12.8957667"><ele>1079.0</ele><time>2026-04-04T14:26:07.828Z</time></trkpt><trkpt lat="43.233395" lon="12.8956883"><ele>1077.0</ele><time>2026-04-04T14:26:08.835Z</time></trkpt><trkpt lat="43.23349" lon="12.895615"><ele>1075.0</ele><time>2026-04-04T14:26:09.833Z</time></trkpt><trkpt lat="43.2335817" lon="12.89555"><ele>1073.0</ele><time>2026-04-04T14:26:10.834Z</time></trkpt><trkpt lat="43.2336633" lon="12.8954933"><ele>1071.0</ele><time>2026-04-04T14:26:11.833Z</time></trkpt><trkpt lat="43.2337333" lon="12.8954483"><ele>1071.0</ele><time>2026-04-04T14:26:12.833Z</time></trkpt><trkpt lat="43.2337883" lon="12.895405"><ele>1071.0</ele><time>2026-04-04T14:26:13.834Z</time></trkpt><trkpt lat="43.2338367" lon="12.895345"><ele>1071.0</ele><time>2026-04-04T14:26:14.831Z</time></trkpt><trkpt lat="43.233885" lon="12.895265"><ele>1071.0</ele><time>2026-04-04T14:26:15.834Z</time></trkpt><trkpt lat="43.2339383" lon="12.89518"><ele>1071.0</ele><time>2026-04-04T14:26:16.833Z</time></trkpt><trkpt lat="43.2340017" lon="12.8951133"><ele>1071.0</ele><time>2026-04-04T14:26:17.833Z</time></trkpt><trkpt lat="43.2340833" lon="12.89507"><ele>1071.8</ele><time>2026-04-04T14:26:18.832Z</time></trkpt><trkpt lat="43.2341633" lon="12.895045"><ele>1072.6</ele><time>2026-04-04T14:26:19.841Z</time></trkpt><trkpt lat="43.2342367" lon="12.89503"><ele>1073.4</ele><time>2026-04-04T14:26:20.835Z</time></trkpt><trkpt lat="43.2343583" lon="12.8950117"><ele>1074.2</ele><time>2026-04-04T14:26:22.834Z</time></trkpt><trkpt lat="43.2344867" lon="12.8949717"><ele>1075.0</ele><time>2026-04-04T14:26:24.834Z</time></trkpt><trkpt lat="43.2345533" lon="12.8949367"><ele>1075.0</ele><time>2026-04-04T14:26:25.833Z</time></trkpt><trkpt lat="43.23462" lon="12.8948933"><ele>1075.0</ele><time>2026-04-04T14:26:26.835Z</time></trkpt><trkpt lat="43.2346833" lon="12.894845"><ele>1075.0</ele><time>2026-04-04T14:26:27.832Z</time></trkpt><trkpt lat="43.2347417" lon="12.8947983"><ele>1075.0</ele><time>2026-04-04T14:26:28.834Z</time></trkpt><trkpt lat="43.2348467" lon="12.8947283"><ele>1075.0</ele><time>2026-04-04T14:26:30.834Z</time></trkpt><trkpt lat="43.2349667" lon="12.8946633"><ele>1073.3333333333333</ele><time>2026-04-04T14:26:32.835Z</time></trkpt><trkpt lat="43.2350367" lon="12.894625"><ele>1071.6666666666665</ele><time>2026-04-04T14:26:33.834Z</time></trkpt><trkpt lat="43.2351133" lon="12.89458"><ele>1070.0</ele><time>2026-04-04T14:26:34.833Z</time></trkpt><trkpt lat="43.2351933" lon="12.8945333"><ele>1068.3333333333333</ele><time>2026-04-04T14:26:35.835Z</time></trkpt><trkpt lat="43.235275" lon="12.8944883"><ele>1066.6666666666667</ele><time>2026-04-04T14:26:36.833Z</time></trkpt><trkpt lat="43.23536" lon="12.8944483"><ele>1065.0</ele><time>2026-04-04T14:26:37.833Z</time></trkpt><trkpt lat="43.235445" lon="12.894415"><ele>1065.0</ele><time>2026-04-04T14:26:38.837Z</time></trkpt><trkpt lat="43.2355283" lon="12.8943883"><ele>1065.0</ele><time>2026-04-04T14:26:39.833Z</time></trkpt><trkpt lat="43.2356083" lon="12.894365"><ele>1065.0</ele><time>2026-04-04T14:26:40.833Z</time></trkpt><trkpt lat="43.2356833" lon="12.8943417"><ele>1065.0</ele><time>2026-04-04T14:26:41.833Z</time></trkpt><trkpt lat="43.23576" lon="12.8943283"><ele>1065.0</ele><time>2026-04-04T14:26:42.833Z</time></trkpt><trkpt lat="43.2358483" lon="12.8943267"><ele>1065.0</ele><time>2026-04-04T14:26:43.834Z</time></trkpt><trkpt lat="43.2359433" lon="12.8943367"><ele>1062.3333333333333</ele><time>2026-04-04T14:26:44.834Z</time></trkpt><trkpt lat="43.2360367" lon="12.8943467"><ele>1059.6666666666667</ele><time>2026-04-04T14:26:45.834Z</time></trkpt><trkpt lat="43.2361217" lon="12.8943617"><ele>1057.0</ele><time>2026-04-04T14:26:46.835Z</time></trkpt><trkpt lat="43.2361933" lon="12.8943783"><ele>1054.3333333333335</ele><time>2026-04-04T14:26:47.833Z</time></trkpt><trkpt lat="43.2362533" lon="12.894405"><ele>1051.6666666666667</ele><time>2026-04-04T14:26:48.834Z</time></trkpt><trkpt lat="43.2363333" lon="12.8945467"><ele>1049.0</ele><time>2026-04-04T14:26:50.833Z</time></trkpt><trkpt lat="43.23636" lon="12.8946433"><ele>1049.0</ele><time>2026-04-04T14:26:51.834Z</time></trkpt><trkpt lat="43.2363867" lon="12.8947483"><ele>1049.0</ele><time>2026-04-04T14:26:52.835Z</time></trkpt><trkpt lat="43.2364183" lon="12.89485"><ele>1049.0</ele><time>2026-04-04T14:26:53.832Z</time></trkpt><trkpt lat="43.2364517" lon="12.8949467"><ele>1049.0</ele><time>2026-04-04T14:26:54.835Z</time></trkpt><trkpt lat="43.2364867" lon="12.89504"><ele>1049.0</ele><time>2026-04-04T14:26:55.834Z</time></trkpt><trkpt lat="43.2365217" lon="12.8951383"><ele>1049.0</ele><time>2026-04-04T14:26:56.834Z</time></trkpt><trkpt lat="43.2365633" lon="12.8952317"><ele>1044.6666666666667</ele><time>2026-04-04T14:26:57.833Z</time></trkpt><trkpt lat="43.2366117" lon="12.8953133"><ele>1040.3333333333335</ele><time>2026-04-04T14:26:58.832Z</time></trkpt><trkpt lat="43.2366733" lon="12.89539"><ele>1036.0</ele><time>2026-04-04T14:26:59.834Z</time></trkpt><trkpt lat="43.2367367" lon="12.8954667"><ele>1031.6666666666667</ele><time>2026-04-04T14:27:00.833Z</time></trkpt><trkpt lat="43.236795" lon="12.89555"><ele>1027.3333333333333</ele><time>2026-04-04T14:27:01.833Z</time></trkpt><trkpt lat="43.23685" lon="12.89564"><ele>1023.0</ele><time>2026-04-04T14:27:02.835Z</time></trkpt><trkpt lat="43.2369017" lon="12.8957333"><ele>1023.0</ele><time>2026-04-04T14:27:03.833Z</time></trkpt><trkpt lat="43.236955" lon="12.8958283"><ele>1023.0</ele><time>2026-04-04T14:27:04.831Z</time></trkpt><trkpt lat="43.2370067" lon="12.89593"><ele>1023.0</ele><time>2026-04-04T14:27:05.833Z</time></trkpt><trkpt lat="43.23705" lon="12.8960417"><ele>1023.0</ele><time>2026-04-04T14:27:06.833Z</time></trkpt><trkpt lat="43.2370767" lon="12.89616"><ele>1023.0</ele><time>2026-04-04T14:27:07.832Z</time></trkpt><trkpt lat="43.2370867" lon="12.8962833"><ele>1020.2</ele><time>2026-04-04T14:27:08.836Z</time></trkpt><trkpt lat="43.2370833" lon="12.89642"><ele>1017.4</ele><time>2026-04-04T14:27:09.833Z</time></trkpt><trkpt lat="43.2370783" lon="12.89656"><ele>1014.6000000000001</ele><time>2026-04-04T14:27:10.834Z</time></trkpt><trkpt lat="43.2370667" lon="12.8967083"><ele>1011.8000000000001</ele><time>2026-04-04T14:27:11.833Z</time></trkpt><trkpt lat="43.2370583" lon="12.896855"><ele>1009.0</ele><time>2026-04-04T14:27:12.835Z</time></trkpt><trkpt lat="43.2370467" lon="12.8970017"><ele>1005.6</ele><time>2026-04-04T14:27:13.834Z</time></trkpt><trkpt lat="43.237035" lon="12.897155"><ele>1002.2</ele><time>2026-04-04T14:27:14.835Z</time></trkpt><trkpt lat="43.2370267" lon="12.89731"><ele>998.8000000000001</ele><time>2026-04-04T14:27:15.832Z</time></trkpt><trkpt lat="43.2370317" lon="12.8974583"><ele>995.4000000000001</ele><time>2026-04-04T14:27:16.828Z</time></trkpt><trkpt lat="43.2370483" lon="12.897595"><ele>992.0</ele><time>2026-04-04T14:27:17.832Z</time></trkpt><trkpt lat="43.23707" lon="12.89772"><ele>990.6666666666667</ele><time>2026-04-04T14:27:18.834Z</time></trkpt><trkpt lat="43.2370933" lon="12.8978317"><ele>989.3333333333334</ele><time>2026-04-04T14:27:19.836Z</time></trkpt><trkpt lat="43.2371167" lon="12.897935"><ele>988.0</ele><time>2026-04-04T14:27:20.837Z</time></trkpt><trkpt lat="43.2371317" lon="12.8980333"><ele>986.6666666666667</ele><time>2026-04-04T14:27:21.834Z</time></trkpt><trkpt lat="43.2371367" lon="12.8981283"><ele>985.3333333333334</ele><time>2026-04-04T14:27:22.833Z</time></trkpt><trkpt lat="43.2371433" lon="12.8982283"><ele>984.0</ele><time>2026-04-04T14:27:23.834Z</time></trkpt><trkpt lat="43.2371517" lon="12.8983333"><ele>982.1666666666666</ele><time>2026-04-04T14:27:24.834Z</time></trkpt><trkpt lat="43.23716" lon="12.8984417"><ele>980.3333333333333</ele><time>2026-04-04T14:27:25.834Z</time></trkpt><trkpt lat="43.237165" lon="12.898555"><ele>978.5</ele><time>2026-04-04T14:27:26.833Z</time></trkpt><trkpt lat="43.2371683" lon="12.8986717"><ele>976.6666666666666</ele><time>2026-04-04T14:27:27.833Z</time></trkpt><trkpt lat="43.23717" lon="12.8987867"><ele>974.8333333333333</ele><time>2026-04-04T14:27:28.835Z</time></trkpt><trkpt lat="43.237175" lon="12.8988967"><ele>973.0</ele><time>2026-04-04T14:27:29.834Z</time></trkpt><trkpt lat="43.237175" lon="12.899005"><ele>972.9999999999999</ele><time>2026-04-04T14:27:30.833Z</time></trkpt><trkpt lat="43.2371733" lon="12.89911"><ele>973.0</ele><time>2026-04-04T14:27:31.834Z</time></trkpt><trkpt lat="43.237175" lon="12.899205"><ele>973.0</ele><time>2026-04-04T14:27:32.835Z</time></trkpt><trkpt lat="43.23717" lon="12.8993783"><ele>973.0</ele><time>2026-04-04T14:27:34.833Z</time></trkpt><trkpt lat="43.237155" lon="12.8994767"><ele>972.9999999999999</ele><time>2026-04-04T14:27:35.834Z</time></trkpt><trkpt lat="43.2371383" lon="12.8995733"><ele>973.0</ele><time>2026-04-04T14:27:36.833Z</time></trkpt><trkpt lat="43.237125" lon="12.89967"><ele>971.6666666666666</ele><time>2026-04-04T14:27:37.833Z</time></trkpt><trkpt lat="43.2371083" lon="12.8997667"><ele>970.3333333333333</ele><time>2026-04-04T14:27:38.834Z</time></trkpt><trkpt lat="43.2371033" lon="12.899865"><ele>969.0</ele><time>2026-04-04T14:27:39.833Z</time></trkpt><trkpt lat="43.2371183" lon="12.899965"><ele>967.6666666666667</ele><time>2026-04-04T14:27:40.834Z</time></trkpt><trkpt lat="43.2371433" lon="12.9000683"><ele>966.3333333333334</ele><time>2026-04-04T14:27:41.833Z</time></trkpt><trkpt lat="43.2371633" lon="12.900175"><ele>965.0</ele><time>2026-04-04T14:27:42.834Z</time></trkpt><trkpt lat="43.2371783" lon="12.9002767"><ele>964.1428571428571</ele><time>2026-04-04T14:27:43.835Z</time></trkpt><trkpt lat="43.2371883" lon="12.9003767"><ele>963.2857142857143</ele><time>2026-04-04T14:27:44.834Z</time></trkpt><trkpt lat="43.237205" lon="12.900475"><ele>962.4285714285714</ele><time>2026-04-04T14:27:45.832Z</time></trkpt><trkpt lat="43.2372317" lon="12.9005667"><ele>961.5714285714286</ele><time>2026-04-04T14:27:46.832Z</time></trkpt><trkpt lat="43.2372667" lon="12.9006517"><ele>960.7142857142858</ele><time>2026-04-04T14:27:47.833Z</time></trkpt><trkpt lat="43.2373" lon="12.9007333"><ele>959.8571428571429</ele><time>2026-04-04T14:27:48.834Z</time></trkpt><trkpt lat="43.2373367" lon="12.9008233"><ele>959.0</ele><time>2026-04-04T14:27:49.835Z</time></trkpt><trkpt lat="43.2373717" lon="12.900915"><ele>954.0000000000001</ele><time>2026-04-04T14:27:50.835Z</time></trkpt><trkpt lat="43.2374067" lon="12.9010117"><ele>949.0</ele><time>2026-04-04T14:27:51.834Z</time></trkpt><trkpt lat="43.2374417" lon="12.901115"><ele>944.0</ele><time>2026-04-04T14:27:52.833Z</time></trkpt><trkpt lat="43.2374833" lon="12.9012217"><ele>939.0</ele><time>2026-04-04T14:27:53.833Z</time></trkpt><trkpt lat="43.2375267" lon="12.9013333"><ele>934.0000000000001</ele><time>2026-04-04T14:27:54.835Z</time></trkpt><trkpt lat="43.2375717" lon="12.90144"><ele>929.0</ele><time>2026-04-04T14:27:55.834Z</time></trkpt><trkpt lat="43.2376133" lon="12.9015317"><ele>929.0</ele><time>2026-04-04T14:27:56.835Z</time></trkpt><trkpt lat="43.2376517" lon="12.90161"><ele>929.0000000000001</ele><time>2026-04-04T14:27:57.833Z</time></trkpt><trkpt lat="43.2377117" lon="12.9017233"><ele>929.0000000000001</ele><time>2026-04-04T14:27:59.835Z</time></trkpt><trkpt lat="43.2377767" lon="12.9018467"><ele>929.0</ele><time>2026-04-04T14:28:01.832Z</time></trkpt><trkpt lat="43.23779" lon="12.9020217"><ele>929.0</ele><time>2026-04-04T14:28:03.834Z</time></trkpt><trkpt lat="43.2377867" lon="12.9021183"><ele>927.3333333333334</ele><time>2026-04-04T14:28:04.833Z</time></trkpt><trkpt lat="43.23778" lon="12.902215"><ele>925.6666666666667</ele><time>2026-04-04T14:28:05.834Z</time></trkpt><trkpt lat="43.2377717" lon="12.902315"><ele>924.0</ele><time>2026-04-04T14:28:06.833Z</time></trkpt><trkpt lat="43.2377567" lon="12.9024167"><ele>922.3333333333333</ele><time>2026-04-04T14:28:07.831Z</time></trkpt><trkpt lat="43.2377333" lon="12.9025183"><ele>920.6666666666666</ele><time>2026-04-04T14:28:08.835Z</time></trkpt><trkpt lat="43.2377017" lon="12.90262"><ele>919.0</ele><time>2026-04-04T14:28:09.835Z</time></trkpt><trkpt lat="43.2376683" lon="12.90272"><ele>915.3333333333333</ele><time>2026-04-04T14:28:10.834Z</time></trkpt><trkpt lat="43.23762" lon="12.90281"><ele>911.6666666666666</ele><time>2026-04-04T14:28:11.834Z</time></trkpt><trkpt lat="43.2375733" lon="12.9029083"><ele>908.0</ele><time>2026-04-04T14:28:12.833Z</time></trkpt><trkpt lat="43.2375217" lon="12.9030033"><ele>904.3333333333333</ele><time>2026-04-04T14:28:13.833Z</time></trkpt><trkpt lat="43.2374683" lon="12.9031017"><ele>900.6666666666666</ele><time>2026-04-04T14:28:14.836Z</time></trkpt><trkpt lat="43.2374083" lon="12.9032033"><ele>897.0</ele><time>2026-04-04T14:28:15.835Z</time></trkpt><trkpt lat="43.2373283" lon="12.9033083"><ele>894.75</ele><time>2026-04-04T14:28:16.833Z</time></trkpt><trkpt lat="43.2372567" lon="12.9034267"><ele>892.5</ele><time>2026-04-04T14:28:17.83Z</time></trkpt><trkpt lat="43.2371817" lon="12.903565"><ele>890.25</ele><time>2026-04-04T14:28:18.834Z</time></trkpt><trkpt lat="43.237115" lon="12.9037083"><ele>888.0</ele><time>2026-04-04T14:28:19.834Z</time></trkpt><trkpt lat="43.2370417" lon="12.9038483"><ele>888.0</ele><time>2026-04-04T14:28:20.835Z</time></trkpt><trkpt lat="43.2369667" lon="12.903985"><ele>888.0</ele><time>2026-04-04T14:28:21.835Z</time></trkpt><trkpt lat="43.2369" lon="12.9041233"><ele>888.0</ele><time>2026-04-04T14:28:22.834Z</time></trkpt><trkpt lat="43.2368383" lon="12.90425"><ele>888.0</ele><time>2026-04-04T14:28:23.835Z</time></trkpt><trkpt lat="43.2367867" lon="12.90437"><ele>884.3333333333334</ele><time>2026-04-04T14:28:24.835Z</time></trkpt><trkpt lat="43.2367567" lon="12.9044933"><ele>880.6666666666667</ele><time>2026-04-04T14:28:25.834Z</time></trkpt><trkpt lat="43.2367517" lon="12.9046117"><ele>877.0</ele><time>2026-04-04T14:28:26.835Z</time></trkpt><trkpt lat="43.2367533" lon="12.9047383"><ele>873.3333333333334</ele><time>2026-04-04T14:28:27.834Z</time></trkpt><trkpt lat="43.23676" lon="12.9048583"><ele>869.6666666666667</ele><time>2026-04-04T14:28:28.834Z</time></trkpt><trkpt lat="43.236775" lon="12.9049717"><ele>866.0</ele><time>2026-04-04T14:28:29.833Z</time></trkpt><trkpt lat="43.2367933" lon="12.9050833"><ele>863.5000000000001</ele><time>2026-04-04T14:28:30.836Z</time></trkpt><trkpt lat="43.236805" lon="12.9051917"><ele>861.0</ele><time>2026-04-04T14:28:31.834Z</time></trkpt><trkpt lat="43.236815" lon="12.9053017"><ele>858.5</ele><time>2026-04-04T14:28:32.834Z</time></trkpt><trkpt lat="43.236835" lon="12.9054133"><ele>856.0</ele><time>2026-04-04T14:28:33.835Z</time></trkpt><trkpt lat="43.2368583" lon="12.90553"><ele>853.5000000000001</ele><time>2026-04-04T14:28:34.833Z</time></trkpt><trkpt lat="43.236885" lon="12.9056483"><ele>851.0</ele><time>2026-04-04T14:28:35.834Z</time></trkpt><trkpt lat="43.2369133" lon="12.9057683"><ele>851.0000000000001</ele><time>2026-04-04T14:28:36.834Z</time></trkpt><trkpt lat="43.2369417" lon="12.9058833"><ele>851.0</ele><time>2026-04-04T14:28:37.832Z</time></trkpt><trkpt lat="43.236965" lon="12.90598"><ele>851.0</ele><time>2026-04-04T14:28:38.836Z</time></trkpt><trkpt lat="43.237005" lon="12.9061217"><ele>851.0</ele><time>2026-04-04T14:28:40.833Z</time></trkpt><trkpt lat="43.2370183" lon="12.9062083"><ele>851.0000000000001</ele><time>2026-04-04T14:28:42.833Z</time></trkpt><trkpt lat="43.2369433" lon="12.9062017"><ele>851.0</ele><time>2026-04-04T14:28:50.835Z</time></trkpt><trkpt lat="43.236865" lon="12.9061617"><ele>851.0000000000001</ele><time>2026-04-04T14:28:52.832Z</time></trkpt><trkpt lat="43.23676" lon="12.906095"><ele>851.0</ele><time>2026-04-04T14:28:54.833Z</time></trkpt><trkpt lat="43.2367033" lon="12.9060517"><ele>851.0</ele><time>2026-04-04T14:28:55.833Z</time></trkpt><trkpt lat="43.23665" lon="12.906005"><ele>851.0</ele><time>2026-04-04T14:28:56.836Z</time></trkpt><trkpt lat="43.2365383" lon="12.9059067"><ele>851.0000000000001</ele><time>2026-04-04T14:28:58.834Z</time></trkpt><trkpt lat="43.2364783" lon="12.9058633"><ele>851.0</ele><time>2026-04-04T14:28:59.833Z</time></trkpt><trkpt lat="43.236405" lon="12.9058217"><ele>847.4</ele><time>2026-04-04T14:29:00.832Z</time></trkpt><trkpt lat="43.236315" lon="12.9057867"><ele>843.8</ele><time>2026-04-04T14:29:01.834Z</time></trkpt><trkpt lat="43.236205" lon="12.9057783"><ele>840.1999999999999</ele><time>2026-04-04T14:29:02.835Z</time></trkpt><trkpt lat="43.236095" lon="12.9057933"><ele>836.5999999999999</ele><time>2026-04-04T14:29:03.833Z</time></trkpt><trkpt lat="43.23599" lon="12.905795"><ele>833.0</ele><time>2026-04-04T14:29:04.833Z</time></trkpt><trkpt lat="43.2358917" lon="12.90577"><ele>833.0</ele><time>2026-04-04T14:29:05.833Z</time></trkpt><trkpt lat="43.235795" lon="12.9057267"><ele>833.0</ele><time>2026-04-04T14:29:06.834Z</time></trkpt><trkpt lat="43.2356833" lon="12.9056633"><ele>833.0</ele><time>2026-04-04T14:29:07.835Z</time></trkpt><trkpt lat="43.235575" lon="12.9055867"><ele>833.0</ele><time>2026-04-04T14:29:08.835Z</time></trkpt><trkpt lat="43.2354567" lon="12.905525"><ele>832.2</ele><time>2026-04-04T14:29:09.832Z</time></trkpt><trkpt lat="43.23535" lon="12.9054817"><ele>831.4</ele><time>2026-04-04T14:29:10.832Z</time></trkpt><trkpt lat="43.2352517" lon="12.9054567"><ele>830.6</ele><time>2026-04-04T14:29:11.833Z</time></trkpt><trkpt lat="43.23516" lon="12.905445"><ele>829.8000000000001</ele><time>2026-04-04T14:29:12.832Z</time></trkpt><trkpt lat="43.23508" lon="12.9054517"><ele>829.0</ele><time>2026-04-04T14:29:13.833Z</time></trkpt><trkpt lat="43.2349967" lon="12.9054633"><ele>829.0</ele><time>2026-04-04T14:29:14.833Z</time></trkpt><trkpt lat="43.2349067" lon="12.90547"><ele>829.0</ele><time>2026-04-04T14:29:15.833Z</time></trkpt><trkpt lat="43.234815" lon="12.905485"><ele>829.0</ele><time>2026-04-04T14:29:16.833Z</time></trkpt><trkpt lat="43.234735" lon="12.9055417"><ele>829.0</ele><time>2026-04-04T14:29:17.834Z</time></trkpt><trkpt lat="43.23465" lon="12.9055917"><ele>829.0</ele><time>2026-04-04T14:29:18.832Z</time></trkpt><trkpt lat="43.234555" lon="12.9056467"><ele>830.4000000000001</ele><time>2026-04-04T14:29:19.834Z</time></trkpt><trkpt lat="43.2344633" lon="12.905725"><ele>831.8</ele><time>2026-04-04T14:29:20.835Z</time></trkpt><trkpt lat="43.2343867" lon="12.9058"><ele>833.2</ele><time>2026-04-04T14:29:21.833Z</time></trkpt><trkpt lat="43.2343133" lon="12.9058717"><ele>834.5999999999999</ele><time>2026-04-04T14:29:22.835Z</time></trkpt><trkpt lat="43.234245" lon="12.9059483"><ele>836.0</ele><time>2026-04-04T14:29:23.835Z</time></trkpt><trkpt lat="43.2341733" lon="12.906025"><ele>829.8</ele><time>2026-04-04T14:29:24.834Z</time></trkpt><trkpt lat="43.234095" lon="12.90611"><ele>823.5999999999999</ele><time>2026-04-04T14:29:25.835Z</time></trkpt><trkpt lat="43.234005" lon="12.9061983"><ele>817.4</ele><time>2026-04-04T14:29:26.834Z</time></trkpt><trkpt lat="43.23392" lon="12.906295"><ele>811.2</ele><time>2026-04-04T14:29:27.833Z</time></trkpt><trkpt lat="43.2338417" lon="12.9063967"><ele>805.0</ele><time>2026-04-04T14:29:28.832Z</time></trkpt><trkpt lat="43.23376" lon="12.9064983"><ele>805.0</ele><time>2026-04-04T14:29:29.833Z</time></trkpt><trkpt lat="43.2336783" lon="12.906585"><ele>805.0</ele><time>2026-04-04T14:29:30.834Z</time></trkpt><trkpt lat="43.2335967" lon="12.9066733"><ele>805.0</ele><time>2026-04-04T14:29:31.833Z</time></trkpt><trkpt lat="43.23352" lon="12.9067633"><ele>805.0</ele><time>2026-04-04T14:29:32.834Z</time></trkpt><trkpt lat="43.23346" lon="12.9068533"><ele>805.0</ele><time>2026-04-04T14:29:33.834Z</time></trkpt><trkpt lat="43.2334183" lon="12.9069433"><ele>798.6666666666666</ele><time>2026-04-04T14:29:34.831Z</time></trkpt><trkpt lat="43.2334017" lon="12.907035"><ele>792.3333333333333</ele><time>2026-04-04T14:29:35.833Z</time></trkpt><trkpt lat="43.233405" lon="12.9072017"><ele>786.0</ele><time>2026-04-04T14:29:37.832Z</time></trkpt><trkpt lat="43.2333633" lon="12.9072833"><ele>779.6666666666666</ele><time>2026-04-04T14:29:39.834Z</time></trkpt><trkpt lat="43.2332867" lon="12.907325"><ele>773.3333333333333</ele><time>2026-04-04T14:29:41.834Z</time></trkpt><trkpt lat="43.2333067" lon="12.9074417"><ele>767.0</ele><time>2026-04-04T14:29:45.833Z</time></trkpt><trkpt lat="43.2333717" lon="12.90749"><ele>767.0</ele><time>2026-04-04T14:29:46.835Z</time></trkpt><trkpt lat="43.2334567" lon="12.9075417"><ele>767.0</ele><time>2026-04-04T14:29:47.833Z</time></trkpt><trkpt lat="43.2335433" lon="12.9075917"><ele>767.0</ele><time>2026-04-04T14:29:48.832Z</time></trkpt><trkpt lat="43.2336283" lon="12.9076367"><ele>767.0</ele><time>2026-04-04T14:29:49.833Z</time></trkpt><trkpt lat="43.2337217" lon="12.90768"><ele>767.0</ele><time>2026-04-04T14:29:50.835Z</time></trkpt><trkpt lat="43.2338267" lon="12.9077117"><ele>760.6</ele><time>2026-04-04T14:29:51.833Z</time></trkpt><trkpt lat="43.2339283" lon="12.9077567"><ele>754.2</ele><time>2026-04-04T14:29:52.834Z</time></trkpt><trkpt lat="43.2340217" lon="12.907835"><ele>747.8</ele><time>2026-04-04T14:29:53.832Z</time></trkpt><trkpt lat="43.2341" lon="12.9079383"><ele>741.4</ele><time>2026-04-04T14:29:54.833Z</time></trkpt><trkpt lat="43.2341783" lon="12.9080233"><ele>735.0</ele><time>2026-04-04T14:29:55.833Z</time></trkpt><trkpt lat="43.234275" lon="12.9080917"><ele>734.1666666666666</ele><time>2026-04-04T14:29:56.834Z</time></trkpt><trkpt lat="43.2343783" lon="12.9081333"><ele>733.3333333333334</ele><time>2026-04-04T14:29:57.833Z</time></trkpt><trkpt lat="43.2344633" lon="12.908165"><ele>732.5</ele><time>2026-04-04T14:29:58.834Z</time></trkpt><trkpt lat="43.234525" lon="12.908185"><ele>731.6666666666667</ele><time>2026-04-04T14:29:59.834Z</time></trkpt><trkpt lat="43.2346017" lon="12.9082467"><ele>730.8333333333334</ele><time>2026-04-04T14:30:01.834Z</time></trkpt><trkpt lat="43.234675" lon="12.9083017"><ele>730.0</ele><time>2026-04-04T14:30:03.833Z</time></trkpt><trkpt lat="43.234765" lon="12.9083733"><ele>725.4</ele><time>2026-04-04T14:30:05.835Z</time></trkpt><trkpt lat="43.2348517" lon="12.908445"><ele>720.8</ele><time>2026-04-04T14:30:07.835Z</time></trkpt><trkpt lat="43.23496" lon="12.9085367"><ele>716.2</ele><time>2026-04-04T14:30:09.835Z</time></trkpt><trkpt lat="43.2349967" lon="12.9086117"><ele>711.6</ele><time>2026-04-04T14:30:10.833Z</time></trkpt><trkpt lat="43.235045" lon="12.908725"><ele>707.0</ele><time>2026-04-04T14:30:12.835Z</time></trkpt><trkpt lat="43.235095" lon="12.9088167"><ele>707.0</ele><time>2026-04-04T14:30:14.834Z</time></trkpt><trkpt lat="43.23515" lon="12.9089317"><ele>707.0</ele><time>2026-04-04T14:30:16.834Z</time></trkpt><trkpt lat="43.2351783" lon="12.9090767"><ele>707.0</ele><time>2026-04-04T14:30:18.835Z</time></trkpt><trkpt lat="43.2351933" lon="12.9091883"><ele>707.0</ele><time>2026-04-04T14:30:20.835Z</time></trkpt><trkpt lat="43.2351783" lon="12.9092917"><ele>707.0</ele><time>2026-04-04T14:30:23.833Z</time></trkpt><trkpt lat="43.2351833" lon="12.9094183"><ele>704.8333333333333</ele><time>2026-04-04T14:30:26.834Z</time></trkpt><trkpt lat="43.235195" lon="12.9095233"><ele>702.6666666666666</ele><time>2026-04-04T14:30:28.833Z</time></trkpt><trkpt lat="43.235165" lon="12.9096367"><ele>700.5</ele><time>2026-04-04T14:30:30.836Z</time></trkpt><trkpt lat="43.2351283" lon="12.9097617"><ele>698.3333333333334</ele><time>2026-04-04T14:30:32.836Z</time></trkpt><trkpt lat="43.2350883" lon="12.90987"><ele>696.1666666666667</ele><time>2026-04-04T14:30:34.836Z</time></trkpt><trkpt lat="43.2350733" lon="12.9099967"><ele>694.0</ele><time>2026-04-04T14:30:36.836Z</time></trkpt><trkpt lat="43.23509" lon="12.9101167"><ele>691.0</ele><time>2026-04-04T14:30:38.835Z</time></trkpt><trkpt lat="43.235115" lon="12.91025"><ele>688.0</ele><time>2026-04-04T14:30:40.834Z</time></trkpt><trkpt lat="43.2351383" lon="12.910335"><ele>685.0</ele><time>2026-04-04T14:30:41.834Z</time></trkpt><trkpt lat="43.2351533" lon="12.9104883"><ele>682.0</ele><time>2026-04-04T14:30:43.832Z</time></trkpt><trkpt lat="43.2351417" lon="12.9105833"><ele>679.0</ele><time>2026-04-04T14:30:45.835Z</time></trkpt><trkpt lat="43.2351083" lon="12.9106717"><ele>676.0</ele><time>2026-04-04T14:30:47.834Z</time></trkpt><trkpt lat="43.2350617" lon="12.9107567"><ele>676.0</ele><time>2026-04-04T14:30:49.833Z</time></trkpt><trkpt lat="43.23501" lon="12.9108333"><ele>676.0</ele><time>2026-04-04T14:30:51.836Z</time></trkpt><trkpt lat="43.2349667" lon="12.9109167"><ele>676.0</ele><time>2026-04-04T14:30:53.834Z</time></trkpt><trkpt lat="43.2348733" lon="12.9109983"><ele>676.0</ele><time>2026-04-04T14:31:13.836Z</time></trkpt><trkpt lat="43.2348217" lon="12.9110967"><ele>676.0</ele><time>2026-04-04T14:31:16.833Z</time></trkpt><trkpt lat="43.2348" lon="12.9112033"><ele>676.0</ele><time>2026-04-04T14:31:18.835Z</time></trkpt><trkpt lat="43.2348467" lon="12.9113417"><ele>675.1666666666667</ele><time>2026-04-04T14:31:33.834Z</time></trkpt><trkpt lat="43.2348" lon="12.9114467"><ele>674.3333333333334</ele><time>2026-04-04T14:31:35.835Z</time></trkpt><trkpt lat="43.2347233" lon="12.911595"><ele>673.5</ele><time>2026-04-04T14:31:37.84Z</time></trkpt><trkpt lat="43.2346833" lon="12.91169"><ele>672.6666666666666</ele><time>2026-04-04T14:31:38.835Z</time></trkpt><trkpt lat="43.23465" lon="12.91178"><ele>671.8333333333333</ele><time>2026-04-04T14:31:39.833Z</time></trkpt><trkpt lat="43.2346183" lon="12.9118583"><ele>671.0</ele><time>2026-04-04T14:31:40.833Z</time></trkpt><trkpt lat="43.2346233" lon="12.9119767"><ele>669.1999999999999</ele><time>2026-04-04T14:31:41.835Z</time></trkpt><trkpt lat="43.234595" lon="12.9120567"><ele>667.4</ele><time>2026-04-04T14:31:42.836Z</time></trkpt><trkpt lat="43.2345767" lon="12.9122117"><ele>665.6</ele><time>2026-04-04T14:31:44.835Z</time></trkpt><trkpt lat="43.234595" lon="12.912365"><ele>663.8</ele><time>2026-04-04T14:31:46.836Z</time></trkpt><trkpt lat="43.2346317" lon="12.9125167"><ele>662.0</ele><time>2026-04-04T14:31:48.835Z</time></trkpt><trkpt lat="43.234655" lon="12.9126683"><ele>660.0</ele><time>2026-04-04T14:31:50.836Z</time></trkpt><trkpt lat="43.2346633" lon="12.9128017"><ele>658.0</ele><time>2026-04-04T14:31:52.835Z</time></trkpt><trkpt lat="43.2346667" lon="12.912965"><ele>656.0</ele><time>2026-04-04T14:31:54.835Z</time></trkpt><trkpt lat="43.23467" lon="12.9130633"><ele>654.0</ele><time>2026-04-04T14:31:55.834Z</time></trkpt><trkpt lat="43.2346867" lon="12.9131817"><ele>652.0</ele><time>2026-04-04T14:31:56.834Z</time></trkpt><trkpt lat="43.234715" lon="12.913305"><ele>650.5</ele><time>2026-04-04T14:31:57.833Z</time></trkpt><trkpt lat="43.2347367" lon="12.9134183"><ele>649.0</ele><time>2026-04-04T14:31:58.834Z</time></trkpt><trkpt lat="43.2347533" lon="12.91352"><ele>647.5</ele><time>2026-04-04T14:31:59.832Z</time></trkpt><trkpt lat="43.2347633" lon="12.9136217"><ele>646.0</ele><time>2026-04-04T14:32:00.835Z</time></trkpt><trkpt lat="43.2347617" lon="12.9137233"><ele>644.5</ele><time>2026-04-04T14:32:01.834Z</time></trkpt><trkpt lat="43.2347467" lon="12.9138267"><ele>643.0</ele><time>2026-04-04T14:32:02.835Z</time></trkpt><trkpt lat="43.2347217" lon="12.913925"><ele>643.0</ele><time>2026-04-04T14:32:03.835Z</time></trkpt><trkpt lat="43.2346633" lon="12.9139583"><ele>643.0</ele><time>2026-04-04T14:32:04.835Z</time></trkpt><trkpt lat="43.2345533" lon="12.9140183"><ele>643.0</ele><time>2026-04-04T14:32:06.833Z</time></trkpt><trkpt lat="43.2344483" lon="12.9140683"><ele>643.0</ele><time>2026-04-04T14:32:08.835Z</time></trkpt><trkpt lat="43.234385" lon="12.9141267"><ele>643.0</ele><time>2026-04-04T14:32:10.834Z</time></trkpt><trkpt lat="43.2343633" lon="12.9142817"><ele>641.0</ele><time>2026-04-04T14:32:12.834Z</time></trkpt><trkpt lat="43.23434" lon="12.91437"><ele>639.0</ele><time>2026-04-04T14:32:13.834Z</time></trkpt><trkpt lat="43.2343133" lon="12.9144833"><ele>637.0</ele><time>2026-04-04T14:32:14.829Z</time></trkpt><trkpt lat="43.2342867" lon="12.914625"><ele>635.0</ele><time>2026-04-04T14:32:15.833Z</time></trkpt><trkpt lat="43.234275" lon="12.9147683"><ele>633.0</ele><time>2026-04-04T14:32:16.835Z</time></trkpt><trkpt lat="43.2342817" lon="12.91492"><ele>629.4</ele><time>2026-04-04T14:32:17.833Z</time></trkpt><trkpt lat="43.2342917" lon="12.91508"><ele>625.8</ele><time>2026-04-04T14:32:18.836Z</time></trkpt><trkpt lat="43.2342967" lon="12.9152283"><ele>622.2</ele><time>2026-04-04T14:32:19.832Z</time></trkpt><trkpt lat="43.2343117" lon="12.9153767"><ele>618.6</ele><time>2026-04-04T14:32:20.831Z</time></trkpt><trkpt lat="43.2343283" lon="12.915515"><ele>615.0</ele><time>2026-04-04T14:32:21.834Z</time></trkpt><trkpt lat="43.234335" lon="12.9156417"><ele>615.0</ele><time>2026-04-04T14:32:22.834Z</time></trkpt><trkpt lat="43.2343383" lon="12.9157617"><ele>615.0</ele><time>2026-04-04T14:32:23.832Z</time></trkpt><trkpt lat="43.234335" lon="12.915865"><ele>615.0</ele><time>2026-04-04T14:32:24.832Z</time></trkpt><trkpt lat="43.23433" lon="12.915965"><ele>615.0</ele><time>2026-04-04T14:32:25.834Z</time></trkpt><trkpt lat="43.234305" lon="12.91607"><ele>615.0</ele><time>2026-04-04T14:32:26.834Z</time></trkpt><trkpt lat="43.2342633" lon="12.9161883"><ele>615.0</ele><time>2026-04-04T14:32:27.833Z</time></trkpt><trkpt lat="43.2342117" lon="12.9163183"><ele>611.25</ele><time>2026-04-04T14:32:28.834Z</time></trkpt><trkpt lat="43.23418" lon="12.9164767"><ele>607.5</ele><time>2026-04-04T14:32:29.834Z</time></trkpt><trkpt lat="43.2341617" lon="12.9166467"><ele>603.75</ele><time>2026-04-04T14:32:30.833Z</time></trkpt><trkpt lat="43.2341467" lon="12.91682"><ele>600.0</ele><time>2026-04-04T14:32:31.835Z</time></trkpt><trkpt lat="43.2341417" lon="12.9169833"><ele>596.5</ele><time>2026-04-04T14:32:32.836Z</time></trkpt><trkpt lat="43.2341367" lon="12.9171383"><ele>593.0</ele><time>2026-04-04T14:32:33.834Z</time></trkpt><trkpt lat="43.2341283" lon="12.9173"><ele>589.5</ele><time>2026-04-04T14:32:34.835Z</time></trkpt><trkpt lat="43.2341183" lon="12.91747"><ele>586.0</ele><time>2026-04-04T14:32:35.832Z</time></trkpt><trkpt lat="43.2340967" lon="12.9176417"><ele>586.0</ele><time>2026-04-04T14:32:36.833Z</time></trkpt><trkpt lat="43.23406" lon="12.9178083"><ele>586.0</ele><time>2026-04-04T14:32:37.83Z</time></trkpt><trkpt lat="43.2340133" lon="12.917965"><ele>586.0</ele><time>2026-04-04T14:32:38.833Z</time></trkpt><trkpt lat="43.2339667" lon="12.918105"><ele>586.0</ele><time>2026-04-04T14:32:39.833Z</time></trkpt><trkpt lat="43.2339183" lon="12.918235"><ele>586.0</ele><time>2026-04-04T14:32:40.833Z</time></trkpt><trkpt lat="43.233875" lon="12.9183633"><ele>586.0</ele><time>2026-04-04T14:32:41.833Z</time></trkpt><trkpt lat="43.23384" lon="12.918495"><ele>586.0</ele><time>2026-04-04T14:32:42.835Z</time></trkpt><trkpt lat="43.2338217" lon="12.91864"><ele>586.0</ele><time>2026-04-04T14:32:43.835Z</time></trkpt><trkpt lat="43.2338017" lon="12.91878"><ele>586.0</ele><time>2026-04-04T14:32:44.834Z</time></trkpt><trkpt lat="43.233765" lon="12.9189017"><ele>582.8</ele><time>2026-04-04T14:32:45.834Z</time></trkpt><trkpt lat="43.233705" lon="12.919005"><ele>579.6</ele><time>2026-04-04T14:32:46.833Z</time></trkpt><trkpt lat="43.23363" lon="12.9190967"><ele>576.4</ele><time>2026-04-04T14:32:47.833Z</time></trkpt><trkpt lat="43.2335383" lon="12.919165"><ele>573.2</ele><time>2026-04-04T14:32:48.834Z</time></trkpt><trkpt lat="43.2334417" lon="12.9192183"><ele>570.0</ele><time>2026-04-04T14:32:49.834Z</time></trkpt><trkpt lat="43.233345" lon="12.919255"><ele>566.6666666666666</ele><time>2026-04-04T14:32:50.834Z</time></trkpt><trkpt lat="43.2332583" lon="12.9192717"><ele>563.3333333333334</ele><time>2026-04-04T14:32:51.833Z</time></trkpt><trkpt lat="43.23319" lon="12.9192867"><ele>560.0</ele><time>2026-04-04T14:32:52.832Z</time></trkpt><trkpt lat="43.2330733" lon="12.9193017"><ele>556.6666666666667</ele><time>2026-04-04T14:32:54.834Z</time></trkpt><trkpt lat="43.233005" lon="12.919325"><ele>553.3333333333334</ele><time>2026-04-04T14:32:55.834Z</time></trkpt><trkpt lat="43.23294" lon="12.9193533"><ele>550.0</ele><time>2026-04-04T14:32:56.836Z</time></trkpt><trkpt lat="43.23288" lon="12.9193833"><ele>549.5</ele><time>2026-04-04T14:32:57.834Z</time></trkpt><trkpt lat="43.23279" lon="12.9195"><ele>549.0</ele><time>2026-04-04T14:32:59.834Z</time></trkpt><trkpt lat="43.2327683" lon="12.919595"><ele>548.5</ele><time>2026-04-04T14:33:00.834Z</time></trkpt><trkpt lat="43.2327667" lon="12.9197067"><ele>548.0</ele><time>2026-04-04T14:33:01.834Z</time></trkpt><trkpt lat="43.2327667" lon="12.9198117"><ele>547.5</ele><time>2026-04-04T14:33:02.833Z</time></trkpt><trkpt lat="43.2327567" lon="12.9199017"><ele>547.0</ele><time>2026-04-04T14:33:03.834Z</time></trkpt><trkpt lat="43.232685" lon="12.919965"><ele>547.0</ele><time>2026-04-04T14:33:05.833Z</time></trkpt><trkpt lat="43.2326117" lon="12.9199317"><ele>547.0</ele><time>2026-04-04T14:33:06.835Z</time></trkpt><trkpt lat="43.2325317" lon="12.91988"><ele>547.0</ele><time>2026-04-04T14:33:07.833Z</time></trkpt><trkpt lat="43.2324533" lon="12.9198067"><ele>547.0</ele><time>2026-04-04T14:33:08.834Z</time></trkpt><trkpt lat="43.232385" lon="12.91971"><ele>547.0</ele><time>2026-04-04T14:33:09.833Z</time></trkpt><trkpt lat="43.2323133" lon="12.9196133"><ele>547.8000000000001</ele><time>2026-04-04T14:33:10.834Z</time></trkpt><trkpt lat="43.2322267" lon="12.9195383"><ele>548.6</ele><time>2026-04-04T14:33:11.836Z</time></trkpt><trkpt lat="43.2321217" lon="12.919475"><ele>549.4000000000001</ele><time>2026-04-04T14:33:12.833Z</time></trkpt><trkpt lat="43.2320133" lon="12.9194283"><ele>550.2</ele><time>2026-04-04T14:33:13.833Z</time></trkpt><trkpt lat="43.2318967" lon="12.9194183"><ele>551.0</ele><time>2026-04-04T14:33:14.835Z</time></trkpt><trkpt lat="43.2317883" lon="12.9194367"><ele>551.0</ele><time>2026-04-04T14:33:15.834Z</time></trkpt><trkpt lat="43.2316933" lon="12.9194667"><ele>551.0</ele><time>2026-04-04T14:33:16.835Z</time></trkpt><trkpt lat="43.2316083" lon="12.91951"><ele>551.0</ele><time>2026-04-04T14:33:17.833Z</time></trkpt><trkpt lat="43.2315183" lon="12.9195583"><ele>551.0</ele><time>2026-04-04T14:33:18.835Z</time></trkpt><trkpt lat="43.2314267" lon="12.9195933"><ele>551.0</ele><time>2026-04-04T14:33:19.833Z</time></trkpt><trkpt lat="43.231335" lon="12.919605"><ele>551.8333333333333</ele><time>2026-04-04T14:33:20.835Z</time></trkpt><trkpt lat="43.231245" lon="12.9195883"><ele>552.6666666666666</ele><time>2026-04-04T14:33:21.833Z</time></trkpt><trkpt lat="43.2311583" lon="12.9195583"><ele>553.5</ele><time>2026-04-04T14:33:22.835Z</time></trkpt><trkpt lat="43.2310833" lon="12.9195183"><ele>554.3333333333334</ele><time>2026-04-04T14:33:23.834Z</time></trkpt><trkpt lat="43.2310067" lon="12.91949"><ele>555.1666666666667</ele><time>2026-04-04T14:33:24.835Z</time></trkpt><trkpt lat="43.23094" lon="12.9194767"><ele>556.0</ele><time>2026-04-04T14:33:25.836Z</time></trkpt><trkpt lat="43.230835" lon="12.9194983"><ele>556.0</ele><time>2026-04-04T14:33:27.835Z</time></trkpt><trkpt lat="43.2308033" lon="12.9195767"><ele>556.0</ele><time>2026-04-04T14:33:29.836Z</time></trkpt><trkpt lat="43.2308583" lon="12.9196867"><ele>556.0</ele><time>2026-04-04T14:33:31.834Z</time></trkpt><trkpt lat="43.23097" lon="12.9197383"><ele>556.0</ele><time>2026-04-04T14:33:33.834Z</time></trkpt><trkpt lat="43.23105" lon="12.91975"><ele>556.0</ele><time>2026-04-04T14:33:34.834Z</time></trkpt><trkpt lat="43.23114" lon="12.9197683"><ele>556.0</ele><time>2026-04-04T14:33:35.834Z</time></trkpt><trkpt lat="43.2312233" lon="12.9197967"><ele>556.0</ele><time>2026-04-04T14:33:36.834Z</time></trkpt><trkpt lat="43.23132" lon="12.91983"><ele>556.0</ele><time>2026-04-04T14:33:37.834Z</time></trkpt><trkpt lat="43.231425" lon="12.919855"><ele>556.0</ele><time>2026-04-04T14:33:38.835Z</time></trkpt><trkpt lat="43.2315217" lon="12.919875"><ele>556.0</ele><time>2026-04-04T14:33:39.834Z</time></trkpt><trkpt lat="43.2316233" lon="12.919885"><ele>555.1666666666667</ele><time>2026-04-04T14:33:40.835Z</time></trkpt><trkpt lat="43.2317183" lon="12.9198867"><ele>554.3333333333334</ele><time>2026-04-04T14:33:41.836Z</time></trkpt><trkpt lat="43.2318" lon="12.9198733"><ele>553.5</ele><time>2026-04-04T14:33:42.835Z</time></trkpt><trkpt lat="43.231875" lon="12.9198633"><ele>552.6666666666666</ele><time>2026-04-04T14:33:43.834Z</time></trkpt><trkpt lat="43.2319467" lon="12.9198567"><ele>551.8333333333333</ele><time>2026-04-04T14:33:44.835Z</time></trkpt><trkpt lat="43.2320117" lon="12.91986"><ele>551.0</ele><time>2026-04-04T14:33:45.834Z</time></trkpt><trkpt lat="43.232075" lon="12.9198817"><ele>551.0</ele><time>2026-04-04T14:33:46.834Z</time></trkpt><trkpt lat="43.2321417" lon="12.9199383"><ele>551.0</ele><time>2026-04-04T14:33:47.834Z</time></trkpt><trkpt lat="43.2322117" lon="12.9200133"><ele>551.0</ele><time>2026-04-04T14:33:48.835Z</time></trkpt><trkpt lat="43.23228" lon="12.9200933"><ele>551.0</ele><time>2026-04-04T14:33:49.836Z</time></trkpt><trkpt lat="43.23235" lon="12.9201817"><ele>551.0</ele><time>2026-04-04T14:33:50.836Z</time></trkpt><trkpt lat="43.2324183" lon="12.9202717"><ele>551.0</ele><time>2026-04-04T14:33:51.835Z</time></trkpt><trkpt lat="43.232485" lon="12.9203533"><ele>553.8333333333333</ele><time>2026-04-04T14:33:52.835Z</time></trkpt><trkpt lat="43.2325567" lon="12.92042"><ele>556.6666666666666</ele><time>2026-04-04T14:33:53.836Z</time></trkpt><trkpt lat="43.2326317" lon="12.9204667"><ele>559.5</ele><time>2026-04-04T14:33:54.835Z</time></trkpt><trkpt lat="43.2327" lon="12.9205017"><ele>562.3333333333334</ele><time>2026-04-04T14:33:55.835Z</time></trkpt><trkpt lat="43.232775" lon="12.920505"><ele>565.1666666666667</ele><time>2026-04-04T14:33:56.836Z</time></trkpt><trkpt lat="43.23285" lon="12.9205233"><ele>568.0</ele><time>2026-04-04T14:33:57.834Z</time></trkpt><trkpt lat="43.232935" lon="12.9205383"><ele>568.0</ele><time>2026-04-04T14:33:58.833Z</time></trkpt><trkpt lat="43.2330183" lon="12.920565"><ele>568.0</ele><time>2026-04-04T14:33:59.835Z</time></trkpt><trkpt lat="43.2331" lon="12.9205833"><ele>568.0</ele><time>2026-04-04T14:34:00.836Z</time></trkpt><trkpt lat="43.2331783" lon="12.9206017"><ele>568.0</ele><time>2026-04-04T14:34:01.833Z</time></trkpt><trkpt lat="43.2332483" lon="12.9206017"><ele>568.0</ele><time>2026-04-04T14:34:02.836Z</time></trkpt><trkpt lat="43.2333433" lon="12.9205567"><ele>568.0</ele><time>2026-04-04T14:34:04.833Z</time></trkpt><trkpt lat="43.23338" lon="12.9204767"><ele>569.0</ele><time>2026-04-04T14:34:06.834Z</time></trkpt><trkpt lat="43.2334567" lon="12.92049"><ele>570.0</ele><time>2026-04-04T14:34:21.835Z</time></trkpt><trkpt lat="43.2334983" lon="12.9206233"><ele>571.0</ele><time>2026-04-04T14:34:23.833Z</time></trkpt><trkpt lat="43.233525" lon="12.920745"><ele>572.0</ele><time>2026-04-04T14:34:25.832Z</time></trkpt><trkpt lat="43.2334967" lon="12.9208567"><ele>573.0</ele><time>2026-04-04T14:34:27.834Z</time></trkpt><trkpt lat="43.2334533" lon="12.9209817"><ele>573.0</ele><time>2026-04-04T14:34:29.834Z</time></trkpt><trkpt lat="43.2334183" lon="12.9211467"><ele>573.0</ele><time>2026-04-04T14:34:31.835Z</time></trkpt><trkpt lat="43.2334067" lon="12.9212417"><ele>573.0</ele><time>2026-04-04T14:34:32.834Z</time></trkpt><trkpt lat="43.2334017" lon="12.9213333"><ele>573.0</ele><time>2026-04-04T14:34:33.833Z</time></trkpt><trkpt lat="43.23334" lon="12.9213883"><ele>573.0</ele><time>2026-04-04T14:34:36.834Z</time></trkpt><trkpt lat="43.233295" lon="12.92127"><ele>573.0</ele><time>2026-04-04T14:34:38.836Z</time></trkpt><trkpt lat="43.2332667" lon="12.9211317"><ele>573.0</ele><time>2026-04-04T14:34:40.835Z</time></trkpt><trkpt lat="43.2331883" lon="12.921095"><ele>573.0</ele><time>2026-04-04T14:34:43.833Z</time></trkpt><trkpt lat="43.2331467" lon="12.9211917"><ele>573.0</ele><time>2026-04-04T14:34:46.834Z</time></trkpt><trkpt lat="43.2331267" lon="12.921275"><ele>573.0</ele><time>2026-04-04T14:34:48.833Z</time></trkpt><trkpt lat="43.2331267" lon="12.9213817"><ele>573.0</ele><time>2026-04-04T14:34:50.836Z</time></trkpt><trkpt lat="43.2331683" lon="12.9215467"><ele>573.0</ele><time>2026-04-04T14:34:52.836Z</time></trkpt><trkpt lat="43.2332017" lon="12.9216367"><ele>577.6</ele><time>2026-04-04T14:34:53.835Z</time></trkpt><trkpt lat="43.2332367" lon="12.9217483"><ele>582.1999999999999</ele><time>2026-04-04T14:34:54.834Z</time></trkpt><trkpt lat="43.2332717" lon="12.9218667"><ele>586.8</ele><time>2026-04-04T14:34:55.833Z</time></trkpt><trkpt lat="43.233305" lon="12.9219817"><ele>591.4</ele><time>2026-04-04T14:34:56.836Z</time></trkpt><trkpt lat="43.2333367" lon="12.9220983"><ele>596.0</ele><time>2026-04-04T14:34:57.834Z</time></trkpt><trkpt lat="43.2333733" lon="12.9222183"><ele>596.0</ele><time>2026-04-04T14:34:58.834Z</time></trkpt><trkpt lat="43.2334033" lon="12.9223333"><ele>596.0</ele><time>2026-04-04T14:34:59.835Z</time></trkpt><trkpt lat="43.2334467" lon="12.9224583"><ele>596.0</ele><time>2026-04-04T14:35:00.833Z</time></trkpt><trkpt lat="43.2334883" lon="12.9225667"><ele>596.0</ele><time>2026-04-04T14:35:01.834Z</time></trkpt><trkpt lat="43.233545" lon="12.92267"><ele>596.0</ele><time>2026-04-04T14:35:02.837Z</time></trkpt><trkpt lat="43.2336067" lon="12.9227617"><ele>600.6666666666666</ele><time>2026-04-04T14:35:03.835Z</time></trkpt><trkpt lat="43.2336633" lon="12.9228617"><ele>605.3333333333333</ele><time>2026-04-04T14:35:04.835Z</time></trkpt><trkpt lat="43.2337183" lon="12.9229517"><ele>610.0</ele><time>2026-04-04T14:35:05.835Z</time></trkpt><trkpt lat="43.233765" lon="12.9230467"><ele>614.6666666666666</ele><time>2026-04-04T14:35:06.834Z</time></trkpt><trkpt lat="43.2337983" lon="12.9231383"><ele>619.3333333333334</ele><time>2026-04-04T14:35:07.829Z</time></trkpt><trkpt lat="43.2338233" lon="12.9232233"><ele>624.0</ele><time>2026-04-04T14:35:08.836Z</time></trkpt><trkpt lat="43.2338533" lon="12.9233117"><ele>627.3333333333334</ele><time>2026-04-04T14:35:09.835Z</time></trkpt><trkpt lat="43.2338783" lon="12.923405"><ele>630.6666666666666</ele><time>2026-04-04T14:35:10.835Z</time></trkpt><trkpt lat="43.2338983" lon="12.9235233"><ele>634.0</ele><time>2026-04-04T14:35:11.835Z</time></trkpt><trkpt lat="43.2339017" lon="12.9236317"><ele>637.3333333333333</ele><time>2026-04-04T14:35:12.834Z</time></trkpt><trkpt lat="43.233895" lon="12.92374"><ele>640.6666666666666</ele><time>2026-04-04T14:35:13.834Z</time></trkpt><trkpt lat="43.2338817" lon="12.9238683"><ele>644.0</ele><time>2026-04-04T14:35:14.834Z</time></trkpt><trkpt lat="43.2338817" lon="12.9239883"><ele>644.0</ele><time>2026-04-04T14:35:15.835Z</time></trkpt><trkpt lat="43.2338867" lon="12.92409"><ele>644.0</ele><time>2026-04-04T14:35:16.835Z</time></trkpt><trkpt lat="43.2338967" lon="12.9241833"><ele>644.0</ele><time>2026-04-04T14:35:17.835Z</time></trkpt><trkpt lat="43.233925" lon="12.92428"><ele>644.0</ele><time>2026-04-04T14:35:18.834Z</time></trkpt><trkpt lat="43.23396" lon="12.92438"><ele>644.0</ele><time>2026-04-04T14:35:19.834Z</time></trkpt><trkpt lat="43.2339983" lon="12.924475"><ele>644.0</ele><time>2026-04-04T14:35:20.835Z</time></trkpt><trkpt lat="43.2340383" lon="12.9245567"><ele>643.0</ele><time>2026-04-04T14:35:21.835Z</time></trkpt><trkpt lat="43.234065" lon="12.9246367"><ele>642.0</ele><time>2026-04-04T14:35:22.833Z</time></trkpt><trkpt lat="43.23409" lon="12.9247167"><ele>641.0</ele><time>2026-04-04T14:35:23.835Z</time></trkpt><trkpt lat="43.2341267" lon="12.92488"><ele>640.0</ele><time>2026-04-04T14:35:25.834Z</time></trkpt><trkpt lat="43.23414" lon="12.92497"><ele>639.0</ele><time>2026-04-04T14:35:26.836Z</time></trkpt><trkpt lat="43.2341433" lon="12.925125"><ele>638.0</ele><time>2026-04-04T14:35:28.834Z</time></trkpt><trkpt lat="43.2341617" lon="12.92522"><ele>638.0</ele><time>2026-04-04T14:35:29.834Z</time></trkpt><trkpt lat="43.2341883" lon="12.9253083"><ele>638.0</ele><time>2026-04-04T14:35:30.834Z</time></trkpt><trkpt lat="43.2342217" lon="12.9253933"><ele>638.0</ele><time>2026-04-04T14:35:31.835Z</time></trkpt><trkpt lat="43.2342617" lon="12.9254717"><ele>638.0</ele><time>2026-04-04T14:35:32.836Z</time></trkpt><trkpt lat="43.2342967" lon="12.9255467"><ele>638.0</ele><time>2026-04-04T14:35:33.836Z</time></trkpt><trkpt lat="43.2343667" lon="12.92568"><ele>638.0</ele><time>2026-04-04T14:35:35.836Z</time></trkpt><trkpt lat="43.2344233" lon="12.9257667"><ele>641.0</ele><time>2026-04-04T14:35:37.834Z</time></trkpt><trkpt lat="43.2344583" lon="12.9258967"><ele>644.0</ele><time>2026-04-04T14:35:39.834Z</time></trkpt><trkpt lat="43.2344767" lon="12.92598"><ele>647.0</ele><time>2026-04-04T14:35:40.834Z</time></trkpt><trkpt lat="43.234505" lon="12.9261233"><ele>650.0</ele><time>2026-04-04T14:35:42.834Z</time></trkpt><trkpt lat="43.2345033" lon="12.9262833"><ele>653.0</ele><time>2026-04-04T14:35:44.835Z</time></trkpt><trkpt lat="43.23446" lon="12.9264083"><ele>653.0</ele><time>2026-04-04T14:35:46.833Z</time></trkpt><trkpt lat="43.2343967" lon="12.9265633"><ele>653.0</ele><time>2026-04-04T14:35:48.837Z</time></trkpt><trkpt lat="43.2343267" lon="12.9266967"><ele>653.0</ele><time>2026-04-04T14:35:50.835Z</time></trkpt><trkpt lat="43.234295" lon="12.9268233"><ele>653.0</ele><time>2026-04-04T14:35:52.833Z</time></trkpt><trkpt lat="43.234325" lon="12.9269417"><ele>653.0</ele><time>2026-04-04T14:35:54.835Z</time></trkpt><trkpt lat="43.2343933" lon="12.927015"><ele>651.0</ele><time>2026-04-04T14:35:56.834Z</time></trkpt><trkpt lat="43.234475" lon="12.9270533"><ele>649.0</ele><time>2026-04-04T14:35:58.834Z</time></trkpt><trkpt lat="43.234535" lon="12.927085"><ele>647.0</ele><time>2026-04-04T14:35:59.833Z</time></trkpt><trkpt lat="43.2346383" lon="12.9271483"><ele>645.0</ele><time>2026-04-04T14:36:01.834Z</time></trkpt><trkpt lat="43.2347467" lon="12.9272217"><ele>643.0</ele><time>2026-04-04T14:36:03.834Z</time></trkpt><trkpt lat="43.2348167" lon="12.9272883"><ele>643.0</ele><time>2026-04-04T14:36:05.831Z</time></trkpt><trkpt lat="43.234875" lon="12.9273517"><ele>643.0</ele><time>2026-04-04T14:36:07.829Z</time></trkpt><trkpt lat="43.23497" lon="12.9274583"><ele>643.0</ele><time>2026-04-04T14:36:09.834Z</time></trkpt><trkpt lat="43.2350233" lon="12.927575"><ele>643.0</ele><time>2026-04-04T14:36:11.834Z</time></trkpt><trkpt lat="43.23505" lon="12.927685"><ele>643.0</ele><time>2026-04-04T14:36:13.833Z</time></trkpt><trkpt lat="43.23509" lon="12.9278417"><ele>647.5999999999999</ele><time>2026-04-04T14:36:15.833Z</time></trkpt><trkpt lat="43.2351333" lon="12.9279767"><ele>652.1999999999999</ele><time>2026-04-04T14:36:17.835Z</time></trkpt><trkpt lat="43.23518" lon="12.92806"><ele>656.8</ele><time>2026-04-04T14:36:18.835Z</time></trkpt><trkpt lat="43.2352683" lon="12.9281617"><ele>661.4</ele><time>2026-04-04T14:36:20.835Z</time></trkpt><trkpt lat="43.235365" lon="12.9282533"><ele>666.0</ele><time>2026-04-04T14:36:22.831Z</time></trkpt><trkpt lat="43.2354083" lon="12.9283233"><ele>666.0</ele><time>2026-04-04T14:36:23.833Z</time></trkpt><trkpt lat="43.235445" lon="12.92841"><ele>666.0</ele><time>2026-04-04T14:36:24.834Z</time></trkpt><trkpt lat="43.2354883" lon="12.9285017"><ele>666.0</ele><time>2026-04-04T14:36:25.834Z</time></trkpt><trkpt lat="43.2355267" lon="12.9285917"><ele>666.0</ele><time>2026-04-04T14:36:26.831Z</time></trkpt><trkpt lat="43.235555" lon="12.928675"><ele>666.0</ele><time>2026-04-04T14:36:27.833Z</time></trkpt><trkpt lat="43.2355883" lon="12.9287517"><ele>666.0</ele><time>2026-04-04T14:36:28.835Z</time></trkpt><trkpt lat="43.2356333" lon="12.928815"><ele>666.0</ele><time>2026-04-04T14:36:29.836Z</time></trkpt><trkpt lat="43.23572" lon="12.9288933"><ele>666.0</ele><time>2026-04-04T14:36:31.835Z</time></trkpt><trkpt lat="43.23579" lon="12.9289433"><ele>666.0</ele><time>2026-04-04T14:36:33.837Z</time></trkpt><trkpt lat="43.2358517" lon="12.9290083"><ele>666.0</ele><time>2026-04-04T14:36:35.834Z</time></trkpt><trkpt lat="43.235915" lon="12.92912"><ele>666.0</ele><time>2026-04-04T14:36:37.833Z</time></trkpt><trkpt lat="43.2359567" lon="12.9291867"><ele>666.0</ele><time>2026-04-04T14:36:38.837Z</time></trkpt><trkpt lat="43.2360367" lon="12.9293167"><ele>666.0</ele><time>2026-04-04T14:36:40.833Z</time></trkpt><trkpt lat="43.236085" lon="12.9293767"><ele>673.1999999999999</ele><time>2026-04-04T14:36:41.834Z</time></trkpt><trkpt lat="43.236165" lon="12.9295"><ele>680.4</ele><time>2026-04-04T14:36:43.835Z</time></trkpt><trkpt lat="43.2362083" lon="12.9295717"><ele>687.6</ele><time>2026-04-04T14:36:44.835Z</time></trkpt><trkpt lat="43.23626" lon="12.9297083"><ele>694.8</ele><time>2026-04-04T14:36:46.834Z</time></trkpt><trkpt lat="43.236305" lon="12.9298233"><ele>702.0</ele><time>2026-04-04T14:36:48.834Z</time></trkpt><trkpt lat="43.23635" lon="12.929935"><ele>702.0</ele><time>2026-04-04T14:36:50.836Z</time></trkpt><trkpt lat="43.23641" lon="12.93004"><ele>702.0</ele><time>2026-04-04T14:36:52.834Z</time></trkpt><trkpt lat="43.23646" lon="12.9301183"><ele>702.0</ele><time>2026-04-04T14:36:55.835Z</time></trkpt><trkpt lat="43.2364883" lon="12.9302083"><ele>702.0</ele><time>2026-04-04T14:36:58.834Z</time></trkpt><trkpt lat="43.2364883" lon="12.9303433"><ele>702.0</ele><time>2026-04-04T14:37:01.833Z</time></trkpt><trkpt lat="43.2364933" lon="12.9304683"><ele>702.0</ele><time>2026-04-04T14:37:03.833Z</time></trkpt><trkpt lat="43.2365267" lon="12.93061"><ele>701.5</ele><time>2026-04-04T14:37:05.834Z</time></trkpt><trkpt lat="43.2365517" lon="12.9307133"><ele>701.0</ele><time>2026-04-04T14:37:06.833Z</time></trkpt><trkpt lat="43.2365933" lon="12.9308167"><ele>700.5</ele><time>2026-04-04T14:37:07.833Z</time></trkpt><trkpt lat="43.2366083" lon="12.9309117"><ele>700.0</ele><time>2026-04-04T14:37:08.836Z</time></trkpt><trkpt lat="43.2366067" lon="12.9310033"><ele>699.5</ele><time>2026-04-04T14:37:09.834Z</time></trkpt><trkpt lat="43.2366033" lon="12.9311667"><ele>699.0</ele><time>2026-04-04T14:37:11.835Z</time></trkpt><trkpt lat="43.2366133" lon="12.9312583"><ele>704.0</ele><time>2026-04-04T14:37:12.835Z</time></trkpt><trkpt lat="43.236625" lon="12.9313633"><ele>709.0</ele><time>2026-04-04T14:37:13.836Z</time></trkpt><trkpt lat="43.2366433" lon="12.93146"><ele>714.0</ele><time>2026-04-04T14:37:14.834Z</time></trkpt><trkpt lat="43.2366783" lon="12.9315783"><ele>719.0</ele><time>2026-04-04T14:37:16.833Z</time></trkpt><trkpt lat="43.2366917" lon="12.9316833"><ele>724.0</ele><time>2026-04-04T14:37:18.834Z</time></trkpt><trkpt lat="43.2366983" lon="12.9317767"><ele>729.0</ele><time>2026-04-04T14:37:20.835Z</time></trkpt><trkpt lat="43.2366633" lon="12.9318883"><ele>734.4000000000001</ele><time>2026-04-04T14:37:22.835Z</time></trkpt><trkpt lat="43.2366283" lon="12.9320333"><ele>739.8</ele><time>2026-04-04T14:37:24.833Z</time></trkpt><trkpt lat="43.2366583" lon="12.9321117"><ele>745.2</ele><time>2026-04-04T14:37:27.833Z</time></trkpt><trkpt lat="43.23678" lon="12.93217"><ele>750.5999999999999</ele><time>2026-04-04T14:38:21.832Z</time></trkpt><trkpt lat="43.2368667" lon="12.9321383"><ele>756.0</ele><time>2026-04-04T14:40:33.832Z</time></trkpt><trkpt lat="43.2369317" lon="12.932065"><ele>756.0</ele><time>2026-04-04T14:40:35.833Z</time></trkpt><trkpt lat="43.2370267" lon="12.9319767"><ele>756.0</ele><time>2026-04-04T14:40:37.833Z</time></trkpt><trkpt lat="43.2370883" lon="12.9319367"><ele>756.0</ele><time>2026-04-04T14:40:38.834Z</time></trkpt><trkpt lat="43.237165" lon="12.9319117"><ele>756.0</ele><time>2026-04-04T14:40:39.832Z</time></trkpt><trkpt lat="43.2372467" lon="12.9318867"><ele>756.0</ele><time>2026-04-04T14:40:40.833Z</time></trkpt><trkpt lat="43.23732" lon="12.9318917"><ele>756.0</ele><time>2026-04-04T14:40:41.834Z</time></trkpt><trkpt lat="43.2373917" lon="12.931905"><ele>755.6666666666666</ele><time>2026-04-04T14:40:42.834Z</time></trkpt><trkpt lat="43.2374667" lon="12.9319267"><ele>755.3333333333334</ele><time>2026-04-04T14:40:43.835Z</time></trkpt><trkpt lat="43.237535" lon="12.9319667"><ele>755.0</ele><time>2026-04-04T14:40:44.834Z</time></trkpt><trkpt lat="43.2376017" lon="12.9320067"><ele>754.6666666666667</ele><time>2026-04-04T14:40:45.833Z</time></trkpt><trkpt lat="43.2376617" lon="12.9320567"><ele>754.3333333333334</ele><time>2026-04-04T14:40:46.833Z</time></trkpt><trkpt lat="43.2377217" lon="12.9321167"><ele>754.0</ele><time>2026-04-04T14:40:47.833Z</time></trkpt><trkpt lat="43.2377933" lon="12.93219"><ele>754.0</ele><time>2026-04-04T14:40:48.835Z</time></trkpt><trkpt lat="43.2378633" lon="12.932275"><ele>754.0</ele><time>2026-04-04T14:40:49.833Z</time></trkpt><trkpt lat="43.2379267" lon="12.9323667"><ele>754.0</ele><time>2026-04-04T14:40:50.837Z</time></trkpt><trkpt lat="43.2380017" lon="12.9324567"><ele>754.0</ele><time>2026-04-04T14:40:51.831Z</time></trkpt><trkpt lat="43.2380767" lon="12.9325467"><ele>754.0</ele><time>2026-04-04T14:40:52.833Z</time></trkpt><trkpt lat="43.238155" lon="12.9326417"><ele>755.6</ele><time>2026-04-04T14:40:53.832Z</time></trkpt><trkpt lat="43.238235" lon="12.9327417"><ele>757.2</ele><time>2026-04-04T14:40:54.834Z</time></trkpt><trkpt lat="43.2383167" lon="12.9328433"><ele>758.8000000000001</ele><time>2026-04-04T14:40:55.837Z</time></trkpt><trkpt lat="43.2383933" lon="12.9329517"><ele>760.4000000000001</ele><time>2026-04-04T14:40:56.837Z</time></trkpt><trkpt lat="43.2384717" lon="12.933055"><ele>762.0</ele><time>2026-04-04T14:40:57.834Z</time></trkpt><trkpt lat="43.2385483" lon="12.9331567"><ele>762.0</ele><time>2026-04-04T14:40:58.834Z</time></trkpt><trkpt lat="43.23862" lon="12.9332583"><ele>762.0</ele><time>2026-04-04T14:40:59.834Z</time></trkpt><trkpt lat="43.2386983" lon="12.933355"><ele>762.0</ele><time>2026-04-04T14:41:00.834Z</time></trkpt><trkpt lat="43.2387783" lon="12.93345"><ele>762.0</ele><time>2026-04-04T14:41:01.834Z</time></trkpt><trkpt lat="43.2388583" lon="12.9335467"><ele>762.0</ele><time>2026-04-04T14:41:02.835Z</time></trkpt><trkpt lat="43.2389333" lon="12.93365"><ele>762.0</ele><time>2026-04-04T14:41:03.834Z</time></trkpt><trkpt lat="43.2390017" lon="12.9337517"><ele>762.0</ele><time>2026-04-04T14:41:04.835Z</time></trkpt><trkpt lat="43.2390717" lon="12.9338433"><ele>762.0</ele><time>2026-04-04T14:41:05.834Z</time></trkpt><trkpt lat="43.23913" lon="12.93393"><ele>762.0</ele><time>2026-04-04T14:41:06.834Z</time></trkpt><trkpt lat="43.239185" lon="12.9340083"><ele>762.0</ele><time>2026-04-04T14:41:07.835Z</time></trkpt><trkpt lat="43.2392483" lon="12.934075"><ele>762.0</ele><time>2026-04-04T14:41:08.834Z</time></trkpt><trkpt lat="43.239315" lon="12.9341367"><ele>762.0</ele><time>2026-04-04T14:41:09.834Z</time></trkpt><trkpt lat="43.2393817" lon="12.934195"><ele>762.0</ele><time>2026-04-04T14:41:10.833Z</time></trkpt><trkpt lat="43.23945" lon="12.934255"><ele>762.0</ele><time>2026-04-04T14:41:11.834Z</time></trkpt><trkpt lat="43.2395183" lon="12.9343183"><ele>762.0</ele><time>2026-04-04T14:41:12.834Z</time></trkpt><trkpt lat="43.2395833" lon="12.9343783"><ele>762.0</ele><time>2026-04-04T14:41:13.835Z</time></trkpt><trkpt lat="43.2396383" lon="12.9344383"><ele>762.0</ele><time>2026-04-04T14:41:14.836Z</time></trkpt><trkpt lat="43.2396867" lon="12.934495"><ele>762.1428571428571</ele><time>2026-04-04T14:41:15.834Z</time></trkpt><trkpt lat="43.23974" lon="12.9345583"><ele>762.2857142857143</ele><time>2026-04-04T14:41:16.834Z</time></trkpt><trkpt lat="43.2397917" lon="12.9346267"><ele>762.4285714285714</ele><time>2026-04-04T14:41:17.835Z</time></trkpt><trkpt lat="43.2398417" lon="12.9346883"><ele>762.5714285714286</ele><time>2026-04-04T14:41:18.835Z</time></trkpt><trkpt lat="43.2398967" lon="12.9347483"><ele>762.7142857142858</ele><time>2026-04-04T14:41:19.834Z</time></trkpt><trkpt lat="43.2399633" lon="12.9348067"><ele>762.8571428571429</ele><time>2026-04-04T14:41:20.835Z</time></trkpt><trkpt lat="43.2400367" lon="12.9348533"><ele>763.0</ele><time>2026-04-04T14:41:21.835Z</time></trkpt><trkpt lat="43.2401083" lon="12.9349067"><ele>763.0</ele><time>2026-04-04T14:41:22.833Z</time></trkpt><trkpt lat="43.2401933" lon="12.934955"><ele>763.0</ele><time>2026-04-04T14:41:23.834Z</time></trkpt><trkpt lat="43.2402767" lon="12.9350033"><ele>763.0</ele><time>2026-04-04T14:41:24.833Z</time></trkpt><trkpt lat="43.240355" lon="12.935065"><ele>763.0</ele><time>2026-04-04T14:41:25.834Z</time></trkpt><trkpt lat="43.2404383" lon="12.9351217"><ele>763.0</ele><time>2026-04-04T14:41:26.839Z</time></trkpt><trkpt lat="43.24052" lon="12.93518"><ele>762.5999999999999</ele><time>2026-04-04T14:41:27.833Z</time></trkpt><trkpt lat="43.2406067" lon="12.935235"><ele>762.1999999999999</ele><time>2026-04-04T14:41:28.833Z</time></trkpt><trkpt lat="43.2406917" lon="12.9352867"><ele>761.8</ele><time>2026-04-04T14:41:29.833Z</time></trkpt><trkpt lat="43.24078" lon="12.9353433"><ele>761.4</ele><time>2026-04-04T14:41:30.833Z</time></trkpt><trkpt lat="43.2408633" lon="12.9353967"><ele>761.0</ele><time>2026-04-04T14:41:31.833Z</time></trkpt><trkpt lat="43.24094" lon="12.935455"><ele>760.9999999999999</ele><time>2026-04-04T14:41:32.836Z</time></trkpt><trkpt lat="43.24101" lon="12.935515"><ele>761.0</ele><time>2026-04-04T14:41:33.834Z</time></trkpt><trkpt lat="43.24107" lon="12.9355667"><ele>761.0</ele><time>2026-04-04T14:41:34.834Z</time></trkpt><trkpt lat="43.2411367" lon="12.9356167"><ele>761.0</ele><time>2026-04-04T14:41:35.836Z</time></trkpt><trkpt lat="43.2412033" lon="12.93566"><ele>761.0</ele><time>2026-04-04T14:41:36.834Z</time></trkpt><trkpt lat="43.2412717" lon="12.9356967"><ele>760.9999999999999</ele><time>2026-04-04T14:41:37.836Z</time></trkpt><trkpt lat="43.2413267" lon="12.9357433"><ele>761.0</ele><time>2026-04-04T14:41:38.834Z</time></trkpt><trkpt lat="43.2413817" lon="12.935795"><ele>760.9999999999999</ele><time>2026-04-04T14:41:39.834Z</time></trkpt><trkpt lat="43.2414333" lon="12.935845"><ele>761.0</ele><time>2026-04-04T14:41:40.834Z</time></trkpt><trkpt lat="43.2414883" lon="12.935895"><ele>761.0</ele><time>2026-04-04T14:41:41.834Z</time></trkpt><trkpt lat="43.241545" lon="12.9359383"><ele>761.0</ele><time>2026-04-04T14:41:42.834Z</time></trkpt><trkpt lat="43.241615" lon="12.9359933"><ele>761.0</ele><time>2026-04-04T14:41:43.834Z</time></trkpt><trkpt lat="43.2416867" lon="12.9360517"><ele>760.9999999999999</ele><time>2026-04-04T14:41:44.834Z</time></trkpt><trkpt lat="43.241765" lon="12.93611"><ele>761.0</ele><time>2026-04-04T14:41:45.831Z</time></trkpt><trkpt lat="43.2418367" lon="12.9361867"><ele>760.5</ele><time>2026-04-04T14:41:46.835Z</time></trkpt><trkpt lat="43.2419067" lon="12.9362633"><ele>760.0</ele><time>2026-04-04T14:41:47.832Z</time></trkpt><trkpt lat="43.24197" lon="12.9363283"><ele>759.5</ele><time>2026-04-04T14:41:48.832Z</time></trkpt><trkpt lat="43.2420317" lon="12.9363833"><ele>759.0</ele><time>2026-04-04T14:41:49.834Z</time></trkpt><trkpt lat="43.2420917" lon="12.9364533"><ele>758.5</ele><time>2026-04-04T14:41:50.833Z</time></trkpt><trkpt lat="43.2421383" lon="12.93653"><ele>758.0</ele><time>2026-04-04T14:41:51.834Z</time></trkpt><trkpt lat="43.2421933" lon="12.9366067"><ele>758.0</ele><time>2026-04-04T14:41:52.83Z</time></trkpt><trkpt lat="43.242245" lon="12.93668"><ele>758.0</ele><time>2026-04-04T14:41:53.831Z</time></trkpt><trkpt lat="43.2422967" lon="12.9367517"><ele>758.0</ele><time>2026-04-04T14:41:54.828Z</time></trkpt><trkpt lat="43.2423383" lon="12.9368233"><ele>758.0</ele><time>2026-04-04T14:41:55.832Z</time></trkpt><trkpt lat="43.2423717" lon="12.93691"><ele>758.0</ele><time>2026-04-04T14:41:56.835Z</time></trkpt><trkpt lat="43.2424233" lon="12.937055"><ele>758.0</ele><time>2026-04-04T14:41:58.834Z</time></trkpt><trkpt lat="43.242495" lon="12.9371783"><ele>754.2</ele><time>2026-04-04T14:42:00.835Z</time></trkpt><trkpt lat="43.242535" lon="12.9373517"><ele>750.4</ele><time>2026-04-04T14:42:02.835Z</time></trkpt><trkpt lat="43.242565" lon="12.9374483"><ele>746.6</ele><time>2026-04-04T14:42:03.836Z</time></trkpt><trkpt lat="43.242605" lon="12.937545"><ele>742.8000000000001</ele><time>2026-04-04T14:42:04.835Z</time></trkpt><trkpt lat="43.242655" lon="12.9376617"><ele>739.0</ele><time>2026-04-04T14:42:05.835Z</time></trkpt><trkpt lat="43.242705" lon="12.9377517"><ele>739.0</ele><time>2026-04-04T14:42:06.833Z</time></trkpt><trkpt lat="43.2427467" lon="12.9378267"><ele>739.0</ele><time>2026-04-04T14:42:07.836Z</time></trkpt><trkpt lat="43.242785" lon="12.9379133"><ele>739.0</ele><time>2026-04-04T14:42:08.836Z</time></trkpt><trkpt lat="43.2428117" lon="12.9379983"><ele>739.0</ele><time>2026-04-04T14:42:09.834Z</time></trkpt><trkpt lat="43.2428133" lon="12.9381"><ele>739.0</ele><time>2026-04-04T14:42:10.834Z</time></trkpt><trkpt lat="43.242785" lon="12.9382067"><ele>739.0</ele><time>2026-04-04T14:42:11.834Z</time></trkpt><trkpt lat="43.2427683" lon="12.93833"><ele>734.8333333333334</ele><time>2026-04-04T14:42:12.835Z</time></trkpt><trkpt lat="43.2427467" lon="12.9384567"><ele>730.6666666666667</ele><time>2026-04-04T14:42:13.835Z</time></trkpt><trkpt lat="43.24272" lon="12.938565"><ele>726.5</ele><time>2026-04-04T14:42:14.835Z</time></trkpt><trkpt lat="43.24269" lon="12.93866"><ele>722.3333333333334</ele><time>2026-04-04T14:42:15.835Z</time></trkpt><trkpt lat="43.24268" lon="12.938755"><ele>718.1666666666666</ele><time>2026-04-04T14:42:16.834Z</time></trkpt><trkpt lat="43.2426983" lon="12.938845"><ele>714.0</ele><time>2026-04-04T14:42:17.834Z</time></trkpt><trkpt lat="43.2426883" lon="12.9389967"><ele>714.0</ele><time>2026-04-04T14:42:19.835Z</time></trkpt><trkpt lat="43.2426267" lon="12.939085"><ele>714.0</ele><time>2026-04-04T14:42:21.833Z</time></trkpt><trkpt lat="43.2425367" lon="12.93918"><ele>714.0</ele><time>2026-04-04T14:42:23.834Z</time></trkpt><trkpt lat="43.242465" lon="12.9392067"><ele>714.0</ele><time>2026-04-04T14:42:24.835Z</time></trkpt><trkpt lat="43.24238" lon="12.9392067"><ele>714.0</ele><time>2026-04-04T14:42:25.835Z</time></trkpt><trkpt lat="43.24229" lon="12.9392367"><ele>711.2</ele><time>2026-04-04T14:42:26.834Z</time></trkpt><trkpt lat="43.2422167" lon="12.9392817"><ele>708.4000000000001</ele><time>2026-04-04T14:42:27.835Z</time></trkpt><trkpt lat="43.2421383" lon="12.93934"><ele>705.6</ele><time>2026-04-04T14:42:28.834Z</time></trkpt><trkpt lat="43.242055" lon="12.9394017"><ele>702.8</ele><time>2026-04-04T14:42:29.836Z</time></trkpt><trkpt lat="43.2419583" lon="12.9394633"><ele>700.0</ele><time>2026-04-04T14:42:30.833Z</time></trkpt><trkpt lat="43.2418517" lon="12.9395383"><ele>700.0</ele><time>2026-04-04T14:42:31.834Z</time></trkpt><trkpt lat="43.24174" lon="12.9396217"><ele>700.0</ele><time>2026-04-04T14:42:32.835Z</time></trkpt><trkpt lat="43.2416233" lon="12.93971"><ele>700.0</ele><time>2026-04-04T14:42:33.834Z</time></trkpt><trkpt lat="43.2415017" lon="12.9397967"><ele>700.0</ele><time>2026-04-04T14:42:34.834Z</time></trkpt><trkpt lat="43.24139" lon="12.9398817"><ele>702.0</ele><time>2026-04-04T14:42:35.831Z</time></trkpt><trkpt lat="43.24128" lon="12.9399583"><ele>704.0</ele><time>2026-04-04T14:42:36.834Z</time></trkpt><trkpt lat="43.2411717" lon="12.94003"><ele>706.0</ele><time>2026-04-04T14:42:37.835Z</time></trkpt><trkpt lat="43.2410683" lon="12.9400733"><ele>708.0</ele><time>2026-04-04T14:42:38.834Z</time></trkpt><trkpt lat="43.2409683" lon="12.9401033"><ele>704.8</ele><time>2026-04-04T14:42:39.834Z</time></trkpt><trkpt lat="43.2408717" lon="12.9401533"><ele>701.5999999999999</ele><time>2026-04-04T14:42:40.835Z</time></trkpt><trkpt lat="43.24078" lon="12.9402283"><ele>698.4000000000001</ele><time>2026-04-04T14:42:41.834Z</time></trkpt><trkpt lat="43.2406917" lon="12.9402983"><ele>695.2</ele><time>2026-04-04T14:42:42.836Z</time></trkpt><trkpt lat="43.2405983" lon="12.9403683"><ele>692.0</ele><time>2026-04-04T14:42:43.833Z</time></trkpt><trkpt lat="43.2404983" lon="12.94043"><ele>692.0</ele><time>2026-04-04T14:42:44.834Z</time></trkpt><trkpt lat="43.2403933" lon="12.9404783"><ele>692.0</ele><time>2026-04-04T14:42:45.835Z</time></trkpt><trkpt lat="43.2402867" lon="12.9405283"><ele>692.0</ele><time>2026-04-04T14:42:46.834Z</time></trkpt><trkpt lat="43.2401917" lon="12.940585"><ele>692.0</ele><time>2026-04-04T14:42:47.838Z</time></trkpt><trkpt lat="43.2400917" lon="12.9406233"><ele>692.0</ele><time>2026-04-04T14:42:48.833Z</time></trkpt><trkpt lat="43.2399967" lon="12.9406617"><ele>692.0</ele><time>2026-04-04T14:42:49.834Z</time></trkpt><trkpt lat="43.2398967" lon="12.9407"><ele>692.0</ele><time>2026-04-04T14:42:50.839Z</time></trkpt><trkpt lat="43.2398017" lon="12.9407683"><ele>692.0</ele><time>2026-04-04T14:42:51.834Z</time></trkpt><trkpt lat="43.2397117" lon="12.9408583"><ele>692.0</ele><time>2026-04-04T14:42:52.834Z</time></trkpt><trkpt lat="43.2396267" lon="12.94095"><ele>692.0</ele><time>2026-04-04T14:42:53.834Z</time></trkpt><trkpt lat="43.23954" lon="12.9410433"><ele>690.4000000000001</ele><time>2026-04-04T14:42:54.836Z</time></trkpt><trkpt lat="43.2394617" lon="12.9411467"><ele>688.8000000000001</ele><time>2026-04-04T14:42:55.835Z</time></trkpt><trkpt lat="43.239385" lon="12.9412567"><ele>687.2</ele><time>2026-04-04T14:42:56.836Z</time></trkpt><trkpt lat="43.2393133" lon="12.941365"><ele>685.6</ele><time>2026-04-04T14:42:57.834Z</time></trkpt><trkpt lat="43.239245" lon="12.9414717"><ele>684.0</ele><time>2026-04-04T14:42:58.832Z</time></trkpt><trkpt lat="43.2391817" lon="12.9415717"><ele>684.0</ele><time>2026-04-04T14:42:59.835Z</time></trkpt><trkpt lat="43.239125" lon="12.941675"><ele>684.0</ele><time>2026-04-04T14:43:00.834Z</time></trkpt><trkpt lat="43.2390783" lon="12.9417833"><ele>684.0</ele><time>2026-04-04T14:43:01.834Z</time></trkpt><trkpt lat="43.2390433" lon="12.941905"><ele>684.0</ele><time>2026-04-04T14:43:02.837Z</time></trkpt><trkpt lat="43.2390167" lon="12.94203"><ele>684.0</ele><time>2026-04-04T14:43:03.834Z</time></trkpt><trkpt lat="43.2389983" lon="12.942145"><ele>686.5</ele><time>2026-04-04T14:43:04.834Z</time></trkpt><trkpt lat="43.2389817" lon="12.9422333"><ele>689.0</ele><time>2026-04-04T14:43:05.836Z</time></trkpt><trkpt lat="43.2389217" lon="12.94236"><ele>691.5</ele><time>2026-04-04T14:43:07.834Z</time></trkpt><trkpt lat="43.2388417" lon="12.94248"><ele>694.0</ele><time>2026-04-04T14:43:09.833Z</time></trkpt><trkpt lat="43.2388033" lon="12.942555"><ele>696.5</ele><time>2026-04-04T14:43:10.835Z</time></trkpt><trkpt lat="43.2387717" lon="12.9426433"><ele>699.0</ele><time>2026-04-04T14:43:11.836Z</time></trkpt><trkpt lat="43.2387533" lon="12.9427517"><ele>699.0</ele><time>2026-04-04T14:43:12.834Z</time></trkpt><trkpt lat="43.23874" lon="12.9428683"><ele>699.0</ele><time>2026-04-04T14:43:13.835Z</time></trkpt><trkpt lat="43.2387267" lon="12.94299"><ele>699.0</ele><time>2026-04-04T14:43:14.836Z</time></trkpt><trkpt lat="43.23872" lon="12.9431133"><ele>699.0</ele><time>2026-04-04T14:43:15.835Z</time></trkpt><trkpt lat="43.2387183" lon="12.9432383"><ele>699.0</ele><time>2026-04-04T14:43:16.834Z</time></trkpt><trkpt lat="43.2387117" lon="12.9433583"><ele>699.0</ele><time>2026-04-04T14:43:17.836Z</time></trkpt><trkpt lat="43.2387083" lon="12.9434883"><ele>700.2</ele><time>2026-04-04T14:43:18.835Z</time></trkpt><trkpt lat="43.2387017" lon="12.9436267"><ele>701.4000000000001</ele><time>2026-04-04T14:43:19.835Z</time></trkpt><trkpt lat="43.2387" lon="12.9437717"><ele>702.6</ele><time>2026-04-04T14:43:20.835Z</time></trkpt><trkpt lat="43.238705" lon="12.943925"><ele>703.8</ele><time>2026-04-04T14:43:21.836Z</time></trkpt><trkpt lat="43.2387117" lon="12.9440833"><ele>705.0</ele><time>2026-04-04T14:43:22.834Z</time></trkpt><trkpt lat="43.2387067" lon="12.9442183"><ele>705.3333333333334</ele><time>2026-04-04T14:43:23.835Z</time></trkpt><trkpt lat="43.2387033" lon="12.9443117"><ele>705.6666666666666</ele><time>2026-04-04T14:43:24.834Z</time></trkpt><trkpt lat="43.23872" lon="12.9444467"><ele>706.0</ele><time>2026-04-04T14:43:26.836Z</time></trkpt><trkpt lat="43.23875" lon="12.9445933"><ele>706.3333333333333</ele><time>2026-04-04T14:43:28.835Z</time></trkpt><trkpt lat="43.2387633" lon="12.9446917"><ele>706.6666666666666</ele><time>2026-04-04T14:43:29.833Z</time></trkpt><trkpt lat="43.2387867" lon="12.9447967"><ele>707.0</ele><time>2026-04-04T14:43:30.834Z</time></trkpt><trkpt lat="43.2388133" lon="12.9449"><ele>707.0</ele><time>2026-04-04T14:43:31.834Z</time></trkpt><trkpt lat="43.2388367" lon="12.94501"><ele>707.0</ele><time>2026-04-04T14:43:32.835Z</time></trkpt><trkpt lat="43.2388567" lon="12.945125"><ele>707.0</ele><time>2026-04-04T14:43:33.834Z</time></trkpt><trkpt lat="43.2388817" lon="12.9452417"><ele>707.0</ele><time>2026-04-04T14:43:34.835Z</time></trkpt><trkpt lat="43.2389133" lon="12.94537"><ele>707.0</ele><time>2026-04-04T14:43:35.834Z</time></trkpt><trkpt lat="43.2389417" lon="12.9455033"><ele>696.4000000000001</ele><time>2026-04-04T14:43:36.835Z</time></trkpt><trkpt lat="43.23897" lon="12.9456383"><ele>685.8000000000001</ele><time>2026-04-04T14:43:37.834Z</time></trkpt><trkpt lat="43.2389933" lon="12.9457817"><ele>675.2</ele><time>2026-04-04T14:43:38.836Z</time></trkpt><trkpt lat="43.239005" lon="12.9459333"><ele>664.6</ele><time>2026-04-04T14:43:39.834Z</time></trkpt><trkpt lat="43.2390167" lon="12.9460917"><ele>654.0</ele><time>2026-04-04T14:43:40.833Z</time></trkpt><trkpt lat="43.2390333" lon="12.9462517"><ele>653.25</ele><time>2026-04-04T14:43:41.834Z</time></trkpt><trkpt lat="43.2390383" lon="12.946415"><ele>652.5</ele><time>2026-04-04T14:43:42.833Z</time></trkpt><trkpt lat="43.2390433" lon="12.94658"><ele>651.75</ele><time>2026-04-04T14:43:43.834Z</time></trkpt><trkpt lat="43.2390517" lon="12.94674"><ele>651.0</ele><time>2026-04-04T14:43:44.834Z</time></trkpt><trkpt lat="43.2390667" lon="12.9468867"><ele>649.8</ele><time>2026-04-04T14:43:45.834Z</time></trkpt><trkpt lat="43.2390867" lon="12.9470317"><ele>648.5999999999999</ele><time>2026-04-04T14:43:46.836Z</time></trkpt><trkpt lat="43.2391133" lon="12.947165"><ele>647.4</ele><time>2026-04-04T14:43:47.834Z</time></trkpt><trkpt lat="43.2391433" lon="12.947295"><ele>646.2</ele><time>2026-04-04T14:43:48.831Z</time></trkpt><trkpt lat="43.23918" lon="12.947415"><ele>645.0</ele><time>2026-04-04T14:43:49.835Z</time></trkpt><trkpt lat="43.2392183" lon="12.9475233"><ele>642.6666666666666</ele><time>2026-04-04T14:43:50.837Z</time></trkpt><trkpt lat="43.2392583" lon="12.9476217"><ele>640.3333333333334</ele><time>2026-04-04T14:43:51.834Z</time></trkpt><trkpt lat="43.239295" lon="12.9477133"><ele>638.0</ele><time>2026-04-04T14:43:52.834Z</time></trkpt><trkpt lat="43.2393283" lon="12.9478117"><ele>635.6666666666667</ele><time>2026-04-04T14:43:53.835Z</time></trkpt><trkpt lat="43.2393533" lon="12.947905"><ele>633.3333333333334</ele><time>2026-04-04T14:43:54.835Z</time></trkpt><trkpt lat="43.2393733" lon="12.9480667"><ele>631.0</ele><time>2026-04-04T14:43:56.835Z</time></trkpt><trkpt lat="43.2393917" lon="12.9482283"><ele>631.0</ele><time>2026-04-04T14:43:58.833Z</time></trkpt><trkpt lat="43.239405" lon="12.94832"><ele>631.0</ele><time>2026-04-04T14:43:59.834Z</time></trkpt><trkpt lat="43.2394167" lon="12.9484083"><ele>631.0</ele><time>2026-04-04T14:44:00.835Z</time></trkpt><trkpt lat="43.23944" lon="12.94856"><ele>631.0</ele><time>2026-04-04T14:44:02.834Z</time></trkpt><trkpt lat="43.2394833" lon="12.9486933"><ele>631.0</ele><time>2026-04-04T14:44:04.834Z</time></trkpt><trkpt lat="43.23953" lon="12.9488283"><ele>628.1666666666667</ele><time>2026-04-04T14:44:06.834Z</time></trkpt><trkpt lat="43.23957" lon="12.94897"><ele>625.3333333333334</ele><time>2026-04-04T14:44:08.836Z</time></trkpt><trkpt lat="43.2395983" lon="12.9490567"><ele>622.5</ele><time>2026-04-04T14:44:09.834Z</time></trkpt><trkpt lat="43.2396217" lon="12.9491517"><ele>619.6666666666666</ele><time>2026-04-04T14:44:10.834Z</time></trkpt><trkpt lat="43.23963" lon="12.9492533"><ele>616.8333333333333</ele><time>2026-04-04T14:44:11.834Z</time></trkpt><trkpt lat="43.2396467" lon="12.9493483"><ele>614.0</ele><time>2026-04-04T14:44:12.835Z</time></trkpt><trkpt lat="43.239675" lon="12.9495133"><ele>610.5</ele><time>2026-04-04T14:44:14.836Z</time></trkpt><trkpt lat="43.2396783" lon="12.9496067"><ele>607.0</ele><time>2026-04-04T14:44:15.834Z</time></trkpt><trkpt lat="43.2396617" lon="12.9497067"><ele>603.5</ele><time>2026-04-04T14:44:16.834Z</time></trkpt><trkpt lat="43.2396517" lon="12.9498017"><ele>600.0</ele><time>2026-04-04T14:44:17.835Z</time></trkpt><trkpt lat="43.23965" lon="12.9498883"><ele>596.5</ele><time>2026-04-04T14:44:18.834Z</time></trkpt><trkpt lat="43.2396983" lon="12.9499533"><ele>593.0</ele><time>2026-04-04T14:44:20.835Z</time></trkpt><trkpt lat="43.2396933" lon="12.9501217"><ele>590.1666666666666</ele><time>2026-04-04T14:44:26.836Z</time></trkpt><trkpt lat="43.2396783" lon="12.9502167"><ele>587.3333333333333</ele><time>2026-04-04T14:44:27.834Z</time></trkpt><trkpt lat="43.2396633" lon="12.9503183"><ele>584.5</ele><time>2026-04-04T14:44:28.835Z</time></trkpt><trkpt lat="43.2396483" lon="12.950425"><ele>581.6666666666666</ele><time>2026-04-04T14:44:29.835Z</time></trkpt><trkpt lat="43.23964" lon="12.9505333"><ele>578.8333333333334</ele><time>2026-04-04T14:44:30.859Z</time></trkpt><trkpt lat="43.2396333" lon="12.9506483"><ele>576.0</ele><time>2026-04-04T14:44:31.835Z</time></trkpt><trkpt lat="43.239625" lon="12.9507633"><ele>573.5</ele><time>2026-04-04T14:44:32.838Z</time></trkpt><trkpt lat="43.2396167" lon="12.9508817"><ele>571.0</ele><time>2026-04-04T14:44:33.859Z</time></trkpt><trkpt lat="43.2396033" lon="12.9510033"><ele>568.5</ele><time>2026-04-04T14:44:34.835Z</time></trkpt><trkpt lat="43.2395883" lon="12.9511233"><ele>566.0</ele><time>2026-04-04T14:44:35.837Z</time></trkpt><trkpt lat="43.2395783" lon="12.951235"><ele>563.5</ele><time>2026-04-04T14:44:36.858Z</time></trkpt><trkpt lat="43.2395733" lon="12.9513417"><ele>561.0</ele><time>2026-04-04T14:44:37.834Z</time></trkpt><trkpt lat="43.2395683" lon="12.9514333"><ele>561.0</ele><time>2026-04-04T14:44:38.837Z</time></trkpt><trkpt lat="43.23955" lon="12.9515267"><ele>561.0</ele><time>2026-04-04T14:44:39.858Z</time></trkpt><trkpt lat="43.2395183" lon="12.9516133"><ele>561.0</ele><time>2026-04-04T14:44:40.835Z</time></trkpt><trkpt lat="43.2394917" lon="12.9517017"><ele>561.0</ele><time>2026-04-04T14:44:41.835Z</time></trkpt><trkpt lat="43.23948" lon="12.9517983"><ele>561.0</ele><time>2026-04-04T14:44:42.834Z</time></trkpt><trkpt lat="43.239475" lon="12.9518883"><ele>561.0</ele><time>2026-04-04T14:44:43.834Z</time></trkpt><trkpt lat="43.2394683" lon="12.9520533"><ele>559.0</ele><time>2026-04-04T14:44:45.834Z</time></trkpt><trkpt lat="43.239475" lon="12.9521467"><ele>557.0</ele><time>2026-04-04T14:44:46.832Z</time></trkpt><trkpt lat="43.239485" lon="12.952235"><ele>555.0</ele><time>2026-04-04T14:44:47.834Z</time></trkpt><trkpt lat="43.2395033" lon="12.9523317"><ele>553.0</ele><time>2026-04-04T14:44:48.834Z</time></trkpt><trkpt lat="43.239515" lon="12.9524217"><ele>551.0</ele><time>2026-04-04T14:44:49.833Z</time></trkpt><trkpt lat="43.2395183" lon="12.95252"><ele>549.0</ele><time>2026-04-04T14:44:50.837Z</time></trkpt><trkpt lat="43.2395167" lon="12.95262"><ele>547.0</ele><time>2026-04-04T14:44:51.835Z</time></trkpt><trkpt lat="43.239505" lon="12.952725"><ele>545.6666666666667</ele><time>2026-04-04T14:44:52.833Z</time></trkpt><trkpt lat="43.2394933" lon="12.9528483"><ele>544.3333333333334</ele><time>2026-04-04T14:44:53.834Z</time></trkpt><trkpt lat="43.23949" lon="12.9529783"><ele>543.0</ele><time>2026-04-04T14:44:54.833Z</time></trkpt><trkpt lat="43.2394883" lon="12.9530983"><ele>541.6666666666666</ele><time>2026-04-04T14:44:55.833Z</time></trkpt><trkpt lat="43.2394883" lon="12.9532167"><ele>540.3333333333333</ele><time>2026-04-04T14:44:56.835Z</time></trkpt><trkpt lat="43.2394917" lon="12.9533283"><ele>539.0</ele><time>2026-04-04T14:44:57.834Z</time></trkpt><trkpt lat="43.23949" lon="12.9534283"><ele>539.0</ele><time>2026-04-04T14:44:58.834Z</time></trkpt><trkpt lat="43.2395017" lon="12.9535217"><ele>539.0</ele><time>2026-04-04T14:44:59.834Z</time></trkpt><trkpt lat="43.23951" lon="12.9536083"><ele>539.0</ele><time>2026-04-04T14:45:00.834Z</time></trkpt><trkpt lat="43.2395317" lon="12.9537033"><ele>539.0</ele><time>2026-04-04T14:45:01.834Z</time></trkpt><trkpt lat="43.23955" lon="12.9537917"><ele>539.0</ele><time>2026-04-04T14:45:02.834Z</time></trkpt><trkpt lat="43.239595" lon="12.953915"><ele>539.0</ele><time>2026-04-04T14:45:03.833Z</time></trkpt><trkpt lat="43.239635" lon="12.954035"><ele>539.0</ele><time>2026-04-04T14:45:04.833Z</time></trkpt><trkpt lat="43.2396733" lon="12.9541583"><ele>539.0</ele><time>2026-04-04T14:45:05.834Z</time></trkpt><trkpt lat="43.2397033" lon="12.9542767"><ele>539.0</ele><time>2026-04-04T14:45:06.833Z</time></trkpt><trkpt lat="43.2397267" lon="12.9543883"><ele>539.0</ele><time>2026-04-04T14:45:07.833Z</time></trkpt><trkpt lat="43.239745" lon="12.954495"><ele>539.0</ele><time>2026-04-04T14:45:08.835Z</time></trkpt><trkpt lat="43.2397517" lon="12.9546067"><ele>539.0</ele><time>2026-04-04T14:45:09.834Z</time></trkpt><trkpt lat="43.2397567" lon="12.9547267"><ele>538.8333333333333</ele><time>2026-04-04T14:45:10.833Z</time></trkpt><trkpt lat="43.239755" lon="12.954855"><ele>538.6666666666666</ele><time>2026-04-04T14:45:11.833Z</time></trkpt><trkpt lat="43.239745" lon="12.9549683"><ele>538.5</ele><time>2026-04-04T14:45:12.835Z</time></trkpt><trkpt lat="43.2397267" lon="12.9550717"><ele>538.3333333333334</ele><time>2026-04-04T14:45:13.844Z</time></trkpt><trkpt lat="43.2397083" lon="12.9551733"><ele>538.1666666666667</ele><time>2026-04-04T14:45:14.835Z</time></trkpt><trkpt lat="43.239695" lon="12.955265"><ele>538.0</ele><time>2026-04-04T14:45:15.834Z</time></trkpt><trkpt lat="43.2396817" lon="12.9553517"><ele>535.4</ele><time>2026-04-04T14:45:16.833Z</time></trkpt><trkpt lat="43.2396467" lon="12.9554767"><ele>532.8</ele><time>2026-04-04T14:45:18.838Z</time></trkpt><trkpt lat="43.2396117" lon="12.95559"><ele>530.2</ele><time>2026-04-04T14:45:40.833Z</time></trkpt><trkpt lat="43.23961" lon="12.955705"><ele>527.6</ele><time>2026-04-04T14:45:48.833Z</time></trkpt><trkpt lat="43.239595" lon="12.9558267"><ele>525.0</ele><time>2026-04-04T14:45:50.835Z</time></trkpt><trkpt lat="43.2395667" lon="12.9559733"><ele>522.6666666666666</ele><time>2026-04-04T14:45:52.835Z</time></trkpt><trkpt lat="43.2395483" lon="12.95606"><ele>520.3333333333334</ele><time>2026-04-04T14:45:53.835Z</time></trkpt><trkpt lat="43.2395233" lon="12.95615"><ele>518.0</ele><time>2026-04-04T14:45:54.834Z</time></trkpt><trkpt lat="43.2394933" lon="12.95624"><ele>515.6666666666667</ele><time>2026-04-04T14:45:55.833Z</time></trkpt><trkpt lat="43.2394617" lon="12.956345"><ele>513.3333333333334</ele><time>2026-04-04T14:45:56.835Z</time></trkpt><trkpt lat="43.239425" lon="12.9564633"><ele>511.0</ele><time>2026-04-04T14:45:57.834Z</time></trkpt><trkpt lat="43.239385" lon="12.9565917"><ele>508.6666666666667</ele><time>2026-04-04T14:45:58.834Z</time></trkpt><trkpt lat="43.2393583" lon="12.9567433"><ele>506.33333333333337</ele><time>2026-04-04T14:45:59.835Z</time></trkpt><trkpt lat="43.2393367" lon="12.956845"><ele>504.0</ele><time>2026-04-04T14:46:00.835Z</time></trkpt><trkpt lat="43.23933" lon="12.9569417"><ele>501.66666666666663</ele><time>2026-04-04T14:46:02.834Z</time></trkpt><trkpt lat="43.2393633" lon="12.9570233"><ele>499.3333333333333</ele><time>2026-04-04T14:46:19.835Z</time></trkpt><trkpt lat="43.239345" lon="12.9571167"><ele>497.0</ele><time>2026-04-04T14:46:22.833Z</time></trkpt><trkpt lat="43.2393067" lon="12.9572433"><ele>496.99999999999994</ele><time>2026-04-04T14:46:24.835Z</time></trkpt><trkpt lat="43.239275" lon="12.957345"><ele>497.0</ele><time>2026-04-04T14:46:26.834Z</time></trkpt><trkpt lat="43.239245" lon="12.9574633"><ele>497.0</ele><time>2026-04-04T14:46:29.835Z</time></trkpt><trkpt lat="43.23921" lon="12.95756"><ele>497.0</ele><time>2026-04-04T14:46:33.834Z</time></trkpt><trkpt lat="43.2391733" lon="12.9576583"><ele>496.99999999999994</ele><time>2026-04-04T14:46:36.833Z</time></trkpt><trkpt lat="43.2391333" lon="12.957735"><ele>497.0</ele><time>2026-04-04T14:46:38.836Z</time></trkpt><trkpt lat="43.2390867" lon="12.9578083"><ele>492.40000000000003</ele><time>2026-04-04T14:46:40.834Z</time></trkpt><trkpt lat="43.2390217" lon="12.9578817"><ele>487.80000000000007</ele><time>2026-04-04T14:46:42.835Z</time></trkpt><trkpt lat="43.2389717" lon="12.9579817"><ele>483.2</ele><time>2026-04-04T14:46:44.836Z</time></trkpt><trkpt lat="43.2390133" lon="12.9581317"><ele>478.6</ele><time>2026-04-04T14:46:46.834Z</time></trkpt><trkpt lat="43.2390617" lon="12.958275"><ele>474.0</ele><time>2026-04-04T14:46:48.831Z</time></trkpt><trkpt lat="43.2391" lon="12.9583517"><ele>471.0</ele><time>2026-04-04T14:46:49.834Z</time></trkpt><trkpt lat="43.2391417" lon="12.9584433"><ele>468.0</ele><time>2026-04-04T14:46:50.835Z</time></trkpt><trkpt lat="43.2391883" lon="12.95856"><ele>465.0</ele><time>2026-04-04T14:46:51.833Z</time></trkpt><trkpt lat="43.2392183" lon="12.9586483"><ele>462.0</ele><time>2026-04-04T14:46:52.834Z</time></trkpt><trkpt lat="43.239255" lon="12.9587867"><ele>459.0</ele><time>2026-04-04T14:46:54.833Z</time></trkpt><trkpt lat="43.2393283" lon="12.9589217"><ele>459.0</ele><time>2026-04-04T14:46:56.835Z</time></trkpt><trkpt lat="43.23941" lon="12.9590233"><ele>459.0</ele><time>2026-04-04T14:46:58.834Z</time></trkpt><trkpt lat="43.2394517" lon="12.9590883"><ele>459.0</ele><time>2026-04-04T14:47:00.834Z</time></trkpt><trkpt lat="43.23934" lon="12.959055"><ele>459.0</ele><time>2026-04-04T14:47:07.834Z</time></trkpt><trkpt lat="43.2392767" lon="12.9589867"><ele>459.0</ele><time>2026-04-04T14:47:08.835Z</time></trkpt><trkpt lat="43.2391933" lon="12.958915"><ele>459.0</ele><time>2026-04-04T14:47:09.834Z</time></trkpt><trkpt lat="43.23911" lon="12.9588333"><ele>459.0</ele><time>2026-04-04T14:47:10.834Z</time></trkpt><trkpt lat="43.2390283" lon="12.95876"><ele>459.0</ele><time>2026-04-04T14:47:11.834Z</time></trkpt><trkpt lat="43.238945" lon="12.9586883"><ele>459.0</ele><time>2026-04-04T14:47:12.837Z</time></trkpt><trkpt lat="43.2388583" lon="12.9586167"><ele>459.0</ele><time>2026-04-04T14:47:13.835Z</time></trkpt><trkpt lat="43.238765" lon="12.9585517"><ele>457.2</ele><time>2026-04-04T14:47:14.835Z</time></trkpt><trkpt lat="43.23867" lon="12.9584867"><ele>455.4</ele><time>2026-04-04T14:47:15.834Z</time></trkpt><trkpt lat="43.23858" lon="12.958425"><ele>453.6</ele><time>2026-04-04T14:47:16.833Z</time></trkpt><trkpt lat="43.2384867" lon="12.9583633"><ele>451.8</ele><time>2026-04-04T14:47:17.834Z</time></trkpt><trkpt lat="43.2383867" lon="12.9583083"><ele>450.0</ele><time>2026-04-04T14:47:18.834Z</time></trkpt><trkpt lat="43.2382867" lon="12.9582517"><ele>451.4</ele><time>2026-04-04T14:47:19.834Z</time></trkpt><trkpt lat="43.2381883" lon="12.95819"><ele>452.8</ele><time>2026-04-04T14:47:20.835Z</time></trkpt><trkpt lat="43.2380933" lon="12.9581267"><ele>454.20000000000005</ele><time>2026-04-04T14:47:21.835Z</time></trkpt><trkpt lat="43.2379967" lon="12.9580583"><ele>455.6</ele><time>2026-04-04T14:47:22.832Z</time></trkpt><trkpt lat="43.2379" lon="12.957975"><ele>457.0</ele><time>2026-04-04T14:47:23.834Z</time></trkpt><trkpt lat="43.2378017" lon="12.9578767"><ele>457.0</ele><time>2026-04-04T14:47:24.833Z</time></trkpt><trkpt lat="43.2377033" lon="12.9577783"><ele>457.0</ele><time>2026-04-04T14:47:25.835Z</time></trkpt><trkpt lat="43.2376017" lon="12.9576783"><ele>457.0</ele><time>2026-04-04T14:47:26.836Z</time></trkpt><trkpt lat="43.2374983" lon="12.9575917"><ele>457.0</ele><time>2026-04-04T14:47:27.836Z</time></trkpt><trkpt lat="43.23739" lon="12.9575067"><ele>457.6</ele><time>2026-04-04T14:47:28.835Z</time></trkpt><trkpt lat="43.2372833" lon="12.9574283"><ele>458.20000000000005</ele><time>2026-04-04T14:47:29.833Z</time></trkpt><trkpt lat="43.2371783" lon="12.9573533"><ele>458.8</ele><time>2026-04-04T14:47:30.835Z</time></trkpt><trkpt lat="43.2370817" lon="12.9572817"><ele>459.4</ele><time>2026-04-04T14:47:31.833Z</time></trkpt><trkpt lat="43.236995" lon="12.9572267"><ele>460.0</ele><time>2026-04-04T14:47:32.834Z</time></trkpt><trkpt lat="43.2369083" lon="12.957175"><ele>460.00000000000006</ele><time>2026-04-04T14:47:33.833Z</time></trkpt><trkpt lat="43.236825" lon="12.95713"><ele>460.0</ele><time>2026-04-04T14:47:34.833Z</time></trkpt><trkpt lat="43.236745" lon="12.9570917"><ele>460.0</ele><time>2026-04-04T14:47:35.836Z</time></trkpt><trkpt lat="43.2366633" lon="12.957055"><ele>460.0</ele><time>2026-04-04T14:47:36.834Z</time></trkpt><trkpt lat="43.2365917" lon="12.95702"><ele>460.00000000000006</ele><time>2026-04-04T14:47:37.835Z</time></trkpt><trkpt lat="43.2365167" lon="12.9569867"><ele>460.0</ele><time>2026-04-04T14:47:38.835Z</time></trkpt><trkpt lat="43.23644" lon="12.95695"><ele>458.6666666666667</ele><time>2026-04-04T14:47:39.83Z</time></trkpt><trkpt lat="43.2363667" lon="12.95691"><ele>457.33333333333337</ele><time>2026-04-04T14:47:40.834Z</time></trkpt><trkpt lat="43.236295" lon="12.95687"><ele>456.0</ele><time>2026-04-04T14:47:41.833Z</time></trkpt><trkpt lat="43.2362233" lon="12.9568333"><ele>454.66666666666663</ele><time>2026-04-04T14:47:42.833Z</time></trkpt><trkpt lat="43.2361617" lon="12.9567967"><ele>453.3333333333333</ele><time>2026-04-04T14:47:43.832Z</time></trkpt><trkpt lat="43.2360467" lon="12.9567633"><ele>452.0</ele><time>2026-04-04T14:47:45.832Z</time></trkpt><trkpt lat="43.2359583" lon="12.9567167"><ele>452.99999999999994</ele><time>2026-04-04T14:47:47.834Z</time></trkpt><trkpt lat="43.2358733" lon="12.95667"><ele>454.0</ele><time>2026-04-04T14:47:49.834Z</time></trkpt><trkpt lat="43.2357783" lon="12.95662"><ele>455.0</ele><time>2026-04-04T14:47:51.834Z</time></trkpt><trkpt lat="43.2357167" lon="12.956585"><ele>456.0</ele><time>2026-04-04T14:47:52.835Z</time></trkpt><trkpt lat="43.2356517" lon="12.9565433"><ele>456.99999999999994</ele><time>2026-04-04T14:47:53.835Z</time></trkpt><trkpt lat="43.2355783" lon="12.9565"><ele>458.0</ele><time>2026-04-04T14:47:54.834Z</time></trkpt><trkpt lat="43.2355" lon="12.956455"><ele>457.99999999999994</ele><time>2026-04-04T14:47:55.833Z</time></trkpt><trkpt lat="43.2354267" lon="12.9564133"><ele>458.0</ele><time>2026-04-04T14:47:56.834Z</time></trkpt><trkpt lat="43.2353467" lon="12.9563867"><ele>458.0</ele><time>2026-04-04T14:47:57.833Z</time></trkpt><trkpt lat="43.23526" lon="12.9563833"><ele>458.0</ele><time>2026-04-04T14:47:58.833Z</time></trkpt><trkpt lat="43.2351667" lon="12.9564067"><ele>457.99999999999994</ele><time>2026-04-04T14:47:59.833Z</time></trkpt><trkpt lat="43.2350683" lon="12.9564233"><ele>458.0</ele><time>2026-04-04T14:48:00.834Z</time></trkpt><trkpt lat="43.2349767" lon="12.956445"><ele>458.0</ele><time>2026-04-04T14:48:01.834Z</time></trkpt><trkpt lat="43.2349" lon="12.95647"><ele>457.99999999999994</ele><time>2026-04-04T14:48:02.836Z</time></trkpt><trkpt lat="43.234795" lon="12.9565083"><ele>457.99999999999994</ele><time>2026-04-04T14:48:04.833Z</time></trkpt><trkpt lat="43.23475" lon="12.9566583"><ele>458.0</ele><time>2026-04-04T14:48:06.835Z</time></trkpt><trkpt lat="43.234745" lon="12.9567667"><ele>458.0</ele><time>2026-04-04T14:48:07.835Z</time></trkpt><trkpt lat="43.2347567" lon="12.95692"><ele>476.0</ele><time>2026-04-04T14:48:08.836Z</time></trkpt><trkpt lat="43.2347683" lon="12.9571283"><ele>494.0</ele><time>2026-04-04T14:48:09.835Z</time></trkpt><trkpt lat="43.23476" lon="12.9573333"><ele>512.0</ele><time>2026-04-04T14:48:10.833Z</time></trkpt><trkpt lat="43.234755" lon="12.95754"><ele>517.3333333333333</ele><time>2026-04-04T14:48:11.833Z</time></trkpt><trkpt lat="43.23476" lon="12.957765"><ele>522.6666666666666</ele><time>2026-04-04T14:48:12.835Z</time></trkpt><trkpt lat="43.234765" lon="12.9579667"><ele>528.0</ele><time>2026-04-04T14:48:13.835Z</time></trkpt><trkpt lat="43.2347917" lon="12.958175"><ele>516.5</ele><time>2026-04-04T14:48:14.834Z</time></trkpt><trkpt lat="43.234815" lon="12.95837"><ele>505.0</ele><time>2026-04-04T14:48:15.834Z</time></trkpt><trkpt lat="43.2348533" lon="12.95857"><ele>493.5</ele><time>2026-04-04T14:48:16.834Z</time></trkpt><trkpt lat="43.234885" lon="12.9587667"><ele>482.0</ele><time>2026-04-04T14:48:17.833Z</time></trkpt><trkpt lat="43.234905" lon="12.9589667"><ele>482.0</ele><time>2026-04-04T14:48:18.834Z</time></trkpt><trkpt lat="43.2349083" lon="12.9591583"><ele>482.0</ele><time>2026-04-04T14:48:19.834Z</time></trkpt><trkpt lat="43.2348917" lon="12.959335"><ele>482.0</ele><time>2026-04-04T14:48:20.836Z</time></trkpt><trkpt lat="43.2348567" lon="12.9594883"><ele>482.0</ele><time>2026-04-04T14:48:21.834Z</time></trkpt><trkpt lat="43.2348333" lon="12.9596317"><ele>485.40000000000003</ele><time>2026-04-04T14:48:22.83Z</time></trkpt><trkpt lat="43.2348367" lon="12.959775"><ele>488.80000000000007</ele><time>2026-04-04T14:48:23.835Z</time></trkpt><trkpt lat="43.2348567" lon="12.9599"><ele>492.2</ele><time>2026-04-04T14:48:24.834Z</time></trkpt><trkpt lat="43.2348967" lon="12.96002"><ele>495.6</ele><time>2026-04-04T14:48:25.834Z</time></trkpt><trkpt lat="43.23493" lon="12.9601267"><ele>499.0</ele><time>2026-04-04T14:48:26.835Z</time></trkpt><trkpt lat="43.235005" lon="12.9602233"><ele>502.5</ele><time>2026-04-04T14:48:27.834Z</time></trkpt><trkpt lat="43.2350717" lon="12.9603217"><ele>506.0</ele><time>2026-04-04T14:48:28.831Z</time></trkpt><trkpt lat="43.23517" lon="12.96047"><ele>509.5</ele><time>2026-04-04T14:48:29.835Z</time></trkpt><trkpt lat="43.23525" lon="12.96061"><ele>513.0</ele><time>2026-04-04T14:48:30.834Z</time></trkpt><trkpt lat="43.2353017" lon="12.9607183"><ele>513.0</ele><time>2026-04-04T14:48:31.832Z</time></trkpt><trkpt lat="43.2353433" lon="12.96083"><ele>513.0</ele><time>2026-04-04T14:48:32.83Z</time></trkpt><trkpt lat="43.2353617" lon="12.9609317"><ele>513.0</ele><time>2026-04-04T14:48:33.834Z</time></trkpt><trkpt lat="43.23537" lon="12.9610383"><ele>513.0</ele><time>2026-04-04T14:48:34.834Z</time></trkpt><trkpt lat="43.2353317" lon="12.9611383"><ele>513.0</ele><time>2026-04-04T14:48:35.834Z</time></trkpt><trkpt lat="43.2353033" lon="12.9612617"><ele>513.0</ele><time>2026-04-04T14:48:36.836Z</time></trkpt><trkpt lat="43.235275" lon="12.9613833"><ele>514.4</ele><time>2026-04-04T14:48:37.83Z</time></trkpt><trkpt lat="43.235265" lon="12.9615167"><ele>515.8</ele><time>2026-04-04T14:48:38.836Z</time></trkpt><trkpt lat="43.2352733" lon="12.961665"><ele>517.2</ele><time>2026-04-04T14:48:39.832Z</time></trkpt><trkpt lat="43.2352833" lon="12.9618133"><ele>518.6</ele><time>2026-04-04T14:48:40.833Z</time></trkpt><trkpt lat="43.2352967" lon="12.9619717"><ele>520.0</ele><time>2026-04-04T14:48:41.835Z</time></trkpt><trkpt lat="43.2353233" lon="12.962155"><ele>520.6</ele><time>2026-04-04T14:48:42.835Z</time></trkpt><trkpt lat="43.2353467" lon="12.9623283"><ele>521.2</ele><time>2026-04-04T14:48:43.834Z</time></trkpt><trkpt lat="43.23536" lon="12.962485"><ele>521.8</ele><time>2026-04-04T14:48:44.837Z</time></trkpt><trkpt lat="43.23537" lon="12.9626217"><ele>522.4</ele><time>2026-04-04T14:48:45.834Z</time></trkpt><trkpt lat="43.2353817" lon="12.962745"><ele>523.0</ele><time>2026-04-04T14:48:46.833Z</time></trkpt><trkpt lat="43.2354017" lon="12.9628633"><ele>523.4</ele><time>2026-04-04T14:48:47.835Z</time></trkpt><trkpt lat="43.235425" lon="12.9629667"><ele>523.8</ele><time>2026-04-04T14:48:48.835Z</time></trkpt><trkpt lat="43.2354467" lon="12.9630567"><ele>524.2</ele><time>2026-04-04T14:48:49.835Z</time></trkpt><trkpt lat="43.2354683" lon="12.9631883"><ele>524.6</ele><time>2026-04-04T14:48:51.833Z</time></trkpt><trkpt lat="43.23548" lon="12.9633283"><ele>525.0</ele><time>2026-04-04T14:48:53.833Z</time></trkpt><trkpt lat="43.2354683" lon="12.9634783"><ele>524.1666666666666</ele><time>2026-04-04T14:48:55.834Z</time></trkpt><trkpt lat="43.2354333" lon="12.9635733"><ele>523.3333333333334</ele><time>2026-04-04T14:48:57.835Z</time></trkpt><trkpt lat="43.23537" lon="12.9636217"><ele>522.5</ele><time>2026-04-04T14:48:59.833Z</time></trkpt><trkpt lat="43.2352983" lon="12.9636883"><ele>521.6666666666667</ele><time>2026-04-04T14:49:02.838Z</time></trkpt><trkpt lat="43.23523" lon="12.963795"><ele>520.8333333333334</ele><time>2026-04-04T14:49:04.834Z</time></trkpt><trkpt lat="43.2351767" lon="12.96389"><ele>520.0</ele><time>2026-04-04T14:49:06.833Z</time></trkpt><trkpt lat="43.23513" lon="12.9639867"><ele>520.0</ele><time>2026-04-04T14:49:08.83Z</time></trkpt><trkpt lat="43.2350567" lon="12.9640817"><ele>520.0</ele><time>2026-04-04T14:49:10.831Z</time></trkpt><trkpt lat="43.235" lon="12.9641367"><ele>520.0</ele><time>2026-04-04T14:49:11.831Z</time></trkpt><trkpt lat="43.2349333" lon="12.9641817"><ele>520.0</ele><time>2026-04-04T14:49:12.836Z</time></trkpt><trkpt lat="43.2348533" lon="12.9642067"><ele>520.0</ele><time>2026-04-04T14:49:13.836Z</time></trkpt><trkpt lat="43.2347583" lon="12.9642117"><ele>520.0</ele><time>2026-04-04T14:49:14.835Z</time></trkpt><trkpt lat="43.2346483" lon="12.9641967"><ele>519.4</ele><time>2026-04-04T14:49:15.833Z</time></trkpt><trkpt lat="43.23454" lon="12.96418"><ele>518.8</ele><time>2026-04-04T14:49:16.833Z</time></trkpt><trkpt lat="43.234435" lon="12.964165"><ele>518.2</ele><time>2026-04-04T14:49:17.835Z</time></trkpt><trkpt lat="43.234335" lon="12.964155"><ele>517.6</ele><time>2026-04-04T14:49:18.834Z</time></trkpt><trkpt lat="43.23424" lon="12.9641467"><ele>517.0</ele><time>2026-04-04T14:49:19.835Z</time></trkpt><trkpt lat="43.2341483" lon="12.9641383"><ele>517.0</ele><time>2026-04-04T14:49:20.834Z</time></trkpt><trkpt lat="43.2340667" lon="12.9641333"><ele>517.0</ele><time>2026-04-04T14:49:21.834Z</time></trkpt><trkpt lat="43.2339617" lon="12.9641283"><ele>517.0</ele><time>2026-04-04T14:49:23.833Z</time></trkpt><trkpt lat="43.2338817" lon="12.9641733"><ele>517.0</ele><time>2026-04-04T14:49:25.837Z</time></trkpt><trkpt lat="43.233765" lon="12.9642867"><ele>517.0</ele><time>2026-04-04T14:49:27.833Z</time></trkpt><trkpt lat="43.2336917" lon="12.9643567"><ele>516.1666666666667</ele><time>2026-04-04T14:49:28.833Z</time></trkpt><trkpt lat="43.233625" lon="12.964415"><ele>515.3333333333334</ele><time>2026-04-04T14:49:29.834Z</time></trkpt><trkpt lat="43.2335567" lon="12.9644267"><ele>514.5</ele><time>2026-04-04T14:49:30.833Z</time></trkpt><trkpt lat="43.233485" lon="12.9644183"><ele>513.6666666666666</ele><time>2026-04-04T14:49:31.832Z</time></trkpt><trkpt lat="43.2334017" lon="12.9644017"><ele>512.8333333333333</ele><time>2026-04-04T14:49:32.835Z</time></trkpt><trkpt lat="43.2333233" lon="12.9643917"><ele>512.0</ele><time>2026-04-04T14:49:33.834Z</time></trkpt><trkpt lat="43.2332317" lon="12.9643733"><ele>516.0</ele><time>2026-04-04T14:49:34.835Z</time></trkpt><trkpt lat="43.23313" lon="12.9643567"><ele>520.0</ele><time>2026-04-04T14:49:35.835Z</time></trkpt><trkpt lat="43.2330367" lon="12.9643267"><ele>524.0</ele><time>2026-04-04T14:49:36.835Z</time></trkpt><trkpt lat="43.2329533" lon="12.9642567"><ele>528.0</ele><time>2026-04-04T14:49:37.834Z</time></trkpt><trkpt lat="43.2328717" lon="12.9641817"><ele>532.0</ele><time>2026-04-04T14:49:38.835Z</time></trkpt><trkpt lat="43.2327933" lon="12.9641017"><ele>534.6</ele><time>2026-04-04T14:49:39.834Z</time></trkpt><trkpt lat="43.2327217" lon="12.9640517"><ele>537.2</ele><time>2026-04-04T14:49:40.835Z</time></trkpt><trkpt lat="43.23265" lon="12.9640367"><ele>539.8</ele><time>2026-04-04T14:49:41.833Z</time></trkpt><trkpt lat="43.2325517" lon="12.9640417"><ele>542.4</ele><time>2026-04-04T14:49:42.837Z</time></trkpt><trkpt lat="43.232415" lon="12.9640683"><ele>545.0</ele><time>2026-04-04T14:49:43.835Z</time></trkpt><trkpt lat="43.23229" lon="12.9641083"><ele>546.75</ele><time>2026-04-04T14:49:44.835Z</time></trkpt><trkpt lat="43.232185" lon="12.9641883"><ele>548.5</ele><time>2026-04-04T14:49:45.834Z</time></trkpt><trkpt lat="43.232085" lon="12.9642533"><ele>550.25</ele><time>2026-04-04T14:49:46.833Z</time></trkpt><trkpt lat="43.2319817" lon="12.9642933"><ele>552.0</ele><time>2026-04-04T14:49:47.833Z</time></trkpt><trkpt lat="43.2318683" lon="12.9643"><ele>552.0</ele><time>2026-04-04T14:49:48.835Z</time></trkpt><trkpt lat="43.2317467" lon="12.964235"><ele>552.0</ele><time>2026-04-04T14:49:49.834Z</time></trkpt><trkpt lat="43.2316283" lon="12.9641683"><ele>552.0</ele><time>2026-04-04T14:49:50.836Z</time></trkpt><trkpt lat="43.231525" lon="12.964115"><ele>552.0</ele><time>2026-04-04T14:49:51.833Z</time></trkpt><trkpt lat="43.231455" lon="12.9640983"><ele>552.0</ele><time>2026-04-04T14:49:52.835Z</time></trkpt><trkpt lat="43.2313883" lon="12.964115"><ele>554.2</ele><time>2026-04-04T14:49:53.835Z</time></trkpt><trkpt lat="43.2313233" lon="12.9641667"><ele>556.4000000000001</ele><time>2026-04-04T14:49:54.835Z</time></trkpt><trkpt lat="43.23128" lon="12.9643183"><ele>558.5999999999999</ele><time>2026-04-04T14:49:55.836Z</time></trkpt><trkpt lat="43.2312333" lon="12.9644383"><ele>560.8</ele><time>2026-04-04T14:49:56.835Z</time></trkpt><trkpt lat="43.2311733" lon="12.964545"><ele>563.0</ele><time>2026-04-04T14:49:57.833Z</time></trkpt><trkpt lat="43.2311067" lon="12.9646533"><ele>563.0</ele><time>2026-04-04T14:49:58.834Z</time></trkpt><trkpt lat="43.2310483" lon="12.96473"><ele>563.0</ele><time>2026-04-04T14:49:59.835Z</time></trkpt><trkpt lat="43.230975" lon="12.9647967"><ele>563.0</ele><time>2026-04-04T14:50:00.836Z</time></trkpt><trkpt lat="43.2308967" lon="12.96486"><ele>563.0</ele><time>2026-04-04T14:50:01.834Z</time></trkpt><trkpt lat="43.2308183" lon="12.9649133"><ele>563.0</ele><time>2026-04-04T14:50:02.836Z</time></trkpt><trkpt lat="43.23074" lon="12.9649833"><ele>563.0</ele><time>2026-04-04T14:50:03.833Z</time></trkpt><trkpt lat="43.2306683" lon="12.9650933"><ele>565.0</ele><time>2026-04-04T14:50:04.833Z</time></trkpt><trkpt lat="43.2305983" lon="12.96521"><ele>567.0</ele><time>2026-04-04T14:50:05.834Z</time></trkpt><trkpt lat="43.2305433" lon="12.9653367"><ele>569.0</ele><time>2026-04-04T14:50:06.834Z</time></trkpt><trkpt lat="43.2305117" lon="12.9654767"><ele>571.0</ele><time>2026-04-04T14:50:07.834Z</time></trkpt><trkpt lat="43.2305117" lon="12.9656333"><ele>573.0</ele><time>2026-04-04T14:50:08.835Z</time></trkpt><trkpt lat="43.230535" lon="12.9657917"><ele>569.4</ele><time>2026-04-04T14:50:09.834Z</time></trkpt><trkpt lat="43.230575" lon="12.9659483"><ele>565.8</ele><time>2026-04-04T14:50:10.833Z</time></trkpt><trkpt lat="43.2306233" lon="12.9660817"><ele>562.2</ele><time>2026-04-04T14:50:11.834Z</time></trkpt><trkpt lat="43.2306683" lon="12.9661933"><ele>558.6</ele><time>2026-04-04T14:50:12.832Z</time></trkpt><trkpt lat="43.23071" lon="12.9663133"><ele>555.0</ele><time>2026-04-04T14:50:13.832Z</time></trkpt><trkpt lat="43.23074" lon="12.9664367"><ele>552.8</ele><time>2026-04-04T14:50:14.835Z</time></trkpt><trkpt lat="43.2307633" lon="12.9665717"><ele>550.6</ele><time>2026-04-04T14:50:15.832Z</time></trkpt><trkpt lat="43.23078" lon="12.9667183"><ele>548.4</ele><time>2026-04-04T14:50:16.834Z</time></trkpt><trkpt lat="43.2308033" lon="12.96686"><ele>546.2</ele><time>2026-04-04T14:50:17.836Z</time></trkpt><trkpt lat="43.23081" lon="12.966985"><ele>544.0</ele><time>2026-04-04T14:50:18.833Z</time></trkpt><trkpt lat="43.23081" lon="12.9671033"><ele>542.0</ele><time>2026-04-04T14:50:19.834Z</time></trkpt><trkpt lat="43.2308" lon="12.9672267"><ele>540.0</ele><time>2026-04-04T14:50:20.835Z</time></trkpt><trkpt lat="43.2308067" lon="12.9673617"><ele>538.0</ele><time>2026-04-04T14:50:21.833Z</time></trkpt><trkpt lat="43.2308417" lon="12.96751"><ele>536.0</ele><time>2026-04-04T14:50:22.833Z</time></trkpt><trkpt lat="43.230885" lon="12.9676633"><ele>534.0</ele><time>2026-04-04T14:50:23.836Z</time></trkpt><trkpt lat="43.23092" lon="12.9678167"><ele>531.25</ele><time>2026-04-04T14:50:24.834Z</time></trkpt><trkpt lat="43.230945" lon="12.96798"><ele>528.5</ele><time>2026-04-04T14:50:25.834Z</time></trkpt><trkpt lat="43.230965" lon="12.9681433"><ele>525.75</ele><time>2026-04-04T14:50:26.835Z</time></trkpt><trkpt lat="43.230985" lon="12.9683083"><ele>523.0</ele><time>2026-04-04T14:50:27.834Z</time></trkpt><trkpt lat="43.231005" lon="12.96847"><ele>521.8</ele><time>2026-04-04T14:50:28.834Z</time></trkpt><trkpt lat="43.2310333" lon="12.96862"><ele>520.5999999999999</ele><time>2026-04-04T14:50:29.836Z</time></trkpt><trkpt lat="43.23106" lon="12.9687317"><ele>519.4000000000001</ele><time>2026-04-04T14:50:30.837Z</time></trkpt><trkpt lat="43.2310867" lon="12.968855"><ele>518.2</ele><time>2026-04-04T14:50:32.835Z</time></trkpt><trkpt lat="43.2309917" lon="12.968825"><ele>517.0</ele><time>2026-04-04T14:50:35.835Z</time></trkpt><trkpt lat="43.230945" lon="12.96876"><ele>517.0</ele><time>2026-04-04T14:50:36.835Z</time></trkpt><trkpt lat="43.2308833" lon="12.9686567"><ele>517.0</ele><time>2026-04-04T14:50:37.835Z</time></trkpt><trkpt lat="43.23081" lon="12.9685433"><ele>517.0</ele><time>2026-04-04T14:50:38.836Z</time></trkpt><trkpt lat="43.2307283" lon="12.968435"><ele>517.0</ele><time>2026-04-04T14:50:39.834Z</time></trkpt><trkpt lat="43.2306433" lon="12.9683367"><ele>517.0</ele><time>2026-04-04T14:50:40.835Z</time></trkpt><trkpt lat="43.2305583" lon="12.9682483"><ele>515.4</ele><time>2026-04-04T14:50:41.835Z</time></trkpt><trkpt lat="43.2304767" lon="12.9681517"><ele>513.8000000000001</ele><time>2026-04-04T14:50:42.835Z</time></trkpt><trkpt lat="43.2303983" lon="12.968055"><ele>512.2</ele><time>2026-04-04T14:50:43.834Z</time></trkpt><trkpt lat="43.2303183" lon="12.9679533"><ele>510.6</ele><time>2026-04-04T14:50:44.835Z</time></trkpt><trkpt lat="43.230225" lon="12.967845"><ele>509.0</ele><time>2026-04-04T14:50:45.833Z</time></trkpt><trkpt lat="43.2301367" lon="12.9677533"><ele>508.99999999999994</ele><time>2026-04-04T14:50:46.832Z</time></trkpt><trkpt lat="43.230065" lon="12.967695"><ele>509.0</ele><time>2026-04-04T14:50:47.833Z</time></trkpt><trkpt lat="43.2299933" lon="12.96768"><ele>509.0</ele><time>2026-04-04T14:50:48.833Z</time></trkpt><trkpt lat="43.22992" lon="12.9676817"><ele>509.0</ele><time>2026-04-04T14:50:49.834Z</time></trkpt><trkpt lat="43.229865" lon="12.9677333"><ele>508.99999999999994</ele><time>2026-04-04T14:50:50.835Z</time></trkpt><trkpt lat="43.229805" lon="12.967815"><ele>509.0</ele><time>2026-04-04T14:50:51.832Z</time></trkpt><trkpt lat="43.2297167" lon="12.9679067"><ele>510.0</ele><time>2026-04-04T14:50:52.833Z</time></trkpt><trkpt lat="43.2296167" lon="12.9680083"><ele>511.0</ele><time>2026-04-04T14:50:53.835Z</time></trkpt><trkpt lat="43.229505" lon="12.968095"><ele>512.0</ele><time>2026-04-04T14:50:54.834Z</time></trkpt><trkpt lat="43.2293483" lon="12.96817"><ele>513.0</ele><time>2026-04-04T14:50:55.834Z</time></trkpt><trkpt lat="43.2292" lon="12.968245"><ele>513.0</ele><time>2026-04-04T14:50:56.836Z</time></trkpt><trkpt lat="43.2290567" lon="12.9683"><ele>513.0</ele><time>2026-04-04T14:50:57.833Z</time></trkpt><trkpt lat="43.22892" lon="12.96836"><ele>513.0</ele><time>2026-04-04T14:50:58.834Z</time></trkpt><trkpt lat="43.2288067" lon="12.968435"><ele>513.0</ele><time>2026-04-04T14:50:59.834Z</time></trkpt><trkpt lat="43.2287067" lon="12.9685433"><ele>510.4</ele><time>2026-04-04T14:51:00.835Z</time></trkpt><trkpt lat="43.2286317" lon="12.9686717"><ele>507.79999999999995</ele><time>2026-04-04T14:51:01.833Z</time></trkpt><trkpt lat="43.2285617" lon="12.9687767"><ele>505.2</ele><time>2026-04-04T14:51:02.835Z</time></trkpt><trkpt lat="43.2285033" lon="12.9688317"><ele>502.6</ele><time>2026-04-04T14:51:03.835Z</time></trkpt><trkpt lat="43.228415" lon="12.968835"><ele>500.0</ele><time>2026-04-04T14:51:04.834Z</time></trkpt><trkpt lat="43.2283183" lon="12.9688167"><ele>500.0</ele><time>2026-04-04T14:51:05.833Z</time></trkpt><trkpt lat="43.2282133" lon="12.9688117"><ele>500.0</ele><time>2026-04-04T14:51:06.834Z</time></trkpt><trkpt lat="43.22811" lon="12.9688267"><ele>500.0</ele><time>2026-04-04T14:51:07.833Z</time></trkpt><trkpt lat="43.2280117" lon="12.9688367"><ele>500.0</ele><time>2026-04-04T14:51:08.834Z</time></trkpt><trkpt lat="43.2279033" lon="12.9688517"><ele>500.0</ele><time>2026-04-04T14:51:09.833Z</time></trkpt><trkpt lat="43.2277867" lon="12.96887"><ele>499.0</ele><time>2026-04-04T14:51:10.832Z</time></trkpt><trkpt lat="43.2276717" lon="12.9688867"><ele>498.0</ele><time>2026-04-04T14:51:11.834Z</time></trkpt><trkpt lat="43.227555" lon="12.968895"><ele>497.0</ele><time>2026-04-04T14:51:12.834Z</time></trkpt><trkpt lat="43.22743" lon="12.9689083"><ele>496.0</ele><time>2026-04-04T14:51:13.834Z</time></trkpt><trkpt lat="43.2272983" lon="12.96893"><ele>494.6</ele><time>2026-04-04T14:51:14.836Z</time></trkpt><trkpt lat="43.227175" lon="12.9689483"><ele>493.20000000000005</ele><time>2026-04-04T14:51:15.834Z</time></trkpt><trkpt lat="43.2270683" lon="12.9689667"><ele>491.79999999999995</ele><time>2026-04-04T14:51:16.835Z</time></trkpt><trkpt lat="43.2269817" lon="12.9689783"><ele>490.4</ele><time>2026-04-04T14:51:17.834Z</time></trkpt><trkpt lat="43.226905" lon="12.9689833"><ele>489.0</ele><time>2026-04-04T14:51:18.836Z</time></trkpt><trkpt lat="43.2268383" lon="12.9689933"><ele>489.0</ele><time>2026-04-04T14:51:19.833Z</time></trkpt><trkpt lat="43.2267367" lon="12.968985"><ele>489.0</ele><time>2026-04-04T14:51:21.834Z</time></trkpt><trkpt lat="43.2266683" lon="12.9689617"><ele>489.0</ele><time>2026-04-04T14:51:22.833Z</time></trkpt><trkpt lat="43.2265833" lon="12.9689267"><ele>489.0</ele><time>2026-04-04T14:51:23.831Z</time></trkpt><trkpt lat="43.2264883" lon="12.9688883"><ele>489.0</ele><time>2026-04-04T14:51:24.833Z</time></trkpt><trkpt lat="43.2263633" lon="12.968855"><ele>493.5</ele><time>2026-04-04T14:51:25.834Z</time></trkpt><trkpt lat="43.2262383" lon="12.9687967"><ele>498.0</ele><time>2026-04-04T14:51:26.834Z</time></trkpt><trkpt lat="43.2261117" lon="12.968725"><ele>502.5</ele><time>2026-04-04T14:51:27.835Z</time></trkpt><trkpt lat="43.2259883" lon="12.9686717"><ele>507.0</ele><time>2026-04-04T14:51:28.833Z</time></trkpt><trkpt lat="43.2259" lon="12.9686383"><ele>507.0</ele><time>2026-04-04T14:51:29.835Z</time></trkpt><trkpt lat="43.2258267" lon="12.9686117"><ele>507.00000000000006</ele><time>2026-04-04T14:51:30.832Z</time></trkpt><trkpt lat="43.2257183" lon="12.9686483"><ele>507.00000000000006</ele><time>2026-04-04T14:51:32.836Z</time></trkpt><trkpt lat="43.2256283" lon="12.9687017"><ele>507.0</ele><time>2026-04-04T14:51:34.833Z</time></trkpt><trkpt lat="43.2255683" lon="12.9688067"><ele>507.0</ele><time>2026-04-04T14:51:36.833Z</time></trkpt><trkpt lat="43.2255083" lon="12.968925"><ele>511.40000000000003</ele><time>2026-04-04T14:51:38.834Z</time></trkpt><trkpt lat="43.2254433" lon="12.96901"><ele>515.8000000000001</ele><time>2026-04-04T14:51:40.833Z</time></trkpt><trkpt lat="43.22535" lon="12.9690833"><ele>520.2</ele><time>2026-04-04T14:51:42.834Z</time></trkpt><trkpt lat="43.2252667" lon="12.9691817"><ele>524.6</ele><time>2026-04-04T14:51:44.834Z</time></trkpt><trkpt lat="43.2252133" lon="12.9692533"><ele>529.0</ele><time>2026-04-04T14:51:45.834Z</time></trkpt><trkpt lat="43.2251483" lon="12.96935"><ele>529.0</ele><time>2026-04-04T14:51:46.832Z</time></trkpt><trkpt lat="43.2250967" lon="12.96946"><ele>529.0</ele><time>2026-04-04T14:51:47.834Z</time></trkpt><trkpt lat="43.2250517" lon="12.9695533"><ele>529.0</ele><time>2026-04-04T14:51:48.834Z</time></trkpt><trkpt lat="43.2250083" lon="12.9696433"><ele>529.0</ele><time>2026-04-04T14:51:49.834Z</time></trkpt><trkpt lat="43.2249667" lon="12.9697267"><ele>529.0</ele><time>2026-04-04T14:51:50.835Z</time></trkpt><trkpt lat="43.2249383" lon="12.9698083"><ele>529.0</ele><time>2026-04-04T14:51:51.834Z</time></trkpt><trkpt lat="43.2248967" lon="12.9698833"><ele>529.0</ele><time>2026-04-04T14:51:52.834Z</time></trkpt><trkpt lat="43.2248583" lon="12.9699717"><ele>529.0</ele><time>2026-04-04T14:51:53.835Z</time></trkpt><trkpt lat="43.224805" lon="12.9700517"><ele>529.0</ele><time>2026-04-04T14:51:54.838Z</time></trkpt><trkpt lat="43.2247483" lon="12.970135"><ele>529.0</ele><time>2026-04-04T14:51:55.834Z</time></trkpt><trkpt lat="43.2246817" lon="12.9702183"><ele>529.0</ele><time>2026-04-04T14:51:56.836Z</time></trkpt><trkpt lat="43.22464" lon="12.9703067"><ele>529.0</ele><time>2026-04-04T14:51:57.835Z</time></trkpt><trkpt lat="43.2245883" lon="12.9703883"><ele>533.0</ele><time>2026-04-04T14:51:58.834Z</time></trkpt><trkpt lat="43.2245517" lon="12.97047"><ele>537.0</ele><time>2026-04-04T14:51:59.836Z</time></trkpt><trkpt lat="43.2244867" lon="12.97058"><ele>541.0</ele><time>2026-04-04T14:52:01.831Z</time></trkpt><trkpt lat="43.224425" lon="12.9706433"><ele>545.0</ele><time>2026-04-04T14:52:03.833Z</time></trkpt><trkpt lat="43.22434" lon="12.970745"><ele>549.0</ele><time>2026-04-04T14:52:05.834Z</time></trkpt><trkpt lat="43.224255" lon="12.9708867"><ele>549.0</ele><time>2026-04-04T14:52:07.833Z</time></trkpt><trkpt lat="43.2242067" lon="12.9709833"><ele>549.0</ele><time>2026-04-04T14:52:08.834Z</time></trkpt><trkpt lat="43.2241617" lon="12.971085"><ele>549.0</ele><time>2026-04-04T14:52:09.834Z</time></trkpt><trkpt lat="43.2241267" lon="12.9711933"><ele>549.0</ele><time>2026-04-04T14:52:10.835Z</time></trkpt><trkpt lat="43.2240917" lon="12.9712833"><ele>549.0</ele><time>2026-04-04T14:52:11.835Z</time></trkpt><trkpt lat="43.22406" lon="12.971365"><ele>549.0</ele><time>2026-04-04T14:52:12.836Z</time></trkpt><trkpt lat="43.2240167" lon="12.9714533"><ele>548.6666666666666</ele><time>2026-04-04T14:52:13.834Z</time></trkpt><trkpt lat="43.2239633" lon="12.9715417"><ele>548.3333333333334</ele><time>2026-04-04T14:52:15.833Z</time></trkpt><trkpt lat="43.2238967" lon="12.9716133"><ele>548.0</ele><time>2026-04-04T14:52:18.835Z</time></trkpt><trkpt lat="43.2237817" lon="12.9716467"><ele>547.6666666666667</ele><time>2026-04-04T14:52:20.835Z</time></trkpt><trkpt lat="43.2237083" lon="12.9716383"><ele>547.3333333333334</ele><time>2026-04-04T14:52:21.833Z</time></trkpt><trkpt lat="43.2236217" lon="12.9716217"><ele>547.0</ele><time>2026-04-04T14:52:22.832Z</time></trkpt><trkpt lat="43.2235417" lon="12.9716183"><ele>547.0</ele><time>2026-04-04T14:52:23.836Z</time></trkpt><trkpt lat="43.2234617" lon="12.9716067"><ele>547.0</ele><time>2026-04-04T14:52:24.833Z</time></trkpt><trkpt lat="43.2233683" lon="12.9715833"><ele>547.0</ele><time>2026-04-04T14:52:25.834Z</time></trkpt><trkpt lat="43.22326" lon="12.97156"><ele>547.0</ele><time>2026-04-04T14:52:26.836Z</time></trkpt><trkpt lat="43.2231517" lon="12.97152"><ele>547.0</ele><time>2026-04-04T14:52:27.833Z</time></trkpt><trkpt lat="43.2230417" lon="12.9714683"><ele>545.0</ele><time>2026-04-04T14:52:28.834Z</time></trkpt><trkpt lat="43.2229333" lon="12.971415"><ele>543.0</ele><time>2026-04-04T14:52:29.836Z</time></trkpt><trkpt lat="43.2228233" lon="12.97135"><ele>541.0</ele><time>2026-04-04T14:52:30.833Z</time></trkpt><trkpt lat="43.222715" lon="12.9712867"><ele>539.0</ele><time>2026-04-04T14:52:31.835Z</time></trkpt><trkpt lat="43.2226133" lon="12.9712467"><ele>539.0</ele><time>2026-04-04T14:52:32.835Z</time></trkpt><trkpt lat="43.2225033" lon="12.97122"><ele>539.0</ele><time>2026-04-04T14:52:33.831Z</time></trkpt><trkpt lat="43.222405" lon="12.971195"><ele>539.0</ele><time>2026-04-04T14:52:34.836Z</time></trkpt><trkpt lat="43.222305" lon="12.971175"><ele>539.0</ele><time>2026-04-04T14:52:35.834Z</time></trkpt><trkpt lat="43.2222" lon="12.9711683"><ele>539.0</ele><time>2026-04-04T14:52:36.836Z</time></trkpt><trkpt lat="43.2220967" lon="12.9711783"><ele>540.0</ele><time>2026-04-04T14:52:37.836Z</time></trkpt><trkpt lat="43.2220083" lon="12.97119"><ele>541.0</ele><time>2026-04-04T14:52:38.835Z</time></trkpt><trkpt lat="43.2219233" lon="12.971205"><ele>542.0</ele><time>2026-04-04T14:52:39.835Z</time></trkpt><trkpt lat="43.22185" lon="12.9712217"><ele>543.0</ele><time>2026-04-04T14:52:40.834Z</time></trkpt><trkpt lat="43.221775" lon="12.97124"><ele>544.0</ele><time>2026-04-04T14:52:41.834Z</time></trkpt><trkpt lat="43.2216983" lon="12.971265"><ele>545.0</ele><time>2026-04-04T14:52:42.835Z</time></trkpt><trkpt lat="43.2216067" lon="12.9712983"><ele>545.0</ele><time>2026-04-04T14:52:43.833Z</time></trkpt><trkpt lat="43.2215117" lon="12.971335"><ele>545.0</ele><time>2026-04-04T14:52:44.836Z</time></trkpt><trkpt lat="43.2214117" lon="12.971365"><ele>545.0</ele><time>2026-04-04T14:52:45.833Z</time></trkpt><trkpt lat="43.2213267" lon="12.9713883"><ele>545.0</ele><time>2026-04-04T14:52:46.834Z</time></trkpt><trkpt lat="43.2212433" lon="12.9714083"><ele>545.0</ele><time>2026-04-04T14:52:47.834Z</time></trkpt><trkpt lat="43.221155" lon="12.9714167"><ele>546.2</ele><time>2026-04-04T14:52:48.834Z</time></trkpt><trkpt lat="43.2210567" lon="12.9714417"><ele>547.4</ele><time>2026-04-04T14:52:49.835Z</time></trkpt><trkpt lat="43.2209633" lon="12.971485"><ele>548.6</ele><time>2026-04-04T14:52:50.837Z</time></trkpt><trkpt lat="43.2208817" lon="12.9715383"><ele>549.8</ele><time>2026-04-04T14:52:51.835Z</time></trkpt><trkpt lat="43.2208017" lon="12.971585"><ele>551.0</ele><time>2026-04-04T14:52:52.835Z</time></trkpt><trkpt lat="43.2207283" lon="12.971625"><ele>552.0</ele><time>2026-04-04T14:52:53.835Z</time></trkpt><trkpt lat="43.220605" lon="12.9716433"><ele>553.0</ele><time>2026-04-04T14:52:55.834Z</time></trkpt><trkpt lat="43.2205317" lon="12.97164"><ele>554.0</ele><time>2026-04-04T14:52:56.835Z</time></trkpt><trkpt lat="43.2204667" lon="12.9716167"><ele>555.0</ele><time>2026-04-04T14:52:57.835Z</time></trkpt><trkpt lat="43.2203933" lon="12.971605"><ele>556.0</ele><time>2026-04-04T14:52:58.834Z</time></trkpt><trkpt lat="43.2203" lon="12.9716017"><ele>557.0</ele><time>2026-04-04T14:52:59.834Z</time></trkpt><trkpt lat="43.220205" lon="12.9716183"><ele>557.0</ele><time>2026-04-04T14:53:00.832Z</time></trkpt><trkpt lat="43.2201183" lon="12.9716467"><ele>557.0</ele><time>2026-04-04T14:53:01.834Z</time></trkpt><trkpt lat="43.2200333" lon="12.97169"><ele>557.0</ele><time>2026-04-04T14:53:02.833Z</time></trkpt><trkpt lat="43.219955" lon="12.9717417"><ele>557.0</ele><time>2026-04-04T14:53:03.835Z</time></trkpt><trkpt lat="43.2198817" lon="12.9718067"><ele>557.0</ele><time>2026-04-04T14:53:04.835Z</time></trkpt><trkpt lat="43.219835" lon="12.9718833"><ele>557.0</ele><time>2026-04-04T14:53:05.833Z</time></trkpt><trkpt lat="43.2198417" lon="12.9720533"><ele>555.5</ele><time>2026-04-04T14:53:07.835Z</time></trkpt><trkpt lat="43.2198683" lon="12.97214"><ele>554.0</ele><time>2026-04-04T14:53:08.835Z</time></trkpt><trkpt lat="43.2199167" lon="12.97222"><ele>552.5</ele><time>2026-04-04T14:53:09.834Z</time></trkpt><trkpt lat="43.2199517" lon="12.972295"><ele>551.0</ele><time>2026-04-04T14:53:10.833Z</time></trkpt><trkpt lat="43.219995" lon="12.9723933"><ele>549.5</ele><time>2026-04-04T14:53:11.833Z</time></trkpt><trkpt lat="43.2200517" lon="12.97251"><ele>548.0</ele><time>2026-04-04T14:53:12.833Z</time></trkpt><trkpt lat="43.2201033" lon="12.97263"><ele>548.0</ele><time>2026-04-04T14:53:13.833Z</time></trkpt><trkpt lat="43.2201383" lon="12.9727467"><ele>548.0</ele><time>2026-04-04T14:53:14.833Z</time></trkpt><trkpt lat="43.2201783" lon="12.972865"><ele>548.0</ele><time>2026-04-04T14:53:15.834Z</time></trkpt><trkpt lat="43.2202267" lon="12.972965"><ele>548.0</ele><time>2026-04-04T14:53:16.835Z</time></trkpt><trkpt lat="43.2202817" lon="12.9730633"><ele>548.0</ele><time>2026-04-04T14:53:17.835Z</time></trkpt><trkpt lat="43.2203317" lon="12.97317"><ele>548.0</ele><time>2026-04-04T14:53:18.834Z</time></trkpt><trkpt lat="43.22038" lon="12.9732717"><ele>548.0</ele><time>2026-04-04T14:53:19.834Z</time></trkpt><trkpt lat="43.2204317" lon="12.973375"><ele>548.0</ele><time>2026-04-04T14:53:20.835Z</time></trkpt><trkpt lat="43.2204833" lon="12.9734817"><ele>548.0</ele><time>2026-04-04T14:53:21.834Z</time></trkpt><trkpt lat="43.2205367" lon="12.973585"><ele>548.0</ele><time>2026-04-04T14:53:22.835Z</time></trkpt><trkpt lat="43.2205917" lon="12.9736767"><ele>548.6</ele><time>2026-04-04T14:53:23.833Z</time></trkpt><trkpt lat="43.2206467" lon="12.97374"><ele>549.1999999999999</ele><time>2026-04-04T14:53:24.834Z</time></trkpt><trkpt lat="43.2207467" lon="12.97379"><ele>549.8</ele><time>2026-04-04T14:53:26.834Z</time></trkpt><trkpt lat="43.2208083" lon="12.9738083"><ele>550.4</ele><time>2026-04-04T14:53:27.833Z</time></trkpt><trkpt lat="43.2209133" lon="12.9738533"><ele>551.0</ele><time>2026-04-04T14:53:29.833Z</time></trkpt><trkpt lat="43.2210267" lon="12.97391"><ele>542.6</ele><time>2026-04-04T14:53:31.834Z</time></trkpt><trkpt lat="43.221115" lon="12.9740083"><ele>534.2</ele><time>2026-04-04T14:53:33.827Z</time></trkpt><trkpt lat="43.221195" lon="12.9740883"><ele>525.8</ele><time>2026-04-04T14:53:35.833Z</time></trkpt><trkpt lat="43.221275" lon="12.974145"><ele>517.4</ele><time>2026-04-04T14:53:37.833Z</time></trkpt><trkpt lat="43.2213417" lon="12.9741967"><ele>509.0</ele><time>2026-04-04T14:53:39.832Z</time></trkpt><trkpt lat="43.2214133" lon="12.97426"><ele>509.0</ele><time>2026-04-04T14:53:41.835Z</time></trkpt><trkpt lat="43.2214783" lon="12.974325"><ele>509.0</ele><time>2026-04-04T14:53:43.834Z</time></trkpt><trkpt lat="43.2215433" lon="12.9744017"><ele>509.0</ele><time>2026-04-04T14:53:46.833Z</time></trkpt><trkpt lat="43.2216167" lon="12.974475"><ele>509.0</ele><time>2026-04-04T14:53:49.832Z</time></trkpt><trkpt lat="43.2217233" lon="12.9745617"><ele>509.0</ele><time>2026-04-04T14:53:51.835Z</time></trkpt><trkpt lat="43.2218333" lon="12.974605"><ele>507.3333333333333</ele><time>2026-04-04T14:53:53.834Z</time></trkpt><trkpt lat="43.2219233" lon="12.97461"><ele>505.66666666666663</ele><time>2026-04-04T14:53:55.835Z</time></trkpt><trkpt lat="43.2220267" lon="12.9746067"><ele>504.0</ele><time>2026-04-04T14:53:57.835Z</time></trkpt><trkpt lat="43.22213" lon="12.9745817"><ele>502.33333333333337</ele><time>2026-04-04T14:53:59.834Z</time></trkpt><trkpt lat="43.2221967" lon="12.9745617"><ele>500.6666666666667</ele><time>2026-04-04T14:54:00.833Z</time></trkpt><trkpt lat="43.222265" lon="12.97455"><ele>499.0</ele><time>2026-04-04T14:54:01.836Z</time></trkpt><trkpt lat="43.2223333" lon="12.9745483"><ele>497.33333333333337</ele><time>2026-04-04T14:54:02.835Z</time></trkpt><trkpt lat="43.2224033" lon="12.9745583"><ele>495.6666666666667</ele><time>2026-04-04T14:54:03.834Z</time></trkpt><trkpt lat="43.222485" lon="12.9745717"><ele>494.0</ele><time>2026-04-04T14:54:04.835Z</time></trkpt><trkpt lat="43.2225733" lon="12.9745783"><ele>492.33333333333337</ele><time>2026-04-04T14:54:05.833Z</time></trkpt><trkpt lat="43.2226683" lon="12.9745817"><ele>490.6666666666667</ele><time>2026-04-04T14:54:06.835Z</time></trkpt><trkpt lat="43.2227667" lon="12.97457"><ele>489.0</ele><time>2026-04-04T14:54:07.834Z</time></trkpt><trkpt lat="43.2228617" lon="12.974575"><ele>489.0</ele><time>2026-04-04T14:54:08.835Z</time></trkpt><trkpt lat="43.2229517" lon="12.9746067"><ele>489.0</ele><time>2026-04-04T14:54:09.833Z</time></trkpt><trkpt lat="43.2230367" lon="12.974655"><ele>489.0</ele><time>2026-04-04T14:54:10.831Z</time></trkpt><trkpt lat="43.2231117" lon="12.97472"><ele>489.0</ele><time>2026-04-04T14:54:11.833Z</time></trkpt><trkpt lat="43.223175" lon="12.974795"><ele>489.0</ele><time>2026-04-04T14:54:12.834Z</time></trkpt><trkpt lat="43.2232267" lon="12.9748917"><ele>489.0</ele><time>2026-04-04T14:54:13.833Z</time></trkpt><trkpt lat="43.2232633" lon="12.975"><ele>485.79999999999995</ele><time>2026-04-04T14:54:14.835Z</time></trkpt><trkpt lat="43.2232933" lon="12.9751317"><ele>482.59999999999997</ele><time>2026-04-04T14:54:15.835Z</time></trkpt><trkpt lat="43.223315" lon="12.975265"><ele>479.4</ele><time>2026-04-04T14:54:16.834Z</time></trkpt><trkpt lat="43.2233367" lon="12.9753983"><ele>476.2</ele><time>2026-04-04T14:54:17.835Z</time></trkpt><trkpt lat="43.2233583" lon="12.975525"><ele>473.0</ele><time>2026-04-04T14:54:18.833Z</time></trkpt><trkpt lat="43.22338" lon="12.9756467"><ele>472.99999999999994</ele><time>2026-04-04T14:54:19.834Z</time></trkpt><trkpt lat="43.2234067" lon="12.9757633"><ele>473.0</ele><time>2026-04-04T14:54:20.835Z</time></trkpt><trkpt lat="43.2234283" lon="12.9758783"><ele>473.0</ele><time>2026-04-04T14:54:21.834Z</time></trkpt><trkpt lat="43.2234567" lon="12.9759883"><ele>473.0</ele><time>2026-04-04T14:54:22.834Z</time></trkpt><trkpt lat="43.223475" lon="12.976085"><ele>472.99999999999994</ele><time>2026-04-04T14:54:23.833Z</time></trkpt><trkpt lat="43.2235033" lon="12.976215"><ele>473.0</ele><time>2026-04-04T14:54:25.834Z</time></trkpt><trkpt lat="43.223545" lon="12.9762983"><ele>472.75</ele><time>2026-04-04T14:56:22.835Z</time></trkpt><trkpt lat="43.22367" lon="12.9762483"><ele>472.5</ele><time>2026-04-04T14:56:24.832Z</time></trkpt><trkpt lat="43.2237567" lon="12.9762083"><ele>472.25</ele><time>2026-04-04T14:56:25.834Z</time></trkpt><trkpt lat="43.223875" lon="12.9761717"><ele>472.0</ele><time>2026-04-04T14:56:26.836Z</time></trkpt><trkpt lat="43.2240017" lon="12.976125"><ele>471.5</ele><time>2026-04-04T14:56:27.833Z</time></trkpt><trkpt lat="43.224135" lon="12.9760783"><ele>471.0</ele><time>2026-04-04T14:56:28.835Z</time></trkpt><trkpt lat="43.2242683" lon="12.9760233"><ele>470.5</ele><time>2026-04-04T14:56:29.833Z</time></trkpt><trkpt lat="43.2244" lon="12.9759633"><ele>470.0</ele><time>2026-04-04T14:56:30.836Z</time></trkpt><trkpt lat="43.224535" lon="12.9759017"><ele>469.5</ele><time>2026-04-04T14:56:31.835Z</time></trkpt><trkpt lat="43.2246733" lon="12.9758433"><ele>469.0</ele><time>2026-04-04T14:56:32.835Z</time></trkpt><trkpt lat="43.2248117" lon="12.975785"><ele>468.5</ele><time>2026-04-04T14:56:33.834Z</time></trkpt><trkpt lat="43.2249483" lon="12.9757183"><ele>468.0</ele><time>2026-04-04T14:56:34.834Z</time></trkpt><trkpt lat="43.22508" lon="12.9756433"><ele>466.75</ele><time>2026-04-04T14:56:35.835Z</time></trkpt><trkpt lat="43.2252083" lon="12.9755733"><ele>465.5</ele><time>2026-04-04T14:56:36.836Z</time></trkpt><trkpt lat="43.22534" lon="12.9755083"><ele>464.25</ele><time>2026-04-04T14:56:37.835Z</time></trkpt><trkpt lat="43.2254717" lon="12.9754417"><ele>463.0</ele><time>2026-04-04T14:56:38.833Z</time></trkpt><trkpt lat="43.2256" lon="12.975365"><ele>462.75</ele><time>2026-04-04T14:56:39.836Z</time></trkpt><trkpt lat="43.2257233" lon="12.9752717"><ele>462.5</ele><time>2026-04-04T14:56:40.833Z</time></trkpt><trkpt lat="43.2258383" lon="12.97515"><ele>462.25</ele><time>2026-04-04T14:56:41.834Z</time></trkpt><trkpt lat="43.2259483" lon="12.9750067"><ele>462.0</ele><time>2026-04-04T14:56:42.834Z</time></trkpt><trkpt lat="43.2260517" lon="12.9748633"><ele>462.0</ele><time>2026-04-04T14:56:43.835Z</time></trkpt><trkpt lat="43.2261567" lon="12.974725"><ele>462.0</ele><time>2026-04-04T14:56:44.835Z</time></trkpt><trkpt lat="43.226265" lon="12.974595"><ele>462.0</ele><time>2026-04-04T14:56:45.834Z</time></trkpt><trkpt lat="43.2263717" lon="12.97448"><ele>462.0</ele><time>2026-04-04T14:56:46.834Z</time></trkpt><trkpt lat="43.2264867" lon="12.9743717"><ele>462.0</ele><time>2026-04-04T14:56:47.834Z</time></trkpt><trkpt lat="43.2266083" lon="12.97428"><ele>462.0</ele><time>2026-04-04T14:56:48.834Z</time></trkpt><trkpt lat="43.22673" lon="12.9742033"><ele>462.0</ele><time>2026-04-04T14:56:49.834Z</time></trkpt><trkpt lat="43.226855" lon="12.974135"><ele>462.0</ele><time>2026-04-04T14:56:50.836Z</time></trkpt><trkpt lat="43.22699" lon="12.9740883"><ele>460.5</ele><time>2026-04-04T14:56:51.835Z</time></trkpt><trkpt lat="43.2271217" lon="12.97405"><ele>459.0</ele><time>2026-04-04T14:56:52.833Z</time></trkpt><trkpt lat="43.22726" lon="12.9740217"><ele>457.5</ele><time>2026-04-04T14:56:53.835Z</time></trkpt><trkpt lat="43.2273983" lon="12.974005"><ele>456.0</ele><time>2026-04-04T14:56:54.835Z</time></trkpt><trkpt lat="43.22754" lon="12.97398"><ele>455.75</ele><time>2026-04-04T14:56:55.834Z</time></trkpt><trkpt lat="43.227675" lon="12.973945"><ele>455.5</ele><time>2026-04-04T14:56:56.836Z</time></trkpt><trkpt lat="43.227805" lon="12.973895"><ele>455.25</ele><time>2026-04-04T14:56:57.832Z</time></trkpt><trkpt lat="43.227925" lon="12.97384"><ele>455.0</ele><time>2026-04-04T14:56:58.833Z</time></trkpt><trkpt lat="43.2280383" lon="12.9737717"><ele>454.25</ele><time>2026-04-04T14:56:59.836Z</time></trkpt><trkpt lat="43.228145" lon="12.9736867"><ele>453.5</ele><time>2026-04-04T14:57:00.835Z</time></trkpt><trkpt lat="43.2282483" lon="12.973585"><ele>452.75</ele><time>2026-04-04T14:57:01.835Z</time></trkpt><trkpt lat="43.2283617" lon="12.97349"><ele>452.0</ele><time>2026-04-04T14:57:02.835Z</time></trkpt><trkpt lat="43.2284917" lon="12.9734133"><ele>452.25</ele><time>2026-04-04T14:57:03.835Z</time></trkpt><trkpt lat="43.2286283" lon="12.9733483"><ele>452.5</ele><time>2026-04-04T14:57:04.833Z</time></trkpt><trkpt lat="43.228775" lon="12.9733083"><ele>452.75</ele><time>2026-04-04T14:57:05.834Z</time></trkpt><trkpt lat="43.2289233" lon="12.97329"><ele>453.0</ele><time>2026-04-04T14:57:06.835Z</time></trkpt><trkpt lat="43.2290717" lon="12.9732883"><ele>451.75</ele><time>2026-04-04T14:57:07.835Z</time></trkpt><trkpt lat="43.229225" lon="12.973305"><ele>450.5</ele><time>2026-04-04T14:57:08.835Z</time></trkpt><trkpt lat="43.2293683" lon="12.97333"><ele>449.25</ele><time>2026-04-04T14:57:09.834Z</time></trkpt><trkpt lat="43.229505" lon="12.9733517"><ele>448.0</ele><time>2026-04-04T14:57:10.834Z</time></trkpt><trkpt lat="43.2296317" lon="12.9733983"><ele>448.0</ele><time>2026-04-04T14:57:11.836Z</time></trkpt><trkpt lat="43.229755" lon="12.9734767"><ele>448.0</ele><time>2026-04-04T14:57:12.835Z</time></trkpt><trkpt lat="43.2298767" lon="12.973565"><ele>448.0</ele><time>2026-04-04T14:57:13.832Z</time></trkpt><trkpt lat="43.23" lon="12.9736417"><ele>448.0</ele><time>2026-04-04T14:57:14.836Z</time></trkpt><trkpt lat="43.2301383" lon="12.973705"><ele>446.6666666666667</ele><time>2026-04-04T14:57:15.833Z</time></trkpt><trkpt lat="43.2302883" lon="12.97376"><ele>445.33333333333337</ele><time>2026-04-04T14:57:16.83Z</time></trkpt><trkpt lat="43.2304483" lon="12.9738117"><ele>444.0</ele><time>2026-04-04T14:57:17.835Z</time></trkpt><trkpt lat="43.230605" lon="12.9738683"><ele>442.0</ele><time>2026-04-04T14:57:18.828Z</time></trkpt><trkpt lat="43.2307583" lon="12.97393"><ele>440.0</ele><time>2026-04-04T14:57:19.834Z</time></trkpt><trkpt lat="43.230905" lon="12.973995"><ele>438.0</ele><time>2026-04-04T14:57:20.835Z</time></trkpt><trkpt lat="43.2310483" lon="12.97405"><ele>438.0</ele><time>2026-04-04T14:57:21.834Z</time></trkpt><trkpt lat="43.2311917" lon="12.9740883"><ele>438.0</ele><time>2026-04-04T14:57:22.834Z</time></trkpt><trkpt lat="43.2313383" lon="12.974115"><ele>438.0</ele><time>2026-04-04T14:57:23.833Z</time></trkpt><trkpt lat="43.231485" lon="12.974135"><ele>438.0</ele><time>2026-04-04T14:57:24.832Z</time></trkpt><trkpt lat="43.23163" lon="12.97414"><ele>437.33333333333337</ele><time>2026-04-04T14:57:25.836Z</time></trkpt><trkpt lat="43.2317783" lon="12.974125"><ele>436.6666666666667</ele><time>2026-04-04T14:57:26.834Z</time></trkpt><trkpt lat="43.2319317" lon="12.9741017"><ele>436.0</ele><time>2026-04-04T14:57:27.834Z</time></trkpt><trkpt lat="43.2320883" lon="12.9740783"><ele>436.0</ele><time>2026-04-04T14:57:28.834Z</time></trkpt><trkpt lat="43.2322417" lon="12.9740633"><ele>436.0</ele><time>2026-04-04T14:57:29.834Z</time></trkpt><trkpt lat="43.2323867" lon="12.9740617"><ele>436.0</ele><time>2026-04-04T14:57:30.833Z</time></trkpt><trkpt lat="43.23253" lon="12.9740783"><ele>436.0</ele><time>2026-04-04T14:57:31.834Z</time></trkpt><trkpt lat="43.2326733" lon="12.9741133"><ele>436.75</ele><time>2026-04-04T14:57:32.836Z</time></trkpt><trkpt lat="43.2328133" lon="12.9741583"><ele>437.5</ele><time>2026-04-04T14:57:33.833Z</time></trkpt><trkpt lat="43.2329483" lon="12.9742117"><ele>438.25</ele><time>2026-04-04T14:57:34.833Z</time></trkpt><trkpt lat="43.2330783" lon="12.97427"><ele>439.0</ele><time>2026-04-04T14:57:35.835Z</time></trkpt><trkpt lat="43.2332083" lon="12.9743267"><ele>437.25</ele><time>2026-04-04T14:57:36.834Z</time></trkpt><trkpt lat="43.23334" lon="12.97437"><ele>435.5</ele><time>2026-04-04T14:57:37.833Z</time></trkpt><trkpt lat="43.233475" lon="12.974395"><ele>433.75</ele><time>2026-04-04T14:57:38.83Z</time></trkpt><trkpt lat="43.233615" lon="12.97439"><ele>432.0</ele><time>2026-04-04T14:57:39.829Z</time></trkpt><trkpt lat="43.2337567" lon="12.974365"><ele>432.0</ele><time>2026-04-04T14:57:40.834Z</time></trkpt><trkpt lat="43.2339" lon="12.9743267"><ele>432.0</ele><time>2026-04-04T14:57:41.834Z</time></trkpt><trkpt lat="43.2340417" lon="12.9742733"><ele>432.0</ele><time>2026-04-04T14:57:42.834Z</time></trkpt><trkpt lat="43.23417" lon="12.9742183"><ele>432.0</ele><time>2026-04-04T14:57:43.834Z</time></trkpt><trkpt lat="43.2342867" lon="12.9741633"><ele>433.25</ele><time>2026-04-04T14:57:44.836Z</time></trkpt><trkpt lat="43.234395" lon="12.9741117"><ele>434.5</ele><time>2026-04-04T14:57:45.833Z</time></trkpt><trkpt lat="43.2345" lon="12.9740633"><ele>435.75</ele><time>2026-04-04T14:57:46.833Z</time></trkpt><trkpt lat="43.23461" lon="12.9740367"><ele>437.0</ele><time>2026-04-04T14:57:47.834Z</time></trkpt><trkpt lat="43.2347317" lon="12.9740383"><ele>435.25</ele><time>2026-04-04T14:57:48.834Z</time></trkpt><trkpt lat="43.2348617" lon="12.9740483"><ele>433.5</ele><time>2026-04-04T14:57:49.84Z</time></trkpt><trkpt lat="43.2349983" lon="12.9740733"><ele>431.75</ele><time>2026-04-04T14:57:50.836Z</time></trkpt><trkpt lat="43.2351433" lon="12.9741017"><ele>430.0</ele><time>2026-04-04T14:57:51.83Z</time></trkpt><trkpt lat="43.23529" lon="12.974145"><ele>430.0</ele><time>2026-04-04T14:57:52.834Z</time></trkpt><trkpt lat="43.2354417" lon="12.9741783"><ele>430.0</ele><time>2026-04-04T14:57:53.836Z</time></trkpt><trkpt lat="43.2355967" lon="12.9742067"><ele>430.0</ele><time>2026-04-04T14:57:54.836Z</time></trkpt><trkpt lat="43.235745" lon="12.9742233"><ele>428.75</ele><time>2026-04-04T14:57:55.836Z</time></trkpt><trkpt lat="43.2358867" lon="12.9742467"><ele>427.5</ele><time>2026-04-04T14:57:56.835Z</time></trkpt><trkpt lat="43.2360117" lon="12.9742717"><ele>426.25</ele><time>2026-04-04T14:57:57.833Z</time></trkpt><trkpt lat="43.23613" lon="12.9742967"><ele>425.0</ele><time>2026-04-04T14:57:58.833Z</time></trkpt><trkpt lat="43.236225" lon="12.97434"><ele>424.99999999999994</ele><time>2026-04-04T14:57:59.835Z</time></trkpt><trkpt lat="43.2362933" lon="12.9743833"><ele>425.0</ele><time>2026-04-04T14:58:00.835Z</time></trkpt><trkpt lat="43.23636" lon="12.9744267"><ele>425.0</ele><time>2026-04-04T14:58:01.833Z</time></trkpt><trkpt lat="43.2364367" lon="12.97448"><ele>425.0</ele><time>2026-04-04T14:58:02.834Z</time></trkpt><trkpt lat="43.236505" lon="12.9745533"><ele>424.99999999999994</ele><time>2026-04-04T14:58:03.835Z</time></trkpt><trkpt lat="43.2365717" lon="12.974645"><ele>425.0</ele><time>2026-04-04T14:58:04.834Z</time></trkpt><trkpt lat="43.2366467" lon="12.9747633"><ele>424.25</ele><time>2026-04-04T14:58:05.834Z</time></trkpt><trkpt lat="43.2367233" lon="12.9748833"><ele>423.5</ele><time>2026-04-04T14:58:06.834Z</time></trkpt><trkpt lat="43.2368067" lon="12.9749833"><ele>422.75</ele><time>2026-04-04T14:58:07.834Z</time></trkpt><trkpt lat="43.2368917" lon="12.9750833"><ele>422.0</ele><time>2026-04-04T14:58:08.835Z</time></trkpt><trkpt lat="43.2369917" lon="12.9751567"><ele>421.5</ele><time>2026-04-04T14:58:09.834Z</time></trkpt><trkpt lat="43.237105" lon="12.9752183"><ele>421.0</ele><time>2026-04-04T14:58:10.835Z</time></trkpt><trkpt lat="43.23724" lon="12.9752633"><ele>420.5</ele><time>2026-04-04T14:58:11.836Z</time></trkpt><trkpt lat="43.2373833" lon="12.9753267"><ele>420.0</ele><time>2026-04-04T14:58:12.834Z</time></trkpt><trkpt lat="43.237525" lon="12.9753833"><ele>419.5</ele><time>2026-04-04T14:58:13.838Z</time></trkpt><trkpt lat="43.237665" lon="12.9754333"><ele>419.0</ele><time>2026-04-04T14:58:14.834Z</time></trkpt><trkpt lat="43.2378033" lon="12.97548"><ele>418.5</ele><time>2026-04-04T14:58:15.836Z</time></trkpt><trkpt lat="43.2379367" lon="12.9755217"><ele>418.0</ele><time>2026-04-04T14:58:16.834Z</time></trkpt><trkpt lat="43.2380683" lon="12.9755667"><ele>417.25</ele><time>2026-04-04T14:58:17.835Z</time></trkpt><trkpt lat="43.2381983" lon="12.9756267"><ele>416.5</ele><time>2026-04-04T14:58:18.835Z</time></trkpt><trkpt lat="43.2383283" lon="12.9756933"><ele>415.75</ele><time>2026-04-04T14:58:19.834Z</time></trkpt><trkpt lat="43.2384583" lon="12.97576"><ele>415.0</ele><time>2026-04-04T14:58:20.836Z</time></trkpt><trkpt lat="43.2385933" lon="12.9758283"><ele>415.0</ele><time>2026-04-04T14:58:21.834Z</time></trkpt><trkpt lat="43.2387317" lon="12.9759067"><ele>415.0</ele><time>2026-04-04T14:58:22.834Z</time></trkpt><trkpt lat="43.238865" lon="12.9759833"><ele>415.0</ele><time>2026-04-04T14:58:23.836Z</time></trkpt><trkpt lat="43.239" lon="12.9760633"><ele>415.0</ele><time>2026-04-04T14:58:24.836Z</time></trkpt><trkpt lat="43.2391333" lon="12.976135"><ele>415.0</ele><time>2026-04-04T14:58:25.835Z</time></trkpt><trkpt lat="43.2392617" lon="12.976205"><ele>415.0</ele><time>2026-04-04T14:58:26.835Z</time></trkpt><trkpt lat="43.2393883" lon="12.9762733"><ele>415.0</ele><time>2026-04-04T14:58:27.835Z</time></trkpt><trkpt lat="43.2395133" lon="12.9763367"><ele>415.0</ele><time>2026-04-04T14:58:28.835Z</time></trkpt><trkpt lat="43.2396317" lon="12.9764083"><ele>415.0</ele><time>2026-04-04T14:58:29.833Z</time></trkpt><trkpt lat="43.2397483" lon="12.976485"><ele>415.0</ele><time>2026-04-04T14:58:30.836Z</time></trkpt><trkpt lat="43.2398667" lon="12.9765633"><ele>415.0</ele><time>2026-04-04T14:58:31.833Z</time></trkpt><trkpt lat="43.2399817" lon="12.9766517"><ele>415.0</ele><time>2026-04-04T14:58:32.835Z</time></trkpt><trkpt lat="43.2401" lon="12.9767417"><ele>413.75</ele><time>2026-04-04T14:58:33.834Z</time></trkpt><trkpt lat="43.2402167" lon="12.97685"><ele>412.5</ele><time>2026-04-04T14:58:34.834Z</time></trkpt><trkpt lat="43.2403283" lon="12.976975"><ele>411.25</ele><time>2026-04-04T14:58:35.835Z</time></trkpt><trkpt lat="43.240445" lon="12.9771067"><ele>410.0</ele><time>2026-04-04T14:58:36.834Z</time></trkpt><trkpt lat="43.2405667" lon="12.9772417"><ele>408.3333333333333</ele><time>2026-04-04T14:58:37.835Z</time></trkpt><trkpt lat="43.2406983" lon="12.9773683"><ele>406.66666666666663</ele><time>2026-04-04T14:58:38.835Z</time></trkpt><trkpt lat="43.2408317" lon="12.9774933"><ele>405.0</ele><time>2026-04-04T14:58:39.834Z</time></trkpt><trkpt lat="43.2409617" lon="12.977615"><ele>405.0</ele><time>2026-04-04T14:58:40.836Z</time></trkpt><trkpt lat="43.2410883" lon="12.9777283"><ele>405.0</ele><time>2026-04-04T14:58:41.834Z</time></trkpt><trkpt lat="43.2412133" lon="12.9778333"><ele>405.0</ele><time>2026-04-04T14:58:42.834Z</time></trkpt><trkpt lat="43.2413317" lon="12.9779317"><ele>405.0</ele><time>2026-04-04T14:58:43.835Z</time></trkpt><trkpt lat="43.2414433" lon="12.97802"><ele>403.75</ele><time>2026-04-04T14:58:44.834Z</time></trkpt><trkpt lat="43.24154" lon="12.9781183"><ele>402.5</ele><time>2026-04-04T14:58:45.835Z</time></trkpt><trkpt lat="43.2416233" lon="12.9782283"><ele>401.25</ele><time>2026-04-04T14:58:46.832Z</time></trkpt><trkpt lat="43.24169" lon="12.9783483"><ele>400.0</ele><time>2026-04-04T14:58:47.836Z</time></trkpt><trkpt lat="43.2417317" lon="12.9784967"><ele>400.0</ele><time>2026-04-04T14:58:48.835Z</time></trkpt><trkpt lat="43.2417533" lon="12.9786683"><ele>400.0</ele><time>2026-04-04T14:58:49.835Z</time></trkpt><trkpt lat="43.2417767" lon="12.9788433"><ele>400.0</ele><time>2026-04-04T14:58:50.837Z</time></trkpt><trkpt lat="43.2418167" lon="12.9790267"><ele>400.0</ele><time>2026-04-04T14:58:51.835Z</time></trkpt><trkpt lat="43.2418817" lon="12.979195"><ele>400.5</ele><time>2026-04-04T14:58:52.834Z</time></trkpt><trkpt lat="43.2419683" lon="12.9793417"><ele>401.0</ele><time>2026-04-04T14:58:53.835Z</time></trkpt><trkpt lat="43.242065" lon="12.9794733"><ele>401.5</ele><time>2026-04-04T14:58:54.836Z</time></trkpt><trkpt lat="43.2421633" lon="12.9796033"><ele>402.0</ele><time>2026-04-04T14:58:55.834Z</time></trkpt><trkpt lat="43.2422517" lon="12.9797433"><ele>401.25</ele><time>2026-04-04T14:58:56.834Z</time></trkpt><trkpt lat="43.2423217" lon="12.9798917"><ele>400.5</ele><time>2026-04-04T14:58:57.832Z</time></trkpt><trkpt lat="43.2424" lon="12.980035"><ele>399.75</ele><time>2026-04-04T14:58:58.834Z</time></trkpt><trkpt lat="43.2424883" lon="12.9801733"><ele>399.0</ele><time>2026-04-04T14:58:59.834Z</time></trkpt><trkpt lat="43.2425967" lon="12.9803117"><ele>399.0</ele><time>2026-04-04T14:59:00.834Z</time></trkpt><trkpt lat="43.2427083" lon="12.9804517"><ele>399.0</ele><time>2026-04-04T14:59:01.834Z</time></trkpt><trkpt lat="43.2428217" lon="12.980595"><ele>399.0</ele><time>2026-04-04T14:59:02.835Z</time></trkpt><trkpt lat="43.2429283" lon="12.9807467"><ele>399.0</ele><time>2026-04-04T14:59:03.836Z</time></trkpt><trkpt lat="43.2430267" lon="12.98089"><ele>399.0</ele><time>2026-04-04T14:59:04.832Z</time></trkpt><trkpt lat="43.24312" lon="12.98103"><ele>399.0</ele><time>2026-04-04T14:59:05.835Z</time></trkpt><trkpt lat="43.2432067" lon="12.9811717"><ele>399.0</ele><time>2026-04-04T14:59:06.833Z</time></trkpt><trkpt lat="43.243285" lon="12.981325"><ele>398.25</ele><time>2026-04-04T14:59:07.835Z</time></trkpt><trkpt lat="43.2433417" lon="12.9814967"><ele>397.5</ele><time>2026-04-04T14:59:08.835Z</time></trkpt><trkpt lat="43.2433567" lon="12.9816783"><ele>396.75</ele><time>2026-04-04T14:59:09.833Z</time></trkpt><trkpt lat="43.2433367" lon="12.981855"><ele>396.0</ele><time>2026-04-04T14:59:10.833Z</time></trkpt><trkpt lat="43.24328" lon="12.9820267"><ele>395.8</ele><time>2026-04-04T14:59:11.832Z</time></trkpt><trkpt lat="43.2432133" lon="12.9821917"><ele>395.6</ele><time>2026-04-04T14:59:12.835Z</time></trkpt><trkpt lat="43.2431667" lon="12.98235"><ele>395.4</ele><time>2026-04-04T14:59:13.834Z</time></trkpt><trkpt lat="43.24315" lon="12.982475"><ele>395.2</ele><time>2026-04-04T14:59:14.835Z</time></trkpt><trkpt lat="43.24316" lon="12.98258"><ele>395.0</ele><time>2026-04-04T14:59:15.834Z</time></trkpt><trkpt lat="43.243195" lon="12.9826767"><ele>395.0</ele><time>2026-04-04T14:59:16.833Z</time></trkpt><trkpt lat="43.24324" lon="12.9827733"><ele>395.0</ele><time>2026-04-04T14:59:17.836Z</time></trkpt><trkpt lat="43.24329" lon="12.9828683"><ele>395.0</ele><time>2026-04-04T14:59:18.836Z</time></trkpt><trkpt lat="43.2433367" lon="12.9829733"><ele>395.0</ele><time>2026-04-04T14:59:19.835Z</time></trkpt><trkpt lat="43.24338" lon="12.983095"><ele>395.0</ele><time>2026-04-04T14:59:20.836Z</time></trkpt><trkpt lat="43.243415" lon="12.9832333"><ele>395.25</ele><time>2026-04-04T14:59:21.837Z</time></trkpt><trkpt lat="43.2434417" lon="12.983385"><ele>395.5</ele><time>2026-04-04T14:59:22.833Z</time></trkpt><trkpt lat="43.2434633" lon="12.983545"><ele>395.75</ele><time>2026-04-04T14:59:23.832Z</time></trkpt><trkpt lat="43.2434733" lon="12.9837217"><ele>396.0</ele><time>2026-04-04T14:59:24.835Z</time></trkpt><trkpt lat="43.2434717" lon="12.9839083"><ele>396.0</ele><time>2026-04-04T14:59:25.835Z</time></trkpt><trkpt lat="43.24346" lon="12.9841067"><ele>396.0</ele><time>2026-04-04T14:59:26.834Z</time></trkpt><trkpt lat="43.24345" lon="12.9843067"><ele>396.0</ele><time>2026-04-04T14:59:27.837Z</time></trkpt><trkpt lat="43.2434417" lon="12.984505"><ele>396.0</ele><time>2026-04-04T14:59:28.835Z</time></trkpt><trkpt lat="43.2434333" lon="12.9846967"><ele>396.0</ele><time>2026-04-04T14:59:29.836Z</time></trkpt><trkpt lat="43.243425" lon="12.98489"><ele>396.0</ele><time>2026-04-04T14:59:30.836Z</time></trkpt><trkpt lat="43.243415" lon="12.9850833"><ele>396.0</ele><time>2026-04-04T14:59:31.835Z</time></trkpt><trkpt lat="43.243395" lon="12.9852717"><ele>396.0</ele><time>2026-04-04T14:59:32.831Z</time></trkpt><trkpt lat="43.2433583" lon="12.9854517"><ele>396.0</ele><time>2026-04-04T14:59:33.833Z</time></trkpt><trkpt lat="43.2433117" lon="12.9856283"><ele>396.0</ele><time>2026-04-04T14:59:34.833Z</time></trkpt><trkpt lat="43.2432633" lon="12.9858"><ele>396.0</ele><time>2026-04-04T14:59:35.833Z</time></trkpt><trkpt lat="43.24322" lon="12.98598"><ele>396.0</ele><time>2026-04-04T14:59:36.834Z</time></trkpt><trkpt lat="43.243185" lon="12.986165"><ele>395.25</ele><time>2026-04-04T14:59:37.835Z</time></trkpt><trkpt lat="43.2431567" lon="12.9863483"><ele>394.5</ele><time>2026-04-04T14:59:38.836Z</time></trkpt><trkpt lat="43.2431367" lon="12.9865333"><ele>393.75</ele><time>2026-04-04T14:59:39.834Z</time></trkpt><trkpt lat="43.2431367" lon="12.98672"><ele>393.0</ele><time>2026-04-04T14:59:40.834Z</time></trkpt><trkpt lat="43.2431567" lon="12.9869083"><ele>392.0</ele><time>2026-04-04T14:59:41.833Z</time></trkpt><trkpt lat="43.2431833" lon="12.9871017"><ele>391.0</ele><time>2026-04-04T14:59:42.837Z</time></trkpt><trkpt lat="43.2432" lon="12.987295"><ele>390.0</ele><time>2026-04-04T14:59:43.836Z</time></trkpt><trkpt lat="43.24321" lon="12.9874883"><ele>389.0</ele><time>2026-04-04T14:59:44.835Z</time></trkpt><trkpt lat="43.2432133" lon="12.9876817"><ele>388.66666666666663</ele><time>2026-04-04T14:59:45.834Z</time></trkpt><trkpt lat="43.2432083" lon="12.9878783"><ele>388.33333333333337</ele><time>2026-04-04T14:59:46.829Z</time></trkpt><trkpt lat="43.2431967" lon="12.98809"><ele>388.0</ele><time>2026-04-04T14:59:47.838Z</time></trkpt><trkpt lat="43.243175" lon="12.9883067"><ele>387.6666666666667</ele><time>2026-04-04T14:59:48.835Z</time></trkpt><trkpt lat="43.2431483" lon="12.9885267"><ele>387.33333333333337</ele><time>2026-04-04T14:59:49.836Z</time></trkpt><trkpt lat="43.24312" lon="12.9887467"><ele>387.0</ele><time>2026-04-04T14:59:50.837Z</time></trkpt><trkpt lat="43.2430883" lon="12.9889633"><ele>387.66666666666663</ele><time>2026-04-04T14:59:51.835Z</time></trkpt><trkpt lat="43.2430483" lon="12.9891817"><ele>388.3333333333333</ele><time>2026-04-04T14:59:52.835Z</time></trkpt><trkpt lat="43.2430133" lon="12.9894083"><ele>389.0</ele><time>2026-04-04T14:59:53.834Z</time></trkpt><trkpt lat="43.2429967" lon="12.9896433"><ele>389.0</ele><time>2026-04-04T14:59:54.833Z</time></trkpt><trkpt lat="43.2429767" lon="12.9898717"><ele>389.0</ele><time>2026-04-04T14:59:55.833Z</time></trkpt><trkpt lat="43.242965" lon="12.9900967"><ele>389.0</ele><time>2026-04-04T14:59:56.835Z</time></trkpt><trkpt lat="43.2429567" lon="12.99031"><ele>389.0</ele><time>2026-04-04T14:59:57.834Z</time></trkpt><trkpt lat="43.24296" lon="12.99052"><ele>389.0</ele><time>2026-04-04T14:59:58.833Z</time></trkpt><trkpt lat="43.2429717" lon="12.9907233"><ele>389.0</ele><time>2026-04-04T14:59:59.835Z</time></trkpt><trkpt lat="43.2429883" lon="12.9909117"><ele>389.0</ele><time>2026-04-04T15:00:00.832Z</time></trkpt><trkpt lat="43.2430017" lon="12.991075"><ele>388.49999999999994</ele><time>2026-04-04T15:00:01.83Z</time></trkpt><trkpt lat="43.2430067" lon="12.99121"><ele>388.0</ele><time>2026-04-04T15:00:02.835Z</time></trkpt><trkpt lat="43.2430083" lon="12.9913067"><ele>387.5</ele><time>2026-04-04T15:00:03.83Z</time></trkpt><trkpt lat="43.2430067" lon="12.991415"><ele>387.0</ele><time>2026-04-04T15:00:05.835Z</time></trkpt><trkpt lat="43.2429583" lon="12.991505"><ele>386.49999999999994</ele><time>2026-04-04T15:00:07.835Z</time></trkpt><trkpt lat="43.2428917" lon="12.9915533"><ele>386.0</ele><time>2026-04-04T15:00:08.836Z</time></trkpt><trkpt lat="43.2427983" lon="12.9916167"><ele>384.5</ele><time>2026-04-04T15:00:09.836Z</time></trkpt><trkpt lat="43.24269" lon="12.991695"><ele>383.0</ele><time>2026-04-04T15:00:10.833Z</time></trkpt><trkpt lat="43.2425817" lon="12.9917767"><ele>381.5</ele><time>2026-04-04T15:00:11.832Z</time></trkpt><trkpt lat="43.2424767" lon="12.9918567"><ele>380.0</ele><time>2026-04-04T15:00:12.835Z</time></trkpt><trkpt lat="43.24237" lon="12.99194"><ele>381.5</ele><time>2026-04-04T15:00:13.835Z</time></trkpt><trkpt lat="43.2422583" lon="12.9920267"><ele>383.0</ele><time>2026-04-04T15:00:14.836Z</time></trkpt><trkpt lat="43.24214" lon="12.9921217"><ele>384.5</ele><time>2026-04-04T15:00:15.836Z</time></trkpt><trkpt lat="43.2420233" lon="12.9922183"><ele>386.0</ele><time>2026-04-04T15:00:16.839Z</time></trkpt><trkpt lat="43.2419017" lon="12.9923183"><ele>386.0</ele><time>2026-04-04T15:00:17.834Z</time></trkpt><trkpt lat="43.2417833" lon="12.9924317"><ele>386.0</ele><time>2026-04-04T15:00:18.835Z</time></trkpt><trkpt lat="43.24168" lon="12.992565"><ele>386.0</ele><time>2026-04-04T15:00:19.834Z</time></trkpt><trkpt lat="43.2415917" lon="12.99271"><ele>386.0</ele><time>2026-04-04T15:00:20.839Z</time></trkpt><trkpt lat="43.24153" lon="12.9928683"><ele>387.0</ele><time>2026-04-04T15:00:21.836Z</time></trkpt><trkpt lat="43.2414983" lon="12.993035"><ele>388.0</ele><time>2026-04-04T15:00:22.836Z</time></trkpt><trkpt lat="43.241525" lon="12.9932"><ele>389.0</ele><time>2026-04-04T15:00:23.835Z</time></trkpt><trkpt lat="43.2415967" lon="12.9933417"><ele>390.0</ele><time>2026-04-04T15:00:24.835Z</time></trkpt><trkpt lat="43.2417083" lon="12.9934483"><ele>392.0</ele><time>2026-04-04T15:00:25.836Z</time></trkpt><trkpt lat="43.2418367" lon="12.9935283"><ele>394.0</ele><time>2026-04-04T15:00:26.835Z</time></trkpt><trkpt lat="43.2419717" lon="12.9936183"><ele>396.0</ele><time>2026-04-04T15:00:27.835Z</time></trkpt><trkpt lat="43.2421067" lon="12.9937317"><ele>398.0</ele><time>2026-04-04T15:00:28.836Z</time></trkpt><trkpt lat="43.242245" lon="12.9938717"><ele>393.3333333333333</ele><time>2026-04-04T15:00:29.835Z</time></trkpt><trkpt lat="43.24238" lon="12.9940333"><ele>388.66666666666663</ele><time>2026-04-04T15:00:30.835Z</time></trkpt><trkpt lat="43.242505" lon="12.99421"><ele>384.0</ele><time>2026-04-04T15:00:31.836Z</time></trkpt><trkpt lat="43.2426183" lon="12.99439"><ele>384.0</ele><time>2026-04-04T15:00:32.834Z</time></trkpt><trkpt lat="43.2427267" lon="12.9945733"><ele>384.0</ele><time>2026-04-04T15:00:33.833Z</time></trkpt><trkpt lat="43.2428267" lon="12.9947667"><ele>384.0</ele><time>2026-04-04T15:00:34.834Z</time></trkpt><trkpt lat="43.24292" lon="12.9949583"><ele>382.6666666666667</ele><time>2026-04-04T15:00:35.834Z</time></trkpt><trkpt lat="43.243005" lon="12.9951517"><ele>381.33333333333337</ele><time>2026-04-04T15:00:36.834Z</time></trkpt><trkpt lat="43.243085" lon="12.9953467"><ele>380.0</ele><time>2026-04-04T15:00:37.835Z</time></trkpt><trkpt lat="43.2431667" lon="12.9955367"><ele>379.33333333333337</ele><time>2026-04-04T15:00:38.835Z</time></trkpt><trkpt lat="43.2432467" lon="12.99572"><ele>378.6666666666667</ele><time>2026-04-04T15:00:39.837Z</time></trkpt><trkpt lat="43.24333" lon="12.9959017"><ele>378.0</ele><time>2026-04-04T15:00:40.834Z</time></trkpt><trkpt lat="43.243415" lon="12.9960883"><ele>377.6666666666667</ele><time>2026-04-04T15:00:41.835Z</time></trkpt><trkpt lat="43.2434967" lon="12.996275"><ele>377.33333333333337</ele><time>2026-04-04T15:00:42.835Z</time></trkpt><trkpt lat="43.2435783" lon="12.9964617"><ele>377.0</ele><time>2026-04-04T15:00:43.837Z</time></trkpt><trkpt lat="43.24366" lon="12.9966467"><ele>376.33333333333337</ele><time>2026-04-04T15:00:44.835Z</time></trkpt><trkpt lat="43.2437383" lon="12.9968233"><ele>375.6666666666667</ele><time>2026-04-04T15:00:45.835Z</time></trkpt><trkpt lat="43.2438167" lon="12.997"><ele>375.0</ele><time>2026-04-04T15:00:46.833Z</time></trkpt><trkpt lat="43.2438967" lon="12.9971733"><ele>374.5</ele><time>2026-04-04T15:00:47.836Z</time></trkpt><trkpt lat="43.243975" lon="12.9973483"><ele>374.0</ele><time>2026-04-04T15:00:48.836Z</time></trkpt><trkpt lat="43.24405" lon="12.99752"><ele>373.5</ele><time>2026-04-04T15:00:49.834Z</time></trkpt><trkpt lat="43.2441267" lon="12.9976883"><ele>373.0</ele><time>2026-04-04T15:00:50.837Z</time></trkpt><trkpt lat="43.244205" lon="12.9978617"><ele>373.0</ele><time>2026-04-04T15:00:51.835Z</time></trkpt><trkpt lat="43.24428" lon="12.998035"><ele>373.0</ele><time>2026-04-04T15:00:52.834Z</time></trkpt><trkpt lat="43.2443533" lon="12.9982017"><ele>373.0</ele><time>2026-04-04T15:00:53.835Z</time></trkpt><trkpt lat="43.244425" lon="12.99836"><ele>373.0</ele><time>2026-04-04T15:00:54.834Z</time></trkpt><trkpt lat="43.2444917" lon="12.9985117"><ele>372.79999999999995</ele><time>2026-04-04T15:00:55.835Z</time></trkpt><trkpt lat="43.2445517" lon="12.9986533"><ele>372.6</ele><time>2026-04-04T15:00:56.835Z</time></trkpt><trkpt lat="43.2446117" lon="12.9987883"><ele>372.4</ele><time>2026-04-04T15:00:57.835Z</time></trkpt><trkpt lat="43.2446683" lon="12.9989167"><ele>372.20000000000005</ele><time>2026-04-04T15:00:58.832Z</time></trkpt><trkpt lat="43.2447217" lon="12.9990383"><ele>372.0</ele><time>2026-04-04T15:00:59.835Z</time></trkpt><trkpt lat="43.2447683" lon="12.999155"><ele>372.1666666666667</ele><time>2026-04-04T15:01:00.836Z</time></trkpt><trkpt lat="43.2448017" lon="12.999265"><ele>372.3333333333333</ele><time>2026-04-04T15:01:01.837Z</time></trkpt><trkpt lat="43.244815" lon="12.9993667"><ele>372.5</ele><time>2026-04-04T15:01:02.832Z</time></trkpt><trkpt lat="43.2448083" lon="12.9994583"><ele>372.66666666666663</ele><time>2026-04-04T15:01:03.834Z</time></trkpt><trkpt lat="43.2447633" lon="12.9995733"><ele>372.8333333333333</ele><time>2026-04-04T15:01:05.835Z</time></trkpt><trkpt lat="43.2447533" lon="12.99967"><ele>373.0</ele><time>2026-04-04T15:05:10.833Z</time></trkpt><trkpt lat="43.2448283" lon="12.99966"><ele>373.0</ele><time>2026-04-04T15:05:11.834Z</time></trkpt><trkpt lat="43.24491" lon="12.9996583"><ele>373.0</ele><time>2026-04-04T15:05:12.835Z</time></trkpt><trkpt lat="43.2449933" lon="12.9996883"><ele>373.0</ele><time>2026-04-04T15:05:13.833Z</time></trkpt><trkpt lat="43.2450617" lon="12.9997783"><ele>373.0</ele><time>2026-04-04T15:05:14.835Z</time></trkpt><trkpt lat="43.2451167" lon="12.999895"><ele>373.0</ele><time>2026-04-04T15:05:15.834Z</time></trkpt><trkpt lat="43.2451617" lon="13.0"><ele>373.0</ele><time>2026-04-04T15:05:16.833Z</time></trkpt><trkpt lat="43.2451933" lon="13.0000767"><ele>373.0</ele><time>2026-04-04T15:05:17.834Z</time></trkpt><trkpt lat="43.2452317" lon="13.00016"><ele>373.0</ele><time>2026-04-04T15:05:19.836Z</time></trkpt><trkpt lat="43.245275" lon="13.0002233"><ele>373.0</ele><time>2026-04-04T15:05:21.836Z</time></trkpt><trkpt lat="43.2453633" lon="13.00022"><ele>373.0</ele><time>2026-04-04T15:05:23.836Z</time></trkpt><trkpt lat="43.24542" lon="13.00018"><ele>373.0</ele><time>2026-04-04T15:05:24.834Z</time></trkpt><trkpt lat="43.2454817" lon="13.0001117"><ele>373.0</ele><time>2026-04-04T15:05:25.834Z</time></trkpt><trkpt lat="43.2455467" lon="13.0000233"><ele>373.0</ele><time>2026-04-04T15:05:26.836Z</time></trkpt><trkpt lat="43.2456133" lon="12.9999317"><ele>373.0</ele><time>2026-04-04T15:05:27.834Z</time></trkpt><trkpt lat="43.2456817" lon="12.9998383"><ele>373.0</ele><time>2026-04-04T15:05:28.833Z</time></trkpt><trkpt lat="43.2457433" lon="12.999755"><ele>373.0</ele><time>2026-04-04T15:05:29.831Z</time></trkpt><trkpt lat="43.2457983" lon="12.9996817"><ele>373.0</ele><time>2026-04-04T15:05:30.834Z</time></trkpt><trkpt lat="43.2458533" lon="12.999625"><ele>373.0</ele><time>2026-04-04T15:05:31.834Z</time></trkpt><trkpt lat="43.2459517" lon="12.9996133"><ele>372.79999999999995</ele><time>2026-04-04T15:05:33.836Z</time></trkpt><trkpt lat="43.24604" lon="12.9997567"><ele>372.6</ele><time>2026-04-04T15:05:35.833Z</time></trkpt><trkpt lat="43.246085" lon="12.999855"><ele>372.4</ele><time>2026-04-04T15:05:36.834Z</time></trkpt><trkpt lat="43.2461267" lon="12.9999567"><ele>372.20000000000005</ele><time>2026-04-04T15:05:37.835Z</time></trkpt><trkpt lat="43.2461683" lon="13.000065"><ele>372.0</ele><time>2026-04-04T15:05:38.836Z</time></trkpt><trkpt lat="43.2462183" lon="13.000185"><ele>372.0</ele><time>2026-04-04T15:05:39.834Z</time></trkpt><trkpt lat="43.2462717" lon="13.0003067"><ele>372.0</ele><time>2026-04-04T15:05:40.835Z</time></trkpt><trkpt lat="43.2463233" lon="13.0004267"><ele>372.0</ele><time>2026-04-04T15:05:41.834Z</time></trkpt><trkpt lat="43.2463817" lon="13.0005417"><ele>372.0</ele><time>2026-04-04T15:05:42.834Z</time></trkpt><trkpt lat="43.24643" lon="13.00066"><ele>372.0</ele><time>2026-04-04T15:05:43.835Z</time></trkpt><trkpt lat="43.24648" lon="13.0007733"><ele>371.6</ele><time>2026-04-04T15:05:44.836Z</time></trkpt><trkpt lat="43.2465217" lon="13.0008833"><ele>371.20000000000005</ele><time>2026-04-04T15:05:45.835Z</time></trkpt><trkpt lat="43.2465667" lon="13.00099"><ele>370.8</ele><time>2026-04-04T15:05:46.835Z</time></trkpt><trkpt lat="43.2466133" lon="13.0011"><ele>370.4</ele><time>2026-04-04T15:05:47.833Z</time></trkpt><trkpt lat="43.246665" lon="13.0012167"><ele>370.0</ele><time>2026-04-04T15:05:48.834Z</time></trkpt><trkpt lat="43.2467167" lon="13.0013367"><ele>370.0</ele><time>2026-04-04T15:05:49.835Z</time></trkpt><trkpt lat="43.2467717" lon="13.00146"><ele>370.0</ele><time>2026-04-04T15:05:50.836Z</time></trkpt><trkpt lat="43.24683" lon="13.0015817"><ele>370.0</ele><time>2026-04-04T15:05:51.835Z</time></trkpt><trkpt lat="43.2468833" lon="13.0017117"><ele>370.0</ele><time>2026-04-04T15:05:52.828Z</time></trkpt><trkpt lat="43.2469417" lon="13.00184"><ele>370.0</ele><time>2026-04-04T15:05:53.835Z</time></trkpt><trkpt lat="43.2469917" lon="13.0019617"><ele>369.66666666666663</ele><time>2026-04-04T15:05:54.835Z</time></trkpt><trkpt lat="43.2470483" lon="13.002075"><ele>369.3333333333333</ele><time>2026-04-04T15:05:55.834Z</time></trkpt><trkpt lat="43.2471033" lon="13.0021867"><ele>369.0</ele><time>2026-04-04T15:05:56.835Z</time></trkpt><trkpt lat="43.2471633" lon="13.0022817"><ele>368.6666666666667</ele><time>2026-04-04T15:05:57.834Z</time></trkpt><trkpt lat="43.2472183" lon="13.0023633"><ele>368.33333333333337</ele><time>2026-04-04T15:05:58.834Z</time></trkpt><trkpt lat="43.2472683" lon="13.0024383"><ele>368.0</ele><time>2026-04-04T15:05:59.832Z</time></trkpt><trkpt lat="43.247315" lon="13.0025017"><ele>368.0</ele><time>2026-04-04T15:06:00.835Z</time></trkpt><trkpt lat="43.2473733" lon="13.002535"><ele>368.0</ele><time>2026-04-04T15:06:01.833Z</time></trkpt><trkpt lat="43.2474867" lon="13.002515"><ele>368.0</ele><time>2026-04-04T15:06:03.832Z</time></trkpt><trkpt lat="43.24751" lon="13.00243"><ele>368.0</ele><time>2026-04-04T15:06:04.833Z</time></trkpt><trkpt lat="43.2475183" lon="13.0023217"><ele>368.0</ele><time>2026-04-04T15:06:05.834Z</time></trkpt><trkpt lat="43.247525" lon="13.0021933"><ele>368.0</ele><time>2026-04-04T15:06:06.835Z</time></trkpt><trkpt lat="43.2475433" lon="13.0020667"><ele>368.0</ele><time>2026-04-04T15:06:07.832Z</time></trkpt><trkpt lat="43.247585" lon="13.0019483"><ele>368.0</ele><time>2026-04-04T15:06:08.836Z</time></trkpt><trkpt lat="43.2476567" lon="13.00184"><ele>368.0</ele><time>2026-04-04T15:06:09.833Z</time></trkpt><trkpt lat="43.2477483" lon="13.0017517"><ele>368.0</ele><time>2026-04-04T15:06:10.833Z</time></trkpt><trkpt lat="43.247855" lon="13.0016767"><ele>368.0</ele><time>2026-04-04T15:06:11.834Z</time></trkpt><trkpt lat="43.2479683" lon="13.00163"><ele>367.5</ele><time>2026-04-04T15:06:12.834Z</time></trkpt><trkpt lat="43.2480833" lon="13.0016"><ele>367.0</ele><time>2026-04-04T15:06:13.834Z</time></trkpt><trkpt lat="43.2481983" lon="13.0015817"><ele>366.5</ele><time>2026-04-04T15:06:14.835Z</time></trkpt><trkpt lat="43.2483083" lon="13.0015617"><ele>366.0</ele><time>2026-04-04T15:06:15.833Z</time></trkpt><trkpt lat="43.2484183" lon="13.0015433"><ele>363.75</ele><time>2026-04-04T15:06:16.833Z</time></trkpt><trkpt lat="43.2485283" lon="13.0015133"><ele>361.5</ele><time>2026-04-04T15:06:17.832Z</time></trkpt><trkpt lat="43.2486383" lon="13.001465"><ele>359.25</ele><time>2026-04-04T15:06:18.835Z</time></trkpt><trkpt lat="43.2487467" lon="13.0014067"><ele>357.0</ele><time>2026-04-04T15:06:19.835Z</time></trkpt><trkpt lat="43.24885" lon="13.0013333"><ele>357.0</ele><time>2026-04-04T15:06:20.835Z</time></trkpt><trkpt lat="43.248955" lon="13.0012517"><ele>357.0</ele><time>2026-04-04T15:06:21.833Z</time></trkpt><trkpt lat="43.2490633" lon="13.0011667"><ele>357.0</ele><time>2026-04-04T15:06:22.833Z</time></trkpt><trkpt lat="43.249175" lon="13.00108"><ele>357.0</ele><time>2026-04-04T15:06:23.833Z</time></trkpt><trkpt lat="43.249285" lon="13.0009917"><ele>354.25</ele><time>2026-04-04T15:06:24.832Z</time></trkpt><trkpt lat="43.249395" lon="13.0009067"><ele>351.5</ele><time>2026-04-04T15:06:25.833Z</time></trkpt><trkpt lat="43.249505" lon="13.0008183"><ele>348.75</ele><time>2026-04-04T15:06:26.834Z</time></trkpt><trkpt lat="43.2496133" lon="13.0007317"><ele>346.0</ele><time>2026-04-04T15:06:27.833Z</time></trkpt><trkpt lat="43.2497183" lon="13.0006617"><ele>347.0</ele><time>2026-04-04T15:06:28.831Z</time></trkpt><trkpt lat="43.2498317" lon="13.0006167"><ele>348.0</ele><time>2026-04-04T15:06:29.834Z</time></trkpt><trkpt lat="43.24996" lon="13.0005967"><ele>349.0</ele><time>2026-04-04T15:06:30.833Z</time></trkpt><trkpt lat="43.2500933" lon="13.0006167"><ele>350.0</ele><time>2026-04-04T15:06:31.836Z</time></trkpt><trkpt lat="43.250225" lon="13.0006667"><ele>350.0</ele><time>2026-04-04T15:06:32.834Z</time></trkpt><trkpt lat="43.250355" lon="13.000735"><ele>350.0</ele><time>2026-04-04T15:06:33.833Z</time></trkpt><trkpt lat="43.25048" lon="13.0008283"><ele>350.0</ele><time>2026-04-04T15:06:34.834Z</time></trkpt><trkpt lat="43.2505933" lon="13.0009417"><ele>350.0</ele><time>2026-04-04T15:06:35.834Z</time></trkpt><trkpt lat="43.2506967" lon="13.0010717"><ele>349.5</ele><time>2026-04-04T15:06:36.833Z</time></trkpt><trkpt lat="43.2507917" lon="13.0012167"><ele>349.0</ele><time>2026-04-04T15:06:37.833Z</time></trkpt><trkpt lat="43.2508683" lon="13.0013783"><ele>348.5</ele><time>2026-04-04T15:06:38.834Z</time></trkpt><trkpt lat="43.2509333" lon="13.0015467"><ele>348.0</ele><time>2026-04-04T15:06:39.833Z</time></trkpt><trkpt lat="43.250985" lon="13.00172"><ele>346.25</ele><time>2026-04-04T15:06:40.829Z</time></trkpt><trkpt lat="43.2510317" lon="13.0018917"><ele>344.5</ele><time>2026-04-04T15:06:41.832Z</time></trkpt><trkpt lat="43.2510783" lon="13.002055"><ele>342.75</ele><time>2026-04-04T15:06:42.833Z</time></trkpt><trkpt lat="43.251135" lon="13.0022117"><ele>341.0</ele><time>2026-04-04T15:06:43.833Z</time></trkpt><trkpt lat="43.2511983" lon="13.0023583"><ele>341.0</ele><time>2026-04-04T15:06:44.831Z</time></trkpt><trkpt lat="43.2512717" lon="13.0024967"><ele>341.0</ele><time>2026-04-04T15:06:45.831Z</time></trkpt><trkpt lat="43.2513467" lon="13.0026267"><ele>341.0</ele><time>2026-04-04T15:06:46.834Z</time></trkpt><trkpt lat="43.2514333" lon="13.00275"><ele>341.0</ele><time>2026-04-04T15:06:47.833Z</time></trkpt><trkpt lat="43.2515333" lon="13.0028717"><ele>341.0</ele><time>2026-04-04T15:06:48.833Z</time></trkpt><trkpt lat="43.2516417" lon="13.0029867"><ele>341.0</ele><time>2026-04-04T15:06:49.834Z</time></trkpt><trkpt lat="43.2517533" lon="13.0031"><ele>341.0</ele><time>2026-04-04T15:06:50.834Z</time></trkpt><trkpt lat="43.251865" lon="13.0032167"><ele>341.0</ele><time>2026-04-04T15:06:51.834Z</time></trkpt><trkpt lat="43.251975" lon="13.0033367"><ele>341.0</ele><time>2026-04-04T15:06:52.834Z</time></trkpt><trkpt lat="43.2520767" lon="13.00347"><ele>341.0</ele><time>2026-04-04T15:06:53.833Z</time></trkpt><trkpt lat="43.25218" lon="13.0036017"><ele>341.0</ele><time>2026-04-04T15:06:54.832Z</time></trkpt><trkpt lat="43.2522867" lon="13.00372"><ele>341.0</ele><time>2026-04-04T15:06:55.832Z</time></trkpt><trkpt lat="43.2523983" lon="13.0038317"><ele>340.25</ele><time>2026-04-04T15:06:56.835Z</time></trkpt><trkpt lat="43.2525117" lon="13.0039433"><ele>339.5</ele><time>2026-04-04T15:06:57.832Z</time></trkpt><trkpt lat="43.252625" lon="13.0040533"><ele>338.75</ele><time>2026-04-04T15:06:58.831Z</time></trkpt><trkpt lat="43.252735" lon="13.00416"><ele>338.0</ele><time>2026-04-04T15:06:59.833Z</time></trkpt><trkpt lat="43.2528517" lon="13.0042667"><ele>338.0</ele><time>2026-04-04T15:07:00.833Z</time></trkpt><trkpt lat="43.25297" lon="13.0043733"><ele>338.0</ele><time>2026-04-04T15:07:01.833Z</time></trkpt><trkpt lat="43.2530917" lon="13.0044717"><ele>338.0</ele><time>2026-04-04T15:07:02.833Z</time></trkpt><trkpt lat="43.253215" lon="13.0045767"><ele>338.0</ele><time>2026-04-04T15:07:03.833Z</time></trkpt><trkpt lat="43.2533333" lon="13.004675"><ele>339.5</ele><time>2026-04-04T15:07:04.833Z</time></trkpt><trkpt lat="43.2534567" lon="13.0047667"><ele>341.0</ele><time>2026-04-04T15:07:05.833Z</time></trkpt><trkpt lat="43.2535833" lon="13.0048417"><ele>342.5</ele><time>2026-04-04T15:07:06.833Z</time></trkpt><trkpt lat="43.25372" lon="13.0049017"><ele>344.0</ele><time>2026-04-04T15:07:07.833Z</time></trkpt><trkpt lat="43.2538617" lon="13.0049467"><ele>343.5</ele><time>2026-04-04T15:07:08.831Z</time></trkpt><trkpt lat="43.2540017" lon="13.0049933"><ele>343.0</ele><time>2026-04-04T15:07:09.835Z</time></trkpt><trkpt lat="43.254135" lon="13.00506"><ele>342.5</ele><time>2026-04-04T15:07:10.834Z</time></trkpt><trkpt lat="43.25427" lon="13.0051367"><ele>342.0</ele><time>2026-04-04T15:07:11.832Z</time></trkpt><trkpt lat="43.2544033" lon="13.0052133"><ele>342.0</ele><time>2026-04-04T15:07:12.833Z</time></trkpt><trkpt lat="43.2545367" lon="13.0052867"><ele>342.0</ele><time>2026-04-04T15:07:13.834Z</time></trkpt><trkpt lat="43.2546717" lon="13.00536"><ele>342.0</ele><time>2026-04-04T15:07:14.835Z</time></trkpt><trkpt lat="43.254795" lon="13.0054433"><ele>342.0</ele><time>2026-04-04T15:07:15.832Z</time></trkpt><trkpt lat="43.2549033" lon="13.0055417"><ele>341.75</ele><time>2026-04-04T15:07:16.832Z</time></trkpt><trkpt lat="43.2549983" lon="13.0056517"><ele>341.5</ele><time>2026-04-04T15:07:17.833Z</time></trkpt><trkpt lat="43.2550817" lon="13.0057833"><ele>341.25</ele><time>2026-04-04T15:07:18.834Z</time></trkpt><trkpt lat="43.2551533" lon="13.0059117"><ele>341.0</ele><time>2026-04-04T15:07:19.832Z</time></trkpt><trkpt lat="43.2552217" lon="13.0060183"><ele>341.0</ele><time>2026-04-04T15:07:20.834Z</time></trkpt><trkpt lat="43.2552967" lon="13.0060983"><ele>341.0</ele><time>2026-04-04T15:07:21.833Z</time></trkpt><trkpt lat="43.2553867" lon="13.0061617"><ele>341.0</ele><time>2026-04-04T15:07:22.832Z</time></trkpt><trkpt lat="43.2554867" lon="13.0062133"><ele>341.0</ele><time>2026-04-04T15:07:23.833Z</time></trkpt><trkpt lat="43.255595" lon="13.0062467"><ele>341.0</ele><time>2026-04-04T15:07:24.833Z</time></trkpt><trkpt lat="43.255705" lon="13.006265"><ele>340.5</ele><time>2026-04-04T15:07:25.833Z</time></trkpt><trkpt lat="43.2558167" lon="13.006285"><ele>340.0</ele><time>2026-04-04T15:07:26.834Z</time></trkpt><trkpt lat="43.2559283" lon="13.0063267"><ele>339.5</ele><time>2026-04-04T15:07:27.833Z</time></trkpt><trkpt lat="43.25604" lon="13.0063917"><ele>339.0</ele><time>2026-04-04T15:07:28.833Z</time></trkpt><trkpt lat="43.256135" lon="13.0064767"><ele>339.0</ele><time>2026-04-04T15:07:29.833Z</time></trkpt><trkpt lat="43.256205" lon="13.0065717"><ele>339.0</ele><time>2026-04-04T15:07:30.831Z</time></trkpt><trkpt lat="43.25625" lon="13.0066933"><ele>339.0</ele><time>2026-04-04T15:07:31.833Z</time></trkpt><trkpt lat="43.256285" lon="13.0068233"><ele>339.0</ele><time>2026-04-04T15:07:32.834Z</time></trkpt><trkpt lat="43.25632" lon="13.00695"><ele>339.0</ele><time>2026-04-04T15:07:33.835Z</time></trkpt><trkpt lat="43.256365" lon="13.0070817"><ele>339.2</ele><time>2026-04-04T15:07:34.832Z</time></trkpt><trkpt lat="43.2564233" lon="13.007205"><ele>339.4</ele><time>2026-04-04T15:07:35.832Z</time></trkpt><trkpt lat="43.2564867" lon="13.007315"><ele>339.6</ele><time>2026-04-04T15:07:36.833Z</time></trkpt><trkpt lat="43.2565583" lon="13.00742"><ele>339.8</ele><time>2026-04-04T15:07:37.833Z</time></trkpt><trkpt lat="43.2566367" lon="13.00752"><ele>340.0</ele><time>2026-04-04T15:07:38.834Z</time></trkpt><trkpt lat="43.2567133" lon="13.0076133"><ele>342.0</ele><time>2026-04-04T15:07:39.834Z</time></trkpt><trkpt lat="43.2567883" lon="13.0077"><ele>344.0</ele><time>2026-04-04T15:07:40.834Z</time></trkpt><trkpt lat="43.256855" lon="13.007765"><ele>346.0</ele><time>2026-04-04T15:07:41.833Z</time></trkpt><trkpt lat="43.25691" lon="13.0078117"><ele>348.0</ele><time>2026-04-04T15:07:42.834Z</time></trkpt><trkpt lat="43.2570217" lon="13.0078683"><ele>350.0</ele><time>2026-04-04T15:07:44.836Z</time></trkpt><trkpt lat="43.2571067" lon="13.00789"><ele>350.0</ele><time>2026-04-04T15:07:45.834Z</time></trkpt><trkpt lat="43.2572067" lon="13.0079067"><ele>350.0</ele><time>2026-04-04T15:07:46.835Z</time></trkpt><trkpt lat="43.2573167" lon="13.0079183"><ele>350.0</ele><time>2026-04-04T15:07:47.833Z</time></trkpt><trkpt lat="43.257435" lon="13.0079267"><ele>350.0</ele><time>2026-04-04T15:07:48.835Z</time></trkpt><trkpt lat="43.2575567" lon="13.007935"><ele>347.25</ele><time>2026-04-04T15:07:49.833Z</time></trkpt><trkpt lat="43.2576817" lon="13.007945"><ele>344.5</ele><time>2026-04-04T15:07:50.834Z</time></trkpt><trkpt lat="43.2578083" lon="13.0079683"><ele>341.75</ele><time>2026-04-04T15:07:51.835Z</time></trkpt><trkpt lat="43.2579317" lon="13.0080017"><ele>339.0</ele><time>2026-04-04T15:07:52.837Z</time></trkpt><trkpt lat="43.2580533" lon="13.0080433"><ele>338.6</ele><time>2026-04-04T15:07:53.834Z</time></trkpt><trkpt lat="43.25817" lon="13.0080767"><ele>338.2</ele><time>2026-04-04T15:07:54.834Z</time></trkpt><trkpt lat="43.25828" lon="13.008095"><ele>337.8</ele><time>2026-04-04T15:07:55.835Z</time></trkpt><trkpt lat="43.2583833" lon="13.00807"><ele>337.40000000000003</ele><time>2026-04-04T15:07:56.836Z</time></trkpt><trkpt lat="43.258475" lon="13.0079983"><ele>337.0</ele><time>2026-04-04T15:07:57.833Z</time></trkpt><trkpt lat="43.2585533" lon="13.0078867"><ele>337.0</ele><time>2026-04-04T15:07:58.833Z</time></trkpt><trkpt lat="43.258625" lon="13.007745"><ele>337.0</ele><time>2026-04-04T15:07:59.833Z</time></trkpt><trkpt lat="43.2586967" lon="13.0076033"><ele>337.0</ele><time>2026-04-04T15:08:00.833Z</time></trkpt><trkpt lat="43.258765" lon="13.0074567"><ele>337.0</ele><time>2026-04-04T15:08:01.833Z</time></trkpt><trkpt lat="43.2588367" lon="13.0073117"><ele>337.25</ele><time>2026-04-04T15:08:02.833Z</time></trkpt><trkpt lat="43.2589083" lon="13.0071683"><ele>337.5</ele><time>2026-04-04T15:08:03.835Z</time></trkpt><trkpt lat="43.258985" lon="13.0070333"><ele>337.75</ele><time>2026-04-04T15:08:04.833Z</time></trkpt><trkpt lat="43.2590633" lon="13.0069033"><ele>338.0</ele><time>2026-04-04T15:08:05.834Z</time></trkpt><trkpt lat="43.2591433" lon="13.0067817"><ele>338.0</ele><time>2026-04-04T15:08:06.835Z</time></trkpt><trkpt lat="43.2592267" lon="13.006675"><ele>338.0</ele><time>2026-04-04T15:08:07.834Z</time></trkpt><trkpt lat="43.25931" lon="13.0065783"><ele>338.0</ele><time>2026-04-04T15:08:08.834Z</time></trkpt><trkpt lat="43.2593917" lon="13.00649"><ele>338.0</ele><time>2026-04-04T15:08:09.833Z</time></trkpt><trkpt lat="43.2594783" lon="13.006405"><ele>338.0</ele><time>2026-04-04T15:08:10.832Z</time></trkpt><trkpt lat="43.2595783" lon="13.006315"><ele>339.5</ele><time>2026-04-04T15:08:11.833Z</time></trkpt><trkpt lat="43.259685" lon="13.006225"><ele>341.0</ele><time>2026-04-04T15:08:12.834Z</time></trkpt><trkpt lat="43.2597967" lon="13.0061267"><ele>342.5</ele><time>2026-04-04T15:08:13.833Z</time></trkpt><trkpt lat="43.259915" lon="13.0060333"><ele>344.0</ele><time>2026-04-04T15:08:14.835Z</time></trkpt><trkpt lat="43.2600367" lon="13.00594"><ele>344.0</ele><time>2026-04-04T15:08:15.83Z</time></trkpt><trkpt lat="43.26016" lon="13.0058533"><ele>344.0</ele><time>2026-04-04T15:08:16.834Z</time></trkpt><trkpt lat="43.2602833" lon="13.0057733"><ele>344.0</ele><time>2026-04-04T15:08:17.836Z</time></trkpt><trkpt lat="43.260405" lon="13.005695"><ele>344.0</ele><time>2026-04-04T15:08:18.833Z</time></trkpt><trkpt lat="43.26053" lon="13.0056183"><ele>345.25</ele><time>2026-04-04T15:08:19.834Z</time></trkpt><trkpt lat="43.26065" lon="13.0055433"><ele>346.5</ele><time>2026-04-04T15:08:20.835Z</time></trkpt><trkpt lat="43.2607617" lon="13.00546"><ele>347.75</ele><time>2026-04-04T15:08:21.833Z</time></trkpt><trkpt lat="43.2608767" lon="13.00538"><ele>349.0</ele><time>2026-04-04T15:08:22.834Z</time></trkpt><trkpt lat="43.2609917" lon="13.0053"><ele>349.0</ele><time>2026-04-04T15:08:23.834Z</time></trkpt><trkpt lat="43.2610983" lon="13.0052117"><ele>349.0</ele><time>2026-04-04T15:08:24.835Z</time></trkpt><trkpt lat="43.2612133" lon="13.0051067"><ele>349.0</ele><time>2026-04-04T15:08:25.835Z</time></trkpt><trkpt lat="43.2613233" lon="13.0050017"><ele>349.0</ele><time>2026-04-04T15:08:26.834Z</time></trkpt><trkpt lat="43.2614267" lon="13.00489"><ele>347.75</ele><time>2026-04-04T15:08:27.832Z</time></trkpt><trkpt lat="43.2615183" lon="13.00478"><ele>346.5</ele><time>2026-04-04T15:08:28.83Z</time></trkpt><trkpt lat="43.2616033" lon="13.0046683"><ele>345.25</ele><time>2026-04-04T15:08:29.831Z</time></trkpt><trkpt lat="43.2616783" lon="13.004545"><ele>344.0</ele><time>2026-04-04T15:08:30.833Z</time></trkpt><trkpt lat="43.2617517" lon="13.00441"><ele>344.0</ele><time>2026-04-04T15:08:31.832Z</time></trkpt><trkpt lat="43.2618267" lon="13.0042567"><ele>344.0</ele><time>2026-04-04T15:08:32.835Z</time></trkpt><trkpt lat="43.2619" lon="13.0040967"><ele>344.0</ele><time>2026-04-04T15:08:33.833Z</time></trkpt><trkpt lat="43.261975" lon="13.0039283"><ele>344.0</ele><time>2026-04-04T15:08:34.833Z</time></trkpt><trkpt lat="43.2620433" lon="13.00377"><ele>345.0</ele><time>2026-04-04T15:08:35.833Z</time></trkpt><trkpt lat="43.2621117" lon="13.0036167"><ele>346.0</ele><time>2026-04-04T15:08:36.833Z</time></trkpt><trkpt lat="43.262175" lon="13.0034683"><ele>347.0</ele><time>2026-04-04T15:08:37.834Z</time></trkpt><trkpt lat="43.2622283" lon="13.0033133"><ele>348.0</ele><time>2026-04-04T15:08:38.834Z</time></trkpt><trkpt lat="43.262275" lon="13.00315"><ele>346.5</ele><time>2026-04-04T15:08:39.833Z</time></trkpt><trkpt lat="43.2623133" lon="13.0029617"><ele>345.0</ele><time>2026-04-04T15:08:40.832Z</time></trkpt><trkpt lat="43.262345" lon="13.0027667"><ele>343.5</ele><time>2026-04-04T15:08:41.833Z</time></trkpt><trkpt lat="43.2623733" lon="13.0025683"><ele>342.0</ele><time>2026-04-04T15:08:42.833Z</time></trkpt><trkpt lat="43.262405" lon="13.0023717"><ele>342.0</ele><time>2026-04-04T15:08:43.83Z</time></trkpt><trkpt lat="43.2624433" lon="13.002185"><ele>342.0</ele><time>2026-04-04T15:08:44.833Z</time></trkpt><trkpt lat="43.2624933" lon="13.0020133"><ele>342.0</ele><time>2026-04-04T15:08:45.834Z</time></trkpt><trkpt lat="43.2625583" lon="13.0018667"><ele>342.0</ele><time>2026-04-04T15:08:46.832Z</time></trkpt><trkpt lat="43.262645" lon="13.0017617"><ele>342.0</ele><time>2026-04-04T15:08:47.834Z</time></trkpt><trkpt lat="43.2627667" lon="13.0017167"><ele>342.0</ele><time>2026-04-04T15:08:48.834Z</time></trkpt><trkpt lat="43.2629" lon="13.0016917"><ele>342.0</ele><time>2026-04-04T15:08:49.833Z</time></trkpt><trkpt lat="43.2630283" lon="13.00167"><ele>342.0</ele><time>2026-04-04T15:08:50.836Z</time></trkpt><trkpt lat="43.263155" lon="13.0016467"><ele>341.75</ele><time>2026-04-04T15:08:51.833Z</time></trkpt><trkpt lat="43.2632733" lon="13.00161"><ele>341.5</ele><time>2026-04-04T15:08:52.832Z</time></trkpt><trkpt lat="43.2633817" lon="13.0015283"><ele>341.25</ele><time>2026-04-04T15:08:53.833Z</time></trkpt><trkpt lat="43.263465" lon="13.0014217"><ele>341.0</ele><time>2026-04-04T15:08:54.833Z</time></trkpt><trkpt lat="43.26354" lon="13.0012867"><ele>341.0</ele><time>2026-04-04T15:08:55.835Z</time></trkpt><trkpt lat="43.2636083" lon="13.001135"><ele>341.0</ele><time>2026-04-04T15:08:56.835Z</time></trkpt><trkpt lat="43.2636767" lon="13.00098"><ele>341.0</ele><time>2026-04-04T15:08:57.833Z</time></trkpt><trkpt lat="43.26374" lon="13.00083"><ele>341.0</ele><time>2026-04-04T15:08:58.834Z</time></trkpt><trkpt lat="43.2637933" lon="13.000675"><ele>341.0</ele><time>2026-04-04T15:08:59.833Z</time></trkpt><trkpt lat="43.26384" lon="13.000515"><ele>341.0</ele><time>2026-04-04T15:09:00.833Z</time></trkpt><trkpt lat="43.263875" lon="13.000365"><ele>341.0</ele><time>2026-04-04T15:09:01.834Z</time></trkpt><trkpt lat="43.2638967" lon="13.0002267"><ele>341.0</ele><time>2026-04-04T15:09:02.833Z</time></trkpt><trkpt lat="43.263925" lon="13.0001067"><ele>341.0</ele><time>2026-04-04T15:09:03.833Z</time></trkpt><trkpt lat="43.263985" lon="13.000015"><ele>341.0</ele><time>2026-04-04T15:09:04.832Z</time></trkpt><trkpt lat="43.2640733" lon="12.99995"><ele>341.0</ele><time>2026-04-04T15:09:05.834Z</time></trkpt><trkpt lat="43.26418" lon="12.9999067"><ele>341.0</ele><time>2026-04-04T15:09:06.835Z</time></trkpt><trkpt lat="43.2642967" lon="12.99988"><ele>341.0</ele><time>2026-04-04T15:09:07.834Z</time></trkpt><trkpt lat="43.2644183" lon="12.99988"><ele>341.0</ele><time>2026-04-04T15:09:08.836Z</time></trkpt><trkpt lat="43.264545" lon="12.999905"><ele>341.0</ele><time>2026-04-04T15:09:09.834Z</time></trkpt><trkpt lat="43.26467" lon="12.9999567"><ele>341.0</ele><time>2026-04-04T15:09:10.833Z</time></trkpt><trkpt lat="43.26479" lon="13.0000233"><ele>341.0</ele><time>2026-04-04T15:09:11.828Z</time></trkpt><trkpt lat="43.2649117" lon="13.00008"><ele>340.25</ele><time>2026-04-04T15:09:12.833Z</time></trkpt><trkpt lat="43.2650333" lon="13.0001133"><ele>339.5</ele><time>2026-04-04T15:09:13.833Z</time></trkpt><trkpt lat="43.2651583" lon="13.0001317"><ele>338.75</ele><time>2026-04-04T15:09:14.835Z</time></trkpt><trkpt lat="43.265285" lon="13.00014"><ele>338.0</ele><time>2026-04-04T15:09:15.834Z</time></trkpt><trkpt lat="43.265415" lon="13.0001367"><ele>338.0</ele><time>2026-04-04T15:09:16.835Z</time></trkpt><trkpt lat="43.2655383" lon="13.0001183"><ele>338.0</ele><time>2026-04-04T15:09:17.836Z</time></trkpt><trkpt lat="43.26565" lon="13.0000833"><ele>338.0</ele><time>2026-04-04T15:09:18.833Z</time></trkpt><trkpt lat="43.26575" lon="13.0000367"><ele>338.0</ele><time>2026-04-04T15:09:19.831Z</time></trkpt><trkpt lat="43.2658533" lon="12.9999833"><ele>335.5</ele><time>2026-04-04T15:09:20.834Z</time></trkpt><trkpt lat="43.2659583" lon="12.99994"><ele>333.0</ele><time>2026-04-04T15:09:21.832Z</time></trkpt><trkpt lat="43.266065" lon="12.9999"><ele>330.5</ele><time>2026-04-04T15:09:22.833Z</time></trkpt><trkpt lat="43.2661767" lon="12.9998483"><ele>328.0</ele><time>2026-04-04T15:09:23.832Z</time></trkpt><trkpt lat="43.2663017" lon="12.9997967"><ele>328.0</ele><time>2026-04-04T15:09:24.832Z</time></trkpt><trkpt lat="43.2664317" lon="12.9997417"><ele>328.0</ele><time>2026-04-04T15:09:25.833Z</time></trkpt><trkpt lat="43.2665683" lon="12.99968"><ele>328.0</ele><time>2026-04-04T15:09:26.834Z</time></trkpt><trkpt lat="43.26671" lon="12.999615"><ele>328.0</ele><time>2026-04-04T15:09:27.833Z</time></trkpt><trkpt lat="43.26686" lon="12.999545"><ele>326.0</ele><time>2026-04-04T15:09:28.834Z</time></trkpt><trkpt lat="43.26701" lon="12.9994767"><ele>324.0</ele><time>2026-04-04T15:09:29.834Z</time></trkpt><trkpt lat="43.2671567" lon="12.9994067"><ele>322.0</ele><time>2026-04-04T15:09:30.835Z</time></trkpt><trkpt lat="43.2672967" lon="12.9993417"><ele>322.0</ele><time>2026-04-04T15:09:31.834Z</time></trkpt><trkpt lat="43.26743" lon="12.999285"><ele>322.0</ele><time>2026-04-04T15:09:32.834Z</time></trkpt><trkpt lat="43.26756" lon="12.9992317"><ele>322.0</ele><time>2026-04-04T15:09:33.835Z</time></trkpt><trkpt lat="43.2676883" lon="12.9991833"><ele>322.0</ele><time>2026-04-04T15:09:34.833Z</time></trkpt><trkpt lat="43.2678167" lon="12.999125"><ele>322.0</ele><time>2026-04-04T15:09:35.834Z</time></trkpt><trkpt lat="43.267945" lon="12.999065"><ele>322.0</ele><time>2026-04-04T15:09:36.834Z</time></trkpt><trkpt lat="43.268075" lon="12.9990117"><ele>322.0</ele><time>2026-04-04T15:09:37.834Z</time></trkpt><trkpt lat="43.2682067" lon="12.9989583"><ele>322.0</ele><time>2026-04-04T15:09:38.836Z</time></trkpt><trkpt lat="43.2683383" lon="12.9989067"><ele>322.0</ele><time>2026-04-04T15:09:39.835Z</time></trkpt><trkpt lat="43.26847" lon="12.9988517"><ele>322.0</ele><time>2026-04-04T15:09:40.834Z</time></trkpt><trkpt lat="43.2686017" lon="12.9988017"><ele>322.0</ele><time>2026-04-04T15:09:41.833Z</time></trkpt><trkpt lat="43.2687333" lon="12.9987533"><ele>322.0</ele><time>2026-04-04T15:09:42.835Z</time></trkpt><trkpt lat="43.2688633" lon="12.998705"><ele>322.25</ele><time>2026-04-04T15:09:43.834Z</time></trkpt><trkpt lat="43.2689933" lon="12.9986617"><ele>322.5</ele><time>2026-04-04T15:09:44.835Z</time></trkpt><trkpt lat="43.2691233" lon="12.9986267"><ele>322.75</ele><time>2026-04-04T15:09:45.833Z</time></trkpt><trkpt lat="43.2692533" lon="12.9986"><ele>323.0</ele><time>2026-04-04T15:09:46.834Z</time></trkpt><trkpt lat="43.269385" lon="12.9985767"><ele>323.0</ele><time>2026-04-04T15:09:47.836Z</time></trkpt><trkpt lat="43.2695183" lon="12.9985567"><ele>323.0</ele><time>2026-04-04T15:09:48.833Z</time></trkpt><trkpt lat="43.2696533" lon="12.998535"><ele>323.0</ele><time>2026-04-04T15:09:49.828Z</time></trkpt><trkpt lat="43.269795" lon="12.9985133"><ele>323.0</ele><time>2026-04-04T15:09:50.832Z</time></trkpt><trkpt lat="43.2699367" lon="12.9984767"><ele>323.25</ele><time>2026-04-04T15:09:51.833Z</time></trkpt><trkpt lat="43.2700817" lon="12.9984267"><ele>323.5</ele><time>2026-04-04T15:09:52.832Z</time></trkpt><trkpt lat="43.2702267" lon="12.9983717"><ele>323.75</ele><time>2026-04-04T15:09:53.833Z</time></trkpt><trkpt lat="43.2703667" lon="12.9983117"><ele>324.0</ele><time>2026-04-04T15:09:54.831Z</time></trkpt><trkpt lat="43.2705033" lon="12.9982417"><ele>322.5</ele><time>2026-04-04T15:09:55.834Z</time></trkpt><trkpt lat="43.2706317" lon="12.9981617"><ele>321.0</ele><time>2026-04-04T15:09:56.834Z</time></trkpt><trkpt lat="43.2707583" lon="12.998065"><ele>319.5</ele><time>2026-04-04T15:09:57.834Z</time></trkpt><trkpt lat="43.2708817" lon="12.997965"><ele>318.0</ele><time>2026-04-04T15:09:58.834Z</time></trkpt><trkpt lat="43.271" lon="12.99786"><ele>318.0</ele><time>2026-04-04T15:09:59.832Z</time></trkpt><trkpt lat="43.271115" lon="12.997745"><ele>318.0</ele><time>2026-04-04T15:10:00.832Z</time></trkpt><trkpt lat="43.2712317" lon="12.9976267"><ele>318.0</ele><time>2026-04-04T15:10:01.834Z</time></trkpt><trkpt lat="43.27135" lon="12.9975217"><ele>318.0</ele><time>2026-04-04T15:10:02.834Z</time></trkpt><trkpt lat="43.2714617" lon="12.9974317"><ele>317.8</ele><time>2026-04-04T15:10:03.832Z</time></trkpt><trkpt lat="43.271565" lon="12.9973533"><ele>317.6</ele><time>2026-04-04T15:10:04.833Z</time></trkpt><trkpt lat="43.2716617" lon="12.9972867"><ele>317.4</ele><time>2026-04-04T15:10:05.833Z</time></trkpt><trkpt lat="43.2717483" lon="12.9972267"><ele>317.2</ele><time>2026-04-04T15:10:06.834Z</time></trkpt><trkpt lat="43.2718283" lon="12.9971883"><ele>317.0</ele><time>2026-04-04T15:10:07.836Z</time></trkpt><trkpt lat="43.2718983" lon="12.99717"><ele>317.0</ele><time>2026-04-04T15:10:08.835Z</time></trkpt><trkpt lat="43.2719617" lon="12.9971667"><ele>317.0</ele><time>2026-04-04T15:10:09.834Z</time></trkpt><trkpt lat="43.2720233" lon="12.997195"><ele>317.0</ele><time>2026-04-04T15:10:10.834Z</time></trkpt><trkpt lat="43.27207" lon="12.9972583"><ele>317.0</ele><time>2026-04-04T15:10:11.833Z</time></trkpt><trkpt lat="43.2721" lon="12.9973633"><ele>317.0</ele><time>2026-04-04T15:10:12.833Z</time></trkpt><trkpt lat="43.272115" lon="12.997485"><ele>317.0</ele><time>2026-04-04T15:10:13.833Z</time></trkpt><trkpt lat="43.272135" lon="12.9976183"><ele>316.4</ele><time>2026-04-04T15:10:14.835Z</time></trkpt><trkpt lat="43.272155" lon="12.9977567"><ele>315.79999999999995</ele><time>2026-04-04T15:10:15.833Z</time></trkpt><trkpt lat="43.27218" lon="12.9978883"><ele>315.2</ele><time>2026-04-04T15:10:16.834Z</time></trkpt><trkpt lat="43.27221" lon="12.99803"><ele>314.59999999999997</ele><time>2026-04-04T15:10:17.834Z</time></trkpt><trkpt lat="43.2722367" lon="12.99817"><ele>314.0</ele><time>2026-04-04T15:10:18.829Z</time></trkpt><trkpt lat="43.2722633" lon="12.9983"><ele>314.59999999999997</ele><time>2026-04-04T15:10:19.83Z</time></trkpt><trkpt lat="43.2722883" lon="12.99842"><ele>315.2</ele><time>2026-04-04T15:10:20.833Z</time></trkpt><trkpt lat="43.272315" lon="12.99854"><ele>315.79999999999995</ele><time>2026-04-04T15:10:21.833Z</time></trkpt><trkpt lat="43.272345" lon="12.9986667"><ele>316.4</ele><time>2026-04-04T15:10:22.833Z</time></trkpt><trkpt lat="43.27238" lon="12.9987867"><ele>317.0</ele><time>2026-04-04T15:10:23.832Z</time></trkpt><trkpt lat="43.272425" lon="12.9988983"><ele>317.0</ele><time>2026-04-04T15:10:24.832Z</time></trkpt><trkpt lat="43.2724833" lon="12.999"><ele>317.0</ele><time>2026-04-04T15:10:25.834Z</time></trkpt><trkpt lat="43.272555" lon="12.99908"><ele>317.0</ele><time>2026-04-04T15:10:26.835Z</time></trkpt><trkpt lat="43.272635" lon="12.9991417"><ele>317.0</ele><time>2026-04-04T15:10:27.833Z</time></trkpt><trkpt lat="43.2727233" lon="12.9991833"><ele>317.0</ele><time>2026-04-04T15:10:28.833Z</time></trkpt><trkpt lat="43.2728083" lon="12.999215"><ele>318.1666666666667</ele><time>2026-04-04T15:10:29.833Z</time></trkpt><trkpt lat="43.2728917" lon="12.9992433"><ele>319.33333333333337</ele><time>2026-04-04T15:10:30.834Z</time></trkpt><trkpt lat="43.27297" lon="12.9992733"><ele>320.5</ele><time>2026-04-04T15:10:31.837Z</time></trkpt><trkpt lat="43.2730483" lon="12.9993117"><ele>321.6666666666667</ele><time>2026-04-04T15:10:32.835Z</time></trkpt><trkpt lat="43.273125" lon="12.99936"><ele>322.8333333333333</ele><time>2026-04-04T15:10:33.833Z</time></trkpt><trkpt lat="43.27319" lon="12.999435"><ele>324.0</ele><time>2026-04-04T15:10:34.832Z</time></trkpt><trkpt lat="43.2732467" lon="12.9995283"><ele>324.0</ele><time>2026-04-04T15:10:35.837Z</time></trkpt><trkpt lat="43.27328" lon="12.999645"><ele>324.0</ele><time>2026-04-04T15:10:36.835Z</time></trkpt><trkpt lat="43.2733033" lon="12.9997667"><ele>324.0</ele><time>2026-04-04T15:10:37.834Z</time></trkpt><trkpt lat="43.2733267" lon="12.9998867"><ele>324.0</ele><time>2026-04-04T15:10:38.835Z</time></trkpt><trkpt lat="43.2733517" lon="12.9999983"><ele>324.0</ele><time>2026-04-04T15:10:39.834Z</time></trkpt><trkpt lat="43.273375" lon="13.00011"><ele>324.0</ele><time>2026-04-04T15:10:40.833Z</time></trkpt><trkpt lat="43.273395" lon="13.0002267"><ele>324.0</ele><time>2026-04-04T15:10:41.835Z</time></trkpt><trkpt lat="43.2734183" lon="13.00034"><ele>324.0</ele><time>2026-04-04T15:10:42.833Z</time></trkpt><trkpt lat="43.2734417" lon="13.0004533"><ele>324.0</ele><time>2026-04-04T15:10:43.834Z</time></trkpt><trkpt lat="43.2734617" lon="13.00057"><ele>324.0</ele><time>2026-04-04T15:10:44.835Z</time></trkpt><trkpt lat="43.27348" lon="13.0006833"><ele>324.0</ele><time>2026-04-04T15:10:45.833Z</time></trkpt><trkpt lat="43.2735017" lon="13.000805"><ele>324.0</ele><time>2026-04-04T15:10:46.833Z</time></trkpt><trkpt lat="43.2735317" lon="13.0009367"><ele>324.6</ele><time>2026-04-04T15:10:47.833Z</time></trkpt><trkpt lat="43.27356" lon="13.0010717"><ele>325.2</ele><time>2026-04-04T15:10:48.834Z</time></trkpt><trkpt lat="43.27359" lon="13.001215"><ele>325.8</ele><time>2026-04-04T15:10:49.835Z</time></trkpt><trkpt lat="43.27362" lon="13.0013617"><ele>326.40000000000003</ele><time>2026-04-04T15:10:50.836Z</time></trkpt><trkpt lat="43.2736483" lon="13.0015033"><ele>327.0</ele><time>2026-04-04T15:10:51.834Z</time></trkpt><trkpt lat="43.2736917" lon="13.0016283"><ele>326.8</ele><time>2026-04-04T15:10:52.835Z</time></trkpt><trkpt lat="43.27375" lon="13.00173"><ele>326.6</ele><time>2026-04-04T15:10:53.835Z</time></trkpt><trkpt lat="43.2738317" lon="13.0017933"><ele>326.40000000000003</ele><time>2026-04-04T15:10:54.834Z</time></trkpt><trkpt lat="43.2739283" lon="13.0018167"><ele>326.20000000000005</ele><time>2026-04-04T15:10:55.834Z</time></trkpt><trkpt lat="43.2740433" lon="13.0017933"><ele>326.0</ele><time>2026-04-04T15:10:56.836Z</time></trkpt><trkpt lat="43.27416" lon="13.0017517"><ele>325.75</ele><time>2026-04-04T15:10:57.835Z</time></trkpt><trkpt lat="43.27428" lon="13.001705"><ele>325.5</ele><time>2026-04-04T15:10:58.835Z</time></trkpt><trkpt lat="43.274405" lon="13.001655"><ele>325.25</ele><time>2026-04-04T15:10:59.836Z</time></trkpt><trkpt lat="43.2745317" lon="13.001605"><ele>325.0</ele><time>2026-04-04T15:11:00.836Z</time></trkpt><trkpt lat="43.2746583" lon="13.0015517"><ele>324.5</ele><time>2026-04-04T15:11:01.836Z</time></trkpt><trkpt lat="43.274785" lon="13.0014983"><ele>324.0</ele><time>2026-04-04T15:11:02.836Z</time></trkpt><trkpt lat="43.27491" lon="13.0014467"><ele>323.5</ele><time>2026-04-04T15:11:03.834Z</time></trkpt><trkpt lat="43.275035" lon="13.0013983"><ele>323.0</ele><time>2026-04-04T15:11:04.839Z</time></trkpt><trkpt lat="43.27516" lon="13.0013533"><ele>323.0</ele><time>2026-04-04T15:11:05.834Z</time></trkpt><trkpt lat="43.2752767" lon="13.0013117"><ele>323.0</ele><time>2026-04-04T15:11:06.835Z</time></trkpt><trkpt lat="43.275385" lon="13.00127"><ele>323.0</ele><time>2026-04-04T15:11:07.834Z</time></trkpt><trkpt lat="43.2754867" lon="13.0012317"><ele>323.0</ele><time>2026-04-04T15:11:08.835Z</time></trkpt><trkpt lat="43.2755833" lon="13.0011983"><ele>323.0</ele><time>2026-04-04T15:11:09.836Z</time></trkpt><trkpt lat="43.2756733" lon="13.0011683"><ele>322.59999999999997</ele><time>2026-04-04T15:11:10.834Z</time></trkpt><trkpt lat="43.2757583" lon="13.0011417"><ele>322.2</ele><time>2026-04-04T15:11:11.836Z</time></trkpt><trkpt lat="43.275835" lon="13.0011267"><ele>321.8</ele><time>2026-04-04T15:11:12.834Z</time></trkpt><trkpt lat="43.2758983" lon="13.0011333"><ele>321.4</ele><time>2026-04-04T15:11:13.835Z</time></trkpt><trkpt lat="43.27598" lon="13.0012483"><ele>321.0</ele><time>2026-04-04T15:11:15.834Z</time></trkpt><trkpt lat="43.275985" lon="13.001415"><ele>321.0</ele><time>2026-04-04T15:11:16.835Z</time></trkpt><trkpt lat="43.276" lon="13.0015717"><ele>321.0</ele><time>2026-04-04T15:11:17.836Z</time></trkpt><trkpt lat="43.276025" lon="13.00172"><ele>321.0</ele><time>2026-04-04T15:11:18.833Z</time></trkpt><trkpt lat="43.2760567" lon="13.0018617"><ele>321.0</ele><time>2026-04-04T15:11:19.834Z</time></trkpt><trkpt lat="43.2760867" lon="13.0020133"><ele>321.0</ele><time>2026-04-04T15:11:20.836Z</time></trkpt><trkpt lat="43.2761167" lon="13.0021717"><ele>321.0</ele><time>2026-04-04T15:11:21.836Z</time></trkpt><trkpt lat="43.276145" lon="13.00233"><ele>321.0</ele><time>2026-04-04T15:11:22.833Z</time></trkpt><trkpt lat="43.276175" lon="13.0024817"><ele>321.0</ele><time>2026-04-04T15:11:23.837Z</time></trkpt><trkpt lat="43.27621" lon="13.0026233"><ele>321.0</ele><time>2026-04-04T15:11:24.833Z</time></trkpt><trkpt lat="43.27624" lon="13.00276"><ele>321.0</ele><time>2026-04-04T15:11:25.836Z</time></trkpt><trkpt lat="43.276275" lon="13.0028917"><ele>321.0</ele><time>2026-04-04T15:11:26.835Z</time></trkpt><trkpt lat="43.2763167" lon="13.0030167"><ele>321.0</ele><time>2026-04-04T15:11:27.834Z</time></trkpt><trkpt lat="43.2763717" lon="13.0031283"><ele>321.0</ele><time>2026-04-04T15:11:28.834Z</time></trkpt><trkpt lat="43.2764433" lon="13.00322"><ele>321.0</ele><time>2026-04-04T15:11:29.835Z</time></trkpt><trkpt lat="43.2765333" lon="13.003265"><ele>321.0</ele><time>2026-04-04T15:11:30.836Z</time></trkpt><trkpt lat="43.27663" lon="13.00326"><ele>319.5</ele><time>2026-04-04T15:11:31.834Z</time></trkpt><trkpt lat="43.27673" lon="13.0032117"><ele>318.0</ele><time>2026-04-04T15:11:32.835Z</time></trkpt><trkpt lat="43.2768317" lon="13.0031533"><ele>316.5</ele><time>2026-04-04T15:11:33.834Z</time></trkpt><trkpt lat="43.2769467" lon="13.0031217"><ele>315.0</ele><time>2026-04-04T15:11:34.833Z</time></trkpt><trkpt lat="43.2770717" lon="13.0031083"><ele>315.0</ele><time>2026-04-04T15:11:35.835Z</time></trkpt><trkpt lat="43.2772017" lon="13.003105"><ele>315.0</ele><time>2026-04-04T15:11:36.834Z</time></trkpt><trkpt lat="43.2773367" lon="13.0031017"><ele>315.0</ele><time>2026-04-04T15:11:37.836Z</time></trkpt><trkpt lat="43.2774717" lon="13.003095"><ele>315.0</ele><time>2026-04-04T15:11:38.836Z</time></trkpt><trkpt lat="43.277605" lon="13.00309"><ele>314.75</ele><time>2026-04-04T15:11:39.835Z</time></trkpt><trkpt lat="43.277735" lon="13.003075"><ele>314.5</ele><time>2026-04-04T15:11:40.835Z</time></trkpt><trkpt lat="43.2778683" lon="13.0030467"><ele>314.25</ele><time>2026-04-04T15:11:41.838Z</time></trkpt><trkpt lat="43.2780083" lon="13.003005"><ele>314.0</ele><time>2026-04-04T15:11:42.836Z</time></trkpt><trkpt lat="43.2781483" lon="13.0029533"><ele>314.0</ele><time>2026-04-04T15:11:43.836Z</time></trkpt><trkpt lat="43.2782867" lon="13.00289"><ele>314.0</ele><time>2026-04-04T15:11:44.836Z</time></trkpt><trkpt lat="43.278425" lon="13.00282"><ele>314.0</ele><time>2026-04-04T15:11:45.834Z</time></trkpt><trkpt lat="43.27856" lon="13.00274"><ele>314.0</ele><time>2026-04-04T15:11:46.834Z</time></trkpt><trkpt lat="43.2786983" lon="13.0026483"><ele>314.0</ele><time>2026-04-04T15:11:47.834Z</time></trkpt><trkpt lat="43.2788333" lon="13.0025567"><ele>314.0</ele><time>2026-04-04T15:11:48.835Z</time></trkpt><trkpt lat="43.2789683" lon="13.0024633"><ele>314.0</ele><time>2026-04-04T15:11:49.835Z</time></trkpt><trkpt lat="43.2791033" lon="13.0023667"><ele>313.0</ele><time>2026-04-04T15:11:50.836Z</time></trkpt><trkpt lat="43.2792367" lon="13.0022733"><ele>312.0</ele><time>2026-04-04T15:11:51.836Z</time></trkpt><trkpt lat="43.2793683" lon="13.00218"><ele>311.0</ele><time>2026-04-04T15:11:52.834Z</time></trkpt><trkpt lat="43.2795" lon="13.002085"><ele>310.0</ele><time>2026-04-04T15:11:53.837Z</time></trkpt><trkpt lat="43.2796333" lon="13.0019917"><ele>311.0</ele><time>2026-04-04T15:11:54.834Z</time></trkpt><trkpt lat="43.27977" lon="13.001895"><ele>312.0</ele><time>2026-04-04T15:11:55.834Z</time></trkpt><trkpt lat="43.27991" lon="13.0017967"><ele>313.0</ele><time>2026-04-04T15:11:56.834Z</time></trkpt><trkpt lat="43.2800517" lon="13.0016917"><ele>310.66666666666663</ele><time>2026-04-04T15:11:57.835Z</time></trkpt><trkpt lat="43.280195" lon="13.0015883"><ele>308.3333333333333</ele><time>2026-04-04T15:11:58.835Z</time></trkpt><trkpt lat="43.280335" lon="13.001485"><ele>306.0</ele><time>2026-04-04T15:11:59.832Z</time></trkpt><trkpt lat="43.280475" lon="13.001385"><ele>308.0</ele><time>2026-04-04T15:12:00.834Z</time></trkpt><trkpt lat="43.280615" lon="13.0012867"><ele>310.0</ele><time>2026-04-04T15:12:01.834Z</time></trkpt><trkpt lat="43.280755" lon="13.00119"><ele>312.0</ele><time>2026-04-04T15:12:02.834Z</time></trkpt><trkpt lat="43.28089" lon="13.0010933"><ele>312.0</ele><time>2026-04-04T15:12:03.834Z</time></trkpt><trkpt lat="43.28102" lon="13.0010017"><ele>312.0</ele><time>2026-04-04T15:12:04.834Z</time></trkpt><trkpt lat="43.2811483" lon="13.00091"><ele>312.0</ele><time>2026-04-04T15:12:05.834Z</time></trkpt><trkpt lat="43.2812817" lon="13.0008133"><ele>312.0</ele><time>2026-04-04T15:12:06.835Z</time></trkpt><trkpt lat="43.2814167" lon="13.0007183"><ele>309.3333333333333</ele><time>2026-04-04T15:12:07.834Z</time></trkpt><trkpt lat="43.281555" lon="13.00062"><ele>306.66666666666663</ele><time>2026-04-04T15:12:08.835Z</time></trkpt><trkpt lat="43.281695" lon="13.00052"><ele>304.0</ele><time>2026-04-04T15:12:09.832Z</time></trkpt><trkpt lat="43.2818383" lon="13.0004167"><ele>304.0</ele><time>2026-04-04T15:12:10.834Z</time></trkpt><trkpt lat="43.281985" lon="13.0003133"><ele>304.0</ele><time>2026-04-04T15:12:11.833Z</time></trkpt><trkpt lat="43.2821367" lon="13.0002083"><ele>304.0</ele><time>2026-04-04T15:12:12.833Z</time></trkpt><trkpt lat="43.2822867" lon="13.000105"><ele>304.3333333333333</ele><time>2026-04-04T15:12:13.834Z</time></trkpt><trkpt lat="43.28244" lon="13.0000017"><ele>304.6666666666667</ele><time>2026-04-04T15:12:14.837Z</time></trkpt><trkpt lat="43.28259" lon="12.9998967"><ele>305.0</ele><time>2026-04-04T15:12:15.834Z</time></trkpt><trkpt lat="43.28274" lon="12.99979"><ele>305.0</ele><time>2026-04-04T15:12:16.834Z</time></trkpt><trkpt lat="43.2828867" lon="12.9996867"><ele>305.0</ele><time>2026-04-04T15:12:17.833Z</time></trkpt><trkpt lat="43.283035" lon="12.999585"><ele>305.0</ele><time>2026-04-04T15:12:18.835Z</time></trkpt><trkpt lat="43.2831817" lon="12.9994833"><ele>304.33333333333337</ele><time>2026-04-04T15:12:19.836Z</time></trkpt><trkpt lat="43.2833317" lon="12.9993783"><ele>303.6666666666667</ele><time>2026-04-04T15:12:20.835Z</time></trkpt><trkpt lat="43.2834817" lon="12.9992783"><ele>303.0</ele><time>2026-04-04T15:12:21.832Z</time></trkpt><trkpt lat="43.2836283" lon="12.99918"><ele>302.6666666666667</ele><time>2026-04-04T15:12:22.832Z</time></trkpt><trkpt lat="43.2837717" lon="12.999085"><ele>302.33333333333337</ele><time>2026-04-04T15:12:23.834Z</time></trkpt><trkpt lat="43.2839083" lon="12.998995"><ele>302.0</ele><time>2026-04-04T15:12:24.835Z</time></trkpt><trkpt lat="43.284045" lon="12.9989067"><ele>302.0</ele><time>2026-04-04T15:12:25.835Z</time></trkpt><trkpt lat="43.2841833" lon="12.9988117"><ele>302.0</ele><time>2026-04-04T15:12:26.834Z</time></trkpt><trkpt lat="43.284325" lon="12.998715"><ele>302.0</ele><time>2026-04-04T15:12:27.833Z</time></trkpt><trkpt lat="43.2844667" lon="12.9986183"><ele>302.0</ele><time>2026-04-04T15:12:28.834Z</time></trkpt><trkpt lat="43.28461" lon="12.99852"><ele>302.0</ele><time>2026-04-04T15:12:29.835Z</time></trkpt><trkpt lat="43.2847533" lon="12.9984217"><ele>302.0</ele><time>2026-04-04T15:12:30.833Z</time></trkpt><trkpt lat="43.284895" lon="12.9983317"><ele>302.6666666666667</ele><time>2026-04-04T15:12:31.834Z</time></trkpt><trkpt lat="43.2850417" lon="12.9982417"><ele>303.3333333333333</ele><time>2026-04-04T15:12:32.835Z</time></trkpt><trkpt lat="43.2851917" lon="12.9981517"><ele>304.0</ele><time>2026-04-04T15:12:33.834Z</time></trkpt><trkpt lat="43.2853383" lon="12.9980633"><ele>304.0</ele><time>2026-04-04T15:12:34.833Z</time></trkpt><trkpt lat="43.2854817" lon="12.9979783"><ele>304.0</ele><time>2026-04-04T15:12:35.833Z</time></trkpt><trkpt lat="43.2856167" lon="12.9978917"><ele>304.0</ele><time>2026-04-04T15:12:36.833Z</time></trkpt><trkpt lat="43.2857467" lon="12.9977933"><ele>304.5</ele><time>2026-04-04T15:12:37.834Z</time></trkpt><trkpt lat="43.285875" lon="12.997685"><ele>305.0</ele><time>2026-04-04T15:12:38.836Z</time></trkpt><trkpt lat="43.2859917" lon="12.997565"><ele>305.5</ele><time>2026-04-04T15:12:39.834Z</time></trkpt><trkpt lat="43.2861" lon="12.9974433"><ele>306.0</ele><time>2026-04-04T15:12:40.833Z</time></trkpt><trkpt lat="43.2861983" lon="12.997315"><ele>306.0</ele><time>2026-04-04T15:12:41.834Z</time></trkpt><trkpt lat="43.2862917" lon="12.9971767"><ele>306.0</ele><time>2026-04-04T15:12:42.834Z</time></trkpt><trkpt lat="43.2863867" lon="12.9970467"><ele>306.0</ele><time>2026-04-04T15:12:43.834Z</time></trkpt><trkpt lat="43.2864917" lon="12.9969267"><ele>306.0</ele><time>2026-04-04T15:12:44.834Z</time></trkpt><trkpt lat="43.2866017" lon="12.9968183"><ele>306.40000000000003</ele><time>2026-04-04T15:12:45.833Z</time></trkpt><trkpt lat="43.2866917" lon="12.99672"><ele>306.8</ele><time>2026-04-04T15:12:46.835Z</time></trkpt><trkpt lat="43.2867683" lon="12.9966283"><ele>307.20000000000005</ele><time>2026-04-04T15:12:47.835Z</time></trkpt><trkpt lat="43.2868483" lon="12.9965283"><ele>307.6</ele><time>2026-04-04T15:12:48.835Z</time></trkpt><trkpt lat="43.2869333" lon="12.99642"><ele>308.0</ele><time>2026-04-04T15:12:49.836Z</time></trkpt><trkpt lat="43.2870217" lon="12.996315"><ele>308.25</ele><time>2026-04-04T15:12:50.837Z</time></trkpt><trkpt lat="43.2871117" lon="12.9962083"><ele>308.5</ele><time>2026-04-04T15:12:51.836Z</time></trkpt><trkpt lat="43.287205" lon="12.996105"><ele>308.75</ele><time>2026-04-04T15:12:52.836Z</time></trkpt><trkpt lat="43.2872933" lon="12.996005"><ele>309.0</ele><time>2026-04-04T15:12:53.837Z</time></trkpt><trkpt lat="43.28737" lon="12.9959067"><ele>308.4</ele><time>2026-04-04T15:12:54.833Z</time></trkpt><trkpt lat="43.28743" lon="12.9958017"><ele>307.79999999999995</ele><time>2026-04-04T15:12:55.834Z</time></trkpt><trkpt lat="43.2874617" lon="12.9956783"><ele>307.20000000000005</ele><time>2026-04-04T15:12:56.835Z</time></trkpt><trkpt lat="43.2874567" lon="12.9955383"><ele>306.6</ele><time>2026-04-04T15:12:57.834Z</time></trkpt><trkpt lat="43.2874183" lon="12.9953967"><ele>306.0</ele><time>2026-04-04T15:12:58.834Z</time></trkpt><trkpt lat="43.2873617" lon="12.9952567"><ele>306.0</ele><time>2026-04-04T15:12:59.834Z</time></trkpt><trkpt lat="43.287305" lon="12.99511"><ele>306.0</ele><time>2026-04-04T15:13:00.837Z</time></trkpt><trkpt lat="43.2872583" lon="12.9949683"><ele>306.0</ele><time>2026-04-04T15:13:01.834Z</time></trkpt><trkpt lat="43.2872233" lon="12.994835"><ele>306.0</ele><time>2026-04-04T15:13:02.836Z</time></trkpt><trkpt lat="43.2872067" lon="12.9947017"><ele>306.0</ele><time>2026-04-04T15:13:03.835Z</time></trkpt><trkpt lat="43.2872133" lon="12.9945567"><ele>305.0</ele><time>2026-04-04T15:13:04.833Z</time></trkpt><trkpt lat="43.2872283" lon="12.9944033"><ele>304.0</ele><time>2026-04-04T15:13:05.832Z</time></trkpt><trkpt lat="43.2872383" lon="12.9942267"><ele>303.0</ele><time>2026-04-04T15:13:06.836Z</time></trkpt><trkpt lat="43.28724" lon="12.9940517"><ele>302.0</ele><time>2026-04-04T15:13:07.835Z</time></trkpt><trkpt lat="43.2872483" lon="12.9938683"><ele>300.5</ele><time>2026-04-04T15:13:08.836Z</time></trkpt><trkpt lat="43.2872717" lon="12.99369"><ele>299.0</ele><time>2026-04-04T15:13:09.831Z</time></trkpt><trkpt lat="43.2873183" lon="12.9935217"><ele>297.5</ele><time>2026-04-04T15:13:10.835Z</time></trkpt><trkpt lat="43.287385" lon="12.9933817"><ele>296.0</ele><time>2026-04-04T15:13:11.836Z</time></trkpt><trkpt lat="43.2874617" lon="12.9932633"><ele>295.2</ele><time>2026-04-04T15:13:12.835Z</time></trkpt><trkpt lat="43.2875367" lon="12.9931483"><ele>294.40000000000003</ele><time>2026-04-04T15:13:13.831Z</time></trkpt><trkpt lat="43.2875933" lon="12.9930283"><ele>293.6</ele><time>2026-04-04T15:13:14.836Z</time></trkpt><trkpt lat="43.28762" lon="12.9928933"><ele>292.8</ele><time>2026-04-04T15:13:15.834Z</time></trkpt><trkpt lat="43.2876017" lon="12.9927433"><ele>292.0</ele><time>2026-04-04T15:13:16.835Z</time></trkpt><trkpt lat="43.28757" lon="12.9925967"><ele>292.75</ele><time>2026-04-04T15:13:17.836Z</time></trkpt><trkpt lat="43.28753" lon="12.9924433"><ele>293.5</ele><time>2026-04-04T15:13:18.837Z</time></trkpt><trkpt lat="43.2874933" lon="12.9922817"><ele>294.25</ele><time>2026-04-04T15:13:19.835Z</time></trkpt><trkpt lat="43.2874567" lon="12.9921167"><ele>295.0</ele><time>2026-04-04T15:13:20.834Z</time></trkpt><trkpt lat="43.2874167" lon="12.991955"><ele>295.0</ele><time>2026-04-04T15:13:21.836Z</time></trkpt><trkpt lat="43.2873667" lon="12.991805"><ele>295.0</ele><time>2026-04-04T15:13:22.832Z</time></trkpt><trkpt lat="43.2873133" lon="12.9916567"><ele>295.0</ele><time>2026-04-04T15:13:23.836Z</time></trkpt><trkpt lat="43.2872633" lon="12.9915083"><ele>295.0</ele><time>2026-04-04T15:13:24.834Z</time></trkpt><trkpt lat="43.2872117" lon="12.991355"><ele>296.25</ele><time>2026-04-04T15:13:25.834Z</time></trkpt><trkpt lat="43.28716" lon="12.9912017"><ele>297.5</ele><time>2026-04-04T15:13:26.835Z</time></trkpt><trkpt lat="43.2871183" lon="12.9910467"><ele>298.75</ele><time>2026-04-04T15:13:27.834Z</time></trkpt><trkpt lat="43.287065" lon="12.9908917"><ele>300.0</ele><time>2026-04-04T15:13:28.833Z</time></trkpt><trkpt lat="43.28701" lon="12.9907383"><ele>300.6666666666667</ele><time>2026-04-04T15:13:29.832Z</time></trkpt><trkpt lat="43.2869617" lon="12.9905967"><ele>301.3333333333333</ele><time>2026-04-04T15:13:30.834Z</time></trkpt><trkpt lat="43.2869217" lon="12.99048"><ele>302.0</ele><time>2026-04-04T15:13:31.833Z</time></trkpt><trkpt lat="43.2868917" lon="12.9903783"><ele>302.66666666666663</ele><time>2026-04-04T15:13:32.835Z</time></trkpt><trkpt lat="43.28688" lon="12.990285"><ele>303.3333333333333</ele><time>2026-04-04T15:13:33.835Z</time></trkpt><trkpt lat="43.2868883" lon="12.9901917"><ele>304.0</ele><time>2026-04-04T15:13:34.834Z</time></trkpt><trkpt lat="43.2869333" lon="12.9901017"><ele>304.0</ele><time>2026-04-04T15:13:35.833Z</time></trkpt><trkpt lat="43.2870067" lon="12.99002"><ele>304.0</ele><time>2026-04-04T15:13:36.834Z</time></trkpt><trkpt lat="43.28709" lon="12.98995"><ele>304.0</ele><time>2026-04-04T15:13:37.834Z</time></trkpt><trkpt lat="43.28717" lon="12.989865"><ele>304.0</ele><time>2026-04-04T15:13:38.836Z</time></trkpt><trkpt lat="43.287255" lon="12.9897583"><ele>304.0</ele><time>2026-04-04T15:13:39.83Z</time></trkpt><trkpt lat="43.2873483" lon="12.98965"><ele>303.25</ele><time>2026-04-04T15:13:40.834Z</time></trkpt><trkpt lat="43.2874467" lon="12.989555"><ele>302.5</ele><time>2026-04-04T15:13:41.834Z</time></trkpt><trkpt lat="43.2875483" lon="12.9894517"><ele>301.75</ele><time>2026-04-04T15:13:42.834Z</time></trkpt><trkpt lat="43.287645" lon="12.989325"><ele>301.0</ele><time>2026-04-04T15:13:43.834Z</time></trkpt><trkpt lat="43.2877333" lon="12.9891917"><ele>301.0</ele><time>2026-04-04T15:13:44.834Z</time></trkpt><trkpt lat="43.28782" lon="12.9890567"><ele>301.0</ele><time>2026-04-04T15:13:45.833Z</time></trkpt><trkpt lat="43.28791" lon="12.9889183"><ele>301.0</ele><time>2026-04-04T15:13:46.829Z</time></trkpt><trkpt lat="43.2879917" lon="12.9887633"><ele>301.0</ele><time>2026-04-04T15:13:47.839Z</time></trkpt><trkpt lat="43.2880533" lon="12.988585"><ele>301.0</ele><time>2026-04-04T15:13:48.832Z</time></trkpt><trkpt lat="43.2881133" lon="12.9884"><ele>301.0</ele><time>2026-04-04T15:13:49.833Z</time></trkpt><trkpt lat="43.2881633" lon="12.988215"><ele>301.0</ele><time>2026-04-04T15:13:50.834Z</time></trkpt><trkpt lat="43.28822" lon="12.9880217"><ele>301.0</ele><time>2026-04-04T15:13:51.828Z</time></trkpt><trkpt lat="43.2882767" lon="12.98784"><ele>301.3333333333333</ele><time>2026-04-04T15:13:52.834Z</time></trkpt><trkpt lat="43.28834" lon="12.9876483"><ele>301.6666666666667</ele><time>2026-04-04T15:13:53.834Z</time></trkpt><trkpt lat="43.2884033" lon="12.9874517"><ele>302.0</ele><time>2026-04-04T15:13:54.834Z</time></trkpt><trkpt lat="43.2884667" lon="12.98726"><ele>302.25</ele><time>2026-04-04T15:13:55.834Z</time></trkpt><trkpt lat="43.2885283" lon="12.98708"><ele>302.5</ele><time>2026-04-04T15:13:56.835Z</time></trkpt><trkpt lat="43.288585" lon="12.9869217"><ele>302.75</ele><time>2026-04-04T15:13:57.833Z</time></trkpt><trkpt lat="43.28864" lon="12.9867717"><ele>303.0</ele><time>2026-04-04T15:13:58.834Z</time></trkpt><trkpt lat="43.2887033" lon="12.986625"><ele>303.25</ele><time>2026-04-04T15:13:59.833Z</time></trkpt><trkpt lat="43.2887683" lon="12.98648"><ele>303.5</ele><time>2026-04-04T15:14:00.833Z</time></trkpt><trkpt lat="43.2888367" lon="12.9863317"><ele>303.75</ele><time>2026-04-04T15:14:01.833Z</time></trkpt><trkpt lat="43.288905" lon="12.9861767"><ele>304.0</ele><time>2026-04-04T15:14:02.83Z</time></trkpt><trkpt lat="43.2889683" lon="12.98601"><ele>303.5</ele><time>2026-04-04T15:14:03.833Z</time></trkpt><trkpt lat="43.2890267" lon="12.9858383"><ele>303.0</ele><time>2026-04-04T15:14:04.849Z</time></trkpt><trkpt lat="43.2890833" lon="12.985665"><ele>302.5</ele><time>2026-04-04T15:14:05.832Z</time></trkpt><trkpt lat="43.2891417" lon="12.9854917"><ele>302.0</ele><time>2026-04-04T15:14:06.834Z</time></trkpt><trkpt lat="43.2892" lon="12.9853117"><ele>302.0</ele><time>2026-04-04T15:14:07.834Z</time></trkpt><trkpt lat="43.2892583" lon="12.9851317"><ele>302.0</ele><time>2026-04-04T15:14:08.834Z</time></trkpt><trkpt lat="43.289315" lon="12.9849533"><ele>302.0</ele><time>2026-04-04T15:14:09.834Z</time></trkpt><trkpt lat="43.2893717" lon="12.9847783"><ele>302.0</ele><time>2026-04-04T15:14:10.832Z</time></trkpt><trkpt lat="43.289425" lon="12.9846017"><ele>301.0</ele><time>2026-04-04T15:14:11.834Z</time></trkpt><trkpt lat="43.2894767" lon="12.9844283"><ele>300.0</ele><time>2026-04-04T15:14:12.834Z</time></trkpt><trkpt lat="43.2895317" lon="12.9842517"><ele>299.0</ele><time>2026-04-04T15:14:13.833Z</time></trkpt><trkpt lat="43.2895883" lon="12.9840767"><ele>298.0</ele><time>2026-04-04T15:14:14.834Z</time></trkpt><trkpt lat="43.2896417" lon="12.9839"><ele>297.75</ele><time>2026-04-04T15:14:15.834Z</time></trkpt><trkpt lat="43.289695" lon="12.9837283"><ele>297.5</ele><time>2026-04-04T15:14:16.833Z</time></trkpt><trkpt lat="43.289745" lon="12.98356"><ele>297.25</ele><time>2026-04-04T15:14:17.833Z</time></trkpt><trkpt lat="43.2898017" lon="12.9834033"><ele>297.0</ele><time>2026-04-04T15:14:18.834Z</time></trkpt><trkpt lat="43.28988" lon="12.9832817"><ele>296.75</ele><time>2026-04-04T15:14:19.834Z</time></trkpt><trkpt lat="43.289975" lon="12.9832"><ele>296.5</ele><time>2026-04-04T15:14:20.836Z</time></trkpt><trkpt lat="43.2900867" lon="12.98314"><ele>296.25</ele><time>2026-04-04T15:14:21.834Z</time></trkpt><trkpt lat="43.2902083" lon="12.9830833"><ele>296.0</ele><time>2026-04-04T15:14:22.832Z</time></trkpt><trkpt lat="43.2903367" lon="12.9830233"><ele>296.0</ele><time>2026-04-04T15:14:23.833Z</time></trkpt><trkpt lat="43.2904667" lon="12.9829617"><ele>296.0</ele><time>2026-04-04T15:14:24.834Z</time></trkpt><trkpt lat="43.2905983" lon="12.9828983"><ele>296.0</ele><time>2026-04-04T15:14:25.835Z</time></trkpt><trkpt lat="43.2907333" lon="12.98283"><ele>296.0</ele><time>2026-04-04T15:14:26.834Z</time></trkpt><trkpt lat="43.2908667" lon="12.9827617"><ele>295.75</ele><time>2026-04-04T15:14:27.833Z</time></trkpt><trkpt lat="43.2909983" lon="12.9826933"><ele>295.5</ele><time>2026-04-04T15:14:28.834Z</time></trkpt><trkpt lat="43.2911267" lon="12.9826267"><ele>295.25</ele><time>2026-04-04T15:14:29.833Z</time></trkpt><trkpt lat="43.291255" lon="12.9825533"><ele>295.0</ele><time>2026-04-04T15:14:30.833Z</time></trkpt><trkpt lat="43.2913783" lon="12.9824817"><ele>294.25</ele><time>2026-04-04T15:14:31.833Z</time></trkpt><trkpt lat="43.2915017" lon="12.98242"><ele>293.5</ele><time>2026-04-04T15:14:32.834Z</time></trkpt><trkpt lat="43.2916233" lon="12.9823533"><ele>292.75</ele><time>2026-04-04T15:14:33.832Z</time></trkpt><trkpt lat="43.29174" lon="12.9822933"><ele>292.0</ele><time>2026-04-04T15:14:34.834Z</time></trkpt><trkpt lat="43.2918517" lon="12.982255"><ele>292.0</ele><time>2026-04-04T15:14:35.833Z</time></trkpt><trkpt lat="43.29196" lon="12.9822467"><ele>292.0</ele><time>2026-04-04T15:14:36.834Z</time></trkpt><trkpt lat="43.292075" lon="12.982265"><ele>292.0</ele><time>2026-04-04T15:14:37.832Z</time></trkpt><trkpt lat="43.29219" lon="12.9823"><ele>292.0</ele><time>2026-04-04T15:14:38.835Z</time></trkpt><trkpt lat="43.2923033" lon="12.9823233"><ele>291.0</ele><time>2026-04-04T15:14:39.836Z</time></trkpt><trkpt lat="43.29242" lon="12.9823333"><ele>290.0</ele><time>2026-04-04T15:14:40.835Z</time></trkpt><trkpt lat="43.292525" lon="12.9823417"><ele>289.0</ele><time>2026-04-04T15:14:41.834Z</time></trkpt><trkpt lat="43.2926233" lon="12.9823467"><ele>288.0</ele><time>2026-04-04T15:14:42.833Z</time></trkpt><trkpt lat="43.2927083" lon="12.9823333"><ele>287.0</ele><time>2026-04-04T15:14:43.832Z</time></trkpt><trkpt lat="43.2927833" lon="12.982295"><ele>287.0</ele><time>2026-04-04T15:14:44.835Z</time></trkpt><trkpt lat="43.2928517" lon="12.98224"><ele>287.0</ele><time>2026-04-04T15:14:45.835Z</time></trkpt><trkpt lat="43.29291" lon="12.9821783"><ele>287.0</ele><time>2026-04-04T15:14:46.834Z</time></trkpt><trkpt lat="43.2929583" lon="12.9821117"><ele>287.0</ele><time>2026-04-04T15:14:47.833Z</time></trkpt><trkpt lat="43.2930083" lon="12.9820367"><ele>287.0</ele><time>2026-04-04T15:14:48.835Z</time></trkpt><trkpt lat="43.2930733" lon="12.9819867"><ele>287.0</ele><time>2026-04-04T15:14:49.835Z</time></trkpt><trkpt lat="43.2931583" lon="12.981955"><ele>287.33333333333337</ele><time>2026-04-04T15:14:50.835Z</time></trkpt><trkpt lat="43.2932533" lon="12.981915"><ele>287.6666666666667</ele><time>2026-04-04T15:14:51.833Z</time></trkpt><trkpt lat="43.293345" lon="12.9818567"><ele>288.0</ele><time>2026-04-04T15:14:52.832Z</time></trkpt><trkpt lat="43.2934267" lon="12.9818"><ele>288.3333333333333</ele><time>2026-04-04T15:14:53.833Z</time></trkpt><trkpt lat="43.293505" lon="12.9817817"><ele>288.66666666666663</ele><time>2026-04-04T15:14:54.835Z</time></trkpt><trkpt lat="43.2935717" lon="12.9817783"><ele>289.0</ele><time>2026-04-04T15:14:55.833Z</time></trkpt><trkpt lat="43.2936133" lon="12.9818433"><ele>289.0</ele><time>2026-04-04T15:14:56.836Z</time></trkpt><trkpt lat="43.2936783" lon="12.9819267"><ele>289.0</ele><time>2026-04-04T15:14:57.833Z</time></trkpt><trkpt lat="43.2937483" lon="12.9820383"><ele>289.0</ele><time>2026-04-04T15:14:58.834Z</time></trkpt><trkpt lat="43.2938267" lon="12.98215"><ele>289.0</ele><time>2026-04-04T15:14:59.836Z</time></trkpt><trkpt lat="43.2939183" lon="12.9822433"><ele>289.0</ele><time>2026-04-04T15:15:00.834Z</time></trkpt><trkpt lat="43.2940233" lon="12.9823283"><ele>288.8</ele><time>2026-04-04T15:15:01.832Z</time></trkpt><trkpt lat="43.2941283" lon="12.9823867"><ele>288.59999999999997</ele><time>2026-04-04T15:15:02.834Z</time></trkpt><trkpt lat="43.2942233" lon="12.9824367"><ele>288.4</ele><time>2026-04-04T15:15:03.835Z</time></trkpt><trkpt lat="43.29431" lon="12.9824833"><ele>288.2</ele><time>2026-04-04T15:15:04.834Z</time></trkpt><trkpt lat="43.2943917" lon="12.9825433"><ele>288.0</ele><time>2026-04-04T15:15:05.835Z</time></trkpt><trkpt lat="43.294455" lon="12.982645"><ele>288.8</ele><time>2026-04-04T15:15:06.834Z</time></trkpt><trkpt lat="43.2945217" lon="12.9827667"><ele>289.6</ele><time>2026-04-04T15:15:07.832Z</time></trkpt><trkpt lat="43.294595" lon="12.9828883"><ele>290.4</ele><time>2026-04-04T15:15:08.836Z</time></trkpt><trkpt lat="43.2946633" lon="12.98301"><ele>291.2</ele><time>2026-04-04T15:15:09.833Z</time></trkpt><trkpt lat="43.2947317" lon="12.9831183"><ele>292.0</ele><time>2026-04-04T15:15:10.832Z</time></trkpt><trkpt lat="43.2947883" lon="12.9832117"><ele>292.0</ele><time>2026-04-04T15:15:11.834Z</time></trkpt><trkpt lat="43.29484" lon="12.9832917"><ele>292.0</ele><time>2026-04-04T15:15:12.832Z</time></trkpt><trkpt lat="43.2948917" lon="12.9833567"><ele>292.0</ele><time>2026-04-04T15:15:13.833Z</time></trkpt><trkpt lat="43.2949883" lon="12.9834333"><ele>292.0</ele><time>2026-04-04T15:15:15.829Z</time></trkpt><trkpt lat="43.2951183" lon="12.9833817"><ele>292.0</ele><time>2026-04-04T15:15:17.834Z</time></trkpt><trkpt lat="43.2952067" lon="12.9833283"><ele>292.0</ele><time>2026-04-04T15:15:18.835Z</time></trkpt><trkpt lat="43.2953117" lon="12.9832683"><ele>292.0</ele><time>2026-04-04T15:15:19.835Z</time></trkpt><trkpt lat="43.2954267" lon="12.9832083"><ele>292.0</ele><time>2026-04-04T15:15:20.835Z</time></trkpt><trkpt lat="43.2955367" lon="12.9831467"><ele>292.0</ele><time>2026-04-04T15:15:21.836Z</time></trkpt><trkpt lat="43.2956417" lon="12.983075"><ele>291.5</ele><time>2026-04-04T15:15:22.833Z</time></trkpt><trkpt lat="43.2957483" lon="12.9830017"><ele>291.0</ele><time>2026-04-04T15:15:23.834Z</time></trkpt><trkpt lat="43.29586" lon="12.98294"><ele>290.5</ele><time>2026-04-04T15:15:24.835Z</time></trkpt><trkpt lat="43.29598" lon="12.9829"><ele>290.0</ele><time>2026-04-04T15:15:25.831Z</time></trkpt><trkpt lat="43.2961083" lon="12.9828667"><ele>290.0</ele><time>2026-04-04T15:15:26.836Z</time></trkpt><trkpt lat="43.2962317" lon="12.9828283"><ele>290.0</ele><time>2026-04-04T15:15:27.833Z</time></trkpt><trkpt lat="43.2963483" lon="12.98279"><ele>290.0</ele><time>2026-04-04T15:15:28.834Z</time></trkpt><trkpt lat="43.2964517" lon="12.9827567"><ele>290.0</ele><time>2026-04-04T15:15:29.835Z</time></trkpt><trkpt lat="43.2965317" lon="12.9827067"><ele>290.0</ele><time>2026-04-04T15:15:30.835Z</time></trkpt><trkpt lat="43.296595" lon="12.9826233"><ele>289.8</ele><time>2026-04-04T15:15:31.833Z</time></trkpt><trkpt lat="43.2966333" lon="12.982515"><ele>289.6</ele><time>2026-04-04T15:15:32.834Z</time></trkpt><trkpt lat="43.2966617" lon="12.9823883"><ele>289.4</ele><time>2026-04-04T15:15:33.834Z</time></trkpt><trkpt lat="43.2966533" lon="12.9822383"><ele>289.2</ele><time>2026-04-04T15:15:34.835Z</time></trkpt><trkpt lat="43.2966517" lon="12.9821067"><ele>289.0</ele><time>2026-04-04T15:15:35.834Z</time></trkpt><trkpt lat="43.2966733" lon="12.9819983"><ele>288.4</ele><time>2026-04-04T15:15:36.837Z</time></trkpt><trkpt lat="43.2967267" lon="12.98193"><ele>287.79999999999995</ele><time>2026-04-04T15:15:37.833Z</time></trkpt><trkpt lat="43.2968117" lon="12.9819217"><ele>287.20000000000005</ele><time>2026-04-04T15:15:38.832Z</time></trkpt><trkpt lat="43.29691" lon="12.9819217"><ele>286.6</ele><time>2026-04-04T15:15:39.834Z</time></trkpt><trkpt lat="43.2970333" lon="12.9819683"><ele>286.0</ele><time>2026-04-04T15:15:40.834Z</time></trkpt><trkpt lat="43.2971517" lon="12.9819833"><ele>285.0</ele><time>2026-04-04T15:15:41.835Z</time></trkpt><trkpt lat="43.29728" lon="12.9819767"><ele>284.0</ele><time>2026-04-04T15:15:42.834Z</time></trkpt><trkpt lat="43.2974083" lon="12.9819683"><ele>283.0</ele><time>2026-04-04T15:15:43.834Z</time></trkpt><trkpt lat="43.2975467" lon="12.9819567"><ele>282.0</ele><time>2026-04-04T15:15:44.835Z</time></trkpt><trkpt lat="43.297695" lon="12.9819467"><ele>282.0</ele><time>2026-04-04T15:15:45.836Z</time></trkpt><trkpt lat="43.2978417" lon="12.9819383"><ele>282.0</ele><time>2026-04-04T15:15:46.834Z</time></trkpt><trkpt lat="43.2979733" lon="12.98193"><ele>282.0</ele><time>2026-04-04T15:15:47.832Z</time></trkpt><trkpt lat="43.298085" lon="12.9819067"><ele>282.0</ele><time>2026-04-04T15:15:48.837Z</time></trkpt><trkpt lat="43.2981833" lon="12.9818717"><ele>281.2</ele><time>2026-04-04T15:15:49.835Z</time></trkpt><trkpt lat="43.2982717" lon="12.9818583"><ele>280.4</ele><time>2026-04-04T15:15:50.833Z</time></trkpt><trkpt lat="43.2983683" lon="12.98187"><ele>279.6</ele><time>2026-04-04T15:15:51.834Z</time></trkpt><trkpt lat="43.2984733" lon="12.9818867"><ele>278.8</ele><time>2026-04-04T15:15:52.834Z</time></trkpt><trkpt lat="43.2985833" lon="12.9818733"><ele>278.0</ele><time>2026-04-04T15:15:53.836Z</time></trkpt><trkpt lat="43.2986967" lon="12.98183"><ele>278.0</ele><time>2026-04-04T15:15:54.835Z</time></trkpt><trkpt lat="43.298805" lon="12.9817717"><ele>278.0</ele><time>2026-04-04T15:15:55.835Z</time></trkpt><trkpt lat="43.298915" lon="12.981715"><ele>278.0</ele><time>2026-04-04T15:15:56.835Z</time></trkpt><trkpt lat="43.2990267" lon="12.9816733"><ele>278.0</ele><time>2026-04-04T15:15:57.835Z</time></trkpt><trkpt lat="43.2991383" lon="12.9816517"><ele>277.6</ele><time>2026-04-04T15:15:58.835Z</time></trkpt><trkpt lat="43.299245" lon="12.9816533"><ele>277.20000000000005</ele><time>2026-04-04T15:15:59.834Z</time></trkpt><trkpt lat="43.299345" lon="12.981665"><ele>276.8</ele><time>2026-04-04T15:16:00.835Z</time></trkpt><trkpt lat="43.2994417" lon="12.9816533"><ele>276.40000000000003</ele><time>2026-04-04T15:16:01.835Z</time></trkpt><trkpt lat="43.2995267" lon="12.9816117"><ele>276.0</ele><time>2026-04-04T15:16:02.835Z</time></trkpt><trkpt lat="43.2996067" lon="12.9815567"><ele>276.0</ele><time>2026-04-04T15:16:03.835Z</time></trkpt><trkpt lat="43.299695" lon="12.9814933"><ele>276.0</ele><time>2026-04-04T15:16:04.835Z</time></trkpt><trkpt lat="43.29979" lon="12.9814367"><ele>276.0</ele><time>2026-04-04T15:16:05.834Z</time></trkpt><trkpt lat="43.2998817" lon="12.9813983"><ele>276.0</ele><time>2026-04-04T15:16:06.835Z</time></trkpt><trkpt lat="43.299965" lon="12.9813767"><ele>276.0</ele><time>2026-04-04T15:16:07.833Z</time></trkpt><trkpt lat="43.300045" lon="12.9813683"><ele>275.5</ele><time>2026-04-04T15:16:08.837Z</time></trkpt><trkpt lat="43.3001233" lon="12.9813717"><ele>275.0</ele><time>2026-04-04T15:16:09.835Z</time></trkpt><trkpt lat="43.3001967" lon="12.98138"><ele>274.5</ele><time>2026-04-04T15:16:10.835Z</time></trkpt><trkpt lat="43.300305" lon="12.9813267"><ele>274.0</ele><time>2026-04-04T15:16:12.834Z</time></trkpt><trkpt lat="43.3003433" lon="12.981255"><ele>273.5</ele><time>2026-04-04T15:16:13.834Z</time></trkpt><trkpt lat="43.3003933" lon="12.9811767"><ele>273.0</ele><time>2026-04-04T15:16:14.836Z</time></trkpt><trkpt lat="43.3004617" lon="12.9810967"><ele>273.0</ele><time>2026-04-04T15:16:15.835Z</time></trkpt><trkpt lat="43.3005433" lon="12.9810333"><ele>273.0</ele><time>2026-04-04T15:16:16.835Z</time></trkpt><trkpt lat="43.3006317" lon="12.980965"><ele>273.0</ele><time>2026-04-04T15:16:17.834Z</time></trkpt><trkpt lat="43.3007183" lon="12.9808817"><ele>273.0</ele><time>2026-04-04T15:16:18.836Z</time></trkpt><trkpt lat="43.3008083" lon="12.9807917"><ele>273.0</ele><time>2026-04-04T15:16:19.836Z</time></trkpt><trkpt lat="43.300895" lon="12.98069"><ele>273.0</ele><time>2026-04-04T15:16:20.835Z</time></trkpt><trkpt lat="43.3009867" lon="12.9805883"><ele>273.0</ele><time>2026-04-04T15:16:21.834Z</time></trkpt><trkpt lat="43.30109" lon="12.9805017"><ele>273.0</ele><time>2026-04-04T15:16:22.832Z</time></trkpt><trkpt lat="43.3012" lon="12.98043"><ele>273.0</ele><time>2026-04-04T15:16:23.832Z</time></trkpt><trkpt lat="43.301315" lon="12.9803667"><ele>272.5</ele><time>2026-04-04T15:16:24.835Z</time></trkpt><trkpt lat="43.3014317" lon="12.9803033"><ele>272.0</ele><time>2026-04-04T15:16:25.835Z</time></trkpt><trkpt lat="43.3015467" lon="12.9802367"><ele>271.5</ele><time>2026-04-04T15:16:26.835Z</time></trkpt><trkpt lat="43.3016667" lon="12.980155"><ele>271.0</ele><time>2026-04-04T15:16:27.834Z</time></trkpt><trkpt lat="43.3017867" lon="12.9800633"><ele>271.25</ele><time>2026-04-04T15:16:28.834Z</time></trkpt><trkpt lat="43.30191" lon="12.9799717"><ele>271.5</ele><time>2026-04-04T15:16:29.835Z</time></trkpt><trkpt lat="43.3020333" lon="12.979885"><ele>271.75</ele><time>2026-04-04T15:16:30.833Z</time></trkpt><trkpt lat="43.30216" lon="12.9798033"><ele>272.0</ele><time>2026-04-04T15:16:31.833Z</time></trkpt><trkpt lat="43.3022933" lon="12.9797217"><ele>272.0</ele><time>2026-04-04T15:16:32.835Z</time></trkpt><trkpt lat="43.3024317" lon="12.9796433"><ele>272.0</ele><time>2026-04-04T15:16:33.834Z</time></trkpt><trkpt lat="43.30257" lon="12.9795717"><ele>272.0</ele><time>2026-04-04T15:16:34.832Z</time></trkpt><trkpt lat="43.3027083" lon="12.9795017"><ele>272.0</ele><time>2026-04-04T15:16:35.834Z</time></trkpt><trkpt lat="43.3028483" lon="12.97944"><ele>272.0</ele><time>2026-04-04T15:16:36.834Z</time></trkpt><trkpt lat="43.3029833" lon="12.9793883"><ele>272.0</ele><time>2026-04-04T15:16:37.835Z</time></trkpt><trkpt lat="43.3031167" lon="12.97934"><ele>272.0</ele><time>2026-04-04T15:16:38.846Z</time></trkpt><trkpt lat="43.3032483" lon="12.97929"><ele>272.0</ele><time>2026-04-04T15:16:39.833Z</time></trkpt><trkpt lat="43.3033783" lon="12.97924"><ele>272.0</ele><time>2026-04-04T15:16:40.832Z</time></trkpt><trkpt lat="43.3034983" lon="12.9791933"><ele>272.0</ele><time>2026-04-04T15:16:41.833Z</time></trkpt><trkpt lat="43.3036067" lon="12.9791367"><ele>272.0</ele><time>2026-04-04T15:16:42.834Z</time></trkpt><trkpt lat="43.3037033" lon="12.9790633"><ele>272.0</ele><time>2026-04-04T15:16:43.834Z</time></trkpt><trkpt lat="43.3037933" lon="12.9789683"><ele>272.2</ele><time>2026-04-04T15:16:44.835Z</time></trkpt><trkpt lat="43.3038683" lon="12.9788617"><ele>272.4</ele><time>2026-04-04T15:16:45.835Z</time></trkpt><trkpt lat="43.3039367" lon="12.9787517"><ele>272.6</ele><time>2026-04-04T15:16:46.835Z</time></trkpt><trkpt lat="43.3040017" lon="12.978645"><ele>272.8</ele><time>2026-04-04T15:16:47.833Z</time></trkpt><trkpt lat="43.3040617" lon="12.9785533"><ele>273.0</ele><time>2026-04-04T15:16:48.834Z</time></trkpt><trkpt lat="43.3041133" lon="12.9784867"><ele>273.0</ele><time>2026-04-04T15:16:49.834Z</time></trkpt><trkpt lat="43.3042217" lon="12.978435"><ele>273.0</ele><time>2026-04-04T15:16:51.834Z</time></trkpt><trkpt lat="43.3042867" lon="12.9784583"><ele>273.0</ele><time>2026-04-04T15:16:52.833Z</time></trkpt><trkpt lat="43.3043633" lon="12.9784967"><ele>273.0</ele><time>2026-04-04T15:16:53.834Z</time></trkpt><trkpt lat="43.304455" lon="12.9785467"><ele>273.0</ele><time>2026-04-04T15:16:54.836Z</time></trkpt><trkpt lat="43.3045617" lon="12.9785717"><ele>273.0</ele><time>2026-04-04T15:16:55.835Z</time></trkpt><trkpt lat="43.3046767" lon="12.9785883"><ele>273.0</ele><time>2026-04-04T15:16:56.835Z</time></trkpt><trkpt lat="43.3048" lon="12.978595"><ele>273.0</ele><time>2026-04-04T15:16:57.836Z</time></trkpt><trkpt lat="43.30493" lon="12.9785967"><ele>273.0</ele><time>2026-04-04T15:16:58.833Z</time></trkpt><trkpt lat="43.3050567" lon="12.9785867"><ele>272.25</ele><time>2026-04-04T15:16:59.834Z</time></trkpt><trkpt lat="43.3051817" lon="12.9785667"><ele>271.5</ele><time>2026-04-04T15:17:00.834Z</time></trkpt><trkpt lat="43.3053033" lon="12.9785383"><ele>270.75</ele><time>2026-04-04T15:17:01.834Z</time></trkpt><trkpt lat="43.305425" lon="12.978495"><ele>270.0</ele><time>2026-04-04T15:17:02.835Z</time></trkpt><trkpt lat="43.3055467" lon="12.9784383"><ele>270.0</ele><time>2026-04-04T15:17:03.834Z</time></trkpt><trkpt lat="43.3056667" lon="12.978375"><ele>270.0</ele><time>2026-04-04T15:17:04.833Z</time></trkpt><trkpt lat="43.305785" lon="12.9783067"><ele>270.0</ele><time>2026-04-04T15:17:05.834Z</time></trkpt><trkpt lat="43.3059017" lon="12.9782367"><ele>270.0</ele><time>2026-04-04T15:17:06.835Z</time></trkpt><trkpt lat="43.30602" lon="12.9781667"><ele>270.0</ele><time>2026-04-04T15:17:07.835Z</time></trkpt><trkpt lat="43.3061467" lon="12.9781133"><ele>270.0</ele><time>2026-04-04T15:17:08.834Z</time></trkpt><trkpt lat="43.30628" lon="12.978085"><ele>270.0</ele><time>2026-04-04T15:17:09.833Z</time></trkpt><trkpt lat="43.3064083" lon="12.9780783"><ele>270.0</ele><time>2026-04-04T15:17:10.833Z</time></trkpt><trkpt lat="43.3065317" lon="12.9780867"><ele>269.6</ele><time>2026-04-04T15:17:11.834Z</time></trkpt><trkpt lat="43.3066467" lon="12.9780983"><ele>269.2</ele><time>2026-04-04T15:17:12.834Z</time></trkpt><trkpt lat="43.3067517" lon="12.978105"><ele>268.8</ele><time>2026-04-04T15:17:13.834Z</time></trkpt><trkpt lat="43.30685" lon="12.9781"><ele>268.4</ele><time>2026-04-04T15:17:14.835Z</time></trkpt><trkpt lat="43.3069433" lon="12.9780883"><ele>268.0</ele><time>2026-04-04T15:17:15.832Z</time></trkpt><trkpt lat="43.3070333" lon="12.978075"><ele>268.0</ele><time>2026-04-04T15:17:16.834Z</time></trkpt><trkpt lat="43.30712" lon="12.978055"><ele>268.0</ele><time>2026-04-04T15:17:17.835Z</time></trkpt><trkpt lat="43.3072033" lon="12.978035"><ele>268.0</ele><time>2026-04-04T15:17:18.836Z</time></trkpt><trkpt lat="43.3072867" lon="12.97801"><ele>268.0</ele><time>2026-04-04T15:17:19.835Z</time></trkpt><trkpt lat="43.3073733" lon="12.97798"><ele>268.0</ele><time>2026-04-04T15:17:20.835Z</time></trkpt><trkpt lat="43.3074617" lon="12.97794"><ele>268.0</ele><time>2026-04-04T15:17:21.835Z</time></trkpt><trkpt lat="43.3075467" lon="12.9778917"><ele>267.5</ele><time>2026-04-04T15:17:22.833Z</time></trkpt><trkpt lat="43.3076317" lon="12.9778417"><ele>267.0</ele><time>2026-04-04T15:17:23.828Z</time></trkpt><trkpt lat="43.30771" lon="12.97779"><ele>266.5</ele><time>2026-04-04T15:17:24.835Z</time></trkpt><trkpt lat="43.3077833" lon="12.9777383"><ele>266.0</ele><time>2026-04-04T15:17:25.834Z</time></trkpt><trkpt lat="43.30785" lon="12.9776883"><ele>265.5</ele><time>2026-04-04T15:17:26.835Z</time></trkpt><trkpt lat="43.3079133" lon="12.9776417"><ele>265.0</ele><time>2026-04-04T15:17:27.834Z</time></trkpt><trkpt lat="43.3079767" lon="12.9776083"><ele>265.0</ele><time>2026-04-04T15:17:28.834Z</time></trkpt><trkpt lat="43.3080933" lon="12.9775667"><ele>265.0</ele><time>2026-04-04T15:17:30.835Z</time></trkpt><trkpt lat="43.3082" lon="12.97754"><ele>265.0</ele><time>2026-04-04T15:17:32.835Z</time></trkpt><trkpt lat="43.3082983" lon="12.9775433"><ele>265.0</ele><time>2026-04-04T15:17:34.833Z</time></trkpt><trkpt lat="43.3083833" lon="12.977565"><ele>265.0</ele><time>2026-04-04T15:17:36.836Z</time></trkpt><trkpt lat="43.3084667" lon="12.9776133"><ele>265.0</ele><time>2026-04-04T15:17:38.835Z</time></trkpt><trkpt lat="43.308545" lon="12.9776767"><ele>265.0</ele><time>2026-04-04T15:17:40.835Z</time></trkpt><trkpt lat="43.3086333" lon="12.9777217"><ele>265.0</ele><time>2026-04-04T15:17:42.835Z</time></trkpt><trkpt lat="43.308695" lon="12.977745"><ele>265.0</ele><time>2026-04-04T15:17:43.833Z</time></trkpt><trkpt lat="43.3087717" lon="12.97777"><ele>265.0</ele><time>2026-04-04T15:17:44.836Z</time></trkpt><trkpt lat="43.30886" lon="12.97779"><ele>265.0</ele><time>2026-04-04T15:17:45.834Z</time></trkpt><trkpt lat="43.3089533" lon="12.9778183"><ele>265.16666666666663</ele><time>2026-04-04T15:17:46.834Z</time></trkpt><trkpt lat="43.3090483" lon="12.9778467"><ele>265.3333333333333</ele><time>2026-04-04T15:17:47.835Z</time></trkpt><trkpt lat="43.3091367" lon="12.9778717"><ele>265.5</ele><time>2026-04-04T15:17:48.836Z</time></trkpt><trkpt lat="43.3092183" lon="12.9778917"><ele>265.6666666666667</ele><time>2026-04-04T15:17:49.834Z</time></trkpt><trkpt lat="43.3092917" lon="12.9778933"><ele>265.83333333333337</ele><time>2026-04-04T15:17:50.835Z</time></trkpt><trkpt lat="43.309355" lon="12.9778667"><ele>266.0</ele><time>2026-04-04T15:17:51.835Z</time></trkpt><trkpt lat="43.3094117" lon="12.977805"><ele>266.0</ele><time>2026-04-04T15:17:52.833Z</time></trkpt><trkpt lat="43.30946" lon="12.9776883"><ele>266.0</ele><time>2026-04-04T15:17:53.834Z</time></trkpt><trkpt lat="43.3095117" lon="12.9775483"><ele>266.0</ele><time>2026-04-04T15:17:54.833Z</time></trkpt><trkpt lat="43.309585" lon="12.9774133"><ele>266.0</ele><time>2026-04-04T15:17:55.833Z</time></trkpt><trkpt lat="43.30968" lon="12.9772883"><ele>266.0</ele><time>2026-04-04T15:17:56.835Z</time></trkpt><trkpt lat="43.3098" lon="12.977185"><ele>266.0</ele><time>2026-04-04T15:17:57.835Z</time></trkpt><trkpt lat="43.3099333" lon="12.977095"><ele>266.0</ele><time>2026-04-04T15:17:58.834Z</time></trkpt><trkpt lat="43.3100667" lon="12.9770083"><ele>266.0</ele><time>2026-04-04T15:17:59.836Z</time></trkpt><trkpt lat="43.3101933" lon="12.9769117"><ele>266.0</ele><time>2026-04-04T15:18:00.835Z</time></trkpt><trkpt lat="43.310315" lon="12.9768083"><ele>266.0</ele><time>2026-04-04T15:18:01.833Z</time></trkpt><trkpt lat="43.3104367" lon="12.9766967"><ele>266.0</ele><time>2026-04-04T15:18:02.836Z</time></trkpt><trkpt lat="43.3105583" lon="12.976585"><ele>266.0</ele><time>2026-04-04T15:18:03.834Z</time></trkpt><trkpt lat="43.31068" lon="12.9764683"><ele>267.25</ele><time>2026-04-04T15:18:04.834Z</time></trkpt><trkpt lat="43.3108017" lon="12.9763517"><ele>268.5</ele><time>2026-04-04T15:18:05.83Z</time></trkpt><trkpt lat="43.3109217" lon="12.9762317"><ele>269.75</ele><time>2026-04-04T15:18:06.835Z</time></trkpt><trkpt lat="43.3110417" lon="12.976115"><ele>271.0</ele><time>2026-04-04T15:18:07.835Z</time></trkpt><trkpt lat="43.31116" lon="12.9759983"><ele>271.0</ele><time>2026-04-04T15:18:08.836Z</time></trkpt><trkpt lat="43.31128" lon="12.9758817"><ele>271.0</ele><time>2026-04-04T15:18:09.832Z</time></trkpt><trkpt lat="43.3114017" lon="12.975775"><ele>271.0</ele><time>2026-04-04T15:18:10.835Z</time></trkpt><trkpt lat="43.311525" lon="12.9756917"><ele>271.0</ele><time>2026-04-04T15:18:11.835Z</time></trkpt><trkpt lat="43.3116517" lon="12.9756517"><ele>271.75</ele><time>2026-04-04T15:18:12.838Z</time></trkpt><trkpt lat="43.31179" lon="12.9756367"><ele>272.5</ele><time>2026-04-04T15:18:13.836Z</time></trkpt><trkpt lat="43.311935" lon="12.9756267"><ele>273.25</ele><time>2026-04-04T15:18:14.836Z</time></trkpt><trkpt lat="43.312085" lon="12.9756117"><ele>274.0</ele><time>2026-04-04T15:18:15.833Z</time></trkpt><trkpt lat="43.3122383" lon="12.975605"><ele>273.3333333333333</ele><time>2026-04-04T15:18:16.834Z</time></trkpt><trkpt lat="43.3123917" lon="12.9756"><ele>272.6666666666667</ele><time>2026-04-04T15:18:17.832Z</time></trkpt><trkpt lat="43.3125517" lon="12.9755783"><ele>272.0</ele><time>2026-04-04T15:18:18.834Z</time></trkpt><trkpt lat="43.3127033" lon="12.9755367"><ele>272.0</ele><time>2026-04-04T15:18:19.835Z</time></trkpt><trkpt lat="43.31285" lon="12.9754717"><ele>272.0</ele><time>2026-04-04T15:18:20.834Z</time></trkpt><trkpt lat="43.312995" lon="12.97539"><ele>272.0</ele><time>2026-04-04T15:18:21.834Z</time></trkpt><trkpt lat="43.313135" lon="12.9752967"><ele>272.6666666666667</ele><time>2026-04-04T15:18:22.833Z</time></trkpt><trkpt lat="43.3132767" lon="12.9752033"><ele>273.3333333333333</ele><time>2026-04-04T15:18:23.833Z</time></trkpt><trkpt lat="43.313425" lon="12.975115"><ele>274.0</ele><time>2026-04-04T15:18:24.833Z</time></trkpt><trkpt lat="43.3135783" lon="12.97504"><ele>274.3333333333333</ele><time>2026-04-04T15:18:25.835Z</time></trkpt><trkpt lat="43.3137333" lon="12.9749883"><ele>274.6666666666667</ele><time>2026-04-04T15:18:26.835Z</time></trkpt><trkpt lat="43.3138917" lon="12.9749633"><ele>275.0</ele><time>2026-04-04T15:18:27.835Z</time></trkpt><trkpt lat="43.31405" lon="12.9749717"><ele>275.0</ele><time>2026-04-04T15:18:28.833Z</time></trkpt><trkpt lat="43.3142067" lon="12.9750067"><ele>275.0</ele><time>2026-04-04T15:18:29.833Z</time></trkpt><trkpt lat="43.3143567" lon="12.9750733"><ele>275.0</ele><time>2026-04-04T15:18:30.834Z</time></trkpt><trkpt lat="43.3144983" lon="12.9751583"><ele>274.6666666666667</ele><time>2026-04-04T15:18:31.834Z</time></trkpt><trkpt lat="43.314635" lon="12.9752567"><ele>274.3333333333333</ele><time>2026-04-04T15:18:32.836Z</time></trkpt><trkpt lat="43.31477" lon="12.975365"><ele>274.0</ele><time>2026-04-04T15:18:33.834Z</time></trkpt><trkpt lat="43.3149017" lon="12.9754767"><ele>274.0</ele><time>2026-04-04T15:18:34.833Z</time></trkpt><trkpt lat="43.3150283" lon="12.9755967"><ele>274.0</ele><time>2026-04-04T15:18:35.833Z</time></trkpt><trkpt lat="43.3151467" lon="12.97573"><ele>274.0</ele><time>2026-04-04T15:18:36.835Z</time></trkpt><trkpt lat="43.3152517" lon="12.9758817"><ele>273.0</ele><time>2026-04-04T15:18:37.834Z</time></trkpt><trkpt lat="43.31534" lon="12.97605"><ele>272.0</ele><time>2026-04-04T15:18:38.834Z</time></trkpt><trkpt lat="43.3154067" lon="12.9762317"><ele>271.0</ele><time>2026-04-04T15:18:39.833Z</time></trkpt><trkpt lat="43.31545" lon="12.9764183"><ele>270.0</ele><time>2026-04-04T15:18:40.834Z</time></trkpt><trkpt lat="43.3154767" lon="12.9766083"><ele>269.25</ele><time>2026-04-04T15:18:41.833Z</time></trkpt><trkpt lat="43.3155" lon="12.9767967"><ele>268.5</ele><time>2026-04-04T15:18:42.833Z</time></trkpt><trkpt lat="43.3155417" lon="12.9769783"><ele>267.75</ele><time>2026-04-04T15:18:43.832Z</time></trkpt><trkpt lat="43.3156067" lon="12.9771517"><ele>267.0</ele><time>2026-04-04T15:18:44.837Z</time></trkpt><trkpt lat="43.3156917" lon="12.9773183"><ele>265.6666666666667</ele><time>2026-04-04T15:18:45.833Z</time></trkpt><trkpt lat="43.3157933" lon="12.977475"><ele>264.33333333333337</ele><time>2026-04-04T15:18:46.832Z</time></trkpt><trkpt lat="43.3159" lon="12.9776233"><ele>263.0</ele><time>2026-04-04T15:18:47.834Z</time></trkpt><trkpt lat="43.316015" lon="12.9777533"><ele>262.33333333333337</ele><time>2026-04-04T15:18:48.834Z</time></trkpt><trkpt lat="43.3161433" lon="12.9778517"><ele>261.6666666666667</ele><time>2026-04-04T15:18:49.833Z</time></trkpt><trkpt lat="43.316285" lon="12.9779083"><ele>261.0</ele><time>2026-04-04T15:18:50.833Z</time></trkpt><trkpt lat="43.3164417" lon="12.9779183"><ele>260.6666666666667</ele><time>2026-04-04T15:18:51.834Z</time></trkpt><trkpt lat="43.31661" lon="12.9778983"><ele>260.33333333333337</ele><time>2026-04-04T15:18:52.834Z</time></trkpt><trkpt lat="43.3167783" lon="12.9778733"><ele>260.0</ele><time>2026-04-04T15:18:53.833Z</time></trkpt><trkpt lat="43.3169467" lon="12.9778483"><ele>260.0</ele><time>2026-04-04T15:18:54.834Z</time></trkpt><trkpt lat="43.317115" lon="12.9778233"><ele>260.0</ele><time>2026-04-04T15:18:55.834Z</time></trkpt><trkpt lat="43.3172833" lon="12.9778"><ele>260.0</ele><time>2026-04-04T15:18:56.835Z</time></trkpt><trkpt lat="43.3174483" lon="12.9777833"><ele>259.0</ele><time>2026-04-04T15:18:57.833Z</time></trkpt><trkpt lat="43.3176117" lon="12.977775"><ele>258.0</ele><time>2026-04-04T15:18:58.834Z</time></trkpt><trkpt lat="43.3177783" lon="12.977765"><ele>257.0</ele><time>2026-04-04T15:18:59.834Z</time></trkpt><trkpt lat="43.3179467" lon="12.977755"><ele>257.0</ele><time>2026-04-04T15:19:00.833Z</time></trkpt><trkpt lat="43.3181133" lon="12.9777467"><ele>257.0</ele><time>2026-04-04T15:19:01.827Z</time></trkpt><trkpt lat="43.3182783" lon="12.9777367"><ele>257.0</ele><time>2026-04-04T15:19:02.832Z</time></trkpt><trkpt lat="43.3184433" lon="12.9777267"><ele>257.0</ele><time>2026-04-04T15:19:03.834Z</time></trkpt><trkpt lat="43.3186067" lon="12.9777183"><ele>257.0</ele><time>2026-04-04T15:19:04.834Z</time></trkpt><trkpt lat="43.3187717" lon="12.9777067"><ele>257.0</ele><time>2026-04-04T15:19:05.834Z</time></trkpt><trkpt lat="43.3189367" lon="12.977695"><ele>257.0</ele><time>2026-04-04T15:19:06.833Z</time></trkpt><trkpt lat="43.3191033" lon="12.9776883"><ele>257.0</ele><time>2026-04-04T15:19:07.833Z</time></trkpt><trkpt lat="43.31927" lon="12.97769"><ele>257.0</ele><time>2026-04-04T15:19:08.834Z</time></trkpt><trkpt lat="43.319435" lon="12.97771"><ele>257.0</ele><time>2026-04-04T15:19:09.834Z</time></trkpt><trkpt lat="43.3195967" lon="12.977755"><ele>257.0</ele><time>2026-04-04T15:19:10.835Z</time></trkpt><trkpt lat="43.319755" lon="12.97782"><ele>257.0</ele><time>2026-04-04T15:19:11.833Z</time></trkpt><trkpt lat="43.319905" lon="12.9778967"><ele>257.0</ele><time>2026-04-04T15:19:12.834Z</time></trkpt><trkpt lat="43.32005" lon="12.97798"><ele>257.0</ele><time>2026-04-04T15:19:13.833Z</time></trkpt><trkpt lat="43.3201867" lon="12.9780683"><ele>257.0</ele><time>2026-04-04T15:19:14.834Z</time></trkpt><trkpt lat="43.3203117" lon="12.97816"><ele>257.0</ele><time>2026-04-04T15:19:15.834Z</time></trkpt><trkpt lat="43.320415" lon="12.978255"><ele>257.0</ele><time>2026-04-04T15:19:16.83Z</time></trkpt><trkpt lat="43.320505" lon="12.9783417"><ele>257.0</ele><time>2026-04-04T15:19:17.834Z</time></trkpt><trkpt lat="43.3205867" lon="12.9784267"><ele>257.0</ele><time>2026-04-04T15:19:18.835Z</time></trkpt><trkpt lat="43.320675" lon="12.978525"><ele>257.5</ele><time>2026-04-04T15:19:19.834Z</time></trkpt><trkpt lat="43.3207683" lon="12.9786417"><ele>258.0</ele><time>2026-04-04T15:19:20.834Z</time></trkpt><trkpt lat="43.3208617" lon="12.97878"><ele>258.5</ele><time>2026-04-04T15:19:21.834Z</time></trkpt><trkpt lat="43.3209517" lon="12.97893"><ele>259.0</ele><time>2026-04-04T15:19:22.834Z</time></trkpt><trkpt lat="43.3210367" lon="12.9790817"><ele>258.5</ele><time>2026-04-04T15:19:23.83Z</time></trkpt><trkpt lat="43.32111" lon="12.979245"><ele>258.0</ele><time>2026-04-04T15:19:24.832Z</time></trkpt><trkpt lat="43.3211833" lon="12.9794117"><ele>257.5</ele><time>2026-04-04T15:19:25.835Z</time></trkpt><trkpt lat="43.3212467" lon="12.97959"><ele>257.0</ele><time>2026-04-04T15:19:26.834Z</time></trkpt><trkpt lat="43.3212933" lon="12.979785"><ele>257.0</ele><time>2026-04-04T15:19:27.834Z</time></trkpt><trkpt lat="43.3213283" lon="12.979985"><ele>257.0</ele><time>2026-04-04T15:19:28.833Z</time></trkpt><trkpt lat="43.32136" lon="12.980185"><ele>257.0</ele><time>2026-04-04T15:19:29.831Z</time></trkpt><trkpt lat="43.3213883" lon="12.9803917"><ele>255.66666666666669</ele><time>2026-04-04T15:19:30.833Z</time></trkpt><trkpt lat="43.32142" lon="12.9805983"><ele>254.33333333333331</ele><time>2026-04-04T15:19:31.833Z</time></trkpt><trkpt lat="43.321455" lon="12.9808067"><ele>253.0</ele><time>2026-04-04T15:19:32.835Z</time></trkpt><trkpt lat="43.3214867" lon="12.981015"><ele>252.66666666666666</ele><time>2026-04-04T15:19:33.834Z</time></trkpt><trkpt lat="43.32152" lon="12.9812267"><ele>252.33333333333331</ele><time>2026-04-04T15:19:34.834Z</time></trkpt><trkpt lat="43.3215517" lon="12.9814333"><ele>252.0</ele><time>2026-04-04T15:19:35.834Z</time></trkpt><trkpt lat="43.3215833" lon="12.9816383"><ele>253.25</ele><time>2026-04-04T15:19:36.831Z</time></trkpt><trkpt lat="43.3216133" lon="12.9818383"><ele>254.5</ele><time>2026-04-04T15:19:37.832Z</time></trkpt><trkpt lat="43.3216383" lon="12.98203"><ele>255.75</ele><time>2026-04-04T15:19:38.834Z</time></trkpt><trkpt lat="43.3216417" lon="12.9822083"><ele>257.0</ele><time>2026-04-04T15:19:39.833Z</time></trkpt><trkpt lat="43.3216183" lon="12.98239"><ele>259.5</ele><time>2026-04-04T15:19:40.834Z</time></trkpt><trkpt lat="43.321575" lon="12.982575"><ele>262.0</ele><time>2026-04-04T15:19:41.835Z</time></trkpt><trkpt lat="43.321515" lon="12.9827633"><ele>264.5</ele><time>2026-04-04T15:19:42.834Z</time></trkpt><trkpt lat="43.3214533" lon="12.9829533"><ele>267.0</ele><time>2026-04-04T15:19:43.834Z</time></trkpt><trkpt lat="43.3213717" lon="12.9831267"><ele>267.3333333333333</ele><time>2026-04-04T15:19:44.836Z</time></trkpt><trkpt lat="43.321275" lon="12.9833"><ele>267.66666666666663</ele><time>2026-04-04T15:19:45.833Z</time></trkpt><trkpt lat="43.3211817" lon="12.9834783"><ele>268.0</ele><time>2026-04-04T15:19:46.834Z</time></trkpt><trkpt lat="43.321085" lon="12.9836517"><ele>269.66666666666663</ele><time>2026-04-04T15:19:47.834Z</time></trkpt><trkpt lat="43.320995" lon="12.9838267"><ele>271.3333333333333</ele><time>2026-04-04T15:19:48.833Z</time></trkpt><trkpt lat="43.320905" lon="12.984"><ele>273.0</ele><time>2026-04-04T15:19:49.833Z</time></trkpt><trkpt lat="43.3208217" lon="12.9841683"><ele>272.75</ele><time>2026-04-04T15:19:50.836Z</time></trkpt><trkpt lat="43.32074" lon="12.9843417"><ele>272.5</ele><time>2026-04-04T15:19:51.833Z</time></trkpt><trkpt lat="43.320665" lon="12.98451"><ele>272.25</ele><time>2026-04-04T15:19:52.833Z</time></trkpt><trkpt lat="43.32059" lon="12.9846667"><ele>272.0</ele><time>2026-04-04T15:19:53.834Z</time></trkpt><trkpt lat="43.3205283" lon="12.98482"><ele>273.0</ele><time>2026-04-04T15:19:54.833Z</time></trkpt><trkpt lat="43.320495" lon="12.9849833"><ele>274.0</ele><time>2026-04-04T15:19:55.833Z</time></trkpt><trkpt lat="43.3204767" lon="12.98513"><ele>275.0</ele><time>2026-04-04T15:19:56.835Z</time></trkpt><trkpt lat="43.3204617" lon="12.9852483"><ele>276.0</ele><time>2026-04-04T15:19:57.833Z</time></trkpt><trkpt lat="43.3204533" lon="12.9853417"><ele>277.0</ele><time>2026-04-04T15:19:58.834Z</time></trkpt><trkpt lat="43.3204533" lon="12.98544"><ele>277.0</ele><time>2026-04-04T15:20:00.834Z</time></trkpt><trkpt lat="43.3205167" lon="12.9854717"><ele>277.0</ele><time>2026-04-04T15:20:06.834Z</time></trkpt><trkpt lat="43.3206517" lon="12.9855283"><ele>277.0</ele><time>2026-04-04T15:20:08.835Z</time></trkpt><trkpt lat="43.32075" lon="12.9855617"><ele>277.0</ele><time>2026-04-04T15:20:09.834Z</time></trkpt><trkpt lat="43.3208667" lon="12.9855833"><ele>277.0</ele><time>2026-04-04T15:20:10.834Z</time></trkpt><trkpt lat="43.3209933" lon="12.9855983"><ele>276.2</ele><time>2026-04-04T15:20:11.835Z</time></trkpt><trkpt lat="43.3211133" lon="12.9856167"><ele>275.4</ele><time>2026-04-04T15:20:12.833Z</time></trkpt><trkpt lat="43.3212317" lon="12.9856283"><ele>274.6</ele><time>2026-04-04T15:20:13.834Z</time></trkpt><trkpt lat="43.3213267" lon="12.985645"><ele>273.8</ele><time>2026-04-04T15:20:14.833Z</time></trkpt><trkpt lat="43.3214" lon="12.985655"><ele>273.0</ele><time>2026-04-04T15:20:15.834Z</time></trkpt><trkpt lat="43.32146" lon="12.9856833"><ele>272.8</ele><time>2026-04-04T15:20:17.833Z</time></trkpt><trkpt lat="43.32154" lon="12.9857183"><ele>272.6</ele><time>2026-04-04T15:20:20.835Z</time></trkpt><trkpt lat="43.3216383" lon="12.9857667"><ele>272.4</ele><time>2026-04-04T15:20:22.835Z</time></trkpt><trkpt lat="43.3217517" lon="12.9858417"><ele>272.2</ele><time>2026-04-04T15:20:24.835Z</time></trkpt><trkpt lat="43.3218133" lon="12.9858933"><ele>272.0</ele><time>2026-04-04T15:20:25.836Z</time></trkpt><trkpt lat="43.32188" lon="12.985955"><ele>271.8</ele><time>2026-04-04T15:20:26.835Z</time></trkpt><trkpt lat="43.32195" lon="12.9860283"><ele>271.6</ele><time>2026-04-04T15:20:27.833Z</time></trkpt><trkpt lat="43.32203" lon="12.9861083"><ele>271.40000000000003</ele><time>2026-04-04T15:20:28.834Z</time></trkpt><trkpt lat="43.3221167" lon="12.98619"><ele>271.2</ele><time>2026-04-04T15:20:29.835Z</time></trkpt><trkpt lat="43.3221967" lon="12.986275"><ele>271.0</ele><time>2026-04-04T15:20:30.835Z</time></trkpt><trkpt lat="43.32226" lon="12.9863417"><ele>271.16666666666663</ele><time>2026-04-04T15:20:31.832Z</time></trkpt><trkpt lat="43.3223183" lon="12.9864067"><ele>271.3333333333333</ele><time>2026-04-04T15:20:32.834Z</time></trkpt><trkpt lat="43.32238" lon="12.986475"><ele>271.5</ele><time>2026-04-04T15:20:33.833Z</time></trkpt><trkpt lat="43.3224433" lon="12.9865433"><ele>271.6666666666667</ele><time>2026-04-04T15:20:34.835Z</time></trkpt><trkpt lat="43.322505" lon="12.9866117"><ele>271.83333333333337</ele><time>2026-04-04T15:20:35.834Z</time></trkpt><trkpt lat="43.32256" lon="12.9866683"><ele>272.0</ele><time>2026-04-04T15:20:36.835Z</time></trkpt><trkpt lat="43.322615" lon="12.986725"><ele>272.0</ele><time>2026-04-04T15:20:37.834Z</time></trkpt><trkpt lat="43.3226833" lon="12.986785"><ele>272.0</ele><time>2026-04-04T15:20:38.835Z</time></trkpt><trkpt lat="43.3227583" lon="12.9868483"><ele>272.0</ele><time>2026-04-04T15:20:39.835Z</time></trkpt><trkpt lat="43.3228383" lon="12.986925"><ele>272.0</ele><time>2026-04-04T15:20:40.832Z</time></trkpt><trkpt lat="43.3229183" lon="12.98701"><ele>272.0</ele><time>2026-04-04T15:20:41.835Z</time></trkpt><trkpt lat="43.3229967" lon="12.9870933"><ele>271.4</ele><time>2026-04-04T15:20:42.835Z</time></trkpt><trkpt lat="43.32308" lon="12.9871717"><ele>270.79999999999995</ele><time>2026-04-04T15:20:43.835Z</time></trkpt><trkpt lat="43.3231533" lon="12.9872467"><ele>270.2</ele><time>2026-04-04T15:20:44.835Z</time></trkpt><trkpt lat="43.323225" lon="12.9873183"><ele>269.59999999999997</ele><time>2026-04-04T15:20:45.832Z</time></trkpt><trkpt lat="43.3232933" lon="12.9873883"><ele>269.0</ele><time>2026-04-04T15:20:46.834Z</time></trkpt><trkpt lat="43.3233633" lon="12.987455"><ele>268.83333333333337</ele><time>2026-04-04T15:20:47.834Z</time></trkpt><trkpt lat="43.3234367" lon="12.987525"><ele>268.6666666666667</ele><time>2026-04-04T15:20:48.835Z</time></trkpt><trkpt lat="43.32351" lon="12.9875983"><ele>268.5</ele><time>2026-04-04T15:20:49.833Z</time></trkpt><trkpt lat="43.3235783" lon="12.9876767"><ele>268.3333333333333</ele><time>2026-04-04T15:20:50.835Z</time></trkpt><trkpt lat="43.3236483" lon="12.9877583"><ele>268.16666666666663</ele><time>2026-04-04T15:20:51.833Z</time></trkpt><trkpt lat="43.3237183" lon="12.9878333"><ele>268.0</ele><time>2026-04-04T15:20:52.833Z</time></trkpt><trkpt lat="43.3237883" lon="12.9879033"><ele>268.0</ele><time>2026-04-04T15:20:53.834Z</time></trkpt><trkpt lat="43.3238583" lon="12.9879667"><ele>268.0</ele><time>2026-04-04T15:20:54.833Z</time></trkpt><trkpt lat="43.323925" lon="12.98803"><ele>268.0</ele><time>2026-04-04T15:20:55.833Z</time></trkpt><trkpt lat="43.3239917" lon="12.9880983"><ele>268.0</ele><time>2026-04-04T15:20:56.836Z</time></trkpt><trkpt lat="43.3240633" lon="12.9881717"><ele>268.0</ele><time>2026-04-04T15:20:57.833Z</time></trkpt><trkpt lat="43.3241417" lon="12.9882517"><ele>268.0</ele><time>2026-04-04T15:20:58.832Z</time></trkpt><trkpt lat="43.3242217" lon="12.98833"><ele>267.75</ele><time>2026-04-04T15:20:59.833Z</time></trkpt><trkpt lat="43.3243067" lon="12.988415"><ele>267.5</ele><time>2026-04-04T15:21:00.833Z</time></trkpt><trkpt lat="43.3244" lon="12.988505"><ele>267.25</ele><time>2026-04-04T15:21:01.832Z</time></trkpt><trkpt lat="43.3244967" lon="12.9886"><ele>267.0</ele><time>2026-04-04T15:21:02.835Z</time></trkpt><trkpt lat="43.3246" lon="12.988695"><ele>267.0</ele><time>2026-04-04T15:21:03.832Z</time></trkpt><trkpt lat="43.3247017" lon="12.9887917"><ele>267.0</ele><time>2026-04-04T15:21:04.834Z</time></trkpt><trkpt lat="43.3248133" lon="12.9888983"><ele>267.0</ele><time>2026-04-04T15:21:05.835Z</time></trkpt><trkpt lat="43.3249267" lon="12.98901"><ele>267.0</ele><time>2026-04-04T15:21:06.835Z</time></trkpt><trkpt lat="43.32504" lon="12.98912"><ele>266.0</ele><time>2026-04-04T15:21:07.833Z</time></trkpt><trkpt lat="43.32515" lon="12.9892283"><ele>265.0</ele><time>2026-04-04T15:21:08.832Z</time></trkpt><trkpt lat="43.3252617" lon="12.98934"><ele>264.0</ele><time>2026-04-04T15:21:09.835Z</time></trkpt><trkpt lat="43.325375" lon="12.98945"><ele>263.0</ele><time>2026-04-04T15:21:10.833Z</time></trkpt><trkpt lat="43.3254833" lon="12.9895617"><ele>262.25</ele><time>2026-04-04T15:21:11.834Z</time></trkpt><trkpt lat="43.325585" lon="12.98967"><ele>261.5</ele><time>2026-04-04T15:21:12.833Z</time></trkpt><trkpt lat="43.3256883" lon="12.9897733"><ele>260.75</ele><time>2026-04-04T15:21:13.834Z</time></trkpt><trkpt lat="43.325795" lon="12.9898783"><ele>260.0</ele><time>2026-04-04T15:21:14.834Z</time></trkpt><trkpt lat="43.3259033" lon="12.9899867"><ele>260.25</ele><time>2026-04-04T15:21:15.832Z</time></trkpt><trkpt lat="43.3260183" lon="12.9900983"><ele>260.5</ele><time>2026-04-04T15:21:16.833Z</time></trkpt><trkpt lat="43.32613" lon="12.9902067"><ele>260.75</ele><time>2026-04-04T15:21:17.834Z</time></trkpt><trkpt lat="43.3262317" lon="12.9903017"><ele>261.0</ele><time>2026-04-04T15:21:18.834Z</time></trkpt><trkpt lat="43.326325" lon="12.9903933"><ele>260.5</ele><time>2026-04-04T15:21:19.833Z</time></trkpt><trkpt lat="43.3264183" lon="12.990485"><ele>260.0</ele><time>2026-04-04T15:21:20.834Z</time></trkpt><trkpt lat="43.3265133" lon="12.99058"><ele>259.5</ele><time>2026-04-04T15:21:21.834Z</time></trkpt><trkpt lat="43.3266183" lon="12.9906767"><ele>259.0</ele><time>2026-04-04T15:21:22.833Z</time></trkpt><trkpt lat="43.326725" lon="12.9907817"><ele>259.5</ele><time>2026-04-04T15:21:23.833Z</time></trkpt><trkpt lat="43.326835" lon="12.9908917"><ele>260.0</ele><time>2026-04-04T15:21:24.832Z</time></trkpt><trkpt lat="43.3269417" lon="12.9909967"><ele>260.5</ele><time>2026-04-04T15:21:25.833Z</time></trkpt><trkpt lat="43.3270467" lon="12.9911067"><ele>261.0</ele><time>2026-04-04T15:21:26.834Z</time></trkpt><trkpt lat="43.3271517" lon="12.9912167"><ele>261.0</ele><time>2026-04-04T15:21:27.833Z</time></trkpt><trkpt lat="43.3272583" lon="12.9913233"><ele>261.0</ele><time>2026-04-04T15:21:28.834Z</time></trkpt><trkpt lat="43.327355" lon="12.9914217"><ele>261.0</ele><time>2026-04-04T15:21:29.833Z</time></trkpt><trkpt lat="43.327445" lon="12.9915167"><ele>261.0</ele><time>2026-04-04T15:21:30.834Z</time></trkpt><trkpt lat="43.3275333" lon="12.991605"><ele>261.6</ele><time>2026-04-04T15:21:31.833Z</time></trkpt><trkpt lat="43.3276183" lon="12.9916883"><ele>262.20000000000005</ele><time>2026-04-04T15:21:32.832Z</time></trkpt><trkpt lat="43.3276983" lon="12.9917667"><ele>262.79999999999995</ele><time>2026-04-04T15:21:33.832Z</time></trkpt><trkpt lat="43.3277583" lon="12.991835"><ele>263.4</ele><time>2026-04-04T15:21:34.833Z</time></trkpt><trkpt lat="43.32781" lon="12.99189"><ele>264.0</ele><time>2026-04-04T15:21:35.834Z</time></trkpt><trkpt lat="43.3279067" lon="12.9919883"><ele>264.0</ele><time>2026-04-04T15:21:37.833Z</time></trkpt><trkpt lat="43.3279733" lon="12.9920517"><ele>264.0</ele><time>2026-04-04T15:21:38.836Z</time></trkpt><trkpt lat="43.3280533" lon="12.9921233"><ele>264.0</ele><time>2026-04-04T15:21:39.835Z</time></trkpt><trkpt lat="43.3281367" lon="12.9922133"><ele>264.0</ele><time>2026-04-04T15:21:40.833Z</time></trkpt><trkpt lat="43.32823" lon="12.992305"><ele>264.0</ele><time>2026-04-04T15:21:41.833Z</time></trkpt><trkpt lat="43.328335" lon="12.9924133"><ele>263.25</ele><time>2026-04-04T15:21:42.835Z</time></trkpt><trkpt lat="43.3284467" lon="12.9925267"><ele>262.5</ele><time>2026-04-04T15:21:43.835Z</time></trkpt><trkpt lat="43.3285617" lon="12.9926467"><ele>261.75</ele><time>2026-04-04T15:21:44.834Z</time></trkpt><trkpt lat="43.3286867" lon="12.992765"><ele>261.0</ele><time>2026-04-04T15:21:45.833Z</time></trkpt><trkpt lat="43.3288117" lon="12.99289"><ele>260.0</ele><time>2026-04-04T15:21:46.834Z</time></trkpt><trkpt lat="43.3289317" lon="12.993005"><ele>259.0</ele><time>2026-04-04T15:21:47.833Z</time></trkpt><trkpt lat="43.3290317" lon="12.9931233"><ele>258.0</ele><time>2026-04-04T15:21:48.834Z</time></trkpt><trkpt lat="43.3291383" lon="12.9932467"><ele>257.0</ele><time>2026-04-04T15:21:49.832Z</time></trkpt><trkpt lat="43.3292583" lon="12.9933667"><ele>256.6666666666667</ele><time>2026-04-04T15:21:50.834Z</time></trkpt><trkpt lat="43.3293883" lon="12.9934883"><ele>256.3333333333333</ele><time>2026-04-04T15:21:51.834Z</time></trkpt><trkpt lat="43.3295167" lon="12.99361"><ele>256.0</ele><time>2026-04-04T15:21:52.834Z</time></trkpt><trkpt lat="43.3296433" lon="12.9937367"><ele>255.66666666666666</ele><time>2026-04-04T15:21:53.834Z</time></trkpt><trkpt lat="43.3297667" lon="12.9938667"><ele>255.33333333333331</ele><time>2026-04-04T15:21:54.833Z</time></trkpt><trkpt lat="43.3298917" lon="12.9939983"><ele>255.0</ele><time>2026-04-04T15:21:55.832Z</time></trkpt><trkpt lat="43.3300167" lon="12.9941283"><ele>255.0</ele><time>2026-04-04T15:21:56.835Z</time></trkpt><trkpt lat="43.33014" lon="12.9942567"><ele>255.0</ele><time>2026-04-04T15:21:57.834Z</time></trkpt><trkpt lat="43.3302667" lon="12.9943833"><ele>255.0</ele><time>2026-04-04T15:21:58.834Z</time></trkpt><trkpt lat="43.3303883" lon="12.9945083"><ele>255.0</ele><time>2026-04-04T15:21:59.835Z</time></trkpt><trkpt lat="43.3305133" lon="12.9946317"><ele>255.0</ele><time>2026-04-04T15:22:00.836Z</time></trkpt><trkpt lat="43.3306417" lon="12.994755"><ele>255.0</ele><time>2026-04-04T15:22:01.833Z</time></trkpt><trkpt lat="43.3307717" lon="12.9948767"><ele>254.33333333333331</ele><time>2026-04-04T15:22:02.834Z</time></trkpt><trkpt lat="43.3309" lon="12.995"><ele>253.66666666666666</ele><time>2026-04-04T15:22:03.834Z</time></trkpt><trkpt lat="43.33103" lon="12.995125"><ele>253.0</ele><time>2026-04-04T15:22:04.833Z</time></trkpt><trkpt lat="43.3311567" lon="12.9952517"><ele>253.0</ele><time>2026-04-04T15:22:05.836Z</time></trkpt><trkpt lat="43.3312833" lon="12.9953767"><ele>253.0</ele><time>2026-04-04T15:22:06.836Z</time></trkpt><trkpt lat="43.3314117" lon="12.9955033"><ele>253.0</ele><time>2026-04-04T15:22:07.835Z</time></trkpt><trkpt lat="43.3315467" lon="12.9956417"><ele>253.0</ele><time>2026-04-04T15:22:08.834Z</time></trkpt><trkpt lat="43.331685" lon="12.99578"><ele>253.0</ele><time>2026-04-04T15:22:09.833Z</time></trkpt><trkpt lat="43.33183" lon="12.9959183"><ele>253.0</ele><time>2026-04-04T15:22:10.834Z</time></trkpt><trkpt lat="43.3319733" lon="12.9960567"><ele>252.66666666666666</ele><time>2026-04-04T15:22:11.835Z</time></trkpt><trkpt lat="43.332115" lon="12.9961933"><ele>252.33333333333331</ele><time>2026-04-04T15:22:12.834Z</time></trkpt><trkpt lat="43.332255" lon="12.9963333"><ele>252.0</ele><time>2026-04-04T15:22:13.834Z</time></trkpt><trkpt lat="43.332395" lon="12.9964683"><ele>252.0</ele><time>2026-04-04T15:22:14.834Z</time></trkpt><trkpt lat="43.3325333" lon="12.9966017"><ele>252.0</ele><time>2026-04-04T15:22:15.834Z</time></trkpt><trkpt lat="43.33267" lon="12.9967367"><ele>252.0</ele><time>2026-04-04T15:22:16.834Z</time></trkpt><trkpt lat="43.3328067" lon="12.9968717"><ele>252.33333333333331</ele><time>2026-04-04T15:22:17.834Z</time></trkpt><trkpt lat="43.33294" lon="12.9970067"><ele>252.66666666666666</ele><time>2026-04-04T15:22:18.834Z</time></trkpt><trkpt lat="43.3330717" lon="12.99714"><ele>253.0</ele><time>2026-04-04T15:22:19.832Z</time></trkpt><trkpt lat="43.3332067" lon="12.99727"><ele>253.0</ele><time>2026-04-04T15:22:20.834Z</time></trkpt><trkpt lat="43.3333417" lon="12.9974"><ele>253.0</ele><time>2026-04-04T15:22:21.833Z</time></trkpt><trkpt lat="43.3334733" lon="12.9975317"><ele>253.0</ele><time>2026-04-04T15:22:22.834Z</time></trkpt><trkpt lat="43.3336067" lon="12.99766"><ele>253.0</ele><time>2026-04-04T15:22:23.834Z</time></trkpt><trkpt lat="43.3337417" lon="12.997785"><ele>253.0</ele><time>2026-04-04T15:22:24.834Z</time></trkpt><trkpt lat="43.33388" lon="12.9979067"><ele>253.0</ele><time>2026-04-04T15:22:25.833Z</time></trkpt><trkpt lat="43.33402" lon="12.9980233"><ele>253.0</ele><time>2026-04-04T15:22:26.833Z</time></trkpt><trkpt lat="43.3341667" lon="12.9981367"><ele>253.0</ele><time>2026-04-04T15:22:27.832Z</time></trkpt><trkpt lat="43.334315" lon="12.9982467"><ele>253.0</ele><time>2026-04-04T15:22:28.833Z</time></trkpt><trkpt lat="43.33447" lon="12.9983467"><ele>255.0</ele><time>2026-04-04T15:22:29.833Z</time></trkpt><trkpt lat="43.3346267" lon="12.9984433"><ele>257.0</ele><time>2026-04-04T15:22:30.833Z</time></trkpt><trkpt lat="43.3347833" lon="12.9985333"><ele>259.0</ele><time>2026-04-04T15:22:31.834Z</time></trkpt><trkpt lat="43.334945" lon="12.998615"><ele>259.0</ele><time>2026-04-04T15:22:32.834Z</time></trkpt><trkpt lat="43.3351067" lon="12.9986933"><ele>259.0</ele><time>2026-04-04T15:22:33.832Z</time></trkpt><trkpt lat="43.33527" lon="12.9987683"><ele>259.0</ele><time>2026-04-04T15:22:34.833Z</time></trkpt><trkpt lat="43.3354333" lon="12.9988383"><ele>257.3333333333333</ele><time>2026-04-04T15:22:35.832Z</time></trkpt><trkpt lat="43.3355983" lon="12.9989017"><ele>255.66666666666669</ele><time>2026-04-04T15:22:36.833Z</time></trkpt><trkpt lat="43.335765" lon="12.9989583"><ele>254.0</ele><time>2026-04-04T15:22:37.832Z</time></trkpt><trkpt lat="43.335935" lon="12.9990033"><ele>254.0</ele><time>2026-04-04T15:22:38.834Z</time></trkpt><trkpt lat="43.336105" lon="12.99904"><ele>254.0</ele><time>2026-04-04T15:22:39.833Z</time></trkpt><trkpt lat="43.3362767" lon="12.9990683"><ele>254.0</ele><time>2026-04-04T15:22:40.834Z</time></trkpt><trkpt lat="43.33645" lon="12.9990883"><ele>252.66666666666669</ele><time>2026-04-04T15:22:41.832Z</time></trkpt><trkpt lat="43.3366217" lon="12.9991017"><ele>251.33333333333331</ele><time>2026-04-04T15:22:42.834Z</time></trkpt><trkpt lat="43.3367933" lon="12.9991133"><ele>250.0</ele><time>2026-04-04T15:22:43.835Z</time></trkpt><trkpt lat="43.3369617" lon="12.99912"><ele>250.0</ele><time>2026-04-04T15:22:44.835Z</time></trkpt><trkpt lat="43.33713" lon="12.99912"><ele>250.0</ele><time>2026-04-04T15:22:45.834Z</time></trkpt><trkpt lat="43.3372983" lon="12.9991117"><ele>250.0</ele><time>2026-04-04T15:22:46.832Z</time></trkpt><trkpt lat="43.3374667" lon="12.999095"><ele>249.66666666666666</ele><time>2026-04-04T15:22:47.834Z</time></trkpt><trkpt lat="43.3376333" lon="12.9990783"><ele>249.33333333333331</ele><time>2026-04-04T15:22:48.834Z</time></trkpt><trkpt lat="43.3378017" lon="12.99906"><ele>249.0</ele><time>2026-04-04T15:22:49.835Z</time></trkpt><trkpt lat="43.33797" lon="12.999045"><ele>249.66666666666669</ele><time>2026-04-04T15:22:50.836Z</time></trkpt><trkpt lat="43.33814" lon="12.9990283"><ele>250.33333333333334</ele><time>2026-04-04T15:22:51.837Z</time></trkpt><trkpt lat="43.3383083" lon="12.9990117"><ele>251.0</ele><time>2026-04-04T15:22:52.833Z</time></trkpt><trkpt lat="43.338475" lon="12.99899"><ele>251.0</ele><time>2026-04-04T15:22:53.834Z</time></trkpt><trkpt lat="43.3386433" lon="12.9989683"><ele>251.0</ele><time>2026-04-04T15:22:54.834Z</time></trkpt><trkpt lat="43.3388117" lon="12.998945"><ele>251.0</ele><time>2026-04-04T15:22:55.832Z</time></trkpt><trkpt lat="43.33898" lon="12.9989233"><ele>251.66666666666669</ele><time>2026-04-04T15:22:56.835Z</time></trkpt><trkpt lat="43.3391483" lon="12.9989017"><ele>252.33333333333331</ele><time>2026-04-04T15:22:57.833Z</time></trkpt><trkpt lat="43.3393117" lon="12.99888"><ele>253.0</ele><time>2026-04-04T15:22:58.834Z</time></trkpt><trkpt lat="43.339475" lon="12.99886"><ele>253.0</ele><time>2026-04-04T15:22:59.833Z</time></trkpt><trkpt lat="43.3396333" lon="12.99884"><ele>253.0</ele><time>2026-04-04T15:23:00.833Z</time></trkpt><trkpt lat="43.339795" lon="12.9988183"><ele>253.0</ele><time>2026-04-04T15:23:01.833Z</time></trkpt><trkpt lat="43.3399567" lon="12.9987983"><ele>253.33333333333331</ele><time>2026-04-04T15:23:02.834Z</time></trkpt><trkpt lat="43.340115" lon="12.9987767"><ele>253.66666666666669</ele><time>2026-04-04T15:23:03.834Z</time></trkpt><trkpt lat="43.3402733" lon="12.9987567"><ele>254.0</ele><time>2026-04-04T15:23:04.834Z</time></trkpt><trkpt lat="43.3404317" lon="12.9987367"><ele>253.66666666666669</ele><time>2026-04-04T15:23:05.834Z</time></trkpt><trkpt lat="43.3405933" lon="12.9987167"><ele>253.33333333333331</ele><time>2026-04-04T15:23:06.836Z</time></trkpt><trkpt lat="43.3407583" lon="12.9986933"><ele>253.0</ele><time>2026-04-04T15:23:07.835Z</time></trkpt><trkpt lat="43.3409233" lon="12.9986717"><ele>253.0</ele><time>2026-04-04T15:23:08.835Z</time></trkpt><trkpt lat="43.3410917" lon="12.9986467"><ele>253.0</ele><time>2026-04-04T15:23:09.833Z</time></trkpt><trkpt lat="43.341265" lon="12.99862"><ele>253.0</ele><time>2026-04-04T15:23:10.835Z</time></trkpt><trkpt lat="43.3414383" lon="12.9986017"><ele>253.66666666666666</ele><time>2026-04-04T15:23:11.834Z</time></trkpt><trkpt lat="43.3416117" lon="12.9985783"><ele>254.33333333333331</ele><time>2026-04-04T15:23:12.834Z</time></trkpt><trkpt lat="43.3417867" lon="12.9985533"><ele>255.0</ele><time>2026-04-04T15:23:13.835Z</time></trkpt><trkpt lat="43.3419617" lon="12.9985333"><ele>255.0</ele><time>2026-04-04T15:23:14.835Z</time></trkpt><trkpt lat="43.3421383" lon="12.9985117"><ele>255.0</ele><time>2026-04-04T15:23:15.834Z</time></trkpt><trkpt lat="43.3423117" lon="12.9984917"><ele>255.0</ele><time>2026-04-04T15:23:16.834Z</time></trkpt><trkpt lat="43.342485" lon="12.9984667"><ele>254.33333333333331</ele><time>2026-04-04T15:23:17.834Z</time></trkpt><trkpt lat="43.3426517" lon="12.998445"><ele>253.66666666666666</ele><time>2026-04-04T15:23:18.834Z</time></trkpt><trkpt lat="43.34282" lon="12.9984267"><ele>253.0</ele><time>2026-04-04T15:23:19.835Z</time></trkpt><trkpt lat="43.342985" lon="12.998405"><ele>252.33333333333331</ele><time>2026-04-04T15:23:20.834Z</time></trkpt><trkpt lat="43.3431483" lon="12.99838"><ele>251.66666666666669</ele><time>2026-04-04T15:23:21.833Z</time></trkpt><trkpt lat="43.34331" lon="12.998355"><ele>251.0</ele><time>2026-04-04T15:23:22.83Z</time></trkpt><trkpt lat="43.3434683" lon="12.9983317"><ele>249.0</ele><time>2026-04-04T15:23:23.832Z</time></trkpt><trkpt lat="43.3436183" lon="12.9983117"><ele>247.0</ele><time>2026-04-04T15:23:24.833Z</time></trkpt><trkpt lat="43.3437617" lon="12.998295"><ele>245.0</ele><time>2026-04-04T15:23:25.835Z</time></trkpt><trkpt lat="43.3438967" lon="12.9982817"><ele>243.0</ele><time>2026-04-04T15:23:26.835Z</time></trkpt><trkpt lat="43.34403" lon="12.9982667"><ele>242.60000000000002</ele><time>2026-04-04T15:23:27.834Z</time></trkpt><trkpt lat="43.344155" lon="12.9982533"><ele>242.20000000000002</ele><time>2026-04-04T15:23:28.834Z</time></trkpt><trkpt lat="43.34427" lon="12.99823"><ele>241.8</ele><time>2026-04-04T15:23:29.835Z</time></trkpt><trkpt lat="43.3443667" lon="12.9982167"><ele>241.4</ele><time>2026-04-04T15:23:30.833Z</time></trkpt><trkpt lat="43.3444533" lon="12.9982067"><ele>241.0</ele><time>2026-04-04T15:23:31.833Z</time></trkpt><trkpt lat="43.344525" lon="12.9982017"><ele>241.0</ele><time>2026-04-04T15:23:32.835Z</time></trkpt><trkpt lat="43.3446317" lon="12.9982467"><ele>241.0</ele><time>2026-04-04T15:23:34.832Z</time></trkpt><trkpt lat="43.3447017" lon="12.9983567"><ele>243.0</ele><time>2026-04-04T15:23:36.832Z</time></trkpt><trkpt lat="43.3447217" lon="12.998505"><ele>240.0</ele><time>2026-04-04T15:23:38.835Z</time></trkpt><trkpt lat="43.3446717" lon="12.998585"><ele>243.0</ele><time>2026-04-04T15:23:41.834Z</time></trkpt></trkseg></trk></gpx>